<?xml version="1.0" encoding="UTF-8" standalone="no" ?>
<gpx xmlns="http://www.topografix.com/GPX/1/1" xmlns:xsi="http://www.w3.org/2001/XMLSchema-instance" xsi:schemaLocation="http://www.topografix.com/GPX/1/1 http://www.topografix.com/GPX/1/1/gpx.xsd" version="1.1" creator="VisuGPX - https://www.visugpx.com">
  <metadata>
    <name>Petit tour sur Digne</name>
  </metadata>
  <trk>
    <name><![CDATA[Petit tour sur Digne]]></name>
    <extensions>
      <line xmlns="http://www.topografix.com/GPX/gpx_style/0/2">
        <color>ff4000</color>
        <width>4</width>
      </line>
    </extensions>
    <trkseg>
      <trkpt lat="44.08916" lon="6.27578">
        <ele>658.2</ele>
        <time>2019-06-23T07:08:00.000Z</time>
        <extensions>
          <visugpx:TrkExtension xmlns:visugpx="https://www.visugpx.com/editgpx/">
            <visugpx:node>10</visugpx:node>
            </visugpx:TrkExtension>
        </extensions>
      </trkpt>
      <trkpt lat="44.08916" lon="6.27578">
        <ele>658.2</ele>
        <time>2019-06-23T07:08:00.000Z</time>
      </trkpt>
      <trkpt lat="44.08915" lon="6.27584">
        <ele>658.2</ele>
        <time>2019-06-23T07:08:01.000Z</time>
      </trkpt>
      <trkpt lat="44.08914" lon="6.27591">
        <ele>658.4</ele>
        <time>2019-06-23T07:08:02.000Z</time>
      </trkpt>
      <trkpt lat="44.08908" lon="6.27614">
        <ele>658.6</ele>
        <time>2019-06-23T07:08:06.000Z</time>
      </trkpt>
      <trkpt lat="44.08903" lon="6.27633">
        <ele>658.6</ele>
        <time>2019-06-23T07:08:09.000Z</time>
      </trkpt>
      <trkpt lat="44.08901" lon="6.27639">
        <ele>658.4</ele>
        <time>2019-06-23T07:08:10.000Z</time>
      </trkpt>
      <trkpt lat="44.08899" lon="6.27645">
        <ele>658.4</ele>
        <time>2019-06-23T07:08:11.000Z</time>
      </trkpt>
      <trkpt lat="44.08895" lon="6.27665">
        <ele>658.6</ele>
        <time>2019-06-23T07:08:14.000Z</time>
      </trkpt>
      <trkpt lat="44.08893" lon="6.2768">
        <ele>658.6</ele>
        <time>2019-06-23T07:08:16.000Z</time>
      </trkpt>
      <trkpt lat="44.08892" lon="6.27701">
        <ele>659.2</ele>
        <time>2019-06-23T07:08:19.000Z</time>
      </trkpt>
      <trkpt lat="44.08893" lon="6.27709">
        <ele>659.4</ele>
        <time>2019-06-23T07:08:20.000Z</time>
      </trkpt>
      <trkpt lat="44.08896" lon="6.27722">
        <ele>659.8</ele>
        <time>2019-06-23T07:08:22.000Z</time>
      </trkpt>
      <trkpt lat="44.08904" lon="6.27748">
        <ele>660.4</ele>
        <time>2019-06-23T07:08:26.000Z</time>
      </trkpt>
      <trkpt lat="44.08908" lon="6.27761">
        <ele>660.4</ele>
        <time>2019-06-23T07:08:28.000Z</time>
      </trkpt>
      <trkpt lat="44.0892" lon="6.27793">
        <ele>661.4</ele>
        <time>2019-06-23T07:08:33.000Z</time>
      </trkpt>
      <trkpt lat="44.08926" lon="6.27812">
        <ele>661.8</ele>
        <time>2019-06-23T07:08:36.000Z</time>
      </trkpt>
      <trkpt lat="44.0893" lon="6.27825">
        <ele>662</ele>
        <time>2019-06-23T07:08:38.000Z</time>
      </trkpt>
      <trkpt lat="44.0894" lon="6.2785">
        <ele>662.4</ele>
        <time>2019-06-23T07:08:42.000Z</time>
      </trkpt>
      <trkpt lat="44.08944" lon="6.27863">
        <ele>663</ele>
        <time>2019-06-23T07:08:44.000Z</time>
      </trkpt>
      <trkpt lat="44.08948" lon="6.27876">
        <ele>663.6</ele>
        <time>2019-06-23T07:08:46.000Z</time>
      </trkpt>
      <trkpt lat="44.08953" lon="6.27897">
        <ele>664</ele>
        <time>2019-06-23T07:08:49.000Z</time>
      </trkpt>
      <trkpt lat="44.08955" lon="6.27911">
        <ele>664.4</ele>
        <time>2019-06-23T07:08:51.000Z</time>
      </trkpt>
      <trkpt lat="44.08956" lon="6.27919">
        <ele>664.6</ele>
        <time>2019-06-23T07:08:52.000Z</time>
      </trkpt>
      <trkpt lat="44.0896" lon="6.27954">
        <ele>665.6</ele>
        <time>2019-06-23T07:08:57.000Z</time>
      </trkpt>
      <trkpt lat="44.08961" lon="6.27968">
        <ele>666</ele>
        <time>2019-06-23T07:08:59.000Z</time>
      </trkpt>
      <trkpt lat="44.08962" lon="6.28">
        <ele>666.6</ele>
        <time>2019-06-23T07:09:03.000Z</time>
      </trkpt>
      <trkpt lat="44.08961" lon="6.28007">
        <ele>666.8</ele>
        <time>2019-06-23T07:09:04.000Z</time>
      </trkpt>
      <trkpt lat="44.08959" lon="6.28014">
        <ele>666.8</ele>
        <time>2019-06-23T07:09:05.000Z</time>
      </trkpt>
      <trkpt lat="44.08955" lon="6.28026">
        <ele>666.6</ele>
        <time>2019-06-23T07:09:07.000Z</time>
      </trkpt>
      <trkpt lat="44.08948" lon="6.28036">
        <ele>666.8</ele>
        <time>2019-06-23T07:09:09.000Z</time>
      </trkpt>
      <trkpt lat="44.08937" lon="6.28055">
        <ele>667.6</ele>
        <time>2019-06-23T07:09:14.000Z</time>
      </trkpt>
      <trkpt lat="44.08935" lon="6.28057">
        <ele>668</ele>
        <time>2019-06-23T07:09:15.000Z</time>
      </trkpt>
      <trkpt lat="44.08927" lon="6.2807">
        <ele>669</ele>
        <time>2019-06-23T07:09:20.000Z</time>
      </trkpt>
      <trkpt lat="44.08926" lon="6.28073">
        <ele>669</ele>
        <time>2019-06-23T07:09:21.000Z</time>
      </trkpt>
      <trkpt lat="44.08913" lon="6.28091">
        <ele>669.8</ele>
        <time>2019-06-23T07:09:27.000Z</time>
      </trkpt>
      <trkpt lat="44.08912" lon="6.28094">
        <ele>669.8</ele>
        <time>2019-06-23T07:09:28.000Z</time>
      </trkpt>
      <trkpt lat="44.08911" lon="6.28099">
        <ele>670.2</ele>
        <time>2019-06-23T07:09:29.000Z</time>
      </trkpt>
      <trkpt lat="44.08896" lon="6.2811">
        <ele>670.6</ele>
        <time>2019-06-23T07:09:34.000Z</time>
      </trkpt>
      <trkpt lat="44.08894" lon="6.28113">
        <ele>670.4</ele>
        <time>2019-06-23T07:09:35.000Z</time>
      </trkpt>
      <trkpt lat="44.08896" lon="6.28132">
        <ele>671</ele>
        <time>2019-06-23T07:09:39.000Z</time>
      </trkpt>
      <trkpt lat="44.08896" lon="6.28136">
        <ele>671</ele>
        <time>2019-06-23T07:09:40.000Z</time>
      </trkpt>
      <trkpt lat="44.08898" lon="6.28146">
        <ele>671.2</ele>
        <time>2019-06-23T07:09:42.000Z</time>
      </trkpt>
      <trkpt lat="44.08906" lon="6.2817">
        <ele>671.6</ele>
        <time>2019-06-23T07:09:48.000Z</time>
      </trkpt>
      <trkpt lat="44.08913" lon="6.28185">
        <ele>671.8</ele>
        <time>2019-06-23T07:09:52.000Z</time>
      </trkpt>
      <trkpt lat="44.08921" lon="6.282">
        <ele>671.8</ele>
        <time>2019-06-23T07:09:56.000Z</time>
      </trkpt>
      <trkpt lat="44.08925" lon="6.28208">
        <ele>672.2</ele>
        <time>2019-06-23T07:09:58.000Z</time>
      </trkpt>
      <trkpt lat="44.08935" lon="6.28225">
        <ele>673.4</ele>
        <time>2019-06-23T07:10:03.000Z</time>
      </trkpt>
      <trkpt lat="44.08937" lon="6.28229">
        <ele>673.4</ele>
        <time>2019-06-23T07:10:04.000Z</time>
      </trkpt>
      <trkpt lat="44.08947" lon="6.28247">
        <ele>673.6</ele>
        <time>2019-06-23T07:10:09.000Z</time>
      </trkpt>
      <trkpt lat="44.08952" lon="6.28259">
        <ele>673.6</ele>
        <time>2019-06-23T07:10:12.000Z</time>
      </trkpt>
      <trkpt lat="44.08954" lon="6.28268">
        <ele>673.6</ele>
        <time>2019-06-23T07:10:14.000Z</time>
      </trkpt>
      <trkpt lat="44.08952" lon="6.2828">
        <ele>674</ele>
        <time>2019-06-23T07:10:17.000Z</time>
      </trkpt>
      <trkpt lat="44.08949" lon="6.28293">
        <ele>674.4</ele>
        <time>2019-06-23T07:10:20.000Z</time>
      </trkpt>
      <trkpt lat="44.08944" lon="6.28301">
        <ele>674.8</ele>
        <time>2019-06-23T07:10:22.000Z</time>
      </trkpt>
      <trkpt lat="44.08938" lon="6.28311">
        <ele>675.6</ele>
        <time>2019-06-23T07:10:25.000Z</time>
      </trkpt>
      <trkpt lat="44.08929" lon="6.28323">
        <ele>676</ele>
        <time>2019-06-23T07:10:29.000Z</time>
      </trkpt>
      <trkpt lat="44.08916" lon="6.28337">
        <ele>676.8</ele>
        <time>2019-06-23T07:10:34.000Z</time>
      </trkpt>
      <trkpt lat="44.0891" lon="6.28339">
        <ele>677.2</ele>
        <time>2019-06-23T07:10:36.000Z</time>
      </trkpt>
      <trkpt lat="44.08901" lon="6.28341">
        <ele>678</ele>
        <time>2019-06-23T07:10:39.000Z</time>
      </trkpt>
      <trkpt lat="44.08893" lon="6.28342">
        <ele>678.4</ele>
        <time>2019-06-23T07:10:42.000Z</time>
      </trkpt>
      <trkpt lat="44.08885" lon="6.28345">
        <ele>679</ele>
        <time>2019-06-23T07:10:45.000Z</time>
      </trkpt>
      <trkpt lat="44.08877" lon="6.28351">
        <ele>679.4</ele>
        <time>2019-06-23T07:10:48.000Z</time>
      </trkpt>
      <trkpt lat="44.08873" lon="6.28356">
        <ele>679.6</ele>
        <time>2019-06-23T07:10:50.000Z</time>
      </trkpt>
      <trkpt lat="44.08867" lon="6.28365">
        <ele>680.2</ele>
        <time>2019-06-23T07:10:53.000Z</time>
      </trkpt>
      <trkpt lat="44.08866" lon="6.28368">
        <ele>680.4</ele>
        <time>2019-06-23T07:10:54.000Z</time>
      </trkpt>
      <trkpt lat="44.08857" lon="6.2839">
        <ele>681.2</ele>
        <time>2019-06-23T07:11:00.000Z</time>
      </trkpt>
      <trkpt lat="44.08856" lon="6.28393">
        <ele>681.6</ele>
        <time>2019-06-23T07:11:01.000Z</time>
      </trkpt>
      <trkpt lat="44.08855" lon="6.28401">
        <ele>682.2</ele>
        <time>2019-06-23T07:11:03.000Z</time>
      </trkpt>
      <trkpt lat="44.08854" lon="6.28405">
        <ele>682.4</ele>
        <time>2019-06-23T07:11:04.000Z</time>
      </trkpt>
      <trkpt lat="44.08848" lon="6.28422">
        <ele>683.4</ele>
        <time>2019-06-23T07:11:09.000Z</time>
      </trkpt>
      <trkpt lat="44.08848" lon="6.28426">
        <ele>683.6</ele>
        <time>2019-06-23T07:11:10.000Z</time>
      </trkpt>
      <trkpt lat="44.08849" lon="6.28442">
        <ele>684.8</ele>
        <time>2019-06-23T07:11:14.000Z</time>
      </trkpt>
      <trkpt lat="44.0885" lon="6.28445">
        <ele>684.8</ele>
        <time>2019-06-23T07:11:15.000Z</time>
      </trkpt>
      <trkpt lat="44.08856" lon="6.28455">
        <ele>685.6</ele>
        <time>2019-06-23T07:11:19.000Z</time>
      </trkpt>
      <trkpt lat="44.08857" lon="6.28457">
        <ele>685.8</ele>
        <time>2019-06-23T07:11:20.000Z</time>
      </trkpt>
      <trkpt lat="44.08864" lon="6.28473">
        <ele>686.4</ele>
        <time>2019-06-23T07:11:25.000Z</time>
      </trkpt>
      <trkpt lat="44.08866" lon="6.28481">
        <ele>686.8</ele>
        <time>2019-06-23T07:11:27.000Z</time>
      </trkpt>
      <trkpt lat="44.08867" lon="6.28494">
        <ele>687.6</ele>
        <time>2019-06-23T07:11:30.000Z</time>
      </trkpt>
      <trkpt lat="44.08866" lon="6.28503">
        <ele>688</ele>
        <time>2019-06-23T07:11:32.000Z</time>
      </trkpt>
      <trkpt lat="44.08863" lon="6.2852">
        <ele>688.4</ele>
        <time>2019-06-23T07:11:36.000Z</time>
      </trkpt>
      <trkpt lat="44.08861" lon="6.28529">
        <ele>689.2</ele>
        <time>2019-06-23T07:11:38.000Z</time>
      </trkpt>
      <trkpt lat="44.08859" lon="6.28546">
        <ele>690.4</ele>
        <time>2019-06-23T07:11:42.000Z</time>
      </trkpt>
      <trkpt lat="44.08857" lon="6.28563">
        <ele>691.6</ele>
        <time>2019-06-23T07:11:46.000Z</time>
      </trkpt>
      <trkpt lat="44.08856" lon="6.28576">
        <ele>692.6</ele>
        <time>2019-06-23T07:11:49.000Z</time>
      </trkpt>
      <trkpt lat="44.08856" lon="6.28592">
        <ele>693.8</ele>
        <time>2019-06-23T07:11:53.000Z</time>
      </trkpt>
      <trkpt lat="44.08856" lon="6.28596">
        <ele>694</ele>
        <time>2019-06-23T07:11:54.000Z</time>
      </trkpt>
      <trkpt lat="44.08857" lon="6.28613">
        <ele>695</ele>
        <time>2019-06-23T07:11:58.000Z</time>
      </trkpt>
      <trkpt lat="44.08861" lon="6.28629">
        <ele>695.8</ele>
        <time>2019-06-23T07:12:02.000Z</time>
      </trkpt>
      <trkpt lat="44.08863" lon="6.28633">
        <ele>696</ele>
        <time>2019-06-23T07:12:03.000Z</time>
      </trkpt>
      <trkpt lat="44.0887" lon="6.28642">
        <ele>697.2</ele>
        <time>2019-06-23T07:12:06.000Z</time>
      </trkpt>
      <trkpt lat="44.08875" lon="6.28647">
        <ele>697.6</ele>
        <time>2019-06-23T07:12:08.000Z</time>
      </trkpt>
      <trkpt lat="44.08893" lon="6.28663">
        <ele>698.2</ele>
        <time>2019-06-23T07:12:14.000Z</time>
      </trkpt>
      <trkpt lat="44.08896" lon="6.28665">
        <ele>698.4</ele>
        <time>2019-06-23T07:12:15.000Z</time>
      </trkpt>
      <trkpt lat="44.08913" lon="6.28683">
        <ele>699.2</ele>
        <time>2019-06-23T07:12:21.000Z</time>
      </trkpt>
      <trkpt lat="44.0892" lon="6.28686">
        <ele>699.6</ele>
        <time>2019-06-23T07:12:23.000Z</time>
      </trkpt>
      <trkpt lat="44.08936" lon="6.28688">
        <ele>700.2</ele>
        <time>2019-06-23T07:12:27.000Z</time>
      </trkpt>
      <trkpt lat="44.08946" lon="6.28696">
        <ele>700.6</ele>
        <time>2019-06-23T07:12:30.000Z</time>
      </trkpt>
      <trkpt lat="44.08948" lon="6.28702">
        <ele>700.6</ele>
        <time>2019-06-23T07:12:31.000Z</time>
      </trkpt>
      <trkpt lat="44.08947" lon="6.28708">
        <ele>700.6</ele>
        <time>2019-06-23T07:12:32.000Z</time>
      </trkpt>
      <trkpt lat="44.08942" lon="6.28718">
        <ele>700.4</ele>
        <time>2019-06-23T07:12:34.000Z</time>
      </trkpt>
      <trkpt lat="44.08931" lon="6.28742">
        <ele>700.2</ele>
        <time>2019-06-23T07:12:39.000Z</time>
      </trkpt>
      <trkpt lat="44.08929" lon="6.28752">
        <ele>700.8</ele>
        <time>2019-06-23T07:12:41.000Z</time>
      </trkpt>
      <trkpt lat="44.08923" lon="6.28778">
        <ele>701.6</ele>
        <time>2019-06-23T07:12:46.000Z</time>
      </trkpt>
      <trkpt lat="44.08921" lon="6.28783">
        <ele>702.2</ele>
        <time>2019-06-23T07:12:47.000Z</time>
      </trkpt>
      <trkpt lat="44.08919" lon="6.28787">
        <ele>702.6</ele>
        <time>2019-06-23T07:12:48.000Z</time>
      </trkpt>
      <trkpt lat="44.08915" lon="6.28795">
        <ele>703.2</ele>
        <time>2019-06-23T07:12:50.000Z</time>
      </trkpt>
      <trkpt lat="44.0891" lon="6.28802">
        <ele>703.6</ele>
        <time>2019-06-23T07:12:52.000Z</time>
      </trkpt>
      <trkpt lat="44.08903" lon="6.28813">
        <ele>704.6</ele>
        <time>2019-06-23T07:12:55.000Z</time>
      </trkpt>
      <trkpt lat="44.08893" lon="6.28832">
        <ele>705.6</ele>
        <time>2019-06-23T07:13:00.000Z</time>
      </trkpt>
      <trkpt lat="44.08891" lon="6.28836">
        <ele>706</ele>
        <time>2019-06-23T07:13:01.000Z</time>
      </trkpt>
      <trkpt lat="44.08882" lon="6.28851">
        <ele>707</ele>
        <time>2019-06-23T07:13:05.000Z</time>
      </trkpt>
      <trkpt lat="44.08874" lon="6.28867">
        <ele>708.2</ele>
        <time>2019-06-23T07:13:09.000Z</time>
      </trkpt>
      <trkpt lat="44.08873" lon="6.28872">
        <ele>708.6</ele>
        <time>2019-06-23T07:13:10.000Z</time>
      </trkpt>
      <trkpt lat="44.08873" lon="6.28881">
        <ele>709.2</ele>
        <time>2019-06-23T07:13:12.000Z</time>
      </trkpt>
      <trkpt lat="44.08874" lon="6.28886">
        <ele>709.4</ele>
        <time>2019-06-23T07:13:13.000Z</time>
      </trkpt>
      <trkpt lat="44.08881" lon="6.28902">
        <ele>710.4</ele>
        <time>2019-06-23T07:13:17.000Z</time>
      </trkpt>
      <trkpt lat="44.08883" lon="6.28906">
        <ele>710.8</ele>
        <time>2019-06-23T07:13:18.000Z</time>
      </trkpt>
      <trkpt lat="44.08885" lon="6.28915">
        <ele>711.4</ele>
        <time>2019-06-23T07:13:20.000Z</time>
      </trkpt>
      <trkpt lat="44.08887" lon="6.28925">
        <ele>712</ele>
        <time>2019-06-23T07:13:22.000Z</time>
      </trkpt>
      <trkpt lat="44.08892" lon="6.28944">
        <ele>713.4</ele>
        <time>2019-06-23T07:13:26.000Z</time>
      </trkpt>
      <trkpt lat="44.08896" lon="6.28958">
        <ele>714.4</ele>
        <time>2019-06-23T07:13:29.000Z</time>
      </trkpt>
      <trkpt lat="44.08903" lon="6.28986">
        <ele>715.6</ele>
        <time>2019-06-23T07:13:35.000Z</time>
      </trkpt>
      <trkpt lat="44.08905" lon="6.28996">
        <ele>716</ele>
        <time>2019-06-23T07:13:37.000Z</time>
      </trkpt>
      <trkpt lat="44.08908" lon="6.29022">
        <ele>716.6</ele>
        <time>2019-06-23T07:13:42.000Z</time>
      </trkpt>
      <trkpt lat="44.08911" lon="6.29032">
        <ele>717</ele>
        <time>2019-06-23T07:13:44.000Z</time>
      </trkpt>
      <trkpt lat="44.08915" lon="6.29046">
        <ele>718</ele>
        <time>2019-06-23T07:13:47.000Z</time>
      </trkpt>
      <trkpt lat="44.08919" lon="6.2906">
        <ele>718.8</ele>
        <time>2019-06-23T07:13:50.000Z</time>
      </trkpt>
      <trkpt lat="44.0892" lon="6.29065">
        <ele>719</ele>
        <time>2019-06-23T07:13:51.000Z</time>
      </trkpt>
      <trkpt lat="44.0892" lon="6.29069">
        <ele>719.2</ele>
        <time>2019-06-23T07:13:52.000Z</time>
      </trkpt>
      <trkpt lat="44.08924" lon="6.29092">
        <ele>720.6</ele>
        <time>2019-06-23T07:13:57.000Z</time>
      </trkpt>
      <trkpt lat="44.08925" lon="6.29096">
        <ele>720.8</ele>
        <time>2019-06-23T07:13:58.000Z</time>
      </trkpt>
      <trkpt lat="44.08931" lon="6.29121">
        <ele>721.6</ele>
        <time>2019-06-23T07:14:03.000Z</time>
      </trkpt>
      <trkpt lat="44.08937" lon="6.29138">
        <ele>722.8</ele>
        <time>2019-06-23T07:14:07.000Z</time>
      </trkpt>
      <trkpt lat="44.08949" lon="6.29148">
        <ele>723.8</ele>
        <time>2019-06-23T07:14:11.000Z</time>
      </trkpt>
      <trkpt lat="44.08953" lon="6.2915">
        <ele>724.2</ele>
        <time>2019-06-23T07:14:12.000Z</time>
      </trkpt>
      <trkpt lat="44.08966" lon="6.29155">
        <ele>725.2</ele>
        <time>2019-06-23T07:14:16.000Z</time>
      </trkpt>
      <trkpt lat="44.08972" lon="6.2916">
        <ele>726.2</ele>
        <time>2019-06-23T07:14:18.000Z</time>
      </trkpt>
      <trkpt lat="44.08975" lon="6.29162">
        <ele>726.4</ele>
        <time>2019-06-23T07:14:19.000Z</time>
      </trkpt>
      <trkpt lat="44.08983" lon="6.2917">
        <ele>727</ele>
        <time>2019-06-23T07:14:22.000Z</time>
      </trkpt>
      <trkpt lat="44.08986" lon="6.29173">
        <ele>727.4</ele>
        <time>2019-06-23T07:14:23.000Z</time>
      </trkpt>
      <trkpt lat="44.0899" lon="6.29182">
        <ele>728.2</ele>
        <time>2019-06-23T07:14:25.000Z</time>
      </trkpt>
      <trkpt lat="44.08992" lon="6.29186">
        <ele>728.6</ele>
        <time>2019-06-23T07:14:26.000Z</time>
      </trkpt>
      <trkpt lat="44.08996" lon="6.29206">
        <ele>729.6</ele>
        <time>2019-06-23T07:14:30.000Z</time>
      </trkpt>
      <trkpt lat="44.08997" lon="6.29211">
        <ele>729.8</ele>
        <time>2019-06-23T07:14:31.000Z</time>
      </trkpt>
      <trkpt lat="44.09005" lon="6.29234">
        <ele>730.2</ele>
        <time>2019-06-23T07:14:36.000Z</time>
      </trkpt>
      <trkpt lat="44.09003" lon="6.29244">
        <ele>730.8</ele>
        <time>2019-06-23T07:14:38.000Z</time>
      </trkpt>
      <trkpt lat="44.09" lon="6.29253">
        <ele>731.2</ele>
        <time>2019-06-23T07:14:40.000Z</time>
      </trkpt>
      <trkpt lat="44.09001" lon="6.29274">
        <ele>732</ele>
        <time>2019-06-23T07:14:44.000Z</time>
      </trkpt>
      <trkpt lat="44.09002" lon="6.29279">
        <ele>732.2</ele>
        <time>2019-06-23T07:14:45.000Z</time>
      </trkpt>
      <trkpt lat="44.09003" lon="6.29284">
        <ele>732.4</ele>
        <time>2019-06-23T07:14:46.000Z</time>
      </trkpt>
      <trkpt lat="44.09007" lon="6.29303">
        <ele>733.2</ele>
        <time>2019-06-23T07:14:50.000Z</time>
      </trkpt>
      <trkpt lat="44.09008" lon="6.29318">
        <ele>734</ele>
        <time>2019-06-23T07:14:53.000Z</time>
      </trkpt>
      <trkpt lat="44.09011" lon="6.29332">
        <ele>734.4</ele>
        <time>2019-06-23T07:14:56.000Z</time>
      </trkpt>
      <trkpt lat="44.09014" lon="6.29352">
        <ele>735.4</ele>
        <time>2019-06-23T07:15:00.000Z</time>
      </trkpt>
      <trkpt lat="44.09016" lon="6.29362">
        <ele>736</ele>
        <time>2019-06-23T07:15:02.000Z</time>
      </trkpt>
      <trkpt lat="44.09018" lon="6.29372">
        <ele>736.8</ele>
        <time>2019-06-23T07:15:04.000Z</time>
      </trkpt>
      <trkpt lat="44.09024" lon="6.29392">
        <ele>737.8</ele>
        <time>2019-06-23T07:15:08.000Z</time>
      </trkpt>
      <trkpt lat="44.09025" lon="6.29397">
        <ele>737.8</ele>
        <time>2019-06-23T07:15:09.000Z</time>
      </trkpt>
      <trkpt lat="44.09026" lon="6.29406">
        <ele>738</ele>
        <time>2019-06-23T07:15:11.000Z</time>
      </trkpt>
      <trkpt lat="44.09026" lon="6.29411">
        <ele>738.4</ele>
        <time>2019-06-23T07:15:12.000Z</time>
      </trkpt>
      <trkpt lat="44.09028" lon="6.29422">
        <ele>739.2</ele>
        <time>2019-06-23T07:15:14.000Z</time>
      </trkpt>
      <trkpt lat="44.09031" lon="6.29435">
        <ele>740</ele>
        <time>2019-06-23T07:15:17.000Z</time>
      </trkpt>
      <trkpt lat="44.09035" lon="6.29438">
        <ele>740.4</ele>
        <time>2019-06-23T07:15:18.000Z</time>
      </trkpt>
      <trkpt lat="44.09052" lon="6.29451">
        <ele>741.6</ele>
        <time>2019-06-23T07:15:23.000Z</time>
      </trkpt>
      <trkpt lat="44.09064" lon="6.29466">
        <ele>742.8</ele>
        <time>2019-06-23T07:15:27.000Z</time>
      </trkpt>
      <trkpt lat="44.09076" lon="6.29481">
        <ele>744.2</ele>
        <time>2019-06-23T07:15:31.000Z</time>
      </trkpt>
      <trkpt lat="44.09078" lon="6.29484">
        <ele>744.4</ele>
        <time>2019-06-23T07:15:32.000Z</time>
      </trkpt>
      <trkpt lat="44.09088" lon="6.29498">
        <ele>745.4</ele>
        <time>2019-06-23T07:15:36.000Z</time>
      </trkpt>
      <trkpt lat="44.09095" lon="6.29512">
        <ele>745.8</ele>
        <time>2019-06-23T07:15:39.000Z</time>
      </trkpt>
      <trkpt lat="44.09105" lon="6.29529">
        <ele>746.6</ele>
        <time>2019-06-23T07:15:43.000Z</time>
      </trkpt>
      <trkpt lat="44.09112" lon="6.29535">
        <ele>747</ele>
        <time>2019-06-23T07:15:45.000Z</time>
      </trkpt>
      <trkpt lat="44.09121" lon="6.29544">
        <ele>747.6</ele>
        <time>2019-06-23T07:15:48.000Z</time>
      </trkpt>
      <trkpt lat="44.09124" lon="6.29554">
        <ele>748</ele>
        <time>2019-06-23T07:15:50.000Z</time>
      </trkpt>
      <trkpt lat="44.09122" lon="6.2957">
        <ele>748.6</ele>
        <time>2019-06-23T07:15:53.000Z</time>
      </trkpt>
      <trkpt lat="44.09122" lon="6.29581">
        <ele>749</ele>
        <time>2019-06-23T07:15:55.000Z</time>
      </trkpt>
      <trkpt lat="44.09123" lon="6.29591">
        <ele>749.8</ele>
        <time>2019-06-23T07:15:57.000Z</time>
      </trkpt>
      <trkpt lat="44.09124" lon="6.29596">
        <ele>750</ele>
        <time>2019-06-23T07:15:58.000Z</time>
      </trkpt>
      <trkpt lat="44.0913" lon="6.2961">
        <ele>750.4</ele>
        <time>2019-06-23T07:16:01.000Z</time>
      </trkpt>
      <trkpt lat="44.09133" lon="6.29619">
        <ele>750.8</ele>
        <time>2019-06-23T07:16:03.000Z</time>
      </trkpt>
      <trkpt lat="44.09141" lon="6.29644">
        <ele>751.8</ele>
        <time>2019-06-23T07:16:08.000Z</time>
      </trkpt>
      <trkpt lat="44.09142" lon="6.29638">
        <ele>752.8</ele>
        <time>2019-06-23T07:17:23.000Z</time>
        <extensions>
          <visugpx:TrkExtension xmlns:visugpx="https://www.visugpx.com/editgpx/">
            <visugpx:node>1</visugpx:node>
            </visugpx:TrkExtension>
        </extensions>
      </trkpt>
      <trkpt lat="44.09139" lon="6.29626">
        <ele>753.2</ele>
        <time>2019-06-23T07:17:26.000Z</time>
      </trkpt>
      <trkpt lat="44.09139" lon="6.29623">
        <ele>753.6</ele>
        <time>2019-06-23T07:17:27.000Z</time>
      </trkpt>
      <trkpt lat="44.09139" lon="6.29616">
        <ele>754.6</ele>
        <time>2019-06-23T07:17:29.000Z</time>
      </trkpt>
      <trkpt lat="44.0914" lon="6.29609">
        <ele>756</ele>
        <time>2019-06-23T07:17:31.000Z</time>
      </trkpt>
      <trkpt lat="44.0914" lon="6.29603">
        <ele>757.4</ele>
        <time>2019-06-23T07:17:33.000Z</time>
      </trkpt>
      <trkpt lat="44.09142" lon="6.29598">
        <ele>758.6</ele>
        <time>2019-06-23T07:17:35.000Z</time>
      </trkpt>
      <trkpt lat="44.09143" lon="6.29597">
        <ele>759.2</ele>
        <time>2019-06-23T07:17:36.000Z</time>
      </trkpt>
      <trkpt lat="44.09145" lon="6.29597">
        <ele>759.6</ele>
        <time>2019-06-23T07:17:37.000Z</time>
      </trkpt>
      <trkpt lat="44.09148" lon="6.29601">
        <ele>761</ele>
        <time>2019-06-23T07:17:39.000Z</time>
      </trkpt>
      <trkpt lat="44.09149" lon="6.29604">
        <ele>761.8</ele>
        <time>2019-06-23T07:17:41.000Z</time>
      </trkpt>
      <trkpt lat="44.09149" lon="6.29604">
        <ele>762.2</ele>
        <time>2019-06-23T07:17:42.000Z</time>
      </trkpt>
      <trkpt lat="44.09149" lon="6.29604">
        <ele>762.6</ele>
        <time>2019-06-23T07:17:44.000Z</time>
      </trkpt>
      <trkpt lat="44.09148" lon="6.29604">
        <ele>763.2</ele>
        <time>2019-06-23T07:17:47.000Z</time>
      </trkpt>
      <trkpt lat="44.09148" lon="6.29604">
        <ele>763</ele>
        <time>2019-06-23T07:17:54.000Z</time>
      </trkpt>
      <trkpt lat="44.09148" lon="6.29604">
        <ele>763</ele>
        <time>2019-06-23T07:17:57.000Z</time>
      </trkpt>
      <trkpt lat="44.09148" lon="6.29604">
        <ele>763</ele>
        <time>2019-06-23T07:18:00.000Z</time>
      </trkpt>
      <trkpt lat="44.09149" lon="6.29608">
        <ele>762.2</ele>
        <time>2019-06-23T07:18:07.000Z</time>
      </trkpt>
      <trkpt lat="44.09152" lon="6.29613">
        <ele>762.6</ele>
        <time>2019-06-23T07:18:10.000Z</time>
      </trkpt>
      <trkpt lat="44.09154" lon="6.29619">
        <ele>763.8</ele>
        <time>2019-06-23T07:18:13.000Z</time>
      </trkpt>
      <trkpt lat="44.09155" lon="6.2962">
        <ele>764.2</ele>
        <time>2019-06-23T07:18:14.000Z</time>
      </trkpt>
      <trkpt lat="44.09156" lon="6.29622">
        <ele>764.4</ele>
        <time>2019-06-23T07:18:15.000Z</time>
      </trkpt>
      <trkpt lat="44.09157" lon="6.29626">
        <ele>765.4</ele>
        <time>2019-06-23T07:18:17.000Z</time>
      </trkpt>
      <trkpt lat="44.09158" lon="6.29631">
        <ele>766.2</ele>
        <time>2019-06-23T07:18:19.000Z</time>
      </trkpt>
      <trkpt lat="44.0916" lon="6.29636">
        <ele>766.6</ele>
        <time>2019-06-23T07:18:21.000Z</time>
      </trkpt>
      <trkpt lat="44.09165" lon="6.29644">
        <ele>767.4</ele>
        <time>2019-06-23T07:18:25.000Z</time>
      </trkpt>
      <trkpt lat="44.09166" lon="6.29646">
        <ele>767.6</ele>
        <time>2019-06-23T07:18:26.000Z</time>
      </trkpt>
      <trkpt lat="44.09175" lon="6.29651">
        <ele>767.8</ele>
        <time>2019-06-23T07:18:30.000Z</time>
      </trkpt>
      <trkpt lat="44.0918" lon="6.29652">
        <ele>767.8</ele>
        <time>2019-06-23T07:18:32.000Z</time>
      </trkpt>
      <trkpt lat="44.09182" lon="6.29655">
        <ele>768</ele>
        <time>2019-06-23T07:18:33.000Z</time>
      </trkpt>
      <trkpt lat="44.09185" lon="6.29659">
        <ele>768.4</ele>
        <time>2019-06-23T07:18:35.000Z</time>
      </trkpt>
      <trkpt lat="44.09187" lon="6.29662">
        <ele>768.6</ele>
        <time>2019-06-23T07:18:36.000Z</time>
      </trkpt>
      <trkpt lat="44.09188" lon="6.29665">
        <ele>768.8</ele>
        <time>2019-06-23T07:18:37.000Z</time>
      </trkpt>
      <trkpt lat="44.09197" lon="6.29674">
        <ele>769.4</ele>
        <time>2019-06-23T07:18:42.000Z</time>
      </trkpt>
      <trkpt lat="44.09201" lon="6.29677">
        <ele>770</ele>
        <time>2019-06-23T07:18:44.000Z</time>
      </trkpt>
      <trkpt lat="44.09206" lon="6.29682">
        <ele>770.8</ele>
        <time>2019-06-23T07:18:48.000Z</time>
      </trkpt>
      <trkpt lat="44.09207" lon="6.29683">
        <ele>771.2</ele>
        <time>2019-06-23T07:18:49.000Z</time>
      </trkpt>
      <trkpt lat="44.09213" lon="6.29691">
        <ele>772.6</ele>
        <time>2019-06-23T07:18:54.000Z</time>
      </trkpt>
      <trkpt lat="44.09216" lon="6.29693">
        <ele>773.6</ele>
        <time>2019-06-23T07:18:56.000Z</time>
      </trkpt>
      <trkpt lat="44.09222" lon="6.29702">
        <ele>773.8</ele>
        <time>2019-06-23T07:19:01.000Z</time>
      </trkpt>
      <trkpt lat="44.09233" lon="6.29714">
        <ele>774</ele>
        <time>2019-06-23T07:19:09.000Z</time>
      </trkpt>
      <trkpt lat="44.09244" lon="6.29726">
        <ele>774.4</ele>
        <time>2019-06-23T07:19:15.000Z</time>
      </trkpt>
      <trkpt lat="44.09247" lon="6.29728">
        <ele>774.8</ele>
        <time>2019-06-23T07:19:17.000Z</time>
      </trkpt>
      <trkpt lat="44.09254" lon="6.29734">
        <ele>775.8</ele>
        <time>2019-06-23T07:19:21.000Z</time>
      </trkpt>
      <trkpt lat="44.09258" lon="6.29738">
        <ele>776.2</ele>
        <time>2019-06-23T07:19:24.000Z</time>
      </trkpt>
      <trkpt lat="44.0926" lon="6.2974">
        <ele>776.4</ele>
        <time>2019-06-23T07:19:25.000Z</time>
      </trkpt>
      <trkpt lat="44.09263" lon="6.29744">
        <ele>776.6</ele>
        <time>2019-06-23T07:19:27.000Z</time>
      </trkpt>
      <trkpt lat="44.09275" lon="6.29764">
        <ele>776.2</ele>
        <time>2019-06-23T07:19:33.000Z</time>
      </trkpt>
      <trkpt lat="44.09287" lon="6.29785">
        <ele>774.6</ele>
        <time>2019-06-23T07:19:38.000Z</time>
      </trkpt>
      <trkpt lat="44.09295" lon="6.29797">
        <ele>774</ele>
        <time>2019-06-23T07:19:41.000Z</time>
      </trkpt>
      <trkpt lat="44.09304" lon="6.29805">
        <ele>774</ele>
        <time>2019-06-23T07:19:45.000Z</time>
      </trkpt>
      <trkpt lat="44.09306" lon="6.29805">
        <ele>774.2</ele>
        <time>2019-06-23T07:19:46.000Z</time>
      </trkpt>
      <trkpt lat="44.09312" lon="6.29808">
        <ele>775</ele>
        <time>2019-06-23T07:19:49.000Z</time>
      </trkpt>
      <trkpt lat="44.09312" lon="6.29814">
        <ele>775.2</ele>
        <time>2019-06-23T07:19:51.000Z</time>
      </trkpt>
      <trkpt lat="44.09309" lon="6.29825">
        <ele>775</ele>
        <time>2019-06-23T07:19:55.000Z</time>
      </trkpt>
      <trkpt lat="44.09309" lon="6.29834">
        <ele>775</ele>
        <time>2019-06-23T07:19:58.000Z</time>
      </trkpt>
      <trkpt lat="44.09312" lon="6.29839">
        <ele>775</ele>
        <time>2019-06-23T07:20:00.000Z</time>
      </trkpt>
      <trkpt lat="44.09313" lon="6.29841">
        <ele>775</ele>
        <time>2019-06-23T07:20:01.000Z</time>
      </trkpt>
      <trkpt lat="44.09319" lon="6.29848">
        <ele>775.4</ele>
        <time>2019-06-23T07:20:04.000Z</time>
      </trkpt>
      <trkpt lat="44.0932" lon="6.29849">
        <ele>775.6</ele>
        <time>2019-06-23T07:20:05.000Z</time>
      </trkpt>
      <trkpt lat="44.09322" lon="6.29851">
        <ele>775.8</ele>
        <time>2019-06-23T07:20:06.000Z</time>
      </trkpt>
      <trkpt lat="44.09327" lon="6.29857">
        <ele>776.8</ele>
        <time>2019-06-23T07:20:09.000Z</time>
      </trkpt>
      <trkpt lat="44.09337" lon="6.29869">
        <ele>777.2</ele>
        <time>2019-06-23T07:20:15.000Z</time>
      </trkpt>
      <trkpt lat="44.09346" lon="6.29881">
        <ele>777.2</ele>
        <time>2019-06-23T07:20:21.000Z</time>
      </trkpt>
      <trkpt lat="44.09349" lon="6.29889">
        <ele>777.4</ele>
        <time>2019-06-23T07:20:23.000Z</time>
      </trkpt>
      <trkpt lat="44.09352" lon="6.29898">
        <ele>778</ele>
        <time>2019-06-23T07:20:26.000Z</time>
      </trkpt>
      <trkpt lat="44.09359" lon="6.29907">
        <ele>778.6</ele>
        <time>2019-06-23T07:20:31.000Z</time>
      </trkpt>
      <trkpt lat="44.09361" lon="6.29908">
        <ele>779</ele>
        <time>2019-06-23T07:20:32.000Z</time>
      </trkpt>
      <trkpt lat="44.09363" lon="6.29908">
        <ele>779</ele>
        <time>2019-06-23T07:20:33.000Z</time>
      </trkpt>
      <trkpt lat="44.09364" lon="6.2991">
        <ele>779.6</ele>
        <time>2019-06-23T07:20:35.000Z</time>
      </trkpt>
      <trkpt lat="44.09364" lon="6.2991">
        <ele>779.8</ele>
        <time>2019-06-23T07:20:36.000Z</time>
      </trkpt>
      <trkpt lat="44.09365" lon="6.2991">
        <ele>780.4</ele>
        <time>2019-06-23T07:20:38.000Z</time>
      </trkpt>
      <trkpt lat="44.09368" lon="6.29914">
        <ele>781.2</ele>
        <time>2019-06-23T07:20:44.000Z</time>
      </trkpt>
      <trkpt lat="44.09369" lon="6.29915">
        <ele>781.4</ele>
        <time>2019-06-23T07:20:47.000Z</time>
      </trkpt>
      <trkpt lat="44.0937" lon="6.29918">
        <ele>782.2</ele>
        <time>2019-06-23T07:20:51.000Z</time>
      </trkpt>
      <trkpt lat="44.09371" lon="6.29919">
        <ele>782.2</ele>
        <time>2019-06-23T07:20:52.000Z</time>
      </trkpt>
      <trkpt lat="44.09371" lon="6.29921">
        <ele>782.6</ele>
        <time>2019-06-23T07:20:54.000Z</time>
      </trkpt>
      <trkpt lat="44.09372" lon="6.29925">
        <ele>783.2</ele>
        <time>2019-06-23T07:20:58.000Z</time>
      </trkpt>
      <trkpt lat="44.09372" lon="6.29927">
        <ele>783.8</ele>
        <time>2019-06-23T07:21:00.000Z</time>
      </trkpt>
      <trkpt lat="44.09373" lon="6.29928">
        <ele>784</ele>
        <time>2019-06-23T07:21:01.000Z</time>
      </trkpt>
      <trkpt lat="44.09373" lon="6.29929">
        <ele>784.2</ele>
        <time>2019-06-23T07:21:02.000Z</time>
      </trkpt>
      <trkpt lat="44.09374" lon="6.2993">
        <ele>784.6</ele>
        <time>2019-06-23T07:21:03.000Z</time>
      </trkpt>
      <trkpt lat="44.09374" lon="6.29931">
        <ele>784.8</ele>
        <time>2019-06-23T07:21:04.000Z</time>
      </trkpt>
      <trkpt lat="44.09377" lon="6.29931">
        <ele>785</ele>
        <time>2019-06-23T07:21:09.000Z</time>
      </trkpt>
      <trkpt lat="44.09378" lon="6.29926">
        <ele>785.8</ele>
        <time>2019-06-23T07:21:16.000Z</time>
      </trkpt>
      <trkpt lat="44.09379" lon="6.29921">
        <ele>786.8</ele>
        <time>2019-06-23T07:21:21.000Z</time>
      </trkpt>
      <trkpt lat="44.0938" lon="6.29916">
        <ele>788</ele>
        <time>2019-06-23T07:21:26.000Z</time>
      </trkpt>
      <trkpt lat="44.09382" lon="6.29911">
        <ele>789</ele>
        <time>2019-06-23T07:21:31.000Z</time>
      </trkpt>
      <trkpt lat="44.09383" lon="6.29909">
        <ele>789.6</ele>
        <time>2019-06-23T07:21:35.000Z</time>
      </trkpt>
      <trkpt lat="44.09384" lon="6.29907">
        <ele>790.2</ele>
        <time>2019-06-23T07:21:39.000Z</time>
      </trkpt>
      <trkpt lat="44.09384" lon="6.29905">
        <ele>790.6</ele>
        <time>2019-06-23T07:21:42.000Z</time>
      </trkpt>
      <trkpt lat="44.09385" lon="6.29902">
        <ele>791.4</ele>
        <time>2019-06-23T07:21:45.000Z</time>
      </trkpt>
      <trkpt lat="44.09386" lon="6.29901">
        <ele>791.8</ele>
        <time>2019-06-23T07:21:48.000Z</time>
      </trkpt>
      <trkpt lat="44.09388" lon="6.299">
        <ele>792.2</ele>
        <time>2019-06-23T07:21:51.000Z</time>
      </trkpt>
      <trkpt lat="44.09389" lon="6.29899">
        <ele>792.4</ele>
        <time>2019-06-23T07:21:52.000Z</time>
      </trkpt>
      <trkpt lat="44.09389" lon="6.29899">
        <ele>792.6</ele>
        <time>2019-06-23T07:21:53.000Z</time>
      </trkpt>
      <trkpt lat="44.09389" lon="6.29895">
        <ele>793.6</ele>
        <time>2019-06-23T07:21:56.000Z</time>
      </trkpt>
      <trkpt lat="44.09389" lon="6.29894">
        <ele>793.8</ele>
        <time>2019-06-23T07:21:57.000Z</time>
      </trkpt>
      <trkpt lat="44.09388" lon="6.29891">
        <ele>794.8</ele>
        <time>2019-06-23T07:22:02.000Z</time>
      </trkpt>
      <trkpt lat="44.09388" lon="6.2989">
        <ele>795</ele>
        <time>2019-06-23T07:22:03.000Z</time>
      </trkpt>
      <trkpt lat="44.09387" lon="6.29888">
        <ele>795.2</ele>
        <time>2019-06-23T07:22:05.000Z</time>
      </trkpt>
      <trkpt lat="44.09387" lon="6.29885">
        <ele>795.2</ele>
        <time>2019-06-23T07:22:07.000Z</time>
      </trkpt>
      <trkpt lat="44.09386" lon="6.29881">
        <ele>795.4</ele>
        <time>2019-06-23T07:22:09.000Z</time>
      </trkpt>
      <trkpt lat="44.09385" lon="6.29876">
        <ele>795.4</ele>
        <time>2019-06-23T07:22:11.000Z</time>
      </trkpt>
      <trkpt lat="44.09385" lon="6.29873">
        <ele>795.6</ele>
        <time>2019-06-23T07:22:12.000Z</time>
      </trkpt>
      <trkpt lat="44.09386" lon="6.29871">
        <ele>795.6</ele>
        <time>2019-06-23T07:22:13.000Z</time>
      </trkpt>
      <trkpt lat="44.09385" lon="6.29869">
        <ele>795.8</ele>
        <time>2019-06-23T07:22:14.000Z</time>
      </trkpt>
      <trkpt lat="44.09385" lon="6.29866">
        <ele>796.2</ele>
        <time>2019-06-23T07:22:15.000Z</time>
      </trkpt>
      <trkpt lat="44.09384" lon="6.29862">
        <ele>797.4</ele>
        <time>2019-06-23T07:22:17.000Z</time>
      </trkpt>
      <trkpt lat="44.09385" lon="6.29857">
        <ele>798.6</ele>
        <time>2019-06-23T07:22:19.000Z</time>
      </trkpt>
      <trkpt lat="44.09386" lon="6.29853">
        <ele>799.6</ele>
        <time>2019-06-23T07:22:21.000Z</time>
      </trkpt>
      <trkpt lat="44.09385" lon="6.2985">
        <ele>800</ele>
        <time>2019-06-23T07:22:22.000Z</time>
      </trkpt>
      <trkpt lat="44.09385" lon="6.29848">
        <ele>800.6</ele>
        <time>2019-06-23T07:22:23.000Z</time>
      </trkpt>
      <trkpt lat="44.09383" lon="6.29841">
        <ele>801.8</ele>
        <time>2019-06-23T07:22:26.000Z</time>
      </trkpt>
      <trkpt lat="44.09382" lon="6.29839">
        <ele>802</ele>
        <time>2019-06-23T07:22:27.000Z</time>
      </trkpt>
      <trkpt lat="44.0938" lon="6.29835">
        <ele>803.2</ele>
        <time>2019-06-23T07:22:29.000Z</time>
      </trkpt>
      <trkpt lat="44.09378" lon="6.29828">
        <ele>804.6</ele>
        <time>2019-06-23T07:22:32.000Z</time>
      </trkpt>
      <trkpt lat="44.09378" lon="6.29826">
        <ele>804.8</ele>
        <time>2019-06-23T07:22:33.000Z</time>
      </trkpt>
      <trkpt lat="44.09377" lon="6.29816">
        <ele>805.8</ele>
        <time>2019-06-23T07:22:37.000Z</time>
      </trkpt>
      <trkpt lat="44.09378" lon="6.29807">
        <ele>806.4</ele>
        <time>2019-06-23T07:22:41.000Z</time>
      </trkpt>
      <trkpt lat="44.09379" lon="6.29804">
        <ele>807.2</ele>
        <time>2019-06-23T07:22:43.000Z</time>
      </trkpt>
      <trkpt lat="44.09382" lon="6.29801">
        <ele>808.4</ele>
        <time>2019-06-23T07:22:45.000Z</time>
      </trkpt>
      <trkpt lat="44.09385" lon="6.29796">
        <ele>809.6</ele>
        <time>2019-06-23T07:22:48.000Z</time>
      </trkpt>
      <trkpt lat="44.09388" lon="6.29791">
        <ele>811</ele>
        <time>2019-06-23T07:22:51.000Z</time>
      </trkpt>
      <trkpt lat="44.0939" lon="6.29789">
        <ele>811.4</ele>
        <time>2019-06-23T07:22:52.000Z</time>
      </trkpt>
      <trkpt lat="44.09391" lon="6.29786">
        <ele>812.2</ele>
        <time>2019-06-23T07:22:54.000Z</time>
      </trkpt>
      <trkpt lat="44.09394" lon="6.29784">
        <ele>813.4</ele>
        <time>2019-06-23T07:22:56.000Z</time>
      </trkpt>
      <trkpt lat="44.09397" lon="6.29778">
        <ele>814.4</ele>
        <time>2019-06-23T07:22:59.000Z</time>
      </trkpt>
      <trkpt lat="44.09398" lon="6.29777">
        <ele>814.8</ele>
        <time>2019-06-23T07:23:00.000Z</time>
      </trkpt>
      <trkpt lat="44.09403" lon="6.2977">
        <ele>815.8</ele>
        <time>2019-06-23T07:23:04.000Z</time>
      </trkpt>
      <trkpt lat="44.09407" lon="6.29765">
        <ele>817.2</ele>
        <time>2019-06-23T07:23:07.000Z</time>
      </trkpt>
      <trkpt lat="44.09408" lon="6.29764">
        <ele>817.6</ele>
        <time>2019-06-23T07:23:08.000Z</time>
      </trkpt>
      <trkpt lat="44.0941" lon="6.2976">
        <ele>818.4</ele>
        <time>2019-06-23T07:23:10.000Z</time>
      </trkpt>
      <trkpt lat="44.09415" lon="6.29754">
        <ele>819.4</ele>
        <time>2019-06-23T07:23:14.000Z</time>
      </trkpt>
      <trkpt lat="44.09417" lon="6.2975">
        <ele>820</ele>
        <time>2019-06-23T07:23:17.000Z</time>
      </trkpt>
      <trkpt lat="44.0942" lon="6.29746">
        <ele>820.8</ele>
        <time>2019-06-23T07:23:19.000Z</time>
      </trkpt>
      <trkpt lat="44.09422" lon="6.29744">
        <ele>822.2</ele>
        <time>2019-06-23T07:23:21.000Z</time>
      </trkpt>
      <trkpt lat="44.09424" lon="6.29741">
        <ele>823</ele>
        <time>2019-06-23T07:23:23.000Z</time>
      </trkpt>
      <trkpt lat="44.09427" lon="6.29737">
        <ele>823.4</ele>
        <time>2019-06-23T07:23:26.000Z</time>
      </trkpt>
      <trkpt lat="44.09432" lon="6.29732">
        <ele>824.6</ele>
        <time>2019-06-23T07:23:30.000Z</time>
      </trkpt>
      <trkpt lat="44.09436" lon="6.29728">
        <ele>825.6</ele>
        <time>2019-06-23T07:23:33.000Z</time>
      </trkpt>
      <trkpt lat="44.09439" lon="6.29724">
        <ele>826.8</ele>
        <time>2019-06-23T07:23:36.000Z</time>
      </trkpt>
      <trkpt lat="44.09442" lon="6.2972">
        <ele>827.8</ele>
        <time>2019-06-23T07:23:39.000Z</time>
      </trkpt>
      <trkpt lat="44.09444" lon="6.29717">
        <ele>828.6</ele>
        <time>2019-06-23T07:23:41.000Z</time>
      </trkpt>
      <trkpt lat="44.09445" lon="6.29716">
        <ele>829.2</ele>
        <time>2019-06-23T07:23:42.000Z</time>
      </trkpt>
      <trkpt lat="44.09448" lon="6.29709">
        <ele>830.4</ele>
        <time>2019-06-23T07:23:46.000Z</time>
      </trkpt>
      <trkpt lat="44.09449" lon="6.29705">
        <ele>830.8</ele>
        <time>2019-06-23T07:23:48.000Z</time>
      </trkpt>
      <trkpt lat="44.0945" lon="6.29701">
        <ele>831.6</ele>
        <time>2019-06-23T07:23:50.000Z</time>
      </trkpt>
      <trkpt lat="44.09452" lon="6.29696">
        <ele>832.8</ele>
        <time>2019-06-23T07:23:53.000Z</time>
      </trkpt>
      <trkpt lat="44.09453" lon="6.29689">
        <ele>833.8</ele>
        <time>2019-06-23T07:23:56.000Z</time>
      </trkpt>
      <trkpt lat="44.09456" lon="6.29681">
        <ele>835</ele>
        <time>2019-06-23T07:24:00.000Z</time>
      </trkpt>
      <trkpt lat="44.09456" lon="6.2968">
        <ele>835.4</ele>
        <time>2019-06-23T07:24:01.000Z</time>
      </trkpt>
      <trkpt lat="44.09453" lon="6.29679">
        <ele>836.4</ele>
        <time>2019-06-23T07:24:03.000Z</time>
      </trkpt>
      <trkpt lat="44.09452" lon="6.29678">
        <ele>837</ele>
        <time>2019-06-23T07:24:05.000Z</time>
      </trkpt>
      <trkpt lat="44.09452" lon="6.29678">
        <ele>837.2</ele>
        <time>2019-06-23T07:24:06.000Z</time>
      </trkpt>
      <trkpt lat="44.09452" lon="6.29678">
        <ele>837.4</ele>
        <time>2019-06-23T07:24:07.000Z</time>
      </trkpt>
      <trkpt lat="44.09451" lon="6.29678">
        <ele>837.6</ele>
        <time>2019-06-23T07:24:11.000Z</time>
      </trkpt>
      <trkpt lat="44.09449" lon="6.29677">
        <ele>837.8</ele>
        <time>2019-06-23T07:24:17.000Z</time>
      </trkpt>
      <trkpt lat="44.09447" lon="6.29674">
        <ele>838</ele>
        <time>2019-06-23T07:24:19.000Z</time>
      </trkpt>
      <trkpt lat="44.09444" lon="6.29665">
        <ele>838.4</ele>
        <time>2019-06-23T07:24:24.000Z</time>
      </trkpt>
      <trkpt lat="44.09444" lon="6.29661">
        <ele>838.8</ele>
        <time>2019-06-23T07:24:26.000Z</time>
      </trkpt>
      <trkpt lat="44.09444" lon="6.29654">
        <ele>839.6</ele>
        <time>2019-06-23T07:24:29.000Z</time>
      </trkpt>
      <trkpt lat="44.09444" lon="6.2965">
        <ele>839.8</ele>
        <time>2019-06-23T07:24:31.000Z</time>
      </trkpt>
      <trkpt lat="44.09445" lon="6.29648">
        <ele>840</ele>
        <time>2019-06-23T07:24:32.000Z</time>
      </trkpt>
      <trkpt lat="44.09446" lon="6.29642">
        <ele>841</ele>
        <time>2019-06-23T07:24:35.000Z</time>
      </trkpt>
      <trkpt lat="44.09447" lon="6.29639">
        <ele>842</ele>
        <time>2019-06-23T07:24:37.000Z</time>
      </trkpt>
      <trkpt lat="44.09449" lon="6.29635">
        <ele>842.6</ele>
        <time>2019-06-23T07:24:39.000Z</time>
      </trkpt>
      <trkpt lat="44.09449" lon="6.29633">
        <ele>843</ele>
        <time>2019-06-23T07:24:40.000Z</time>
      </trkpt>
      <trkpt lat="44.0945" lon="6.29631">
        <ele>843.2</ele>
        <time>2019-06-23T07:24:41.000Z</time>
      </trkpt>
      <trkpt lat="44.09451" lon="6.29624">
        <ele>844.6</ele>
        <time>2019-06-23T07:24:45.000Z</time>
      </trkpt>
      <trkpt lat="44.09451" lon="6.29622">
        <ele>845.2</ele>
        <time>2019-06-23T07:24:46.000Z</time>
      </trkpt>
      <trkpt lat="44.09451" lon="6.2962">
        <ele>845.6</ele>
        <time>2019-06-23T07:24:47.000Z</time>
      </trkpt>
      <trkpt lat="44.0945" lon="6.2961">
        <ele>846.8</ele>
        <time>2019-06-23T07:24:52.000Z</time>
      </trkpt>
      <trkpt lat="44.0945" lon="6.29602">
        <ele>848.4</ele>
        <time>2019-06-23T07:24:56.000Z</time>
      </trkpt>
      <trkpt lat="44.09449" lon="6.29595">
        <ele>849.4</ele>
        <time>2019-06-23T07:25:00.000Z</time>
      </trkpt>
      <trkpt lat="44.09448" lon="6.29593">
        <ele>849.4</ele>
        <time>2019-06-23T07:25:01.000Z</time>
      </trkpt>
      <trkpt lat="44.0945" lon="6.29589">
        <ele>849.8</ele>
        <time>2019-06-23T07:25:03.000Z</time>
      </trkpt>
      <trkpt lat="44.09451" lon="6.2959">
        <ele>850.2</ele>
        <time>2019-06-23T07:25:04.000Z</time>
      </trkpt>
      <trkpt lat="44.09453" lon="6.2959">
        <ele>850.6</ele>
        <time>2019-06-23T07:25:05.000Z</time>
      </trkpt>
      <trkpt lat="44.09457" lon="6.2959">
        <ele>851.8</ele>
        <time>2019-06-23T07:25:08.000Z</time>
      </trkpt>
      <trkpt lat="44.09459" lon="6.29588">
        <ele>852.6</ele>
        <time>2019-06-23T07:25:10.000Z</time>
      </trkpt>
      <trkpt lat="44.09458" lon="6.29587">
        <ele>853</ele>
        <time>2019-06-23T07:25:11.000Z</time>
      </trkpt>
      <trkpt lat="44.09457" lon="6.29586">
        <ele>853.6</ele>
        <time>2019-06-23T07:25:12.000Z</time>
      </trkpt>
      <trkpt lat="44.09456" lon="6.29585">
        <ele>853.8</ele>
        <time>2019-06-23T07:25:13.000Z</time>
      </trkpt>
      <trkpt lat="44.09455" lon="6.29584">
        <ele>854.2</ele>
        <time>2019-06-23T07:25:14.000Z</time>
      </trkpt>
      <trkpt lat="44.09454" lon="6.29582">
        <ele>854.4</ele>
        <time>2019-06-23T07:25:15.000Z</time>
      </trkpt>
      <trkpt lat="44.09451" lon="6.29572">
        <ele>854.8</ele>
        <time>2019-06-23T07:25:21.000Z</time>
      </trkpt>
      <trkpt lat="44.09452" lon="6.29561">
        <ele>855.2</ele>
        <time>2019-06-23T07:25:25.000Z</time>
      </trkpt>
      <trkpt lat="44.09452" lon="6.29554">
        <ele>855.8</ele>
        <time>2019-06-23T07:25:28.000Z</time>
      </trkpt>
      <trkpt lat="44.09453" lon="6.29549">
        <ele>856.6</ele>
        <time>2019-06-23T07:25:31.000Z</time>
      </trkpt>
      <trkpt lat="44.09454" lon="6.29545">
        <ele>857.6</ele>
        <time>2019-06-23T07:25:33.000Z</time>
      </trkpt>
      <trkpt lat="44.09454" lon="6.29543">
        <ele>858</ele>
        <time>2019-06-23T07:25:34.000Z</time>
      </trkpt>
      <trkpt lat="44.09454" lon="6.29539">
        <ele>858.4</ele>
        <time>2019-06-23T07:25:36.000Z</time>
      </trkpt>
      <trkpt lat="44.09454" lon="6.29537">
        <ele>858.8</ele>
        <time>2019-06-23T07:25:37.000Z</time>
      </trkpt>
      <trkpt lat="44.09455" lon="6.2953">
        <ele>859.8</ele>
        <time>2019-06-23T07:25:40.000Z</time>
      </trkpt>
      <trkpt lat="44.09456" lon="6.29529">
        <ele>860.2</ele>
        <time>2019-06-23T07:25:41.000Z</time>
      </trkpt>
      <trkpt lat="44.09459" lon="6.2953">
        <ele>861</ele>
        <time>2019-06-23T07:25:43.000Z</time>
      </trkpt>
      <trkpt lat="44.09461" lon="6.2953">
        <ele>861.2</ele>
        <time>2019-06-23T07:25:44.000Z</time>
      </trkpt>
      <trkpt lat="44.09468" lon="6.29535">
        <ele>861.8</ele>
        <time>2019-06-23T07:25:49.000Z</time>
      </trkpt>
      <trkpt lat="44.09469" lon="6.29535">
        <ele>862.2</ele>
        <time>2019-06-23T07:25:50.000Z</time>
      </trkpt>
      <trkpt lat="44.09477" lon="6.29543">
        <ele>862.4</ele>
        <time>2019-06-23T07:25:55.000Z</time>
      </trkpt>
      <trkpt lat="44.09479" lon="6.29547">
        <ele>862.4</ele>
        <time>2019-06-23T07:25:57.000Z</time>
      </trkpt>
      <trkpt lat="44.09482" lon="6.2955">
        <ele>862.6</ele>
        <time>2019-06-23T07:25:59.000Z</time>
      </trkpt>
      <trkpt lat="44.09483" lon="6.29551">
        <ele>862.6</ele>
        <time>2019-06-23T07:26:00.000Z</time>
      </trkpt>
      <trkpt lat="44.09493" lon="6.29564">
        <ele>862</ele>
        <time>2019-06-23T07:26:04.000Z</time>
      </trkpt>
      <trkpt lat="44.09497" lon="6.29572">
        <ele>860.4</ele>
        <time>2019-06-23T07:26:06.000Z</time>
      </trkpt>
      <trkpt lat="44.09502" lon="6.29581">
        <ele>859.6</ele>
        <time>2019-06-23T07:26:08.000Z</time>
      </trkpt>
      <trkpt lat="44.09505" lon="6.29584">
        <ele>859.2</ele>
        <time>2019-06-23T07:26:09.000Z</time>
      </trkpt>
      <trkpt lat="44.09509" lon="6.29586">
        <ele>858.8</ele>
        <time>2019-06-23T07:26:10.000Z</time>
      </trkpt>
      <trkpt lat="44.09512" lon="6.29585">
        <ele>858.6</ele>
        <time>2019-06-23T07:26:11.000Z</time>
      </trkpt>
      <trkpt lat="44.09523" lon="6.2958">
        <ele>859.2</ele>
        <time>2019-06-23T07:26:16.000Z</time>
      </trkpt>
      <trkpt lat="44.09527" lon="6.29578">
        <ele>859.4</ele>
        <time>2019-06-23T07:26:18.000Z</time>
      </trkpt>
      <trkpt lat="44.09535" lon="6.29576">
        <ele>860</ele>
        <time>2019-06-23T07:26:21.000Z</time>
      </trkpt>
      <trkpt lat="44.09537" lon="6.29574">
        <ele>860.6</ele>
        <time>2019-06-23T07:26:22.000Z</time>
      </trkpt>
      <trkpt lat="44.09544" lon="6.29568">
        <ele>862</ele>
        <time>2019-06-23T07:26:25.000Z</time>
      </trkpt>
      <trkpt lat="44.09546" lon="6.29566">
        <ele>862.2</ele>
        <time>2019-06-23T07:26:26.000Z</time>
      </trkpt>
      <trkpt lat="44.0955" lon="6.29563">
        <ele>862.6</ele>
        <time>2019-06-23T07:26:28.000Z</time>
      </trkpt>
      <trkpt lat="44.09553" lon="6.29559">
        <ele>862.8</ele>
        <time>2019-06-23T07:26:30.000Z</time>
      </trkpt>
      <trkpt lat="44.09556" lon="6.29554">
        <ele>863.2</ele>
        <time>2019-06-23T07:26:32.000Z</time>
      </trkpt>
      <trkpt lat="44.09561" lon="6.29548">
        <ele>864.2</ele>
        <time>2019-06-23T07:26:35.000Z</time>
      </trkpt>
      <trkpt lat="44.09563" lon="6.29546">
        <ele>864.4</ele>
        <time>2019-06-23T07:26:36.000Z</time>
      </trkpt>
      <trkpt lat="44.09568" lon="6.2954">
        <ele>866</ele>
        <time>2019-06-23T07:26:39.000Z</time>
      </trkpt>
      <trkpt lat="44.09574" lon="6.29532">
        <ele>867</ele>
        <time>2019-06-23T07:26:43.000Z</time>
      </trkpt>
      <trkpt lat="44.09575" lon="6.2953">
        <ele>867</ele>
        <time>2019-06-23T07:26:44.000Z</time>
      </trkpt>
      <trkpt lat="44.09578" lon="6.29525">
        <ele>867.8</ele>
        <time>2019-06-23T07:26:47.000Z</time>
      </trkpt>
      <trkpt lat="44.09579" lon="6.29523">
        <ele>868.4</ele>
        <time>2019-06-23T07:26:48.000Z</time>
      </trkpt>
      <trkpt lat="44.09581" lon="6.29517">
        <ele>869.6</ele>
        <time>2019-06-23T07:26:51.000Z</time>
      </trkpt>
      <trkpt lat="44.09582" lon="6.29515">
        <ele>870</ele>
        <time>2019-06-23T07:26:52.000Z</time>
      </trkpt>
      <trkpt lat="44.09583" lon="6.29512">
        <ele>870.8</ele>
        <time>2019-06-23T07:26:54.000Z</time>
      </trkpt>
      <trkpt lat="44.09585" lon="6.29507">
        <ele>872</ele>
        <time>2019-06-23T07:26:57.000Z</time>
      </trkpt>
      <trkpt lat="44.09588" lon="6.29503">
        <ele>872.4</ele>
        <time>2019-06-23T07:27:00.000Z</time>
      </trkpt>
      <trkpt lat="44.09591" lon="6.295">
        <ele>873.2</ele>
        <time>2019-06-23T07:27:03.000Z</time>
      </trkpt>
      <trkpt lat="44.09596" lon="6.29496">
        <ele>873.6</ele>
        <time>2019-06-23T07:27:07.000Z</time>
      </trkpt>
      <trkpt lat="44.09597" lon="6.29495">
        <ele>873.6</ele>
        <time>2019-06-23T07:27:08.000Z</time>
      </trkpt>
      <trkpt lat="44.096" lon="6.2949">
        <ele>873.8</ele>
        <time>2019-06-23T07:27:11.000Z</time>
      </trkpt>
      <trkpt lat="44.09602" lon="6.29489">
        <ele>874</ele>
        <time>2019-06-23T07:27:12.000Z</time>
      </trkpt>
      <trkpt lat="44.09604" lon="6.29489">
        <ele>874.2</ele>
        <time>2019-06-23T07:27:13.000Z</time>
      </trkpt>
      <trkpt lat="44.09611" lon="6.29489">
        <ele>874.4</ele>
        <time>2019-06-23T07:27:16.000Z</time>
      </trkpt>
      <trkpt lat="44.09614" lon="6.2949">
        <ele>874.4</ele>
        <time>2019-06-23T07:27:18.000Z</time>
      </trkpt>
      <trkpt lat="44.09616" lon="6.29489">
        <ele>874.6</ele>
        <time>2019-06-23T07:27:19.000Z</time>
      </trkpt>
      <trkpt lat="44.09622" lon="6.29491">
        <ele>875.2</ele>
        <time>2019-06-23T07:27:22.000Z</time>
      </trkpt>
      <trkpt lat="44.09624" lon="6.29491">
        <ele>875.4</ele>
        <time>2019-06-23T07:27:23.000Z</time>
      </trkpt>
      <trkpt lat="44.09626" lon="6.2949">
        <ele>875.6</ele>
        <time>2019-06-23T07:27:24.000Z</time>
      </trkpt>
      <trkpt lat="44.0963" lon="6.29488">
        <ele>876.8</ele>
        <time>2019-06-23T07:27:27.000Z</time>
      </trkpt>
      <trkpt lat="44.09636" lon="6.29485">
        <ele>877.4</ele>
        <time>2019-06-23T07:27:31.000Z</time>
      </trkpt>
      <trkpt lat="44.09641" lon="6.29482">
        <ele>877.8</ele>
        <time>2019-06-23T07:27:35.000Z</time>
      </trkpt>
      <trkpt lat="44.09647" lon="6.29479">
        <ele>879.2</ele>
        <time>2019-06-23T07:27:39.000Z</time>
      </trkpt>
      <trkpt lat="44.09648" lon="6.29479">
        <ele>879.4</ele>
        <time>2019-06-23T07:27:40.000Z</time>
      </trkpt>
      <trkpt lat="44.09652" lon="6.29475">
        <ele>880.2</ele>
        <time>2019-06-23T07:27:43.000Z</time>
      </trkpt>
      <trkpt lat="44.09659" lon="6.2947">
        <ele>881.2</ele>
        <time>2019-06-23T07:27:48.000Z</time>
      </trkpt>
      <trkpt lat="44.0966" lon="6.29469">
        <ele>881.2</ele>
        <time>2019-06-23T07:27:49.000Z</time>
      </trkpt>
      <trkpt lat="44.09665" lon="6.29465">
        <ele>882.6</ele>
        <time>2019-06-23T07:27:53.000Z</time>
      </trkpt>
      <trkpt lat="44.0967" lon="6.2946">
        <ele>883.6</ele>
        <time>2019-06-23T07:27:57.000Z</time>
      </trkpt>
      <trkpt lat="44.09671" lon="6.29458">
        <ele>884.2</ele>
        <time>2019-06-23T07:27:58.000Z</time>
      </trkpt>
      <trkpt lat="44.09677" lon="6.29452">
        <ele>885.2</ele>
        <time>2019-06-23T07:28:03.000Z</time>
      </trkpt>
      <trkpt lat="44.09679" lon="6.2945">
        <ele>885.4</ele>
        <time>2019-06-23T07:28:05.000Z</time>
      </trkpt>
      <trkpt lat="44.09681" lon="6.29447">
        <ele>885.4</ele>
        <time>2019-06-23T07:28:07.000Z</time>
      </trkpt>
      <trkpt lat="44.09685" lon="6.29444">
        <ele>886.4</ele>
        <time>2019-06-23T07:28:10.000Z</time>
      </trkpt>
      <trkpt lat="44.09689" lon="6.29441">
        <ele>887.6</ele>
        <time>2019-06-23T07:28:13.000Z</time>
      </trkpt>
      <trkpt lat="44.09691" lon="6.2944">
        <ele>887.8</ele>
        <time>2019-06-23T07:28:14.000Z</time>
      </trkpt>
      <trkpt lat="44.097" lon="6.29434">
        <ele>888.2</ele>
        <time>2019-06-23T07:28:20.000Z</time>
      </trkpt>
      <trkpt lat="44.09701" lon="6.29434">
        <ele>888.2</ele>
        <time>2019-06-23T07:28:21.000Z</time>
      </trkpt>
      <trkpt lat="44.09703" lon="6.29434">
        <ele>888.2</ele>
        <time>2019-06-23T07:28:22.000Z</time>
      </trkpt>
      <trkpt lat="44.09711" lon="6.29441">
        <ele>888.2</ele>
        <time>2019-06-23T07:28:27.000Z</time>
      </trkpt>
      <trkpt lat="44.09714" lon="6.29444">
        <ele>888.8</ele>
        <time>2019-06-23T07:28:29.000Z</time>
      </trkpt>
      <trkpt lat="44.09714" lon="6.29445">
        <ele>889</ele>
        <time>2019-06-23T07:28:30.000Z</time>
      </trkpt>
      <trkpt lat="44.09718" lon="6.29451">
        <ele>890</ele>
        <time>2019-06-23T07:28:33.000Z</time>
      </trkpt>
      <trkpt lat="44.09726" lon="6.29463">
        <ele>891</ele>
        <time>2019-06-23T07:28:39.000Z</time>
      </trkpt>
      <trkpt lat="44.09728" lon="6.29467">
        <ele>891.4</ele>
        <time>2019-06-23T07:28:41.000Z</time>
      </trkpt>
      <trkpt lat="44.09734" lon="6.29473">
        <ele>891.8</ele>
        <time>2019-06-23T07:28:46.000Z</time>
      </trkpt>
      <trkpt lat="44.09735" lon="6.29475">
        <ele>892</ele>
        <time>2019-06-23T07:28:47.000Z</time>
      </trkpt>
      <trkpt lat="44.09736" lon="6.29476">
        <ele>892.4</ele>
        <time>2019-06-23T07:28:48.000Z</time>
      </trkpt>
      <trkpt lat="44.09738" lon="6.29477">
        <ele>892.8</ele>
        <time>2019-06-23T07:28:49.000Z</time>
      </trkpt>
      <trkpt lat="44.0974" lon="6.29477">
        <ele>893.4</ele>
        <time>2019-06-23T07:28:50.000Z</time>
      </trkpt>
      <trkpt lat="44.09742" lon="6.29478">
        <ele>893.8</ele>
        <time>2019-06-23T07:28:51.000Z</time>
      </trkpt>
      <trkpt lat="44.09743" lon="6.29478">
        <ele>894.2</ele>
        <time>2019-06-23T07:28:52.000Z</time>
      </trkpt>
      <trkpt lat="44.09745" lon="6.29477">
        <ele>894.4</ele>
        <time>2019-06-23T07:28:53.000Z</time>
      </trkpt>
      <trkpt lat="44.09749" lon="6.29476">
        <ele>894.8</ele>
        <time>2019-06-23T07:28:56.000Z</time>
      </trkpt>
      <trkpt lat="44.09751" lon="6.29476">
        <ele>895.2</ele>
        <time>2019-06-23T07:28:59.000Z</time>
      </trkpt>
      <trkpt lat="44.09757" lon="6.29474">
        <ele>895</ele>
        <time>2019-06-23T07:29:04.000Z</time>
      </trkpt>
      <trkpt lat="44.09765" lon="6.29471">
        <ele>894.8</ele>
        <time>2019-06-23T07:29:06.000Z</time>
      </trkpt>
      <trkpt lat="44.09776" lon="6.29464">
        <ele>895</ele>
        <time>2019-06-23T07:29:10.000Z</time>
      </trkpt>
      <trkpt lat="44.09794" lon="6.29452">
        <ele>893.4</ele>
        <time>2019-06-23T07:29:15.000Z</time>
      </trkpt>
      <trkpt lat="44.09807" lon="6.29443">
        <ele>893.8</ele>
        <time>2019-06-23T07:29:21.000Z</time>
      </trkpt>
      <trkpt lat="44.09809" lon="6.29443">
        <ele>894</ele>
        <time>2019-06-23T07:29:22.000Z</time>
      </trkpt>
      <trkpt lat="44.09822" lon="6.2944">
        <ele>894</ele>
        <time>2019-06-23T07:29:27.000Z</time>
      </trkpt>
      <trkpt lat="44.09845" lon="6.29436">
        <ele>893.6</ele>
        <time>2019-06-23T07:29:32.000Z</time>
      </trkpt>
      <trkpt lat="44.09859" lon="6.29434">
        <ele>894</ele>
        <time>2019-06-23T07:29:38.000Z</time>
      </trkpt>
      <trkpt lat="44.09871" lon="6.29434">
        <ele>894.2</ele>
        <time>2019-06-23T07:29:43.000Z</time>
      </trkpt>
      <trkpt lat="44.09892" lon="6.29428">
        <ele>894</ele>
        <time>2019-06-23T07:29:48.000Z</time>
      </trkpt>
      <trkpt lat="44.09899" lon="6.29428">
        <ele>894</ele>
        <time>2019-06-23T07:29:49.000Z</time>
      </trkpt>
      <trkpt lat="44.09904" lon="6.29433">
        <ele>893.8</ele>
        <time>2019-06-23T07:29:51.000Z</time>
      </trkpt>
      <trkpt lat="44.09905" lon="6.29453">
        <ele>894.2</ele>
        <time>2019-06-23T07:29:57.000Z</time>
      </trkpt>
      <trkpt lat="44.09903" lon="6.29461">
        <ele>894.2</ele>
        <time>2019-06-23T07:29:59.000Z</time>
      </trkpt>
      <trkpt lat="44.09902" lon="6.29469">
        <ele>894.4</ele>
        <time>2019-06-23T07:30:01.000Z</time>
      </trkpt>
      <trkpt lat="44.09902" lon="6.29472">
        <ele>894.4</ele>
        <time>2019-06-23T07:30:02.000Z</time>
      </trkpt>
      <trkpt lat="44.09902" lon="6.29475">
        <ele>894.8</ele>
        <time>2019-06-23T07:30:03.000Z</time>
      </trkpt>
      <trkpt lat="44.09902" lon="6.2948">
        <ele>895.2</ele>
        <time>2019-06-23T07:30:06.000Z</time>
      </trkpt>
      <trkpt lat="44.09901" lon="6.29481">
        <ele>895.4</ele>
        <time>2019-06-23T07:30:07.000Z</time>
      </trkpt>
      <trkpt lat="44.09897" lon="6.29491">
        <ele>895.2</ele>
        <time>2019-06-23T07:30:11.000Z</time>
      </trkpt>
      <trkpt lat="44.09895" lon="6.29496">
        <ele>895.6</ele>
        <time>2019-06-23T07:30:13.000Z</time>
      </trkpt>
      <trkpt lat="44.09891" lon="6.2951">
        <ele>896.4</ele>
        <time>2019-06-23T07:30:18.000Z</time>
      </trkpt>
      <trkpt lat="44.09886" lon="6.29526">
        <ele>896.4</ele>
        <time>2019-06-23T07:30:24.000Z</time>
      </trkpt>
      <trkpt lat="44.09887" lon="6.29531">
        <ele>896.8</ele>
        <time>2019-06-23T07:30:26.000Z</time>
      </trkpt>
      <trkpt lat="44.09886" lon="6.29547">
        <ele>897.6</ele>
        <time>2019-06-23T07:30:30.000Z</time>
      </trkpt>
      <trkpt lat="44.09886" lon="6.29549">
        <ele>898.2</ele>
        <time>2019-06-23T07:30:31.000Z</time>
      </trkpt>
      <trkpt lat="44.09886" lon="6.29554">
        <ele>899.2</ele>
        <time>2019-06-23T07:30:33.000Z</time>
      </trkpt>
      <trkpt lat="44.09887" lon="6.29561">
        <ele>899.8</ele>
        <time>2019-06-23T07:30:35.000Z</time>
      </trkpt>
      <trkpt lat="44.09882" lon="6.29579">
        <ele>899.8</ele>
        <time>2019-06-23T07:30:40.000Z</time>
      </trkpt>
      <trkpt lat="44.09887" lon="6.29593">
        <ele>899.8</ele>
        <time>2019-06-23T07:30:44.000Z</time>
      </trkpt>
      <trkpt lat="44.09894" lon="6.29604">
        <ele>899.6</ele>
        <time>2019-06-23T07:30:48.000Z</time>
      </trkpt>
      <trkpt lat="44.09896" lon="6.29606">
        <ele>899.6</ele>
        <time>2019-06-23T07:30:49.000Z</time>
      </trkpt>
      <trkpt lat="44.09908" lon="6.29625">
        <ele>899.6</ele>
        <time>2019-06-23T07:30:54.000Z</time>
      </trkpt>
      <trkpt lat="44.09913" lon="6.29632">
        <ele>900.4</ele>
        <time>2019-06-23T07:30:56.000Z</time>
      </trkpt>
      <trkpt lat="44.09919" lon="6.29643">
        <ele>901.2</ele>
        <time>2019-06-23T07:30:59.000Z</time>
      </trkpt>
      <trkpt lat="44.0993" lon="6.29655">
        <ele>901.6</ele>
        <time>2019-06-23T07:31:04.000Z</time>
      </trkpt>
      <trkpt lat="44.09935" lon="6.2966">
        <ele>902.6</ele>
        <time>2019-06-23T07:31:06.000Z</time>
      </trkpt>
      <trkpt lat="44.09941" lon="6.29667">
        <ele>903.8</ele>
        <time>2019-06-23T07:31:09.000Z</time>
      </trkpt>
      <trkpt lat="44.09943" lon="6.29669">
        <ele>904.2</ele>
        <time>2019-06-23T07:31:10.000Z</time>
      </trkpt>
      <trkpt lat="44.09947" lon="6.29674">
        <ele>904.4</ele>
        <time>2019-06-23T07:31:12.000Z</time>
      </trkpt>
      <trkpt lat="44.09949" lon="6.29679">
        <ele>904.6</ele>
        <time>2019-06-23T07:31:14.000Z</time>
      </trkpt>
      <trkpt lat="44.0995" lon="6.29681">
        <ele>904.8</ele>
        <time>2019-06-23T07:31:15.000Z</time>
      </trkpt>
      <trkpt lat="44.09951" lon="6.29684">
        <ele>905</ele>
        <time>2019-06-23T07:31:16.000Z</time>
      </trkpt>
      <trkpt lat="44.09955" lon="6.29688">
        <ele>905</ele>
        <time>2019-06-23T07:31:18.000Z</time>
      </trkpt>
      <trkpt lat="44.09957" lon="6.29689">
        <ele>905</ele>
        <time>2019-06-23T07:31:19.000Z</time>
      </trkpt>
      <trkpt lat="44.09961" lon="6.29691">
        <ele>905</ele>
        <time>2019-06-23T07:31:21.000Z</time>
      </trkpt>
      <trkpt lat="44.09968" lon="6.2969">
        <ele>905.2</ele>
        <time>2019-06-23T07:31:24.000Z</time>
      </trkpt>
      <trkpt lat="44.09975" lon="6.29691">
        <ele>905.6</ele>
        <time>2019-06-23T07:31:28.000Z</time>
      </trkpt>
      <trkpt lat="44.09979" lon="6.29693">
        <ele>905.2</ele>
        <time>2019-06-23T07:31:30.000Z</time>
      </trkpt>
      <trkpt lat="44.09991" lon="6.29692">
        <ele>905</ele>
        <time>2019-06-23T07:31:32.000Z</time>
      </trkpt>
      <trkpt lat="44.10009" lon="6.29694">
        <ele>905</ele>
        <time>2019-06-23T07:31:38.000Z</time>
      </trkpt>
      <trkpt lat="44.10015" lon="6.29694">
        <ele>905.2</ele>
        <time>2019-06-23T07:31:40.000Z</time>
      </trkpt>
      <trkpt lat="44.10022" lon="6.29692">
        <ele>905</ele>
        <time>2019-06-23T07:31:41.000Z</time>
      </trkpt>
      <trkpt lat="44.10027" lon="6.29692">
        <ele>905</ele>
        <time>2019-06-23T07:31:43.000Z</time>
      </trkpt>
      <trkpt lat="44.1003" lon="6.29691">
        <ele>904.6</ele>
        <time>2019-06-23T07:31:44.000Z</time>
      </trkpt>
      <trkpt lat="44.10033" lon="6.29691">
        <ele>904.2</ele>
        <time>2019-06-23T07:31:45.000Z</time>
      </trkpt>
      <trkpt lat="44.10037" lon="6.29691">
        <ele>903.6</ele>
        <time>2019-06-23T07:31:46.000Z</time>
      </trkpt>
      <trkpt lat="44.10041" lon="6.2969">
        <ele>903</ele>
        <time>2019-06-23T07:31:47.000Z</time>
      </trkpt>
      <trkpt lat="44.10049" lon="6.29684">
        <ele>902.2</ele>
        <time>2019-06-23T07:31:49.000Z</time>
      </trkpt>
      <trkpt lat="44.10057" lon="6.29682">
        <ele>901</ele>
        <time>2019-06-23T07:31:51.000Z</time>
      </trkpt>
      <trkpt lat="44.10073" lon="6.29682">
        <ele>899.8</ele>
        <time>2019-06-23T07:31:53.000Z</time>
      </trkpt>
      <trkpt lat="44.10084" lon="6.29684">
        <ele>899.2</ele>
        <time>2019-06-23T07:31:55.000Z</time>
      </trkpt>
      <trkpt lat="44.10083" lon="6.29696">
        <ele>899.6</ele>
        <time>2019-06-23T07:31:59.000Z</time>
      </trkpt>
      <trkpt lat="44.10087" lon="6.29703">
        <ele>900.2</ele>
        <time>2019-06-23T07:32:01.000Z</time>
      </trkpt>
      <trkpt lat="44.1009" lon="6.29705">
        <ele>900.6</ele>
        <time>2019-06-23T07:32:02.000Z</time>
      </trkpt>
      <trkpt lat="44.10092" lon="6.29708">
        <ele>901</ele>
        <time>2019-06-23T07:32:03.000Z</time>
      </trkpt>
      <trkpt lat="44.10095" lon="6.29714">
        <ele>902.6</ele>
        <time>2019-06-23T07:32:05.000Z</time>
      </trkpt>
      <trkpt lat="44.10096" lon="6.29722">
        <ele>902.8</ele>
        <time>2019-06-23T07:32:07.000Z</time>
      </trkpt>
      <trkpt lat="44.101" lon="6.29733">
        <ele>903.8</ele>
        <time>2019-06-23T07:32:11.000Z</time>
      </trkpt>
      <trkpt lat="44.10103" lon="6.29741">
        <ele>905</ele>
        <time>2019-06-23T07:32:13.000Z</time>
      </trkpt>
      <trkpt lat="44.10109" lon="6.29749">
        <ele>906.4</ele>
        <time>2019-06-23T07:32:16.000Z</time>
      </trkpt>
      <trkpt lat="44.10113" lon="6.29754">
        <ele>906.8</ele>
        <time>2019-06-23T07:32:18.000Z</time>
      </trkpt>
      <trkpt lat="44.10118" lon="6.29758">
        <ele>907.2</ele>
        <time>2019-06-23T07:32:20.000Z</time>
      </trkpt>
      <trkpt lat="44.10119" lon="6.2976">
        <ele>907.4</ele>
        <time>2019-06-23T07:32:21.000Z</time>
      </trkpt>
      <trkpt lat="44.10123" lon="6.29765">
        <ele>907.6</ele>
        <time>2019-06-23T07:32:23.000Z</time>
      </trkpt>
      <trkpt lat="44.10127" lon="6.29769">
        <ele>908.4</ele>
        <time>2019-06-23T07:32:25.000Z</time>
      </trkpt>
      <trkpt lat="44.10132" lon="6.29776">
        <ele>909.2</ele>
        <time>2019-06-23T07:32:28.000Z</time>
      </trkpt>
      <trkpt lat="44.10133" lon="6.29778">
        <ele>909.8</ele>
        <time>2019-06-23T07:32:29.000Z</time>
      </trkpt>
      <trkpt lat="44.10136" lon="6.29785">
        <ele>910.4</ele>
        <time>2019-06-23T07:32:32.000Z</time>
      </trkpt>
      <trkpt lat="44.10138" lon="6.29787">
        <ele>910.4</ele>
        <time>2019-06-23T07:32:33.000Z</time>
      </trkpt>
      <trkpt lat="44.10143" lon="6.29792">
        <ele>910.6</ele>
        <time>2019-06-23T07:32:36.000Z</time>
      </trkpt>
      <trkpt lat="44.10145" lon="6.29793">
        <ele>911</ele>
        <time>2019-06-23T07:32:37.000Z</time>
      </trkpt>
      <trkpt lat="44.10147" lon="6.29792">
        <ele>911.4</ele>
        <time>2019-06-23T07:32:38.000Z</time>
      </trkpt>
      <trkpt lat="44.10151" lon="6.29793">
        <ele>912.4</ele>
        <time>2019-06-23T07:32:40.000Z</time>
      </trkpt>
      <trkpt lat="44.10153" lon="6.29794">
        <ele>913</ele>
        <time>2019-06-23T07:32:41.000Z</time>
      </trkpt>
      <trkpt lat="44.10156" lon="6.29795">
        <ele>913.8</ele>
        <time>2019-06-23T07:32:43.000Z</time>
      </trkpt>
      <trkpt lat="44.10161" lon="6.29798">
        <ele>914.4</ele>
        <time>2019-06-23T07:32:47.000Z</time>
      </trkpt>
      <trkpt lat="44.10166" lon="6.29797">
        <ele>914.4</ele>
        <time>2019-06-23T07:32:49.000Z</time>
      </trkpt>
      <trkpt lat="44.10168" lon="6.29797">
        <ele>915</ele>
        <time>2019-06-23T07:32:51.000Z</time>
      </trkpt>
      <trkpt lat="44.10172" lon="6.29799">
        <ele>915.6</ele>
        <time>2019-06-23T07:32:54.000Z</time>
      </trkpt>
      <trkpt lat="44.1018" lon="6.29801">
        <ele>915.8</ele>
        <time>2019-06-23T07:32:56.000Z</time>
      </trkpt>
      <trkpt lat="44.10181" lon="6.29802">
        <ele>916</ele>
        <time>2019-06-23T07:32:57.000Z</time>
      </trkpt>
      <trkpt lat="44.10186" lon="6.29805">
        <ele>917.2</ele>
        <time>2019-06-23T07:33:00.000Z</time>
      </trkpt>
      <trkpt lat="44.10191" lon="6.29806">
        <ele>917.4</ele>
        <time>2019-06-23T07:33:02.000Z</time>
      </trkpt>
      <trkpt lat="44.10197" lon="6.29811">
        <ele>918</ele>
        <time>2019-06-23T07:33:05.000Z</time>
      </trkpt>
      <trkpt lat="44.10208" lon="6.29825">
        <ele>917.6</ele>
        <time>2019-06-23T07:33:11.000Z</time>
      </trkpt>
      <trkpt lat="44.10212" lon="6.29835">
        <ele>917.8</ele>
        <time>2019-06-23T07:33:14.000Z</time>
      </trkpt>
      <trkpt lat="44.10216" lon="6.29846">
        <ele>918</ele>
        <time>2019-06-23T07:33:17.000Z</time>
      </trkpt>
      <trkpt lat="44.10218" lon="6.29848">
        <ele>918.2</ele>
        <time>2019-06-23T07:33:18.000Z</time>
      </trkpt>
      <trkpt lat="44.10224" lon="6.29857">
        <ele>919.2</ele>
        <time>2019-06-23T07:33:23.000Z</time>
      </trkpt>
      <trkpt lat="44.10226" lon="6.2986">
        <ele>919.4</ele>
        <time>2019-06-23T07:33:24.000Z</time>
      </trkpt>
      <trkpt lat="44.10233" lon="6.29871">
        <ele>920.8</ele>
        <time>2019-06-23T07:33:29.000Z</time>
      </trkpt>
      <trkpt lat="44.10236" lon="6.29877">
        <ele>922</ele>
        <time>2019-06-23T07:33:32.000Z</time>
      </trkpt>
      <trkpt lat="44.1024" lon="6.29886">
        <ele>922.4</ele>
        <time>2019-06-23T07:33:36.000Z</time>
      </trkpt>
      <trkpt lat="44.10242" lon="6.29889">
        <ele>922.8</ele>
        <time>2019-06-23T07:33:38.000Z</time>
      </trkpt>
      <trkpt lat="44.10244" lon="6.2989">
        <ele>923</ele>
        <time>2019-06-23T07:33:39.000Z</time>
      </trkpt>
      <trkpt lat="44.10246" lon="6.29893">
        <ele>923</ele>
        <time>2019-06-23T07:33:41.000Z</time>
      </trkpt>
      <trkpt lat="44.10249" lon="6.29895">
        <ele>923.2</ele>
        <time>2019-06-23T07:33:43.000Z</time>
      </trkpt>
      <trkpt lat="44.10256" lon="6.29898">
        <ele>923.6</ele>
        <time>2019-06-23T07:33:46.000Z</time>
      </trkpt>
      <trkpt lat="44.1026" lon="6.29905">
        <ele>924</ele>
        <time>2019-06-23T07:33:49.000Z</time>
      </trkpt>
      <trkpt lat="44.10264" lon="6.29907">
        <ele>924.2</ele>
        <time>2019-06-23T07:33:51.000Z</time>
      </trkpt>
      <trkpt lat="44.10276" lon="6.29918">
        <ele>924.8</ele>
        <time>2019-06-23T07:33:57.000Z</time>
      </trkpt>
      <trkpt lat="44.10284" lon="6.29927">
        <ele>924.8</ele>
        <time>2019-06-23T07:34:01.000Z</time>
      </trkpt>
      <trkpt lat="44.10288" lon="6.29929">
        <ele>924.8</ele>
        <time>2019-06-23T07:34:03.000Z</time>
      </trkpt>
      <trkpt lat="44.10294" lon="6.2993">
        <ele>924.8</ele>
        <time>2019-06-23T07:34:05.000Z</time>
      </trkpt>
      <trkpt lat="44.10297" lon="6.29931">
        <ele>924.6</ele>
        <time>2019-06-23T07:34:07.000Z</time>
      </trkpt>
      <trkpt lat="44.10299" lon="6.29933">
        <ele>924.4</ele>
        <time>2019-06-23T07:34:08.000Z</time>
      </trkpt>
      <trkpt lat="44.10303" lon="6.29934">
        <ele>923.8</ele>
        <time>2019-06-23T07:34:09.000Z</time>
      </trkpt>
      <trkpt lat="44.10306" lon="6.29935">
        <ele>923.4</ele>
        <time>2019-06-23T07:34:10.000Z</time>
      </trkpt>
      <trkpt lat="44.10313" lon="6.29942">
        <ele>923.2</ele>
        <time>2019-06-23T07:34:12.000Z</time>
      </trkpt>
      <trkpt lat="44.10314" lon="6.29947">
        <ele>923</ele>
        <time>2019-06-23T07:34:13.000Z</time>
      </trkpt>
      <trkpt lat="44.10322" lon="6.29961">
        <ele>923</ele>
        <time>2019-06-23T07:34:17.000Z</time>
      </trkpt>
      <trkpt lat="44.10323" lon="6.29966">
        <ele>922.8</ele>
        <time>2019-06-23T07:34:18.000Z</time>
      </trkpt>
      <trkpt lat="44.10326" lon="6.29981">
        <ele>922.2</ele>
        <time>2019-06-23T07:34:20.000Z</time>
      </trkpt>
      <trkpt lat="44.10327" lon="6.29988">
        <ele>921.6</ele>
        <time>2019-06-23T07:34:21.000Z</time>
      </trkpt>
      <trkpt lat="44.10329" lon="6.30002">
        <ele>920.2</ele>
        <time>2019-06-23T07:34:23.000Z</time>
      </trkpt>
      <trkpt lat="44.10331" lon="6.30008">
        <ele>919.6</ele>
        <time>2019-06-23T07:34:24.000Z</time>
      </trkpt>
      <trkpt lat="44.10334" lon="6.30013">
        <ele>919.2</ele>
        <time>2019-06-23T07:34:25.000Z</time>
      </trkpt>
      <trkpt lat="44.10337" lon="6.30017">
        <ele>918.8</ele>
        <time>2019-06-23T07:34:26.000Z</time>
      </trkpt>
      <trkpt lat="44.10341" lon="6.30025">
        <ele>918.6</ele>
        <time>2019-06-23T07:34:28.000Z</time>
      </trkpt>
      <trkpt lat="44.10352" lon="6.30036">
        <ele>919.4</ele>
        <time>2019-06-23T07:34:33.000Z</time>
      </trkpt>
      <trkpt lat="44.10354" lon="6.30036">
        <ele>919.8</ele>
        <time>2019-06-23T07:34:34.000Z</time>
      </trkpt>
      <trkpt lat="44.10357" lon="6.30036">
        <ele>920</ele>
        <time>2019-06-23T07:34:35.000Z</time>
      </trkpt>
      <trkpt lat="44.10361" lon="6.30038">
        <ele>920.6</ele>
        <time>2019-06-23T07:34:37.000Z</time>
      </trkpt>
      <trkpt lat="44.10362" lon="6.30039">
        <ele>921.2</ele>
        <time>2019-06-23T07:34:38.000Z</time>
      </trkpt>
      <trkpt lat="44.10366" lon="6.30041">
        <ele>922.2</ele>
        <time>2019-06-23T07:34:40.000Z</time>
      </trkpt>
      <trkpt lat="44.10368" lon="6.30043">
        <ele>923.4</ele>
        <time>2019-06-23T07:34:42.000Z</time>
      </trkpt>
      <trkpt lat="44.10372" lon="6.30047">
        <ele>924.8</ele>
        <time>2019-06-23T07:34:45.000Z</time>
      </trkpt>
      <trkpt lat="44.10374" lon="6.30048">
        <ele>926</ele>
        <time>2019-06-23T07:34:46.000Z</time>
      </trkpt>
      <trkpt lat="44.10376" lon="6.30049">
        <ele>926.8</ele>
        <time>2019-06-23T07:34:47.000Z</time>
      </trkpt>
      <trkpt lat="44.10377" lon="6.3005">
        <ele>927.2</ele>
        <time>2019-06-23T07:34:48.000Z</time>
      </trkpt>
      <trkpt lat="44.1038" lon="6.30054">
        <ele>928</ele>
        <time>2019-06-23T07:34:50.000Z</time>
      </trkpt>
      <trkpt lat="44.10382" lon="6.30059">
        <ele>928.4</ele>
        <time>2019-06-23T07:34:52.000Z</time>
      </trkpt>
      <trkpt lat="44.10382" lon="6.30061">
        <ele>928.6</ele>
        <time>2019-06-23T07:34:53.000Z</time>
      </trkpt>
      <trkpt lat="44.10382" lon="6.30067">
        <ele>929</ele>
        <time>2019-06-23T07:34:56.000Z</time>
      </trkpt>
      <trkpt lat="44.10382" lon="6.30068">
        <ele>929</ele>
        <time>2019-06-23T07:34:59.000Z</time>
      </trkpt>
      <trkpt lat="44.10382" lon="6.30072">
        <ele>929.2</ele>
        <time>2019-06-23T07:35:10.000Z</time>
      </trkpt>
      <trkpt lat="44.10382" lon="6.30073">
        <ele>929.4</ele>
        <time>2019-06-23T07:35:12.000Z</time>
      </trkpt>
      <trkpt lat="44.10382" lon="6.30071">
        <ele>929</ele>
        <time>2019-06-23T07:35:19.000Z</time>
      </trkpt>
      <trkpt lat="44.10381" lon="6.30065">
        <ele>928.8</ele>
        <time>2019-06-23T07:35:26.000Z</time>
      </trkpt>
      <trkpt lat="44.10381" lon="6.30065">
        <ele>928.8</ele>
        <time>2019-06-23T07:35:28.000Z</time>
      </trkpt>
      <trkpt lat="44.10382" lon="6.30064">
        <ele>928.6</ele>
        <time>2019-06-23T07:35:36.000Z</time>
      </trkpt>
      <trkpt lat="44.10382" lon="6.30064">
        <ele>928.6</ele>
        <time>2019-06-23T07:35:39.000Z</time>
      </trkpt>
      <trkpt lat="44.10382" lon="6.30064">
        <ele>928.4</ele>
        <time>2019-06-23T07:35:45.000Z</time>
      </trkpt>
      <trkpt lat="44.10382" lon="6.30064">
        <ele>928.4</ele>
        <time>2019-06-23T07:35:51.000Z</time>
      </trkpt>
      <trkpt lat="44.10382" lon="6.30064">
        <ele>928.4</ele>
        <time>2019-06-23T07:35:54.000Z</time>
      </trkpt>
      <trkpt lat="44.10382" lon="6.30065">
        <ele>928.4</ele>
        <time>2019-06-23T07:35:59.000Z</time>
      </trkpt>
      <trkpt lat="44.10382" lon="6.30066">
        <ele>928.6</ele>
        <time>2019-06-23T07:36:05.000Z</time>
      </trkpt>
      <trkpt lat="44.10386" lon="6.30072">
        <ele>928.8</ele>
        <time>2019-06-23T07:36:09.000Z</time>
      </trkpt>
      <trkpt lat="44.10388" lon="6.30074">
        <ele>928.8</ele>
        <time>2019-06-23T07:36:10.000Z</time>
      </trkpt>
      <trkpt lat="44.10397" lon="6.30087">
        <ele>927.8</ele>
        <time>2019-06-23T07:36:14.000Z</time>
      </trkpt>
      <trkpt lat="44.10407" lon="6.30091">
        <ele>927.4</ele>
        <time>2019-06-23T07:36:17.000Z</time>
      </trkpt>
      <trkpt lat="44.10411" lon="6.30093">
        <ele>927.2</ele>
        <time>2019-06-23T07:36:18.000Z</time>
      </trkpt>
      <trkpt lat="44.10417" lon="6.30096">
        <ele>928.8</ele>
        <time>2019-06-23T07:36:21.000Z</time>
      </trkpt>
      <trkpt lat="44.1042" lon="6.30097">
        <ele>929.2</ele>
        <time>2019-06-23T07:36:22.000Z</time>
      </trkpt>
      <trkpt lat="44.10425" lon="6.30099">
        <ele>930</ele>
        <time>2019-06-23T07:36:24.000Z</time>
      </trkpt>
      <trkpt lat="44.10432" lon="6.30103">
        <ele>930.2</ele>
        <time>2019-06-23T07:36:27.000Z</time>
      </trkpt>
      <trkpt lat="44.10434" lon="6.30103">
        <ele>930.2</ele>
        <time>2019-06-23T07:36:28.000Z</time>
      </trkpt>
      <trkpt lat="44.10436" lon="6.30103">
        <ele>930.4</ele>
        <time>2019-06-23T07:36:29.000Z</time>
      </trkpt>
      <trkpt lat="44.10438" lon="6.30103">
        <ele>930.8</ele>
        <time>2019-06-23T07:36:30.000Z</time>
      </trkpt>
      <trkpt lat="44.10439" lon="6.30104">
        <ele>931.2</ele>
        <time>2019-06-23T07:36:31.000Z</time>
      </trkpt>
      <trkpt lat="44.10452" lon="6.30108">
        <ele>932.2</ele>
        <time>2019-06-23T07:36:35.000Z</time>
      </trkpt>
      <trkpt lat="44.10459" lon="6.30112">
        <ele>932.2</ele>
        <time>2019-06-23T07:36:37.000Z</time>
      </trkpt>
      <trkpt lat="44.10463" lon="6.30113">
        <ele>932.4</ele>
        <time>2019-06-23T07:36:39.000Z</time>
      </trkpt>
      <trkpt lat="44.10464" lon="6.30113">
        <ele>932.6</ele>
        <time>2019-06-23T07:36:40.000Z</time>
      </trkpt>
      <trkpt lat="44.10467" lon="6.30113">
        <ele>933.2</ele>
        <time>2019-06-23T07:36:42.000Z</time>
      </trkpt>
      <trkpt lat="44.10469" lon="6.30113">
        <ele>933.4</ele>
        <time>2019-06-23T07:36:43.000Z</time>
      </trkpt>
      <trkpt lat="44.10474" lon="6.30113">
        <ele>933.6</ele>
        <time>2019-06-23T07:36:45.000Z</time>
      </trkpt>
      <trkpt lat="44.1048" lon="6.30114">
        <ele>934</ele>
        <time>2019-06-23T07:36:47.000Z</time>
      </trkpt>
      <trkpt lat="44.10493" lon="6.30114">
        <ele>934</ele>
        <time>2019-06-23T07:36:52.000Z</time>
      </trkpt>
      <trkpt lat="44.10499" lon="6.30114">
        <ele>934.8</ele>
        <time>2019-06-23T07:36:55.000Z</time>
      </trkpt>
      <trkpt lat="44.10504" lon="6.30114">
        <ele>935.8</ele>
        <time>2019-06-23T07:36:57.000Z</time>
      </trkpt>
      <trkpt lat="44.10506" lon="6.30114">
        <ele>936</ele>
        <time>2019-06-23T07:36:58.000Z</time>
      </trkpt>
      <trkpt lat="44.1052" lon="6.30117">
        <ele>936.6</ele>
        <time>2019-06-23T07:37:04.000Z</time>
      </trkpt>
      <trkpt lat="44.10521" lon="6.30117">
        <ele>937</ele>
        <time>2019-06-23T07:37:05.000Z</time>
      </trkpt>
      <trkpt lat="44.10527" lon="6.30119">
        <ele>938</ele>
        <time>2019-06-23T07:37:08.000Z</time>
      </trkpt>
      <trkpt lat="44.10532" lon="6.30121">
        <ele>938.8</ele>
        <time>2019-06-23T07:37:10.000Z</time>
      </trkpt>
      <trkpt lat="44.10535" lon="6.30122">
        <ele>939.4</ele>
        <time>2019-06-23T07:37:12.000Z</time>
      </trkpt>
      <trkpt lat="44.10538" lon="6.30123">
        <ele>939.6</ele>
        <time>2019-06-23T07:37:13.000Z</time>
      </trkpt>
      <trkpt lat="44.10542" lon="6.30121">
        <ele>939.4</ele>
        <time>2019-06-23T07:37:15.000Z</time>
      </trkpt>
      <trkpt lat="44.10546" lon="6.30121">
        <ele>939.2</ele>
        <time>2019-06-23T07:37:16.000Z</time>
      </trkpt>
      <trkpt lat="44.10548" lon="6.30121">
        <ele>939.2</ele>
        <time>2019-06-23T07:37:17.000Z</time>
      </trkpt>
      <trkpt lat="44.10556" lon="6.30124">
        <ele>939.4</ele>
        <time>2019-06-23T07:37:20.000Z</time>
      </trkpt>
      <trkpt lat="44.10558" lon="6.30124">
        <ele>939.6</ele>
        <time>2019-06-23T07:37:21.000Z</time>
      </trkpt>
      <trkpt lat="44.10565" lon="6.30125">
        <ele>939.8</ele>
        <time>2019-06-23T07:37:25.000Z</time>
      </trkpt>
      <trkpt lat="44.10568" lon="6.30125">
        <ele>940</ele>
        <time>2019-06-23T07:37:26.000Z</time>
      </trkpt>
      <trkpt lat="44.10576" lon="6.30138">
        <ele>940.2</ele>
        <time>2019-06-23T07:37:31.000Z</time>
      </trkpt>
      <trkpt lat="44.10577" lon="6.30141">
        <ele>940.4</ele>
        <time>2019-06-23T07:37:32.000Z</time>
      </trkpt>
      <trkpt lat="44.10584" lon="6.30152">
        <ele>941.4</ele>
        <time>2019-06-23T07:37:37.000Z</time>
      </trkpt>
      <trkpt lat="44.10586" lon="6.30154">
        <ele>941.6</ele>
        <time>2019-06-23T07:37:38.000Z</time>
      </trkpt>
      <trkpt lat="44.10589" lon="6.30161">
        <ele>942</ele>
        <time>2019-06-23T07:37:41.000Z</time>
      </trkpt>
      <trkpt lat="44.10592" lon="6.30167">
        <ele>942.2</ele>
        <time>2019-06-23T07:37:44.000Z</time>
      </trkpt>
      <trkpt lat="44.10594" lon="6.30169">
        <ele>942.6</ele>
        <time>2019-06-23T07:37:45.000Z</time>
      </trkpt>
      <trkpt lat="44.10596" lon="6.30174">
        <ele>944.4</ele>
        <time>2019-06-23T07:37:47.000Z</time>
      </trkpt>
      <trkpt lat="44.10599" lon="6.3018">
        <ele>945.4</ele>
        <time>2019-06-23T07:37:50.000Z</time>
      </trkpt>
      <trkpt lat="44.10603" lon="6.30183">
        <ele>945.6</ele>
        <time>2019-06-23T07:37:53.000Z</time>
      </trkpt>
      <trkpt lat="44.10606" lon="6.30185">
        <ele>945.8</ele>
        <time>2019-06-23T07:37:55.000Z</time>
      </trkpt>
      <trkpt lat="44.10608" lon="6.30184">
        <ele>945.8</ele>
        <time>2019-06-23T07:37:56.000Z</time>
      </trkpt>
      <trkpt lat="44.10615" lon="6.30181">
        <ele>946.6</ele>
        <time>2019-06-23T07:38:01.000Z</time>
      </trkpt>
      <trkpt lat="44.10617" lon="6.30178">
        <ele>947.8</ele>
        <time>2019-06-23T07:38:03.000Z</time>
      </trkpt>
      <trkpt lat="44.10618" lon="6.30178">
        <ele>948.2</ele>
        <time>2019-06-23T07:38:04.000Z</time>
      </trkpt>
      <trkpt lat="44.10621" lon="6.30176">
        <ele>948.8</ele>
        <time>2019-06-23T07:38:06.000Z</time>
      </trkpt>
      <trkpt lat="44.10625" lon="6.30172">
        <ele>949.4</ele>
        <time>2019-06-23T07:38:09.000Z</time>
      </trkpt>
      <trkpt lat="44.10629" lon="6.30169">
        <ele>949.8</ele>
        <time>2019-06-23T07:38:11.000Z</time>
      </trkpt>
      <trkpt lat="44.10638" lon="6.30166">
        <ele>951.4</ele>
        <time>2019-06-23T07:38:17.000Z</time>
      </trkpt>
      <trkpt lat="44.10639" lon="6.30165">
        <ele>952</ele>
        <time>2019-06-23T07:38:18.000Z</time>
      </trkpt>
      <trkpt lat="44.10643" lon="6.30165">
        <ele>952.8</ele>
        <time>2019-06-23T07:38:20.000Z</time>
      </trkpt>
      <trkpt lat="44.10649" lon="6.30167">
        <ele>953.4</ele>
        <time>2019-06-23T07:38:24.000Z</time>
      </trkpt>
      <trkpt lat="44.1065" lon="6.30171">
        <ele>953.8</ele>
        <time>2019-06-23T07:38:26.000Z</time>
      </trkpt>
      <trkpt lat="44.10654" lon="6.3018">
        <ele>953.8</ele>
        <time>2019-06-23T07:38:29.000Z</time>
      </trkpt>
      <trkpt lat="44.10663" lon="6.30185">
        <ele>954.2</ele>
        <time>2019-06-23T07:38:33.000Z</time>
      </trkpt>
      <trkpt lat="44.10663" lon="6.30186">
        <ele>954.2</ele>
        <time>2019-06-23T07:38:34.000Z</time>
      </trkpt>
      <trkpt lat="44.10663" lon="6.30185">
        <ele>954.2</ele>
        <time>2019-06-23T07:38:37.000Z</time>
      </trkpt>
      <trkpt lat="44.10663" lon="6.30186">
        <ele>954</ele>
        <time>2019-06-23T07:38:43.000Z</time>
      </trkpt>
      <trkpt lat="44.10663" lon="6.30186">
        <ele>954</ele>
        <time>2019-06-23T07:38:44.000Z</time>
      </trkpt>
      <trkpt lat="44.10663" lon="6.30186">
        <ele>953.8</ele>
        <time>2019-06-23T07:38:46.000Z</time>
      </trkpt>
      <trkpt lat="44.10663" lon="6.30186">
        <ele>953.8</ele>
        <time>2019-06-23T07:38:50.000Z</time>
      </trkpt>
      <trkpt lat="44.10663" lon="6.30186">
        <ele>953.8</ele>
        <time>2019-06-23T07:38:53.000Z</time>
      </trkpt>
      <trkpt lat="44.10666" lon="6.30187">
        <ele>953.8</ele>
        <time>2019-06-23T07:38:58.000Z</time>
      </trkpt>
      <trkpt lat="44.10667" lon="6.30188">
        <ele>953.8</ele>
        <time>2019-06-23T07:39:01.000Z</time>
      </trkpt>
      <trkpt lat="44.10668" lon="6.30188">
        <ele>953.8</ele>
        <time>2019-06-23T07:39:06.000Z</time>
      </trkpt>
      <trkpt lat="44.10668" lon="6.30188">
        <ele>953.6</ele>
        <time>2019-06-23T07:39:08.000Z</time>
      </trkpt>
      <trkpt lat="44.10668" lon="6.30188">
        <ele>953.6</ele>
        <time>2019-06-23T07:39:10.000Z</time>
      </trkpt>
      <trkpt lat="44.10667" lon="6.30188">
        <ele>953.6</ele>
        <time>2019-06-23T07:39:11.000Z</time>
      </trkpt>
      <trkpt lat="44.10668" lon="6.30189">
        <ele>953.6</ele>
        <time>2019-06-23T07:39:13.000Z</time>
      </trkpt>
      <trkpt lat="44.10669" lon="6.30192">
        <ele>953.6</ele>
        <time>2019-06-23T07:39:15.000Z</time>
      </trkpt>
      <trkpt lat="44.10676" lon="6.30207">
        <ele>953</ele>
        <time>2019-06-23T07:39:19.000Z</time>
      </trkpt>
      <trkpt lat="44.10679" lon="6.3021">
        <ele>952.6</ele>
        <time>2019-06-23T07:39:20.000Z</time>
      </trkpt>
      <trkpt lat="44.10686" lon="6.30219">
        <ele>951.8</ele>
        <time>2019-06-23T07:39:22.000Z</time>
      </trkpt>
      <trkpt lat="44.10688" lon="6.30224">
        <ele>951.6</ele>
        <time>2019-06-23T07:39:23.000Z</time>
      </trkpt>
      <trkpt lat="44.1069" lon="6.30231">
        <ele>951.2</ele>
        <time>2019-06-23T07:39:24.000Z</time>
      </trkpt>
      <trkpt lat="44.10693" lon="6.30238">
        <ele>950.4</ele>
        <time>2019-06-23T07:39:25.000Z</time>
      </trkpt>
      <trkpt lat="44.10697" lon="6.30247">
        <ele>949.2</ele>
        <time>2019-06-23T07:39:26.000Z</time>
      </trkpt>
      <trkpt lat="44.10702" lon="6.30256">
        <ele>948.6</ele>
        <time>2019-06-23T07:39:27.000Z</time>
      </trkpt>
      <trkpt lat="44.10708" lon="6.30265">
        <ele>947.6</ele>
        <time>2019-06-23T07:39:28.000Z</time>
      </trkpt>
      <trkpt lat="44.10713" lon="6.30273">
        <ele>946</ele>
        <time>2019-06-23T07:39:29.000Z</time>
      </trkpt>
      <trkpt lat="44.10716" lon="6.30282">
        <ele>944.4</ele>
        <time>2019-06-23T07:39:30.000Z</time>
      </trkpt>
      <trkpt lat="44.1072" lon="6.30301">
        <ele>942.8</ele>
        <time>2019-06-23T07:39:32.000Z</time>
      </trkpt>
      <trkpt lat="44.10723" lon="6.3031">
        <ele>942.4</ele>
        <time>2019-06-23T07:39:33.000Z</time>
      </trkpt>
      <trkpt lat="44.10727" lon="6.3032">
        <ele>941.4</ele>
        <time>2019-06-23T07:39:34.000Z</time>
      </trkpt>
      <trkpt lat="44.10729" lon="6.30331">
        <ele>940</ele>
        <time>2019-06-23T07:39:35.000Z</time>
      </trkpt>
      <trkpt lat="44.10732" lon="6.30341">
        <ele>938.4</ele>
        <time>2019-06-23T07:39:36.000Z</time>
      </trkpt>
      <trkpt lat="44.10735" lon="6.3036">
        <ele>937</ele>
        <time>2019-06-23T07:39:38.000Z</time>
      </trkpt>
      <trkpt lat="44.10736" lon="6.30369">
        <ele>936.6</ele>
        <time>2019-06-23T07:39:39.000Z</time>
      </trkpt>
      <trkpt lat="44.10737" lon="6.30378">
        <ele>935.4</ele>
        <time>2019-06-23T07:39:40.000Z</time>
      </trkpt>
      <trkpt lat="44.10739" lon="6.30387">
        <ele>934.2</ele>
        <time>2019-06-23T07:39:41.000Z</time>
      </trkpt>
      <trkpt lat="44.1074" lon="6.30395">
        <ele>933.4</ele>
        <time>2019-06-23T07:39:42.000Z</time>
      </trkpt>
      <trkpt lat="44.10742" lon="6.30404">
        <ele>933</ele>
        <time>2019-06-23T07:39:43.000Z</time>
      </trkpt>
      <trkpt lat="44.10745" lon="6.3042">
        <ele>932.2</ele>
        <time>2019-06-23T07:39:45.000Z</time>
      </trkpt>
      <trkpt lat="44.10746" lon="6.30435">
        <ele>932.2</ele>
        <time>2019-06-23T07:39:47.000Z</time>
      </trkpt>
      <trkpt lat="44.10744" lon="6.30446">
        <ele>932.4</ele>
        <time>2019-06-23T07:39:49.000Z</time>
      </trkpt>
      <trkpt lat="44.10745" lon="6.30451">
        <ele>933.2</ele>
        <time>2019-06-23T07:39:50.000Z</time>
      </trkpt>
      <trkpt lat="44.10748" lon="6.30464">
        <ele>933.4</ele>
        <time>2019-06-23T07:39:52.000Z</time>
      </trkpt>
      <trkpt lat="44.10751" lon="6.30481">
        <ele>933.2</ele>
        <time>2019-06-23T07:39:55.000Z</time>
      </trkpt>
      <trkpt lat="44.10758" lon="6.30508">
        <ele>932</ele>
        <time>2019-06-23T07:40:00.000Z</time>
      </trkpt>
      <trkpt lat="44.10759" lon="6.30514">
        <ele>932</ele>
        <time>2019-06-23T07:40:01.000Z</time>
      </trkpt>
      <trkpt lat="44.1076" lon="6.30519">
        <ele>931.8</ele>
        <time>2019-06-23T07:40:02.000Z</time>
      </trkpt>
      <trkpt lat="44.10762" lon="6.30523">
        <ele>932</ele>
        <time>2019-06-23T07:40:03.000Z</time>
      </trkpt>
      <trkpt lat="44.10765" lon="6.30534">
        <ele>932</ele>
        <time>2019-06-23T07:40:06.000Z</time>
      </trkpt>
      <trkpt lat="44.10764" lon="6.30546">
        <ele>932.4</ele>
        <time>2019-06-23T07:40:10.000Z</time>
      </trkpt>
      <trkpt lat="44.10763" lon="6.30549">
        <ele>932.6</ele>
        <time>2019-06-23T07:40:11.000Z</time>
      </trkpt>
      <trkpt lat="44.10763" lon="6.30552">
        <ele>932.8</ele>
        <time>2019-06-23T07:40:12.000Z</time>
      </trkpt>
      <trkpt lat="44.10759" lon="6.30564">
        <ele>933.8</ele>
        <time>2019-06-23T07:40:16.000Z</time>
      </trkpt>
      <trkpt lat="44.10759" lon="6.30567">
        <ele>934</ele>
        <time>2019-06-23T07:40:17.000Z</time>
      </trkpt>
      <trkpt lat="44.10758" lon="6.30576">
        <ele>934.8</ele>
        <time>2019-06-23T07:40:20.000Z</time>
      </trkpt>
      <trkpt lat="44.10759" lon="6.30579">
        <ele>935</ele>
        <time>2019-06-23T07:40:21.000Z</time>
      </trkpt>
      <trkpt lat="44.1076" lon="6.3058">
        <ele>935.6</ele>
        <time>2019-06-23T07:40:22.000Z</time>
      </trkpt>
      <trkpt lat="44.10761" lon="6.30582">
        <ele>936.2</ele>
        <time>2019-06-23T07:40:23.000Z</time>
      </trkpt>
      <trkpt lat="44.10763" lon="6.30583">
        <ele>936.8</ele>
        <time>2019-06-23T07:40:25.000Z</time>
      </trkpt>
      <trkpt lat="44.10763" lon="6.30583">
        <ele>937</ele>
        <time>2019-06-23T07:40:27.000Z</time>
      </trkpt>
      <trkpt lat="44.10762" lon="6.30586">
        <ele>937.2</ele>
        <time>2019-06-23T07:40:31.000Z</time>
      </trkpt>
      <trkpt lat="44.10761" lon="6.30588">
        <ele>937.4</ele>
        <time>2019-06-23T07:40:33.000Z</time>
      </trkpt>
      <trkpt lat="44.10761" lon="6.30592">
        <ele>937.4</ele>
        <time>2019-06-23T07:40:36.000Z</time>
      </trkpt>
      <trkpt lat="44.10762" lon="6.30595">
        <ele>937.4</ele>
        <time>2019-06-23T07:40:38.000Z</time>
      </trkpt>
      <trkpt lat="44.10762" lon="6.30596">
        <ele>937.4</ele>
        <time>2019-06-23T07:40:39.000Z</time>
      </trkpt>
      <trkpt lat="44.10762" lon="6.30599">
        <ele>937.4</ele>
        <time>2019-06-23T07:40:41.000Z</time>
      </trkpt>
      <trkpt lat="44.10763" lon="6.306">
        <ele>937.4</ele>
        <time>2019-06-23T07:40:43.000Z</time>
      </trkpt>
      <trkpt lat="44.10765" lon="6.30603">
        <ele>937.4</ele>
        <time>2019-06-23T07:40:45.000Z</time>
      </trkpt>
      <trkpt lat="44.10765" lon="6.30604">
        <ele>937.8</ele>
        <time>2019-06-23T07:40:47.000Z</time>
      </trkpt>
      <trkpt lat="44.10764" lon="6.30607">
        <ele>938.4</ele>
        <time>2019-06-23T07:40:50.000Z</time>
      </trkpt>
      <trkpt lat="44.10764" lon="6.30609">
        <ele>938.6</ele>
        <time>2019-06-23T07:40:51.000Z</time>
      </trkpt>
      <trkpt lat="44.10762" lon="6.30611">
        <ele>938.6</ele>
        <time>2019-06-23T07:40:52.000Z</time>
      </trkpt>
      <trkpt lat="44.1076" lon="6.3062">
        <ele>939</ele>
        <time>2019-06-23T07:40:59.000Z</time>
      </trkpt>
      <trkpt lat="44.10759" lon="6.30621">
        <ele>939</ele>
        <time>2019-06-23T07:41:01.000Z</time>
      </trkpt>
      <trkpt lat="44.10759" lon="6.30622">
        <ele>939.4</ele>
        <time>2019-06-23T07:41:03.000Z</time>
      </trkpt>
      <trkpt lat="44.10759" lon="6.30625">
        <ele>940</ele>
        <time>2019-06-23T07:41:05.000Z</time>
      </trkpt>
      <trkpt lat="44.10759" lon="6.30627">
        <ele>940.2</ele>
        <time>2019-06-23T07:41:06.000Z</time>
      </trkpt>
      <trkpt lat="44.10758" lon="6.30636">
        <ele>940.4</ele>
        <time>2019-06-23T07:41:10.000Z</time>
      </trkpt>
      <trkpt lat="44.10757" lon="6.30639">
        <ele>940.4</ele>
        <time>2019-06-23T07:41:11.000Z</time>
      </trkpt>
      <trkpt lat="44.10757" lon="6.30641">
        <ele>940.6</ele>
        <time>2019-06-23T07:41:12.000Z</time>
      </trkpt>
      <trkpt lat="44.10757" lon="6.30646">
        <ele>940.8</ele>
        <time>2019-06-23T07:41:14.000Z</time>
      </trkpt>
      <trkpt lat="44.1076" lon="6.30649">
        <ele>941.2</ele>
        <time>2019-06-23T07:41:16.000Z</time>
      </trkpt>
      <trkpt lat="44.10762" lon="6.30652">
        <ele>941.8</ele>
        <time>2019-06-23T07:41:18.000Z</time>
      </trkpt>
      <trkpt lat="44.10766" lon="6.30655">
        <ele>943</ele>
        <time>2019-06-23T07:41:21.000Z</time>
      </trkpt>
      <trkpt lat="44.10768" lon="6.30664">
        <ele>944.2</ele>
        <time>2019-06-23T07:41:26.000Z</time>
      </trkpt>
      <trkpt lat="44.10767" lon="6.30668">
        <ele>944.6</ele>
        <time>2019-06-23T07:41:28.000Z</time>
      </trkpt>
      <trkpt lat="44.10768" lon="6.30671">
        <ele>945.4</ele>
        <time>2019-06-23T07:41:30.000Z</time>
      </trkpt>
      <trkpt lat="44.10769" lon="6.30673">
        <ele>945.8</ele>
        <time>2019-06-23T07:41:31.000Z</time>
      </trkpt>
      <trkpt lat="44.10768" lon="6.30676">
        <ele>946.2</ele>
        <time>2019-06-23T07:41:33.000Z</time>
      </trkpt>
      <trkpt lat="44.10767" lon="6.30679">
        <ele>946.6</ele>
        <time>2019-06-23T07:41:35.000Z</time>
      </trkpt>
      <trkpt lat="44.10767" lon="6.30679">
        <ele>946.8</ele>
        <time>2019-06-23T07:41:36.000Z</time>
      </trkpt>
      <trkpt lat="44.10767" lon="6.3068">
        <ele>947</ele>
        <time>2019-06-23T07:41:37.000Z</time>
      </trkpt>
      <trkpt lat="44.10768" lon="6.30683">
        <ele>947.8</ele>
        <time>2019-06-23T07:41:40.000Z</time>
      </trkpt>
      <trkpt lat="44.10772" lon="6.30685">
        <ele>948.2</ele>
        <time>2019-06-23T07:41:43.000Z</time>
      </trkpt>
      <trkpt lat="44.10772" lon="6.30683">
        <ele>948.2</ele>
        <time>2019-06-23T07:41:49.000Z</time>
      </trkpt>
      <trkpt lat="44.10772" lon="6.30682">
        <ele>948.2</ele>
        <time>2019-06-23T07:41:54.000Z</time>
      </trkpt>
      <trkpt lat="44.10772" lon="6.30683">
        <ele>948.2</ele>
        <time>2019-06-23T07:41:55.000Z</time>
      </trkpt>
      <trkpt lat="44.10772" lon="6.30683">
        <ele>948.2</ele>
        <time>2019-06-23T07:41:56.000Z</time>
      </trkpt>
      <trkpt lat="44.10772" lon="6.30682">
        <ele>948</ele>
        <time>2019-06-23T07:42:02.000Z</time>
      </trkpt>
      <trkpt lat="44.10772" lon="6.30681">
        <ele>947.8</ele>
        <time>2019-06-23T07:42:03.000Z</time>
      </trkpt>
      <trkpt lat="44.10772" lon="6.30682">
        <ele>947.8</ele>
        <time>2019-06-23T07:42:08.000Z</time>
      </trkpt>
      <trkpt lat="44.10772" lon="6.30682">
        <ele>947.4</ele>
        <time>2019-06-23T07:42:12.000Z</time>
      </trkpt>
      <trkpt lat="44.10772" lon="6.30682">
        <ele>947.6</ele>
        <time>2019-06-23T07:42:18.000Z</time>
      </trkpt>
      <trkpt lat="44.10774" lon="6.30682">
        <ele>947.8</ele>
        <time>2019-06-23T07:42:25.000Z</time>
      </trkpt>
      <trkpt lat="44.10774" lon="6.30682">
        <ele>947.8</ele>
        <time>2019-06-23T07:42:26.000Z</time>
      </trkpt>
      <trkpt lat="44.10775" lon="6.30682">
        <ele>947.8</ele>
        <time>2019-06-23T07:42:33.000Z</time>
      </trkpt>
      <trkpt lat="44.10777" lon="6.30686">
        <ele>948</ele>
        <time>2019-06-23T07:42:35.000Z</time>
      </trkpt>
      <trkpt lat="44.10778" lon="6.30688">
        <ele>948.2</ele>
        <time>2019-06-23T07:42:36.000Z</time>
      </trkpt>
      <trkpt lat="44.1078" lon="6.30692">
        <ele>947.8</ele>
        <time>2019-06-23T07:42:38.000Z</time>
      </trkpt>
      <trkpt lat="44.1079" lon="6.30707">
        <ele>947.8</ele>
        <time>2019-06-23T07:42:45.000Z</time>
      </trkpt>
      <trkpt lat="44.10794" lon="6.30717">
        <ele>948.4</ele>
        <time>2019-06-23T07:42:49.000Z</time>
      </trkpt>
      <trkpt lat="44.10795" lon="6.30719">
        <ele>948.6</ele>
        <time>2019-06-23T07:42:50.000Z</time>
      </trkpt>
      <trkpt lat="44.10798" lon="6.30723">
        <ele>948.6</ele>
        <time>2019-06-23T07:42:52.000Z</time>
      </trkpt>
      <trkpt lat="44.108" lon="6.30725">
        <ele>948.8</ele>
        <time>2019-06-23T07:42:53.000Z</time>
      </trkpt>
      <trkpt lat="44.10806" lon="6.30729">
        <ele>950</ele>
        <time>2019-06-23T07:42:56.000Z</time>
      </trkpt>
      <trkpt lat="44.10809" lon="6.30731">
        <ele>950.6</ele>
        <time>2019-06-23T07:42:58.000Z</time>
      </trkpt>
      <trkpt lat="44.10813" lon="6.30735">
        <ele>951</ele>
        <time>2019-06-23T07:43:00.000Z</time>
      </trkpt>
      <trkpt lat="44.10821" lon="6.30739">
        <ele>951.6</ele>
        <time>2019-06-23T07:43:04.000Z</time>
      </trkpt>
      <trkpt lat="44.10823" lon="6.3074">
        <ele>951.6</ele>
        <time>2019-06-23T07:43:05.000Z</time>
      </trkpt>
      <trkpt lat="44.10837" lon="6.30748">
        <ele>951.8</ele>
        <time>2019-06-23T07:43:11.000Z</time>
      </trkpt>
      <trkpt lat="44.1084" lon="6.3075">
        <ele>951.8</ele>
        <time>2019-06-23T07:43:12.000Z</time>
      </trkpt>
      <trkpt lat="44.10846" lon="6.30753">
        <ele>951.8</ele>
        <time>2019-06-23T07:43:14.000Z</time>
      </trkpt>
      <trkpt lat="44.10851" lon="6.30757">
        <ele>952.2</ele>
        <time>2019-06-23T07:43:16.000Z</time>
      </trkpt>
      <trkpt lat="44.10859" lon="6.30762">
        <ele>952.6</ele>
        <time>2019-06-23T07:43:19.000Z</time>
      </trkpt>
      <trkpt lat="44.10864" lon="6.30769">
        <ele>953.2</ele>
        <time>2019-06-23T07:43:22.000Z</time>
      </trkpt>
      <trkpt lat="44.10869" lon="6.30773">
        <ele>953.4</ele>
        <time>2019-06-23T07:43:24.000Z</time>
      </trkpt>
      <trkpt lat="44.10876" lon="6.3078">
        <ele>952.4</ele>
        <time>2019-06-23T07:43:26.000Z</time>
      </trkpt>
      <trkpt lat="44.10878" lon="6.30783">
        <ele>952</ele>
        <time>2019-06-23T07:43:27.000Z</time>
      </trkpt>
      <trkpt lat="44.10881" lon="6.30786">
        <ele>951.6</ele>
        <time>2019-06-23T07:43:28.000Z</time>
      </trkpt>
      <trkpt lat="44.10885" lon="6.30791">
        <ele>951.4</ele>
        <time>2019-06-23T07:43:30.000Z</time>
      </trkpt>
      <trkpt lat="44.10892" lon="6.308">
        <ele>951.4</ele>
        <time>2019-06-23T07:43:32.000Z</time>
      </trkpt>
      <trkpt lat="44.10895" lon="6.30806">
        <ele>951.2</ele>
        <time>2019-06-23T07:43:33.000Z</time>
      </trkpt>
      <trkpt lat="44.10898" lon="6.30811">
        <ele>951</ele>
        <time>2019-06-23T07:43:34.000Z</time>
      </trkpt>
      <trkpt lat="44.10905" lon="6.3082">
        <ele>949.8</ele>
        <time>2019-06-23T07:43:36.000Z</time>
      </trkpt>
      <trkpt lat="44.10908" lon="6.30824">
        <ele>948.8</ele>
        <time>2019-06-23T07:43:37.000Z</time>
      </trkpt>
      <trkpt lat="44.10914" lon="6.30828">
        <ele>948.2</ele>
        <time>2019-06-23T07:43:38.000Z</time>
      </trkpt>
      <trkpt lat="44.10916" lon="6.30833">
        <ele>948</ele>
        <time>2019-06-23T07:43:39.000Z</time>
      </trkpt>
      <trkpt lat="44.10921" lon="6.30841">
        <ele>947.8</ele>
        <time>2019-06-23T07:43:41.000Z</time>
      </trkpt>
      <trkpt lat="44.10927" lon="6.30851">
        <ele>948.2</ele>
        <time>2019-06-23T07:43:44.000Z</time>
      </trkpt>
      <trkpt lat="44.10936" lon="6.30859">
        <ele>947.8</ele>
        <time>2019-06-23T07:43:46.000Z</time>
      </trkpt>
      <trkpt lat="44.10948" lon="6.30872">
        <ele>947.6</ele>
        <time>2019-06-23T07:43:49.000Z</time>
      </trkpt>
      <trkpt lat="44.10956" lon="6.30878">
        <ele>948</ele>
        <time>2019-06-23T07:43:51.000Z</time>
      </trkpt>
      <trkpt lat="44.10959" lon="6.30879">
        <ele>948</ele>
        <time>2019-06-23T07:43:52.000Z</time>
      </trkpt>
      <trkpt lat="44.10975" lon="6.30891">
        <ele>948</ele>
        <time>2019-06-23T07:43:56.000Z</time>
      </trkpt>
      <trkpt lat="44.10986" lon="6.30907">
        <ele>947.2</ele>
        <time>2019-06-23T07:43:59.000Z</time>
      </trkpt>
      <trkpt lat="44.10988" lon="6.3091">
        <ele>946.8</ele>
        <time>2019-06-23T07:44:00.000Z</time>
      </trkpt>
      <trkpt lat="44.10994" lon="6.30914">
        <ele>945.8</ele>
        <time>2019-06-23T07:44:02.000Z</time>
      </trkpt>
      <trkpt lat="44.11" lon="6.30919">
        <ele>945</ele>
        <time>2019-06-23T07:44:04.000Z</time>
      </trkpt>
      <trkpt lat="44.11003" lon="6.30921">
        <ele>944.6</ele>
        <time>2019-06-23T07:44:05.000Z</time>
      </trkpt>
      <trkpt lat="44.1101" lon="6.30924">
        <ele>943.8</ele>
        <time>2019-06-23T07:44:07.000Z</time>
      </trkpt>
      <trkpt lat="44.11012" lon="6.30926">
        <ele>943.6</ele>
        <time>2019-06-23T07:44:08.000Z</time>
      </trkpt>
      <trkpt lat="44.11019" lon="6.30939">
        <ele>943.2</ele>
        <time>2019-06-23T07:44:12.000Z</time>
      </trkpt>
      <trkpt lat="44.11025" lon="6.30945">
        <ele>943.2</ele>
        <time>2019-06-23T07:44:14.000Z</time>
      </trkpt>
      <trkpt lat="44.11032" lon="6.30951">
        <ele>942.4</ele>
        <time>2019-06-23T07:44:16.000Z</time>
      </trkpt>
      <trkpt lat="44.1104" lon="6.30957">
        <ele>941.2</ele>
        <time>2019-06-23T07:44:18.000Z</time>
      </trkpt>
      <trkpt lat="44.11048" lon="6.30964">
        <ele>940</ele>
        <time>2019-06-23T07:44:20.000Z</time>
      </trkpt>
      <trkpt lat="44.11053" lon="6.30966">
        <ele>939.8</ele>
        <time>2019-06-23T07:44:21.000Z</time>
      </trkpt>
      <trkpt lat="44.11055" lon="6.3097">
        <ele>939.2</ele>
        <time>2019-06-23T07:44:22.000Z</time>
      </trkpt>
      <trkpt lat="44.1106" lon="6.30972">
        <ele>938.4</ele>
        <time>2019-06-23T07:44:23.000Z</time>
      </trkpt>
      <trkpt lat="44.11066" lon="6.30974">
        <ele>938.2</ele>
        <time>2019-06-23T07:44:25.000Z</time>
      </trkpt>
      <trkpt lat="44.1107" lon="6.30973">
        <ele>938.8</ele>
        <time>2019-06-23T07:44:26.000Z</time>
      </trkpt>
      <trkpt lat="44.11079" lon="6.30976">
        <ele>939.8</ele>
        <time>2019-06-23T07:44:29.000Z</time>
      </trkpt>
      <trkpt lat="44.11082" lon="6.30977">
        <ele>940.4</ele>
        <time>2019-06-23T07:44:30.000Z</time>
      </trkpt>
      <trkpt lat="44.11084" lon="6.30977">
        <ele>941.2</ele>
        <time>2019-06-23T07:44:31.000Z</time>
      </trkpt>
      <trkpt lat="44.11093" lon="6.30974">
        <ele>942.4</ele>
        <time>2019-06-23T07:44:34.000Z</time>
      </trkpt>
      <trkpt lat="44.11096" lon="6.30974">
        <ele>942.6</ele>
        <time>2019-06-23T07:44:35.000Z</time>
      </trkpt>
      <trkpt lat="44.11115" lon="6.30974">
        <ele>942.6</ele>
        <time>2019-06-23T07:44:41.000Z</time>
      </trkpt>
      <trkpt lat="44.11123" lon="6.30975">
        <ele>943.6</ele>
        <time>2019-06-23T07:44:44.000Z</time>
      </trkpt>
      <trkpt lat="44.11129" lon="6.30976">
        <ele>945</ele>
        <time>2019-06-23T07:44:46.000Z</time>
      </trkpt>
      <trkpt lat="44.11133" lon="6.30977">
        <ele>945.4</ele>
        <time>2019-06-23T07:44:48.000Z</time>
      </trkpt>
      <trkpt lat="44.11138" lon="6.30975">
        <ele>946.2</ele>
        <time>2019-06-23T07:44:50.000Z</time>
      </trkpt>
      <trkpt lat="44.11143" lon="6.30973">
        <ele>947.6</ele>
        <time>2019-06-23T07:44:53.000Z</time>
      </trkpt>
      <trkpt lat="44.11144" lon="6.30974">
        <ele>948.4</ele>
        <time>2019-06-23T07:44:54.000Z</time>
      </trkpt>
      <trkpt lat="44.11146" lon="6.30975">
        <ele>949</ele>
        <time>2019-06-23T07:44:55.000Z</time>
      </trkpt>
      <trkpt lat="44.11152" lon="6.30982">
        <ele>949.6</ele>
        <time>2019-06-23T07:45:01.000Z</time>
      </trkpt>
      <trkpt lat="44.11153" lon="6.30985">
        <ele>949.4</ele>
        <time>2019-06-23T07:45:03.000Z</time>
      </trkpt>
      <trkpt lat="44.11153" lon="6.30984">
        <ele>949.2</ele>
        <time>2019-06-23T07:45:07.000Z</time>
      </trkpt>
      <trkpt lat="44.11153" lon="6.30985">
        <ele>949.2</ele>
        <time>2019-06-23T07:45:16.000Z</time>
      </trkpt>
      <trkpt lat="44.11153" lon="6.30985">
        <ele>949.2</ele>
        <time>2019-06-23T07:45:17.000Z</time>
      </trkpt>
      <trkpt lat="44.11153" lon="6.30985">
        <ele>949.2</ele>
        <time>2019-06-23T07:45:19.000Z</time>
      </trkpt>
      <trkpt lat="44.11152" lon="6.30986">
        <ele>949.2</ele>
        <time>2019-06-23T07:45:28.000Z</time>
      </trkpt>
      <trkpt lat="44.11152" lon="6.30986">
        <ele>949.2</ele>
        <time>2019-06-23T07:45:29.000Z</time>
      </trkpt>
      <trkpt lat="44.11152" lon="6.30987">
        <ele>949.2</ele>
        <time>2019-06-23T07:45:39.000Z</time>
      </trkpt>
      <trkpt lat="44.11152" lon="6.30987">
        <ele>949.2</ele>
        <time>2019-06-23T07:45:45.000Z</time>
      </trkpt>
      <trkpt lat="44.11153" lon="6.30988">
        <ele>949.2</ele>
        <time>2019-06-23T07:45:48.000Z</time>
      </trkpt>
      <trkpt lat="44.1116" lon="6.30996">
        <ele>949.2</ele>
        <time>2019-06-23T07:45:52.000Z</time>
      </trkpt>
      <trkpt lat="44.11171" lon="6.31008">
        <ele>949</ele>
        <time>2019-06-23T07:45:56.000Z</time>
      </trkpt>
      <trkpt lat="44.11177" lon="6.31017">
        <ele>947.6</ele>
        <time>2019-06-23T07:45:58.000Z</time>
      </trkpt>
      <trkpt lat="44.1118" lon="6.31022">
        <ele>946.6</ele>
        <time>2019-06-23T07:45:59.000Z</time>
      </trkpt>
      <trkpt lat="44.11187" lon="6.31031">
        <ele>945.2</ele>
        <time>2019-06-23T07:46:01.000Z</time>
      </trkpt>
      <trkpt lat="44.11195" lon="6.31041">
        <ele>944.4</ele>
        <time>2019-06-23T07:46:03.000Z</time>
      </trkpt>
      <trkpt lat="44.11201" lon="6.31056">
        <ele>944.2</ele>
        <time>2019-06-23T07:46:05.000Z</time>
      </trkpt>
      <trkpt lat="44.11212" lon="6.31081">
        <ele>943.2</ele>
        <time>2019-06-23T07:46:08.000Z</time>
      </trkpt>
      <trkpt lat="44.11216" lon="6.31091">
        <ele>943.2</ele>
        <time>2019-06-23T07:46:09.000Z</time>
      </trkpt>
      <trkpt lat="44.11219" lon="6.31099">
        <ele>942.8</ele>
        <time>2019-06-23T07:46:10.000Z</time>
      </trkpt>
      <trkpt lat="44.11222" lon="6.31105">
        <ele>941.6</ele>
        <time>2019-06-23T07:46:11.000Z</time>
      </trkpt>
      <trkpt lat="44.11225" lon="6.31108">
        <ele>940.6</ele>
        <time>2019-06-23T07:46:12.000Z</time>
      </trkpt>
      <trkpt lat="44.11237" lon="6.31112">
        <ele>939.8</ele>
        <time>2019-06-23T07:46:16.000Z</time>
      </trkpt>
      <trkpt lat="44.11246" lon="6.31119">
        <ele>940.6</ele>
        <time>2019-06-23T07:46:21.000Z</time>
      </trkpt>
      <trkpt lat="44.1125" lon="6.31124">
        <ele>941.6</ele>
        <time>2019-06-23T07:46:24.000Z</time>
      </trkpt>
      <trkpt lat="44.11252" lon="6.31128">
        <ele>942.6</ele>
        <time>2019-06-23T07:46:26.000Z</time>
      </trkpt>
      <trkpt lat="44.11253" lon="6.31131">
        <ele>942.8</ele>
        <time>2019-06-23T07:46:27.000Z</time>
      </trkpt>
      <trkpt lat="44.11254" lon="6.31134">
        <ele>944</ele>
        <time>2019-06-23T07:46:29.000Z</time>
      </trkpt>
      <trkpt lat="44.11257" lon="6.31136">
        <ele>944.4</ele>
        <time>2019-06-23T07:46:31.000Z</time>
      </trkpt>
      <trkpt lat="44.1126" lon="6.3114">
        <ele>945</ele>
        <time>2019-06-23T07:46:33.000Z</time>
      </trkpt>
      <trkpt lat="44.11263" lon="6.31143">
        <ele>945.8</ele>
        <time>2019-06-23T07:46:35.000Z</time>
      </trkpt>
      <trkpt lat="44.11265" lon="6.31145">
        <ele>946.2</ele>
        <time>2019-06-23T07:46:36.000Z</time>
      </trkpt>
      <trkpt lat="44.11266" lon="6.31146">
        <ele>946.4</ele>
        <time>2019-06-23T07:46:37.000Z</time>
      </trkpt>
      <trkpt lat="44.1127" lon="6.31149">
        <ele>947.4</ele>
        <time>2019-06-23T07:46:40.000Z</time>
      </trkpt>
      <trkpt lat="44.11274" lon="6.31152">
        <ele>948.6</ele>
        <time>2019-06-23T07:46:43.000Z</time>
      </trkpt>
      <trkpt lat="44.11275" lon="6.31153">
        <ele>948.6</ele>
        <time>2019-06-23T07:46:44.000Z</time>
      </trkpt>
      <trkpt lat="44.11279" lon="6.31155">
        <ele>949.2</ele>
        <time>2019-06-23T07:46:47.000Z</time>
      </trkpt>
      <trkpt lat="44.11279" lon="6.31157">
        <ele>949.4</ele>
        <time>2019-06-23T07:46:48.000Z</time>
      </trkpt>
      <trkpt lat="44.1128" lon="6.31163">
        <ele>949.2</ele>
        <time>2019-06-23T07:46:50.000Z</time>
      </trkpt>
      <trkpt lat="44.11287" lon="6.31173">
        <ele>949</ele>
        <time>2019-06-23T07:46:54.000Z</time>
      </trkpt>
      <trkpt lat="44.11288" lon="6.31175">
        <ele>949</ele>
        <time>2019-06-23T07:46:55.000Z</time>
      </trkpt>
      <trkpt lat="44.1129" lon="6.31179">
        <ele>949</ele>
        <time>2019-06-23T07:46:57.000Z</time>
      </trkpt>
      <trkpt lat="44.11292" lon="6.31194">
        <ele>949.6</ele>
        <time>2019-06-23T07:47:01.000Z</time>
      </trkpt>
      <trkpt lat="44.11292" lon="6.31197">
        <ele>949.8</ele>
        <time>2019-06-23T07:47:02.000Z</time>
      </trkpt>
      <trkpt lat="44.11292" lon="6.31208">
        <ele>950.2</ele>
        <time>2019-06-23T07:47:07.000Z</time>
      </trkpt>
      <trkpt lat="44.11293" lon="6.3121">
        <ele>950.4</ele>
        <time>2019-06-23T07:47:08.000Z</time>
      </trkpt>
      <trkpt lat="44.11298" lon="6.31224">
        <ele>950.6</ele>
        <time>2019-06-23T07:47:13.000Z</time>
      </trkpt>
      <trkpt lat="44.11299" lon="6.31227">
        <ele>950.6</ele>
        <time>2019-06-23T07:47:14.000Z</time>
      </trkpt>
      <trkpt lat="44.11303" lon="6.31239">
        <ele>950.4</ele>
        <time>2019-06-23T07:47:18.000Z</time>
      </trkpt>
      <trkpt lat="44.11306" lon="6.31249">
        <ele>950.4</ele>
        <time>2019-06-23T07:47:21.000Z</time>
      </trkpt>
      <trkpt lat="44.11307" lon="6.31255">
        <ele>950.8</ele>
        <time>2019-06-23T07:47:23.000Z</time>
      </trkpt>
      <trkpt lat="44.11307" lon="6.31258">
        <ele>951</ele>
        <time>2019-06-23T07:47:24.000Z</time>
      </trkpt>
      <trkpt lat="44.11304" lon="6.31274">
        <ele>951.4</ele>
        <time>2019-06-23T07:47:29.000Z</time>
      </trkpt>
      <trkpt lat="44.11303" lon="6.31276">
        <ele>951.4</ele>
        <time>2019-06-23T07:47:30.000Z</time>
      </trkpt>
      <trkpt lat="44.113" lon="6.31279">
        <ele>952.2</ele>
        <time>2019-06-23T07:47:32.000Z</time>
      </trkpt>
      <trkpt lat="44.11297" lon="6.31283">
        <ele>953.2</ele>
        <time>2019-06-23T07:47:34.000Z</time>
      </trkpt>
      <trkpt lat="44.11295" lon="6.31285">
        <ele>954</ele>
        <time>2019-06-23T07:47:36.000Z</time>
      </trkpt>
      <trkpt lat="44.11293" lon="6.31287">
        <ele>954.8</ele>
        <time>2019-06-23T07:47:37.000Z</time>
      </trkpt>
      <trkpt lat="44.11289" lon="6.31291">
        <ele>956</ele>
        <time>2019-06-23T07:47:40.000Z</time>
      </trkpt>
      <trkpt lat="44.11286" lon="6.31292">
        <ele>956.6</ele>
        <time>2019-06-23T07:47:42.000Z</time>
      </trkpt>
      <trkpt lat="44.11284" lon="6.31294">
        <ele>957.2</ele>
        <time>2019-06-23T07:47:45.000Z</time>
      </trkpt>
      <trkpt lat="44.11283" lon="6.31296">
        <ele>957.2</ele>
        <time>2019-06-23T07:47:46.000Z</time>
      </trkpt>
      <trkpt lat="44.11282" lon="6.31297">
        <ele>957.2</ele>
        <time>2019-06-23T07:47:47.000Z</time>
      </trkpt>
      <trkpt lat="44.1128" lon="6.31299">
        <ele>957.4</ele>
        <time>2019-06-23T07:47:48.000Z</time>
      </trkpt>
      <trkpt lat="44.11279" lon="6.31302">
        <ele>957.4</ele>
        <time>2019-06-23T07:47:49.000Z</time>
      </trkpt>
      <trkpt lat="44.11279" lon="6.31304">
        <ele>957.4</ele>
        <time>2019-06-23T07:47:50.000Z</time>
      </trkpt>
      <trkpt lat="44.11278" lon="6.3131">
        <ele>957.8</ele>
        <time>2019-06-23T07:47:53.000Z</time>
      </trkpt>
      <trkpt lat="44.11277" lon="6.31313">
        <ele>957.8</ele>
        <time>2019-06-23T07:47:54.000Z</time>
      </trkpt>
      <trkpt lat="44.11269" lon="6.31323">
        <ele>958.2</ele>
        <time>2019-06-23T07:47:59.000Z</time>
      </trkpt>
      <trkpt lat="44.11266" lon="6.31326">
        <ele>958.8</ele>
        <time>2019-06-23T07:48:01.000Z</time>
      </trkpt>
      <trkpt lat="44.11265" lon="6.31327">
        <ele>959.2</ele>
        <time>2019-06-23T07:48:02.000Z</time>
      </trkpt>
      <trkpt lat="44.11262" lon="6.31332">
        <ele>960.4</ele>
        <time>2019-06-23T07:48:05.000Z</time>
      </trkpt>
      <trkpt lat="44.1126" lon="6.31336">
        <ele>961.2</ele>
        <time>2019-06-23T07:48:08.000Z</time>
      </trkpt>
      <trkpt lat="44.11258" lon="6.31341">
        <ele>961.4</ele>
        <time>2019-06-23T07:48:11.000Z</time>
      </trkpt>
      <trkpt lat="44.11255" lon="6.31351">
        <ele>961.4</ele>
        <time>2019-06-23T07:48:14.000Z</time>
      </trkpt>
      <trkpt lat="44.11255" lon="6.3137">
        <ele>960.8</ele>
        <time>2019-06-23T07:48:17.000Z</time>
      </trkpt>
      <trkpt lat="44.11258" lon="6.31388">
        <ele>959.8</ele>
        <time>2019-06-23T07:48:19.000Z</time>
      </trkpt>
      <trkpt lat="44.11257" lon="6.31396">
        <ele>959</ele>
        <time>2019-06-23T07:48:20.000Z</time>
      </trkpt>
      <trkpt lat="44.11255" lon="6.31401">
        <ele>958.6</ele>
        <time>2019-06-23T07:48:21.000Z</time>
      </trkpt>
      <trkpt lat="44.11248" lon="6.31411">
        <ele>958.6</ele>
        <time>2019-06-23T07:48:24.000Z</time>
      </trkpt>
      <trkpt lat="44.11243" lon="6.3142">
        <ele>960.4</ele>
        <time>2019-06-23T07:48:27.000Z</time>
      </trkpt>
      <trkpt lat="44.11241" lon="6.31427">
        <ele>961.8</ele>
        <time>2019-06-23T07:48:29.000Z</time>
      </trkpt>
      <trkpt lat="44.11239" lon="6.3143">
        <ele>962.2</ele>
        <time>2019-06-23T07:48:30.000Z</time>
      </trkpt>
      <trkpt lat="44.11237" lon="6.31437">
        <ele>963.2</ele>
        <time>2019-06-23T07:48:32.000Z</time>
      </trkpt>
      <trkpt lat="44.11235" lon="6.31441">
        <ele>963.8</ele>
        <time>2019-06-23T07:48:34.000Z</time>
      </trkpt>
      <trkpt lat="44.1123" lon="6.31443">
        <ele>965.2</ele>
        <time>2019-06-23T07:49:06.000Z</time>
        <extensions>
          <visugpx:TrkExtension xmlns:visugpx="https://www.visugpx.com/editgpx/">
            <visugpx:node>1</visugpx:node>
            </visugpx:TrkExtension>
        </extensions>
      </trkpt>
      <trkpt lat="44.11228" lon="6.31437">
        <ele>965.6</ele>
        <time>2019-06-23T07:49:08.000Z</time>
      </trkpt>
      <trkpt lat="44.11227" lon="6.31434">
        <ele>965.6</ele>
        <time>2019-06-23T07:49:09.000Z</time>
      </trkpt>
      <trkpt lat="44.11224" lon="6.3143">
        <ele>965.8</ele>
        <time>2019-06-23T07:49:11.000Z</time>
      </trkpt>
      <trkpt lat="44.11222" lon="6.31428">
        <ele>966</ele>
        <time>2019-06-23T07:49:12.000Z</time>
      </trkpt>
      <trkpt lat="44.11217" lon="6.31422">
        <ele>966.2</ele>
        <time>2019-06-23T07:49:15.000Z</time>
      </trkpt>
      <trkpt lat="44.11213" lon="6.31419">
        <ele>966.8</ele>
        <time>2019-06-23T07:49:17.000Z</time>
      </trkpt>
      <trkpt lat="44.11205" lon="6.3141">
        <ele>967.8</ele>
        <time>2019-06-23T07:49:22.000Z</time>
      </trkpt>
      <trkpt lat="44.11203" lon="6.31408">
        <ele>968</ele>
        <time>2019-06-23T07:49:23.000Z</time>
      </trkpt>
      <trkpt lat="44.11195" lon="6.31399">
        <ele>968</ele>
        <time>2019-06-23T07:49:28.000Z</time>
      </trkpt>
      <trkpt lat="44.11189" lon="6.31393">
        <ele>968.8</ele>
        <time>2019-06-23T07:49:32.000Z</time>
      </trkpt>
      <trkpt lat="44.11188" lon="6.3139">
        <ele>969</ele>
        <time>2019-06-23T07:49:33.000Z</time>
      </trkpt>
      <trkpt lat="44.11185" lon="6.31384">
        <ele>969.8</ele>
        <time>2019-06-23T07:49:36.000Z</time>
      </trkpt>
      <trkpt lat="44.11184" lon="6.31382">
        <ele>970.2</ele>
        <time>2019-06-23T07:49:37.000Z</time>
      </trkpt>
      <trkpt lat="44.11183" lon="6.31378">
        <ele>970.6</ele>
        <time>2019-06-23T07:49:39.000Z</time>
      </trkpt>
      <trkpt lat="44.11176" lon="6.31364">
        <ele>971.4</ele>
        <time>2019-06-23T07:49:46.000Z</time>
      </trkpt>
      <trkpt lat="44.11174" lon="6.3136">
        <ele>971.6</ele>
        <time>2019-06-23T07:49:48.000Z</time>
      </trkpt>
      <trkpt lat="44.11172" lon="6.31357">
        <ele>972.2</ele>
        <time>2019-06-23T07:49:50.000Z</time>
      </trkpt>
      <trkpt lat="44.11171" lon="6.31355">
        <ele>972.6</ele>
        <time>2019-06-23T07:49:51.000Z</time>
      </trkpt>
      <trkpt lat="44.11165" lon="6.3135">
        <ele>973.8</ele>
        <time>2019-06-23T07:49:55.000Z</time>
      </trkpt>
      <trkpt lat="44.1116" lon="6.31347">
        <ele>974.4</ele>
        <time>2019-06-23T07:49:58.000Z</time>
      </trkpt>
      <trkpt lat="44.11149" lon="6.31343">
        <ele>974.8</ele>
        <time>2019-06-23T07:50:04.000Z</time>
      </trkpt>
      <trkpt lat="44.11146" lon="6.31343">
        <ele>975</ele>
        <time>2019-06-23T07:50:06.000Z</time>
      </trkpt>
      <trkpt lat="44.11142" lon="6.31342">
        <ele>975.8</ele>
        <time>2019-06-23T07:50:08.000Z</time>
      </trkpt>
      <trkpt lat="44.11141" lon="6.31341">
        <ele>976</ele>
        <time>2019-06-23T07:50:09.000Z</time>
      </trkpt>
      <trkpt lat="44.11134" lon="6.31335">
        <ele>976.4</ele>
        <time>2019-06-23T07:50:14.000Z</time>
      </trkpt>
      <trkpt lat="44.11131" lon="6.31332">
        <ele>977</ele>
        <time>2019-06-23T07:50:16.000Z</time>
      </trkpt>
      <trkpt lat="44.11125" lon="6.31319">
        <ele>978.2</ele>
        <time>2019-06-23T07:50:22.000Z</time>
      </trkpt>
      <trkpt lat="44.11119" lon="6.31305">
        <ele>979.4</ele>
        <time>2019-06-23T07:50:28.000Z</time>
      </trkpt>
      <trkpt lat="44.11117" lon="6.31301">
        <ele>979.6</ele>
        <time>2019-06-23T07:50:30.000Z</time>
      </trkpt>
      <trkpt lat="44.1111" lon="6.3128">
        <ele>980.2</ele>
        <time>2019-06-23T07:50:38.000Z</time>
      </trkpt>
      <trkpt lat="44.11109" lon="6.31274">
        <ele>980.4</ele>
        <time>2019-06-23T07:50:40.000Z</time>
      </trkpt>
      <trkpt lat="44.1111" lon="6.31261">
        <ele>980.8</ele>
        <time>2019-06-23T07:50:44.000Z</time>
      </trkpt>
      <trkpt lat="44.1111" lon="6.31255">
        <ele>981</ele>
        <time>2019-06-23T07:50:46.000Z</time>
      </trkpt>
      <trkpt lat="44.11111" lon="6.31248">
        <ele>981.8</ele>
        <time>2019-06-23T07:50:48.000Z</time>
      </trkpt>
      <trkpt lat="44.1111" lon="6.31239">
        <ele>983</ele>
        <time>2019-06-23T07:50:51.000Z</time>
      </trkpt>
      <trkpt lat="44.11109" lon="6.31233">
        <ele>983.4</ele>
        <time>2019-06-23T07:50:53.000Z</time>
      </trkpt>
      <trkpt lat="44.11107" lon="6.31221">
        <ele>984</ele>
        <time>2019-06-23T07:50:57.000Z</time>
      </trkpt>
      <trkpt lat="44.11105" lon="6.31215">
        <ele>984.4</ele>
        <time>2019-06-23T07:50:59.000Z</time>
      </trkpt>
      <trkpt lat="44.11104" lon="6.3121">
        <ele>985</ele>
        <time>2019-06-23T07:51:01.000Z</time>
      </trkpt>
      <trkpt lat="44.11098" lon="6.31201">
        <ele>986</ele>
        <time>2019-06-23T07:51:05.000Z</time>
      </trkpt>
      <trkpt lat="44.11096" lon="6.31199">
        <ele>986.2</ele>
        <time>2019-06-23T07:51:06.000Z</time>
      </trkpt>
      <trkpt lat="44.11086" lon="6.31196">
        <ele>986.6</ele>
        <time>2019-06-23T07:51:11.000Z</time>
      </trkpt>
      <trkpt lat="44.11077" lon="6.31203">
        <ele>987.2</ele>
        <time>2019-06-23T07:51:16.000Z</time>
      </trkpt>
      <trkpt lat="44.11075" lon="6.31205">
        <ele>987.4</ele>
        <time>2019-06-23T07:51:17.000Z</time>
      </trkpt>
      <trkpt lat="44.1107" lon="6.3121">
        <ele>987.6</ele>
        <time>2019-06-23T07:51:20.000Z</time>
      </trkpt>
      <trkpt lat="44.11066" lon="6.31215">
        <ele>988.4</ele>
        <time>2019-06-23T07:51:23.000Z</time>
      </trkpt>
      <trkpt lat="44.11064" lon="6.31218">
        <ele>988.6</ele>
        <time>2019-06-23T07:51:24.000Z</time>
      </trkpt>
      <trkpt lat="44.11056" lon="6.31225">
        <ele>989.4</ele>
        <time>2019-06-23T07:51:28.000Z</time>
      </trkpt>
      <trkpt lat="44.11051" lon="6.3123">
        <ele>990.6</ele>
        <time>2019-06-23T07:51:31.000Z</time>
      </trkpt>
      <trkpt lat="44.11049" lon="6.31231">
        <ele>990.8</ele>
        <time>2019-06-23T07:51:32.000Z</time>
      </trkpt>
      <trkpt lat="44.1104" lon="6.31238">
        <ele>991.6</ele>
        <time>2019-06-23T07:51:37.000Z</time>
      </trkpt>
      <trkpt lat="44.11036" lon="6.3124">
        <ele>992.2</ele>
        <time>2019-06-23T07:51:39.000Z</time>
      </trkpt>
      <trkpt lat="44.11031" lon="6.31241">
        <ele>992.6</ele>
        <time>2019-06-23T07:51:42.000Z</time>
      </trkpt>
      <trkpt lat="44.11022" lon="6.31245">
        <ele>993.2</ele>
        <time>2019-06-23T07:51:46.000Z</time>
      </trkpt>
      <trkpt lat="44.11014" lon="6.31248">
        <ele>993.6</ele>
        <time>2019-06-23T07:51:50.000Z</time>
      </trkpt>
      <trkpt lat="44.11006" lon="6.31252">
        <ele>994.8</ele>
        <time>2019-06-23T07:51:54.000Z</time>
      </trkpt>
      <trkpt lat="44.11004" lon="6.31252">
        <ele>995.2</ele>
        <time>2019-06-23T07:51:55.000Z</time>
      </trkpt>
      <trkpt lat="44.10999" lon="6.31252">
        <ele>996</ele>
        <time>2019-06-23T07:51:57.000Z</time>
      </trkpt>
      <trkpt lat="44.10985" lon="6.3125">
        <ele>996.8</ele>
        <time>2019-06-23T07:52:03.000Z</time>
      </trkpt>
      <trkpt lat="44.10982" lon="6.31248">
        <ele>997.2</ele>
        <time>2019-06-23T07:52:05.000Z</time>
      </trkpt>
      <trkpt lat="44.10973" lon="6.3124">
        <ele>998.2</ele>
        <time>2019-06-23T07:52:10.000Z</time>
      </trkpt>
      <trkpt lat="44.10971" lon="6.31236">
        <ele>998.8</ele>
        <time>2019-06-23T07:52:12.000Z</time>
      </trkpt>
      <trkpt lat="44.10968" lon="6.31232">
        <ele>999.2</ele>
        <time>2019-06-23T07:52:14.000Z</time>
      </trkpt>
      <trkpt lat="44.1096" lon="6.31222">
        <ele>999.6</ele>
        <time>2019-06-23T07:52:19.000Z</time>
      </trkpt>
      <trkpt lat="44.10958" lon="6.31217">
        <ele>1000.4</ele>
        <time>2019-06-23T07:52:21.000Z</time>
      </trkpt>
      <trkpt lat="44.1095" lon="6.31204">
        <ele>1001.6</ele>
        <time>2019-06-23T07:52:27.000Z</time>
      </trkpt>
      <trkpt lat="44.10946" lon="6.31198">
        <ele>1002.6</ele>
        <time>2019-06-23T07:52:30.000Z</time>
      </trkpt>
      <trkpt lat="44.10945" lon="6.31196">
        <ele>1002.8</ele>
        <time>2019-06-23T07:52:31.000Z</time>
      </trkpt>
      <trkpt lat="44.1094" lon="6.31187">
        <ele>1003.8</ele>
        <time>2019-06-23T07:52:35.000Z</time>
      </trkpt>
      <trkpt lat="44.10932" lon="6.31172">
        <ele>1005</ele>
        <time>2019-06-23T07:52:41.000Z</time>
      </trkpt>
      <trkpt lat="44.10926" lon="6.31156">
        <ele>1006.2</ele>
        <time>2019-06-23T07:52:47.000Z</time>
      </trkpt>
      <trkpt lat="44.10922" lon="6.31146">
        <ele>1006.8</ele>
        <time>2019-06-23T07:52:51.000Z</time>
      </trkpt>
      <trkpt lat="44.10919" lon="6.31138">
        <ele>1007.2</ele>
        <time>2019-06-23T07:52:54.000Z</time>
      </trkpt>
      <trkpt lat="44.10914" lon="6.31128">
        <ele>1008.4</ele>
        <time>2019-06-23T07:52:58.000Z</time>
      </trkpt>
      <trkpt lat="44.10911" lon="6.31122">
        <ele>1008.6</ele>
        <time>2019-06-23T07:53:00.000Z</time>
      </trkpt>
      <trkpt lat="44.10905" lon="6.31109">
        <ele>1009.4</ele>
        <time>2019-06-23T07:53:05.000Z</time>
      </trkpt>
      <trkpt lat="44.10901" lon="6.31099">
        <ele>1010.4</ele>
        <time>2019-06-23T07:53:09.000Z</time>
      </trkpt>
      <trkpt lat="44.10899" lon="6.31097">
        <ele>1010.8</ele>
        <time>2019-06-23T07:53:10.000Z</time>
      </trkpt>
      <trkpt lat="44.10892" lon="6.31084">
        <ele>1011.6</ele>
        <time>2019-06-23T07:53:15.000Z</time>
      </trkpt>
      <trkpt lat="44.10887" lon="6.3107">
        <ele>1012.6</ele>
        <time>2019-06-23T07:53:20.000Z</time>
      </trkpt>
      <trkpt lat="44.10886" lon="6.31068">
        <ele>1012.6</ele>
        <time>2019-06-23T07:53:21.000Z</time>
      </trkpt>
      <trkpt lat="44.10881" lon="6.3105">
        <ele>1013.6</ele>
        <time>2019-06-23T07:53:27.000Z</time>
      </trkpt>
      <trkpt lat="44.1088" lon="6.31047">
        <ele>1013.8</ele>
        <time>2019-06-23T07:53:28.000Z</time>
      </trkpt>
      <trkpt lat="44.10869" lon="6.3103">
        <ele>1014.8</ele>
        <time>2019-06-23T07:53:35.000Z</time>
      </trkpt>
      <trkpt lat="44.10866" lon="6.3103">
        <ele>1014.8</ele>
        <time>2019-06-23T07:53:36.000Z</time>
      </trkpt>
      <trkpt lat="44.10858" lon="6.31034">
        <ele>1015</ele>
        <time>2019-06-23T07:53:40.000Z</time>
      </trkpt>
      <trkpt lat="44.10858" lon="6.31048">
        <ele>1015.2</ele>
        <time>2019-06-23T07:53:44.000Z</time>
      </trkpt>
      <trkpt lat="44.10861" lon="6.31062">
        <ele>1015.8</ele>
        <time>2019-06-23T07:53:48.000Z</time>
      </trkpt>
      <trkpt lat="44.10861" lon="6.3107">
        <ele>1016.2</ele>
        <time>2019-06-23T07:53:50.000Z</time>
      </trkpt>
      <trkpt lat="44.10862" lon="6.3108">
        <ele>1017</ele>
        <time>2019-06-23T07:53:53.000Z</time>
      </trkpt>
      <trkpt lat="44.10863" lon="6.31093">
        <ele>1017.8</ele>
        <time>2019-06-23T07:53:57.000Z</time>
      </trkpt>
      <trkpt lat="44.10863" lon="6.31096">
        <ele>1018</ele>
        <time>2019-06-23T07:53:58.000Z</time>
      </trkpt>
      <trkpt lat="44.10864" lon="6.31108">
        <ele>1018.4</ele>
        <time>2019-06-23T07:54:02.000Z</time>
      </trkpt>
      <trkpt lat="44.10864" lon="6.31116">
        <ele>1018.8</ele>
        <time>2019-06-23T07:54:05.000Z</time>
      </trkpt>
      <trkpt lat="44.10863" lon="6.31121">
        <ele>1019</ele>
        <time>2019-06-23T07:54:07.000Z</time>
      </trkpt>
      <trkpt lat="44.10862" lon="6.31136">
        <ele>1020.4</ele>
        <time>2019-06-23T07:54:12.000Z</time>
      </trkpt>
      <trkpt lat="44.10862" lon="6.31142">
        <ele>1021</ele>
        <time>2019-06-23T07:54:14.000Z</time>
      </trkpt>
      <trkpt lat="44.10862" lon="6.31145">
        <ele>1021.2</ele>
        <time>2019-06-23T07:54:15.000Z</time>
      </trkpt>
      <trkpt lat="44.10862" lon="6.31148">
        <ele>1021.4</ele>
        <time>2019-06-23T07:54:16.000Z</time>
      </trkpt>
      <trkpt lat="44.10861" lon="6.31154">
        <ele>1022.4</ele>
        <time>2019-06-23T07:54:18.000Z</time>
      </trkpt>
      <trkpt lat="44.10862" lon="6.31165">
        <ele>1023.4</ele>
        <time>2019-06-23T07:54:22.000Z</time>
      </trkpt>
      <trkpt lat="44.10862" lon="6.31168">
        <ele>1023.6</ele>
        <time>2019-06-23T07:54:23.000Z</time>
      </trkpt>
      <trkpt lat="44.10865" lon="6.31183">
        <ele>1024.8</ele>
        <time>2019-06-23T07:54:28.000Z</time>
      </trkpt>
      <trkpt lat="44.10867" lon="6.31188">
        <ele>1025.2</ele>
        <time>2019-06-23T07:54:30.000Z</time>
      </trkpt>
      <trkpt lat="44.10872" lon="6.31198">
        <ele>1026</ele>
        <time>2019-06-23T07:54:34.000Z</time>
      </trkpt>
      <trkpt lat="44.10876" lon="6.31209">
        <ele>1027</ele>
        <time>2019-06-23T07:54:38.000Z</time>
      </trkpt>
      <trkpt lat="44.10877" lon="6.31213">
        <ele>1027.2</ele>
        <time>2019-06-23T07:54:39.000Z</time>
      </trkpt>
      <trkpt lat="44.10878" lon="6.31224">
        <ele>1028</ele>
        <time>2019-06-23T07:54:43.000Z</time>
      </trkpt>
      <trkpt lat="44.10878" lon="6.31233">
        <ele>1028.6</ele>
        <time>2019-06-23T07:54:46.000Z</time>
      </trkpt>
      <trkpt lat="44.10879" lon="6.31239">
        <ele>1029.2</ele>
        <time>2019-06-23T07:54:48.000Z</time>
      </trkpt>
      <trkpt lat="44.10879" lon="6.31254">
        <ele>1030</ele>
        <time>2019-06-23T07:54:53.000Z</time>
      </trkpt>
      <trkpt lat="44.10879" lon="6.31257">
        <ele>1030.4</ele>
        <time>2019-06-23T07:54:54.000Z</time>
      </trkpt>
      <trkpt lat="44.10879" lon="6.31282">
        <ele>1031.4</ele>
        <time>2019-06-23T07:55:02.000Z</time>
      </trkpt>
      <trkpt lat="44.10878" lon="6.31286">
        <ele>1031.6</ele>
        <time>2019-06-23T07:55:03.000Z</time>
      </trkpt>
      <trkpt lat="44.10878" lon="6.31301">
        <ele>1033</ele>
        <time>2019-06-23T07:55:08.000Z</time>
      </trkpt>
      <trkpt lat="44.10877" lon="6.31314">
        <ele>1034</ele>
        <time>2019-06-23T07:55:12.000Z</time>
      </trkpt>
      <trkpt lat="44.10877" lon="6.31317">
        <ele>1034.2</ele>
        <time>2019-06-23T07:55:13.000Z</time>
      </trkpt>
      <trkpt lat="44.10878" lon="6.31334">
        <ele>1035.2</ele>
        <time>2019-06-23T07:55:18.000Z</time>
      </trkpt>
      <trkpt lat="44.10877" lon="6.31346">
        <ele>1035.6</ele>
        <time>2019-06-23T07:55:22.000Z</time>
      </trkpt>
      <trkpt lat="44.10876" lon="6.31358">
        <ele>1036.2</ele>
        <time>2019-06-23T07:55:26.000Z</time>
      </trkpt>
      <trkpt lat="44.10873" lon="6.31372">
        <ele>1036.8</ele>
        <time>2019-06-23T07:55:30.000Z</time>
      </trkpt>
      <trkpt lat="44.1087" lon="6.31384">
        <ele>1037.4</ele>
        <time>2019-06-23T07:55:34.000Z</time>
      </trkpt>
      <trkpt lat="44.10869" lon="6.31397">
        <ele>1038.6</ele>
        <time>2019-06-23T07:55:38.000Z</time>
      </trkpt>
      <trkpt lat="44.10869" lon="6.314">
        <ele>1038.8</ele>
        <time>2019-06-23T07:55:39.000Z</time>
      </trkpt>
      <trkpt lat="44.10869" lon="6.31416">
        <ele>1040</ele>
        <time>2019-06-23T07:55:44.000Z</time>
      </trkpt>
      <trkpt lat="44.10869" lon="6.31425">
        <ele>1040.6</ele>
        <time>2019-06-23T07:55:47.000Z</time>
      </trkpt>
      <trkpt lat="44.1087" lon="6.31431">
        <ele>1040.8</ele>
        <time>2019-06-23T07:55:49.000Z</time>
      </trkpt>
      <trkpt lat="44.1087" lon="6.31434">
        <ele>1041</ele>
        <time>2019-06-23T07:55:50.000Z</time>
      </trkpt>
      <trkpt lat="44.10871" lon="6.31444">
        <ele>1042</ele>
        <time>2019-06-23T07:55:53.000Z</time>
      </trkpt>
      <trkpt lat="44.10871" lon="6.31457">
        <ele>1042.8</ele>
        <time>2019-06-23T07:55:57.000Z</time>
      </trkpt>
      <trkpt lat="44.10871" lon="6.3146">
        <ele>1043</ele>
        <time>2019-06-23T07:55:58.000Z</time>
      </trkpt>
      <trkpt lat="44.10868" lon="6.3148">
        <ele>1044.2</ele>
        <time>2019-06-23T07:56:04.000Z</time>
      </trkpt>
      <trkpt lat="44.10866" lon="6.31492">
        <ele>1045.2</ele>
        <time>2019-06-23T07:56:08.000Z</time>
      </trkpt>
      <trkpt lat="44.10865" lon="6.31504">
        <ele>1046.2</ele>
        <time>2019-06-23T07:56:12.000Z</time>
      </trkpt>
      <trkpt lat="44.10864" lon="6.31507">
        <ele>1046.4</ele>
        <time>2019-06-23T07:56:13.000Z</time>
      </trkpt>
      <trkpt lat="44.10865" lon="6.31513">
        <ele>1046.4</ele>
        <time>2019-06-23T07:56:15.000Z</time>
      </trkpt>
      <trkpt lat="44.10865" lon="6.31522">
        <ele>1047.4</ele>
        <time>2019-06-23T07:56:18.000Z</time>
      </trkpt>
      <trkpt lat="44.10865" lon="6.31532">
        <ele>1048.4</ele>
        <time>2019-06-23T07:56:21.000Z</time>
      </trkpt>
      <trkpt lat="44.10865" lon="6.31535">
        <ele>1048.4</ele>
        <time>2019-06-23T07:56:22.000Z</time>
      </trkpt>
      <trkpt lat="44.10868" lon="6.31554">
        <ele>1049.4</ele>
        <time>2019-06-23T07:56:28.000Z</time>
      </trkpt>
      <trkpt lat="44.10868" lon="6.31557">
        <ele>1049.6</ele>
        <time>2019-06-23T07:56:29.000Z</time>
      </trkpt>
      <trkpt lat="44.1087" lon="6.31565">
        <ele>1050</ele>
        <time>2019-06-23T07:56:32.000Z</time>
      </trkpt>
      <trkpt lat="44.10871" lon="6.31571">
        <ele>1050.8</ele>
        <time>2019-06-23T07:56:34.000Z</time>
      </trkpt>
      <trkpt lat="44.10874" lon="6.31582">
        <ele>1051.8</ele>
        <time>2019-06-23T07:56:38.000Z</time>
      </trkpt>
      <trkpt lat="44.10875" lon="6.31585">
        <ele>1051.8</ele>
        <time>2019-06-23T07:56:39.000Z</time>
      </trkpt>
      <trkpt lat="44.10877" lon="6.31601">
        <ele>1053</ele>
        <time>2019-06-23T07:56:44.000Z</time>
      </trkpt>
      <trkpt lat="44.10879" lon="6.3161">
        <ele>1053</ele>
        <time>2019-06-23T07:56:47.000Z</time>
      </trkpt>
      <trkpt lat="44.1088" lon="6.31617">
        <ele>1053.4</ele>
        <time>2019-06-23T07:56:49.000Z</time>
      </trkpt>
      <trkpt lat="44.10881" lon="6.31623">
        <ele>1054.2</ele>
        <time>2019-06-23T07:56:51.000Z</time>
      </trkpt>
      <trkpt lat="44.10883" lon="6.31631">
        <ele>1055.2</ele>
        <time>2019-06-23T07:56:54.000Z</time>
      </trkpt>
      <trkpt lat="44.10885" lon="6.31642">
        <ele>1055.8</ele>
        <time>2019-06-23T07:56:58.000Z</time>
      </trkpt>
      <trkpt lat="44.10887" lon="6.31648">
        <ele>1056.2</ele>
        <time>2019-06-23T07:57:00.000Z</time>
      </trkpt>
      <trkpt lat="44.10891" lon="6.31661">
        <ele>1057.4</ele>
        <time>2019-06-23T07:57:05.000Z</time>
      </trkpt>
      <trkpt lat="44.10893" lon="6.31667">
        <ele>1058.2</ele>
        <time>2019-06-23T07:57:07.000Z</time>
      </trkpt>
      <trkpt lat="44.10895" lon="6.31672">
        <ele>1058.6</ele>
        <time>2019-06-23T07:57:09.000Z</time>
      </trkpt>
      <trkpt lat="44.10899" lon="6.31687">
        <ele>1059.8</ele>
        <time>2019-06-23T07:57:14.000Z</time>
      </trkpt>
      <trkpt lat="44.109" lon="6.3169">
        <ele>1059.8</ele>
        <time>2019-06-23T07:57:15.000Z</time>
      </trkpt>
      <trkpt lat="44.10903" lon="6.31701">
        <ele>1060.8</ele>
        <time>2019-06-23T07:57:19.000Z</time>
      </trkpt>
      <trkpt lat="44.10906" lon="6.31712">
        <ele>1061.4</ele>
        <time>2019-06-23T07:57:23.000Z</time>
      </trkpt>
      <trkpt lat="44.10906" lon="6.31715">
        <ele>1061.8</ele>
        <time>2019-06-23T07:57:24.000Z</time>
      </trkpt>
      <trkpt lat="44.10909" lon="6.31726">
        <ele>1063.2</ele>
        <time>2019-06-23T07:57:28.000Z</time>
      </trkpt>
      <trkpt lat="44.10911" lon="6.31735">
        <ele>1063.6</ele>
        <time>2019-06-23T07:57:31.000Z</time>
      </trkpt>
      <trkpt lat="44.10912" lon="6.31747">
        <ele>1064.4</ele>
        <time>2019-06-23T07:57:35.000Z</time>
      </trkpt>
      <trkpt lat="44.10914" lon="6.31761">
        <ele>1065.4</ele>
        <time>2019-06-23T07:57:40.000Z</time>
      </trkpt>
      <trkpt lat="44.10914" lon="6.31767">
        <ele>1065.6</ele>
        <time>2019-06-23T07:57:42.000Z</time>
      </trkpt>
      <trkpt lat="44.10913" lon="6.31779">
        <ele>1066.6</ele>
        <time>2019-06-23T07:57:46.000Z</time>
      </trkpt>
      <trkpt lat="44.1091" lon="6.31789">
        <ele>1067.8</ele>
        <time>2019-06-23T07:57:50.000Z</time>
      </trkpt>
      <trkpt lat="44.10908" lon="6.31797">
        <ele>1068.6</ele>
        <time>2019-06-23T07:57:53.000Z</time>
      </trkpt>
      <trkpt lat="44.10907" lon="6.31799">
        <ele>1068.8</ele>
        <time>2019-06-23T07:57:54.000Z</time>
      </trkpt>
      <trkpt lat="44.10903" lon="6.3181">
        <ele>1069.6</ele>
        <time>2019-06-23T07:57:58.000Z</time>
      </trkpt>
      <trkpt lat="44.10903" lon="6.31813">
        <ele>1070</ele>
        <time>2019-06-23T07:57:59.000Z</time>
      </trkpt>
      <trkpt lat="44.10901" lon="6.31826">
        <ele>1071.2</ele>
        <time>2019-06-23T07:58:03.000Z</time>
      </trkpt>
      <trkpt lat="44.109" lon="6.3184">
        <ele>1072.6</ele>
        <time>2019-06-23T07:58:08.000Z</time>
      </trkpt>
      <trkpt lat="44.10899" lon="6.31849">
        <ele>1073.8</ele>
        <time>2019-06-23T07:58:11.000Z</time>
      </trkpt>
      <trkpt lat="44.10899" lon="6.31852">
        <ele>1074</ele>
        <time>2019-06-23T07:58:12.000Z</time>
      </trkpt>
      <trkpt lat="44.10897" lon="6.3186">
        <ele>1074.8</ele>
        <time>2019-06-23T07:58:15.000Z</time>
      </trkpt>
      <trkpt lat="44.10894" lon="6.31872">
        <ele>1076</ele>
        <time>2019-06-23T07:58:19.000Z</time>
      </trkpt>
      <trkpt lat="44.10892" lon="6.31877">
        <ele>1076.4</ele>
        <time>2019-06-23T07:58:21.000Z</time>
      </trkpt>
      <trkpt lat="44.10887" lon="6.31891">
        <ele>1076.8</ele>
        <time>2019-06-23T07:58:26.000Z</time>
      </trkpt>
      <trkpt lat="44.10887" lon="6.31894">
        <ele>1077.2</ele>
        <time>2019-06-23T07:58:27.000Z</time>
      </trkpt>
      <trkpt lat="44.10885" lon="6.31902">
        <ele>1078</ele>
        <time>2019-06-23T07:58:30.000Z</time>
      </trkpt>
      <trkpt lat="44.10884" lon="6.31905">
        <ele>1078.2</ele>
        <time>2019-06-23T07:58:31.000Z</time>
      </trkpt>
      <trkpt lat="44.10883" lon="6.31914">
        <ele>1079.4</ele>
        <time>2019-06-23T07:58:34.000Z</time>
      </trkpt>
      <trkpt lat="44.1088" lon="6.31928">
        <ele>1080.4</ele>
        <time>2019-06-23T07:58:39.000Z</time>
      </trkpt>
      <trkpt lat="44.10879" lon="6.3193">
        <ele>1080.6</ele>
        <time>2019-06-23T07:58:40.000Z</time>
      </trkpt>
      <trkpt lat="44.10875" lon="6.31944">
        <ele>1081.8</ele>
        <time>2019-06-23T07:58:45.000Z</time>
      </trkpt>
      <trkpt lat="44.10872" lon="6.31952">
        <ele>1083.2</ele>
        <time>2019-06-23T07:58:48.000Z</time>
      </trkpt>
      <trkpt lat="44.10871" lon="6.31954">
        <ele>1083.6</ele>
        <time>2019-06-23T07:58:49.000Z</time>
      </trkpt>
      <trkpt lat="44.10867" lon="6.31966">
        <ele>1084.2</ele>
        <time>2019-06-23T07:58:53.000Z</time>
      </trkpt>
      <trkpt lat="44.10861" lon="6.31983">
        <ele>1085.2</ele>
        <time>2019-06-23T07:58:59.000Z</time>
      </trkpt>
      <trkpt lat="44.10858" lon="6.31987">
        <ele>1086</ele>
        <time>2019-06-23T07:59:01.000Z</time>
      </trkpt>
      <trkpt lat="44.10856" lon="6.31992">
        <ele>1086.4</ele>
        <time>2019-06-23T07:59:03.000Z</time>
      </trkpt>
      <trkpt lat="44.10854" lon="6.31998">
        <ele>1087.2</ele>
        <time>2019-06-23T07:59:05.000Z</time>
      </trkpt>
      <trkpt lat="44.10853" lon="6.32003">
        <ele>1087.6</ele>
        <time>2019-06-23T07:59:07.000Z</time>
      </trkpt>
      <trkpt lat="44.10852" lon="6.32006">
        <ele>1087.8</ele>
        <time>2019-06-23T07:59:08.000Z</time>
      </trkpt>
      <trkpt lat="44.10848" lon="6.32022">
        <ele>1088.6</ele>
        <time>2019-06-23T07:59:13.000Z</time>
      </trkpt>
      <trkpt lat="44.10845" lon="6.32035">
        <ele>1089.8</ele>
        <time>2019-06-23T07:59:17.000Z</time>
      </trkpt>
      <trkpt lat="44.10845" lon="6.32039">
        <ele>1090</ele>
        <time>2019-06-23T07:59:18.000Z</time>
      </trkpt>
      <trkpt lat="44.10844" lon="6.32055">
        <ele>1090.8</ele>
        <time>2019-06-23T07:59:23.000Z</time>
      </trkpt>
      <trkpt lat="44.10843" lon="6.32057">
        <ele>1091.2</ele>
        <time>2019-06-23T07:59:24.000Z</time>
      </trkpt>
      <trkpt lat="44.10842" lon="6.32064">
        <ele>1091.8</ele>
        <time>2019-06-23T07:59:26.000Z</time>
      </trkpt>
      <trkpt lat="44.10841" lon="6.32076">
        <ele>1093</ele>
        <time>2019-06-23T07:59:30.000Z</time>
      </trkpt>
      <trkpt lat="44.10841" lon="6.32082">
        <ele>1093.6</ele>
        <time>2019-06-23T07:59:32.000Z</time>
      </trkpt>
      <trkpt lat="44.10843" lon="6.32089">
        <ele>1093.8</ele>
        <time>2019-06-23T07:59:35.000Z</time>
      </trkpt>
      <trkpt lat="44.10847" lon="6.32092">
        <ele>1094.4</ele>
        <time>2019-06-23T07:59:37.000Z</time>
      </trkpt>
      <trkpt lat="44.10853" lon="6.32098">
        <ele>1095.4</ele>
        <time>2019-06-23T07:59:40.000Z</time>
      </trkpt>
      <trkpt lat="44.10861" lon="6.32106">
        <ele>1096.8</ele>
        <time>2019-06-23T07:59:44.000Z</time>
      </trkpt>
      <trkpt lat="44.10866" lon="6.32115">
        <ele>1098</ele>
        <time>2019-06-23T07:59:47.000Z</time>
      </trkpt>
      <trkpt lat="44.10867" lon="6.32118">
        <ele>1098.4</ele>
        <time>2019-06-23T07:59:48.000Z</time>
      </trkpt>
      <trkpt lat="44.10866" lon="6.32123">
        <ele>1098.4</ele>
        <time>2019-06-23T07:59:49.000Z</time>
      </trkpt>
      <trkpt lat="44.10863" lon="6.32128">
        <ele>1098.6</ele>
        <time>2019-06-23T07:59:51.000Z</time>
      </trkpt>
      <trkpt lat="44.10858" lon="6.3213">
        <ele>1098.8</ele>
        <time>2019-06-23T07:59:53.000Z</time>
      </trkpt>
      <trkpt lat="44.10845" lon="6.32129">
        <ele>1099</ele>
        <time>2019-06-23T07:59:58.000Z</time>
      </trkpt>
      <trkpt lat="44.10842" lon="6.32129">
        <ele>1099.2</ele>
        <time>2019-06-23T07:59:59.000Z</time>
      </trkpt>
      <trkpt lat="44.10833" lon="6.32127">
        <ele>1100.2</ele>
        <time>2019-06-23T08:00:02.000Z</time>
      </trkpt>
      <trkpt lat="44.10821" lon="6.32125">
        <ele>1101.2</ele>
        <time>2019-06-23T08:00:06.000Z</time>
      </trkpt>
      <trkpt lat="44.10816" lon="6.32122">
        <ele>1101.6</ele>
        <time>2019-06-23T08:00:08.000Z</time>
      </trkpt>
      <trkpt lat="44.10807" lon="6.32115">
        <ele>1102.2</ele>
        <time>2019-06-23T08:00:12.000Z</time>
      </trkpt>
      <trkpt lat="44.10801" lon="6.32108">
        <ele>1102.8</ele>
        <time>2019-06-23T08:00:15.000Z</time>
      </trkpt>
      <trkpt lat="44.10797" lon="6.32102">
        <ele>1103.4</ele>
        <time>2019-06-23T08:00:17.000Z</time>
      </trkpt>
      <trkpt lat="44.1079" lon="6.32092">
        <ele>1104.6</ele>
        <time>2019-06-23T08:00:21.000Z</time>
      </trkpt>
      <trkpt lat="44.10784" lon="6.32083">
        <ele>1105.4</ele>
        <time>2019-06-23T08:00:24.000Z</time>
      </trkpt>
      <trkpt lat="44.10781" lon="6.32078">
        <ele>1105.8</ele>
        <time>2019-06-23T08:00:26.000Z</time>
      </trkpt>
      <trkpt lat="44.10777" lon="6.32072">
        <ele>1107</ele>
        <time>2019-06-23T08:00:28.000Z</time>
      </trkpt>
      <trkpt lat="44.10771" lon="6.32064">
        <ele>1107.8</ele>
        <time>2019-06-23T08:00:31.000Z</time>
      </trkpt>
      <trkpt lat="44.10759" lon="6.32049">
        <ele>1108</ele>
        <time>2019-06-23T08:00:37.000Z</time>
      </trkpt>
      <trkpt lat="44.10752" lon="6.32044">
        <ele>1109.2</ele>
        <time>2019-06-23T08:00:40.000Z</time>
      </trkpt>
      <trkpt lat="44.10745" lon="6.32041">
        <ele>1110.2</ele>
        <time>2019-06-23T08:00:43.000Z</time>
      </trkpt>
      <trkpt lat="44.10738" lon="6.32042">
        <ele>1111</ele>
        <time>2019-06-23T08:00:46.000Z</time>
      </trkpt>
      <trkpt lat="44.10732" lon="6.32047">
        <ele>1111.4</ele>
        <time>2019-06-23T08:00:49.000Z</time>
      </trkpt>
      <trkpt lat="44.10726" lon="6.32054">
        <ele>1112</ele>
        <time>2019-06-23T08:00:52.000Z</time>
      </trkpt>
      <trkpt lat="44.10724" lon="6.32056">
        <ele>1112.4</ele>
        <time>2019-06-23T08:00:53.000Z</time>
      </trkpt>
      <trkpt lat="44.10716" lon="6.32066">
        <ele>1113.4</ele>
        <time>2019-06-23T08:00:57.000Z</time>
      </trkpt>
      <trkpt lat="44.10713" lon="6.32067">
        <ele>1113.6</ele>
        <time>2019-06-23T08:00:58.000Z</time>
      </trkpt>
      <trkpt lat="44.10705" lon="6.3207">
        <ele>1114.6</ele>
        <time>2019-06-23T08:01:01.000Z</time>
      </trkpt>
      <trkpt lat="44.10697" lon="6.32069">
        <ele>1115.4</ele>
        <time>2019-06-23T08:01:04.000Z</time>
      </trkpt>
      <trkpt lat="44.10694" lon="6.32068">
        <ele>1115.8</ele>
        <time>2019-06-23T08:01:05.000Z</time>
      </trkpt>
      <trkpt lat="44.10682" lon="6.32067">
        <ele>1116.8</ele>
        <time>2019-06-23T08:01:10.000Z</time>
      </trkpt>
      <trkpt lat="44.1068" lon="6.32068">
        <ele>1117</ele>
        <time>2019-06-23T08:01:11.000Z</time>
      </trkpt>
      <trkpt lat="44.10672" lon="6.32073">
        <ele>1118.4</ele>
        <time>2019-06-23T08:01:15.000Z</time>
      </trkpt>
      <trkpt lat="44.10665" lon="6.32078">
        <ele>1119</ele>
        <time>2019-06-23T08:01:18.000Z</time>
      </trkpt>
      <trkpt lat="44.10659" lon="6.32084">
        <ele>1119.6</ele>
        <time>2019-06-23T08:01:21.000Z</time>
      </trkpt>
      <trkpt lat="44.10652" lon="6.32092">
        <ele>1120.8</ele>
        <time>2019-06-23T08:01:25.000Z</time>
      </trkpt>
      <trkpt lat="44.10649" lon="6.32097">
        <ele>1121.2</ele>
        <time>2019-06-23T08:01:27.000Z</time>
      </trkpt>
      <trkpt lat="44.10646" lon="6.32101">
        <ele>1121.8</ele>
        <time>2019-06-23T08:01:29.000Z</time>
      </trkpt>
      <trkpt lat="44.10638" lon="6.32112">
        <ele>1123</ele>
        <time>2019-06-23T08:01:33.000Z</time>
      </trkpt>
      <trkpt lat="44.10634" lon="6.32117">
        <ele>1123.4</ele>
        <time>2019-06-23T08:01:35.000Z</time>
      </trkpt>
      <trkpt lat="44.10626" lon="6.32128">
        <ele>1124</ele>
        <time>2019-06-23T08:01:39.000Z</time>
      </trkpt>
      <trkpt lat="44.10626" lon="6.32131">
        <ele>1124.2</ele>
        <time>2019-06-23T08:01:40.000Z</time>
      </trkpt>
      <trkpt lat="44.10626" lon="6.32138">
        <ele>1124.8</ele>
        <time>2019-06-23T08:01:42.000Z</time>
      </trkpt>
      <trkpt lat="44.10628" lon="6.3214">
        <ele>1125.4</ele>
        <time>2019-06-23T08:01:43.000Z</time>
      </trkpt>
      <trkpt lat="44.10629" lon="6.32142">
        <ele>1125.8</ele>
        <time>2019-06-23T08:01:44.000Z</time>
      </trkpt>
      <trkpt lat="44.10642" lon="6.32158">
        <ele>1126.6</ele>
        <time>2019-06-23T08:01:51.000Z</time>
      </trkpt>
      <trkpt lat="44.10648" lon="6.32166">
        <ele>1127.6</ele>
        <time>2019-06-23T08:01:54.000Z</time>
      </trkpt>
      <trkpt lat="44.10653" lon="6.32179">
        <ele>1128.2</ele>
        <time>2019-06-23T08:01:58.000Z</time>
      </trkpt>
      <trkpt lat="44.10654" lon="6.3219">
        <ele>1128.8</ele>
        <time>2019-06-23T08:02:01.000Z</time>
      </trkpt>
      <trkpt lat="44.10656" lon="6.32204">
        <ele>1130</ele>
        <time>2019-06-23T08:02:05.000Z</time>
      </trkpt>
      <trkpt lat="44.10657" lon="6.32208">
        <ele>1130</ele>
        <time>2019-06-23T08:02:06.000Z</time>
      </trkpt>
      <trkpt lat="44.10661" lon="6.32222">
        <ele>1131</ele>
        <time>2019-06-23T08:02:10.000Z</time>
      </trkpt>
      <trkpt lat="44.10664" lon="6.32228">
        <ele>1131.8</ele>
        <time>2019-06-23T08:02:12.000Z</time>
      </trkpt>
      <trkpt lat="44.10665" lon="6.32234">
        <ele>1132.4</ele>
        <time>2019-06-23T08:02:14.000Z</time>
      </trkpt>
      <trkpt lat="44.1067" lon="6.32247">
        <ele>1133.6</ele>
        <time>2019-06-23T08:02:18.000Z</time>
      </trkpt>
      <trkpt lat="44.10673" lon="6.32254">
        <ele>1133.8</ele>
        <time>2019-06-23T08:02:20.000Z</time>
      </trkpt>
      <trkpt lat="44.10684" lon="6.32263">
        <ele>1134.4</ele>
        <time>2019-06-23T08:02:25.000Z</time>
      </trkpt>
      <trkpt lat="44.10686" lon="6.32264">
        <ele>1134.8</ele>
        <time>2019-06-23T08:02:26.000Z</time>
      </trkpt>
      <trkpt lat="44.10691" lon="6.32267">
        <ele>1136</ele>
        <time>2019-06-23T08:02:28.000Z</time>
      </trkpt>
      <trkpt lat="44.10698" lon="6.32271">
        <ele>1137</ele>
        <time>2019-06-23T08:02:31.000Z</time>
      </trkpt>
      <trkpt lat="44.10699" lon="6.32272">
        <ele>1137.4</ele>
        <time>2019-06-23T08:02:32.000Z</time>
      </trkpt>
      <trkpt lat="44.10708" lon="6.32281">
        <ele>1138</ele>
        <time>2019-06-23T08:02:36.000Z</time>
      </trkpt>
      <trkpt lat="44.10716" lon="6.32292">
        <ele>1138.6</ele>
        <time>2019-06-23T08:02:40.000Z</time>
      </trkpt>
      <trkpt lat="44.10719" lon="6.32298">
        <ele>1139.4</ele>
        <time>2019-06-23T08:02:42.000Z</time>
      </trkpt>
      <trkpt lat="44.10726" lon="6.32313">
        <ele>1140.2</ele>
        <time>2019-06-23T08:02:47.000Z</time>
      </trkpt>
      <trkpt lat="44.10727" lon="6.32316">
        <ele>1140.4</ele>
        <time>2019-06-23T08:02:48.000Z</time>
      </trkpt>
      <trkpt lat="44.10731" lon="6.32337">
        <ele>1141.6</ele>
        <time>2019-06-23T08:02:54.000Z</time>
      </trkpt>
      <trkpt lat="44.10732" lon="6.3234">
        <ele>1142</ele>
        <time>2019-06-23T08:02:55.000Z</time>
      </trkpt>
      <trkpt lat="44.10733" lon="6.32355">
        <ele>1142.8</ele>
        <time>2019-06-23T08:02:59.000Z</time>
      </trkpt>
      <trkpt lat="44.10734" lon="6.32364">
        <ele>1143.4</ele>
        <time>2019-06-23T08:03:02.000Z</time>
      </trkpt>
      <trkpt lat="44.10734" lon="6.32368">
        <ele>1144</ele>
        <time>2019-06-23T08:03:03.000Z</time>
      </trkpt>
      <trkpt lat="44.10735" lon="6.32382">
        <ele>1145</ele>
        <time>2019-06-23T08:03:07.000Z</time>
      </trkpt>
      <trkpt lat="44.10736" lon="6.32396">
        <ele>1146.2</ele>
        <time>2019-06-23T08:03:11.000Z</time>
      </trkpt>
      <trkpt lat="44.10737" lon="6.3241">
        <ele>1146.8</ele>
        <time>2019-06-23T08:03:15.000Z</time>
      </trkpt>
      <trkpt lat="44.10737" lon="6.32417">
        <ele>1147.2</ele>
        <time>2019-06-23T08:03:17.000Z</time>
      </trkpt>
      <trkpt lat="44.10737" lon="6.32427">
        <ele>1148.4</ele>
        <time>2019-06-23T08:03:20.000Z</time>
      </trkpt>
      <trkpt lat="44.10739" lon="6.32444">
        <ele>1149.4</ele>
        <time>2019-06-23T08:03:25.000Z</time>
      </trkpt>
      <trkpt lat="44.1074" lon="6.32454">
        <ele>1149.8</ele>
        <time>2019-06-23T08:03:28.000Z</time>
      </trkpt>
      <trkpt lat="44.10741" lon="6.32465">
        <ele>1150.4</ele>
        <time>2019-06-23T08:03:31.000Z</time>
      </trkpt>
      <trkpt lat="44.10745" lon="6.32479">
        <ele>1151.4</ele>
        <time>2019-06-23T08:03:35.000Z</time>
      </trkpt>
      <trkpt lat="44.10746" lon="6.32482">
        <ele>1151.6</ele>
        <time>2019-06-23T08:03:36.000Z</time>
      </trkpt>
      <trkpt lat="44.10751" lon="6.32492">
        <ele>1152.6</ele>
        <time>2019-06-23T08:03:39.000Z</time>
      </trkpt>
      <trkpt lat="44.10757" lon="6.32504">
        <ele>1153.2</ele>
        <time>2019-06-23T08:03:43.000Z</time>
      </trkpt>
      <trkpt lat="44.10761" lon="6.32513">
        <ele>1154</ele>
        <time>2019-06-23T08:03:46.000Z</time>
      </trkpt>
      <trkpt lat="44.10766" lon="6.32522">
        <ele>1155.2</ele>
        <time>2019-06-23T08:03:49.000Z</time>
      </trkpt>
      <trkpt lat="44.1077" lon="6.32526">
        <ele>1155.6</ele>
        <time>2019-06-23T08:03:51.000Z</time>
      </trkpt>
      <trkpt lat="44.10775" lon="6.32528">
        <ele>1156.2</ele>
        <time>2019-06-23T08:03:53.000Z</time>
      </trkpt>
      <trkpt lat="44.10782" lon="6.32526">
        <ele>1157.2</ele>
        <time>2019-06-23T08:03:56.000Z</time>
      </trkpt>
      <trkpt lat="44.1079" lon="6.32529">
        <ele>1158.2</ele>
        <time>2019-06-23T08:03:59.000Z</time>
      </trkpt>
      <trkpt lat="44.10792" lon="6.32533">
        <ele>1158.4</ele>
        <time>2019-06-23T08:04:00.000Z</time>
      </trkpt>
      <trkpt lat="44.10792" lon="6.32537">
        <ele>1158.6</ele>
        <time>2019-06-23T08:04:01.000Z</time>
      </trkpt>
      <trkpt lat="44.1079" lon="6.32543">
        <ele>1158.8</ele>
        <time>2019-06-23T08:04:03.000Z</time>
      </trkpt>
      <trkpt lat="44.10787" lon="6.32545">
        <ele>1158.8</ele>
        <time>2019-06-23T08:04:04.000Z</time>
      </trkpt>
      <trkpt lat="44.10779" lon="6.32548">
        <ele>1159.2</ele>
        <time>2019-06-23T08:04:07.000Z</time>
      </trkpt>
      <trkpt lat="44.10777" lon="6.32549">
        <ele>1159.6</ele>
        <time>2019-06-23T08:04:08.000Z</time>
      </trkpt>
      <trkpt lat="44.10771" lon="6.32552">
        <ele>1159.8</ele>
        <time>2019-06-23T08:04:10.000Z</time>
      </trkpt>
      <trkpt lat="44.10765" lon="6.32559">
        <ele>1160</ele>
        <time>2019-06-23T08:04:13.000Z</time>
      </trkpt>
      <trkpt lat="44.10761" lon="6.32563">
        <ele>1160.8</ele>
        <time>2019-06-23T08:04:15.000Z</time>
      </trkpt>
      <trkpt lat="44.10756" lon="6.32569">
        <ele>1161.4</ele>
        <time>2019-06-23T08:04:18.000Z</time>
      </trkpt>
      <trkpt lat="44.10751" lon="6.32575">
        <ele>1161.8</ele>
        <time>2019-06-23T08:04:21.000Z</time>
      </trkpt>
      <trkpt lat="44.10738" lon="6.32585">
        <ele>1162.8</ele>
        <time>2019-06-23T08:04:27.000Z</time>
      </trkpt>
      <trkpt lat="44.10734" lon="6.32587">
        <ele>1163</ele>
        <time>2019-06-23T08:04:29.000Z</time>
      </trkpt>
      <trkpt lat="44.10727" lon="6.32587">
        <ele>1164.2</ele>
        <time>2019-06-23T08:04:32.000Z</time>
      </trkpt>
      <trkpt lat="44.10725" lon="6.32587">
        <ele>1164.4</ele>
        <time>2019-06-23T08:04:33.000Z</time>
      </trkpt>
      <trkpt lat="44.10719" lon="6.32583">
        <ele>1165.4</ele>
        <time>2019-06-23T08:04:36.000Z</time>
      </trkpt>
      <trkpt lat="44.1071" lon="6.32574">
        <ele>1166.8</ele>
        <time>2019-06-23T08:04:41.000Z</time>
      </trkpt>
      <trkpt lat="44.10696" lon="6.32568">
        <ele>1167.6</ele>
        <time>2019-06-23T08:04:48.000Z</time>
      </trkpt>
      <trkpt lat="44.10694" lon="6.32568">
        <ele>1168</ele>
        <time>2019-06-23T08:04:49.000Z</time>
      </trkpt>
      <trkpt lat="44.10687" lon="6.3257">
        <ele>1169.2</ele>
        <time>2019-06-23T08:04:52.000Z</time>
      </trkpt>
      <trkpt lat="44.10678" lon="6.32574">
        <ele>1169.8</ele>
        <time>2019-06-23T08:04:56.000Z</time>
      </trkpt>
      <trkpt lat="44.1067" lon="6.3258">
        <ele>1170.6</ele>
        <time>2019-06-23T08:05:00.000Z</time>
      </trkpt>
      <trkpt lat="44.10663" lon="6.32585">
        <ele>1171.6</ele>
        <time>2019-06-23T08:05:03.000Z</time>
      </trkpt>
      <trkpt lat="44.10661" lon="6.32586">
        <ele>1171.8</ele>
        <time>2019-06-23T08:05:04.000Z</time>
      </trkpt>
      <trkpt lat="44.10652" lon="6.32591">
        <ele>1172.8</ele>
        <time>2019-06-23T08:05:08.000Z</time>
      </trkpt>
      <trkpt lat="44.10643" lon="6.32596">
        <ele>1173.8</ele>
        <time>2019-06-23T08:05:12.000Z</time>
      </trkpt>
      <trkpt lat="44.10639" lon="6.32599">
        <ele>1174.4</ele>
        <time>2019-06-23T08:05:14.000Z</time>
      </trkpt>
      <trkpt lat="44.10628" lon="6.32612">
        <ele>1175.2</ele>
        <time>2019-06-23T08:05:20.000Z</time>
      </trkpt>
      <trkpt lat="44.10627" lon="6.32615">
        <ele>1175.4</ele>
        <time>2019-06-23T08:05:21.000Z</time>
      </trkpt>
      <trkpt lat="44.10624" lon="6.32621">
        <ele>1176.2</ele>
        <time>2019-06-23T08:05:23.000Z</time>
      </trkpt>
      <trkpt lat="44.10619" lon="6.32633">
        <ele>1177</ele>
        <time>2019-06-23T08:05:27.000Z</time>
      </trkpt>
      <trkpt lat="44.10616" lon="6.32638">
        <ele>1177.6</ele>
        <time>2019-06-23T08:05:29.000Z</time>
      </trkpt>
      <trkpt lat="44.10608" lon="6.3265">
        <ele>1178.8</ele>
        <time>2019-06-23T08:05:34.000Z</time>
      </trkpt>
      <trkpt lat="44.10599" lon="6.32668">
        <ele>1180</ele>
        <time>2019-06-23T08:05:41.000Z</time>
      </trkpt>
      <trkpt lat="44.10597" lon="6.32671">
        <ele>1180</ele>
        <time>2019-06-23T08:05:42.000Z</time>
      </trkpt>
      <trkpt lat="44.10593" lon="6.32682">
        <ele>1181</ele>
        <time>2019-06-23T08:05:46.000Z</time>
      </trkpt>
      <trkpt lat="44.10591" lon="6.3269">
        <ele>1181.6</ele>
        <time>2019-06-23T08:05:49.000Z</time>
      </trkpt>
      <trkpt lat="44.1059" lon="6.32695">
        <ele>1182.2</ele>
        <time>2019-06-23T08:05:51.000Z</time>
      </trkpt>
      <trkpt lat="44.10586" lon="6.32708">
        <ele>1183</ele>
        <time>2019-06-23T08:05:55.000Z</time>
      </trkpt>
      <trkpt lat="44.10584" lon="6.32715">
        <ele>1183.2</ele>
        <time>2019-06-23T08:05:57.000Z</time>
      </trkpt>
      <trkpt lat="44.10583" lon="6.32718">
        <ele>1183.2</ele>
        <time>2019-06-23T08:05:58.000Z</time>
      </trkpt>
      <trkpt lat="44.10579" lon="6.32727">
        <ele>1184</ele>
        <time>2019-06-23T08:06:01.000Z</time>
      </trkpt>
      <trkpt lat="44.10578" lon="6.3273">
        <ele>1184.4</ele>
        <time>2019-06-23T08:06:02.000Z</time>
      </trkpt>
      <trkpt lat="44.10571" lon="6.32747">
        <ele>1185.4</ele>
        <time>2019-06-23T08:06:08.000Z</time>
      </trkpt>
      <trkpt lat="44.10568" lon="6.32753">
        <ele>1185.6</ele>
        <time>2019-06-23T08:06:10.000Z</time>
      </trkpt>
      <trkpt lat="44.10563" lon="6.32764">
        <ele>1186</ele>
        <time>2019-06-23T08:06:13.000Z</time>
      </trkpt>
      <trkpt lat="44.10561" lon="6.32767">
        <ele>1186.2</ele>
        <time>2019-06-23T08:06:14.000Z</time>
      </trkpt>
      <trkpt lat="44.10557" lon="6.32772">
        <ele>1186.6</ele>
        <time>2019-06-23T08:06:16.000Z</time>
      </trkpt>
      <trkpt lat="44.10555" lon="6.32775">
        <ele>1186.8</ele>
        <time>2019-06-23T08:06:17.000Z</time>
      </trkpt>
      <trkpt lat="44.10551" lon="6.3278">
        <ele>1188</ele>
        <time>2019-06-23T08:06:19.000Z</time>
      </trkpt>
      <trkpt lat="44.10546" lon="6.32787">
        <ele>1188.8</ele>
        <time>2019-06-23T08:06:22.000Z</time>
      </trkpt>
      <trkpt lat="44.10542" lon="6.32793">
        <ele>1189</ele>
        <time>2019-06-23T08:06:24.000Z</time>
      </trkpt>
      <trkpt lat="44.10536" lon="6.32804">
        <ele>1190</ele>
        <time>2019-06-23T08:06:28.000Z</time>
      </trkpt>
      <trkpt lat="44.10535" lon="6.32808">
        <ele>1190.2</ele>
        <time>2019-06-23T08:06:29.000Z</time>
      </trkpt>
      <trkpt lat="44.10536" lon="6.32811">
        <ele>1190.6</ele>
        <time>2019-06-23T08:06:30.000Z</time>
      </trkpt>
      <trkpt lat="44.10539" lon="6.32817">
        <ele>1191</ele>
        <time>2019-06-23T08:06:32.000Z</time>
      </trkpt>
      <trkpt lat="44.10542" lon="6.32819">
        <ele>1191.4</ele>
        <time>2019-06-23T08:06:34.000Z</time>
      </trkpt>
      <trkpt lat="44.1055" lon="6.32819">
        <ele>1191.8</ele>
        <time>2019-06-23T08:06:37.000Z</time>
      </trkpt>
      <trkpt lat="44.10555" lon="6.32817">
        <ele>1192.4</ele>
        <time>2019-06-23T08:06:39.000Z</time>
      </trkpt>
      <trkpt lat="44.10566" lon="6.32814">
        <ele>1193.6</ele>
        <time>2019-06-23T08:06:44.000Z</time>
      </trkpt>
      <trkpt lat="44.10581" lon="6.32805">
        <ele>1194.6</ele>
        <time>2019-06-23T08:06:50.000Z</time>
      </trkpt>
      <trkpt lat="44.10586" lon="6.32798">
        <ele>1194.8</ele>
        <time>2019-06-23T08:06:53.000Z</time>
      </trkpt>
      <trkpt lat="44.10591" lon="6.32792">
        <ele>1195.8</ele>
        <time>2019-06-23T08:06:56.000Z</time>
      </trkpt>
      <trkpt lat="44.10592" lon="6.3279">
        <ele>1196.2</ele>
        <time>2019-06-23T08:06:57.000Z</time>
      </trkpt>
      <trkpt lat="44.10597" lon="6.32783">
        <ele>1196.8</ele>
        <time>2019-06-23T08:07:00.000Z</time>
      </trkpt>
      <trkpt lat="44.10607" lon="6.32776">
        <ele>1197.8</ele>
        <time>2019-06-23T08:07:05.000Z</time>
      </trkpt>
      <trkpt lat="44.10613" lon="6.32779">
        <ele>1198.8</ele>
        <time>2019-06-23T08:07:08.000Z</time>
      </trkpt>
      <trkpt lat="44.10619" lon="6.32785">
        <ele>1199.6</ele>
        <time>2019-06-23T08:07:11.000Z</time>
      </trkpt>
      <trkpt lat="44.10621" lon="6.32788">
        <ele>1199.8</ele>
        <time>2019-06-23T08:07:12.000Z</time>
      </trkpt>
      <trkpt lat="44.10628" lon="6.32797">
        <ele>1201.2</ele>
        <time>2019-06-23T08:07:16.000Z</time>
      </trkpt>
      <trkpt lat="44.10636" lon="6.3281">
        <ele>1201.6</ele>
        <time>2019-06-23T08:07:20.000Z</time>
      </trkpt>
      <trkpt lat="44.1064" lon="6.32822">
        <ele>1202.2</ele>
        <time>2019-06-23T08:07:24.000Z</time>
      </trkpt>
      <trkpt lat="44.10642" lon="6.32833">
        <ele>1203</ele>
        <time>2019-06-23T08:07:27.000Z</time>
      </trkpt>
      <trkpt lat="44.10643" lon="6.32839">
        <ele>1203.4</ele>
        <time>2019-06-23T08:07:29.000Z</time>
      </trkpt>
      <trkpt lat="44.10642" lon="6.32846">
        <ele>1203.8</ele>
        <time>2019-06-23T08:07:31.000Z</time>
      </trkpt>
      <trkpt lat="44.10647" lon="6.32835">
        <ele>1204</ele>
        <time>2019-06-23T08:14:49.000Z</time>
        <extensions>
          <visugpx:TrkExtension xmlns:visugpx="https://www.visugpx.com/editgpx/">
            <visugpx:node>1</visugpx:node>
            </visugpx:TrkExtension>
        </extensions>
      </trkpt>
      <trkpt lat="44.10652" lon="6.32803">
        <ele>1202.2</ele>
        <time>2019-06-23T08:14:53.000Z</time>
      </trkpt>
      <trkpt lat="44.1065" lon="6.32789">
        <ele>1200.4</ele>
        <time>2019-06-23T08:14:55.000Z</time>
      </trkpt>
      <trkpt lat="44.10649" lon="6.32783">
        <ele>1199</ele>
        <time>2019-06-23T08:14:56.000Z</time>
      </trkpt>
      <trkpt lat="44.10649" lon="6.32779">
        <ele>1197.8</ele>
        <time>2019-06-23T08:14:57.000Z</time>
      </trkpt>
      <trkpt lat="44.1065" lon="6.32778">
        <ele>1196.6</ele>
        <time>2019-06-23T08:14:58.000Z</time>
      </trkpt>
      <trkpt lat="44.10652" lon="6.32779">
        <ele>1195.6</ele>
        <time>2019-06-23T08:14:59.000Z</time>
      </trkpt>
      <trkpt lat="44.10655" lon="6.32779">
        <ele>1194.6</ele>
        <time>2019-06-23T08:15:01.000Z</time>
      </trkpt>
      <trkpt lat="44.10656" lon="6.32776">
        <ele>1194.4</ele>
        <time>2019-06-23T08:15:02.000Z</time>
      </trkpt>
      <trkpt lat="44.10656" lon="6.32768">
        <ele>1194</ele>
        <time>2019-06-23T08:15:04.000Z</time>
      </trkpt>
      <trkpt lat="44.10658" lon="6.32764">
        <ele>1193.4</ele>
        <time>2019-06-23T08:15:05.000Z</time>
      </trkpt>
      <trkpt lat="44.10661" lon="6.32758">
        <ele>1193</ele>
        <time>2019-06-23T08:15:06.000Z</time>
      </trkpt>
      <trkpt lat="44.10662" lon="6.32751">
        <ele>1192.4</ele>
        <time>2019-06-23T08:15:07.000Z</time>
      </trkpt>
      <trkpt lat="44.10663" lon="6.32744">
        <ele>1191.8</ele>
        <time>2019-06-23T08:15:08.000Z</time>
      </trkpt>
      <trkpt lat="44.10664" lon="6.3274">
        <ele>1191.2</ele>
        <time>2019-06-23T08:15:09.000Z</time>
      </trkpt>
      <trkpt lat="44.10667" lon="6.32738">
        <ele>1190</ele>
        <time>2019-06-23T08:15:10.000Z</time>
      </trkpt>
      <trkpt lat="44.10671" lon="6.32735">
        <ele>1188.6</ele>
        <time>2019-06-23T08:15:11.000Z</time>
      </trkpt>
      <trkpt lat="44.10673" lon="6.32731">
        <ele>1187.6</ele>
        <time>2019-06-23T08:15:12.000Z</time>
      </trkpt>
      <trkpt lat="44.10674" lon="6.32728">
        <ele>1186.8</ele>
        <time>2019-06-23T08:15:13.000Z</time>
      </trkpt>
      <trkpt lat="44.10677" lon="6.32724">
        <ele>1186</ele>
        <time>2019-06-23T08:15:14.000Z</time>
      </trkpt>
      <trkpt lat="44.1068" lon="6.32721">
        <ele>1185.2</ele>
        <time>2019-06-23T08:15:15.000Z</time>
      </trkpt>
      <trkpt lat="44.10684" lon="6.32718">
        <ele>1184.4</ele>
        <time>2019-06-23T08:15:16.000Z</time>
      </trkpt>
      <trkpt lat="44.10688" lon="6.32713">
        <ele>1183.8</ele>
        <time>2019-06-23T08:15:17.000Z</time>
      </trkpt>
      <trkpt lat="44.10692" lon="6.32707">
        <ele>1183</ele>
        <time>2019-06-23T08:15:18.000Z</time>
      </trkpt>
      <trkpt lat="44.10696" lon="6.32702">
        <ele>1181.8</ele>
        <time>2019-06-23T08:15:19.000Z</time>
      </trkpt>
      <trkpt lat="44.10702" lon="6.32699">
        <ele>1180.2</ele>
        <time>2019-06-23T08:15:20.000Z</time>
      </trkpt>
      <trkpt lat="44.10708" lon="6.32696">
        <ele>1179.2</ele>
        <time>2019-06-23T08:15:21.000Z</time>
      </trkpt>
      <trkpt lat="44.10713" lon="6.32693">
        <ele>1178.2</ele>
        <time>2019-06-23T08:15:22.000Z</time>
      </trkpt>
      <trkpt lat="44.10719" lon="6.32688">
        <ele>1177.4</ele>
        <time>2019-06-23T08:15:23.000Z</time>
      </trkpt>
      <trkpt lat="44.10729" lon="6.32674">
        <ele>1176</ele>
        <time>2019-06-23T08:15:25.000Z</time>
      </trkpt>
      <trkpt lat="44.10738" lon="6.32656">
        <ele>1174.8</ele>
        <time>2019-06-23T08:15:27.000Z</time>
      </trkpt>
      <trkpt lat="44.10749" lon="6.3264">
        <ele>1172.8</ele>
        <time>2019-06-23T08:15:29.000Z</time>
      </trkpt>
      <trkpt lat="44.10754" lon="6.32632">
        <ele>1171.6</ele>
        <time>2019-06-23T08:15:30.000Z</time>
      </trkpt>
      <trkpt lat="44.10759" lon="6.32624">
        <ele>1170.4</ele>
        <time>2019-06-23T08:15:31.000Z</time>
      </trkpt>
      <trkpt lat="44.10768" lon="6.32608">
        <ele>1168.6</ele>
        <time>2019-06-23T08:15:33.000Z</time>
      </trkpt>
      <trkpt lat="44.10773" lon="6.32598">
        <ele>1168</ele>
        <time>2019-06-23T08:15:34.000Z</time>
      </trkpt>
      <trkpt lat="44.10776" lon="6.32588">
        <ele>1167.2</ele>
        <time>2019-06-23T08:15:35.000Z</time>
      </trkpt>
      <trkpt lat="44.10781" lon="6.32579">
        <ele>1166.2</ele>
        <time>2019-06-23T08:15:36.000Z</time>
      </trkpt>
      <trkpt lat="44.10785" lon="6.32569">
        <ele>1165.6</ele>
        <time>2019-06-23T08:15:37.000Z</time>
      </trkpt>
      <trkpt lat="44.10793" lon="6.32551">
        <ele>1164</ele>
        <time>2019-06-23T08:15:39.000Z</time>
      </trkpt>
      <trkpt lat="44.10796" lon="6.32543">
        <ele>1162.6</ele>
        <time>2019-06-23T08:15:40.000Z</time>
      </trkpt>
      <trkpt lat="44.10797" lon="6.32536">
        <ele>1161.2</ele>
        <time>2019-06-23T08:15:41.000Z</time>
      </trkpt>
      <trkpt lat="44.10797" lon="6.3253">
        <ele>1160</ele>
        <time>2019-06-23T08:15:42.000Z</time>
      </trkpt>
      <trkpt lat="44.10794" lon="6.32519">
        <ele>1158.4</ele>
        <time>2019-06-23T08:15:44.000Z</time>
      </trkpt>
      <trkpt lat="44.10794" lon="6.32514">
        <ele>1158.2</ele>
        <time>2019-06-23T08:15:45.000Z</time>
      </trkpt>
      <trkpt lat="44.10798" lon="6.32501">
        <ele>1157.4</ele>
        <time>2019-06-23T08:15:47.000Z</time>
      </trkpt>
      <trkpt lat="44.10802" lon="6.32495">
        <ele>1156.4</ele>
        <time>2019-06-23T08:15:48.000Z</time>
      </trkpt>
      <trkpt lat="44.10806" lon="6.32489">
        <ele>1155.6</ele>
        <time>2019-06-23T08:15:49.000Z</time>
      </trkpt>
      <trkpt lat="44.10811" lon="6.32483">
        <ele>1155</ele>
        <time>2019-06-23T08:15:50.000Z</time>
      </trkpt>
      <trkpt lat="44.10816" lon="6.32477">
        <ele>1154.6</ele>
        <time>2019-06-23T08:15:51.000Z</time>
      </trkpt>
      <trkpt lat="44.10826" lon="6.32468">
        <ele>1154</ele>
        <time>2019-06-23T08:15:53.000Z</time>
      </trkpt>
      <trkpt lat="44.10831" lon="6.32465">
        <ele>1153.4</ele>
        <time>2019-06-23T08:15:54.000Z</time>
      </trkpt>
      <trkpt lat="44.10837" lon="6.32464">
        <ele>1152</ele>
        <time>2019-06-23T08:15:56.000Z</time>
      </trkpt>
      <trkpt lat="44.10842" lon="6.32458">
        <ele>1150.4</ele>
        <time>2019-06-23T08:15:58.000Z</time>
      </trkpt>
      <trkpt lat="44.10847" lon="6.32446">
        <ele>1148.8</ele>
        <time>2019-06-23T08:16:00.000Z</time>
      </trkpt>
      <trkpt lat="44.10848" lon="6.3244">
        <ele>1147.6</ele>
        <time>2019-06-23T08:16:01.000Z</time>
      </trkpt>
      <trkpt lat="44.1085" lon="6.32437">
        <ele>1146</ele>
        <time>2019-06-23T08:16:02.000Z</time>
      </trkpt>
      <trkpt lat="44.10853" lon="6.32437">
        <ele>1144.6</ele>
        <time>2019-06-23T08:16:03.000Z</time>
      </trkpt>
      <trkpt lat="44.10856" lon="6.3244">
        <ele>1143.4</ele>
        <time>2019-06-23T08:16:04.000Z</time>
      </trkpt>
      <trkpt lat="44.10859" lon="6.32443">
        <ele>1142.2</ele>
        <time>2019-06-23T08:16:05.000Z</time>
      </trkpt>
      <trkpt lat="44.10861" lon="6.32441">
        <ele>1141.2</ele>
        <time>2019-06-23T08:16:06.000Z</time>
      </trkpt>
      <trkpt lat="44.10861" lon="6.32437">
        <ele>1140.6</ele>
        <time>2019-06-23T08:16:07.000Z</time>
      </trkpt>
      <trkpt lat="44.10862" lon="6.32425">
        <ele>1139.2</ele>
        <time>2019-06-23T08:16:09.000Z</time>
      </trkpt>
      <trkpt lat="44.10864" lon="6.32423">
        <ele>1138.4</ele>
        <time>2019-06-23T08:16:10.000Z</time>
      </trkpt>
      <trkpt lat="44.10867" lon="6.32423">
        <ele>1137.4</ele>
        <time>2019-06-23T08:16:11.000Z</time>
      </trkpt>
      <trkpt lat="44.10872" lon="6.32426">
        <ele>1136.2</ele>
        <time>2019-06-23T08:16:12.000Z</time>
      </trkpt>
      <trkpt lat="44.10878" lon="6.32426">
        <ele>1135.2</ele>
        <time>2019-06-23T08:16:13.000Z</time>
      </trkpt>
      <trkpt lat="44.10883" lon="6.32424">
        <ele>1134.4</ele>
        <time>2019-06-23T08:16:14.000Z</time>
      </trkpt>
      <trkpt lat="44.10887" lon="6.32422">
        <ele>1133.4</ele>
        <time>2019-06-23T08:16:15.000Z</time>
      </trkpt>
      <trkpt lat="44.1089" lon="6.32418">
        <ele>1132.2</ele>
        <time>2019-06-23T08:16:16.000Z</time>
      </trkpt>
      <trkpt lat="44.10893" lon="6.32411">
        <ele>1130.8</ele>
        <time>2019-06-23T08:16:17.000Z</time>
      </trkpt>
      <trkpt lat="44.10896" lon="6.32406">
        <ele>1129.8</ele>
        <time>2019-06-23T08:16:18.000Z</time>
      </trkpt>
      <trkpt lat="44.10899" lon="6.32403">
        <ele>1128.6</ele>
        <time>2019-06-23T08:16:19.000Z</time>
      </trkpt>
      <trkpt lat="44.10903" lon="6.32404">
        <ele>1127</ele>
        <time>2019-06-23T08:16:20.000Z</time>
      </trkpt>
      <trkpt lat="44.10908" lon="6.32406">
        <ele>1125.8</ele>
        <time>2019-06-23T08:16:21.000Z</time>
      </trkpt>
      <trkpt lat="44.10915" lon="6.32406">
        <ele>1125.2</ele>
        <time>2019-06-23T08:16:22.000Z</time>
      </trkpt>
      <trkpt lat="44.10919" lon="6.32402">
        <ele>1124.6</ele>
        <time>2019-06-23T08:16:23.000Z</time>
      </trkpt>
      <trkpt lat="44.10929" lon="6.32395">
        <ele>1123.6</ele>
        <time>2019-06-23T08:16:25.000Z</time>
      </trkpt>
      <trkpt lat="44.10934" lon="6.32396">
        <ele>1123.2</ele>
        <time>2019-06-23T08:16:26.000Z</time>
      </trkpt>
      <trkpt lat="44.10947" lon="6.32399">
        <ele>1121.4</ele>
        <time>2019-06-23T08:16:28.000Z</time>
      </trkpt>
      <trkpt lat="44.10953" lon="6.32399">
        <ele>1120.2</ele>
        <time>2019-06-23T08:16:29.000Z</time>
      </trkpt>
      <trkpt lat="44.10957" lon="6.32398">
        <ele>1119.4</ele>
        <time>2019-06-23T08:16:30.000Z</time>
      </trkpt>
      <trkpt lat="44.10961" lon="6.32398">
        <ele>1119.2</ele>
        <time>2019-06-23T08:16:31.000Z</time>
      </trkpt>
      <trkpt lat="44.1097" lon="6.32399">
        <ele>1118.8</ele>
        <time>2019-06-23T08:16:33.000Z</time>
      </trkpt>
      <trkpt lat="44.10973" lon="6.32397">
        <ele>1119</ele>
        <time>2019-06-23T08:16:34.000Z</time>
      </trkpt>
      <trkpt lat="44.10983" lon="6.32392">
        <ele>1119</ele>
        <time>2019-06-23T08:16:36.000Z</time>
      </trkpt>
      <trkpt lat="44.10985" lon="6.32388">
        <ele>1119</ele>
        <time>2019-06-23T08:16:37.000Z</time>
      </trkpt>
      <trkpt lat="44.10991" lon="6.32373">
        <ele>1117.8</ele>
        <time>2019-06-23T08:16:40.000Z</time>
      </trkpt>
      <trkpt lat="44.10991" lon="6.32366">
        <ele>1116.8</ele>
        <time>2019-06-23T08:16:41.000Z</time>
      </trkpt>
      <trkpt lat="44.10991" lon="6.3236">
        <ele>1116</ele>
        <time>2019-06-23T08:16:42.000Z</time>
      </trkpt>
      <trkpt lat="44.10993" lon="6.3235">
        <ele>1114.6</ele>
        <time>2019-06-23T08:16:44.000Z</time>
      </trkpt>
      <trkpt lat="44.10994" lon="6.32345">
        <ele>1114.2</ele>
        <time>2019-06-23T08:16:45.000Z</time>
      </trkpt>
      <trkpt lat="44.10996" lon="6.3234">
        <ele>1113.4</ele>
        <time>2019-06-23T08:16:46.000Z</time>
      </trkpt>
      <trkpt lat="44.11001" lon="6.32332">
        <ele>1111.4</ele>
        <time>2019-06-23T08:16:48.000Z</time>
      </trkpt>
      <trkpt lat="44.11003" lon="6.32329">
        <ele>1109.8</ele>
        <time>2019-06-23T08:16:49.000Z</time>
      </trkpt>
      <trkpt lat="44.11006" lon="6.32326">
        <ele>1108.2</ele>
        <time>2019-06-23T08:16:50.000Z</time>
      </trkpt>
      <trkpt lat="44.11009" lon="6.32326">
        <ele>1106.6</ele>
        <time>2019-06-23T08:16:51.000Z</time>
      </trkpt>
      <trkpt lat="44.11013" lon="6.32325">
        <ele>1105</ele>
        <time>2019-06-23T08:16:52.000Z</time>
      </trkpt>
      <trkpt lat="44.11018" lon="6.32324">
        <ele>1103</ele>
        <time>2019-06-23T08:16:53.000Z</time>
      </trkpt>
      <trkpt lat="44.11022" lon="6.32324">
        <ele>1100.6</ele>
        <time>2019-06-23T08:16:54.000Z</time>
      </trkpt>
      <trkpt lat="44.11026" lon="6.32326">
        <ele>1098.4</ele>
        <time>2019-06-23T08:16:55.000Z</time>
      </trkpt>
      <trkpt lat="44.1103" lon="6.32328">
        <ele>1096.6</ele>
        <time>2019-06-23T08:16:56.000Z</time>
      </trkpt>
      <trkpt lat="44.11034" lon="6.32329">
        <ele>1095.2</ele>
        <time>2019-06-23T08:16:57.000Z</time>
      </trkpt>
      <trkpt lat="44.11037" lon="6.32328">
        <ele>1093.6</ele>
        <time>2019-06-23T08:16:58.000Z</time>
      </trkpt>
      <trkpt lat="44.1104" lon="6.32325">
        <ele>1092</ele>
        <time>2019-06-23T08:16:59.000Z</time>
      </trkpt>
      <trkpt lat="44.11043" lon="6.32323">
        <ele>1090.8</ele>
        <time>2019-06-23T08:17:00.000Z</time>
      </trkpt>
      <trkpt lat="44.11047" lon="6.32321">
        <ele>1089.4</ele>
        <time>2019-06-23T08:17:02.000Z</time>
      </trkpt>
      <trkpt lat="44.11049" lon="6.3232">
        <ele>1089</ele>
        <time>2019-06-23T08:17:03.000Z</time>
      </trkpt>
      <trkpt lat="44.11055" lon="6.3232">
        <ele>1088.4</ele>
        <time>2019-06-23T08:17:05.000Z</time>
      </trkpt>
      <trkpt lat="44.11058" lon="6.32318">
        <ele>1088</ele>
        <time>2019-06-23T08:17:06.000Z</time>
      </trkpt>
      <trkpt lat="44.11062" lon="6.32317">
        <ele>1087.6</ele>
        <time>2019-06-23T08:17:07.000Z</time>
      </trkpt>
      <trkpt lat="44.11067" lon="6.32317">
        <ele>1086.4</ele>
        <time>2019-06-23T08:17:08.000Z</time>
      </trkpt>
      <trkpt lat="44.11072" lon="6.32317">
        <ele>1084.6</ele>
        <time>2019-06-23T08:17:09.000Z</time>
      </trkpt>
      <trkpt lat="44.11078" lon="6.32318">
        <ele>1082.8</ele>
        <time>2019-06-23T08:17:10.000Z</time>
      </trkpt>
      <trkpt lat="44.11083" lon="6.3232">
        <ele>1081.6</ele>
        <time>2019-06-23T08:17:11.000Z</time>
      </trkpt>
      <trkpt lat="44.11088" lon="6.3232">
        <ele>1080.8</ele>
        <time>2019-06-23T08:17:12.000Z</time>
      </trkpt>
      <trkpt lat="44.11093" lon="6.3232">
        <ele>1080.2</ele>
        <time>2019-06-23T08:17:13.000Z</time>
      </trkpt>
      <trkpt lat="44.11101" lon="6.32319">
        <ele>1079.4</ele>
        <time>2019-06-23T08:17:15.000Z</time>
      </trkpt>
      <trkpt lat="44.11103" lon="6.32318">
        <ele>1079</ele>
        <time>2019-06-23T08:17:17.000Z</time>
      </trkpt>
      <trkpt lat="44.11105" lon="6.32315">
        <ele>1078.8</ele>
        <time>2019-06-23T08:17:18.000Z</time>
      </trkpt>
      <trkpt lat="44.11114" lon="6.32305">
        <ele>1078</ele>
        <time>2019-06-23T08:17:22.000Z</time>
      </trkpt>
      <trkpt lat="44.11119" lon="6.32303">
        <ele>1077.8</ele>
        <time>2019-06-23T08:17:24.000Z</time>
      </trkpt>
      <trkpt lat="44.11121" lon="6.32304">
        <ele>1077.8</ele>
        <time>2019-06-23T08:17:25.000Z</time>
      </trkpt>
      <trkpt lat="44.11125" lon="6.32305">
        <ele>1077.6</ele>
        <time>2019-06-23T08:17:27.000Z</time>
      </trkpt>
      <trkpt lat="44.11125" lon="6.32306">
        <ele>1077.2</ele>
        <time>2019-06-23T08:17:29.000Z</time>
      </trkpt>
      <trkpt lat="44.11124" lon="6.32306">
        <ele>1077</ele>
        <time>2019-06-23T08:17:31.000Z</time>
      </trkpt>
      <trkpt lat="44.11124" lon="6.32306">
        <ele>1076.8</ele>
        <time>2019-06-23T08:17:32.000Z</time>
      </trkpt>
      <trkpt lat="44.11124" lon="6.32306">
        <ele>1076.4</ele>
        <time>2019-06-23T08:18:02.000Z</time>
      </trkpt>
      <trkpt lat="44.11124" lon="6.32307">
        <ele>1077</ele>
        <time>2019-06-23T08:18:20.000Z</time>
      </trkpt>
      <trkpt lat="44.11126" lon="6.32305">
        <ele>1076.6</ele>
        <time>2019-06-23T08:18:27.000Z</time>
      </trkpt>
      <trkpt lat="44.11127" lon="6.32304">
        <ele>1076.6</ele>
        <time>2019-06-23T08:18:28.000Z</time>
      </trkpt>
      <trkpt lat="44.11129" lon="6.32304">
        <ele>1076.6</ele>
        <time>2019-06-23T08:18:29.000Z</time>
      </trkpt>
      <trkpt lat="44.11131" lon="6.32305">
        <ele>1076.4</ele>
        <time>2019-06-23T08:18:31.000Z</time>
      </trkpt>
      <trkpt lat="44.11131" lon="6.32305">
        <ele>1076.2</ele>
        <time>2019-06-23T08:18:33.000Z</time>
      </trkpt>
      <trkpt lat="44.1113" lon="6.32305">
        <ele>1075.8</ele>
        <time>2019-06-23T08:18:35.000Z</time>
      </trkpt>
      <trkpt lat="44.11133" lon="6.32309">
        <ele>1075.2</ele>
        <time>2019-06-23T08:18:40.000Z</time>
      </trkpt>
      <trkpt lat="44.1114" lon="6.32313">
        <ele>1074.6</ele>
        <time>2019-06-23T08:18:42.000Z</time>
      </trkpt>
      <trkpt lat="44.11143" lon="6.32317">
        <ele>1073.8</ele>
        <time>2019-06-23T08:18:43.000Z</time>
      </trkpt>
      <trkpt lat="44.11146" lon="6.32323">
        <ele>1072.6</ele>
        <time>2019-06-23T08:18:44.000Z</time>
      </trkpt>
      <trkpt lat="44.11148" lon="6.32328">
        <ele>1071.6</ele>
        <time>2019-06-23T08:18:45.000Z</time>
      </trkpt>
      <trkpt lat="44.1115" lon="6.32333">
        <ele>1071.2</ele>
        <time>2019-06-23T08:18:46.000Z</time>
      </trkpt>
      <trkpt lat="44.11154" lon="6.32343">
        <ele>1070.8</ele>
        <time>2019-06-23T08:18:48.000Z</time>
      </trkpt>
      <trkpt lat="44.11156" lon="6.32353">
        <ele>1070.2</ele>
        <time>2019-06-23T08:18:50.000Z</time>
      </trkpt>
      <trkpt lat="44.11157" lon="6.32362">
        <ele>1069.6</ele>
        <time>2019-06-23T08:18:52.000Z</time>
      </trkpt>
      <trkpt lat="44.11163" lon="6.32369">
        <ele>1069</ele>
        <time>2019-06-23T08:18:54.000Z</time>
      </trkpt>
      <trkpt lat="44.11168" lon="6.3237">
        <ele>1068.6</ele>
        <time>2019-06-23T08:18:55.000Z</time>
      </trkpt>
      <trkpt lat="44.11177" lon="6.32368">
        <ele>1068</ele>
        <time>2019-06-23T08:18:57.000Z</time>
      </trkpt>
      <trkpt lat="44.11181" lon="6.32368">
        <ele>1067.8</ele>
        <time>2019-06-23T08:18:58.000Z</time>
      </trkpt>
      <trkpt lat="44.11185" lon="6.32368">
        <ele>1067.8</ele>
        <time>2019-06-23T08:18:59.000Z</time>
      </trkpt>
      <trkpt lat="44.11188" lon="6.3237">
        <ele>1067.8</ele>
        <time>2019-06-23T08:19:00.000Z</time>
      </trkpt>
      <trkpt lat="44.11194" lon="6.32376">
        <ele>1068</ele>
        <time>2019-06-23T08:19:02.000Z</time>
      </trkpt>
      <trkpt lat="44.11205" lon="6.32378">
        <ele>1068.2</ele>
        <time>2019-06-23T08:19:04.000Z</time>
      </trkpt>
      <trkpt lat="44.11213" lon="6.32376">
        <ele>1068.2</ele>
        <time>2019-06-23T08:19:06.000Z</time>
      </trkpt>
      <trkpt lat="44.1122" lon="6.32376">
        <ele>1068.6</ele>
        <time>2019-06-23T08:19:08.000Z</time>
      </trkpt>
      <trkpt lat="44.11228" lon="6.32375">
        <ele>1069</ele>
        <time>2019-06-23T08:19:10.000Z</time>
      </trkpt>
      <trkpt lat="44.11241" lon="6.32375">
        <ele>1069.2</ele>
        <time>2019-06-23T08:19:13.000Z</time>
      </trkpt>
      <trkpt lat="44.11249" lon="6.32371">
        <ele>1069.4</ele>
        <time>2019-06-23T08:19:15.000Z</time>
      </trkpt>
      <trkpt lat="44.11264" lon="6.32359">
        <ele>1069.8</ele>
        <time>2019-06-23T08:19:20.000Z</time>
      </trkpt>
      <trkpt lat="44.11267" lon="6.32359">
        <ele>1069.8</ele>
        <time>2019-06-23T08:19:21.000Z</time>
      </trkpt>
      <trkpt lat="44.11273" lon="6.32361">
        <ele>1070</ele>
        <time>2019-06-23T08:19:23.000Z</time>
      </trkpt>
      <trkpt lat="44.11275" lon="6.3236">
        <ele>1070</ele>
        <time>2019-06-23T08:19:24.000Z</time>
      </trkpt>
      <trkpt lat="44.1128" lon="6.3236">
        <ele>1070.2</ele>
        <time>2019-06-23T08:19:26.000Z</time>
      </trkpt>
      <trkpt lat="44.11286" lon="6.32358">
        <ele>1071.2</ele>
        <time>2019-06-23T08:19:28.000Z</time>
      </trkpt>
      <trkpt lat="44.11288" lon="6.32356">
        <ele>1071.8</ele>
        <time>2019-06-23T08:19:29.000Z</time>
      </trkpt>
      <trkpt lat="44.11292" lon="6.3235">
        <ele>1072.2</ele>
        <time>2019-06-23T08:19:31.000Z</time>
      </trkpt>
      <trkpt lat="44.11298" lon="6.32347">
        <ele>1072</ele>
        <time>2019-06-23T08:19:33.000Z</time>
      </trkpt>
      <trkpt lat="44.11313" lon="6.32345">
        <ele>1072</ele>
        <time>2019-06-23T08:19:38.000Z</time>
      </trkpt>
      <trkpt lat="44.11321" lon="6.32335">
        <ele>1072.6</ele>
        <time>2019-06-23T08:19:42.000Z</time>
      </trkpt>
      <trkpt lat="44.11326" lon="6.3233">
        <ele>1073.2</ele>
        <time>2019-06-23T08:19:44.000Z</time>
      </trkpt>
      <trkpt lat="44.11333" lon="6.32324">
        <ele>1074.2</ele>
        <time>2019-06-23T08:19:47.000Z</time>
      </trkpt>
      <trkpt lat="44.11336" lon="6.32321">
        <ele>1074.4</ele>
        <time>2019-06-23T08:19:48.000Z</time>
      </trkpt>
      <trkpt lat="44.11342" lon="6.3231">
        <ele>1075.2</ele>
        <time>2019-06-23T08:19:51.000Z</time>
      </trkpt>
      <trkpt lat="44.11344" lon="6.32307">
        <ele>1075.2</ele>
        <time>2019-06-23T08:19:52.000Z</time>
      </trkpt>
      <trkpt lat="44.11348" lon="6.32306">
        <ele>1075.6</ele>
        <time>2019-06-23T08:19:54.000Z</time>
      </trkpt>
      <trkpt lat="44.11355" lon="6.32308">
        <ele>1076.4</ele>
        <time>2019-06-23T08:19:57.000Z</time>
      </trkpt>
      <trkpt lat="44.11357" lon="6.32308">
        <ele>1076.8</ele>
        <time>2019-06-23T08:19:58.000Z</time>
      </trkpt>
      <trkpt lat="44.1136" lon="6.32307">
        <ele>1077</ele>
        <time>2019-06-23T08:19:59.000Z</time>
      </trkpt>
      <trkpt lat="44.11364" lon="6.32307">
        <ele>1077.6</ele>
        <time>2019-06-23T08:20:01.000Z</time>
      </trkpt>
      <trkpt lat="44.11367" lon="6.32307">
        <ele>1078.2</ele>
        <time>2019-06-23T08:20:02.000Z</time>
      </trkpt>
      <trkpt lat="44.11374" lon="6.32308">
        <ele>1079.4</ele>
        <time>2019-06-23T08:20:05.000Z</time>
      </trkpt>
      <trkpt lat="44.1138" lon="6.32309">
        <ele>1079.8</ele>
        <time>2019-06-23T08:20:07.000Z</time>
      </trkpt>
      <trkpt lat="44.11384" lon="6.32308">
        <ele>1080.4</ele>
        <time>2019-06-23T08:20:09.000Z</time>
      </trkpt>
      <trkpt lat="44.11386" lon="6.32307">
        <ele>1080.8</ele>
        <time>2019-06-23T08:20:11.000Z</time>
      </trkpt>
      <trkpt lat="44.11387" lon="6.32307">
        <ele>1080.8</ele>
        <time>2019-06-23T08:20:23.000Z</time>
      </trkpt>
      <trkpt lat="44.11389" lon="6.32306">
        <ele>1080.8</ele>
        <time>2019-06-23T08:21:08.000Z</time>
      </trkpt>
      <trkpt lat="44.1139" lon="6.32305">
        <ele>1080.6</ele>
        <time>2019-06-23T08:21:35.000Z</time>
      </trkpt>
      <trkpt lat="44.11392" lon="6.32305">
        <ele>1080.4</ele>
        <time>2019-06-23T08:21:36.000Z</time>
      </trkpt>
      <trkpt lat="44.11397" lon="6.32304">
        <ele>1079.6</ele>
        <time>2019-06-23T08:21:37.000Z</time>
      </trkpt>
      <trkpt lat="44.114" lon="6.32307">
        <ele>1078.6</ele>
        <time>2019-06-23T08:21:38.000Z</time>
      </trkpt>
      <trkpt lat="44.11401" lon="6.32317">
        <ele>1077.2</ele>
        <time>2019-06-23T08:21:40.000Z</time>
      </trkpt>
      <trkpt lat="44.114" lon="6.32324">
        <ele>1076.4</ele>
        <time>2019-06-23T08:21:41.000Z</time>
      </trkpt>
      <trkpt lat="44.11399" lon="6.32331">
        <ele>1075.8</ele>
        <time>2019-06-23T08:21:42.000Z</time>
      </trkpt>
      <trkpt lat="44.11397" lon="6.32337">
        <ele>1075</ele>
        <time>2019-06-23T08:21:43.000Z</time>
      </trkpt>
      <trkpt lat="44.11396" lon="6.32342">
        <ele>1074</ele>
        <time>2019-06-23T08:21:44.000Z</time>
      </trkpt>
      <trkpt lat="44.11394" lon="6.32346">
        <ele>1072.6</ele>
        <time>2019-06-23T08:21:45.000Z</time>
      </trkpt>
      <trkpt lat="44.11392" lon="6.3235">
        <ele>1071.4</ele>
        <time>2019-06-23T08:21:46.000Z</time>
      </trkpt>
      <trkpt lat="44.11392" lon="6.32356">
        <ele>1070</ele>
        <time>2019-06-23T08:21:47.000Z</time>
      </trkpt>
      <trkpt lat="44.11392" lon="6.3236">
        <ele>1069</ele>
        <time>2019-06-23T08:21:48.000Z</time>
      </trkpt>
      <trkpt lat="44.11393" lon="6.32364">
        <ele>1068.2</ele>
        <time>2019-06-23T08:21:49.000Z</time>
      </trkpt>
      <trkpt lat="44.11396" lon="6.32376">
        <ele>1067.2</ele>
        <time>2019-06-23T08:21:51.000Z</time>
      </trkpt>
      <trkpt lat="44.11401" lon="6.32382">
        <ele>1066.4</ele>
        <time>2019-06-23T08:21:52.000Z</time>
      </trkpt>
      <trkpt lat="44.11405" lon="6.32387">
        <ele>1065.2</ele>
        <time>2019-06-23T08:21:53.000Z</time>
      </trkpt>
      <trkpt lat="44.11407" lon="6.3239">
        <ele>1063.8</ele>
        <time>2019-06-23T08:21:54.000Z</time>
      </trkpt>
      <trkpt lat="44.1141" lon="6.32392">
        <ele>1062.8</ele>
        <time>2019-06-23T08:21:55.000Z</time>
      </trkpt>
      <trkpt lat="44.1142" lon="6.32399">
        <ele>1061.2</ele>
        <time>2019-06-23T08:21:57.000Z</time>
      </trkpt>
      <trkpt lat="44.11426" lon="6.32403">
        <ele>1059.8</ele>
        <time>2019-06-23T08:21:58.000Z</time>
      </trkpt>
      <trkpt lat="44.1143" lon="6.32409">
        <ele>1058.4</ele>
        <time>2019-06-23T08:21:59.000Z</time>
      </trkpt>
      <trkpt lat="44.11434" lon="6.32413">
        <ele>1057.6</ele>
        <time>2019-06-23T08:22:00.000Z</time>
      </trkpt>
      <trkpt lat="44.11438" lon="6.32417">
        <ele>1056.8</ele>
        <time>2019-06-23T08:22:01.000Z</time>
      </trkpt>
      <trkpt lat="44.11444" lon="6.32423">
        <ele>1055.6</ele>
        <time>2019-06-23T08:22:03.000Z</time>
      </trkpt>
      <trkpt lat="44.11449" lon="6.32427">
        <ele>1055.2</ele>
        <time>2019-06-23T08:22:05.000Z</time>
      </trkpt>
      <trkpt lat="44.1146" lon="6.32433">
        <ele>1055.2</ele>
        <time>2019-06-23T08:22:10.000Z</time>
      </trkpt>
      <trkpt lat="44.1147" lon="6.32436">
        <ele>1055.2</ele>
        <time>2019-06-23T08:22:15.000Z</time>
      </trkpt>
      <trkpt lat="44.1147" lon="6.32436">
        <ele>1055.2</ele>
        <time>2019-06-23T08:22:19.000Z</time>
      </trkpt>
      <trkpt lat="44.1147" lon="6.32436">
        <ele>1055.4</ele>
        <time>2019-06-23T08:22:26.000Z</time>
      </trkpt>
      <trkpt lat="44.1147" lon="6.32436">
        <ele>1055.2</ele>
        <time>2019-06-23T08:22:33.000Z</time>
      </trkpt>
      <trkpt lat="44.11474" lon="6.32439">
        <ele>1055</ele>
        <time>2019-06-23T08:22:44.000Z</time>
      </trkpt>
      <trkpt lat="44.11476" lon="6.32442">
        <ele>1055</ele>
        <time>2019-06-23T08:22:45.000Z</time>
      </trkpt>
      <trkpt lat="44.11477" lon="6.32449">
        <ele>1054</ele>
        <time>2019-06-23T08:22:47.000Z</time>
      </trkpt>
      <trkpt lat="44.11478" lon="6.32451">
        <ele>1053.4</ele>
        <time>2019-06-23T08:22:48.000Z</time>
      </trkpt>
      <trkpt lat="44.11479" lon="6.32451">
        <ele>1052.8</ele>
        <time>2019-06-23T08:22:49.000Z</time>
      </trkpt>
      <trkpt lat="44.1148" lon="6.32451">
        <ele>1052</ele>
        <time>2019-06-23T08:22:50.000Z</time>
      </trkpt>
      <trkpt lat="44.1148" lon="6.32451">
        <ele>1051.4</ele>
        <time>2019-06-23T08:22:51.000Z</time>
      </trkpt>
      <trkpt lat="44.11482" lon="6.32449">
        <ele>1051</ele>
        <time>2019-06-23T08:22:52.000Z</time>
      </trkpt>
      <trkpt lat="44.11485" lon="6.32443">
        <ele>1050.6</ele>
        <time>2019-06-23T08:22:54.000Z</time>
      </trkpt>
      <trkpt lat="44.11487" lon="6.3244">
        <ele>1050.2</ele>
        <time>2019-06-23T08:22:55.000Z</time>
      </trkpt>
      <trkpt lat="44.1149" lon="6.32433">
        <ele>1048.8</ele>
        <time>2019-06-23T08:22:57.000Z</time>
      </trkpt>
      <trkpt lat="44.11491" lon="6.32432">
        <ele>1047.8</ele>
        <time>2019-06-23T08:22:58.000Z</time>
      </trkpt>
      <trkpt lat="44.11493" lon="6.32435">
        <ele>1047</ele>
        <time>2019-06-23T08:22:59.000Z</time>
      </trkpt>
      <trkpt lat="44.11495" lon="6.3244">
        <ele>1045.8</ele>
        <time>2019-06-23T08:23:00.000Z</time>
      </trkpt>
      <trkpt lat="44.11497" lon="6.32447">
        <ele>1044.6</ele>
        <time>2019-06-23T08:23:01.000Z</time>
      </trkpt>
      <trkpt lat="44.11499" lon="6.32454">
        <ele>1043.4</ele>
        <time>2019-06-23T08:23:02.000Z</time>
      </trkpt>
      <trkpt lat="44.11503" lon="6.32459">
        <ele>1042</ele>
        <time>2019-06-23T08:23:03.000Z</time>
      </trkpt>
      <trkpt lat="44.11506" lon="6.32462">
        <ele>1040.8</ele>
        <time>2019-06-23T08:23:04.000Z</time>
      </trkpt>
      <trkpt lat="44.11509" lon="6.32462">
        <ele>1039.6</ele>
        <time>2019-06-23T08:23:05.000Z</time>
      </trkpt>
      <trkpt lat="44.11514" lon="6.3246">
        <ele>1038.2</ele>
        <time>2019-06-23T08:23:07.000Z</time>
      </trkpt>
      <trkpt lat="44.1152" lon="6.32454">
        <ele>1036.6</ele>
        <time>2019-06-23T08:23:09.000Z</time>
      </trkpt>
      <trkpt lat="44.11524" lon="6.32451">
        <ele>1035.6</ele>
        <time>2019-06-23T08:23:10.000Z</time>
      </trkpt>
      <trkpt lat="44.11527" lon="6.32449">
        <ele>1034.4</ele>
        <time>2019-06-23T08:23:11.000Z</time>
      </trkpt>
      <trkpt lat="44.11531" lon="6.32447">
        <ele>1033.4</ele>
        <time>2019-06-23T08:23:12.000Z</time>
      </trkpt>
      <trkpt lat="44.11535" lon="6.32444">
        <ele>1032.2</ele>
        <time>2019-06-23T08:23:13.000Z</time>
      </trkpt>
      <trkpt lat="44.1154" lon="6.32441">
        <ele>1031.2</ele>
        <time>2019-06-23T08:23:14.000Z</time>
      </trkpt>
      <trkpt lat="44.11546" lon="6.32438">
        <ele>1030.4</ele>
        <time>2019-06-23T08:23:15.000Z</time>
      </trkpt>
      <trkpt lat="44.1155" lon="6.32437">
        <ele>1030</ele>
        <time>2019-06-23T08:23:16.000Z</time>
      </trkpt>
      <trkpt lat="44.11554" lon="6.32436">
        <ele>1029.8</ele>
        <time>2019-06-23T08:23:17.000Z</time>
      </trkpt>
      <trkpt lat="44.11556" lon="6.32436">
        <ele>1029.6</ele>
        <time>2019-06-23T08:23:18.000Z</time>
      </trkpt>
      <trkpt lat="44.11567" lon="6.3243">
        <ele>1030.6</ele>
        <time>2019-06-23T08:23:23.000Z</time>
      </trkpt>
      <trkpt lat="44.11574" lon="6.3241">
        <ele>1029.6</ele>
        <time>2019-06-23T08:23:26.000Z</time>
      </trkpt>
      <trkpt lat="44.11576" lon="6.32405">
        <ele>1028.4</ele>
        <time>2019-06-23T08:23:27.000Z</time>
      </trkpt>
      <trkpt lat="44.11578" lon="6.32401">
        <ele>1026.8</ele>
        <time>2019-06-23T08:23:28.000Z</time>
      </trkpt>
      <trkpt lat="44.11581" lon="6.32397">
        <ele>1025.2</ele>
        <time>2019-06-23T08:23:29.000Z</time>
      </trkpt>
      <trkpt lat="44.11584" lon="6.32393">
        <ele>1024.2</ele>
        <time>2019-06-23T08:23:30.000Z</time>
      </trkpt>
      <trkpt lat="44.11589" lon="6.32391">
        <ele>1023.2</ele>
        <time>2019-06-23T08:23:31.000Z</time>
      </trkpt>
      <trkpt lat="44.11593" lon="6.32391">
        <ele>1022</ele>
        <time>2019-06-23T08:23:32.000Z</time>
      </trkpt>
      <trkpt lat="44.11595" lon="6.32392">
        <ele>1021.2</ele>
        <time>2019-06-23T08:23:33.000Z</time>
      </trkpt>
      <trkpt lat="44.11598" lon="6.32394">
        <ele>1020.4</ele>
        <time>2019-06-23T08:23:34.000Z</time>
      </trkpt>
      <trkpt lat="44.11609" lon="6.32398">
        <ele>1019</ele>
        <time>2019-06-23T08:23:36.000Z</time>
      </trkpt>
      <trkpt lat="44.11622" lon="6.324">
        <ele>1017</ele>
        <time>2019-06-23T08:23:38.000Z</time>
      </trkpt>
      <trkpt lat="44.11628" lon="6.32397">
        <ele>1016</ele>
        <time>2019-06-23T08:23:39.000Z</time>
      </trkpt>
      <trkpt lat="44.1164" lon="6.3239">
        <ele>1014.8</ele>
        <time>2019-06-23T08:23:41.000Z</time>
      </trkpt>
      <trkpt lat="44.11645" lon="6.32386">
        <ele>1014.2</ele>
        <time>2019-06-23T08:23:42.000Z</time>
      </trkpt>
      <trkpt lat="44.11649" lon="6.32383">
        <ele>1013.4</ele>
        <time>2019-06-23T08:23:43.000Z</time>
      </trkpt>
      <trkpt lat="44.11653" lon="6.32378">
        <ele>1012.8</ele>
        <time>2019-06-23T08:23:44.000Z</time>
      </trkpt>
      <trkpt lat="44.11657" lon="6.32372">
        <ele>1012.4</ele>
        <time>2019-06-23T08:23:45.000Z</time>
      </trkpt>
      <trkpt lat="44.11666" lon="6.3236">
        <ele>1012</ele>
        <time>2019-06-23T08:23:47.000Z</time>
      </trkpt>
      <trkpt lat="44.11679" lon="6.32355">
        <ele>1011.4</ele>
        <time>2019-06-23T08:23:50.000Z</time>
      </trkpt>
      <trkpt lat="44.11688" lon="6.32352">
        <ele>1011.4</ele>
        <time>2019-06-23T08:23:52.000Z</time>
      </trkpt>
      <trkpt lat="44.11692" lon="6.32349">
        <ele>1011.4</ele>
        <time>2019-06-23T08:23:53.000Z</time>
      </trkpt>
      <trkpt lat="44.117" lon="6.32341">
        <ele>1011.2</ele>
        <time>2019-06-23T08:23:55.000Z</time>
      </trkpt>
      <trkpt lat="44.11705" lon="6.32338">
        <ele>1011.2</ele>
        <time>2019-06-23T08:23:56.000Z</time>
      </trkpt>
      <trkpt lat="44.11723" lon="6.3233">
        <ele>1011</ele>
        <time>2019-06-23T08:23:59.000Z</time>
      </trkpt>
      <trkpt lat="44.11738" lon="6.32325">
        <ele>1009.8</ele>
        <time>2019-06-23T08:24:01.000Z</time>
      </trkpt>
      <trkpt lat="44.11751" lon="6.32321">
        <ele>1008.4</ele>
        <time>2019-06-23T08:24:03.000Z</time>
      </trkpt>
      <trkpt lat="44.11766" lon="6.32324">
        <ele>1007.8</ele>
        <time>2019-06-23T08:24:05.000Z</time>
      </trkpt>
      <trkpt lat="44.11773" lon="6.32323">
        <ele>1007.6</ele>
        <time>2019-06-23T08:24:06.000Z</time>
      </trkpt>
      <trkpt lat="44.11779" lon="6.32319">
        <ele>1007.2</ele>
        <time>2019-06-23T08:24:07.000Z</time>
      </trkpt>
      <trkpt lat="44.11784" lon="6.32314">
        <ele>1006.8</ele>
        <time>2019-06-23T08:24:08.000Z</time>
      </trkpt>
      <trkpt lat="44.11788" lon="6.3231">
        <ele>1006.6</ele>
        <time>2019-06-23T08:24:09.000Z</time>
      </trkpt>
      <trkpt lat="44.11791" lon="6.32306">
        <ele>1006.2</ele>
        <time>2019-06-23T08:24:11.000Z</time>
      </trkpt>
      <trkpt lat="44.11794" lon="6.32301">
        <ele>1005.8</ele>
        <time>2019-06-23T08:24:12.000Z</time>
      </trkpt>
      <trkpt lat="44.11799" lon="6.32293">
        <ele>1004.8</ele>
        <time>2019-06-23T08:24:13.000Z</time>
      </trkpt>
      <trkpt lat="44.11807" lon="6.32288">
        <ele>1003</ele>
        <time>2019-06-23T08:24:14.000Z</time>
      </trkpt>
      <trkpt lat="44.11814" lon="6.32286">
        <ele>1001.2</ele>
        <time>2019-06-23T08:24:15.000Z</time>
      </trkpt>
      <trkpt lat="44.11819" lon="6.32284">
        <ele>1000</ele>
        <time>2019-06-23T08:24:16.000Z</time>
      </trkpt>
      <trkpt lat="44.11822" lon="6.3228">
        <ele>999.4</ele>
        <time>2019-06-23T08:24:17.000Z</time>
      </trkpt>
      <trkpt lat="44.11825" lon="6.32275">
        <ele>999</ele>
        <time>2019-06-23T08:24:18.000Z</time>
      </trkpt>
      <trkpt lat="44.1183" lon="6.32262">
        <ele>998.4</ele>
        <time>2019-06-23T08:24:20.000Z</time>
      </trkpt>
      <trkpt lat="44.11836" lon="6.32249">
        <ele>997.8</ele>
        <time>2019-06-23T08:24:23.000Z</time>
      </trkpt>
      <trkpt lat="44.11839" lon="6.32243">
        <ele>997.6</ele>
        <time>2019-06-23T08:24:24.000Z</time>
      </trkpt>
      <trkpt lat="44.11846" lon="6.32233">
        <ele>997.2</ele>
        <time>2019-06-23T08:24:26.000Z</time>
      </trkpt>
      <trkpt lat="44.11852" lon="6.32227">
        <ele>996.8</ele>
        <time>2019-06-23T08:24:28.000Z</time>
      </trkpt>
      <trkpt lat="44.11856" lon="6.32224">
        <ele>996.6</ele>
        <time>2019-06-23T08:24:29.000Z</time>
      </trkpt>
      <trkpt lat="44.11866" lon="6.32217">
        <ele>996.8</ele>
        <time>2019-06-23T08:24:32.000Z</time>
      </trkpt>
      <trkpt lat="44.1187" lon="6.32214">
        <ele>997.8</ele>
        <time>2019-06-23T08:24:34.000Z</time>
      </trkpt>
      <trkpt lat="44.11874" lon="6.32212">
        <ele>999</ele>
        <time>2019-06-23T08:24:36.000Z</time>
      </trkpt>
      <trkpt lat="44.11876" lon="6.3221">
        <ele>999.4</ele>
        <time>2019-06-23T08:24:37.000Z</time>
      </trkpt>
      <trkpt lat="44.1188" lon="6.32209">
        <ele>1000.4</ele>
        <time>2019-06-23T08:24:39.000Z</time>
      </trkpt>
      <trkpt lat="44.11884" lon="6.32207">
        <ele>1001.8</ele>
        <time>2019-06-23T08:24:41.000Z</time>
      </trkpt>
      <trkpt lat="44.11886" lon="6.32205">
        <ele>1002.4</ele>
        <time>2019-06-23T08:24:42.000Z</time>
      </trkpt>
      <trkpt lat="44.11889" lon="6.32203">
        <ele>1002.8</ele>
        <time>2019-06-23T08:24:43.000Z</time>
      </trkpt>
      <trkpt lat="44.1189" lon="6.322">
        <ele>1003.2</ele>
        <time>2019-06-23T08:24:44.000Z</time>
      </trkpt>
      <trkpt lat="44.11891" lon="6.32194">
        <ele>1003.6</ele>
        <time>2019-06-23T08:24:46.000Z</time>
      </trkpt>
      <trkpt lat="44.11887" lon="6.32186">
        <ele>1004</ele>
        <time>2019-06-23T08:24:49.000Z</time>
      </trkpt>
      <trkpt lat="44.11884" lon="6.32181">
        <ele>1004.2</ele>
        <time>2019-06-23T08:24:51.000Z</time>
      </trkpt>
      <trkpt lat="44.11872" lon="6.32164">
        <ele>1003.2</ele>
        <time>2019-06-23T08:24:57.000Z</time>
        <extensions>
          <visugpx:TrkExtension xmlns:visugpx="https://www.visugpx.com/editgpx/">
            <visugpx:node>3</visugpx:node>
            </visugpx:TrkExtension>
        </extensions>
      </trkpt>
      <trkpt lat="44.1187" lon="6.32138">
        <ele>1004</ele>
        <time>2019-06-23T08:26:16.000Z</time>
        <extensions>
          <visugpx:TrkExtension xmlns:visugpx="https://www.visugpx.com/editgpx/">
            <visugpx:node>1</visugpx:node>
            </visugpx:TrkExtension>
        </extensions>
      </trkpt>
      <trkpt lat="44.1188" lon="6.32131">
        <ele>1002.8</ele>
        <time>2019-06-23T08:26:19.000Z</time>
      </trkpt>
      <trkpt lat="44.11882" lon="6.32133">
        <ele>1002.2</ele>
        <time>2019-06-23T08:26:20.000Z</time>
      </trkpt>
      <trkpt lat="44.11884" lon="6.32136">
        <ele>1001.6</ele>
        <time>2019-06-23T08:26:21.000Z</time>
      </trkpt>
      <trkpt lat="44.11886" lon="6.32141">
        <ele>1000.8</ele>
        <time>2019-06-23T08:26:23.000Z</time>
      </trkpt>
      <trkpt lat="44.11888" lon="6.32142">
        <ele>1000.4</ele>
        <time>2019-06-23T08:26:24.000Z</time>
      </trkpt>
      <trkpt lat="44.11894" lon="6.32137">
        <ele>999</ele>
        <time>2019-06-23T08:26:26.000Z</time>
      </trkpt>
      <trkpt lat="44.11905" lon="6.32132">
        <ele>997.2</ele>
        <time>2019-06-23T08:26:28.000Z</time>
      </trkpt>
      <trkpt lat="44.11909" lon="6.3213">
        <ele>996</ele>
        <time>2019-06-23T08:26:29.000Z</time>
      </trkpt>
      <trkpt lat="44.11914" lon="6.32129">
        <ele>994.8</ele>
        <time>2019-06-23T08:26:30.000Z</time>
      </trkpt>
      <trkpt lat="44.11918" lon="6.3213">
        <ele>993.2</ele>
        <time>2019-06-23T08:26:31.000Z</time>
      </trkpt>
      <trkpt lat="44.11923" lon="6.32129">
        <ele>991.8</ele>
        <time>2019-06-23T08:26:32.000Z</time>
      </trkpt>
      <trkpt lat="44.11928" lon="6.32125">
        <ele>989.8</ele>
        <time>2019-06-23T08:26:34.000Z</time>
      </trkpt>
      <trkpt lat="44.11928" lon="6.32121">
        <ele>988.6</ele>
        <time>2019-06-23T08:26:35.000Z</time>
      </trkpt>
      <trkpt lat="44.11927" lon="6.32118">
        <ele>987.6</ele>
        <time>2019-06-23T08:26:36.000Z</time>
      </trkpt>
      <trkpt lat="44.11919" lon="6.32116">
        <ele>985.6</ele>
        <time>2019-06-23T08:26:38.000Z</time>
      </trkpt>
      <trkpt lat="44.11914" lon="6.32114">
        <ele>984.8</ele>
        <time>2019-06-23T08:26:39.000Z</time>
      </trkpt>
      <trkpt lat="44.11909" lon="6.32109">
        <ele>984.2</ele>
        <time>2019-06-23T08:26:40.000Z</time>
      </trkpt>
      <trkpt lat="44.11905" lon="6.32104">
        <ele>983.4</ele>
        <time>2019-06-23T08:26:41.000Z</time>
      </trkpt>
      <trkpt lat="44.11902" lon="6.32098">
        <ele>982.4</ele>
        <time>2019-06-23T08:26:42.000Z</time>
      </trkpt>
      <trkpt lat="44.11901" lon="6.32088">
        <ele>980.8</ele>
        <time>2019-06-23T08:26:44.000Z</time>
      </trkpt>
      <trkpt lat="44.11905" lon="6.32081">
        <ele>980</ele>
        <time>2019-06-23T08:26:46.000Z</time>
      </trkpt>
      <trkpt lat="44.11912" lon="6.32068">
        <ele>979.8</ele>
        <time>2019-06-23T08:26:49.000Z</time>
      </trkpt>
      <trkpt lat="44.11916" lon="6.32065">
        <ele>979.6</ele>
        <time>2019-06-23T08:26:50.000Z</time>
      </trkpt>
      <trkpt lat="44.11922" lon="6.32063">
        <ele>978.6</ele>
        <time>2019-06-23T08:26:51.000Z</time>
      </trkpt>
      <trkpt lat="44.11929" lon="6.32064">
        <ele>977.2</ele>
        <time>2019-06-23T08:26:52.000Z</time>
      </trkpt>
      <trkpt lat="44.11936" lon="6.32067">
        <ele>975.4</ele>
        <time>2019-06-23T08:26:53.000Z</time>
      </trkpt>
      <trkpt lat="44.11943" lon="6.32072">
        <ele>973.6</ele>
        <time>2019-06-23T08:26:54.000Z</time>
      </trkpt>
      <trkpt lat="44.1195" lon="6.32076">
        <ele>972.4</ele>
        <time>2019-06-23T08:26:55.000Z</time>
      </trkpt>
      <trkpt lat="44.11958" lon="6.3208">
        <ele>971.6</ele>
        <time>2019-06-23T08:26:56.000Z</time>
      </trkpt>
      <trkpt lat="44.11964" lon="6.32084">
        <ele>971</ele>
        <time>2019-06-23T08:26:57.000Z</time>
      </trkpt>
      <trkpt lat="44.11974" lon="6.32097">
        <ele>970.4</ele>
        <time>2019-06-23T08:26:59.000Z</time>
      </trkpt>
      <trkpt lat="44.1198" lon="6.32102">
        <ele>970.2</ele>
        <time>2019-06-23T08:27:00.000Z</time>
      </trkpt>
      <trkpt lat="44.11985" lon="6.32107">
        <ele>970</ele>
        <time>2019-06-23T08:27:01.000Z</time>
      </trkpt>
      <trkpt lat="44.1199" lon="6.3211">
        <ele>970</ele>
        <time>2019-06-23T08:27:02.000Z</time>
      </trkpt>
      <trkpt lat="44.11995" lon="6.32113">
        <ele>969.6</ele>
        <time>2019-06-23T08:27:03.000Z</time>
      </trkpt>
      <trkpt lat="44.12003" lon="6.32114">
        <ele>970</ele>
        <time>2019-06-23T08:27:05.000Z</time>
      </trkpt>
      <trkpt lat="44.12009" lon="6.32111">
        <ele>971</ele>
        <time>2019-06-23T08:27:07.000Z</time>
      </trkpt>
      <trkpt lat="44.12015" lon="6.32111">
        <ele>972.2</ele>
        <time>2019-06-23T08:27:09.000Z</time>
      </trkpt>
      <trkpt lat="44.12019" lon="6.32112">
        <ele>972.4</ele>
        <time>2019-06-23T08:27:10.000Z</time>
      </trkpt>
      <trkpt lat="44.12023" lon="6.32114">
        <ele>972.6</ele>
        <time>2019-06-23T08:27:11.000Z</time>
      </trkpt>
      <trkpt lat="44.12027" lon="6.32123">
        <ele>972</ele>
        <time>2019-06-23T08:27:13.000Z</time>
      </trkpt>
      <trkpt lat="44.12031" lon="6.32134">
        <ele>971</ele>
        <time>2019-06-23T08:27:15.000Z</time>
      </trkpt>
      <trkpt lat="44.12033" lon="6.32138">
        <ele>970.2</ele>
        <time>2019-06-23T08:27:16.000Z</time>
      </trkpt>
      <trkpt lat="44.12035" lon="6.32141">
        <ele>969.4</ele>
        <time>2019-06-23T08:27:17.000Z</time>
      </trkpt>
      <trkpt lat="44.1204" lon="6.32148">
        <ele>968</ele>
        <time>2019-06-23T08:27:19.000Z</time>
      </trkpt>
      <trkpt lat="44.12043" lon="6.3215">
        <ele>967</ele>
        <time>2019-06-23T08:27:20.000Z</time>
      </trkpt>
      <trkpt lat="44.12047" lon="6.32151">
        <ele>966.2</ele>
        <time>2019-06-23T08:27:21.000Z</time>
      </trkpt>
      <trkpt lat="44.12051" lon="6.32152">
        <ele>965.2</ele>
        <time>2019-06-23T08:27:22.000Z</time>
      </trkpt>
      <trkpt lat="44.12055" lon="6.32154">
        <ele>964</ele>
        <time>2019-06-23T08:27:23.000Z</time>
      </trkpt>
      <trkpt lat="44.1206" lon="6.32159">
        <ele>962.8</ele>
        <time>2019-06-23T08:27:24.000Z</time>
      </trkpt>
      <trkpt lat="44.12065" lon="6.32165">
        <ele>961.6</ele>
        <time>2019-06-23T08:27:25.000Z</time>
      </trkpt>
      <trkpt lat="44.12071" lon="6.32171">
        <ele>960.4</ele>
        <time>2019-06-23T08:27:26.000Z</time>
      </trkpt>
      <trkpt lat="44.12078" lon="6.32175">
        <ele>959</ele>
        <time>2019-06-23T08:27:27.000Z</time>
      </trkpt>
      <trkpt lat="44.12084" lon="6.32177">
        <ele>957.8</ele>
        <time>2019-06-23T08:27:28.000Z</time>
      </trkpt>
      <trkpt lat="44.1209" lon="6.32176">
        <ele>957.2</ele>
        <time>2019-06-23T08:27:29.000Z</time>
      </trkpt>
      <trkpt lat="44.12096" lon="6.32176">
        <ele>957</ele>
        <time>2019-06-23T08:27:30.000Z</time>
      </trkpt>
      <trkpt lat="44.12101" lon="6.32178">
        <ele>956.8</ele>
        <time>2019-06-23T08:27:31.000Z</time>
      </trkpt>
      <trkpt lat="44.12106" lon="6.32181">
        <ele>956.6</ele>
        <time>2019-06-23T08:27:32.000Z</time>
      </trkpt>
      <trkpt lat="44.1211" lon="6.32182">
        <ele>956.6</ele>
        <time>2019-06-23T08:27:33.000Z</time>
      </trkpt>
      <trkpt lat="44.12117" lon="6.32185">
        <ele>956.4</ele>
        <time>2019-06-23T08:27:35.000Z</time>
      </trkpt>
      <trkpt lat="44.12121" lon="6.32187">
        <ele>956.4</ele>
        <time>2019-06-23T08:27:36.000Z</time>
      </trkpt>
      <trkpt lat="44.12125" lon="6.32189">
        <ele>956.6</ele>
        <time>2019-06-23T08:27:37.000Z</time>
      </trkpt>
      <trkpt lat="44.12134" lon="6.32188">
        <ele>956.8</ele>
        <time>2019-06-23T08:27:39.000Z</time>
      </trkpt>
      <trkpt lat="44.12159" lon="6.32169">
        <ele>956.3</ele>
      </trkpt>
      <trkpt lat="44.1216" lon="6.32168">
        <ele>956.2</ele>
        <time>2019-06-23T08:29:37.000Z</time>
        <extensions>
          <visugpx:TrkExtension xmlns:visugpx="https://www.visugpx.com/editgpx/">
            <visugpx:node>1</visugpx:node>
            </visugpx:TrkExtension>
        </extensions>
      </trkpt>
      <trkpt lat="44.12164" lon="6.32164">
        <ele>957</ele>
        <time>2019-06-23T08:29:40.000Z</time>
      </trkpt>
      <trkpt lat="44.12174" lon="6.32157">
        <ele>958</ele>
        <time>2019-06-23T08:29:44.000Z</time>
      </trkpt>
      <trkpt lat="44.12177" lon="6.32155">
        <ele>958.2</ele>
        <time>2019-06-23T08:29:45.000Z</time>
      </trkpt>
      <trkpt lat="44.12191" lon="6.3215">
        <ele>958.6</ele>
        <time>2019-06-23T08:29:49.000Z</time>
      </trkpt>
      <trkpt lat="44.12202" lon="6.32154">
        <ele>959.2</ele>
        <time>2019-06-23T08:29:53.000Z</time>
      </trkpt>
      <trkpt lat="44.12204" lon="6.32156">
        <ele>959.4</ele>
        <time>2019-06-23T08:29:54.000Z</time>
      </trkpt>
      <trkpt lat="44.12207" lon="6.32158">
        <ele>959.8</ele>
        <time>2019-06-23T08:29:55.000Z</time>
      </trkpt>
      <trkpt lat="44.12208" lon="6.32161">
        <ele>960.2</ele>
        <time>2019-06-23T08:29:56.000Z</time>
      </trkpt>
      <trkpt lat="44.12209" lon="6.32165">
        <ele>960.6</ele>
        <time>2019-06-23T08:29:57.000Z</time>
      </trkpt>
      <trkpt lat="44.12209" lon="6.32168">
        <ele>961.2</ele>
        <time>2019-06-23T08:29:58.000Z</time>
      </trkpt>
      <trkpt lat="44.1221" lon="6.3217">
        <ele>961.8</ele>
        <time>2019-06-23T08:29:59.000Z</time>
      </trkpt>
      <trkpt lat="44.12217" lon="6.32182">
        <ele>962.8</ele>
        <time>2019-06-23T08:30:03.000Z</time>
      </trkpt>
      <trkpt lat="44.12227" lon="6.32201">
        <ele>962.8</ele>
        <time>2019-06-23T08:30:08.000Z</time>
      </trkpt>
      <trkpt lat="44.12229" lon="6.32211">
        <ele>961.8</ele>
        <time>2019-06-23T08:30:10.000Z</time>
      </trkpt>
      <trkpt lat="44.12229" lon="6.32216">
        <ele>961</ele>
        <time>2019-06-23T08:30:12.000Z</time>
      </trkpt>
      <trkpt lat="44.12228" lon="6.32216">
        <ele>960.6</ele>
        <time>2019-06-23T08:30:13.000Z</time>
      </trkpt>
      <trkpt lat="44.12223" lon="6.32215">
        <ele>960.2</ele>
        <time>2019-06-23T08:30:16.000Z</time>
      </trkpt>
      <trkpt lat="44.12216" lon="6.32222">
        <ele>959.6</ele>
        <time>2019-06-23T08:30:21.000Z</time>
      </trkpt>
      <trkpt lat="44.12209" lon="6.32235">
        <ele>958</ele>
        <time>2019-06-23T08:30:24.000Z</time>
      </trkpt>
      <trkpt lat="44.12206" lon="6.3224">
        <ele>956.6</ele>
        <time>2019-06-23T08:30:25.000Z</time>
      </trkpt>
      <trkpt lat="44.12204" lon="6.32246">
        <ele>955.2</ele>
        <time>2019-06-23T08:30:26.000Z</time>
      </trkpt>
      <trkpt lat="44.12202" lon="6.32254">
        <ele>953.6</ele>
        <time>2019-06-23T08:30:27.000Z</time>
      </trkpt>
      <trkpt lat="44.12201" lon="6.32261">
        <ele>951.8</ele>
        <time>2019-06-23T08:30:28.000Z</time>
      </trkpt>
      <trkpt lat="44.122" lon="6.32269">
        <ele>949.8</ele>
        <time>2019-06-23T08:30:29.000Z</time>
      </trkpt>
      <trkpt lat="44.122" lon="6.32278">
        <ele>948</ele>
        <time>2019-06-23T08:30:30.000Z</time>
      </trkpt>
      <trkpt lat="44.12201" lon="6.32287">
        <ele>946.2</ele>
        <time>2019-06-23T08:30:31.000Z</time>
      </trkpt>
      <trkpt lat="44.12202" lon="6.32296">
        <ele>944.2</ele>
        <time>2019-06-23T08:30:32.000Z</time>
      </trkpt>
      <trkpt lat="44.12204" lon="6.32306">
        <ele>942.4</ele>
        <time>2019-06-23T08:30:33.000Z</time>
      </trkpt>
      <trkpt lat="44.12204" lon="6.32315">
        <ele>940.8</ele>
        <time>2019-06-23T08:30:34.000Z</time>
      </trkpt>
      <trkpt lat="44.12204" lon="6.32325">
        <ele>939</ele>
        <time>2019-06-23T08:30:35.000Z</time>
      </trkpt>
      <trkpt lat="44.12203" lon="6.32332">
        <ele>937</ele>
        <time>2019-06-23T08:30:36.000Z</time>
      </trkpt>
      <trkpt lat="44.12202" lon="6.32339">
        <ele>935.4</ele>
        <time>2019-06-23T08:30:37.000Z</time>
      </trkpt>
      <trkpt lat="44.12201" lon="6.32344">
        <ele>933.8</ele>
        <time>2019-06-23T08:30:38.000Z</time>
      </trkpt>
      <trkpt lat="44.12201" lon="6.32348">
        <ele>932.4</ele>
        <time>2019-06-23T08:30:39.000Z</time>
      </trkpt>
      <trkpt lat="44.12202" lon="6.32355">
        <ele>931.2</ele>
        <time>2019-06-23T08:30:40.000Z</time>
      </trkpt>
      <trkpt lat="44.12202" lon="6.32364">
        <ele>930</ele>
        <time>2019-06-23T08:30:41.000Z</time>
      </trkpt>
      <trkpt lat="44.12202" lon="6.3237">
        <ele>929</ele>
        <time>2019-06-23T08:30:42.000Z</time>
      </trkpt>
      <trkpt lat="44.12201" lon="6.32379">
        <ele>927.4</ele>
        <time>2019-06-23T08:30:44.000Z</time>
      </trkpt>
      <trkpt lat="44.12198" lon="6.32394">
        <ele>926</ele>
        <time>2019-06-23T08:30:46.000Z</time>
      </trkpt>
      <trkpt lat="44.12198" lon="6.32401">
        <ele>925.2</ele>
        <time>2019-06-23T08:30:47.000Z</time>
      </trkpt>
      <trkpt lat="44.12198" lon="6.32406">
        <ele>924.4</ele>
        <time>2019-06-23T08:30:48.000Z</time>
      </trkpt>
      <trkpt lat="44.12194" lon="6.32418">
        <ele>923</ele>
        <time>2019-06-23T08:30:50.000Z</time>
      </trkpt>
      <trkpt lat="44.12192" lon="6.32424">
        <ele>922.4</ele>
        <time>2019-06-23T08:30:51.000Z</time>
      </trkpt>
      <trkpt lat="44.12192" lon="6.3243">
        <ele>922</ele>
        <time>2019-06-23T08:30:52.000Z</time>
      </trkpt>
      <trkpt lat="44.12191" lon="6.32435">
        <ele>921.6</ele>
        <time>2019-06-23T08:30:53.000Z</time>
      </trkpt>
      <trkpt lat="44.12189" lon="6.32441">
        <ele>921</ele>
        <time>2019-06-23T08:30:54.000Z</time>
      </trkpt>
      <trkpt lat="44.12186" lon="6.32449">
        <ele>920.4</ele>
        <time>2019-06-23T08:30:55.000Z</time>
      </trkpt>
      <trkpt lat="44.12184" lon="6.32457">
        <ele>919.4</ele>
        <time>2019-06-23T08:30:56.000Z</time>
      </trkpt>
      <trkpt lat="44.12182" lon="6.32463">
        <ele>918.4</ele>
        <time>2019-06-23T08:30:57.000Z</time>
      </trkpt>
      <trkpt lat="44.12176" lon="6.32475">
        <ele>917.4</ele>
        <time>2019-06-23T08:30:59.000Z</time>
      </trkpt>
      <trkpt lat="44.1217" lon="6.32484">
        <ele>916.8</ele>
        <time>2019-06-23T08:31:01.000Z</time>
      </trkpt>
      <trkpt lat="44.12161" lon="6.32494">
        <ele>916.2</ele>
        <time>2019-06-23T08:31:04.000Z</time>
      </trkpt>
      <trkpt lat="44.12158" lon="6.325">
        <ele>915.6</ele>
        <time>2019-06-23T08:31:05.000Z</time>
      </trkpt>
      <trkpt lat="44.12158" lon="6.32506">
        <ele>914.6</ele>
        <time>2019-06-23T08:31:06.000Z</time>
      </trkpt>
      <trkpt lat="44.12158" lon="6.32512">
        <ele>913.2</ele>
        <time>2019-06-23T08:31:07.000Z</time>
      </trkpt>
      <trkpt lat="44.12157" lon="6.32517">
        <ele>911.8</ele>
        <time>2019-06-23T08:31:08.000Z</time>
      </trkpt>
      <trkpt lat="44.12157" lon="6.32519">
        <ele>910.2</ele>
        <time>2019-06-23T08:31:09.000Z</time>
      </trkpt>
      <trkpt lat="44.12159" lon="6.32521">
        <ele>908.6</ele>
        <time>2019-06-23T08:31:10.000Z</time>
      </trkpt>
      <trkpt lat="44.12162" lon="6.32522">
        <ele>907</ele>
        <time>2019-06-23T08:31:12.000Z</time>
      </trkpt>
      <trkpt lat="44.12163" lon="6.32521">
        <ele>906.2</ele>
        <time>2019-06-23T08:31:15.000Z</time>
      </trkpt>
      <trkpt lat="44.12164" lon="6.3252">
        <ele>906.2</ele>
        <time>2019-06-23T08:31:16.000Z</time>
      </trkpt>
      <trkpt lat="44.12164" lon="6.3252">
        <ele>906</ele>
        <time>2019-06-23T08:31:18.000Z</time>
      </trkpt>
      <trkpt lat="44.12164" lon="6.3252">
        <ele>906</ele>
        <time>2019-06-23T08:31:19.000Z</time>
      </trkpt>
      <trkpt lat="44.12168" lon="6.32515">
        <ele>906.4</ele>
        <time>2019-06-23T08:31:25.000Z</time>
      </trkpt>
      <trkpt lat="44.12168" lon="6.32514">
        <ele>906.4</ele>
        <time>2019-06-23T08:31:30.000Z</time>
      </trkpt>
      <trkpt lat="44.12168" lon="6.32514">
        <ele>906.2</ele>
        <time>2019-06-23T08:31:34.000Z</time>
      </trkpt>
      <trkpt lat="44.12168" lon="6.32514">
        <ele>905.8</ele>
        <time>2019-06-23T08:31:36.000Z</time>
      </trkpt>
      <trkpt lat="44.12172" lon="6.32518">
        <ele>905.8</ele>
        <time>2019-06-23T08:31:48.000Z</time>
      </trkpt>
      <trkpt lat="44.12174" lon="6.32521">
        <ele>905.8</ele>
        <time>2019-06-23T08:31:49.000Z</time>
      </trkpt>
      <trkpt lat="44.12175" lon="6.32525">
        <ele>905.4</ele>
        <time>2019-06-23T08:31:50.000Z</time>
      </trkpt>
      <trkpt lat="44.12176" lon="6.32532">
        <ele>905</ele>
        <time>2019-06-23T08:31:52.000Z</time>
      </trkpt>
      <trkpt lat="44.12173" lon="6.32557">
        <ele>903.8</ele>
        <time>2019-06-23T08:31:57.000Z</time>
      </trkpt>
      <trkpt lat="44.12175" lon="6.32568">
        <ele>903</ele>
        <time>2019-06-23T08:32:00.000Z</time>
      </trkpt>
      <trkpt lat="44.12177" lon="6.32569">
        <ele>902.8</ele>
        <time>2019-06-23T08:32:01.000Z</time>
      </trkpt>
      <trkpt lat="44.1218" lon="6.32569">
        <ele>902.6</ele>
        <time>2019-06-23T08:32:02.000Z</time>
      </trkpt>
      <trkpt lat="44.12184" lon="6.3257">
        <ele>902.4</ele>
        <time>2019-06-23T08:32:03.000Z</time>
      </trkpt>
      <trkpt lat="44.12187" lon="6.32573">
        <ele>902</ele>
        <time>2019-06-23T08:32:04.000Z</time>
      </trkpt>
      <trkpt lat="44.12189" lon="6.32578">
        <ele>901.4</ele>
        <time>2019-06-23T08:32:05.000Z</time>
      </trkpt>
      <trkpt lat="44.12191" lon="6.32583">
        <ele>901</ele>
        <time>2019-06-23T08:32:06.000Z</time>
      </trkpt>
      <trkpt lat="44.1219" lon="6.32595">
        <ele>900.4</ele>
        <time>2019-06-23T08:32:08.000Z</time>
      </trkpt>
      <trkpt lat="44.12189" lon="6.326">
        <ele>900.2</ele>
        <time>2019-06-23T08:32:09.000Z</time>
      </trkpt>
      <trkpt lat="44.12186" lon="6.32611">
        <ele>899.8</ele>
        <time>2019-06-23T08:32:11.000Z</time>
      </trkpt>
      <trkpt lat="44.12187" lon="6.32622">
        <ele>899</ele>
        <time>2019-06-23T08:32:13.000Z</time>
      </trkpt>
      <trkpt lat="44.12187" lon="6.32628">
        <ele>898.6</ele>
        <time>2019-06-23T08:32:14.000Z</time>
      </trkpt>
      <trkpt lat="44.12189" lon="6.32636">
        <ele>898.2</ele>
        <time>2019-06-23T08:32:16.000Z</time>
      </trkpt>
      <trkpt lat="44.12191" lon="6.32639">
        <ele>898</ele>
        <time>2019-06-23T08:32:17.000Z</time>
      </trkpt>
      <trkpt lat="44.12193" lon="6.32641">
        <ele>897.8</ele>
        <time>2019-06-23T08:32:18.000Z</time>
      </trkpt>
      <trkpt lat="44.12197" lon="6.32648">
        <ele>897.4</ele>
        <time>2019-06-23T08:32:20.000Z</time>
      </trkpt>
      <trkpt lat="44.12203" lon="6.32657">
        <ele>897.2</ele>
        <time>2019-06-23T08:32:22.000Z</time>
      </trkpt>
      <trkpt lat="44.12218" lon="6.32664">
        <ele>896.8</ele>
        <time>2019-06-23T08:32:25.000Z</time>
      </trkpt>
      <trkpt lat="44.12222" lon="6.32666">
        <ele>896.8</ele>
        <time>2019-06-23T08:32:26.000Z</time>
      </trkpt>
      <trkpt lat="44.1223" lon="6.32668">
        <ele>896.2</ele>
        <time>2019-06-23T08:32:28.000Z</time>
      </trkpt>
      <trkpt lat="44.12232" lon="6.32667">
        <ele>895.8</ele>
        <time>2019-06-23T08:32:30.000Z</time>
      </trkpt>
      <trkpt lat="44.12237" lon="6.32667">
        <ele>895.4</ele>
        <time>2019-06-23T08:32:34.000Z</time>
      </trkpt>
      <trkpt lat="44.12244" lon="6.32663">
        <ele>895.4</ele>
        <time>2019-06-23T08:32:38.000Z</time>
      </trkpt>
      <trkpt lat="44.12248" lon="6.32662">
        <ele>895.6</ele>
        <time>2019-06-23T08:32:40.000Z</time>
      </trkpt>
      <trkpt lat="44.12254" lon="6.32663">
        <ele>897.2</ele>
        <time>2019-06-23T08:32:43.000Z</time>
      </trkpt>
      <trkpt lat="44.12258" lon="6.32666">
        <ele>898.4</ele>
        <time>2019-06-23T08:32:45.000Z</time>
      </trkpt>
      <trkpt lat="44.1226" lon="6.32667">
        <ele>899</ele>
        <time>2019-06-23T08:32:46.000Z</time>
      </trkpt>
      <trkpt lat="44.12261" lon="6.32668">
        <ele>899.4</ele>
        <time>2019-06-23T08:32:47.000Z</time>
      </trkpt>
      <trkpt lat="44.12263" lon="6.32669">
        <ele>899.6</ele>
        <time>2019-06-23T08:32:48.000Z</time>
      </trkpt>
      <trkpt lat="44.12264" lon="6.32671">
        <ele>899.8</ele>
        <time>2019-06-23T08:32:49.000Z</time>
      </trkpt>
      <trkpt lat="44.12269" lon="6.32679">
        <ele>900</ele>
        <time>2019-06-23T08:32:52.000Z</time>
      </trkpt>
      <trkpt lat="44.12274" lon="6.32687">
        <ele>899.6</ele>
        <time>2019-06-23T08:32:54.000Z</time>
      </trkpt>
      <trkpt lat="44.12278" lon="6.3269">
        <ele>899.2</ele>
        <time>2019-06-23T08:32:55.000Z</time>
      </trkpt>
      <trkpt lat="44.12282" lon="6.32692">
        <ele>898.4</ele>
        <time>2019-06-23T08:32:56.000Z</time>
      </trkpt>
      <trkpt lat="44.12285" lon="6.32694">
        <ele>897.8</ele>
        <time>2019-06-23T08:32:57.000Z</time>
      </trkpt>
      <trkpt lat="44.12287" lon="6.32694">
        <ele>897</ele>
        <time>2019-06-23T08:32:58.000Z</time>
      </trkpt>
      <trkpt lat="44.12289" lon="6.32695">
        <ele>896.2</ele>
        <time>2019-06-23T08:32:59.000Z</time>
      </trkpt>
      <trkpt lat="44.1229" lon="6.32699">
        <ele>895.8</ele>
        <time>2019-06-23T08:33:00.000Z</time>
      </trkpt>
      <trkpt lat="44.12293" lon="6.32703">
        <ele>895.4</ele>
        <time>2019-06-23T08:33:01.000Z</time>
      </trkpt>
      <trkpt lat="44.12297" lon="6.32707">
        <ele>895.2</ele>
        <time>2019-06-23T08:33:03.000Z</time>
      </trkpt>
      <trkpt lat="44.12301" lon="6.32711">
        <ele>895</ele>
        <time>2019-06-23T08:33:05.000Z</time>
      </trkpt>
      <trkpt lat="44.1231" lon="6.32728">
        <ele>895</ele>
        <time>2019-06-23T08:33:10.000Z</time>
      </trkpt>
      <trkpt lat="44.12312" lon="6.32742">
        <ele>894.6</ele>
        <time>2019-06-23T08:33:12.000Z</time>
      </trkpt>
      <trkpt lat="44.12315" lon="6.32755">
        <ele>892.8</ele>
        <time>2019-06-23T08:33:14.000Z</time>
      </trkpt>
      <trkpt lat="44.12317" lon="6.32759">
        <ele>892</ele>
        <time>2019-06-23T08:33:15.000Z</time>
      </trkpt>
      <trkpt lat="44.12318" lon="6.32764">
        <ele>891.6</ele>
        <time>2019-06-23T08:33:16.000Z</time>
      </trkpt>
      <trkpt lat="44.12319" lon="6.32768">
        <ele>891.2</ele>
        <time>2019-06-23T08:33:17.000Z</time>
      </trkpt>
      <trkpt lat="44.12319" lon="6.32785">
        <ele>891</ele>
        <time>2019-06-23T08:33:22.000Z</time>
      </trkpt>
      <trkpt lat="44.1232" lon="6.32793">
        <ele>891</ele>
        <time>2019-06-23T08:33:27.000Z</time>
      </trkpt>
      <trkpt lat="44.12321" lon="6.32794">
        <ele>891.2</ele>
        <time>2019-06-23T08:33:29.000Z</time>
      </trkpt>
      <trkpt lat="44.12325" lon="6.328">
        <ele>891.2</ele>
        <time>2019-06-23T08:33:35.000Z</time>
      </trkpt>
      <trkpt lat="44.12324" lon="6.328">
        <ele>891.4</ele>
        <time>2019-06-23T08:33:38.000Z</time>
      </trkpt>
      <trkpt lat="44.12324" lon="6.328">
        <ele>891.4</ele>
        <time>2019-06-23T08:33:39.000Z</time>
      </trkpt>
      <trkpt lat="44.12324" lon="6.328">
        <ele>891.2</ele>
        <time>2019-06-23T08:33:40.000Z</time>
      </trkpt>
      <trkpt lat="44.12324" lon="6.328">
        <ele>890.6</ele>
        <time>2019-06-23T08:33:44.000Z</time>
      </trkpt>
      <trkpt lat="44.12323" lon="6.32801">
        <ele>890.8</ele>
        <time>2019-06-23T08:33:53.000Z</time>
      </trkpt>
      <trkpt lat="44.12317" lon="6.32802">
        <ele>891.4</ele>
        <time>2019-06-23T08:34:03.000Z</time>
      </trkpt>
      <trkpt lat="44.12315" lon="6.32801">
        <ele>891.4</ele>
        <time>2019-06-23T08:34:15.000Z</time>
      </trkpt>
      <trkpt lat="44.12315" lon="6.32802">
        <ele>891.2</ele>
        <time>2019-06-23T08:34:17.000Z</time>
      </trkpt>
      <trkpt lat="44.12315" lon="6.32803">
        <ele>891</ele>
        <time>2019-06-23T08:34:24.000Z</time>
      </trkpt>
      <trkpt lat="44.12315" lon="6.32804">
        <ele>891</ele>
        <time>2019-06-23T08:34:26.000Z</time>
      </trkpt>
      <trkpt lat="44.12315" lon="6.32803">
        <ele>891</ele>
        <time>2019-06-23T08:34:29.000Z</time>
      </trkpt>
      <trkpt lat="44.12315" lon="6.32803">
        <ele>891</ele>
        <time>2019-06-23T08:34:30.000Z</time>
      </trkpt>
      <trkpt lat="44.12315" lon="6.32803">
        <ele>891</ele>
        <time>2019-06-23T08:34:31.000Z</time>
      </trkpt>
      <trkpt lat="44.12314" lon="6.32803">
        <ele>891</ele>
        <time>2019-06-23T08:34:32.000Z</time>
      </trkpt>
      <trkpt lat="44.12314" lon="6.32803">
        <ele>891</ele>
        <time>2019-06-23T08:34:34.000Z</time>
      </trkpt>
      <trkpt lat="44.12315" lon="6.32804">
        <ele>891</ele>
        <time>2019-06-23T08:34:39.000Z</time>
      </trkpt>
      <trkpt lat="44.12316" lon="6.32804">
        <ele>891</ele>
        <time>2019-06-23T08:34:40.000Z</time>
      </trkpt>
      <trkpt lat="44.12317" lon="6.32805">
        <ele>891</ele>
        <time>2019-06-23T08:34:41.000Z</time>
      </trkpt>
      <trkpt lat="44.1232" lon="6.3281">
        <ele>891</ele>
        <time>2019-06-23T08:34:45.000Z</time>
      </trkpt>
      <trkpt lat="44.12328" lon="6.3282">
        <ele>893</ele>
        <time>2019-06-23T08:34:50.000Z</time>
      </trkpt>
      <trkpt lat="44.12329" lon="6.32823">
        <ele>893.6</ele>
        <time>2019-06-23T08:34:51.000Z</time>
      </trkpt>
      <trkpt lat="44.12329" lon="6.32826">
        <ele>893.8</ele>
        <time>2019-06-23T08:34:52.000Z</time>
      </trkpt>
      <trkpt lat="44.12331" lon="6.32828">
        <ele>894.2</ele>
        <time>2019-06-23T08:34:53.000Z</time>
      </trkpt>
      <trkpt lat="44.12335" lon="6.32832">
        <ele>894.6</ele>
        <time>2019-06-23T08:34:55.000Z</time>
      </trkpt>
      <trkpt lat="44.12339" lon="6.32834">
        <ele>894.8</ele>
        <time>2019-06-23T08:34:56.000Z</time>
      </trkpt>
      <trkpt lat="44.1235" lon="6.32848">
        <ele>895.2</ele>
        <time>2019-06-23T08:35:00.000Z</time>
      </trkpt>
      <trkpt lat="44.12351" lon="6.32851">
        <ele>895.6</ele>
        <time>2019-06-23T08:35:01.000Z</time>
      </trkpt>
      <trkpt lat="44.12354" lon="6.32854">
        <ele>896</ele>
        <time>2019-06-23T08:35:02.000Z</time>
      </trkpt>
      <trkpt lat="44.1236" lon="6.32854">
        <ele>896.2</ele>
        <time>2019-06-23T08:35:04.000Z</time>
      </trkpt>
      <trkpt lat="44.12363" lon="6.32851">
        <ele>896.4</ele>
        <time>2019-06-23T08:35:05.000Z</time>
      </trkpt>
      <trkpt lat="44.12374" lon="6.32846">
        <ele>896</ele>
        <time>2019-06-23T08:35:08.000Z</time>
      </trkpt>
      <trkpt lat="44.12378" lon="6.32843">
        <ele>895.4</ele>
        <time>2019-06-23T08:35:09.000Z</time>
      </trkpt>
      <trkpt lat="44.12382" lon="6.3284">
        <ele>895</ele>
        <time>2019-06-23T08:35:10.000Z</time>
      </trkpt>
      <trkpt lat="44.1239" lon="6.32832">
        <ele>894.4</ele>
        <time>2019-06-23T08:35:12.000Z</time>
      </trkpt>
      <trkpt lat="44.12402" lon="6.32821">
        <ele>894.2</ele>
        <time>2019-06-23T08:35:15.000Z</time>
      </trkpt>
      <trkpt lat="44.12404" lon="6.32816">
        <ele>893.8</ele>
        <time>2019-06-23T08:35:16.000Z</time>
      </trkpt>
      <trkpt lat="44.12406" lon="6.32812">
        <ele>893.2</ele>
        <time>2019-06-23T08:35:17.000Z</time>
      </trkpt>
      <trkpt lat="44.1241" lon="6.3281">
        <ele>892.6</ele>
        <time>2019-06-23T08:35:18.000Z</time>
      </trkpt>
      <trkpt lat="44.12414" lon="6.32811">
        <ele>891.8</ele>
        <time>2019-06-23T08:35:19.000Z</time>
      </trkpt>
      <trkpt lat="44.12418" lon="6.32813">
        <ele>891.2</ele>
        <time>2019-06-23T08:35:20.000Z</time>
      </trkpt>
      <trkpt lat="44.12421" lon="6.32818">
        <ele>890</ele>
        <time>2019-06-23T08:35:22.000Z</time>
      </trkpt>
      <trkpt lat="44.12422" lon="6.32821">
        <ele>889</ele>
        <time>2019-06-23T08:35:23.000Z</time>
      </trkpt>
      <trkpt lat="44.12424" lon="6.32822">
        <ele>887.8</ele>
        <time>2019-06-23T08:35:24.000Z</time>
      </trkpt>
      <trkpt lat="44.12427" lon="6.3282">
        <ele>886.4</ele>
        <time>2019-06-23T08:35:26.000Z</time>
      </trkpt>
      <trkpt lat="44.12428" lon="6.3282">
        <ele>886</ele>
        <time>2019-06-23T08:35:28.000Z</time>
      </trkpt>
      <trkpt lat="44.12428" lon="6.32821">
        <ele>886.4</ele>
        <time>2019-06-23T08:35:30.000Z</time>
      </trkpt>
      <trkpt lat="44.12429" lon="6.32823">
        <ele>886.6</ele>
        <time>2019-06-23T08:35:34.000Z</time>
      </trkpt>
      <trkpt lat="44.12431" lon="6.32825">
        <ele>886.6</ele>
        <time>2019-06-23T08:35:35.000Z</time>
      </trkpt>
      <trkpt lat="44.12431" lon="6.32828">
        <ele>886.6</ele>
        <time>2019-06-23T08:35:37.000Z</time>
      </trkpt>
      <trkpt lat="44.12432" lon="6.3283">
        <ele>886.6</ele>
        <time>2019-06-23T08:35:38.000Z</time>
      </trkpt>
      <trkpt lat="44.12434" lon="6.32831">
        <ele>886.6</ele>
        <time>2019-06-23T08:35:39.000Z</time>
      </trkpt>
      <trkpt lat="44.12443" lon="6.32833">
        <ele>887.6</ele>
        <time>2019-06-23T08:35:43.000Z</time>
      </trkpt>
      <trkpt lat="44.12447" lon="6.32831">
        <ele>888</ele>
        <time>2019-06-23T08:35:45.000Z</time>
      </trkpt>
      <trkpt lat="44.1245" lon="6.32832">
        <ele>888.8</ele>
        <time>2019-06-23T08:35:47.000Z</time>
      </trkpt>
      <trkpt lat="44.12454" lon="6.32833">
        <ele>889.8</ele>
        <time>2019-06-23T08:35:49.000Z</time>
      </trkpt>
      <trkpt lat="44.12456" lon="6.32834">
        <ele>890.2</ele>
        <time>2019-06-23T08:35:50.000Z</time>
      </trkpt>
      <trkpt lat="44.12457" lon="6.32836">
        <ele>890.8</ele>
        <time>2019-06-23T08:35:51.000Z</time>
      </trkpt>
      <trkpt lat="44.12458" lon="6.32841">
        <ele>891.6</ele>
        <time>2019-06-23T08:35:53.000Z</time>
      </trkpt>
      <trkpt lat="44.12456" lon="6.32849">
        <ele>892.6</ele>
        <time>2019-06-23T08:35:57.000Z</time>
      </trkpt>
      <trkpt lat="44.12457" lon="6.32851">
        <ele>892.6</ele>
        <time>2019-06-23T08:35:58.000Z</time>
      </trkpt>
      <trkpt lat="44.12457" lon="6.32853">
        <ele>892.8</ele>
        <time>2019-06-23T08:35:59.000Z</time>
      </trkpt>
      <trkpt lat="44.12459" lon="6.3286">
        <ele>893.8</ele>
        <time>2019-06-23T08:36:03.000Z</time>
      </trkpt>
      <trkpt lat="44.1246" lon="6.32862">
        <ele>894.2</ele>
        <time>2019-06-23T08:36:04.000Z</time>
      </trkpt>
      <trkpt lat="44.12463" lon="6.32863">
        <ele>894.4</ele>
        <time>2019-06-23T08:36:06.000Z</time>
      </trkpt>
      <trkpt lat="44.12466" lon="6.32865">
        <ele>895</ele>
        <time>2019-06-23T08:36:09.000Z</time>
      </trkpt>
      <trkpt lat="44.12466" lon="6.32865">
        <ele>895.6</ele>
        <time>2019-06-23T08:36:11.000Z</time>
      </trkpt>
      <trkpt lat="44.12467" lon="6.32866">
        <ele>895.8</ele>
        <time>2019-06-23T08:36:17.000Z</time>
      </trkpt>
      <trkpt lat="44.12467" lon="6.32866">
        <ele>895.6</ele>
        <time>2019-06-23T08:36:18.000Z</time>
      </trkpt>
      <trkpt lat="44.12468" lon="6.32867">
        <ele>895.6</ele>
        <time>2019-06-23T08:36:21.000Z</time>
      </trkpt>
      <trkpt lat="44.12471" lon="6.32871">
        <ele>896</ele>
        <time>2019-06-23T08:36:26.000Z</time>
      </trkpt>
      <trkpt lat="44.12472" lon="6.32872">
        <ele>896.4</ele>
        <time>2019-06-23T08:36:27.000Z</time>
      </trkpt>
      <trkpt lat="44.12476" lon="6.32874">
        <ele>897.4</ele>
        <time>2019-06-23T08:36:31.000Z</time>
      </trkpt>
      <trkpt lat="44.12479" lon="6.32874">
        <ele>898.6</ele>
        <time>2019-06-23T08:36:35.000Z</time>
      </trkpt>
      <trkpt lat="44.12482" lon="6.32875">
        <ele>899.2</ele>
        <time>2019-06-23T08:36:38.000Z</time>
      </trkpt>
      <trkpt lat="44.12483" lon="6.32877">
        <ele>899.6</ele>
        <time>2019-06-23T08:36:40.000Z</time>
      </trkpt>
      <trkpt lat="44.12484" lon="6.32878">
        <ele>900</ele>
        <time>2019-06-23T08:36:43.000Z</time>
      </trkpt>
      <trkpt lat="44.12487" lon="6.3288">
        <ele>900.6</ele>
        <time>2019-06-23T08:36:46.000Z</time>
      </trkpt>
      <trkpt lat="44.12487" lon="6.32881">
        <ele>901</ele>
        <time>2019-06-23T08:36:47.000Z</time>
      </trkpt>
      <trkpt lat="44.12488" lon="6.32881">
        <ele>901.4</ele>
        <time>2019-06-23T08:36:48.000Z</time>
      </trkpt>
      <trkpt lat="44.1249" lon="6.32883">
        <ele>902</ele>
        <time>2019-06-23T08:36:51.000Z</time>
      </trkpt>
      <trkpt lat="44.12491" lon="6.32885">
        <ele>902.8</ele>
        <time>2019-06-23T08:36:54.000Z</time>
      </trkpt>
      <trkpt lat="44.12494" lon="6.32887">
        <ele>903.4</ele>
        <time>2019-06-23T08:36:57.000Z</time>
      </trkpt>
      <trkpt lat="44.12496" lon="6.3289">
        <ele>904.6</ele>
        <time>2019-06-23T08:37:01.000Z</time>
      </trkpt>
      <trkpt lat="44.12497" lon="6.32892">
        <ele>905.2</ele>
        <time>2019-06-23T08:37:03.000Z</time>
      </trkpt>
      <trkpt lat="44.12497" lon="6.32892">
        <ele>905.6</ele>
        <time>2019-06-23T08:37:04.000Z</time>
      </trkpt>
      <trkpt lat="44.12497" lon="6.32894">
        <ele>906.4</ele>
        <time>2019-06-23T08:37:07.000Z</time>
      </trkpt>
      <trkpt lat="44.12497" lon="6.32896">
        <ele>906.6</ele>
        <time>2019-06-23T08:37:09.000Z</time>
      </trkpt>
      <trkpt lat="44.12497" lon="6.32899">
        <ele>907.4</ele>
        <time>2019-06-23T08:37:13.000Z</time>
      </trkpt>
      <trkpt lat="44.12498" lon="6.329">
        <ele>908</ele>
        <time>2019-06-23T08:37:14.000Z</time>
      </trkpt>
      <trkpt lat="44.125" lon="6.32904">
        <ele>909.2</ele>
        <time>2019-06-23T08:37:18.000Z</time>
      </trkpt>
      <trkpt lat="44.12501" lon="6.32908">
        <ele>909.8</ele>
        <time>2019-06-23T08:37:23.000Z</time>
      </trkpt>
      <trkpt lat="44.12503" lon="6.32909">
        <ele>910.2</ele>
        <time>2019-06-23T08:37:26.000Z</time>
      </trkpt>
      <trkpt lat="44.12505" lon="6.32912">
        <ele>910.2</ele>
        <time>2019-06-23T08:37:28.000Z</time>
      </trkpt>
      <trkpt lat="44.12513" lon="6.32924">
        <ele>910.4</ele>
        <time>2019-06-23T08:37:34.000Z</time>
      </trkpt>
      <trkpt lat="44.12513" lon="6.32926">
        <ele>910.8</ele>
        <time>2019-06-23T08:37:35.000Z</time>
      </trkpt>
      <trkpt lat="44.12513" lon="6.32927">
        <ele>911.2</ele>
        <time>2019-06-23T08:37:36.000Z</time>
      </trkpt>
      <trkpt lat="44.12514" lon="6.32928">
        <ele>911.4</ele>
        <time>2019-06-23T08:37:37.000Z</time>
      </trkpt>
      <trkpt lat="44.12514" lon="6.32928">
        <ele>911.6</ele>
        <time>2019-06-23T08:37:38.000Z</time>
      </trkpt>
      <trkpt lat="44.12514" lon="6.32927">
        <ele>911.8</ele>
        <time>2019-06-23T08:37:39.000Z</time>
      </trkpt>
      <trkpt lat="44.12514" lon="6.32927">
        <ele>911.4</ele>
        <time>2019-06-23T08:37:45.000Z</time>
      </trkpt>
      <trkpt lat="44.12514" lon="6.32927">
        <ele>911.4</ele>
        <time>2019-06-23T08:37:47.000Z</time>
      </trkpt>
      <trkpt lat="44.12515" lon="6.32932">
        <ele>911.6</ele>
        <time>2019-06-23T08:38:00.000Z</time>
      </trkpt>
      <trkpt lat="44.12516" lon="6.32934">
        <ele>911.8</ele>
        <time>2019-06-23T08:38:01.000Z</time>
      </trkpt>
      <trkpt lat="44.12516" lon="6.32936">
        <ele>911.8</ele>
        <time>2019-06-23T08:38:02.000Z</time>
      </trkpt>
      <trkpt lat="44.12519" lon="6.32941">
        <ele>912</ele>
        <time>2019-06-23T08:38:05.000Z</time>
      </trkpt>
      <trkpt lat="44.12526" lon="6.32954">
        <ele>912</ele>
        <time>2019-06-23T08:38:10.000Z</time>
      </trkpt>
      <trkpt lat="44.12528" lon="6.32957">
        <ele>912</ele>
        <time>2019-06-23T08:38:11.000Z</time>
      </trkpt>
      <trkpt lat="44.12535" lon="6.32969">
        <ele>912.4</ele>
        <time>2019-06-23T08:38:16.000Z</time>
      </trkpt>
      <trkpt lat="44.12538" lon="6.32976">
        <ele>912.4</ele>
        <time>2019-06-23T08:38:18.000Z</time>
      </trkpt>
      <trkpt lat="44.12542" lon="6.32987">
        <ele>912.4</ele>
        <time>2019-06-23T08:38:21.000Z</time>
      </trkpt>
      <trkpt lat="44.12543" lon="6.3299">
        <ele>912.2</ele>
        <time>2019-06-23T08:38:22.000Z</time>
      </trkpt>
      <trkpt lat="44.12547" lon="6.32996">
        <ele>912</ele>
        <time>2019-06-23T08:38:24.000Z</time>
      </trkpt>
      <trkpt lat="44.12556" lon="6.33001">
        <ele>912.4</ele>
        <time>2019-06-23T08:38:28.000Z</time>
      </trkpt>
      <trkpt lat="44.12558" lon="6.33003">
        <ele>912.6</ele>
        <time>2019-06-23T08:38:29.000Z</time>
      </trkpt>
      <trkpt lat="44.12562" lon="6.33005">
        <ele>913</ele>
        <time>2019-06-23T08:38:31.000Z</time>
      </trkpt>
      <trkpt lat="44.12567" lon="6.33005">
        <ele>913.6</ele>
        <time>2019-06-23T08:38:33.000Z</time>
      </trkpt>
      <trkpt lat="44.12569" lon="6.33007">
        <ele>913.8</ele>
        <time>2019-06-23T08:38:34.000Z</time>
      </trkpt>
      <trkpt lat="44.12574" lon="6.33009">
        <ele>914.4</ele>
        <time>2019-06-23T08:38:36.000Z</time>
      </trkpt>
      <trkpt lat="44.12576" lon="6.33008">
        <ele>914.8</ele>
        <time>2019-06-23T08:38:37.000Z</time>
      </trkpt>
      <trkpt lat="44.12579" lon="6.33006">
        <ele>915</ele>
        <time>2019-06-23T08:38:38.000Z</time>
      </trkpt>
      <trkpt lat="44.12583" lon="6.33005">
        <ele>916</ele>
        <time>2019-06-23T08:38:40.000Z</time>
      </trkpt>
      <trkpt lat="44.12586" lon="6.33005">
        <ele>916.6</ele>
        <time>2019-06-23T08:38:41.000Z</time>
      </trkpt>
      <trkpt lat="44.12588" lon="6.33009">
        <ele>917.2</ele>
        <time>2019-06-23T08:38:43.000Z</time>
      </trkpt>
      <trkpt lat="44.12588" lon="6.33012">
        <ele>917.4</ele>
        <time>2019-06-23T08:38:44.000Z</time>
      </trkpt>
      <trkpt lat="44.12578" lon="6.33023">
        <ele>918</ele>
        <time>2019-06-23T08:38:49.000Z</time>
      </trkpt>
      <trkpt lat="44.12576" lon="6.33025">
        <ele>918.2</ele>
        <time>2019-06-23T08:38:50.000Z</time>
      </trkpt>
      <trkpt lat="44.12573" lon="6.33026">
        <ele>918.2</ele>
        <time>2019-06-23T08:38:51.000Z</time>
      </trkpt>
      <trkpt lat="44.12562" lon="6.33037">
        <ele>919</ele>
        <time>2019-06-23T08:38:56.000Z</time>
      </trkpt>
      <trkpt lat="44.12553" lon="6.33046">
        <ele>919.4</ele>
        <time>2019-06-23T08:39:00.000Z</time>
      </trkpt>
      <trkpt lat="44.12546" lon="6.33053">
        <ele>920</ele>
        <time>2019-06-23T08:39:03.000Z</time>
      </trkpt>
      <trkpt lat="44.12539" lon="6.33056">
        <ele>920.4</ele>
        <time>2019-06-23T08:39:05.000Z</time>
      </trkpt>
      <trkpt lat="44.12524" lon="6.33054">
        <ele>921</ele>
        <time>2019-06-23T08:39:09.000Z</time>
      </trkpt>
      <trkpt lat="44.12514" lon="6.33058">
        <ele>921.6</ele>
        <time>2019-06-23T08:39:12.000Z</time>
      </trkpt>
      <trkpt lat="44.12511" lon="6.3306">
        <ele>921.6</ele>
        <time>2019-06-23T08:39:13.000Z</time>
      </trkpt>
      <trkpt lat="44.12505" lon="6.33066">
        <ele>922</ele>
        <time>2019-06-23T08:39:15.000Z</time>
      </trkpt>
      <trkpt lat="44.12496" lon="6.33075">
        <ele>922.8</ele>
        <time>2019-06-23T08:39:18.000Z</time>
      </trkpt>
      <trkpt lat="44.1249" lon="6.33082">
        <ele>923.6</ele>
        <time>2019-06-23T08:39:20.000Z</time>
      </trkpt>
      <trkpt lat="44.12488" lon="6.33085">
        <ele>924</ele>
        <time>2019-06-23T08:39:21.000Z</time>
      </trkpt>
      <trkpt lat="44.12485" lon="6.33088">
        <ele>924.2</ele>
        <time>2019-06-23T08:39:22.000Z</time>
      </trkpt>
      <trkpt lat="44.12482" lon="6.33091">
        <ele>924.4</ele>
        <time>2019-06-23T08:39:23.000Z</time>
      </trkpt>
      <trkpt lat="44.1247" lon="6.33104">
        <ele>925.2</ele>
        <time>2019-06-23T08:39:27.000Z</time>
      </trkpt>
      <trkpt lat="44.12456" lon="6.33121">
        <ele>926.2</ele>
        <time>2019-06-23T08:39:32.000Z</time>
      </trkpt>
      <trkpt lat="44.12454" lon="6.33125">
        <ele>926.6</ele>
        <time>2019-06-23T08:39:33.000Z</time>
      </trkpt>
      <trkpt lat="44.12452" lon="6.33135">
        <ele>927.4</ele>
        <time>2019-06-23T08:39:35.000Z</time>
      </trkpt>
      <trkpt lat="44.12453" lon="6.3314">
        <ele>927.6</ele>
        <time>2019-06-23T08:39:36.000Z</time>
      </trkpt>
      <trkpt lat="44.12453" lon="6.33145">
        <ele>927.8</ele>
        <time>2019-06-23T08:39:37.000Z</time>
      </trkpt>
      <trkpt lat="44.12449" lon="6.33158">
        <ele>928.6</ele>
        <time>2019-06-23T08:39:40.000Z</time>
      </trkpt>
      <trkpt lat="44.12446" lon="6.33161">
        <ele>928.8</ele>
        <time>2019-06-23T08:39:41.000Z</time>
      </trkpt>
      <trkpt lat="44.12437" lon="6.33168">
        <ele>929.8</ele>
        <time>2019-06-23T08:39:44.000Z</time>
      </trkpt>
      <trkpt lat="44.12434" lon="6.3317">
        <ele>930</ele>
        <time>2019-06-23T08:39:45.000Z</time>
      </trkpt>
      <trkpt lat="44.12425" lon="6.33177">
        <ele>930.8</ele>
        <time>2019-06-23T08:39:48.000Z</time>
      </trkpt>
      <trkpt lat="44.12422" lon="6.3318">
        <ele>931</ele>
        <time>2019-06-23T08:39:49.000Z</time>
      </trkpt>
      <trkpt lat="44.12416" lon="6.33192">
        <ele>931.8</ele>
        <time>2019-06-23T08:39:52.000Z</time>
      </trkpt>
      <trkpt lat="44.12416" lon="6.33202">
        <ele>932.2</ele>
        <time>2019-06-23T08:39:54.000Z</time>
      </trkpt>
      <trkpt lat="44.12417" lon="6.33211">
        <ele>932.8</ele>
        <time>2019-06-23T08:39:56.000Z</time>
      </trkpt>
      <trkpt lat="44.12417" lon="6.33216">
        <ele>933</ele>
        <time>2019-06-23T08:39:57.000Z</time>
      </trkpt>
      <trkpt lat="44.12417" lon="6.33226">
        <ele>933.2</ele>
        <time>2019-06-23T08:39:59.000Z</time>
      </trkpt>
      <trkpt lat="44.12415" lon="6.33241">
        <ele>933.8</ele>
        <time>2019-06-23T08:40:02.000Z</time>
      </trkpt>
      <trkpt lat="44.12414" lon="6.3325">
        <ele>934.4</ele>
        <time>2019-06-23T08:40:04.000Z</time>
      </trkpt>
      <trkpt lat="44.12413" lon="6.33255">
        <ele>934.8</ele>
        <time>2019-06-23T08:40:05.000Z</time>
      </trkpt>
      <trkpt lat="44.12407" lon="6.33283">
        <ele>935.6</ele>
        <time>2019-06-23T08:40:11.000Z</time>
      </trkpt>
      <trkpt lat="44.12404" lon="6.33297">
        <ele>936.2</ele>
        <time>2019-06-23T08:40:14.000Z</time>
      </trkpt>
      <trkpt lat="44.12401" lon="6.33311">
        <ele>936.6</ele>
        <time>2019-06-23T08:40:17.000Z</time>
      </trkpt>
      <trkpt lat="44.12398" lon="6.3332">
        <ele>937</ele>
        <time>2019-06-23T08:40:19.000Z</time>
      </trkpt>
      <trkpt lat="44.12393" lon="6.33333">
        <ele>937.4</ele>
        <time>2019-06-23T08:40:22.000Z</time>
      </trkpt>
      <trkpt lat="44.12391" lon="6.33337">
        <ele>937.8</ele>
        <time>2019-06-23T08:40:23.000Z</time>
      </trkpt>
      <trkpt lat="44.12377" lon="6.3335">
        <ele>938.2</ele>
        <time>2019-06-23T08:40:28.000Z</time>
      </trkpt>
      <trkpt lat="44.12364" lon="6.33354">
        <ele>938.8</ele>
        <time>2019-06-23T08:40:32.000Z</time>
      </trkpt>
      <trkpt lat="44.12361" lon="6.33354">
        <ele>939</ele>
        <time>2019-06-23T08:40:33.000Z</time>
      </trkpt>
      <trkpt lat="44.12338" lon="6.33351">
        <ele>940.2</ele>
        <time>2019-06-23T08:40:41.000Z</time>
      </trkpt>
      <trkpt lat="44.12319" lon="6.33356">
        <ele>941</ele>
        <time>2019-06-23T08:40:48.000Z</time>
      </trkpt>
      <trkpt lat="44.12316" lon="6.33357">
        <ele>941.2</ele>
        <time>2019-06-23T08:40:49.000Z</time>
      </trkpt>
      <trkpt lat="44.12303" lon="6.33364">
        <ele>941.8</ele>
        <time>2019-06-23T08:40:54.000Z</time>
      </trkpt>
      <trkpt lat="44.12294" lon="6.33367">
        <ele>942.4</ele>
        <time>2019-06-23T08:40:57.000Z</time>
      </trkpt>
      <trkpt lat="44.12291" lon="6.33368">
        <ele>942.6</ele>
        <time>2019-06-23T08:40:58.000Z</time>
      </trkpt>
      <trkpt lat="44.12279" lon="6.33372">
        <ele>943.2</ele>
        <time>2019-06-23T08:41:02.000Z</time>
      </trkpt>
      <trkpt lat="44.12276" lon="6.33373">
        <ele>943.4</ele>
        <time>2019-06-23T08:41:03.000Z</time>
      </trkpt>
      <trkpt lat="44.12267" lon="6.33376">
        <ele>944</ele>
        <time>2019-06-23T08:41:06.000Z</time>
      </trkpt>
      <trkpt lat="44.12264" lon="6.33376">
        <ele>944.4</ele>
        <time>2019-06-23T08:41:07.000Z</time>
      </trkpt>
      <trkpt lat="44.12248" lon="6.33384">
        <ele>945.4</ele>
        <time>2019-06-23T08:41:13.000Z</time>
      </trkpt>
      <trkpt lat="44.12245" lon="6.33386">
        <ele>945.6</ele>
        <time>2019-06-23T08:41:14.000Z</time>
      </trkpt>
      <trkpt lat="44.12233" lon="6.33389">
        <ele>946.4</ele>
        <time>2019-06-23T08:41:18.000Z</time>
      </trkpt>
      <trkpt lat="44.12227" lon="6.33389">
        <ele>946.6</ele>
        <time>2019-06-23T08:41:20.000Z</time>
      </trkpt>
      <trkpt lat="44.12204" lon="6.33384">
        <ele>947.6</ele>
        <time>2019-06-23T08:41:27.000Z</time>
      </trkpt>
      <trkpt lat="44.12198" lon="6.33383">
        <ele>947.8</ele>
        <time>2019-06-23T08:41:29.000Z</time>
      </trkpt>
      <trkpt lat="44.1218" lon="6.3338">
        <ele>948.8</ele>
        <time>2019-06-23T08:41:35.000Z</time>
      </trkpt>
      <trkpt lat="44.12174" lon="6.33379">
        <ele>949</ele>
        <time>2019-06-23T08:41:37.000Z</time>
      </trkpt>
      <trkpt lat="44.12162" lon="6.33379">
        <ele>949.6</ele>
        <time>2019-06-23T08:41:41.000Z</time>
      </trkpt>
      <trkpt lat="44.12159" lon="6.33379">
        <ele>949.8</ele>
        <time>2019-06-23T08:41:42.000Z</time>
      </trkpt>
      <trkpt lat="44.1215" lon="6.3338">
        <ele>950.8</ele>
        <time>2019-06-23T08:41:45.000Z</time>
      </trkpt>
      <trkpt lat="44.12148" lon="6.33381">
        <ele>951</ele>
        <time>2019-06-23T08:41:46.000Z</time>
      </trkpt>
      <trkpt lat="44.12137" lon="6.33392">
        <ele>951.8</ele>
        <time>2019-06-23T08:41:51.000Z</time>
      </trkpt>
      <trkpt lat="44.12329" lon="6.33414">
        <ele>964.4</ele>
        <time>2019-06-23T09:02:18.000Z</time>
      </trkpt>
      <trkpt lat="44.12337" lon="6.33411">
        <ele>964.6</ele>
        <time>2019-06-23T09:02:20.000Z</time>
      </trkpt>
      <trkpt lat="44.12342" lon="6.3341">
        <ele>964.4</ele>
        <time>2019-06-23T09:02:21.000Z</time>
      </trkpt>
      <trkpt lat="44.12351" lon="6.33408">
        <ele>964.4</ele>
        <time>2019-06-23T09:02:23.000Z</time>
      </trkpt>
      <trkpt lat="44.12365" lon="6.33404">
        <ele>964</ele>
        <time>2019-06-23T09:02:26.000Z</time>
      </trkpt>
      <trkpt lat="44.12377" lon="6.33406">
        <ele>963.4</ele>
        <time>2019-06-23T09:02:28.000Z</time>
      </trkpt>
      <trkpt lat="44.12383" lon="6.33409">
        <ele>963.2</ele>
        <time>2019-06-23T09:02:29.000Z</time>
      </trkpt>
      <trkpt lat="44.124" lon="6.3342">
        <ele>961.8</ele>
        <time>2019-06-23T09:02:32.000Z</time>
      </trkpt>
      <trkpt lat="44.12406" lon="6.33422">
        <ele>961.6</ele>
        <time>2019-06-23T09:02:33.000Z</time>
      </trkpt>
      <trkpt lat="44.12411" lon="6.33425">
        <ele>961.4</ele>
        <time>2019-06-23T09:02:34.000Z</time>
      </trkpt>
      <trkpt lat="44.1242" lon="6.33428">
        <ele>961.6</ele>
        <time>2019-06-23T09:02:36.000Z</time>
      </trkpt>
      <trkpt lat="44.12432" lon="6.33435">
        <ele>962.4</ele>
        <time>2019-06-23T09:02:39.000Z</time>
      </trkpt>
      <trkpt lat="44.12435" lon="6.33437">
        <ele>963</ele>
        <time>2019-06-23T09:02:40.000Z</time>
      </trkpt>
      <trkpt lat="44.12447" lon="6.33443">
        <ele>964</ele>
        <time>2019-06-23T09:02:44.000Z</time>
      </trkpt>
      <trkpt lat="44.1245" lon="6.33445">
        <ele>964.2</ele>
        <time>2019-06-23T09:02:45.000Z</time>
      </trkpt>
      <trkpt lat="44.1245" lon="6.33447">
        <ele>964.2</ele>
        <time>2019-06-23T09:02:46.000Z</time>
      </trkpt>
      <trkpt lat="44.1245" lon="6.33448">
        <ele>964.4</ele>
        <time>2019-06-23T09:02:48.000Z</time>
      </trkpt>
      <trkpt lat="44.1245" lon="6.33455">
        <ele>964</ele>
        <time>2019-06-23T09:02:55.000Z</time>
      </trkpt>
      <trkpt lat="44.12457" lon="6.33477">
        <ele>963.6</ele>
        <time>2019-06-23T09:02:59.000Z</time>
      </trkpt>
      <trkpt lat="44.12462" lon="6.3349">
        <ele>962.8</ele>
        <time>2019-06-23T09:03:01.000Z</time>
      </trkpt>
      <trkpt lat="44.12466" lon="6.33506">
        <ele>961.8</ele>
        <time>2019-06-23T09:03:03.000Z</time>
      </trkpt>
      <trkpt lat="44.1247" lon="6.33512">
        <ele>961.2</ele>
        <time>2019-06-23T09:03:04.000Z</time>
      </trkpt>
      <trkpt lat="44.12475" lon="6.33518">
        <ele>960.8</ele>
        <time>2019-06-23T09:03:05.000Z</time>
      </trkpt>
      <trkpt lat="44.12491" lon="6.33535">
        <ele>959.4</ele>
        <time>2019-06-23T09:03:08.000Z</time>
      </trkpt>
      <trkpt lat="44.12496" lon="6.33541">
        <ele>958.8</ele>
        <time>2019-06-23T09:03:09.000Z</time>
      </trkpt>
      <trkpt lat="44.125" lon="6.33545">
        <ele>958.2</ele>
        <time>2019-06-23T09:03:10.000Z</time>
      </trkpt>
      <trkpt lat="44.12513" lon="6.33561">
        <ele>957</ele>
        <time>2019-06-23T09:03:14.000Z</time>
      </trkpt>
      <trkpt lat="44.12525" lon="6.33575">
        <ele>955.6</ele>
        <time>2019-06-23T09:03:19.000Z</time>
      </trkpt>
      <trkpt lat="44.12527" lon="6.33576">
        <ele>955.6</ele>
        <time>2019-06-23T09:03:20.000Z</time>
      </trkpt>
      <trkpt lat="44.12531" lon="6.33575">
        <ele>955.4</ele>
        <time>2019-06-23T09:03:22.000Z</time>
      </trkpt>
      <trkpt lat="44.12537" lon="6.33573">
        <ele>955.6</ele>
        <time>2019-06-23T09:03:24.000Z</time>
      </trkpt>
      <trkpt lat="44.12544" lon="6.33573">
        <ele>956</ele>
        <time>2019-06-23T09:03:26.000Z</time>
      </trkpt>
      <trkpt lat="44.12548" lon="6.33574">
        <ele>956.2</ele>
        <time>2019-06-23T09:03:27.000Z</time>
      </trkpt>
      <trkpt lat="44.12561" lon="6.33578">
        <ele>956.6</ele>
        <time>2019-06-23T09:03:30.000Z</time>
      </trkpt>
      <trkpt lat="44.12564" lon="6.3358">
        <ele>956.6</ele>
        <time>2019-06-23T09:03:31.000Z</time>
      </trkpt>
      <trkpt lat="44.12569" lon="6.33581">
        <ele>956.8</ele>
        <time>2019-06-23T09:03:32.000Z</time>
      </trkpt>
      <trkpt lat="44.12592" lon="6.33587">
        <ele>957.2</ele>
        <time>2019-06-23T09:03:37.000Z</time>
      </trkpt>
      <trkpt lat="44.12595" lon="6.33588">
        <ele>957.2</ele>
        <time>2019-06-23T09:03:38.000Z</time>
      </trkpt>
      <trkpt lat="44.12601" lon="6.33592">
        <ele>957.4</ele>
        <time>2019-06-23T09:03:42.000Z</time>
      </trkpt>
      <trkpt lat="44.12601" lon="6.33594">
        <ele>957.4</ele>
        <time>2019-06-23T09:03:51.000Z</time>
      </trkpt>
      <trkpt lat="44.12604" lon="6.33596">
        <ele>957.6</ele>
        <time>2019-06-23T09:03:58.000Z</time>
      </trkpt>
      <trkpt lat="44.12608" lon="6.33598">
        <ele>957.8</ele>
        <time>2019-06-23T09:04:01.000Z</time>
      </trkpt>
      <trkpt lat="44.1261" lon="6.336">
        <ele>957.8</ele>
        <time>2019-06-23T09:04:03.000Z</time>
      </trkpt>
      <trkpt lat="44.12622" lon="6.33609">
        <ele>958</ele>
        <time>2019-06-23T09:04:08.000Z</time>
      </trkpt>
      <trkpt lat="44.12628" lon="6.33615">
        <ele>958.2</ele>
        <time>2019-06-23T09:04:10.000Z</time>
      </trkpt>
      <trkpt lat="44.12633" lon="6.3362">
        <ele>958.4</ele>
        <time>2019-06-23T09:04:12.000Z</time>
      </trkpt>
      <trkpt lat="44.12636" lon="6.33624">
        <ele>958.4</ele>
        <time>2019-06-23T09:04:13.000Z</time>
      </trkpt>
      <trkpt lat="44.12639" lon="6.33629">
        <ele>958.4</ele>
        <time>2019-06-23T09:04:14.000Z</time>
      </trkpt>
      <trkpt lat="44.12649" lon="6.33641">
        <ele>958</ele>
        <time>2019-06-23T09:04:17.000Z</time>
      </trkpt>
      <trkpt lat="44.12659" lon="6.33651">
        <ele>956.4</ele>
        <time>2019-06-23T09:04:20.000Z</time>
      </trkpt>
      <trkpt lat="44.12663" lon="6.33653">
        <ele>955.8</ele>
        <time>2019-06-23T09:04:21.000Z</time>
      </trkpt>
      <trkpt lat="44.12666" lon="6.33656">
        <ele>955.4</ele>
        <time>2019-06-23T09:04:22.000Z</time>
      </trkpt>
      <trkpt lat="44.12675" lon="6.33663">
        <ele>954.2</ele>
        <time>2019-06-23T09:04:24.000Z</time>
      </trkpt>
      <trkpt lat="44.12679" lon="6.33668">
        <ele>953.6</ele>
        <time>2019-06-23T09:04:25.000Z</time>
      </trkpt>
      <trkpt lat="44.12681" lon="6.33673">
        <ele>953</ele>
        <time>2019-06-23T09:04:26.000Z</time>
      </trkpt>
      <trkpt lat="44.12686" lon="6.33686">
        <ele>951.8</ele>
        <time>2019-06-23T09:04:28.000Z</time>
      </trkpt>
      <trkpt lat="44.12688" lon="6.33691">
        <ele>951.6</ele>
        <time>2019-06-23T09:04:29.000Z</time>
      </trkpt>
      <trkpt lat="44.1269" lon="6.33698">
        <ele>951.6</ele>
        <time>2019-06-23T09:04:30.000Z</time>
      </trkpt>
      <trkpt lat="44.12695" lon="6.33713">
        <ele>951.2</ele>
        <time>2019-06-23T09:04:32.000Z</time>
      </trkpt>
      <trkpt lat="44.12694" lon="6.33721">
        <ele>950.8</ele>
        <time>2019-06-23T09:04:33.000Z</time>
      </trkpt>
      <trkpt lat="44.12693" lon="6.33728">
        <ele>950.4</ele>
        <time>2019-06-23T09:04:34.000Z</time>
      </trkpt>
      <trkpt lat="44.12693" lon="6.33734">
        <ele>949.6</ele>
        <time>2019-06-23T09:04:35.000Z</time>
      </trkpt>
      <trkpt lat="44.12695" lon="6.33737">
        <ele>949</ele>
        <time>2019-06-23T09:04:36.000Z</time>
      </trkpt>
      <trkpt lat="44.12699" lon="6.33738">
        <ele>948.4</ele>
        <time>2019-06-23T09:04:37.000Z</time>
      </trkpt>
      <trkpt lat="44.12706" lon="6.33736">
        <ele>947.8</ele>
        <time>2019-06-23T09:04:39.000Z</time>
      </trkpt>
      <trkpt lat="44.1271" lon="6.33734">
        <ele>947.4</ele>
        <time>2019-06-23T09:04:41.000Z</time>
      </trkpt>
      <trkpt lat="44.12719" lon="6.3373">
        <ele>947.6</ele>
        <time>2019-06-23T09:04:44.000Z</time>
      </trkpt>
      <trkpt lat="44.12727" lon="6.33725">
        <ele>949.2</ele>
        <time>2019-06-23T09:04:48.000Z</time>
      </trkpt>
      <trkpt lat="44.12732" lon="6.33725">
        <ele>950.4</ele>
        <time>2019-06-23T09:04:50.000Z</time>
      </trkpt>
      <trkpt lat="44.12738" lon="6.33724">
        <ele>951.4</ele>
        <time>2019-06-23T09:04:53.000Z</time>
      </trkpt>
      <trkpt lat="44.12741" lon="6.33723">
        <ele>951.6</ele>
        <time>2019-06-23T09:04:54.000Z</time>
      </trkpt>
      <trkpt lat="44.12752" lon="6.3372">
        <ele>952.8</ele>
        <time>2019-06-23T09:05:00.000Z</time>
      </trkpt>
      <trkpt lat="44.12754" lon="6.3372">
        <ele>953</ele>
        <time>2019-06-23T09:05:01.000Z</time>
      </trkpt>
      <trkpt lat="44.12761" lon="6.33719">
        <ele>953.8</ele>
        <time>2019-06-23T09:05:04.000Z</time>
      </trkpt>
      <trkpt lat="44.1277" lon="6.33717">
        <ele>954.4</ele>
        <time>2019-06-23T09:05:08.000Z</time>
      </trkpt>
      <trkpt lat="44.12772" lon="6.33716">
        <ele>954.8</ele>
        <time>2019-06-23T09:05:09.000Z</time>
      </trkpt>
      <trkpt lat="44.12783" lon="6.33712">
        <ele>956</ele>
        <time>2019-06-23T09:05:14.000Z</time>
      </trkpt>
      <trkpt lat="44.12786" lon="6.33709">
        <ele>957</ele>
        <time>2019-06-23T09:05:16.000Z</time>
      </trkpt>
      <trkpt lat="44.12788" lon="6.33708">
        <ele>957.2</ele>
        <time>2019-06-23T09:05:17.000Z</time>
      </trkpt>
      <trkpt lat="44.12798" lon="6.33703">
        <ele>958.4</ele>
        <time>2019-06-23T09:05:22.000Z</time>
      </trkpt>
      <trkpt lat="44.12803" lon="6.337">
        <ele>959.4</ele>
        <time>2019-06-23T09:05:25.000Z</time>
      </trkpt>
      <trkpt lat="44.12807" lon="6.33699">
        <ele>960</ele>
        <time>2019-06-23T09:05:27.000Z</time>
      </trkpt>
      <trkpt lat="44.12812" lon="6.33695">
        <ele>960.4</ele>
        <time>2019-06-23T09:05:30.000Z</time>
      </trkpt>
      <trkpt lat="44.12815" lon="6.33692">
        <ele>960.8</ele>
        <time>2019-06-23T09:05:32.000Z</time>
      </trkpt>
      <trkpt lat="44.12818" lon="6.33688">
        <ele>961.4</ele>
        <time>2019-06-23T09:05:34.000Z</time>
      </trkpt>
      <trkpt lat="44.1282" lon="6.33687">
        <ele>961.6</ele>
        <time>2019-06-23T09:05:35.000Z</time>
      </trkpt>
      <trkpt lat="44.12828" lon="6.33679">
        <ele>962.8</ele>
        <time>2019-06-23T09:05:40.000Z</time>
      </trkpt>
      <trkpt lat="44.12834" lon="6.33676">
        <ele>964</ele>
        <time>2019-06-23T09:05:43.000Z</time>
      </trkpt>
      <trkpt lat="44.12836" lon="6.33675">
        <ele>964.4</ele>
        <time>2019-06-23T09:05:44.000Z</time>
      </trkpt>
      <trkpt lat="44.12844" lon="6.33668">
        <ele>965.2</ele>
        <time>2019-06-23T09:05:49.000Z</time>
      </trkpt>
      <trkpt lat="44.12851" lon="6.3366">
        <ele>966.4</ele>
        <time>2019-06-23T09:05:53.000Z</time>
      </trkpt>
      <trkpt lat="44.12853" lon="6.33658">
        <ele>967</ele>
        <time>2019-06-23T09:05:54.000Z</time>
      </trkpt>
      <trkpt lat="44.12854" lon="6.33656">
        <ele>967.4</ele>
        <time>2019-06-23T09:05:55.000Z</time>
      </trkpt>
      <trkpt lat="44.12856" lon="6.33654">
        <ele>967.6</ele>
        <time>2019-06-23T09:05:56.000Z</time>
      </trkpt>
      <trkpt lat="44.12857" lon="6.33653">
        <ele>967.8</ele>
        <time>2019-06-23T09:05:57.000Z</time>
      </trkpt>
      <trkpt lat="44.12863" lon="6.33649">
        <ele>968.8</ele>
        <time>2019-06-23T09:06:00.000Z</time>
      </trkpt>
      <trkpt lat="44.12868" lon="6.33645">
        <ele>969.4</ele>
        <time>2019-06-23T09:06:03.000Z</time>
      </trkpt>
      <trkpt lat="44.12871" lon="6.33641">
        <ele>970</ele>
        <time>2019-06-23T09:06:05.000Z</time>
      </trkpt>
      <trkpt lat="44.12876" lon="6.33637">
        <ele>970.6</ele>
        <time>2019-06-23T09:06:08.000Z</time>
      </trkpt>
      <trkpt lat="44.1288" lon="6.33635">
        <ele>971.2</ele>
        <time>2019-06-23T09:06:10.000Z</time>
      </trkpt>
      <trkpt lat="44.12886" lon="6.33633">
        <ele>972</ele>
        <time>2019-06-23T09:06:13.000Z</time>
      </trkpt>
      <trkpt lat="44.12887" lon="6.33633">
        <ele>972.2</ele>
        <time>2019-06-23T09:06:14.000Z</time>
      </trkpt>
      <trkpt lat="44.12896" lon="6.33633">
        <ele>973.2</ele>
        <time>2019-06-23T09:06:19.000Z</time>
      </trkpt>
      <trkpt lat="44.12898" lon="6.33633">
        <ele>973.4</ele>
        <time>2019-06-23T09:06:20.000Z</time>
      </trkpt>
      <trkpt lat="44.12901" lon="6.33636">
        <ele>974</ele>
        <time>2019-06-23T09:06:22.000Z</time>
      </trkpt>
      <trkpt lat="44.12905" lon="6.3364">
        <ele>974.6</ele>
        <time>2019-06-23T09:06:24.000Z</time>
      </trkpt>
      <trkpt lat="44.1291" lon="6.33647">
        <ele>974.8</ele>
        <time>2019-06-23T09:06:26.000Z</time>
      </trkpt>
      <trkpt lat="44.12918" lon="6.33657">
        <ele>974.4</ele>
        <time>2019-06-23T09:06:28.000Z</time>
      </trkpt>
      <trkpt lat="44.12922" lon="6.33661">
        <ele>974</ele>
        <time>2019-06-23T09:06:29.000Z</time>
      </trkpt>
      <trkpt lat="44.12926" lon="6.33661">
        <ele>973.8</ele>
        <time>2019-06-23T09:06:30.000Z</time>
      </trkpt>
      <trkpt lat="44.1293" lon="6.33657">
        <ele>973.6</ele>
        <time>2019-06-23T09:06:31.000Z</time>
      </trkpt>
      <trkpt lat="44.12933" lon="6.33654">
        <ele>973.4</ele>
        <time>2019-06-23T09:06:32.000Z</time>
      </trkpt>
      <trkpt lat="44.12937" lon="6.3365">
        <ele>973.2</ele>
        <time>2019-06-23T09:06:33.000Z</time>
      </trkpt>
      <trkpt lat="44.12953" lon="6.33634">
        <ele>973.2</ele>
        <time>2019-06-23T09:06:37.000Z</time>
      </trkpt>
      <trkpt lat="44.12955" lon="6.3363">
        <ele>973.2</ele>
        <time>2019-06-23T09:06:38.000Z</time>
      </trkpt>
      <trkpt lat="44.1297" lon="6.3361">
        <ele>973.2</ele>
        <time>2019-06-23T09:06:44.000Z</time>
      </trkpt>
      <trkpt lat="44.12989" lon="6.33607">
        <ele>973</ele>
        <time>2019-06-23T09:06:49.000Z</time>
      </trkpt>
      <trkpt lat="44.13008" lon="6.33609">
        <ele>973.6</ele>
        <time>2019-06-23T09:06:54.000Z</time>
      </trkpt>
      <trkpt lat="44.13016" lon="6.33608">
        <ele>973.6</ele>
        <time>2019-06-23T09:06:58.000Z</time>
      </trkpt>
      <trkpt lat="44.13023" lon="6.33608">
        <ele>973.2</ele>
        <time>2019-06-23T09:07:03.000Z</time>
      </trkpt>
      <trkpt lat="44.13032" lon="6.33612">
        <ele>972.4</ele>
        <time>2019-06-23T09:07:08.000Z</time>
      </trkpt>
      <trkpt lat="44.13034" lon="6.33613">
        <ele>972.2</ele>
        <time>2019-06-23T09:07:09.000Z</time>
      </trkpt>
      <trkpt lat="44.13036" lon="6.33615">
        <ele>972</ele>
        <time>2019-06-23T09:07:10.000Z</time>
      </trkpt>
      <trkpt lat="44.13043" lon="6.33622">
        <ele>971.4</ele>
        <time>2019-06-23T09:07:13.000Z</time>
      </trkpt>
      <trkpt lat="44.1305" lon="6.33629">
        <ele>970.8</ele>
        <time>2019-06-23T09:07:15.000Z</time>
      </trkpt>
      <trkpt lat="44.13057" lon="6.33636">
        <ele>970</ele>
        <time>2019-06-23T09:07:17.000Z</time>
      </trkpt>
      <trkpt lat="44.13066" lon="6.33644">
        <ele>968.4</ele>
        <time>2019-06-23T09:07:19.000Z</time>
      </trkpt>
      <trkpt lat="44.13071" lon="6.33647">
        <ele>968</ele>
        <time>2019-06-23T09:07:20.000Z</time>
      </trkpt>
      <trkpt lat="44.13076" lon="6.33649">
        <ele>967.6</ele>
        <time>2019-06-23T09:07:21.000Z</time>
      </trkpt>
      <trkpt lat="44.13081" lon="6.3365">
        <ele>967.4</ele>
        <time>2019-06-23T09:07:22.000Z</time>
      </trkpt>
      <trkpt lat="44.13091" lon="6.33647">
        <ele>967.2</ele>
        <time>2019-06-23T09:07:24.000Z</time>
      </trkpt>
      <trkpt lat="44.13104" lon="6.33642">
        <ele>967.2</ele>
        <time>2019-06-23T09:07:27.000Z</time>
      </trkpt>
      <trkpt lat="44.13113" lon="6.33642">
        <ele>967.2</ele>
        <time>2019-06-23T09:07:29.000Z</time>
      </trkpt>
      <trkpt lat="44.13131" lon="6.3365">
        <ele>967.2</ele>
        <time>2019-06-23T09:07:34.000Z</time>
      </trkpt>
      <trkpt lat="44.13141" lon="6.33658">
        <ele>966.6</ele>
        <time>2019-06-23T09:07:37.000Z</time>
      </trkpt>
      <trkpt lat="44.13149" lon="6.33666">
        <ele>966</ele>
        <time>2019-06-23T09:07:39.000Z</time>
      </trkpt>
      <trkpt lat="44.13154" lon="6.3367">
        <ele>965.6</ele>
        <time>2019-06-23T09:07:40.000Z</time>
      </trkpt>
      <trkpt lat="44.13164" lon="6.33679">
        <ele>964.6</ele>
        <time>2019-06-23T09:07:42.000Z</time>
      </trkpt>
      <trkpt lat="44.13181" lon="6.33691">
        <ele>963.4</ele>
        <time>2019-06-23T09:07:45.000Z</time>
      </trkpt>
      <trkpt lat="44.13187" lon="6.33693">
        <ele>963.2</ele>
        <time>2019-06-23T09:07:46.000Z</time>
      </trkpt>
      <trkpt lat="44.13205" lon="6.337">
        <ele>962</ele>
        <time>2019-06-23T09:07:49.000Z</time>
      </trkpt>
      <trkpt lat="44.13212" lon="6.33701">
        <ele>961.4</ele>
        <time>2019-06-23T09:07:50.000Z</time>
      </trkpt>
      <trkpt lat="44.13219" lon="6.33701">
        <ele>960.8</ele>
        <time>2019-06-23T09:07:51.000Z</time>
      </trkpt>
      <trkpt lat="44.13241" lon="6.33694">
        <ele>959.4</ele>
        <time>2019-06-23T09:07:54.000Z</time>
      </trkpt>
      <trkpt lat="44.13249" lon="6.33691">
        <ele>958.8</ele>
        <time>2019-06-23T09:07:55.000Z</time>
      </trkpt>
      <trkpt lat="44.13257" lon="6.33689">
        <ele>958</ele>
        <time>2019-06-23T09:07:56.000Z</time>
      </trkpt>
      <trkpt lat="44.13266" lon="6.33687">
        <ele>957.2</ele>
        <time>2019-06-23T09:07:57.000Z</time>
      </trkpt>
      <trkpt lat="44.13274" lon="6.33685">
        <ele>956.6</ele>
        <time>2019-06-23T09:07:58.000Z</time>
      </trkpt>
      <trkpt lat="44.13292" lon="6.33681">
        <ele>955.6</ele>
        <time>2019-06-23T09:08:00.000Z</time>
      </trkpt>
      <trkpt lat="44.13318" lon="6.33681">
        <ele>954</ele>
        <time>2019-06-23T09:08:03.000Z</time>
      </trkpt>
      <trkpt lat="44.13335" lon="6.33684">
        <ele>953.2</ele>
        <time>2019-06-23T09:08:05.000Z</time>
      </trkpt>
      <trkpt lat="44.13343" lon="6.33684">
        <ele>952.8</ele>
        <time>2019-06-23T09:08:06.000Z</time>
      </trkpt>
      <trkpt lat="44.13368" lon="6.33686">
        <ele>951.6</ele>
        <time>2019-06-23T09:08:09.000Z</time>
      </trkpt>
      <trkpt lat="44.13383" lon="6.33686">
        <ele>950.4</ele>
        <time>2019-06-23T09:08:11.000Z</time>
      </trkpt>
      <trkpt lat="44.1339" lon="6.33686">
        <ele>949.6</ele>
        <time>2019-06-23T09:08:12.000Z</time>
      </trkpt>
      <trkpt lat="44.13398" lon="6.33687">
        <ele>948.8</ele>
        <time>2019-06-23T09:08:13.000Z</time>
      </trkpt>
      <trkpt lat="44.13413" lon="6.33687">
        <ele>947.2</ele>
        <time>2019-06-23T09:08:15.000Z</time>
      </trkpt>
      <trkpt lat="44.13425" lon="6.33688">
        <ele>945.8</ele>
        <time>2019-06-23T09:08:17.000Z</time>
      </trkpt>
      <trkpt lat="44.1343" lon="6.33688">
        <ele>944.4</ele>
        <time>2019-06-23T09:08:19.000Z</time>
      </trkpt>
      <trkpt lat="44.1343" lon="6.33688">
        <ele>943.8</ele>
        <time>2019-06-23T09:08:20.000Z</time>
      </trkpt>
      <trkpt lat="44.1343" lon="6.33688">
        <ele>943.4</ele>
        <time>2019-06-23T09:08:21.000Z</time>
      </trkpt>
      <trkpt lat="44.13429" lon="6.3369">
        <ele>942.8</ele>
        <time>2019-06-23T09:08:29.000Z</time>
      </trkpt>
      <trkpt lat="44.13428" lon="6.3369">
        <ele>943</ele>
        <time>2019-06-23T09:08:30.000Z</time>
      </trkpt>
      <trkpt lat="44.13427" lon="6.3369">
        <ele>943</ele>
        <time>2019-06-23T09:08:31.000Z</time>
      </trkpt>
      <trkpt lat="44.13424" lon="6.33692">
        <ele>943.2</ele>
        <time>2019-06-23T09:08:34.000Z</time>
      </trkpt>
      <trkpt lat="44.13423" lon="6.33695">
        <ele>943.2</ele>
        <time>2019-06-23T09:08:35.000Z</time>
      </trkpt>
      <trkpt lat="44.13422" lon="6.33698">
        <ele>943.2</ele>
        <time>2019-06-23T09:08:36.000Z</time>
      </trkpt>
      <trkpt lat="44.13422" lon="6.33702">
        <ele>943.4</ele>
        <time>2019-06-23T09:08:37.000Z</time>
      </trkpt>
      <trkpt lat="44.13422" lon="6.33706">
        <ele>943.6</ele>
        <time>2019-06-23T09:08:38.000Z</time>
      </trkpt>
      <trkpt lat="44.13422" lon="6.33713">
        <ele>943.8</ele>
        <time>2019-06-23T09:08:40.000Z</time>
      </trkpt>
      <trkpt lat="44.13423" lon="6.33716">
        <ele>943.8</ele>
        <time>2019-06-23T09:08:41.000Z</time>
      </trkpt>
      <trkpt lat="44.13424" lon="6.33728">
        <ele>943.6</ele>
        <time>2019-06-23T09:08:44.000Z</time>
      </trkpt>
      <trkpt lat="44.13424" lon="6.33732">
        <ele>943.6</ele>
        <time>2019-06-23T09:08:45.000Z</time>
      </trkpt>
      <trkpt lat="44.13428" lon="6.33764">
        <ele>943</ele>
        <time>2019-06-23T09:08:51.000Z</time>
      </trkpt>
      <trkpt lat="44.13428" lon="6.33771">
        <ele>942.8</ele>
        <time>2019-06-23T09:08:52.000Z</time>
      </trkpt>
      <trkpt lat="44.13427" lon="6.33779">
        <ele>942.6</ele>
        <time>2019-06-23T09:08:53.000Z</time>
      </trkpt>
      <trkpt lat="44.13425" lon="6.33788">
        <ele>941.8</ele>
        <time>2019-06-23T09:08:54.000Z</time>
      </trkpt>
      <trkpt lat="44.13422" lon="6.33795">
        <ele>941</ele>
        <time>2019-06-23T09:08:55.000Z</time>
      </trkpt>
      <trkpt lat="44.13417" lon="6.33802">
        <ele>940.2</ele>
        <time>2019-06-23T09:08:56.000Z</time>
      </trkpt>
      <trkpt lat="44.13411" lon="6.3381">
        <ele>939.4</ele>
        <time>2019-06-23T09:08:57.000Z</time>
      </trkpt>
      <trkpt lat="44.13404" lon="6.33817">
        <ele>938.4</ele>
        <time>2019-06-23T09:08:58.000Z</time>
      </trkpt>
      <trkpt lat="44.13398" lon="6.33825">
        <ele>936.8</ele>
        <time>2019-06-23T09:08:59.000Z</time>
      </trkpt>
      <trkpt lat="44.13393" lon="6.33831">
        <ele>935</ele>
        <time>2019-06-23T09:09:00.000Z</time>
      </trkpt>
      <trkpt lat="44.13387" lon="6.33836">
        <ele>933.4</ele>
        <time>2019-06-23T09:09:01.000Z</time>
      </trkpt>
      <trkpt lat="44.13382" lon="6.33838">
        <ele>932</ele>
        <time>2019-06-23T09:09:02.000Z</time>
      </trkpt>
      <trkpt lat="44.13376" lon="6.33842">
        <ele>930.8</ele>
        <time>2019-06-23T09:09:03.000Z</time>
      </trkpt>
      <trkpt lat="44.13372" lon="6.33848">
        <ele>929.4</ele>
        <time>2019-06-23T09:09:04.000Z</time>
      </trkpt>
      <trkpt lat="44.13368" lon="6.33854">
        <ele>927.6</ele>
        <time>2019-06-23T09:09:05.000Z</time>
      </trkpt>
      <trkpt lat="44.13364" lon="6.33861">
        <ele>926</ele>
        <time>2019-06-23T09:09:06.000Z</time>
      </trkpt>
      <trkpt lat="44.1336" lon="6.33868">
        <ele>924.6</ele>
        <time>2019-06-23T09:09:07.000Z</time>
      </trkpt>
      <trkpt lat="44.13357" lon="6.33875">
        <ele>923.4</ele>
        <time>2019-06-23T09:09:08.000Z</time>
      </trkpt>
      <trkpt lat="44.13354" lon="6.33882">
        <ele>922</ele>
        <time>2019-06-23T09:09:09.000Z</time>
      </trkpt>
      <trkpt lat="44.13352" lon="6.33889">
        <ele>920.6</ele>
        <time>2019-06-23T09:09:10.000Z</time>
      </trkpt>
      <trkpt lat="44.13351" lon="6.33897">
        <ele>919.4</ele>
        <time>2019-06-23T09:09:11.000Z</time>
      </trkpt>
      <trkpt lat="44.13349" lon="6.33905">
        <ele>918.4</ele>
        <time>2019-06-23T09:09:12.000Z</time>
      </trkpt>
      <trkpt lat="44.13345" lon="6.33909">
        <ele>917.2</ele>
        <time>2019-06-23T09:09:13.000Z</time>
      </trkpt>
      <trkpt lat="44.1334" lon="6.33913">
        <ele>916.2</ele>
        <time>2019-06-23T09:09:14.000Z</time>
      </trkpt>
      <trkpt lat="44.13334" lon="6.33918">
        <ele>915.6</ele>
        <time>2019-06-23T09:09:15.000Z</time>
      </trkpt>
      <trkpt lat="44.13318" lon="6.33933">
        <ele>914.4</ele>
        <time>2019-06-23T09:09:18.000Z</time>
      </trkpt>
      <trkpt lat="44.13313" lon="6.33939">
        <ele>914.2</ele>
        <time>2019-06-23T09:09:19.000Z</time>
      </trkpt>
      <trkpt lat="44.13303" lon="6.33953">
        <ele>913</ele>
        <time>2019-06-23T09:09:21.000Z</time>
      </trkpt>
      <trkpt lat="44.13298" lon="6.33962">
        <ele>911.6</ele>
        <time>2019-06-23T09:09:22.000Z</time>
      </trkpt>
      <trkpt lat="44.13292" lon="6.3397">
        <ele>910</ele>
        <time>2019-06-23T09:09:23.000Z</time>
      </trkpt>
      <trkpt lat="44.13287" lon="6.33978">
        <ele>908.2</ele>
        <time>2019-06-23T09:09:24.000Z</time>
      </trkpt>
      <trkpt lat="44.13282" lon="6.33984">
        <ele>906.6</ele>
        <time>2019-06-23T09:09:25.000Z</time>
      </trkpt>
      <trkpt lat="44.13277" lon="6.33993">
        <ele>904.8</ele>
        <time>2019-06-23T09:09:26.000Z</time>
      </trkpt>
      <trkpt lat="44.13272" lon="6.34003">
        <ele>903</ele>
        <time>2019-06-23T09:09:27.000Z</time>
      </trkpt>
      <trkpt lat="44.13267" lon="6.34014">
        <ele>901.2</ele>
        <time>2019-06-23T09:09:28.000Z</time>
      </trkpt>
      <trkpt lat="44.13263" lon="6.34025">
        <ele>899.4</ele>
        <time>2019-06-23T09:09:29.000Z</time>
      </trkpt>
      <trkpt lat="44.13261" lon="6.34036">
        <ele>897.8</ele>
        <time>2019-06-23T09:09:30.000Z</time>
      </trkpt>
      <trkpt lat="44.1326" lon="6.34047">
        <ele>896.8</ele>
        <time>2019-06-23T09:09:31.000Z</time>
      </trkpt>
      <trkpt lat="44.13258" lon="6.34057">
        <ele>895.6</ele>
        <time>2019-06-23T09:09:32.000Z</time>
      </trkpt>
      <trkpt lat="44.13256" lon="6.34069">
        <ele>894.2</ele>
        <time>2019-06-23T09:09:33.000Z</time>
      </trkpt>
      <trkpt lat="44.13257" lon="6.34083">
        <ele>892.8</ele>
        <time>2019-06-23T09:09:34.000Z</time>
      </trkpt>
      <trkpt lat="44.13256" lon="6.34096">
        <ele>891.6</ele>
        <time>2019-06-23T09:09:35.000Z</time>
      </trkpt>
      <trkpt lat="44.13254" lon="6.3411">
        <ele>890.2</ele>
        <time>2019-06-23T09:09:36.000Z</time>
      </trkpt>
      <trkpt lat="44.13251" lon="6.34122">
        <ele>888.8</ele>
        <time>2019-06-23T09:09:37.000Z</time>
      </trkpt>
      <trkpt lat="44.13248" lon="6.34132">
        <ele>887.4</ele>
        <time>2019-06-23T09:09:38.000Z</time>
      </trkpt>
      <trkpt lat="44.13244" lon="6.34141">
        <ele>886.4</ele>
        <time>2019-06-23T09:09:39.000Z</time>
      </trkpt>
      <trkpt lat="44.13242" lon="6.3415">
        <ele>885.4</ele>
        <time>2019-06-23T09:09:40.000Z</time>
      </trkpt>
      <trkpt lat="44.13241" lon="6.34158">
        <ele>883.8</ele>
        <time>2019-06-23T09:09:41.000Z</time>
      </trkpt>
      <trkpt lat="44.13243" lon="6.34163">
        <ele>881.8</ele>
        <time>2019-06-23T09:09:42.000Z</time>
      </trkpt>
      <trkpt lat="44.13247" lon="6.34166">
        <ele>880</ele>
        <time>2019-06-23T09:09:43.000Z</time>
      </trkpt>
      <trkpt lat="44.13253" lon="6.34164">
        <ele>878.6</ele>
        <time>2019-06-23T09:09:44.000Z</time>
      </trkpt>
      <trkpt lat="44.13263" lon="6.34159">
        <ele>876.8</ele>
        <time>2019-06-23T09:09:46.000Z</time>
      </trkpt>
      <trkpt lat="44.13275" lon="6.34157">
        <ele>875.2</ele>
        <time>2019-06-23T09:09:48.000Z</time>
      </trkpt>
      <trkpt lat="44.13285" lon="6.34152">
        <ele>873.8</ele>
        <time>2019-06-23T09:09:50.000Z</time>
      </trkpt>
      <trkpt lat="44.13295" lon="6.34151">
        <ele>871.8</ele>
        <time>2019-06-23T09:09:52.000Z</time>
      </trkpt>
      <trkpt lat="44.13304" lon="6.34155">
        <ele>870.4</ele>
        <time>2019-06-23T09:09:54.000Z</time>
      </trkpt>
      <trkpt lat="44.1331" lon="6.34158">
        <ele>869.8</ele>
        <time>2019-06-23T09:09:55.000Z</time>
      </trkpt>
      <trkpt lat="44.13317" lon="6.34159">
        <ele>869.2</ele>
        <time>2019-06-23T09:09:56.000Z</time>
      </trkpt>
      <trkpt lat="44.13324" lon="6.3416">
        <ele>868.4</ele>
        <time>2019-06-23T09:09:57.000Z</time>
      </trkpt>
      <trkpt lat="44.1333" lon="6.3416">
        <ele>867.4</ele>
        <time>2019-06-23T09:09:58.000Z</time>
      </trkpt>
      <trkpt lat="44.13334" lon="6.3416">
        <ele>866.4</ele>
        <time>2019-06-23T09:09:59.000Z</time>
      </trkpt>
      <trkpt lat="44.13337" lon="6.34159">
        <ele>865.2</ele>
        <time>2019-06-23T09:10:00.000Z</time>
      </trkpt>
      <trkpt lat="44.13339" lon="6.3416">
        <ele>864</ele>
        <time>2019-06-23T09:10:02.000Z</time>
      </trkpt>
      <trkpt lat="44.13339" lon="6.3416">
        <ele>863.8</ele>
        <time>2019-06-23T09:10:03.000Z</time>
      </trkpt>
      <trkpt lat="44.13338" lon="6.34159">
        <ele>863.4</ele>
        <time>2019-06-23T09:10:08.000Z</time>
      </trkpt>
      <trkpt lat="44.13338" lon="6.34159">
        <ele>863.2</ele>
        <time>2019-06-23T09:10:11.000Z</time>
      </trkpt>
      <trkpt lat="44.13342" lon="6.34163">
        <ele>863.2</ele>
        <time>2019-06-23T09:10:16.000Z</time>
      </trkpt>
      <trkpt lat="44.13342" lon="6.3417">
        <ele>863</ele>
        <time>2019-06-23T09:10:19.000Z</time>
      </trkpt>
      <trkpt lat="44.13344" lon="6.34179">
        <ele>863</ele>
        <time>2019-06-23T09:10:22.000Z</time>
      </trkpt>
      <trkpt lat="44.13349" lon="6.34191">
        <ele>863.4</ele>
        <time>2019-06-23T09:10:26.000Z</time>
      </trkpt>
      <trkpt lat="44.13353" lon="6.34197">
        <ele>863.6</ele>
        <time>2019-06-23T09:10:28.000Z</time>
      </trkpt>
      <trkpt lat="44.13357" lon="6.34201">
        <ele>864</ele>
        <time>2019-06-23T09:10:30.000Z</time>
      </trkpt>
      <trkpt lat="44.13367" lon="6.34207">
        <ele>864.8</ele>
        <time>2019-06-23T09:10:33.000Z</time>
      </trkpt>
      <trkpt lat="44.13377" lon="6.34211">
        <ele>865.2</ele>
        <time>2019-06-23T09:10:36.000Z</time>
      </trkpt>
      <trkpt lat="44.13384" lon="6.34214">
        <ele>865.4</ele>
        <time>2019-06-23T09:10:38.000Z</time>
      </trkpt>
      <trkpt lat="44.1339" lon="6.34217">
        <ele>866.2</ele>
        <time>2019-06-23T09:10:40.000Z</time>
      </trkpt>
      <trkpt lat="44.13399" lon="6.34223">
        <ele>867.2</ele>
        <time>2019-06-23T09:10:43.000Z</time>
      </trkpt>
      <trkpt lat="44.13402" lon="6.34225">
        <ele>867.6</ele>
        <time>2019-06-23T09:10:44.000Z</time>
      </trkpt>
      <trkpt lat="44.13412" lon="6.3423">
        <ele>868.4</ele>
        <time>2019-06-23T09:10:48.000Z</time>
      </trkpt>
      <trkpt lat="44.13416" lon="6.34234">
        <ele>868.6</ele>
        <time>2019-06-23T09:10:50.000Z</time>
      </trkpt>
      <trkpt lat="44.13419" lon="6.34236">
        <ele>868.8</ele>
        <time>2019-06-23T09:10:51.000Z</time>
      </trkpt>
      <trkpt lat="44.13431" lon="6.34247">
        <ele>869.8</ele>
        <time>2019-06-23T09:10:56.000Z</time>
      </trkpt>
      <trkpt lat="44.13433" lon="6.34249">
        <ele>870.2</ele>
        <time>2019-06-23T09:10:57.000Z</time>
      </trkpt>
      <trkpt lat="44.13437" lon="6.34254">
        <ele>870.8</ele>
        <time>2019-06-23T09:10:59.000Z</time>
      </trkpt>
      <trkpt lat="44.13439" lon="6.34256">
        <ele>870.8</ele>
        <time>2019-06-23T09:11:00.000Z</time>
      </trkpt>
      <trkpt lat="44.13445" lon="6.3426">
        <ele>871.4</ele>
        <time>2019-06-23T09:11:02.000Z</time>
      </trkpt>
      <trkpt lat="44.1345" lon="6.34264">
        <ele>872</ele>
        <time>2019-06-23T09:11:04.000Z</time>
      </trkpt>
      <trkpt lat="44.13457" lon="6.3427">
        <ele>872.8</ele>
        <time>2019-06-23T09:11:07.000Z</time>
      </trkpt>
      <trkpt lat="44.13459" lon="6.34276">
        <ele>873.2</ele>
        <time>2019-06-23T09:11:09.000Z</time>
      </trkpt>
      <trkpt lat="44.13457" lon="6.34282">
        <ele>873.4</ele>
        <time>2019-06-23T09:11:11.000Z</time>
      </trkpt>
      <trkpt lat="44.13453" lon="6.34292">
        <ele>874.2</ele>
        <time>2019-06-23T09:11:14.000Z</time>
      </trkpt>
      <trkpt lat="44.13451" lon="6.34308">
        <ele>875</ele>
        <time>2019-06-23T09:11:18.000Z</time>
      </trkpt>
      <trkpt lat="44.13451" lon="6.34313">
        <ele>875.2</ele>
        <time>2019-06-23T09:11:19.000Z</time>
      </trkpt>
      <trkpt lat="44.13451" lon="6.34326">
        <ele>875.2</ele>
        <time>2019-06-23T09:11:22.000Z</time>
      </trkpt>
      <trkpt lat="44.13449" lon="6.34339">
        <ele>875.4</ele>
        <time>2019-06-23T09:11:25.000Z</time>
      </trkpt>
      <trkpt lat="44.13438" lon="6.34359">
        <ele>875.2</ele>
        <time>2019-06-23T09:11:30.000Z</time>
      </trkpt>
      <trkpt lat="44.1342" lon="6.34383">
        <ele>875</ele>
        <time>2019-06-23T09:11:37.000Z</time>
      </trkpt>
      <trkpt lat="44.13412" lon="6.34392">
        <ele>875.4</ele>
        <time>2019-06-23T09:11:40.000Z</time>
      </trkpt>
      <trkpt lat="44.13399" lon="6.34406">
        <ele>876.2</ele>
        <time>2019-06-23T09:11:45.000Z</time>
      </trkpt>
      <trkpt lat="44.13393" lon="6.34411">
        <ele>876.2</ele>
        <time>2019-06-23T09:11:47.000Z</time>
      </trkpt>
      <trkpt lat="44.13391" lon="6.34414">
        <ele>876.8</ele>
        <time>2019-06-23T09:11:48.000Z</time>
      </trkpt>
      <trkpt lat="44.13386" lon="6.3442">
        <ele>877</ele>
        <time>2019-06-23T09:11:50.000Z</time>
      </trkpt>
      <trkpt lat="44.1338" lon="6.34426">
        <ele>877.4</ele>
        <time>2019-06-23T09:11:52.000Z</time>
      </trkpt>
      <trkpt lat="44.13367" lon="6.34441">
        <ele>877.4</ele>
        <time>2019-06-23T09:11:57.000Z</time>
      </trkpt>
      <trkpt lat="44.13352" lon="6.3446">
        <ele>877</ele>
        <time>2019-06-23T09:12:03.000Z</time>
      </trkpt>
      <trkpt lat="44.1334" lon="6.34478">
        <ele>876.4</ele>
        <time>2019-06-23T09:12:06.000Z</time>
      </trkpt>
      <trkpt lat="44.13332" lon="6.34491">
        <ele>876</ele>
        <time>2019-06-23T09:12:08.000Z</time>
      </trkpt>
      <trkpt lat="44.13312" lon="6.34529">
        <ele>875.4</ele>
        <time>2019-06-23T09:12:14.000Z</time>
      </trkpt>
      <trkpt lat="44.13308" lon="6.34534">
        <ele>875.2</ele>
        <time>2019-06-23T09:12:15.000Z</time>
      </trkpt>
      <trkpt lat="44.13304" lon="6.34538">
        <ele>875.2</ele>
        <time>2019-06-23T09:12:16.000Z</time>
      </trkpt>
      <trkpt lat="44.13295" lon="6.34543">
        <ele>875</ele>
        <time>2019-06-23T09:12:18.000Z</time>
      </trkpt>
      <trkpt lat="44.13284" lon="6.34542">
        <ele>874.6</ele>
        <time>2019-06-23T09:12:20.000Z</time>
      </trkpt>
      <trkpt lat="44.13272" lon="6.34538">
        <ele>874.2</ele>
        <time>2019-06-23T09:12:22.000Z</time>
      </trkpt>
      <trkpt lat="44.13262" lon="6.34533">
        <ele>874</ele>
        <time>2019-06-23T09:12:24.000Z</time>
      </trkpt>
      <trkpt lat="44.13256" lon="6.34535">
        <ele>874.2</ele>
        <time>2019-06-23T09:12:26.000Z</time>
      </trkpt>
      <trkpt lat="44.13249" lon="6.34548">
        <ele>875.4</ele>
        <time>2019-06-23T09:12:31.000Z</time>
      </trkpt>
      <trkpt lat="44.13253" lon="6.34561">
        <ele>876.2</ele>
        <time>2019-06-23T09:12:35.000Z</time>
      </trkpt>
      <trkpt lat="44.13254" lon="6.34564">
        <ele>876.6</ele>
        <time>2019-06-23T09:12:36.000Z</time>
      </trkpt>
      <trkpt lat="44.13261" lon="6.34576">
        <ele>877.6</ele>
        <time>2019-06-23T09:12:40.000Z</time>
      </trkpt>
      <trkpt lat="44.13265" lon="6.34581">
        <ele>877.8</ele>
        <time>2019-06-23T09:12:42.000Z</time>
      </trkpt>
      <trkpt lat="44.13271" lon="6.34589">
        <ele>878.6</ele>
        <time>2019-06-23T09:12:45.000Z</time>
      </trkpt>
      <trkpt lat="44.13274" lon="6.34591">
        <ele>878.8</ele>
        <time>2019-06-23T09:12:46.000Z</time>
      </trkpt>
      <trkpt lat="44.13278" lon="6.34592">
        <ele>878.8</ele>
        <time>2019-06-23T09:12:47.000Z</time>
      </trkpt>
      <trkpt lat="44.1328" lon="6.34594">
        <ele>879</ele>
        <time>2019-06-23T09:12:48.000Z</time>
      </trkpt>
      <trkpt lat="44.13279" lon="6.34601">
        <ele>879.2</ele>
        <time>2019-06-23T09:12:50.000Z</time>
      </trkpt>
      <trkpt lat="44.13274" lon="6.34602">
        <ele>879.6</ele>
        <time>2019-06-23T09:12:52.000Z</time>
      </trkpt>
      <trkpt lat="44.13272" lon="6.346">
        <ele>880</ele>
        <time>2019-06-23T09:12:53.000Z</time>
      </trkpt>
      <trkpt lat="44.1327" lon="6.34599">
        <ele>880.2</ele>
        <time>2019-06-23T09:12:54.000Z</time>
      </trkpt>
      <trkpt lat="44.13267" lon="6.34597">
        <ele>880.6</ele>
        <time>2019-06-23T09:12:56.000Z</time>
      </trkpt>
      <trkpt lat="44.13264" lon="6.34596">
        <ele>881</ele>
        <time>2019-06-23T09:12:58.000Z</time>
      </trkpt>
      <trkpt lat="44.13263" lon="6.34596">
        <ele>881.4</ele>
        <time>2019-06-23T09:12:59.000Z</time>
      </trkpt>
      <trkpt lat="44.13261" lon="6.34596">
        <ele>882.2</ele>
        <time>2019-06-23T09:13:02.000Z</time>
      </trkpt>
      <trkpt lat="44.1326" lon="6.34598">
        <ele>882.2</ele>
        <time>2019-06-23T09:13:04.000Z</time>
      </trkpt>
      <trkpt lat="44.1326" lon="6.34599">
        <ele>882.4</ele>
        <time>2019-06-23T09:13:05.000Z</time>
      </trkpt>
      <trkpt lat="44.1326" lon="6.346">
        <ele>882.6</ele>
        <time>2019-06-23T09:13:06.000Z</time>
      </trkpt>
      <trkpt lat="44.13264" lon="6.34607">
        <ele>883</ele>
        <time>2019-06-23T09:13:09.000Z</time>
      </trkpt>
      <trkpt lat="44.13265" lon="6.3461">
        <ele>883.2</ele>
        <time>2019-06-23T09:13:10.000Z</time>
      </trkpt>
      <trkpt lat="44.13269" lon="6.34618">
        <ele>883.6</ele>
        <time>2019-06-23T09:13:13.000Z</time>
      </trkpt>
      <trkpt lat="44.13272" lon="6.34622">
        <ele>884.2</ele>
        <time>2019-06-23T09:13:15.000Z</time>
      </trkpt>
      <trkpt lat="44.13273" lon="6.34624">
        <ele>884.4</ele>
        <time>2019-06-23T09:13:16.000Z</time>
      </trkpt>
      <trkpt lat="44.13273" lon="6.34627">
        <ele>884.8</ele>
        <time>2019-06-23T09:13:17.000Z</time>
      </trkpt>
      <trkpt lat="44.1327" lon="6.34632">
        <ele>885.8</ele>
        <time>2019-06-23T09:13:19.000Z</time>
      </trkpt>
      <trkpt lat="44.13265" lon="6.34634">
        <ele>887</ele>
        <time>2019-06-23T09:13:22.000Z</time>
      </trkpt>
      <trkpt lat="44.13261" lon="6.34638">
        <ele>887.8</ele>
        <time>2019-06-23T09:13:24.000Z</time>
      </trkpt>
      <trkpt lat="44.13259" lon="6.34639">
        <ele>888.2</ele>
        <time>2019-06-23T09:13:25.000Z</time>
      </trkpt>
      <trkpt lat="44.13248" lon="6.34648">
        <ele>889</ele>
        <time>2019-06-23T09:13:30.000Z</time>
      </trkpt>
      <trkpt lat="44.13246" lon="6.3465">
        <ele>889</ele>
        <time>2019-06-23T09:13:31.000Z</time>
      </trkpt>
      <trkpt lat="44.13244" lon="6.34652">
        <ele>889.2</ele>
        <time>2019-06-23T09:13:32.000Z</time>
      </trkpt>
      <trkpt lat="44.13237" lon="6.34658">
        <ele>890.4</ele>
        <time>2019-06-23T09:13:36.000Z</time>
      </trkpt>
      <trkpt lat="44.13236" lon="6.3466">
        <ele>890.4</ele>
        <time>2019-06-23T09:13:37.000Z</time>
      </trkpt>
      <trkpt lat="44.13231" lon="6.34662">
        <ele>891.8</ele>
        <time>2019-06-23T09:13:40.000Z</time>
      </trkpt>
      <trkpt lat="44.13226" lon="6.34668">
        <ele>892.8</ele>
        <time>2019-06-23T09:13:44.000Z</time>
      </trkpt>
      <trkpt lat="44.13226" lon="6.3467">
        <ele>893</ele>
        <time>2019-06-23T09:13:45.000Z</time>
      </trkpt>
      <trkpt lat="44.1323" lon="6.34674">
        <ele>894</ele>
        <time>2019-06-23T09:13:48.000Z</time>
      </trkpt>
      <trkpt lat="44.13232" lon="6.34674">
        <ele>894.2</ele>
        <time>2019-06-23T09:13:49.000Z</time>
      </trkpt>
      <trkpt lat="44.13238" lon="6.34676">
        <ele>895.2</ele>
        <time>2019-06-23T09:13:52.000Z</time>
      </trkpt>
      <trkpt lat="44.13238" lon="6.3468">
        <ele>895.8</ele>
        <time>2019-06-23T09:13:54.000Z</time>
      </trkpt>
      <trkpt lat="44.13236" lon="6.34682">
        <ele>896.2</ele>
        <time>2019-06-23T09:13:55.000Z</time>
      </trkpt>
      <trkpt lat="44.13229" lon="6.34686">
        <ele>897.4</ele>
        <time>2019-06-23T09:13:59.000Z</time>
      </trkpt>
      <trkpt lat="44.13227" lon="6.34687">
        <ele>897.4</ele>
        <time>2019-06-23T09:14:00.000Z</time>
      </trkpt>
      <trkpt lat="44.13221" lon="6.3469">
        <ele>898</ele>
        <time>2019-06-23T09:14:04.000Z</time>
      </trkpt>
      <trkpt lat="44.13219" lon="6.34691">
        <ele>898.4</ele>
        <time>2019-06-23T09:14:05.000Z</time>
      </trkpt>
      <trkpt lat="44.13217" lon="6.34692">
        <ele>898.8</ele>
        <time>2019-06-23T09:14:06.000Z</time>
      </trkpt>
      <trkpt lat="44.13216" lon="6.34693">
        <ele>899.4</ele>
        <time>2019-06-23T09:14:07.000Z</time>
      </trkpt>
      <trkpt lat="44.13214" lon="6.34694">
        <ele>899.8</ele>
        <time>2019-06-23T09:14:08.000Z</time>
      </trkpt>
      <trkpt lat="44.13211" lon="6.34696">
        <ele>900.6</ele>
        <time>2019-06-23T09:14:10.000Z</time>
      </trkpt>
      <trkpt lat="44.1321" lon="6.34698">
        <ele>901</ele>
        <time>2019-06-23T09:14:11.000Z</time>
      </trkpt>
      <trkpt lat="44.13209" lon="6.347">
        <ele>901.4</ele>
        <time>2019-06-23T09:14:12.000Z</time>
      </trkpt>
      <trkpt lat="44.13207" lon="6.34702">
        <ele>901.8</ele>
        <time>2019-06-23T09:14:13.000Z</time>
      </trkpt>
      <trkpt lat="44.13206" lon="6.34704">
        <ele>902</ele>
        <time>2019-06-23T09:14:14.000Z</time>
      </trkpt>
      <trkpt lat="44.13203" lon="6.34707">
        <ele>902.6</ele>
        <time>2019-06-23T09:14:16.000Z</time>
      </trkpt>
      <trkpt lat="44.13201" lon="6.34712">
        <ele>903</ele>
        <time>2019-06-23T09:14:18.000Z</time>
      </trkpt>
      <trkpt lat="44.13199" lon="6.34715">
        <ele>903.6</ele>
        <time>2019-06-23T09:14:20.000Z</time>
      </trkpt>
      <trkpt lat="44.13196" lon="6.34719">
        <ele>904.4</ele>
        <time>2019-06-23T09:14:22.000Z</time>
      </trkpt>
      <trkpt lat="44.13192" lon="6.34724">
        <ele>905.4</ele>
        <time>2019-06-23T09:14:25.000Z</time>
      </trkpt>
      <trkpt lat="44.13189" lon="6.34732">
        <ele>906.4</ele>
        <time>2019-06-23T09:14:29.000Z</time>
      </trkpt>
      <trkpt lat="44.1319" lon="6.34737">
        <ele>907</ele>
        <time>2019-06-23T09:14:31.000Z</time>
      </trkpt>
      <trkpt lat="44.13193" lon="6.34738">
        <ele>907.6</ele>
        <time>2019-06-23T09:14:33.000Z</time>
      </trkpt>
      <trkpt lat="44.132" lon="6.34736">
        <ele>908.6</ele>
        <time>2019-06-23T09:14:37.000Z</time>
      </trkpt>
      <trkpt lat="44.13202" lon="6.34738">
        <ele>909.6</ele>
        <time>2019-06-23T09:14:39.000Z</time>
      </trkpt>
      <trkpt lat="44.13202" lon="6.34741">
        <ele>910</ele>
        <time>2019-06-23T09:14:40.000Z</time>
      </trkpt>
      <trkpt lat="44.132" lon="6.34746">
        <ele>911.4</ele>
        <time>2019-06-23T09:14:43.000Z</time>
      </trkpt>
      <trkpt lat="44.132" lon="6.34748">
        <ele>911.8</ele>
        <time>2019-06-23T09:14:44.000Z</time>
      </trkpt>
      <trkpt lat="44.13199" lon="6.34752">
        <ele>912.4</ele>
        <time>2019-06-23T09:14:46.000Z</time>
      </trkpt>
      <trkpt lat="44.13197" lon="6.34759">
        <ele>913.6</ele>
        <time>2019-06-23T09:14:49.000Z</time>
      </trkpt>
      <trkpt lat="44.13195" lon="6.34765">
        <ele>914.6</ele>
        <time>2019-06-23T09:14:52.000Z</time>
      </trkpt>
      <trkpt lat="44.13193" lon="6.34776">
        <ele>915.8</ele>
        <time>2019-06-23T09:14:57.000Z</time>
      </trkpt>
      <trkpt lat="44.13191" lon="6.34782">
        <ele>916.6</ele>
        <time>2019-06-23T09:15:00.000Z</time>
      </trkpt>
      <trkpt lat="44.13191" lon="6.34784">
        <ele>917</ele>
        <time>2019-06-23T09:15:01.000Z</time>
      </trkpt>
      <trkpt lat="44.13188" lon="6.3479">
        <ele>918</ele>
        <time>2019-06-23T09:15:04.000Z</time>
      </trkpt>
      <trkpt lat="44.13185" lon="6.34797">
        <ele>919</ele>
        <time>2019-06-23T09:15:08.000Z</time>
      </trkpt>
      <trkpt lat="44.13185" lon="6.34799">
        <ele>919.2</ele>
        <time>2019-06-23T09:15:09.000Z</time>
      </trkpt>
      <trkpt lat="44.13186" lon="6.34801">
        <ele>919.4</ele>
        <time>2019-06-23T09:15:10.000Z</time>
      </trkpt>
      <trkpt lat="44.13189" lon="6.34803">
        <ele>920.2</ele>
        <time>2019-06-23T09:15:12.000Z</time>
      </trkpt>
      <trkpt lat="44.13189" lon="6.34804">
        <ele>920.6</ele>
        <time>2019-06-23T09:15:13.000Z</time>
      </trkpt>
      <trkpt lat="44.13189" lon="6.34809">
        <ele>921.4</ele>
        <time>2019-06-23T09:15:15.000Z</time>
      </trkpt>
      <trkpt lat="44.13189" lon="6.34811">
        <ele>921.8</ele>
        <time>2019-06-23T09:15:16.000Z</time>
      </trkpt>
      <trkpt lat="44.13188" lon="6.34813">
        <ele>922</ele>
        <time>2019-06-23T09:15:17.000Z</time>
      </trkpt>
      <trkpt lat="44.13185" lon="6.34818">
        <ele>922.4</ele>
        <time>2019-06-23T09:15:20.000Z</time>
      </trkpt>
      <trkpt lat="44.13184" lon="6.3482">
        <ele>922.6</ele>
        <time>2019-06-23T09:15:21.000Z</time>
      </trkpt>
      <trkpt lat="44.13181" lon="6.34826">
        <ele>923.4</ele>
        <time>2019-06-23T09:15:24.000Z</time>
      </trkpt>
      <trkpt lat="44.1318" lon="6.34828">
        <ele>924</ele>
        <time>2019-06-23T09:15:25.000Z</time>
      </trkpt>
      <trkpt lat="44.13179" lon="6.34832">
        <ele>924.4</ele>
        <time>2019-06-23T09:15:27.000Z</time>
      </trkpt>
      <trkpt lat="44.13179" lon="6.34836">
        <ele>924.8</ele>
        <time>2019-06-23T09:15:29.000Z</time>
      </trkpt>
      <trkpt lat="44.13179" lon="6.34841">
        <ele>925.2</ele>
        <time>2019-06-23T09:15:31.000Z</time>
      </trkpt>
      <trkpt lat="44.13182" lon="6.34849">
        <ele>926.2</ele>
        <time>2019-06-23T09:15:35.000Z</time>
      </trkpt>
      <trkpt lat="44.13184" lon="6.34851">
        <ele>926.4</ele>
        <time>2019-06-23T09:15:36.000Z</time>
      </trkpt>
      <trkpt lat="44.13184" lon="6.34853">
        <ele>926.6</ele>
        <time>2019-06-23T09:15:37.000Z</time>
      </trkpt>
      <trkpt lat="44.13187" lon="6.34858">
        <ele>927.2</ele>
        <time>2019-06-23T09:15:40.000Z</time>
      </trkpt>
      <trkpt lat="44.13191" lon="6.34865">
        <ele>928</ele>
        <time>2019-06-23T09:15:44.000Z</time>
      </trkpt>
      <trkpt lat="44.13191" lon="6.34867">
        <ele>928.4</ele>
        <time>2019-06-23T09:15:45.000Z</time>
      </trkpt>
      <trkpt lat="44.13194" lon="6.34873">
        <ele>929.4</ele>
        <time>2019-06-23T09:15:48.000Z</time>
      </trkpt>
      <trkpt lat="44.13194" lon="6.34875">
        <ele>929.6</ele>
        <time>2019-06-23T09:15:49.000Z</time>
      </trkpt>
      <trkpt lat="44.13194" lon="6.34876">
        <ele>929.6</ele>
        <time>2019-06-23T09:15:50.000Z</time>
      </trkpt>
      <trkpt lat="44.1319" lon="6.34877">
        <ele>930.6</ele>
        <time>2019-06-23T09:15:53.000Z</time>
      </trkpt>
      <trkpt lat="44.1319" lon="6.34877">
        <ele>931</ele>
        <time>2019-06-23T09:15:54.000Z</time>
      </trkpt>
      <trkpt lat="44.13187" lon="6.34879">
        <ele>931.8</ele>
        <time>2019-06-23T09:15:56.000Z</time>
      </trkpt>
      <trkpt lat="44.1318" lon="6.3488">
        <ele>933</ele>
        <time>2019-06-23T09:15:59.000Z</time>
      </trkpt>
      <trkpt lat="44.13178" lon="6.3488">
        <ele>933.2</ele>
        <time>2019-06-23T09:16:00.000Z</time>
      </trkpt>
      <trkpt lat="44.1317" lon="6.34886">
        <ele>934</ele>
        <time>2019-06-23T09:16:06.000Z</time>
      </trkpt>
      <trkpt lat="44.13169" lon="6.34887">
        <ele>934.2</ele>
        <time>2019-06-23T09:16:07.000Z</time>
      </trkpt>
      <trkpt lat="44.13167" lon="6.3489">
        <ele>934.6</ele>
        <time>2019-06-23T09:16:09.000Z</time>
      </trkpt>
      <trkpt lat="44.13164" lon="6.34892">
        <ele>935</ele>
        <time>2019-06-23T09:16:11.000Z</time>
      </trkpt>
      <trkpt lat="44.13162" lon="6.34893">
        <ele>935.2</ele>
        <time>2019-06-23T09:16:12.000Z</time>
      </trkpt>
      <trkpt lat="44.1316" lon="6.34894">
        <ele>935.4</ele>
        <time>2019-06-23T09:16:13.000Z</time>
      </trkpt>
      <trkpt lat="44.13156" lon="6.34896">
        <ele>936.2</ele>
        <time>2019-06-23T09:16:15.000Z</time>
      </trkpt>
      <trkpt lat="44.13155" lon="6.34896">
        <ele>936.4</ele>
        <time>2019-06-23T09:16:16.000Z</time>
      </trkpt>
      <trkpt lat="44.13152" lon="6.34899">
        <ele>936.8</ele>
        <time>2019-06-23T09:16:19.000Z</time>
      </trkpt>
      <trkpt lat="44.13144" lon="6.34903">
        <ele>937.6</ele>
        <time>2019-06-23T09:16:23.000Z</time>
      </trkpt>
      <trkpt lat="44.13141" lon="6.34907">
        <ele>938.2</ele>
        <time>2019-06-23T09:16:25.000Z</time>
      </trkpt>
      <trkpt lat="44.1314" lon="6.34909">
        <ele>938.6</ele>
        <time>2019-06-23T09:16:26.000Z</time>
      </trkpt>
      <trkpt lat="44.13139" lon="6.34911">
        <ele>939</ele>
        <time>2019-06-23T09:16:27.000Z</time>
      </trkpt>
      <trkpt lat="44.13139" lon="6.34917">
        <ele>939.8</ele>
        <time>2019-06-23T09:16:30.000Z</time>
      </trkpt>
      <trkpt lat="44.13139" lon="6.34919">
        <ele>940</ele>
        <time>2019-06-23T09:16:31.000Z</time>
      </trkpt>
      <trkpt lat="44.13139" lon="6.34921">
        <ele>940.2</ele>
        <time>2019-06-23T09:16:32.000Z</time>
      </trkpt>
      <trkpt lat="44.13138" lon="6.34923">
        <ele>940.6</ele>
        <time>2019-06-23T09:16:33.000Z</time>
      </trkpt>
      <trkpt lat="44.13136" lon="6.34929">
        <ele>941.2</ele>
        <time>2019-06-23T09:16:36.000Z</time>
      </trkpt>
      <trkpt lat="44.13136" lon="6.34931">
        <ele>941.4</ele>
        <time>2019-06-23T09:16:37.000Z</time>
      </trkpt>
      <trkpt lat="44.13135" lon="6.3494">
        <ele>942.4</ele>
        <time>2019-06-23T09:16:41.000Z</time>
      </trkpt>
      <trkpt lat="44.13134" lon="6.34947">
        <ele>943.4</ele>
        <time>2019-06-23T09:16:44.000Z</time>
      </trkpt>
      <trkpt lat="44.13134" lon="6.34948">
        <ele>943.6</ele>
        <time>2019-06-23T09:16:45.000Z</time>
      </trkpt>
      <trkpt lat="44.13134" lon="6.3495">
        <ele>943.8</ele>
        <time>2019-06-23T09:16:47.000Z</time>
      </trkpt>
      <trkpt lat="44.13135" lon="6.3495">
        <ele>944.2</ele>
        <time>2019-06-23T09:16:49.000Z</time>
      </trkpt>
      <trkpt lat="44.13134" lon="6.3495">
        <ele>944</ele>
        <time>2019-06-23T09:16:53.000Z</time>
      </trkpt>
      <trkpt lat="44.13134" lon="6.3495">
        <ele>943.8</ele>
        <time>2019-06-23T09:16:58.000Z</time>
      </trkpt>
      <trkpt lat="44.13134" lon="6.3495">
        <ele>943.8</ele>
        <time>2019-06-23T09:17:00.000Z</time>
      </trkpt>
      <trkpt lat="44.13135" lon="6.34949">
        <ele>943.2</ele>
        <time>2019-06-23T09:17:21.000Z</time>
      </trkpt>
      <trkpt lat="44.13135" lon="6.34949">
        <ele>943.8</ele>
        <time>2019-06-23T09:17:34.000Z</time>
      </trkpt>
      <trkpt lat="44.13135" lon="6.34949">
        <ele>943.8</ele>
        <time>2019-06-23T09:17:35.000Z</time>
      </trkpt>
      <trkpt lat="44.13135" lon="6.34949">
        <ele>944</ele>
        <time>2019-06-23T09:17:37.000Z</time>
      </trkpt>
      <trkpt lat="44.13135" lon="6.34952">
        <ele>944.4</ele>
        <time>2019-06-23T09:17:44.000Z</time>
      </trkpt>
      <trkpt lat="44.13134" lon="6.34955">
        <ele>944.6</ele>
        <time>2019-06-23T09:17:45.000Z</time>
      </trkpt>
      <trkpt lat="44.13134" lon="6.34957">
        <ele>944.8</ele>
        <time>2019-06-23T09:17:46.000Z</time>
      </trkpt>
      <trkpt lat="44.13134" lon="6.34967">
        <ele>945.6</ele>
        <time>2019-06-23T09:17:50.000Z</time>
      </trkpt>
      <trkpt lat="44.13134" lon="6.34969">
        <ele>945.8</ele>
        <time>2019-06-23T09:17:51.000Z</time>
      </trkpt>
      <trkpt lat="44.13134" lon="6.34972">
        <ele>946</ele>
        <time>2019-06-23T09:17:52.000Z</time>
      </trkpt>
      <trkpt lat="44.13133" lon="6.34975">
        <ele>946.2</ele>
        <time>2019-06-23T09:17:53.000Z</time>
      </trkpt>
      <trkpt lat="44.13132" lon="6.34977">
        <ele>946.6</ele>
        <time>2019-06-23T09:17:54.000Z</time>
      </trkpt>
      <trkpt lat="44.13129" lon="6.34979">
        <ele>947</ele>
        <time>2019-06-23T09:17:55.000Z</time>
      </trkpt>
      <trkpt lat="44.13126" lon="6.3498">
        <ele>947.6</ele>
        <time>2019-06-23T09:17:56.000Z</time>
      </trkpt>
      <trkpt lat="44.13122" lon="6.34981">
        <ele>948.2</ele>
        <time>2019-06-23T09:17:58.000Z</time>
      </trkpt>
      <trkpt lat="44.13115" lon="6.34981">
        <ele>949.4</ele>
        <time>2019-06-23T09:18:02.000Z</time>
      </trkpt>
      <trkpt lat="44.13113" lon="6.34981">
        <ele>949.6</ele>
        <time>2019-06-23T09:18:03.000Z</time>
      </trkpt>
      <trkpt lat="44.13104" lon="6.34979">
        <ele>950.6</ele>
        <time>2019-06-23T09:18:08.000Z</time>
      </trkpt>
      <trkpt lat="44.13102" lon="6.34979">
        <ele>950.8</ele>
        <time>2019-06-23T09:18:09.000Z</time>
      </trkpt>
      <trkpt lat="44.13094" lon="6.34977">
        <ele>951.4</ele>
        <time>2019-06-23T09:18:13.000Z</time>
      </trkpt>
      <trkpt lat="44.13092" lon="6.34977">
        <ele>951.4</ele>
        <time>2019-06-23T09:18:14.000Z</time>
      </trkpt>
      <trkpt lat="44.13089" lon="6.34975">
        <ele>951.4</ele>
        <time>2019-06-23T09:18:16.000Z</time>
      </trkpt>
      <trkpt lat="44.13086" lon="6.34975">
        <ele>951.6</ele>
        <time>2019-06-23T09:18:17.000Z</time>
      </trkpt>
      <trkpt lat="44.1308" lon="6.34975">
        <ele>952.6</ele>
        <time>2019-06-23T09:18:21.000Z</time>
      </trkpt>
      <trkpt lat="44.13076" lon="6.34973">
        <ele>953.2</ele>
        <time>2019-06-23T09:18:23.000Z</time>
      </trkpt>
      <trkpt lat="44.13074" lon="6.34973">
        <ele>953.4</ele>
        <time>2019-06-23T09:18:24.000Z</time>
      </trkpt>
      <trkpt lat="44.13072" lon="6.34973">
        <ele>954</ele>
        <time>2019-06-23T09:18:25.000Z</time>
      </trkpt>
      <trkpt lat="44.13069" lon="6.34973">
        <ele>954.4</ele>
        <time>2019-06-23T09:18:27.000Z</time>
      </trkpt>
      <trkpt lat="44.13064" lon="6.34975">
        <ele>955</ele>
        <time>2019-06-23T09:18:30.000Z</time>
      </trkpt>
      <trkpt lat="44.13059" lon="6.34976">
        <ele>956</ele>
        <time>2019-06-23T09:18:33.000Z</time>
      </trkpt>
      <trkpt lat="44.13056" lon="6.34977">
        <ele>956.4</ele>
        <time>2019-06-23T09:18:34.000Z</time>
      </trkpt>
      <trkpt lat="44.13052" lon="6.34978">
        <ele>957.2</ele>
        <time>2019-06-23T09:18:36.000Z</time>
      </trkpt>
      <trkpt lat="44.13047" lon="6.34978">
        <ele>958</ele>
        <time>2019-06-23T09:18:39.000Z</time>
      </trkpt>
      <trkpt lat="44.13045" lon="6.34978">
        <ele>958.4</ele>
        <time>2019-06-23T09:18:40.000Z</time>
      </trkpt>
      <trkpt lat="44.13041" lon="6.34981">
        <ele>959.2</ele>
        <time>2019-06-23T09:18:43.000Z</time>
      </trkpt>
      <trkpt lat="44.13037" lon="6.34982">
        <ele>959.4</ele>
        <time>2019-06-23T09:18:45.000Z</time>
      </trkpt>
      <trkpt lat="44.13032" lon="6.34982">
        <ele>960</ele>
        <time>2019-06-23T09:18:48.000Z</time>
      </trkpt>
      <trkpt lat="44.13029" lon="6.34986">
        <ele>960.6</ele>
        <time>2019-06-23T09:18:52.000Z</time>
      </trkpt>
      <trkpt lat="44.13028" lon="6.34987">
        <ele>960.8</ele>
        <time>2019-06-23T09:18:53.000Z</time>
      </trkpt>
      <trkpt lat="44.13027" lon="6.34991">
        <ele>961.8</ele>
        <time>2019-06-23T09:18:55.000Z</time>
      </trkpt>
      <trkpt lat="44.13023" lon="6.34996">
        <ele>962.8</ele>
        <time>2019-06-23T09:18:58.000Z</time>
      </trkpt>
      <trkpt lat="44.13021" lon="6.34998">
        <ele>963.2</ele>
        <time>2019-06-23T09:18:59.000Z</time>
      </trkpt>
      <trkpt lat="44.13018" lon="6.34998">
        <ele>963.8</ele>
        <time>2019-06-23T09:19:01.000Z</time>
      </trkpt>
      <trkpt lat="44.13016" lon="6.34998">
        <ele>964</ele>
        <time>2019-06-23T09:19:02.000Z</time>
      </trkpt>
      <trkpt lat="44.13008" lon="6.35005">
        <ele>965.4</ele>
        <time>2019-06-23T09:19:08.000Z</time>
      </trkpt>
      <trkpt lat="44.13007" lon="6.35006">
        <ele>965.8</ele>
        <time>2019-06-23T09:19:09.000Z</time>
      </trkpt>
      <trkpt lat="44.13006" lon="6.35008">
        <ele>966</ele>
        <time>2019-06-23T09:19:10.000Z</time>
      </trkpt>
      <trkpt lat="44.13004" lon="6.35011">
        <ele>966.4</ele>
        <time>2019-06-23T09:19:12.000Z</time>
      </trkpt>
      <trkpt lat="44.13002" lon="6.35014">
        <ele>966.8</ele>
        <time>2019-06-23T09:19:14.000Z</time>
      </trkpt>
      <trkpt lat="44.12999" lon="6.35016">
        <ele>967.2</ele>
        <time>2019-06-23T09:19:16.000Z</time>
      </trkpt>
      <trkpt lat="44.12997" lon="6.35016">
        <ele>967.4</ele>
        <time>2019-06-23T09:19:17.000Z</time>
      </trkpt>
      <trkpt lat="44.12996" lon="6.35017">
        <ele>967.8</ele>
        <time>2019-06-23T09:19:18.000Z</time>
      </trkpt>
      <trkpt lat="44.12993" lon="6.3502">
        <ele>968.4</ele>
        <time>2019-06-23T09:19:20.000Z</time>
      </trkpt>
      <trkpt lat="44.12992" lon="6.35022">
        <ele>968.6</ele>
        <time>2019-06-23T09:19:21.000Z</time>
      </trkpt>
      <trkpt lat="44.12987" lon="6.35027">
        <ele>969.4</ele>
        <time>2019-06-23T09:19:25.000Z</time>
      </trkpt>
      <trkpt lat="44.12984" lon="6.3503">
        <ele>969.8</ele>
        <time>2019-06-23T09:19:27.000Z</time>
      </trkpt>
      <trkpt lat="44.1298" lon="6.35037">
        <ele>971</ele>
        <time>2019-06-23T09:19:32.000Z</time>
      </trkpt>
      <trkpt lat="44.12979" lon="6.35038">
        <ele>971.4</ele>
        <time>2019-06-23T09:19:33.000Z</time>
      </trkpt>
      <trkpt lat="44.12976" lon="6.35041">
        <ele>972.2</ele>
        <time>2019-06-23T09:19:36.000Z</time>
      </trkpt>
      <trkpt lat="44.12972" lon="6.35045">
        <ele>972.6</ele>
        <time>2019-06-23T09:19:38.000Z</time>
      </trkpt>
      <trkpt lat="44.12971" lon="6.35046">
        <ele>972.8</ele>
        <time>2019-06-23T09:19:39.000Z</time>
      </trkpt>
      <trkpt lat="44.12966" lon="6.3505">
        <ele>973.2</ele>
        <time>2019-06-23T09:19:42.000Z</time>
      </trkpt>
      <trkpt lat="44.1296" lon="6.35054">
        <ele>974.2</ele>
        <time>2019-06-23T09:19:46.000Z</time>
      </trkpt>
      <trkpt lat="44.12958" lon="6.35056">
        <ele>974.4</ele>
        <time>2019-06-23T09:19:47.000Z</time>
      </trkpt>
      <trkpt lat="44.12956" lon="6.35059">
        <ele>974.8</ele>
        <time>2019-06-23T09:19:49.000Z</time>
      </trkpt>
      <trkpt lat="44.12955" lon="6.35062">
        <ele>975.4</ele>
        <time>2019-06-23T09:19:51.000Z</time>
      </trkpt>
      <trkpt lat="44.12955" lon="6.35063">
        <ele>975.6</ele>
        <time>2019-06-23T09:19:52.000Z</time>
      </trkpt>
      <trkpt lat="44.12953" lon="6.3507">
        <ele>976.8</ele>
        <time>2019-06-23T09:19:55.000Z</time>
      </trkpt>
      <trkpt lat="44.12953" lon="6.35073">
        <ele>977.2</ele>
        <time>2019-06-23T09:19:56.000Z</time>
      </trkpt>
      <trkpt lat="44.12954" lon="6.35078">
        <ele>977.8</ele>
        <time>2019-06-23T09:19:58.000Z</time>
      </trkpt>
      <trkpt lat="44.12956" lon="6.35084">
        <ele>978.4</ele>
        <time>2019-06-23T09:20:00.000Z</time>
      </trkpt>
      <trkpt lat="44.12956" lon="6.35092">
        <ele>978.8</ele>
        <time>2019-06-23T09:20:03.000Z</time>
      </trkpt>
      <trkpt lat="44.12956" lon="6.35097">
        <ele>979.4</ele>
        <time>2019-06-23T09:20:05.000Z</time>
      </trkpt>
      <trkpt lat="44.12956" lon="6.351">
        <ele>979.8</ele>
        <time>2019-06-23T09:20:06.000Z</time>
      </trkpt>
      <trkpt lat="44.12956" lon="6.35107">
        <ele>980.8</ele>
        <time>2019-06-23T09:20:09.000Z</time>
      </trkpt>
      <trkpt lat="44.12955" lon="6.3511">
        <ele>981.2</ele>
        <time>2019-06-23T09:20:10.000Z</time>
      </trkpt>
      <trkpt lat="44.12953" lon="6.35119">
        <ele>982.4</ele>
        <time>2019-06-23T09:20:13.000Z</time>
      </trkpt>
      <trkpt lat="44.12953" lon="6.35125">
        <ele>982.8</ele>
        <time>2019-06-23T09:20:15.000Z</time>
      </trkpt>
      <trkpt lat="44.12952" lon="6.35134">
        <ele>983.4</ele>
        <time>2019-06-23T09:20:18.000Z</time>
      </trkpt>
      <trkpt lat="44.12954" lon="6.35144">
        <ele>984.2</ele>
        <time>2019-06-23T09:20:21.000Z</time>
      </trkpt>
      <trkpt lat="44.12954" lon="6.35147">
        <ele>984.4</ele>
        <time>2019-06-23T09:20:22.000Z</time>
      </trkpt>
      <trkpt lat="44.12953" lon="6.35149">
        <ele>984.6</ele>
        <time>2019-06-23T09:20:23.000Z</time>
      </trkpt>
      <trkpt lat="44.12949" lon="6.35154">
        <ele>985.2</ele>
        <time>2019-06-23T09:20:25.000Z</time>
      </trkpt>
      <trkpt lat="44.12947" lon="6.35155">
        <ele>985.6</ele>
        <time>2019-06-23T09:20:26.000Z</time>
      </trkpt>
      <trkpt lat="44.12944" lon="6.35155">
        <ele>986.6</ele>
        <time>2019-06-23T09:20:28.000Z</time>
      </trkpt>
      <trkpt lat="44.12943" lon="6.35154">
        <ele>987</ele>
        <time>2019-06-23T09:20:29.000Z</time>
      </trkpt>
      <trkpt lat="44.1294" lon="6.35154">
        <ele>987.6</ele>
        <time>2019-06-23T09:20:31.000Z</time>
      </trkpt>
      <trkpt lat="44.12933" lon="6.35154">
        <ele>988.4</ele>
        <time>2019-06-23T09:20:34.000Z</time>
      </trkpt>
      <trkpt lat="44.12927" lon="6.35154">
        <ele>988.8</ele>
        <time>2019-06-23T09:20:36.000Z</time>
      </trkpt>
      <trkpt lat="44.12921" lon="6.35155">
        <ele>989.2</ele>
        <time>2019-06-23T09:20:39.000Z</time>
      </trkpt>
      <trkpt lat="44.12913" lon="6.35156">
        <ele>989.6</ele>
        <time>2019-06-23T09:20:42.000Z</time>
      </trkpt>
      <trkpt lat="44.12911" lon="6.35156">
        <ele>990</ele>
        <time>2019-06-23T09:20:43.000Z</time>
      </trkpt>
      <trkpt lat="44.12902" lon="6.35157">
        <ele>991</ele>
        <time>2019-06-23T09:20:47.000Z</time>
      </trkpt>
      <trkpt lat="44.12899" lon="6.35157">
        <ele>991</ele>
        <time>2019-06-23T09:20:48.000Z</time>
      </trkpt>
      <trkpt lat="44.12888" lon="6.35156">
        <ele>992</ele>
        <time>2019-06-23T09:20:54.000Z</time>
      </trkpt>
      <trkpt lat="44.12882" lon="6.35155">
        <ele>993.2</ele>
        <time>2019-06-23T09:20:57.000Z</time>
      </trkpt>
      <trkpt lat="44.1288" lon="6.35155">
        <ele>993.6</ele>
        <time>2019-06-23T09:20:59.000Z</time>
      </trkpt>
      <trkpt lat="44.12877" lon="6.35156">
        <ele>994.2</ele>
        <time>2019-06-23T09:21:01.000Z</time>
      </trkpt>
      <trkpt lat="44.12876" lon="6.35157">
        <ele>994.6</ele>
        <time>2019-06-23T09:21:02.000Z</time>
      </trkpt>
      <trkpt lat="44.12871" lon="6.35161">
        <ele>995.2</ele>
        <time>2019-06-23T09:21:05.000Z</time>
      </trkpt>
      <trkpt lat="44.12868" lon="6.35164">
        <ele>995.6</ele>
        <time>2019-06-23T09:21:07.000Z</time>
      </trkpt>
      <trkpt lat="44.12867" lon="6.35165">
        <ele>996</ele>
        <time>2019-06-23T09:21:08.000Z</time>
      </trkpt>
      <trkpt lat="44.12861" lon="6.35169">
        <ele>996.6</ele>
        <time>2019-06-23T09:21:11.000Z</time>
      </trkpt>
      <trkpt lat="44.12853" lon="6.35177">
        <ele>998</ele>
        <time>2019-06-23T09:21:15.000Z</time>
      </trkpt>
      <trkpt lat="44.12852" lon="6.3518">
        <ele>998.4</ele>
        <time>2019-06-23T09:21:16.000Z</time>
      </trkpt>
      <trkpt lat="44.12852" lon="6.35184">
        <ele>998.8</ele>
        <time>2019-06-23T09:21:17.000Z</time>
      </trkpt>
      <trkpt lat="44.1285" lon="6.35187">
        <ele>999.2</ele>
        <time>2019-06-23T09:21:18.000Z</time>
      </trkpt>
      <trkpt lat="44.12848" lon="6.35193">
        <ele>999.8</ele>
        <time>2019-06-23T09:21:20.000Z</time>
      </trkpt>
      <trkpt lat="44.12846" lon="6.35199">
        <ele>1000.4</ele>
        <time>2019-06-23T09:21:22.000Z</time>
      </trkpt>
      <trkpt lat="44.12841" lon="6.35213">
        <ele>1001.6</ele>
        <time>2019-06-23T09:21:27.000Z</time>
      </trkpt>
      <trkpt lat="44.12841" lon="6.35219">
        <ele>1002.2</ele>
        <time>2019-06-23T09:21:29.000Z</time>
      </trkpt>
      <trkpt lat="44.1284" lon="6.35222">
        <ele>1002.6</ele>
        <time>2019-06-23T09:21:30.000Z</time>
      </trkpt>
      <trkpt lat="44.12836" lon="6.35235">
        <ele>1003.8</ele>
        <time>2019-06-23T09:21:35.000Z</time>
      </trkpt>
      <trkpt lat="44.12834" lon="6.35246">
        <ele>1005</ele>
        <time>2019-06-23T09:21:39.000Z</time>
      </trkpt>
      <trkpt lat="44.12833" lon="6.35248">
        <ele>1005.4</ele>
        <time>2019-06-23T09:21:40.000Z</time>
      </trkpt>
      <trkpt lat="44.12829" lon="6.35256">
        <ele>1006</ele>
        <time>2019-06-23T09:21:43.000Z</time>
      </trkpt>
      <trkpt lat="44.12826" lon="6.35266">
        <ele>1007</ele>
        <time>2019-06-23T09:21:47.000Z</time>
      </trkpt>
      <trkpt lat="44.12825" lon="6.35269">
        <ele>1007.2</ele>
        <time>2019-06-23T09:21:48.000Z</time>
      </trkpt>
      <trkpt lat="44.12822" lon="6.35279">
        <ele>1008.2</ele>
        <time>2019-06-23T09:21:52.000Z</time>
      </trkpt>
      <trkpt lat="44.1282" lon="6.35285">
        <ele>1009.4</ele>
        <time>2019-06-23T09:21:54.000Z</time>
      </trkpt>
      <trkpt lat="44.12816" lon="6.35292">
        <ele>1010.2</ele>
        <time>2019-06-23T09:21:57.000Z</time>
      </trkpt>
      <trkpt lat="44.12815" lon="6.35295">
        <ele>1010.4</ele>
        <time>2019-06-23T09:21:58.000Z</time>
      </trkpt>
      <trkpt lat="44.12812" lon="6.35304">
        <ele>1011.6</ele>
        <time>2019-06-23T09:22:02.000Z</time>
      </trkpt>
      <trkpt lat="44.12808" lon="6.35311">
        <ele>1012</ele>
        <time>2019-06-23T09:22:05.000Z</time>
      </trkpt>
      <trkpt lat="44.12805" lon="6.35314">
        <ele>1012.8</ele>
        <time>2019-06-23T09:22:07.000Z</time>
      </trkpt>
      <trkpt lat="44.12799" lon="6.35318">
        <ele>1013.8</ele>
        <time>2019-06-23T09:22:10.000Z</time>
      </trkpt>
      <trkpt lat="44.12798" lon="6.35321">
        <ele>1014.2</ele>
        <time>2019-06-23T09:22:11.000Z</time>
      </trkpt>
      <trkpt lat="44.12796" lon="6.35325">
        <ele>1014.8</ele>
        <time>2019-06-23T09:22:13.000Z</time>
      </trkpt>
      <trkpt lat="44.12796" lon="6.35328">
        <ele>1015</ele>
        <time>2019-06-23T09:22:14.000Z</time>
      </trkpt>
      <trkpt lat="44.12797" lon="6.35331">
        <ele>1015.2</ele>
        <time>2019-06-23T09:22:15.000Z</time>
      </trkpt>
      <trkpt lat="44.12797" lon="6.35333">
        <ele>1015.6</ele>
        <time>2019-06-23T09:22:16.000Z</time>
      </trkpt>
      <trkpt lat="44.12803" lon="6.35338">
        <ele>1016.2</ele>
        <time>2019-06-23T09:22:19.000Z</time>
      </trkpt>
      <trkpt lat="44.12803" lon="6.3534">
        <ele>1016.4</ele>
        <time>2019-06-23T09:22:20.000Z</time>
      </trkpt>
      <trkpt lat="44.12804" lon="6.35343">
        <ele>1016.6</ele>
        <time>2019-06-23T09:22:21.000Z</time>
      </trkpt>
      <trkpt lat="44.12802" lon="6.35348">
        <ele>1017.4</ele>
        <time>2019-06-23T09:22:23.000Z</time>
      </trkpt>
      <trkpt lat="44.128" lon="6.3535">
        <ele>1017.8</ele>
        <time>2019-06-23T09:22:24.000Z</time>
      </trkpt>
      <trkpt lat="44.12792" lon="6.35358">
        <ele>1018.2</ele>
        <time>2019-06-23T09:22:29.000Z</time>
      </trkpt>
      <trkpt lat="44.12788" lon="6.3536">
        <ele>1018.4</ele>
        <time>2019-06-23T09:22:31.000Z</time>
      </trkpt>
      <trkpt lat="44.12781" lon="6.35363">
        <ele>1019.2</ele>
        <time>2019-06-23T09:22:34.000Z</time>
      </trkpt>
      <trkpt lat="44.12779" lon="6.35363">
        <ele>1019.6</ele>
        <time>2019-06-23T09:22:35.000Z</time>
      </trkpt>
      <trkpt lat="44.12778" lon="6.35363">
        <ele>1019.8</ele>
        <time>2019-06-23T09:22:36.000Z</time>
      </trkpt>
      <trkpt lat="44.12761" lon="6.35361">
        <ele>1020.4</ele>
        <time>2019-06-23T09:22:44.000Z</time>
      </trkpt>
      <trkpt lat="44.12756" lon="6.3536">
        <ele>1020.6</ele>
        <time>2019-06-23T09:22:47.000Z</time>
      </trkpt>
      <trkpt lat="44.12748" lon="6.35356">
        <ele>1021</ele>
        <time>2019-06-23T09:22:51.000Z</time>
      </trkpt>
      <trkpt lat="44.1274" lon="6.35351">
        <ele>1021.8</ele>
        <time>2019-06-23T09:22:55.000Z</time>
      </trkpt>
      <trkpt lat="44.12731" lon="6.35345">
        <ele>1022.4</ele>
        <time>2019-06-23T09:23:00.000Z</time>
      </trkpt>
      <trkpt lat="44.1273" lon="6.35343">
        <ele>1022.8</ele>
        <time>2019-06-23T09:23:01.000Z</time>
      </trkpt>
      <trkpt lat="44.12721" lon="6.35339">
        <ele>1024</ele>
        <time>2019-06-23T09:23:06.000Z</time>
      </trkpt>
      <trkpt lat="44.12719" lon="6.35339">
        <ele>1024.2</ele>
        <time>2019-06-23T09:23:07.000Z</time>
      </trkpt>
      <trkpt lat="44.12714" lon="6.35344">
        <ele>1024.6</ele>
        <time>2019-06-23T09:23:10.000Z</time>
      </trkpt>
      <trkpt lat="44.12713" lon="6.35346">
        <ele>1025</ele>
        <time>2019-06-23T09:23:11.000Z</time>
      </trkpt>
      <trkpt lat="44.12713" lon="6.35349">
        <ele>1025</ele>
        <time>2019-06-23T09:23:12.000Z</time>
      </trkpt>
      <trkpt lat="44.12714" lon="6.35361">
        <ele>1025.8</ele>
        <time>2019-06-23T09:23:16.000Z</time>
      </trkpt>
      <trkpt lat="44.12715" lon="6.35367">
        <ele>1026.4</ele>
        <time>2019-06-23T09:23:18.000Z</time>
      </trkpt>
      <trkpt lat="44.12715" lon="6.3537">
        <ele>1026.6</ele>
        <time>2019-06-23T09:23:19.000Z</time>
      </trkpt>
      <trkpt lat="44.12716" lon="6.35378">
        <ele>1027.6</ele>
        <time>2019-06-23T09:23:22.000Z</time>
      </trkpt>
      <trkpt lat="44.12714" lon="6.35393">
        <ele>1028.6</ele>
        <time>2019-06-23T09:23:27.000Z</time>
      </trkpt>
      <trkpt lat="44.12713" lon="6.35395">
        <ele>1028.6</ele>
        <time>2019-06-23T09:23:28.000Z</time>
      </trkpt>
      <trkpt lat="44.12712" lon="6.35401">
        <ele>1029.2</ele>
        <time>2019-06-23T09:23:30.000Z</time>
      </trkpt>
      <trkpt lat="44.12711" lon="6.35407">
        <ele>1029.8</ele>
        <time>2019-06-23T09:23:32.000Z</time>
      </trkpt>
      <trkpt lat="44.1271" lon="6.35412">
        <ele>1030.2</ele>
        <time>2019-06-23T09:23:34.000Z</time>
      </trkpt>
      <trkpt lat="44.12709" lon="6.35417">
        <ele>1030.4</ele>
        <time>2019-06-23T09:23:36.000Z</time>
      </trkpt>
      <trkpt lat="44.12708" lon="6.3542">
        <ele>1030.6</ele>
        <time>2019-06-23T09:23:37.000Z</time>
      </trkpt>
      <trkpt lat="44.12708" lon="6.35422">
        <ele>1030.8</ele>
        <time>2019-06-23T09:23:38.000Z</time>
      </trkpt>
      <trkpt lat="44.12706" lon="6.35435">
        <ele>1031.8</ele>
        <time>2019-06-23T09:23:43.000Z</time>
      </trkpt>
      <trkpt lat="44.12706" lon="6.35437">
        <ele>1032</ele>
        <time>2019-06-23T09:23:44.000Z</time>
      </trkpt>
      <trkpt lat="44.12705" lon="6.3544">
        <ele>1032.2</ele>
        <time>2019-06-23T09:23:45.000Z</time>
      </trkpt>
      <trkpt lat="44.12704" lon="6.35445">
        <ele>1032.6</ele>
        <time>2019-06-23T09:23:47.000Z</time>
      </trkpt>
      <trkpt lat="44.12703" lon="6.35451">
        <ele>1032.8</ele>
        <time>2019-06-23T09:23:49.000Z</time>
      </trkpt>
      <trkpt lat="44.12703" lon="6.35458">
        <ele>1033.8</ele>
        <time>2019-06-23T09:23:52.000Z</time>
      </trkpt>
      <trkpt lat="44.12703" lon="6.3546">
        <ele>1034</ele>
        <time>2019-06-23T09:23:53.000Z</time>
      </trkpt>
      <trkpt lat="44.12704" lon="6.35471">
        <ele>1035</ele>
        <time>2019-06-23T09:23:58.000Z</time>
      </trkpt>
      <trkpt lat="44.12705" lon="6.35473">
        <ele>1035</ele>
        <time>2019-06-23T09:23:59.000Z</time>
      </trkpt>
      <trkpt lat="44.12706" lon="6.35476">
        <ele>1035.4</ele>
        <time>2019-06-23T09:24:00.000Z</time>
      </trkpt>
      <trkpt lat="44.12708" lon="6.35488">
        <ele>1036.4</ele>
        <time>2019-06-23T09:24:05.000Z</time>
      </trkpt>
      <trkpt lat="44.12708" lon="6.3549">
        <ele>1036.6</ele>
        <time>2019-06-23T09:24:06.000Z</time>
      </trkpt>
      <trkpt lat="44.12706" lon="6.355">
        <ele>1037.4</ele>
        <time>2019-06-23T09:24:10.000Z</time>
      </trkpt>
      <trkpt lat="44.12704" lon="6.35502">
        <ele>1037.6</ele>
        <time>2019-06-23T09:24:11.000Z</time>
      </trkpt>
      <trkpt lat="44.12702" lon="6.35504">
        <ele>1038</ele>
        <time>2019-06-23T09:24:12.000Z</time>
      </trkpt>
      <trkpt lat="44.12696" lon="6.35507">
        <ele>1038.6</ele>
        <time>2019-06-23T09:24:15.000Z</time>
      </trkpt>
      <trkpt lat="44.1269" lon="6.35507">
        <ele>1038.8</ele>
        <time>2019-06-23T09:24:18.000Z</time>
      </trkpt>
      <trkpt lat="44.12682" lon="6.35504">
        <ele>1039.6</ele>
        <time>2019-06-23T09:24:22.000Z</time>
      </trkpt>
      <trkpt lat="44.12674" lon="6.35499">
        <ele>1040.4</ele>
        <time>2019-06-23T09:24:26.000Z</time>
      </trkpt>
      <trkpt lat="44.12673" lon="6.35497">
        <ele>1040.6</ele>
        <time>2019-06-23T09:24:27.000Z</time>
      </trkpt>
      <trkpt lat="44.12665" lon="6.35486">
        <ele>1041.8</ele>
        <time>2019-06-23T09:24:33.000Z</time>
      </trkpt>
      <trkpt lat="44.1266" lon="6.35482">
        <ele>1042.4</ele>
        <time>2019-06-23T09:24:36.000Z</time>
      </trkpt>
      <trkpt lat="44.12654" lon="6.35478">
        <ele>1043</ele>
        <time>2019-06-23T09:24:39.000Z</time>
      </trkpt>
      <trkpt lat="44.12652" lon="6.35478">
        <ele>1043</ele>
        <time>2019-06-23T09:24:40.000Z</time>
      </trkpt>
      <trkpt lat="44.12648" lon="6.3548">
        <ele>1043.4</ele>
        <time>2019-06-23T09:24:42.000Z</time>
      </trkpt>
      <trkpt lat="44.12646" lon="6.35484">
        <ele>1043.8</ele>
        <time>2019-06-23T09:24:44.000Z</time>
      </trkpt>
      <trkpt lat="44.12644" lon="6.35486">
        <ele>1044</ele>
        <time>2019-06-23T09:24:45.000Z</time>
      </trkpt>
      <trkpt lat="44.12643" lon="6.3549">
        <ele>1044.4</ele>
        <time>2019-06-23T09:24:47.000Z</time>
      </trkpt>
      <trkpt lat="44.12642" lon="6.35495">
        <ele>1045</ele>
        <time>2019-06-23T09:24:49.000Z</time>
      </trkpt>
      <trkpt lat="44.12643" lon="6.355">
        <ele>1045.4</ele>
        <time>2019-06-23T09:24:51.000Z</time>
      </trkpt>
      <trkpt lat="44.12643" lon="6.35506">
        <ele>1046.2</ele>
        <time>2019-06-23T09:24:53.000Z</time>
      </trkpt>
      <trkpt lat="44.12643" lon="6.35508">
        <ele>1046.6</ele>
        <time>2019-06-23T09:24:54.000Z</time>
      </trkpt>
      <trkpt lat="44.12642" lon="6.35516">
        <ele>1047</ele>
        <time>2019-06-23T09:24:57.000Z</time>
      </trkpt>
      <trkpt lat="44.12641" lon="6.35522">
        <ele>1047.4</ele>
        <time>2019-06-23T09:24:59.000Z</time>
      </trkpt>
      <trkpt lat="44.12641" lon="6.35529">
        <ele>1047.6</ele>
        <time>2019-06-23T09:25:01.000Z</time>
      </trkpt>
      <trkpt lat="44.1264" lon="6.3554">
        <ele>1048</ele>
        <time>2019-06-23T09:25:05.000Z</time>
      </trkpt>
      <trkpt lat="44.12639" lon="6.35546">
        <ele>1048.2</ele>
        <time>2019-06-23T09:25:07.000Z</time>
      </trkpt>
      <trkpt lat="44.12638" lon="6.35549">
        <ele>1048.6</ele>
        <time>2019-06-23T09:25:08.000Z</time>
      </trkpt>
      <trkpt lat="44.12637" lon="6.35554">
        <ele>1049</ele>
        <time>2019-06-23T09:25:10.000Z</time>
      </trkpt>
      <trkpt lat="44.12634" lon="6.3556">
        <ele>1049.4</ele>
        <time>2019-06-23T09:25:12.000Z</time>
      </trkpt>
      <trkpt lat="44.12634" lon="6.35566">
        <ele>1049.8</ele>
        <time>2019-06-23T09:25:14.000Z</time>
      </trkpt>
      <trkpt lat="44.12627" lon="6.35575">
        <ele>1051</ele>
        <time>2019-06-23T09:25:18.000Z</time>
      </trkpt>
      <trkpt lat="44.12625" lon="6.35577">
        <ele>1051.2</ele>
        <time>2019-06-23T09:25:19.000Z</time>
      </trkpt>
      <trkpt lat="44.12619" lon="6.35585">
        <ele>1052.2</ele>
        <time>2019-06-23T09:25:23.000Z</time>
      </trkpt>
      <trkpt lat="44.12611" lon="6.35592">
        <ele>1053</ele>
        <time>2019-06-23T09:25:27.000Z</time>
      </trkpt>
      <trkpt lat="44.12607" lon="6.35596">
        <ele>1053.4</ele>
        <time>2019-06-23T09:25:29.000Z</time>
      </trkpt>
      <trkpt lat="44.12602" lon="6.35604">
        <ele>1054.6</ele>
        <time>2019-06-23T09:25:33.000Z</time>
      </trkpt>
      <trkpt lat="44.12597" lon="6.35612">
        <ele>1055.2</ele>
        <time>2019-06-23T09:25:37.000Z</time>
      </trkpt>
      <trkpt lat="44.12594" lon="6.35616">
        <ele>1055.6</ele>
        <time>2019-06-23T09:25:39.000Z</time>
      </trkpt>
      <trkpt lat="44.12589" lon="6.35621">
        <ele>1056.8</ele>
        <time>2019-06-23T09:25:42.000Z</time>
      </trkpt>
      <trkpt lat="44.12587" lon="6.35622">
        <ele>1057</ele>
        <time>2019-06-23T09:25:43.000Z</time>
      </trkpt>
      <trkpt lat="44.12583" lon="6.35624">
        <ele>1057.8</ele>
        <time>2019-06-23T09:25:45.000Z</time>
      </trkpt>
      <trkpt lat="44.12582" lon="6.35625">
        <ele>1058.2</ele>
        <time>2019-06-23T09:25:46.000Z</time>
      </trkpt>
      <trkpt lat="44.12578" lon="6.35626">
        <ele>1058.6</ele>
        <time>2019-06-23T09:25:48.000Z</time>
      </trkpt>
      <trkpt lat="44.12576" lon="6.35627">
        <ele>1058.8</ele>
        <time>2019-06-23T09:25:49.000Z</time>
      </trkpt>
      <trkpt lat="44.12569" lon="6.35632">
        <ele>1059.8</ele>
        <time>2019-06-23T09:25:54.000Z</time>
      </trkpt>
      <trkpt lat="44.12565" lon="6.35635">
        <ele>1060</ele>
        <time>2019-06-23T09:25:56.000Z</time>
      </trkpt>
      <trkpt lat="44.12558" lon="6.35642">
        <ele>1060.4</ele>
        <time>2019-06-23T09:26:00.000Z</time>
      </trkpt>
      <trkpt lat="44.12552" lon="6.35647">
        <ele>1060.4</ele>
        <time>2019-06-23T09:26:03.000Z</time>
      </trkpt>
      <trkpt lat="44.12546" lon="6.35654">
        <ele>1061</ele>
        <time>2019-06-23T09:26:07.000Z</time>
      </trkpt>
      <trkpt lat="44.12544" lon="6.35655">
        <ele>1061.4</ele>
        <time>2019-06-23T09:26:08.000Z</time>
      </trkpt>
      <trkpt lat="44.12541" lon="6.35659">
        <ele>1062.2</ele>
        <time>2019-06-23T09:26:10.000Z</time>
      </trkpt>
      <trkpt lat="44.12534" lon="6.35667">
        <ele>1062.6</ele>
        <time>2019-06-23T09:26:15.000Z</time>
      </trkpt>
      <trkpt lat="44.12533" lon="6.35669">
        <ele>1062.6</ele>
        <time>2019-06-23T09:26:16.000Z</time>
      </trkpt>
      <trkpt lat="44.12531" lon="6.35683">
        <ele>1063.4</ele>
        <time>2019-06-23T09:26:22.000Z</time>
      </trkpt>
      <trkpt lat="44.12531" lon="6.35686">
        <ele>1063.8</ele>
        <time>2019-06-23T09:26:23.000Z</time>
      </trkpt>
      <trkpt lat="44.12532" lon="6.35691">
        <ele>1064.6</ele>
        <time>2019-06-23T09:26:25.000Z</time>
      </trkpt>
      <trkpt lat="44.12538" lon="6.35705">
        <ele>1065.8</ele>
        <time>2019-06-23T09:26:30.000Z</time>
      </trkpt>
      <trkpt lat="44.12546" lon="6.35713">
        <ele>1066.4</ele>
        <time>2019-06-23T09:26:35.000Z</time>
      </trkpt>
      <trkpt lat="44.12553" lon="6.35716">
        <ele>1066.6</ele>
        <time>2019-06-23T09:26:38.000Z</time>
      </trkpt>
      <trkpt lat="44.12557" lon="6.35718">
        <ele>1066.8</ele>
        <time>2019-06-23T09:26:40.000Z</time>
      </trkpt>
      <trkpt lat="44.12559" lon="6.35718">
        <ele>1067</ele>
        <time>2019-06-23T09:26:41.000Z</time>
      </trkpt>
      <trkpt lat="44.12572" lon="6.35721">
        <ele>1068</ele>
        <time>2019-06-23T09:26:47.000Z</time>
      </trkpt>
      <trkpt lat="44.12573" lon="6.35723">
        <ele>1068.2</ele>
        <time>2019-06-23T09:26:48.000Z</time>
      </trkpt>
      <trkpt lat="44.12575" lon="6.35724">
        <ele>1068.4</ele>
        <time>2019-06-23T09:26:49.000Z</time>
      </trkpt>
      <trkpt lat="44.12579" lon="6.35726">
        <ele>1068.6</ele>
        <time>2019-06-23T09:26:51.000Z</time>
      </trkpt>
      <trkpt lat="44.12582" lon="6.35729">
        <ele>1068.8</ele>
        <time>2019-06-23T09:26:53.000Z</time>
      </trkpt>
      <trkpt lat="44.12586" lon="6.35735">
        <ele>1069.2</ele>
        <time>2019-06-23T09:26:56.000Z</time>
      </trkpt>
      <trkpt lat="44.12588" lon="6.35739">
        <ele>1069.4</ele>
        <time>2019-06-23T09:26:58.000Z</time>
      </trkpt>
      <trkpt lat="44.12588" lon="6.35743">
        <ele>1069.6</ele>
        <time>2019-06-23T09:26:59.000Z</time>
      </trkpt>
      <trkpt lat="44.12589" lon="6.35756">
        <ele>1070.2</ele>
        <time>2019-06-23T09:27:03.000Z</time>
      </trkpt>
      <trkpt lat="44.12588" lon="6.35763">
        <ele>1070.4</ele>
        <time>2019-06-23T09:27:05.000Z</time>
      </trkpt>
      <trkpt lat="44.12585" lon="6.35772">
        <ele>1070.4</ele>
        <time>2019-06-23T09:27:08.000Z</time>
      </trkpt>
      <trkpt lat="44.12581" lon="6.35782">
        <ele>1070.8</ele>
        <time>2019-06-23T09:27:11.000Z</time>
      </trkpt>
      <trkpt lat="44.12576" lon="6.35792">
        <ele>1071.2</ele>
        <time>2019-06-23T09:27:14.000Z</time>
      </trkpt>
      <trkpt lat="44.12569" lon="6.35821">
        <ele>1071.4</ele>
        <time>2019-06-23T09:27:23.000Z</time>
      </trkpt>
      <trkpt lat="44.12566" lon="6.35831">
        <ele>1071.8</ele>
        <time>2019-06-23T09:27:26.000Z</time>
      </trkpt>
      <trkpt lat="44.12565" lon="6.35837">
        <ele>1072.2</ele>
        <time>2019-06-23T09:27:28.000Z</time>
      </trkpt>
      <trkpt lat="44.12565" lon="6.3584">
        <ele>1072.4</ele>
        <time>2019-06-23T09:27:29.000Z</time>
      </trkpt>
      <trkpt lat="44.12564" lon="6.35857">
        <ele>1073.4</ele>
        <time>2019-06-23T09:27:34.000Z</time>
      </trkpt>
      <trkpt lat="44.12564" lon="6.35861">
        <ele>1073.6</ele>
        <time>2019-06-23T09:27:35.000Z</time>
      </trkpt>
      <trkpt lat="44.12565" lon="6.35864">
        <ele>1073.6</ele>
        <time>2019-06-23T09:27:36.000Z</time>
      </trkpt>
      <trkpt lat="44.12567" lon="6.35879">
        <ele>1073.8</ele>
        <time>2019-06-23T09:27:40.000Z</time>
      </trkpt>
      <trkpt lat="44.12564" lon="6.35897">
        <ele>1074.6</ele>
        <time>2019-06-23T09:27:45.000Z</time>
      </trkpt>
      <trkpt lat="44.12563" lon="6.35901">
        <ele>1074.6</ele>
        <time>2019-06-23T09:27:46.000Z</time>
      </trkpt>
      <trkpt lat="44.12563" lon="6.35904">
        <ele>1074.8</ele>
        <time>2019-06-23T09:27:47.000Z</time>
      </trkpt>
      <trkpt lat="44.12561" lon="6.35907">
        <ele>1074.8</ele>
        <time>2019-06-23T09:27:48.000Z</time>
      </trkpt>
      <trkpt lat="44.12557" lon="6.35913">
        <ele>1075.2</ele>
        <time>2019-06-23T09:27:50.000Z</time>
      </trkpt>
      <trkpt lat="44.12551" lon="6.35917">
        <ele>1075.8</ele>
        <time>2019-06-23T09:27:52.000Z</time>
      </trkpt>
      <trkpt lat="44.12546" lon="6.35921">
        <ele>1076</ele>
        <time>2019-06-23T09:27:54.000Z</time>
      </trkpt>
      <trkpt lat="44.12542" lon="6.35929">
        <ele>1076.2</ele>
        <time>2019-06-23T09:27:57.000Z</time>
      </trkpt>
      <trkpt lat="44.1254" lon="6.35934">
        <ele>1076.4</ele>
        <time>2019-06-23T09:27:59.000Z</time>
      </trkpt>
      <trkpt lat="44.12536" lon="6.35941">
        <ele>1076.8</ele>
        <time>2019-06-23T09:28:02.000Z</time>
      </trkpt>
      <trkpt lat="44.12529" lon="6.35947">
        <ele>1077.4</ele>
        <time>2019-06-23T09:28:05.000Z</time>
      </trkpt>
      <trkpt lat="44.12522" lon="6.35953">
        <ele>1078</ele>
        <time>2019-06-23T09:28:08.000Z</time>
      </trkpt>
      <trkpt lat="44.12516" lon="6.35961">
        <ele>1079</ele>
        <time>2019-06-23T09:28:11.000Z</time>
      </trkpt>
      <trkpt lat="44.12515" lon="6.35965">
        <ele>1079.2</ele>
        <time>2019-06-23T09:28:12.000Z</time>
      </trkpt>
      <trkpt lat="44.12515" lon="6.35979">
        <ele>1079.2</ele>
        <time>2019-06-23T09:28:16.000Z</time>
      </trkpt>
      <trkpt lat="44.12516" lon="6.35983">
        <ele>1079.4</ele>
        <time>2019-06-23T09:28:17.000Z</time>
      </trkpt>
      <trkpt lat="44.1252" lon="6.35994">
        <ele>1080.2</ele>
        <time>2019-06-23T09:28:20.000Z</time>
      </trkpt>
      <trkpt lat="44.1252" lon="6.35998">
        <ele>1080.4</ele>
        <time>2019-06-23T09:28:21.000Z</time>
      </trkpt>
      <trkpt lat="44.12521" lon="6.36006">
        <ele>1081</ele>
        <time>2019-06-23T09:28:23.000Z</time>
      </trkpt>
      <trkpt lat="44.12521" lon="6.36014">
        <ele>1081.4</ele>
        <time>2019-06-23T09:28:25.000Z</time>
      </trkpt>
      <trkpt lat="44.12517" lon="6.36029">
        <ele>1081.6</ele>
        <time>2019-06-23T09:28:29.000Z</time>
      </trkpt>
      <trkpt lat="44.12516" lon="6.36054">
        <ele>1082.2</ele>
        <time>2019-06-23T09:28:36.000Z</time>
      </trkpt>
      <trkpt lat="44.12517" lon="6.36057">
        <ele>1082.4</ele>
        <time>2019-06-23T09:28:37.000Z</time>
      </trkpt>
      <trkpt lat="44.12517" lon="6.36061">
        <ele>1082.6</ele>
        <time>2019-06-23T09:28:38.000Z</time>
      </trkpt>
      <trkpt lat="44.12517" lon="6.36084">
        <ele>1083.4</ele>
        <time>2019-06-23T09:28:45.000Z</time>
      </trkpt>
      <trkpt lat="44.12517" lon="6.3609">
        <ele>1083.8</ele>
        <time>2019-06-23T09:28:47.000Z</time>
      </trkpt>
      <trkpt lat="44.12519" lon="6.36098">
        <ele>1084</ele>
        <time>2019-06-23T09:28:50.000Z</time>
      </trkpt>
      <trkpt lat="44.12527" lon="6.36113">
        <ele>1084.6</ele>
        <time>2019-06-23T09:28:56.000Z</time>
      </trkpt>
      <trkpt lat="44.12528" lon="6.36116">
        <ele>1084.8</ele>
        <time>2019-06-23T09:28:57.000Z</time>
      </trkpt>
      <trkpt lat="44.12537" lon="6.36132">
        <ele>1085.6</ele>
        <time>2019-06-23T09:29:02.000Z</time>
      </trkpt>
      <trkpt lat="44.12539" lon="6.36138">
        <ele>1085.8</ele>
        <time>2019-06-23T09:29:04.000Z</time>
      </trkpt>
      <trkpt lat="44.12544" lon="6.36151">
        <ele>1086.6</ele>
        <time>2019-06-23T09:29:08.000Z</time>
      </trkpt>
      <trkpt lat="44.12544" lon="6.36154">
        <ele>1087</ele>
        <time>2019-06-23T09:29:09.000Z</time>
      </trkpt>
      <trkpt lat="44.12546" lon="6.36161">
        <ele>1087.2</ele>
        <time>2019-06-23T09:29:11.000Z</time>
      </trkpt>
      <trkpt lat="44.12548" lon="6.36169">
        <ele>1088.2</ele>
        <time>2019-06-23T09:29:14.000Z</time>
      </trkpt>
      <trkpt lat="44.12552" lon="6.36181">
        <ele>1089.2</ele>
        <time>2019-06-23T09:29:18.000Z</time>
      </trkpt>
      <trkpt lat="44.12554" lon="6.36188">
        <ele>1089.4</ele>
        <time>2019-06-23T09:29:20.000Z</time>
      </trkpt>
      <trkpt lat="44.12559" lon="6.362">
        <ele>1090.4</ele>
        <time>2019-06-23T09:29:24.000Z</time>
      </trkpt>
      <trkpt lat="44.12561" lon="6.36209">
        <ele>1091</ele>
        <time>2019-06-23T09:29:27.000Z</time>
      </trkpt>
      <trkpt lat="44.12564" lon="6.36214">
        <ele>1091.6</ele>
        <time>2019-06-23T09:29:29.000Z</time>
      </trkpt>
      <trkpt lat="44.12568" lon="6.36221">
        <ele>1094.2</ele>
        <time>2019-06-23T09:36:25.000Z</time>
      </trkpt>
      <trkpt lat="44.12571" lon="6.36214">
        <ele>1094</ele>
        <time>2019-06-23T09:36:28.000Z</time>
      </trkpt>
      <trkpt lat="44.1258" lon="6.36201">
        <ele>1093.4</ele>
        <time>2019-06-23T09:36:32.000Z</time>
      </trkpt>
      <trkpt lat="44.12584" lon="6.36198">
        <ele>1092.8</ele>
        <time>2019-06-23T09:36:33.000Z</time>
      </trkpt>
      <trkpt lat="44.12588" lon="6.36195">
        <ele>1091.8</ele>
        <time>2019-06-23T09:36:34.000Z</time>
      </trkpt>
      <trkpt lat="44.12593" lon="6.36189">
        <ele>1090.8</ele>
        <time>2019-06-23T09:36:35.000Z</time>
      </trkpt>
      <trkpt lat="44.12598" lon="6.36184">
        <ele>1089.8</ele>
        <time>2019-06-23T09:36:36.000Z</time>
      </trkpt>
      <trkpt lat="44.12601" lon="6.3618">
        <ele>1088.6</ele>
        <time>2019-06-23T09:36:37.000Z</time>
      </trkpt>
      <trkpt lat="44.12603" lon="6.36176">
        <ele>1087.6</ele>
        <time>2019-06-23T09:36:38.000Z</time>
      </trkpt>
      <trkpt lat="44.12605" lon="6.36171">
        <ele>1087</ele>
        <time>2019-06-23T09:36:39.000Z</time>
      </trkpt>
      <trkpt lat="44.12612" lon="6.3616">
        <ele>1085.2</ele>
        <time>2019-06-23T09:36:41.000Z</time>
      </trkpt>
      <trkpt lat="44.12615" lon="6.36154">
        <ele>1084.2</ele>
        <time>2019-06-23T09:36:42.000Z</time>
      </trkpt>
      <trkpt lat="44.12617" lon="6.36152">
        <ele>1083.2</ele>
        <time>2019-06-23T09:36:43.000Z</time>
      </trkpt>
      <trkpt lat="44.12617" lon="6.36151">
        <ele>1082.2</ele>
        <time>2019-06-23T09:36:44.000Z</time>
      </trkpt>
      <trkpt lat="44.12617" lon="6.36151">
        <ele>1081.4</ele>
        <time>2019-06-23T09:36:45.000Z</time>
      </trkpt>
      <trkpt lat="44.12617" lon="6.36152">
        <ele>1081</ele>
        <time>2019-06-23T09:36:46.000Z</time>
      </trkpt>
      <trkpt lat="44.12617" lon="6.36152">
        <ele>1080.8</ele>
        <time>2019-06-23T09:36:48.000Z</time>
      </trkpt>
      <trkpt lat="44.12617" lon="6.36152">
        <ele>1080.8</ele>
        <time>2019-06-23T09:36:50.000Z</time>
      </trkpt>
      <trkpt lat="44.12617" lon="6.36152">
        <ele>1080.4</ele>
        <time>2019-06-23T09:36:56.000Z</time>
      </trkpt>
      <trkpt lat="44.12617" lon="6.36152">
        <ele>1080.4</ele>
        <time>2019-06-23T09:36:57.000Z</time>
      </trkpt>
      <trkpt lat="44.12617" lon="6.36152">
        <ele>1080.4</ele>
        <time>2019-06-23T09:36:59.000Z</time>
      </trkpt>
      <trkpt lat="44.12617" lon="6.36152">
        <ele>1080.4</ele>
        <time>2019-06-23T09:37:01.000Z</time>
      </trkpt>
      <trkpt lat="44.12618" lon="6.36153">
        <ele>1080.4</ele>
        <time>2019-06-23T09:37:06.000Z</time>
      </trkpt>
      <trkpt lat="44.12617" lon="6.36153">
        <ele>1080.4</ele>
        <time>2019-06-23T09:37:15.000Z</time>
      </trkpt>
      <trkpt lat="44.12617" lon="6.36153">
        <ele>1080</ele>
        <time>2019-06-23T09:37:21.000Z</time>
      </trkpt>
      <trkpt lat="44.12617" lon="6.36154">
        <ele>1080</ele>
        <time>2019-06-23T09:37:34.000Z</time>
      </trkpt>
      <trkpt lat="44.12617" lon="6.36154">
        <ele>1080.4</ele>
        <time>2019-06-23T09:37:45.000Z</time>
      </trkpt>
      <trkpt lat="44.12621" lon="6.36151">
        <ele>1080.2</ele>
        <time>2019-06-23T09:37:47.000Z</time>
      </trkpt>
      <trkpt lat="44.12632" lon="6.36143">
        <ele>1079</ele>
        <time>2019-06-23T09:37:50.000Z</time>
      </trkpt>
      <trkpt lat="44.12638" lon="6.3614">
        <ele>1078.2</ele>
        <time>2019-06-23T09:37:51.000Z</time>
      </trkpt>
      <trkpt lat="44.12643" lon="6.36136">
        <ele>1077.4</ele>
        <time>2019-06-23T09:37:52.000Z</time>
      </trkpt>
      <trkpt lat="44.12646" lon="6.36131">
        <ele>1076.4</ele>
        <time>2019-06-23T09:37:53.000Z</time>
      </trkpt>
      <trkpt lat="44.12649" lon="6.36127">
        <ele>1075</ele>
        <time>2019-06-23T09:37:54.000Z</time>
      </trkpt>
      <trkpt lat="44.12653" lon="6.36126">
        <ele>1074</ele>
        <time>2019-06-23T09:37:55.000Z</time>
      </trkpt>
      <trkpt lat="44.12656" lon="6.36126">
        <ele>1073.4</ele>
        <time>2019-06-23T09:37:56.000Z</time>
      </trkpt>
      <trkpt lat="44.12659" lon="6.36127">
        <ele>1073</ele>
        <time>2019-06-23T09:37:57.000Z</time>
      </trkpt>
      <trkpt lat="44.12668" lon="6.36126">
        <ele>1072.2</ele>
        <time>2019-06-23T09:38:00.000Z</time>
      </trkpt>
      <trkpt lat="44.12671" lon="6.36124">
        <ele>1072</ele>
        <time>2019-06-23T09:38:01.000Z</time>
      </trkpt>
      <trkpt lat="44.12676" lon="6.36121">
        <ele>1071</ele>
        <time>2019-06-23T09:38:03.000Z</time>
      </trkpt>
      <trkpt lat="44.12677" lon="6.36118">
        <ele>1070.6</ele>
        <time>2019-06-23T09:38:04.000Z</time>
      </trkpt>
      <trkpt lat="44.12677" lon="6.36112">
        <ele>1069.6</ele>
        <time>2019-06-23T09:38:06.000Z</time>
      </trkpt>
      <trkpt lat="44.12675" lon="6.36105">
        <ele>1068.8</ele>
        <time>2019-06-23T09:38:08.000Z</time>
      </trkpt>
      <trkpt lat="44.12674" lon="6.36099">
        <ele>1068.2</ele>
        <time>2019-06-23T09:38:09.000Z</time>
      </trkpt>
      <trkpt lat="44.12676" lon="6.36086">
        <ele>1066.2</ele>
        <time>2019-06-23T09:38:11.000Z</time>
      </trkpt>
      <trkpt lat="44.12676" lon="6.36082">
        <ele>1065.2</ele>
        <time>2019-06-23T09:38:12.000Z</time>
      </trkpt>
      <trkpt lat="44.12677" lon="6.36079">
        <ele>1064.4</ele>
        <time>2019-06-23T09:38:13.000Z</time>
      </trkpt>
      <trkpt lat="44.12681" lon="6.36074">
        <ele>1063.6</ele>
        <time>2019-06-23T09:38:14.000Z</time>
      </trkpt>
      <trkpt lat="44.12687" lon="6.36066">
        <ele>1062</ele>
        <time>2019-06-23T09:38:16.000Z</time>
      </trkpt>
      <trkpt lat="44.12687" lon="6.36063">
        <ele>1061.4</ele>
        <time>2019-06-23T09:38:17.000Z</time>
      </trkpt>
      <trkpt lat="44.12687" lon="6.36059">
        <ele>1061</ele>
        <time>2019-06-23T09:38:18.000Z</time>
      </trkpt>
      <trkpt lat="44.12688" lon="6.36056">
        <ele>1060.8</ele>
        <time>2019-06-23T09:38:19.000Z</time>
      </trkpt>
      <trkpt lat="44.1269" lon="6.36054">
        <ele>1060.4</ele>
        <time>2019-06-23T09:38:20.000Z</time>
      </trkpt>
      <trkpt lat="44.12695" lon="6.36049">
        <ele>1059.8</ele>
        <time>2019-06-23T09:38:22.000Z</time>
      </trkpt>
      <trkpt lat="44.12699" lon="6.36046">
        <ele>1059</ele>
        <time>2019-06-23T09:38:23.000Z</time>
      </trkpt>
      <trkpt lat="44.12702" lon="6.36045">
        <ele>1057.4</ele>
        <time>2019-06-23T09:38:24.000Z</time>
      </trkpt>
      <trkpt lat="44.12705" lon="6.36045">
        <ele>1056.4</ele>
        <time>2019-06-23T09:38:25.000Z</time>
      </trkpt>
      <trkpt lat="44.12711" lon="6.36048">
        <ele>1055.2</ele>
        <time>2019-06-23T09:38:27.000Z</time>
      </trkpt>
      <trkpt lat="44.12715" lon="6.36049">
        <ele>1055</ele>
        <time>2019-06-23T09:38:28.000Z</time>
      </trkpt>
      <trkpt lat="44.12725" lon="6.36042">
        <ele>1055.2</ele>
        <time>2019-06-23T09:38:32.000Z</time>
      </trkpt>
      <trkpt lat="44.12728" lon="6.36032">
        <ele>1056.2</ele>
        <time>2019-06-23T09:38:36.000Z</time>
      </trkpt>
      <trkpt lat="44.12731" lon="6.36019">
        <ele>1056.2</ele>
        <time>2019-06-23T09:38:39.000Z</time>
      </trkpt>
      <trkpt lat="44.12736" lon="6.36002">
        <ele>1055.8</ele>
        <time>2019-06-23T09:38:43.000Z</time>
      </trkpt>
      <trkpt lat="44.12739" lon="6.35988">
        <ele>1055.4</ele>
        <time>2019-06-23T09:38:45.000Z</time>
      </trkpt>
      <trkpt lat="44.12741" lon="6.35983">
        <ele>1054.6</ele>
        <time>2019-06-23T09:38:46.000Z</time>
      </trkpt>
      <trkpt lat="44.12743" lon="6.35978">
        <ele>1053.6</ele>
        <time>2019-06-23T09:38:47.000Z</time>
      </trkpt>
      <trkpt lat="44.12746" lon="6.35975">
        <ele>1053.2</ele>
        <time>2019-06-23T09:38:48.000Z</time>
      </trkpt>
      <trkpt lat="44.12751" lon="6.35969">
        <ele>1052.4</ele>
        <time>2019-06-23T09:38:50.000Z</time>
      </trkpt>
      <trkpt lat="44.12758" lon="6.35962">
        <ele>1052.4</ele>
        <time>2019-06-23T09:38:53.000Z</time>
      </trkpt>
      <trkpt lat="44.12758" lon="6.35962">
        <ele>1052</ele>
        <time>2019-06-23T09:38:54.000Z</time>
      </trkpt>
      <trkpt lat="44.12761" lon="6.35956">
        <ele>1051.8</ele>
        <time>2019-06-23T09:38:58.000Z</time>
      </trkpt>
      <trkpt lat="44.12766" lon="6.35953">
        <ele>1052.2</ele>
        <time>2019-06-23T09:39:00.000Z</time>
      </trkpt>
      <trkpt lat="44.12774" lon="6.3595">
        <ele>1052.6</ele>
        <time>2019-06-23T09:39:03.000Z</time>
      </trkpt>
      <trkpt lat="44.1278" lon="6.35946">
        <ele>1053</ele>
        <time>2019-06-23T09:39:07.000Z</time>
      </trkpt>
      <trkpt lat="44.1278" lon="6.35946">
        <ele>1053.2</ele>
        <time>2019-06-23T09:39:08.000Z</time>
      </trkpt>
      <trkpt lat="44.12781" lon="6.3594">
        <ele>1053</ele>
        <time>2019-06-23T09:39:13.000Z</time>
      </trkpt>
      <trkpt lat="44.12787" lon="6.35932">
        <ele>1053.4</ele>
        <time>2019-06-23T09:39:19.000Z</time>
      </trkpt>
      <trkpt lat="44.12792" lon="6.35931">
        <ele>1053.4</ele>
        <time>2019-06-23T09:39:21.000Z</time>
      </trkpt>
      <trkpt lat="44.12795" lon="6.35927">
        <ele>1053</ele>
        <time>2019-06-23T09:39:22.000Z</time>
      </trkpt>
      <trkpt lat="44.12796" lon="6.35919">
        <ele>1052.6</ele>
        <time>2019-06-23T09:39:24.000Z</time>
      </trkpt>
      <trkpt lat="44.12795" lon="6.35916">
        <ele>1052.6</ele>
        <time>2019-06-23T09:39:25.000Z</time>
      </trkpt>
      <trkpt lat="44.12794" lon="6.35902">
        <ele>1053</ele>
        <time>2019-06-23T09:39:29.000Z</time>
      </trkpt>
      <trkpt lat="44.12795" lon="6.35895">
        <ele>1053.4</ele>
        <time>2019-06-23T09:39:31.000Z</time>
      </trkpt>
      <trkpt lat="44.12794" lon="6.35891">
        <ele>1053.6</ele>
        <time>2019-06-23T09:39:32.000Z</time>
      </trkpt>
      <trkpt lat="44.12784" lon="6.35878">
        <ele>1053.2</ele>
        <time>2019-06-23T09:39:35.000Z</time>
      </trkpt>
      <trkpt lat="44.12784" lon="6.35858">
        <ele>1051</ele>
        <time>2019-06-23T09:39:38.000Z</time>
      </trkpt>
      <trkpt lat="44.12785" lon="6.35853">
        <ele>1050.2</ele>
        <time>2019-06-23T09:39:39.000Z</time>
      </trkpt>
      <trkpt lat="44.12785" lon="6.3585">
        <ele>1049.8</ele>
        <time>2019-06-23T09:39:40.000Z</time>
      </trkpt>
      <trkpt lat="44.12787" lon="6.35847">
        <ele>1049.6</ele>
        <time>2019-06-23T09:39:41.000Z</time>
      </trkpt>
      <trkpt lat="44.12791" lon="6.35846">
        <ele>1049.8</ele>
        <time>2019-06-23T09:39:43.000Z</time>
      </trkpt>
      <trkpt lat="44.12796" lon="6.35844">
        <ele>1050.6</ele>
        <time>2019-06-23T09:39:45.000Z</time>
      </trkpt>
      <trkpt lat="44.12798" lon="6.35842">
        <ele>1051</ele>
        <time>2019-06-23T09:39:46.000Z</time>
      </trkpt>
      <trkpt lat="44.12803" lon="6.3584">
        <ele>1051.6</ele>
        <time>2019-06-23T09:39:48.000Z</time>
      </trkpt>
      <trkpt lat="44.12804" lon="6.3584">
        <ele>1052.2</ele>
        <time>2019-06-23T09:39:49.000Z</time>
      </trkpt>
      <trkpt lat="44.12811" lon="6.35839">
        <ele>1053.4</ele>
        <time>2019-06-23T09:39:52.000Z</time>
      </trkpt>
      <trkpt lat="44.12813" lon="6.35839">
        <ele>1054.2</ele>
        <time>2019-06-23T09:39:53.000Z</time>
      </trkpt>
      <trkpt lat="44.12815" lon="6.35838">
        <ele>1054.6</ele>
        <time>2019-06-23T09:39:54.000Z</time>
      </trkpt>
      <trkpt lat="44.12818" lon="6.35829">
        <ele>1055.4</ele>
        <time>2019-06-23T09:39:57.000Z</time>
      </trkpt>
      <trkpt lat="44.12818" lon="6.35823">
        <ele>1055.6</ele>
        <time>2019-06-23T09:39:59.000Z</time>
      </trkpt>
      <trkpt lat="44.12819" lon="6.35814">
        <ele>1056.8</ele>
        <time>2019-06-23T09:40:02.000Z</time>
      </trkpt>
      <trkpt lat="44.12819" lon="6.35812">
        <ele>1057</ele>
        <time>2019-06-23T09:40:03.000Z</time>
      </trkpt>
      <trkpt lat="44.1282" lon="6.35809">
        <ele>1057.2</ele>
        <time>2019-06-23T09:40:04.000Z</time>
      </trkpt>
      <trkpt lat="44.12823" lon="6.35807">
        <ele>1058</ele>
        <time>2019-06-23T09:40:06.000Z</time>
      </trkpt>
      <trkpt lat="44.12825" lon="6.35804">
        <ele>1058.4</ele>
        <time>2019-06-23T09:40:07.000Z</time>
      </trkpt>
      <trkpt lat="44.12835" lon="6.3579">
        <ele>1057.8</ele>
        <time>2019-06-23T09:40:11.000Z</time>
      </trkpt>
      <trkpt lat="44.12838" lon="6.35785">
        <ele>1056.8</ele>
        <time>2019-06-23T09:40:13.000Z</time>
      </trkpt>
      <trkpt lat="44.12838" lon="6.35782">
        <ele>1056.2</ele>
        <time>2019-06-23T09:40:14.000Z</time>
      </trkpt>
      <trkpt lat="44.12837" lon="6.35779">
        <ele>1055.4</ele>
        <time>2019-06-23T09:40:15.000Z</time>
      </trkpt>
      <trkpt lat="44.12838" lon="6.35776">
        <ele>1054.8</ele>
        <time>2019-06-23T09:40:16.000Z</time>
      </trkpt>
      <trkpt lat="44.12839" lon="6.35773">
        <ele>1054.4</ele>
        <time>2019-06-23T09:40:17.000Z</time>
      </trkpt>
      <trkpt lat="44.1284" lon="6.35771">
        <ele>1053.8</ele>
        <time>2019-06-23T09:40:18.000Z</time>
      </trkpt>
      <trkpt lat="44.12842" lon="6.35765">
        <ele>1053.4</ele>
        <time>2019-06-23T09:40:20.000Z</time>
      </trkpt>
      <trkpt lat="44.12845" lon="6.35762">
        <ele>1053.2</ele>
        <time>2019-06-23T09:40:21.000Z</time>
      </trkpt>
      <trkpt lat="44.12857" lon="6.35761">
        <ele>1052.2</ele>
        <time>2019-06-23T09:40:24.000Z</time>
      </trkpt>
      <trkpt lat="44.12861" lon="6.35763">
        <ele>1052</ele>
        <time>2019-06-23T09:40:25.000Z</time>
      </trkpt>
      <trkpt lat="44.1287" lon="6.35767">
        <ele>1051.2</ele>
        <time>2019-06-23T09:40:27.000Z</time>
      </trkpt>
      <trkpt lat="44.12874" lon="6.35766">
        <ele>1050.8</ele>
        <time>2019-06-23T09:40:28.000Z</time>
      </trkpt>
      <trkpt lat="44.1288" lon="6.35764">
        <ele>1050</ele>
        <time>2019-06-23T09:40:30.000Z</time>
      </trkpt>
      <trkpt lat="44.12883" lon="6.35765">
        <ele>1049.4</ele>
        <time>2019-06-23T09:40:32.000Z</time>
      </trkpt>
      <trkpt lat="44.12883" lon="6.35765">
        <ele>1049</ele>
        <time>2019-06-23T09:40:34.000Z</time>
      </trkpt>
      <trkpt lat="44.12886" lon="6.35767">
        <ele>1048.8</ele>
        <time>2019-06-23T09:40:36.000Z</time>
      </trkpt>
      <trkpt lat="44.12891" lon="6.35767">
        <ele>1048.4</ele>
        <time>2019-06-23T09:40:38.000Z</time>
      </trkpt>
      <trkpt lat="44.12897" lon="6.35772">
        <ele>1048</ele>
        <time>2019-06-23T09:40:40.000Z</time>
      </trkpt>
      <trkpt lat="44.129" lon="6.35773">
        <ele>1047.6</ele>
        <time>2019-06-23T09:40:41.000Z</time>
      </trkpt>
      <trkpt lat="44.12906" lon="6.35769">
        <ele>1047</ele>
        <time>2019-06-23T09:40:43.000Z</time>
      </trkpt>
      <trkpt lat="44.12908" lon="6.35765">
        <ele>1046.8</ele>
        <time>2019-06-23T09:40:44.000Z</time>
      </trkpt>
      <trkpt lat="44.12908" lon="6.35761">
        <ele>1046.8</ele>
        <time>2019-06-23T09:40:45.000Z</time>
      </trkpt>
      <trkpt lat="44.12908" lon="6.35758">
        <ele>1046.8</ele>
        <time>2019-06-23T09:40:46.000Z</time>
      </trkpt>
      <trkpt lat="44.12908" lon="6.35755">
        <ele>1046.8</ele>
        <time>2019-06-23T09:40:47.000Z</time>
      </trkpt>
      <trkpt lat="44.1291" lon="6.35753">
        <ele>1046.8</ele>
        <time>2019-06-23T09:40:48.000Z</time>
      </trkpt>
      <trkpt lat="44.12917" lon="6.35755">
        <ele>1046.6</ele>
        <time>2019-06-23T09:40:50.000Z</time>
      </trkpt>
      <trkpt lat="44.12924" lon="6.3576">
        <ele>1045.8</ele>
        <time>2019-06-23T09:40:52.000Z</time>
      </trkpt>
      <trkpt lat="44.12925" lon="6.3576">
        <ele>1045.4</ele>
        <time>2019-06-23T09:40:53.000Z</time>
      </trkpt>
      <trkpt lat="44.12926" lon="6.35761">
        <ele>1045.2</ele>
        <time>2019-06-23T09:40:58.000Z</time>
      </trkpt>
      <trkpt lat="44.12926" lon="6.35761">
        <ele>1045.2</ele>
        <time>2019-06-23T09:40:59.000Z</time>
      </trkpt>
      <trkpt lat="44.12926" lon="6.35761">
        <ele>1045.2</ele>
        <time>2019-06-23T09:41:00.000Z</time>
      </trkpt>
      <trkpt lat="44.12926" lon="6.35761">
        <ele>1045.2</ele>
        <time>2019-06-23T09:41:03.000Z</time>
      </trkpt>
      <trkpt lat="44.12926" lon="6.35761">
        <ele>1045.2</ele>
        <time>2019-06-23T09:41:05.000Z</time>
      </trkpt>
      <trkpt lat="44.12927" lon="6.3576">
        <ele>1045</ele>
        <time>2019-06-23T09:41:07.000Z</time>
      </trkpt>
      <trkpt lat="44.12928" lon="6.3576">
        <ele>1045</ele>
        <time>2019-06-23T09:41:08.000Z</time>
      </trkpt>
      <trkpt lat="44.12933" lon="6.35759">
        <ele>1044.8</ele>
        <time>2019-06-23T09:41:10.000Z</time>
      </trkpt>
      <trkpt lat="44.12935" lon="6.35761">
        <ele>1044.4</ele>
        <time>2019-06-23T09:41:11.000Z</time>
      </trkpt>
      <trkpt lat="44.12942" lon="6.35765">
        <ele>1043.4</ele>
        <time>2019-06-23T09:41:13.000Z</time>
      </trkpt>
      <trkpt lat="44.12946" lon="6.35764">
        <ele>1043.2</ele>
        <time>2019-06-23T09:41:14.000Z</time>
      </trkpt>
      <trkpt lat="44.12954" lon="6.35762">
        <ele>1042.8</ele>
        <time>2019-06-23T09:41:16.000Z</time>
      </trkpt>
      <trkpt lat="44.12957" lon="6.35764">
        <ele>1042.6</ele>
        <time>2019-06-23T09:41:18.000Z</time>
      </trkpt>
      <trkpt lat="44.12962" lon="6.35765">
        <ele>1042.8</ele>
        <time>2019-06-23T09:41:20.000Z</time>
      </trkpt>
      <trkpt lat="44.12966" lon="6.35765">
        <ele>1042.8</ele>
        <time>2019-06-23T09:41:21.000Z</time>
      </trkpt>
      <trkpt lat="44.12974" lon="6.35763">
        <ele>1042.6</ele>
        <time>2019-06-23T09:41:23.000Z</time>
      </trkpt>
      <trkpt lat="44.12985" lon="6.3576">
        <ele>1042</ele>
        <time>2019-06-23T09:41:25.000Z</time>
      </trkpt>
      <trkpt lat="44.12993" lon="6.35756">
        <ele>1041.6</ele>
        <time>2019-06-23T09:41:27.000Z</time>
      </trkpt>
      <trkpt lat="44.12995" lon="6.35754">
        <ele>1041.6</ele>
        <time>2019-06-23T09:41:28.000Z</time>
      </trkpt>
      <trkpt lat="44.12998" lon="6.35751">
        <ele>1041.6</ele>
        <time>2019-06-23T09:41:30.000Z</time>
      </trkpt>
      <trkpt lat="44.1301" lon="6.35745">
        <ele>1041.4</ele>
        <time>2019-06-23T09:41:33.000Z</time>
      </trkpt>
      <trkpt lat="44.13017" lon="6.35744">
        <ele>1040.8</ele>
        <time>2019-06-23T09:41:34.000Z</time>
      </trkpt>
      <trkpt lat="44.13023" lon="6.35745">
        <ele>1040.4</ele>
        <time>2019-06-23T09:41:35.000Z</time>
      </trkpt>
      <trkpt lat="44.13029" lon="6.35745">
        <ele>1039.8</ele>
        <time>2019-06-23T09:41:36.000Z</time>
      </trkpt>
      <trkpt lat="44.13035" lon="6.35742">
        <ele>1039.6</ele>
        <time>2019-06-23T09:41:37.000Z</time>
      </trkpt>
      <trkpt lat="44.13046" lon="6.35734">
        <ele>1039.2</ele>
        <time>2019-06-23T09:41:39.000Z</time>
      </trkpt>
      <trkpt lat="44.13054" lon="6.35726">
        <ele>1039</ele>
        <time>2019-06-23T09:41:42.000Z</time>
      </trkpt>
      <trkpt lat="44.13056" lon="6.35725">
        <ele>1038.8</ele>
        <time>2019-06-23T09:41:43.000Z</time>
      </trkpt>
      <trkpt lat="44.13062" lon="6.35726">
        <ele>1039</ele>
        <time>2019-06-23T09:41:45.000Z</time>
      </trkpt>
      <trkpt lat="44.13065" lon="6.35728">
        <ele>1039</ele>
        <time>2019-06-23T09:41:46.000Z</time>
      </trkpt>
      <trkpt lat="44.13076" lon="6.35735">
        <ele>1039.6</ele>
        <time>2019-06-23T09:41:50.000Z</time>
      </trkpt>
      <trkpt lat="44.13078" lon="6.35737">
        <ele>1039.8</ele>
        <time>2019-06-23T09:41:51.000Z</time>
      </trkpt>
      <trkpt lat="44.13081" lon="6.35742">
        <ele>1040.2</ele>
        <time>2019-06-23T09:41:53.000Z</time>
      </trkpt>
      <trkpt lat="44.13087" lon="6.35745">
        <ele>1041.2</ele>
        <time>2019-06-23T09:41:55.000Z</time>
      </trkpt>
      <trkpt lat="44.13096" lon="6.3575">
        <ele>1041.6</ele>
        <time>2019-06-23T09:41:58.000Z</time>
      </trkpt>
      <trkpt lat="44.13102" lon="6.35755">
        <ele>1042</ele>
        <time>2019-06-23T09:42:00.000Z</time>
      </trkpt>
      <trkpt lat="44.13108" lon="6.35757">
        <ele>1042.2</ele>
        <time>2019-06-23T09:42:02.000Z</time>
      </trkpt>
      <trkpt lat="44.13117" lon="6.35769">
        <ele>1041.8</ele>
        <time>2019-06-23T09:42:05.000Z</time>
      </trkpt>
      <trkpt lat="44.13118" lon="6.35774">
        <ele>1041.6</ele>
        <time>2019-06-23T09:42:06.000Z</time>
      </trkpt>
      <trkpt lat="44.1312" lon="6.35787">
        <ele>1041.2</ele>
        <time>2019-06-23T09:42:08.000Z</time>
      </trkpt>
      <trkpt lat="44.1312" lon="6.35793">
        <ele>1041</ele>
        <time>2019-06-23T09:42:09.000Z</time>
      </trkpt>
      <trkpt lat="44.13121" lon="6.35798">
        <ele>1040.6</ele>
        <time>2019-06-23T09:42:10.000Z</time>
      </trkpt>
      <trkpt lat="44.13127" lon="6.35802">
        <ele>1040</ele>
        <time>2019-06-23T09:42:12.000Z</time>
      </trkpt>
      <trkpt lat="44.1313" lon="6.35803">
        <ele>1039.6</ele>
        <time>2019-06-23T09:42:13.000Z</time>
      </trkpt>
      <trkpt lat="44.13132" lon="6.35805">
        <ele>1038.8</ele>
        <time>2019-06-23T09:42:14.000Z</time>
      </trkpt>
      <trkpt lat="44.13133" lon="6.35808">
        <ele>1037.8</ele>
        <time>2019-06-23T09:42:15.000Z</time>
      </trkpt>
      <trkpt lat="44.13133" lon="6.35812">
        <ele>1036.6</ele>
        <time>2019-06-23T09:42:16.000Z</time>
      </trkpt>
      <trkpt lat="44.13133" lon="6.35818">
        <ele>1035.2</ele>
        <time>2019-06-23T09:42:17.000Z</time>
      </trkpt>
      <trkpt lat="44.13133" lon="6.35824">
        <ele>1033.8</ele>
        <time>2019-06-23T09:42:18.000Z</time>
      </trkpt>
      <trkpt lat="44.13133" lon="6.3583">
        <ele>1032.2</ele>
        <time>2019-06-23T09:42:19.000Z</time>
      </trkpt>
      <trkpt lat="44.13132" lon="6.35836">
        <ele>1030.4</ele>
        <time>2019-06-23T09:42:20.000Z</time>
      </trkpt>
      <trkpt lat="44.13132" lon="6.35843">
        <ele>1028.6</ele>
        <time>2019-06-23T09:42:21.000Z</time>
      </trkpt>
      <trkpt lat="44.13133" lon="6.3585">
        <ele>1027</ele>
        <time>2019-06-23T09:42:22.000Z</time>
      </trkpt>
      <trkpt lat="44.13132" lon="6.35856">
        <ele>1025.6</ele>
        <time>2019-06-23T09:42:23.000Z</time>
      </trkpt>
      <trkpt lat="44.1313" lon="6.3586">
        <ele>1024.4</ele>
        <time>2019-06-23T09:42:24.000Z</time>
      </trkpt>
      <trkpt lat="44.13128" lon="6.35864">
        <ele>1023.4</ele>
        <time>2019-06-23T09:42:25.000Z</time>
      </trkpt>
      <trkpt lat="44.13127" lon="6.35867">
        <ele>1022.4</ele>
        <time>2019-06-23T09:42:26.000Z</time>
      </trkpt>
      <trkpt lat="44.13127" lon="6.35867">
        <ele>1021.4</ele>
        <time>2019-06-23T09:42:27.000Z</time>
      </trkpt>
      <trkpt lat="44.13127" lon="6.35867">
        <ele>1020.6</ele>
        <time>2019-06-23T09:42:28.000Z</time>
      </trkpt>
      <trkpt lat="44.13127" lon="6.35866">
        <ele>1019.6</ele>
        <time>2019-06-23T09:42:32.000Z</time>
      </trkpt>
      <trkpt lat="44.13127" lon="6.35865">
        <ele>1019.6</ele>
        <time>2019-06-23T09:42:37.000Z</time>
      </trkpt>
      <trkpt lat="44.13127" lon="6.35865">
        <ele>1019.6</ele>
        <time>2019-06-23T09:42:40.000Z</time>
      </trkpt>
      <trkpt lat="44.13127" lon="6.35865">
        <ele>1019.2</ele>
        <time>2019-06-23T09:42:49.000Z</time>
      </trkpt>
      <trkpt lat="44.13127" lon="6.35866">
        <ele>1019.4</ele>
        <time>2019-06-23T09:43:03.000Z</time>
      </trkpt>
      <trkpt lat="44.13127" lon="6.35866">
        <ele>1019.4</ele>
        <time>2019-06-23T09:43:04.000Z</time>
      </trkpt>
      <trkpt lat="44.13127" lon="6.35866">
        <ele>1019.2</ele>
        <time>2019-06-23T09:43:12.000Z</time>
      </trkpt>
      <trkpt lat="44.13126" lon="6.35866">
        <ele>1019.2</ele>
        <time>2019-06-23T09:43:14.000Z</time>
      </trkpt>
      <trkpt lat="44.13126" lon="6.35866">
        <ele>1019</ele>
        <time>2019-06-23T09:43:18.000Z</time>
      </trkpt>
      <trkpt lat="44.13126" lon="6.35866">
        <ele>1019</ele>
        <time>2019-06-23T09:43:19.000Z</time>
      </trkpt>
      <trkpt lat="44.13126" lon="6.35866">
        <ele>1019</ele>
        <time>2019-06-23T09:43:20.000Z</time>
      </trkpt>
      <trkpt lat="44.13126" lon="6.35866">
        <ele>1018.8</ele>
        <time>2019-06-23T09:43:30.000Z</time>
      </trkpt>
      <trkpt lat="44.13125" lon="6.35865">
        <ele>1018.6</ele>
        <time>2019-06-23T09:43:43.000Z</time>
      </trkpt>
      <trkpt lat="44.13125" lon="6.35865">
        <ele>1018.4</ele>
        <time>2019-06-23T09:43:44.000Z</time>
      </trkpt>
      <trkpt lat="44.13125" lon="6.35865">
        <ele>1018.2</ele>
        <time>2019-06-23T09:43:46.000Z</time>
      </trkpt>
      <trkpt lat="44.13125" lon="6.35865">
        <ele>1018.2</ele>
        <time>2019-06-23T09:43:48.000Z</time>
      </trkpt>
      <trkpt lat="44.13125" lon="6.35865">
        <ele>1018.8</ele>
        <time>2019-06-23T09:43:56.000Z</time>
      </trkpt>
      <trkpt lat="44.13125" lon="6.35865">
        <ele>1019</ele>
        <time>2019-06-23T09:43:58.000Z</time>
      </trkpt>
      <trkpt lat="44.13125" lon="6.35865">
        <ele>1019.4</ele>
        <time>2019-06-23T09:44:04.000Z</time>
      </trkpt>
      <trkpt lat="44.13125" lon="6.35865">
        <ele>1019.6</ele>
        <time>2019-06-23T09:44:06.000Z</time>
      </trkpt>
      <trkpt lat="44.13125" lon="6.35865">
        <ele>1019.4</ele>
        <time>2019-06-23T09:44:15.000Z</time>
      </trkpt>
      <trkpt lat="44.13125" lon="6.35865">
        <ele>1019.8</ele>
        <time>2019-06-23T09:44:22.000Z</time>
      </trkpt>
      <trkpt lat="44.13126" lon="6.35872">
        <ele>1019.8</ele>
        <time>2019-06-23T09:44:25.000Z</time>
      </trkpt>
      <trkpt lat="44.13126" lon="6.35877">
        <ele>1019.4</ele>
        <time>2019-06-23T09:44:26.000Z</time>
      </trkpt>
      <trkpt lat="44.13129" lon="6.35889">
        <ele>1018</ele>
        <time>2019-06-23T09:44:28.000Z</time>
      </trkpt>
      <trkpt lat="44.13132" lon="6.35894">
        <ele>1017</ele>
        <time>2019-06-23T09:44:29.000Z</time>
      </trkpt>
      <trkpt lat="44.13135" lon="6.35901">
        <ele>1015.8</ele>
        <time>2019-06-23T09:44:30.000Z</time>
      </trkpt>
      <trkpt lat="44.13138" lon="6.35908">
        <ele>1014.6</ele>
        <time>2019-06-23T09:44:31.000Z</time>
      </trkpt>
      <trkpt lat="44.13141" lon="6.35913">
        <ele>1012.4</ele>
        <time>2019-06-23T09:44:32.000Z</time>
      </trkpt>
      <trkpt lat="44.13145" lon="6.35917">
        <ele>1010.6</ele>
        <time>2019-06-23T09:44:33.000Z</time>
      </trkpt>
      <trkpt lat="44.13149" lon="6.35922">
        <ele>1009.2</ele>
        <time>2019-06-23T09:44:34.000Z</time>
      </trkpt>
      <trkpt lat="44.13154" lon="6.35932">
        <ele>1007.2</ele>
        <time>2019-06-23T09:44:36.000Z</time>
      </trkpt>
      <trkpt lat="44.13157" lon="6.35936">
        <ele>1006</ele>
        <time>2019-06-23T09:44:37.000Z</time>
      </trkpt>
      <trkpt lat="44.1316" lon="6.35939">
        <ele>1004.6</ele>
        <time>2019-06-23T09:44:38.000Z</time>
      </trkpt>
      <trkpt lat="44.13163" lon="6.35941">
        <ele>1003</ele>
        <time>2019-06-23T09:44:39.000Z</time>
      </trkpt>
      <trkpt lat="44.13168" lon="6.35943">
        <ele>1001.4</ele>
        <time>2019-06-23T09:44:40.000Z</time>
      </trkpt>
      <trkpt lat="44.13171" lon="6.35946">
        <ele>999.8</ele>
        <time>2019-06-23T09:44:41.000Z</time>
      </trkpt>
      <trkpt lat="44.13175" lon="6.35951">
        <ele>998</ele>
        <time>2019-06-23T09:44:42.000Z</time>
      </trkpt>
      <trkpt lat="44.13179" lon="6.35954">
        <ele>995.8</ele>
        <time>2019-06-23T09:44:43.000Z</time>
      </trkpt>
      <trkpt lat="44.13184" lon="6.35955">
        <ele>993.6</ele>
        <time>2019-06-23T09:44:44.000Z</time>
      </trkpt>
      <trkpt lat="44.13188" lon="6.35958">
        <ele>992</ele>
        <time>2019-06-23T09:44:45.000Z</time>
      </trkpt>
      <trkpt lat="44.13192" lon="6.35963">
        <ele>990.6</ele>
        <time>2019-06-23T09:44:46.000Z</time>
      </trkpt>
      <trkpt lat="44.13196" lon="6.3597">
        <ele>989.6</ele>
        <time>2019-06-23T09:44:47.000Z</time>
      </trkpt>
      <trkpt lat="44.13203" lon="6.35975">
        <ele>988.4</ele>
        <time>2019-06-23T09:44:48.000Z</time>
      </trkpt>
      <trkpt lat="44.13209" lon="6.3598">
        <ele>987.2</ele>
        <time>2019-06-23T09:44:49.000Z</time>
      </trkpt>
      <trkpt lat="44.13216" lon="6.35986">
        <ele>985.8</ele>
        <time>2019-06-23T09:44:50.000Z</time>
      </trkpt>
      <trkpt lat="44.1322" lon="6.35993">
        <ele>984.4</ele>
        <time>2019-06-23T09:44:51.000Z</time>
      </trkpt>
      <trkpt lat="44.13223" lon="6.35999">
        <ele>983.4</ele>
        <time>2019-06-23T09:44:52.000Z</time>
      </trkpt>
      <trkpt lat="44.13226" lon="6.36004">
        <ele>983</ele>
        <time>2019-06-23T09:44:53.000Z</time>
      </trkpt>
      <trkpt lat="44.13234" lon="6.36007">
        <ele>982.4</ele>
        <time>2019-06-23T09:44:55.000Z</time>
      </trkpt>
      <trkpt lat="44.13238" lon="6.36011">
        <ele>982.4</ele>
        <time>2019-06-23T09:44:56.000Z</time>
      </trkpt>
      <trkpt lat="44.13245" lon="6.36027">
        <ele>982</ele>
        <time>2019-06-23T09:44:59.000Z</time>
      </trkpt>
      <trkpt lat="44.13246" lon="6.36033">
        <ele>981.8</ele>
        <time>2019-06-23T09:45:00.000Z</time>
      </trkpt>
      <trkpt lat="44.13247" lon="6.3604">
        <ele>981.4</ele>
        <time>2019-06-23T09:45:02.000Z</time>
      </trkpt>
      <trkpt lat="44.1325" lon="6.36044">
        <ele>981</ele>
        <time>2019-06-23T09:45:03.000Z</time>
      </trkpt>
      <trkpt lat="44.13255" lon="6.36048">
        <ele>980.2</ele>
        <time>2019-06-23T09:45:04.000Z</time>
      </trkpt>
      <trkpt lat="44.13259" lon="6.36054">
        <ele>979.2</ele>
        <time>2019-06-23T09:45:05.000Z</time>
      </trkpt>
      <trkpt lat="44.13261" lon="6.3606">
        <ele>978.4</ele>
        <time>2019-06-23T09:45:06.000Z</time>
      </trkpt>
      <trkpt lat="44.13264" lon="6.3607">
        <ele>976.8</ele>
        <time>2019-06-23T09:45:08.000Z</time>
      </trkpt>
      <trkpt lat="44.13268" lon="6.36082">
        <ele>975</ele>
        <time>2019-06-23T09:45:10.000Z</time>
      </trkpt>
      <trkpt lat="44.13268" lon="6.36089">
        <ele>973.6</ele>
        <time>2019-06-23T09:45:11.000Z</time>
      </trkpt>
      <trkpt lat="44.13268" lon="6.36098">
        <ele>972.2</ele>
        <time>2019-06-23T09:45:12.000Z</time>
      </trkpt>
      <trkpt lat="44.13267" lon="6.36106">
        <ele>971</ele>
        <time>2019-06-23T09:45:13.000Z</time>
      </trkpt>
      <trkpt lat="44.13267" lon="6.36112">
        <ele>969.8</ele>
        <time>2019-06-23T09:45:14.000Z</time>
      </trkpt>
      <trkpt lat="44.13266" lon="6.36115">
        <ele>968.4</ele>
        <time>2019-06-23T09:45:15.000Z</time>
      </trkpt>
      <trkpt lat="44.13266" lon="6.36117">
        <ele>967.4</ele>
        <time>2019-06-23T09:45:16.000Z</time>
      </trkpt>
      <trkpt lat="44.13265" lon="6.36122">
        <ele>966.2</ele>
        <time>2019-06-23T09:45:18.000Z</time>
      </trkpt>
      <trkpt lat="44.13266" lon="6.3613">
        <ele>955.5</ele>
      </trkpt>
      <trkpt lat="44.13266" lon="6.36132">
        <ele>958</ele>
        <time>2019-06-23T09:45:59.000Z</time>
      </trkpt>
      <trkpt lat="44.13274" lon="6.36118">
        <ele>959</ele>
        <time>2019-06-23T09:46:03.000Z</time>
      </trkpt>
      <trkpt lat="44.13277" lon="6.36117">
        <ele>959.2</ele>
        <time>2019-06-23T09:46:04.000Z</time>
      </trkpt>
      <trkpt lat="44.1328" lon="6.36115">
        <ele>959.6</ele>
        <time>2019-06-23T09:46:06.000Z</time>
      </trkpt>
      <trkpt lat="44.13281" lon="6.36116">
        <ele>959.8</ele>
        <time>2019-06-23T09:46:11.000Z</time>
      </trkpt>
      <trkpt lat="44.13281" lon="6.3612">
        <ele>960.4</ele>
        <time>2019-06-23T09:46:14.000Z</time>
      </trkpt>
      <trkpt lat="44.13282" lon="6.36121">
        <ele>960.8</ele>
        <time>2019-06-23T09:46:17.000Z</time>
      </trkpt>
      <trkpt lat="44.13285" lon="6.36124">
        <ele>961.2</ele>
        <time>2019-06-23T09:46:21.000Z</time>
      </trkpt>
      <trkpt lat="44.13285" lon="6.36126">
        <ele>961.4</ele>
        <time>2019-06-23T09:46:22.000Z</time>
      </trkpt>
      <trkpt lat="44.13285" lon="6.36126">
        <ele>961.6</ele>
        <time>2019-06-23T09:46:23.000Z</time>
      </trkpt>
      <trkpt lat="44.13285" lon="6.36128">
        <ele>961.6</ele>
        <time>2019-06-23T09:46:24.000Z</time>
      </trkpt>
      <trkpt lat="44.13289" lon="6.36134">
        <ele>961.8</ele>
        <time>2019-06-23T09:46:27.000Z</time>
      </trkpt>
      <trkpt lat="44.13303" lon="6.3614">
        <ele>961.6</ele>
        <time>2019-06-23T09:46:30.000Z</time>
      </trkpt>
      <trkpt lat="44.13312" lon="6.36143">
        <ele>961.2</ele>
        <time>2019-06-23T09:46:32.000Z</time>
      </trkpt>
      <trkpt lat="44.13315" lon="6.36142">
        <ele>961</ele>
        <time>2019-06-23T09:46:33.000Z</time>
      </trkpt>
      <trkpt lat="44.1332" lon="6.36138">
        <ele>961.4</ele>
        <time>2019-06-23T09:46:36.000Z</time>
      </trkpt>
      <trkpt lat="44.1332" lon="6.36137">
        <ele>961.6</ele>
        <time>2019-06-23T09:46:37.000Z</time>
      </trkpt>
      <trkpt lat="44.13317" lon="6.36135">
        <ele>962.2</ele>
        <time>2019-06-23T09:46:42.000Z</time>
      </trkpt>
      <trkpt lat="44.13318" lon="6.36134">
        <ele>962</ele>
        <time>2019-06-23T09:46:44.000Z</time>
      </trkpt>
      <trkpt lat="44.13318" lon="6.36134">
        <ele>962</ele>
        <time>2019-06-23T09:46:49.000Z</time>
      </trkpt>
      <trkpt lat="44.13319" lon="6.36131">
        <ele>962.2</ele>
        <time>2019-06-23T09:46:55.000Z</time>
      </trkpt>
      <trkpt lat="44.13321" lon="6.3613">
        <ele>961</ele>
        <time>2019-06-23T09:46:58.000Z</time>
      </trkpt>
      <trkpt lat="44.13322" lon="6.3613">
        <ele>960.6</ele>
        <time>2019-06-23T09:46:59.000Z</time>
      </trkpt>
      <trkpt lat="44.13322" lon="6.3613">
        <ele>960.4</ele>
        <time>2019-06-23T09:47:00.000Z</time>
      </trkpt>
      <trkpt lat="44.13326" lon="6.36133">
        <ele>959.6</ele>
        <time>2019-06-23T09:47:03.000Z</time>
      </trkpt>
      <trkpt lat="44.1333" lon="6.36138">
        <ele>959.2</ele>
        <time>2019-06-23T09:47:05.000Z</time>
      </trkpt>
      <trkpt lat="44.13335" lon="6.36141">
        <ele>958.8</ele>
        <time>2019-06-23T09:47:07.000Z</time>
      </trkpt>
      <trkpt lat="44.13339" lon="6.36139">
        <ele>958.2</ele>
        <time>2019-06-23T09:47:08.000Z</time>
      </trkpt>
      <trkpt lat="44.13349" lon="6.36137">
        <ele>956</ele>
        <time>2019-06-23T09:47:10.000Z</time>
      </trkpt>
      <trkpt lat="44.13352" lon="6.36137">
        <ele>954.8</ele>
        <time>2019-06-23T09:47:11.000Z</time>
      </trkpt>
      <trkpt lat="44.13353" lon="6.36136">
        <ele>953.8</ele>
        <time>2019-06-23T09:47:12.000Z</time>
      </trkpt>
      <trkpt lat="44.13354" lon="6.36137">
        <ele>953</ele>
        <time>2019-06-23T09:47:13.000Z</time>
      </trkpt>
      <trkpt lat="44.13357" lon="6.36138">
        <ele>952.6</ele>
        <time>2019-06-23T09:47:14.000Z</time>
      </trkpt>
      <trkpt lat="44.13359" lon="6.36142">
        <ele>952</ele>
        <time>2019-06-23T09:47:15.000Z</time>
      </trkpt>
      <trkpt lat="44.1336" lon="6.36147">
        <ele>951.4</ele>
        <time>2019-06-23T09:47:16.000Z</time>
      </trkpt>
      <trkpt lat="44.1336" lon="6.36152">
        <ele>950.4</ele>
        <time>2019-06-23T09:47:17.000Z</time>
      </trkpt>
      <trkpt lat="44.13363" lon="6.36157">
        <ele>949.2</ele>
        <time>2019-06-23T09:47:18.000Z</time>
      </trkpt>
      <trkpt lat="44.13366" lon="6.36163">
        <ele>948.2</ele>
        <time>2019-06-23T09:47:19.000Z</time>
      </trkpt>
      <trkpt lat="44.13367" lon="6.36168">
        <ele>946.8</ele>
        <time>2019-06-23T09:47:20.000Z</time>
      </trkpt>
      <trkpt lat="44.13368" lon="6.36174">
        <ele>945</ele>
        <time>2019-06-23T09:47:21.000Z</time>
      </trkpt>
      <trkpt lat="44.13369" lon="6.3618">
        <ele>943.2</ele>
        <time>2019-06-23T09:47:22.000Z</time>
      </trkpt>
      <trkpt lat="44.13372" lon="6.36186">
        <ele>941.4</ele>
        <time>2019-06-23T09:47:23.000Z</time>
      </trkpt>
      <trkpt lat="44.13377" lon="6.36191">
        <ele>939.2</ele>
        <time>2019-06-23T09:47:24.000Z</time>
      </trkpt>
      <trkpt lat="44.13384" lon="6.36194">
        <ele>937</ele>
        <time>2019-06-23T09:47:25.000Z</time>
      </trkpt>
      <trkpt lat="44.13392" lon="6.36193">
        <ele>935.4</ele>
        <time>2019-06-23T09:47:26.000Z</time>
      </trkpt>
      <trkpt lat="44.13396" lon="6.36192">
        <ele>934.4</ele>
        <time>2019-06-23T09:47:27.000Z</time>
      </trkpt>
      <trkpt lat="44.134" lon="6.36195">
        <ele>933.6</ele>
        <time>2019-06-23T09:47:28.000Z</time>
      </trkpt>
      <trkpt lat="44.13403" lon="6.362">
        <ele>933</ele>
        <time>2019-06-23T09:47:29.000Z</time>
      </trkpt>
      <trkpt lat="44.1341" lon="6.36214">
        <ele>931.8</ele>
        <time>2019-06-23T09:47:31.000Z</time>
      </trkpt>
      <trkpt lat="44.13415" lon="6.3622">
        <ele>930.4</ele>
        <time>2019-06-23T09:47:32.000Z</time>
      </trkpt>
      <trkpt lat="44.13417" lon="6.36224">
        <ele>928.4</ele>
        <time>2019-06-23T09:47:33.000Z</time>
      </trkpt>
      <trkpt lat="44.13418" lon="6.3623">
        <ele>926.2</ele>
        <time>2019-06-23T09:47:34.000Z</time>
      </trkpt>
      <trkpt lat="44.13418" lon="6.36235">
        <ele>924.2</ele>
        <time>2019-06-23T09:47:35.000Z</time>
      </trkpt>
      <trkpt lat="44.1342" lon="6.3624">
        <ele>922.8</ele>
        <time>2019-06-23T09:47:36.000Z</time>
      </trkpt>
      <trkpt lat="44.13425" lon="6.36245">
        <ele>921.4</ele>
        <time>2019-06-23T09:47:38.000Z</time>
      </trkpt>
      <trkpt lat="44.13428" lon="6.36248">
        <ele>920.8</ele>
        <time>2019-06-23T09:47:39.000Z</time>
      </trkpt>
      <trkpt lat="44.13433" lon="6.36249">
        <ele>920</ele>
        <time>2019-06-23T09:47:40.000Z</time>
      </trkpt>
      <trkpt lat="44.13438" lon="6.36249">
        <ele>919</ele>
        <time>2019-06-23T09:47:41.000Z</time>
      </trkpt>
      <trkpt lat="44.1344" lon="6.3625">
        <ele>918.2</ele>
        <time>2019-06-23T09:47:42.000Z</time>
      </trkpt>
      <trkpt lat="44.13442" lon="6.36255">
        <ele>917.4</ele>
        <time>2019-06-23T09:47:43.000Z</time>
      </trkpt>
      <trkpt lat="44.13443" lon="6.36261">
        <ele>916.8</ele>
        <time>2019-06-23T09:47:44.000Z</time>
      </trkpt>
      <trkpt lat="44.13443" lon="6.36268">
        <ele>916.2</ele>
        <time>2019-06-23T09:47:45.000Z</time>
      </trkpt>
      <trkpt lat="44.13441" lon="6.36274">
        <ele>915.2</ele>
        <time>2019-06-23T09:47:46.000Z</time>
      </trkpt>
      <trkpt lat="44.1344" lon="6.36282">
        <ele>914</ele>
        <time>2019-06-23T09:47:47.000Z</time>
      </trkpt>
      <trkpt lat="44.13438" lon="6.36287">
        <ele>913</ele>
        <time>2019-06-23T09:47:48.000Z</time>
      </trkpt>
      <trkpt lat="44.13437" lon="6.36292">
        <ele>911.8</ele>
        <time>2019-06-23T09:47:49.000Z</time>
      </trkpt>
      <trkpt lat="44.13435" lon="6.36304">
        <ele>910.2</ele>
        <time>2019-06-23T09:47:51.000Z</time>
      </trkpt>
      <trkpt lat="44.13435" lon="6.36309">
        <ele>908.8</ele>
        <time>2019-06-23T09:47:52.000Z</time>
      </trkpt>
      <trkpt lat="44.13436" lon="6.36313">
        <ele>906.8</ele>
        <time>2019-06-23T09:47:53.000Z</time>
      </trkpt>
      <trkpt lat="44.13438" lon="6.36318">
        <ele>905.2</ele>
        <time>2019-06-23T09:47:54.000Z</time>
      </trkpt>
      <trkpt lat="44.1344" lon="6.36325">
        <ele>904</ele>
        <time>2019-06-23T09:47:55.000Z</time>
      </trkpt>
      <trkpt lat="44.13441" lon="6.36332">
        <ele>903.4</ele>
        <time>2019-06-23T09:47:56.000Z</time>
      </trkpt>
      <trkpt lat="44.13442" lon="6.36336">
        <ele>903</ele>
        <time>2019-06-23T09:47:57.000Z</time>
      </trkpt>
      <trkpt lat="44.13443" lon="6.36337">
        <ele>902.6</ele>
        <time>2019-06-23T09:47:58.000Z</time>
      </trkpt>
      <trkpt lat="44.13444" lon="6.36337">
        <ele>902.2</ele>
        <time>2019-06-23T09:48:09.000Z</time>
      </trkpt>
      <trkpt lat="44.13447" lon="6.36343">
        <ele>902</ele>
        <time>2019-06-23T09:48:13.000Z</time>
      </trkpt>
      <trkpt lat="44.1345" lon="6.36346">
        <ele>901.4</ele>
        <time>2019-06-23T09:48:14.000Z</time>
      </trkpt>
      <trkpt lat="44.13456" lon="6.36351">
        <ele>900.6</ele>
        <time>2019-06-23T09:48:16.000Z</time>
      </trkpt>
      <trkpt lat="44.13459" lon="6.36361">
        <ele>899</ele>
        <time>2019-06-23T09:48:18.000Z</time>
      </trkpt>
      <trkpt lat="44.1346" lon="6.36369">
        <ele>898</ele>
        <time>2019-06-23T09:48:19.000Z</time>
      </trkpt>
      <trkpt lat="44.13461" lon="6.36377">
        <ele>896.8</ele>
        <time>2019-06-23T09:48:20.000Z</time>
      </trkpt>
      <trkpt lat="44.13461" lon="6.36384">
        <ele>895.8</ele>
        <time>2019-06-23T09:48:21.000Z</time>
      </trkpt>
      <trkpt lat="44.13462" lon="6.3639">
        <ele>894.6</ele>
        <time>2019-06-23T09:48:22.000Z</time>
      </trkpt>
      <trkpt lat="44.13469" lon="6.36398">
        <ele>893</ele>
        <time>2019-06-23T09:48:24.000Z</time>
      </trkpt>
      <trkpt lat="44.13474" lon="6.36405">
        <ele>891.6</ele>
        <time>2019-06-23T09:48:26.000Z</time>
      </trkpt>
      <trkpt lat="44.13486" lon="6.3641">
        <ele>890</ele>
        <time>2019-06-23T09:48:29.000Z</time>
      </trkpt>
      <trkpt lat="44.13489" lon="6.36412">
        <ele>889.6</ele>
        <time>2019-06-23T09:48:30.000Z</time>
      </trkpt>
      <trkpt lat="44.13493" lon="6.36419">
        <ele>888.8</ele>
        <time>2019-06-23T09:48:32.000Z</time>
      </trkpt>
      <trkpt lat="44.13498" lon="6.36428">
        <ele>888.2</ele>
        <time>2019-06-23T09:48:34.000Z</time>
      </trkpt>
      <trkpt lat="44.13502" lon="6.36437">
        <ele>888</ele>
        <time>2019-06-23T09:48:36.000Z</time>
      </trkpt>
      <trkpt lat="44.13502" lon="6.36442">
        <ele>887.8</ele>
        <time>2019-06-23T09:48:37.000Z</time>
      </trkpt>
      <trkpt lat="44.13503" lon="6.36446">
        <ele>887.6</ele>
        <time>2019-06-23T09:48:38.000Z</time>
      </trkpt>
      <trkpt lat="44.13509" lon="6.36453">
        <ele>887.2</ele>
        <time>2019-06-23T09:48:40.000Z</time>
      </trkpt>
      <trkpt lat="44.13514" lon="6.36459">
        <ele>886.8</ele>
        <time>2019-06-23T09:48:42.000Z</time>
      </trkpt>
      <trkpt lat="44.13519" lon="6.36465">
        <ele>886.4</ele>
        <time>2019-06-23T09:48:44.000Z</time>
      </trkpt>
      <trkpt lat="44.1352" lon="6.36473">
        <ele>886</ele>
        <time>2019-06-23T09:48:46.000Z</time>
      </trkpt>
      <trkpt lat="44.13518" lon="6.36477">
        <ele>885.8</ele>
        <time>2019-06-23T09:48:47.000Z</time>
      </trkpt>
      <trkpt lat="44.13515" lon="6.3648">
        <ele>885.6</ele>
        <time>2019-06-23T09:48:48.000Z</time>
      </trkpt>
      <trkpt lat="44.13512" lon="6.36483">
        <ele>885.4</ele>
        <time>2019-06-23T09:48:49.000Z</time>
      </trkpt>
      <trkpt lat="44.13504" lon="6.36492">
        <ele>885.2</ele>
        <time>2019-06-23T09:48:51.000Z</time>
      </trkpt>
      <trkpt lat="44.13503" lon="6.36497">
        <ele>885.2</ele>
        <time>2019-06-23T09:48:52.000Z</time>
      </trkpt>
      <trkpt lat="44.13501" lon="6.36508">
        <ele>884.8</ele>
        <time>2019-06-23T09:48:54.000Z</time>
      </trkpt>
      <trkpt lat="44.13506" lon="6.36519">
        <ele>884.6</ele>
        <time>2019-06-23T09:48:57.000Z</time>
      </trkpt>
      <trkpt lat="44.13508" lon="6.36521">
        <ele>884.2</ele>
        <time>2019-06-23T09:48:58.000Z</time>
      </trkpt>
      <trkpt lat="44.13512" lon="6.36533">
        <ele>883.6</ele>
        <time>2019-06-23T09:49:02.000Z</time>
      </trkpt>
      <trkpt lat="44.13514" lon="6.36543">
        <ele>883.4</ele>
        <time>2019-06-23T09:49:04.000Z</time>
      </trkpt>
      <trkpt lat="44.13519" lon="6.36553">
        <ele>883.4</ele>
        <time>2019-06-23T09:49:07.000Z</time>
      </trkpt>
      <trkpt lat="44.13521" lon="6.36549">
        <ele>883.4</ele>
        <time>2019-06-23T09:49:10.000Z</time>
      </trkpt>
      <trkpt lat="44.13523" lon="6.36544">
        <ele>883.6</ele>
        <time>2019-06-23T09:49:12.000Z</time>
      </trkpt>
      <trkpt lat="44.13531" lon="6.3654">
        <ele>883.6</ele>
        <time>2019-06-23T09:49:16.000Z</time>
      </trkpt>
      <trkpt lat="44.13541" lon="6.36535">
        <ele>884.2</ele>
        <time>2019-06-23T09:49:22.000Z</time>
      </trkpt>
      <trkpt lat="44.13548" lon="6.36532">
        <ele>884.6</ele>
        <time>2019-06-23T09:49:25.000Z</time>
      </trkpt>
      <trkpt lat="44.13559" lon="6.36528">
        <ele>885.8</ele>
        <time>2019-06-23T09:49:30.000Z</time>
      </trkpt>
      <trkpt lat="44.13569" lon="6.36521">
        <ele>886.4</ele>
        <time>2019-06-23T09:49:36.000Z</time>
      </trkpt>
      <trkpt lat="44.13569" lon="6.36521">
        <ele>886.6</ele>
        <time>2019-06-23T09:49:37.000Z</time>
      </trkpt>
      <trkpt lat="44.13569" lon="6.3652">
        <ele>886.6</ele>
        <time>2019-06-23T09:49:40.000Z</time>
      </trkpt>
      <trkpt lat="44.13568" lon="6.36521">
        <ele>886.8</ele>
        <time>2019-06-23T09:49:43.000Z</time>
      </trkpt>
      <trkpt lat="44.13568" lon="6.36521">
        <ele>886.6</ele>
        <time>2019-06-23T09:49:45.000Z</time>
      </trkpt>
      <trkpt lat="44.13568" lon="6.36521">
        <ele>886.6</ele>
        <time>2019-06-23T09:49:47.000Z</time>
      </trkpt>
      <trkpt lat="44.13569" lon="6.36521">
        <ele>886.2</ele>
        <time>2019-06-23T09:49:55.000Z</time>
      </trkpt>
      <trkpt lat="44.1357" lon="6.36521">
        <ele>886.2</ele>
        <time>2019-06-23T09:49:56.000Z</time>
      </trkpt>
      <trkpt lat="44.13571" lon="6.36521">
        <ele>886.2</ele>
        <time>2019-06-23T09:49:57.000Z</time>
      </trkpt>
      <trkpt lat="44.13579" lon="6.36514">
        <ele>886.4</ele>
        <time>2019-06-23T09:50:02.000Z</time>
      </trkpt>
      <trkpt lat="44.13595" lon="6.36496">
        <ele>886.4</ele>
        <time>2019-06-23T09:50:09.000Z</time>
      </trkpt>
      <trkpt lat="44.13611" lon="6.36479">
        <ele>885.8</ele>
        <time>2019-06-23T09:50:15.000Z</time>
      </trkpt>
      <trkpt lat="44.13614" lon="6.36476">
        <ele>885.6</ele>
        <time>2019-06-23T09:50:16.000Z</time>
      </trkpt>
      <trkpt lat="44.13627" lon="6.36464">
        <ele>885.4</ele>
        <time>2019-06-23T09:50:21.000Z</time>
      </trkpt>
      <trkpt lat="44.13638" lon="6.36454">
        <ele>885.4</ele>
        <time>2019-06-23T09:50:26.000Z</time>
      </trkpt>
      <trkpt lat="44.13643" lon="6.36451">
        <ele>885.6</ele>
        <time>2019-06-23T09:50:28.000Z</time>
      </trkpt>
      <trkpt lat="44.13653" lon="6.36447">
        <ele>886.8</ele>
        <time>2019-06-23T09:50:32.000Z</time>
      </trkpt>
      <trkpt lat="44.1366" lon="6.36445">
        <ele>887.2</ele>
        <time>2019-06-23T09:50:35.000Z</time>
      </trkpt>
      <trkpt lat="44.13667" lon="6.36443">
        <ele>887.8</ele>
        <time>2019-06-23T09:50:38.000Z</time>
      </trkpt>
      <trkpt lat="44.13678" lon="6.36438">
        <ele>888.8</ele>
        <time>2019-06-23T09:50:42.000Z</time>
      </trkpt>
      <trkpt lat="44.13687" lon="6.36435">
        <ele>889.8</ele>
        <time>2019-06-23T09:50:45.000Z</time>
      </trkpt>
      <trkpt lat="44.13696" lon="6.36433">
        <ele>890.8</ele>
        <time>2019-06-23T09:50:48.000Z</time>
      </trkpt>
      <trkpt lat="44.13699" lon="6.36432">
        <ele>891.2</ele>
        <time>2019-06-23T09:50:49.000Z</time>
      </trkpt>
      <trkpt lat="44.13702" lon="6.36431">
        <ele>891.6</ele>
        <time>2019-06-23T09:50:50.000Z</time>
      </trkpt>
      <trkpt lat="44.13708" lon="6.36429">
        <ele>892.6</ele>
        <time>2019-06-23T09:50:52.000Z</time>
      </trkpt>
      <trkpt lat="44.1372" lon="6.36426">
        <ele>893.6</ele>
        <time>2019-06-23T09:50:56.000Z</time>
      </trkpt>
      <trkpt lat="44.1373" lon="6.3642">
        <ele>894.2</ele>
        <time>2019-06-23T09:50:59.000Z</time>
      </trkpt>
      <trkpt lat="44.13735" lon="6.36414">
        <ele>894.6</ele>
        <time>2019-06-23T09:51:01.000Z</time>
      </trkpt>
      <trkpt lat="44.13742" lon="6.36403">
        <ele>895.6</ele>
        <time>2019-06-23T09:51:04.000Z</time>
      </trkpt>
      <trkpt lat="44.13744" lon="6.36398">
        <ele>896</ele>
        <time>2019-06-23T09:51:05.000Z</time>
      </trkpt>
      <trkpt lat="44.13745" lon="6.36377">
        <ele>897</ele>
        <time>2019-06-23T09:51:09.000Z</time>
      </trkpt>
      <trkpt lat="44.13742" lon="6.36351">
        <ele>897.2</ele>
        <time>2019-06-23T09:51:13.000Z</time>
      </trkpt>
      <trkpt lat="44.13743" lon="6.36345">
        <ele>897.2</ele>
        <time>2019-06-23T09:51:14.000Z</time>
      </trkpt>
      <trkpt lat="44.13743" lon="6.36339">
        <ele>897.4</ele>
        <time>2019-06-23T09:51:15.000Z</time>
      </trkpt>
      <trkpt lat="44.13745" lon="6.36329">
        <ele>897.6</ele>
        <time>2019-06-23T09:51:17.000Z</time>
      </trkpt>
      <trkpt lat="44.1375" lon="6.3632">
        <ele>897.8</ele>
        <time>2019-06-23T09:51:19.000Z</time>
      </trkpt>
      <trkpt lat="44.13752" lon="6.36316">
        <ele>898.2</ele>
        <time>2019-06-23T09:51:20.000Z</time>
      </trkpt>
      <trkpt lat="44.13757" lon="6.36307">
        <ele>898.8</ele>
        <time>2019-06-23T09:51:22.000Z</time>
      </trkpt>
      <trkpt lat="44.13759" lon="6.36298">
        <ele>899.2</ele>
        <time>2019-06-23T09:51:24.000Z</time>
      </trkpt>
      <trkpt lat="44.13761" lon="6.36293">
        <ele>899.2</ele>
        <time>2019-06-23T09:51:25.000Z</time>
      </trkpt>
      <trkpt lat="44.13775" lon="6.36267">
        <ele>899</ele>
        <time>2019-06-23T09:51:31.000Z</time>
      </trkpt>
      <trkpt lat="44.1378" lon="6.36259">
        <ele>899</ele>
        <time>2019-06-23T09:51:33.000Z</time>
      </trkpt>
      <trkpt lat="44.13784" lon="6.3625">
        <ele>899.2</ele>
        <time>2019-06-23T09:51:35.000Z</time>
      </trkpt>
      <trkpt lat="44.13795" lon="6.36235">
        <ele>899.6</ele>
        <time>2019-06-23T09:51:39.000Z</time>
      </trkpt>
      <trkpt lat="44.13807" lon="6.36218">
        <ele>900.2</ele>
        <time>2019-06-23T09:51:44.000Z</time>
      </trkpt>
      <trkpt lat="44.13808" lon="6.36213">
        <ele>900.2</ele>
        <time>2019-06-23T09:51:45.000Z</time>
      </trkpt>
      <trkpt lat="44.1381" lon="6.36187">
        <ele>900.8</ele>
        <time>2019-06-23T09:51:50.000Z</time>
      </trkpt>
      <trkpt lat="44.13811" lon="6.36143">
        <ele>900.8</ele>
        <time>2019-06-23T09:51:58.000Z</time>
      </trkpt>
      <trkpt lat="44.13813" lon="6.36127">
        <ele>901.4</ele>
        <time>2019-06-23T09:52:01.000Z</time>
      </trkpt>
      <trkpt lat="44.13815" lon="6.36107">
        <ele>902.4</ele>
        <time>2019-06-23T09:52:05.000Z</time>
      </trkpt>
      <trkpt lat="44.13817" lon="6.36081">
        <ele>903.6</ele>
        <time>2019-06-23T09:52:11.000Z</time>
      </trkpt>
      <trkpt lat="44.13817" lon="6.36072">
        <ele>904.8</ele>
        <time>2019-06-23T09:52:13.000Z</time>
      </trkpt>
      <trkpt lat="44.13811" lon="6.36058">
        <ele>905.8</ele>
        <time>2019-06-23T09:52:17.000Z</time>
      </trkpt>
      <trkpt lat="44.13809" lon="6.36055">
        <ele>906.2</ele>
        <time>2019-06-23T09:52:18.000Z</time>
      </trkpt>
      <trkpt lat="44.13801" lon="6.36041">
        <ele>907</ele>
        <time>2019-06-23T09:52:22.000Z</time>
      </trkpt>
      <trkpt lat="44.13799" lon="6.36033">
        <ele>907.8</ele>
        <time>2019-06-23T09:52:24.000Z</time>
      </trkpt>
      <trkpt lat="44.13799" lon="6.36028">
        <ele>908</ele>
        <time>2019-06-23T09:52:25.000Z</time>
      </trkpt>
      <trkpt lat="44.13802" lon="6.36015">
        <ele>908.8</ele>
        <time>2019-06-23T09:52:28.000Z</time>
      </trkpt>
      <trkpt lat="44.13803" lon="6.36011">
        <ele>909</ele>
        <time>2019-06-23T09:52:29.000Z</time>
      </trkpt>
      <trkpt lat="44.13804" lon="6.36006">
        <ele>909.2</ele>
        <time>2019-06-23T09:52:30.000Z</time>
      </trkpt>
      <trkpt lat="44.13811" lon="6.35982">
        <ele>910</ele>
        <time>2019-06-23T09:52:36.000Z</time>
      </trkpt>
      <trkpt lat="44.13812" lon="6.35978">
        <ele>910.4</ele>
        <time>2019-06-23T09:52:37.000Z</time>
      </trkpt>
      <trkpt lat="44.13819" lon="6.35963">
        <ele>911.4</ele>
        <time>2019-06-23T09:52:41.000Z</time>
      </trkpt>
      <trkpt lat="44.13824" lon="6.35952">
        <ele>911.6</ele>
        <time>2019-06-23T09:52:44.000Z</time>
      </trkpt>
      <trkpt lat="44.13825" lon="6.35934">
        <ele>912.6</ele>
        <time>2019-06-23T09:52:48.000Z</time>
      </trkpt>
      <trkpt lat="44.13825" lon="6.35929">
        <ele>912.6</ele>
        <time>2019-06-23T09:52:49.000Z</time>
      </trkpt>
      <trkpt lat="44.13824" lon="6.35925">
        <ele>912.8</ele>
        <time>2019-06-23T09:52:50.000Z</time>
      </trkpt>
      <trkpt lat="44.1382" lon="6.35911">
        <ele>913.6</ele>
        <time>2019-06-23T09:52:53.000Z</time>
      </trkpt>
      <trkpt lat="44.13817" lon="6.35897">
        <ele>914.2</ele>
        <time>2019-06-23T09:52:56.000Z</time>
      </trkpt>
      <trkpt lat="44.13814" lon="6.35889">
        <ele>914.8</ele>
        <time>2019-06-23T09:52:58.000Z</time>
      </trkpt>
      <trkpt lat="44.13807" lon="6.3586">
        <ele>915.8</ele>
        <time>2019-06-23T09:53:05.000Z</time>
      </trkpt>
      <trkpt lat="44.13805" lon="6.35844">
        <ele>916.4</ele>
        <time>2019-06-23T09:53:09.000Z</time>
      </trkpt>
      <trkpt lat="44.13803" lon="6.35831">
        <ele>917.4</ele>
        <time>2019-06-23T09:53:12.000Z</time>
      </trkpt>
      <trkpt lat="44.13802" lon="6.35819">
        <ele>918.4</ele>
        <time>2019-06-23T09:53:15.000Z</time>
      </trkpt>
      <trkpt lat="44.13801" lon="6.35815">
        <ele>918.6</ele>
        <time>2019-06-23T09:53:16.000Z</time>
      </trkpt>
      <trkpt lat="44.13798" lon="6.35808">
        <ele>919</ele>
        <time>2019-06-23T09:53:18.000Z</time>
      </trkpt>
      <trkpt lat="44.13797" lon="6.35805">
        <ele>919</ele>
        <time>2019-06-23T09:53:19.000Z</time>
      </trkpt>
      <trkpt lat="44.13789" lon="6.3579">
        <ele>918.4</ele>
        <time>2019-06-23T09:53:24.000Z</time>
      </trkpt>
      <trkpt lat="44.13778" lon="6.35781">
        <ele>917.4</ele>
        <time>2019-06-23T09:53:28.000Z</time>
      </trkpt>
      <trkpt lat="44.13774" lon="6.35778">
        <ele>917.2</ele>
        <time>2019-06-23T09:53:29.000Z</time>
      </trkpt>
      <trkpt lat="44.13765" lon="6.35772">
        <ele>916.2</ele>
        <time>2019-06-23T09:53:31.000Z</time>
      </trkpt>
      <trkpt lat="44.1375" lon="6.35765">
        <ele>915</ele>
        <time>2019-06-23T09:53:34.000Z</time>
      </trkpt>
      <trkpt lat="44.13745" lon="6.35762">
        <ele>914.4</ele>
        <time>2019-06-23T09:53:35.000Z</time>
      </trkpt>
      <trkpt lat="44.13741" lon="6.35759">
        <ele>913.6</ele>
        <time>2019-06-23T09:53:36.000Z</time>
      </trkpt>
      <trkpt lat="44.13734" lon="6.3575">
        <ele>912.8</ele>
        <time>2019-06-23T09:53:38.000Z</time>
      </trkpt>
      <trkpt lat="44.1373" lon="6.35745">
        <ele>912.6</ele>
        <time>2019-06-23T09:53:39.000Z</time>
      </trkpt>
      <trkpt lat="44.13727" lon="6.3574">
        <ele>912.2</ele>
        <time>2019-06-23T09:53:40.000Z</time>
      </trkpt>
      <trkpt lat="44.13719" lon="6.3573">
        <ele>910.8</ele>
        <time>2019-06-23T09:53:42.000Z</time>
      </trkpt>
      <trkpt lat="44.13713" lon="6.3572">
        <ele>909.4</ele>
        <time>2019-06-23T09:53:44.000Z</time>
      </trkpt>
      <trkpt lat="44.13708" lon="6.35711">
        <ele>908.2</ele>
        <time>2019-06-23T09:53:46.000Z</time>
      </trkpt>
      <trkpt lat="44.13705" lon="6.35705">
        <ele>907.2</ele>
        <time>2019-06-23T09:53:47.000Z</time>
      </trkpt>
      <trkpt lat="44.13699" lon="6.35693">
        <ele>905.6</ele>
        <time>2019-06-23T09:53:49.000Z</time>
      </trkpt>
      <trkpt lat="44.13695" lon="6.35689">
        <ele>905</ele>
        <time>2019-06-23T09:53:50.000Z</time>
      </trkpt>
      <trkpt lat="44.13691" lon="6.35685">
        <ele>904.4</ele>
        <time>2019-06-23T09:53:51.000Z</time>
      </trkpt>
      <trkpt lat="44.13686" lon="6.35682">
        <ele>903.8</ele>
        <time>2019-06-23T09:53:52.000Z</time>
      </trkpt>
      <trkpt lat="44.13681" lon="6.35679">
        <ele>903</ele>
        <time>2019-06-23T09:53:53.000Z</time>
      </trkpt>
      <trkpt lat="44.13675" lon="6.35677">
        <ele>902</ele>
        <time>2019-06-23T09:53:54.000Z</time>
      </trkpt>
      <trkpt lat="44.13664" lon="6.35673">
        <ele>900.4</ele>
        <time>2019-06-23T09:53:56.000Z</time>
      </trkpt>
      <trkpt lat="44.13653" lon="6.3567">
        <ele>898.8</ele>
        <time>2019-06-23T09:53:58.000Z</time>
      </trkpt>
      <trkpt lat="44.13643" lon="6.35666">
        <ele>897.6</ele>
        <time>2019-06-23T09:54:00.000Z</time>
      </trkpt>
      <trkpt lat="44.13638" lon="6.35663">
        <ele>896.8</ele>
        <time>2019-06-23T09:54:01.000Z</time>
      </trkpt>
      <trkpt lat="44.13634" lon="6.35659">
        <ele>895.8</ele>
        <time>2019-06-23T09:54:02.000Z</time>
      </trkpt>
      <trkpt lat="44.1363" lon="6.35654">
        <ele>895.2</ele>
        <time>2019-06-23T09:54:03.000Z</time>
      </trkpt>
      <trkpt lat="44.13628" lon="6.35647">
        <ele>894.8</ele>
        <time>2019-06-23T09:54:04.000Z</time>
      </trkpt>
      <trkpt lat="44.13626" lon="6.35639">
        <ele>894.4</ele>
        <time>2019-06-23T09:54:05.000Z</time>
      </trkpt>
      <trkpt lat="44.13626" lon="6.35631">
        <ele>894</ele>
        <time>2019-06-23T09:54:06.000Z</time>
      </trkpt>
      <trkpt lat="44.13627" lon="6.35622">
        <ele>893.4</ele>
        <time>2019-06-23T09:54:07.000Z</time>
      </trkpt>
      <trkpt lat="44.13629" lon="6.35614">
        <ele>892.4</ele>
        <time>2019-06-23T09:54:08.000Z</time>
      </trkpt>
      <trkpt lat="44.13631" lon="6.35606">
        <ele>891.4</ele>
        <time>2019-06-23T09:54:09.000Z</time>
      </trkpt>
      <trkpt lat="44.13634" lon="6.35599">
        <ele>890.2</ele>
        <time>2019-06-23T09:54:10.000Z</time>
      </trkpt>
      <trkpt lat="44.13637" lon="6.35592">
        <ele>889.2</ele>
        <time>2019-06-23T09:54:11.000Z</time>
      </trkpt>
      <trkpt lat="44.13639" lon="6.35585">
        <ele>888.2</ele>
        <time>2019-06-23T09:54:12.000Z</time>
      </trkpt>
      <trkpt lat="44.13642" lon="6.35579">
        <ele>887.4</ele>
        <time>2019-06-23T09:54:13.000Z</time>
      </trkpt>
      <trkpt lat="44.13646" lon="6.35572">
        <ele>886.4</ele>
        <time>2019-06-23T09:54:14.000Z</time>
      </trkpt>
      <trkpt lat="44.13649" lon="6.35567">
        <ele>885.6</ele>
        <time>2019-06-23T09:54:15.000Z</time>
      </trkpt>
      <trkpt lat="44.13654" lon="6.3556">
        <ele>884.8</ele>
        <time>2019-06-23T09:54:16.000Z</time>
      </trkpt>
      <trkpt lat="44.13658" lon="6.35554">
        <ele>883.8</ele>
        <time>2019-06-23T09:54:17.000Z</time>
      </trkpt>
      <trkpt lat="44.13662" lon="6.35548">
        <ele>882.6</ele>
        <time>2019-06-23T09:54:18.000Z</time>
      </trkpt>
      <trkpt lat="44.13666" lon="6.35542">
        <ele>881.6</ele>
        <time>2019-06-23T09:54:19.000Z</time>
      </trkpt>
      <trkpt lat="44.13672" lon="6.3553">
        <ele>880.4</ele>
        <time>2019-06-23T09:54:21.000Z</time>
      </trkpt>
      <trkpt lat="44.13676" lon="6.35524">
        <ele>879.8</ele>
        <time>2019-06-23T09:54:22.000Z</time>
      </trkpt>
      <trkpt lat="44.13678" lon="6.35518">
        <ele>879.4</ele>
        <time>2019-06-23T09:54:23.000Z</time>
      </trkpt>
      <trkpt lat="44.13681" lon="6.35505">
        <ele>878.6</ele>
        <time>2019-06-23T09:54:25.000Z</time>
      </trkpt>
      <trkpt lat="44.13682" lon="6.35499">
        <ele>878.4</ele>
        <time>2019-06-23T09:54:26.000Z</time>
      </trkpt>
      <trkpt lat="44.13682" lon="6.35493">
        <ele>878.2</ele>
        <time>2019-06-23T09:54:27.000Z</time>
      </trkpt>
      <trkpt lat="44.13682" lon="6.35479">
        <ele>877.6</ele>
        <time>2019-06-23T09:54:29.000Z</time>
      </trkpt>
      <trkpt lat="44.13683" lon="6.35462">
        <ele>877</ele>
        <time>2019-06-23T09:54:31.000Z</time>
      </trkpt>
      <trkpt lat="44.13684" lon="6.35454">
        <ele>876</ele>
        <time>2019-06-23T09:54:32.000Z</time>
      </trkpt>
      <trkpt lat="44.13684" lon="6.35446">
        <ele>875.2</ele>
        <time>2019-06-23T09:54:33.000Z</time>
      </trkpt>
      <trkpt lat="44.13688" lon="6.3543">
        <ele>874</ele>
        <time>2019-06-23T09:54:35.000Z</time>
      </trkpt>
      <trkpt lat="44.13691" lon="6.35423">
        <ele>873</ele>
        <time>2019-06-23T09:54:36.000Z</time>
      </trkpt>
      <trkpt lat="44.13694" lon="6.35415">
        <ele>872</ele>
        <time>2019-06-23T09:54:37.000Z</time>
      </trkpt>
      <trkpt lat="44.137" lon="6.35396">
        <ele>869.8</ele>
        <time>2019-06-23T09:54:39.000Z</time>
      </trkpt>
      <trkpt lat="44.13702" lon="6.35385">
        <ele>868.6</ele>
        <time>2019-06-23T09:54:40.000Z</time>
      </trkpt>
      <trkpt lat="44.13703" lon="6.35373">
        <ele>867.2</ele>
        <time>2019-06-23T09:54:41.000Z</time>
      </trkpt>
      <trkpt lat="44.13704" lon="6.35361">
        <ele>866</ele>
        <time>2019-06-23T09:54:42.000Z</time>
      </trkpt>
      <trkpt lat="44.13707" lon="6.35348">
        <ele>864.8</ele>
        <time>2019-06-23T09:54:43.000Z</time>
      </trkpt>
      <trkpt lat="44.13711" lon="6.35335">
        <ele>863.8</ele>
        <time>2019-06-23T09:54:44.000Z</time>
      </trkpt>
      <trkpt lat="44.13716" lon="6.35323">
        <ele>862.8</ele>
        <time>2019-06-23T09:54:45.000Z</time>
      </trkpt>
      <trkpt lat="44.1372" lon="6.35309">
        <ele>862</ele>
        <time>2019-06-23T09:54:46.000Z</time>
      </trkpt>
      <trkpt lat="44.13721" lon="6.35295">
        <ele>861.2</ele>
        <time>2019-06-23T09:54:47.000Z</time>
      </trkpt>
      <trkpt lat="44.13721" lon="6.35282">
        <ele>860.6</ele>
        <time>2019-06-23T09:54:48.000Z</time>
      </trkpt>
      <trkpt lat="44.13719" lon="6.35269">
        <ele>860.2</ele>
        <time>2019-06-23T09:54:49.000Z</time>
      </trkpt>
      <trkpt lat="44.13715" lon="6.35259">
        <ele>859.8</ele>
        <time>2019-06-23T09:54:50.000Z</time>
      </trkpt>
      <trkpt lat="44.13711" lon="6.35249">
        <ele>859.6</ele>
        <time>2019-06-23T09:54:51.000Z</time>
      </trkpt>
      <trkpt lat="44.1371" lon="6.35238">
        <ele>859.6</ele>
        <time>2019-06-23T09:54:52.000Z</time>
      </trkpt>
      <trkpt lat="44.13712" lon="6.35229">
        <ele>859.4</ele>
        <time>2019-06-23T09:54:53.000Z</time>
      </trkpt>
      <trkpt lat="44.13717" lon="6.35221">
        <ele>859.4</ele>
        <time>2019-06-23T09:54:54.000Z</time>
      </trkpt>
      <trkpt lat="44.13727" lon="6.35205">
        <ele>859.2</ele>
        <time>2019-06-23T09:54:56.000Z</time>
      </trkpt>
      <trkpt lat="44.13729" lon="6.35194">
        <ele>859.2</ele>
        <time>2019-06-23T09:54:57.000Z</time>
      </trkpt>
      <trkpt lat="44.13731" lon="6.35183">
        <ele>858.8</ele>
        <time>2019-06-23T09:54:58.000Z</time>
      </trkpt>
      <trkpt lat="44.13734" lon="6.35173">
        <ele>858.4</ele>
        <time>2019-06-23T09:54:59.000Z</time>
      </trkpt>
      <trkpt lat="44.13738" lon="6.35162">
        <ele>857.8</ele>
        <time>2019-06-23T09:55:00.000Z</time>
      </trkpt>
      <trkpt lat="44.13741" lon="6.35152">
        <ele>857.4</ele>
        <time>2019-06-23T09:55:01.000Z</time>
      </trkpt>
      <trkpt lat="44.13742" lon="6.35141">
        <ele>857.2</ele>
        <time>2019-06-23T09:55:02.000Z</time>
      </trkpt>
      <trkpt lat="44.1374" lon="6.35131">
        <ele>857</ele>
        <time>2019-06-23T09:55:03.000Z</time>
      </trkpt>
      <trkpt lat="44.13733" lon="6.35116">
        <ele>857</ele>
        <time>2019-06-23T09:55:05.000Z</time>
      </trkpt>
      <trkpt lat="44.13726" lon="6.35103">
        <ele>857.2</ele>
        <time>2019-06-23T09:55:07.000Z</time>
      </trkpt>
      <trkpt lat="44.13722" lon="6.35097">
        <ele>857.2</ele>
        <time>2019-06-23T09:55:08.000Z</time>
      </trkpt>
      <trkpt lat="44.13716" lon="6.35084">
        <ele>856.8</ele>
        <time>2019-06-23T09:55:10.000Z</time>
      </trkpt>
      <trkpt lat="44.13712" lon="6.35077">
        <ele>856.6</ele>
        <time>2019-06-23T09:55:11.000Z</time>
      </trkpt>
      <trkpt lat="44.13709" lon="6.35069">
        <ele>856.2</ele>
        <time>2019-06-23T09:55:12.000Z</time>
      </trkpt>
      <trkpt lat="44.13705" lon="6.35062">
        <ele>855.6</ele>
        <time>2019-06-23T09:55:13.000Z</time>
      </trkpt>
      <trkpt lat="44.13701" lon="6.35054">
        <ele>854.8</ele>
        <time>2019-06-23T09:55:14.000Z</time>
      </trkpt>
      <trkpt lat="44.13691" lon="6.35036">
        <ele>853.2</ele>
        <time>2019-06-23T09:55:16.000Z</time>
      </trkpt>
      <trkpt lat="44.13686" lon="6.35028">
        <ele>852.4</ele>
        <time>2019-06-23T09:55:17.000Z</time>
      </trkpt>
      <trkpt lat="44.1368" lon="6.35018">
        <ele>851.6</ele>
        <time>2019-06-23T09:55:18.000Z</time>
      </trkpt>
      <trkpt lat="44.13674" lon="6.35008">
        <ele>850.6</ele>
        <time>2019-06-23T09:55:19.000Z</time>
      </trkpt>
      <trkpt lat="44.13668" lon="6.34998">
        <ele>849</ele>
        <time>2019-06-23T09:55:20.000Z</time>
      </trkpt>
      <trkpt lat="44.13662" lon="6.34987">
        <ele>847.8</ele>
        <time>2019-06-23T09:55:21.000Z</time>
      </trkpt>
      <trkpt lat="44.13657" lon="6.34976">
        <ele>846.8</ele>
        <time>2019-06-23T09:55:22.000Z</time>
      </trkpt>
      <trkpt lat="44.13654" lon="6.34965">
        <ele>845.8</ele>
        <time>2019-06-23T09:55:23.000Z</time>
      </trkpt>
      <trkpt lat="44.13653" lon="6.34954">
        <ele>845.2</ele>
        <time>2019-06-23T09:55:24.000Z</time>
      </trkpt>
      <trkpt lat="44.13652" lon="6.34943">
        <ele>844.8</ele>
        <time>2019-06-23T09:55:25.000Z</time>
      </trkpt>
      <trkpt lat="44.13654" lon="6.34932">
        <ele>844.6</ele>
        <time>2019-06-23T09:55:26.000Z</time>
      </trkpt>
      <trkpt lat="44.13656" lon="6.34919">
        <ele>844.6</ele>
        <time>2019-06-23T09:55:27.000Z</time>
      </trkpt>
      <trkpt lat="44.13657" lon="6.34906">
        <ele>844</ele>
        <time>2019-06-23T09:55:28.000Z</time>
      </trkpt>
      <trkpt lat="44.13655" lon="6.34891">
        <ele>843</ele>
        <time>2019-06-23T09:55:29.000Z</time>
      </trkpt>
      <trkpt lat="44.13653" lon="6.34875">
        <ele>841.8</ele>
        <time>2019-06-23T09:55:30.000Z</time>
      </trkpt>
      <trkpt lat="44.13652" lon="6.34858">
        <ele>840.4</ele>
        <time>2019-06-23T09:55:31.000Z</time>
      </trkpt>
      <trkpt lat="44.13651" lon="6.34842">
        <ele>839</ele>
        <time>2019-06-23T09:55:32.000Z</time>
      </trkpt>
      <trkpt lat="44.13651" lon="6.34826">
        <ele>837.8</ele>
        <time>2019-06-23T09:55:33.000Z</time>
      </trkpt>
      <trkpt lat="44.1365" lon="6.34799">
        <ele>836.6</ele>
        <time>2019-06-23T09:55:35.000Z</time>
      </trkpt>
      <trkpt lat="44.1365" lon="6.34789">
        <ele>836.4</ele>
        <time>2019-06-23T09:55:36.000Z</time>
      </trkpt>
      <trkpt lat="44.13652" lon="6.34765">
        <ele>837.4</ele>
        <time>2019-06-23T09:55:39.000Z</time>
      </trkpt>
      <trkpt lat="44.1365" lon="6.34759">
        <ele>837.8</ele>
        <time>2019-06-23T09:55:40.000Z</time>
      </trkpt>
      <trkpt lat="44.13646" lon="6.34756">
        <ele>838</ele>
        <time>2019-06-23T09:55:41.000Z</time>
      </trkpt>
      <trkpt lat="44.13638" lon="6.34755">
        <ele>838.6</ele>
        <time>2019-06-23T09:55:43.000Z</time>
      </trkpt>
      <trkpt lat="44.13633" lon="6.34755">
        <ele>838.6</ele>
        <time>2019-06-23T09:55:44.000Z</time>
      </trkpt>
      <trkpt lat="44.13629" lon="6.34756">
        <ele>838.8</ele>
        <time>2019-06-23T09:55:45.000Z</time>
      </trkpt>
      <trkpt lat="44.13625" lon="6.34758">
        <ele>839</ele>
        <time>2019-06-23T09:55:46.000Z</time>
      </trkpt>
      <trkpt lat="44.1361" lon="6.34765">
        <ele>838.8</ele>
        <time>2019-06-23T09:55:50.000Z</time>
      </trkpt>
      <trkpt lat="44.13601" lon="6.34761">
        <ele>838.4</ele>
        <time>2019-06-23T09:55:52.000Z</time>
      </trkpt>
      <trkpt lat="44.13598" lon="6.34754">
        <ele>838</ele>
        <time>2019-06-23T09:55:53.000Z</time>
      </trkpt>
      <trkpt lat="44.13598" lon="6.34744">
        <ele>837.4</ele>
        <time>2019-06-23T09:55:54.000Z</time>
      </trkpt>
      <trkpt lat="44.13601" lon="6.34735">
        <ele>836.8</ele>
        <time>2019-06-23T09:55:55.000Z</time>
      </trkpt>
      <trkpt lat="44.13606" lon="6.34729">
        <ele>836.4</ele>
        <time>2019-06-23T09:55:56.000Z</time>
      </trkpt>
      <trkpt lat="44.13616" lon="6.34712">
        <ele>836</ele>
        <time>2019-06-23T09:55:59.000Z</time>
      </trkpt>
      <trkpt lat="44.1362" lon="6.34706">
        <ele>836.8</ele>
        <time>2019-06-23T09:56:01.000Z</time>
      </trkpt>
      <trkpt lat="44.13624" lon="6.34701">
        <ele>837.8</ele>
        <time>2019-06-23T09:56:03.000Z</time>
      </trkpt>
      <trkpt lat="44.13627" lon="6.34699">
        <ele>838.4</ele>
        <time>2019-06-23T09:56:04.000Z</time>
      </trkpt>
      <trkpt lat="44.13629" lon="6.34697">
        <ele>839</ele>
        <time>2019-06-23T09:56:05.000Z</time>
      </trkpt>
      <trkpt lat="44.13638" lon="6.34694">
        <ele>840.2</ele>
        <time>2019-06-23T09:56:08.000Z</time>
      </trkpt>
      <trkpt lat="44.13641" lon="6.34693">
        <ele>840.4</ele>
        <time>2019-06-23T09:56:09.000Z</time>
      </trkpt>
      <trkpt lat="44.13659" lon="6.34692">
        <ele>841</ele>
        <time>2019-06-23T09:56:14.000Z</time>
      </trkpt>
      <trkpt lat="44.13668" lon="6.34689">
        <ele>840.8</ele>
        <time>2019-06-23T09:56:16.000Z</time>
      </trkpt>
      <trkpt lat="44.13672" lon="6.34686">
        <ele>840.6</ele>
        <time>2019-06-23T09:56:17.000Z</time>
      </trkpt>
      <trkpt lat="44.13678" lon="6.34678">
        <ele>840.4</ele>
        <time>2019-06-23T09:56:19.000Z</time>
      </trkpt>
      <trkpt lat="44.13681" lon="6.34667">
        <ele>840.4</ele>
        <time>2019-06-23T09:56:21.000Z</time>
      </trkpt>
      <trkpt lat="44.13681" lon="6.34661">
        <ele>840.4</ele>
        <time>2019-06-23T09:56:22.000Z</time>
      </trkpt>
      <trkpt lat="44.13681" lon="6.34656">
        <ele>840.4</ele>
        <time>2019-06-23T09:56:23.000Z</time>
      </trkpt>
      <trkpt lat="44.13683" lon="6.34618">
        <ele>840.4</ele>
        <time>2019-06-23T09:56:30.000Z</time>
      </trkpt>
      <trkpt lat="44.13687" lon="6.34602">
        <ele>840.8</ele>
        <time>2019-06-23T09:56:33.000Z</time>
      </trkpt>
      <trkpt lat="44.13693" lon="6.34588">
        <ele>841.4</ele>
        <time>2019-06-23T09:56:36.000Z</time>
      </trkpt>
      <trkpt lat="44.13694" lon="6.34583">
        <ele>841.6</ele>
        <time>2019-06-23T09:56:37.000Z</time>
      </trkpt>
      <trkpt lat="44.13695" lon="6.3457">
        <ele>842.2</ele>
        <time>2019-06-23T09:56:40.000Z</time>
      </trkpt>
      <trkpt lat="44.13693" lon="6.34566">
        <ele>842.6</ele>
        <time>2019-06-23T09:56:41.000Z</time>
      </trkpt>
      <trkpt lat="44.1369" lon="6.34559">
        <ele>843.8</ele>
        <time>2019-06-23T09:56:43.000Z</time>
      </trkpt>
      <trkpt lat="44.13684" lon="6.34549">
        <ele>844.8</ele>
        <time>2019-06-23T09:56:46.000Z</time>
      </trkpt>
      <trkpt lat="44.13678" lon="6.3454">
        <ele>845.6</ele>
        <time>2019-06-23T09:56:49.000Z</time>
      </trkpt>
      <trkpt lat="44.13675" lon="6.34534">
        <ele>846.2</ele>
        <time>2019-06-23T09:56:51.000Z</time>
      </trkpt>
      <trkpt lat="44.13672" lon="6.34528">
        <ele>847.2</ele>
        <time>2019-06-23T09:56:53.000Z</time>
      </trkpt>
      <trkpt lat="44.13668" lon="6.34519">
        <ele>848.4</ele>
        <time>2019-06-23T09:56:56.000Z</time>
      </trkpt>
      <trkpt lat="44.13664" lon="6.34511">
        <ele>849.6</ele>
        <time>2019-06-23T09:56:59.000Z</time>
      </trkpt>
      <trkpt lat="44.13662" lon="6.34505">
        <ele>850.2</ele>
        <time>2019-06-23T09:57:01.000Z</time>
      </trkpt>
      <trkpt lat="44.1366" lon="6.34502">
        <ele>850.6</ele>
        <time>2019-06-23T09:57:02.000Z</time>
      </trkpt>
      <trkpt lat="44.13657" lon="6.34493">
        <ele>851.8</ele>
        <time>2019-06-23T09:57:05.000Z</time>
      </trkpt>
      <trkpt lat="44.13655" lon="6.3449">
        <ele>852.2</ele>
        <time>2019-06-23T09:57:06.000Z</time>
      </trkpt>
      <trkpt lat="44.13653" lon="6.34484">
        <ele>853</ele>
        <time>2019-06-23T09:57:08.000Z</time>
      </trkpt>
      <trkpt lat="44.13649" lon="6.34476">
        <ele>854.2</ele>
        <time>2019-06-23T09:57:11.000Z</time>
      </trkpt>
      <trkpt lat="44.13645" lon="6.34468">
        <ele>855.4</ele>
        <time>2019-06-23T09:57:14.000Z</time>
      </trkpt>
      <trkpt lat="44.13641" lon="6.3446">
        <ele>856.6</ele>
        <time>2019-06-23T09:57:17.000Z</time>
      </trkpt>
      <trkpt lat="44.13637" lon="6.34452">
        <ele>857.6</ele>
        <time>2019-06-23T09:57:21.000Z</time>
      </trkpt>
      <trkpt lat="44.13634" lon="6.34446">
        <ele>859</ele>
        <time>2019-06-23T09:57:24.000Z</time>
      </trkpt>
      <trkpt lat="44.13631" lon="6.34437">
        <ele>860.2</ele>
        <time>2019-06-23T09:57:28.000Z</time>
      </trkpt>
      <trkpt lat="44.13631" lon="6.34435">
        <ele>860.4</ele>
        <time>2019-06-23T09:57:29.000Z</time>
      </trkpt>
      <trkpt lat="44.13629" lon="6.34431">
        <ele>860.8</ele>
        <time>2019-06-23T09:57:31.000Z</time>
      </trkpt>
      <trkpt lat="44.13627" lon="6.34426">
        <ele>861.4</ele>
        <time>2019-06-23T09:57:33.000Z</time>
      </trkpt>
      <trkpt lat="44.13626" lon="6.34424">
        <ele>861.6</ele>
        <time>2019-06-23T09:57:34.000Z</time>
      </trkpt>
      <trkpt lat="44.13625" lon="6.34422">
        <ele>861.8</ele>
        <time>2019-06-23T09:57:35.000Z</time>
      </trkpt>
      <trkpt lat="44.13622" lon="6.34418">
        <ele>862</ele>
        <time>2019-06-23T09:57:37.000Z</time>
      </trkpt>
      <trkpt lat="44.1362" lon="6.34414">
        <ele>862.2</ele>
        <time>2019-06-23T09:57:39.000Z</time>
      </trkpt>
      <trkpt lat="44.13617" lon="6.34409">
        <ele>862.6</ele>
        <time>2019-06-23T09:57:41.000Z</time>
      </trkpt>
      <trkpt lat="44.1361" lon="6.34399">
        <ele>862.8</ele>
        <time>2019-06-23T09:57:45.000Z</time>
      </trkpt>
      <trkpt lat="44.13604" lon="6.34387">
        <ele>862.8</ele>
        <time>2019-06-23T09:57:49.000Z</time>
      </trkpt>
      <trkpt lat="44.13599" lon="6.34375">
        <ele>862.4</ele>
        <time>2019-06-23T09:57:53.000Z</time>
      </trkpt>
      <trkpt lat="44.13589" lon="6.34354">
        <ele>862.6</ele>
        <time>2019-06-23T09:58:00.000Z</time>
      </trkpt>
      <trkpt lat="44.13586" lon="6.3435">
        <ele>862.6</ele>
        <time>2019-06-23T09:58:01.000Z</time>
      </trkpt>
      <trkpt lat="44.13573" lon="6.34341">
        <ele>862</ele>
        <time>2019-06-23T09:58:05.000Z</time>
      </trkpt>
      <trkpt lat="44.1355" lon="6.34327">
        <ele>862</ele>
        <time>2019-06-23T09:58:13.000Z</time>
      </trkpt>
      <trkpt lat="44.13535" lon="6.34307">
        <ele>862.8</ele>
        <time>2019-06-23T09:58:20.000Z</time>
      </trkpt>
      <trkpt lat="44.13524" lon="6.34301">
        <ele>863.8</ele>
        <time>2019-06-23T09:58:24.000Z</time>
      </trkpt>
      <trkpt lat="44.13517" lon="6.34299">
        <ele>864.4</ele>
        <time>2019-06-23T09:58:27.000Z</time>
      </trkpt>
      <trkpt lat="44.1351" lon="6.34297">
        <ele>864.8</ele>
        <time>2019-06-23T09:58:30.000Z</time>
      </trkpt>
      <trkpt lat="44.13506" lon="6.34294">
        <ele>865.6</ele>
        <time>2019-06-23T09:58:32.000Z</time>
      </trkpt>
      <trkpt lat="44.13503" lon="6.34292">
        <ele>865.8</ele>
        <time>2019-06-23T09:58:33.000Z</time>
      </trkpt>
      <trkpt lat="44.13501" lon="6.3429">
        <ele>866.2</ele>
        <time>2019-06-23T09:58:34.000Z</time>
      </trkpt>
      <trkpt lat="44.13494" lon="6.34282">
        <ele>867.4</ele>
        <time>2019-06-23T09:58:38.000Z</time>
      </trkpt>
      <trkpt lat="44.13489" lon="6.34278">
        <ele>868</ele>
        <time>2019-06-23T09:58:40.000Z</time>
      </trkpt>
      <trkpt lat="44.13487" lon="6.34276">
        <ele>868.4</ele>
        <time>2019-06-23T09:58:41.000Z</time>
      </trkpt>
      <trkpt lat="44.13476" lon="6.34269">
        <ele>869.4</ele>
        <time>2019-06-23T09:58:45.000Z</time>
      </trkpt>
      <trkpt lat="44.13473" lon="6.34267">
        <ele>869.4</ele>
        <time>2019-06-23T09:58:46.000Z</time>
      </trkpt>
      <trkpt lat="44.13469" lon="6.34265">
        <ele>869.8</ele>
        <time>2019-06-23T09:58:48.000Z</time>
      </trkpt>
      <trkpt lat="44.13458" lon="6.3427">
        <ele>870.2</ele>
        <time>2019-06-23T09:58:52.000Z</time>
      </trkpt>
      <trkpt lat="44.13457" lon="6.34273">
        <ele>870.6</ele>
        <time>2019-06-23T09:58:54.000Z</time>
      </trkpt>
      <trkpt lat="44.13455" lon="6.34274">
        <ele>870.8</ele>
        <time>2019-06-23T09:58:55.000Z</time>
      </trkpt>
      <trkpt lat="44.13454" lon="6.34274">
        <ele>870.8</ele>
        <time>2019-06-23T09:58:56.000Z</time>
      </trkpt>
      <trkpt lat="44.13454" lon="6.34271">
        <ele>871</ele>
        <time>2019-06-23T09:58:58.000Z</time>
      </trkpt>
      <trkpt lat="44.13456" lon="6.3427">
        <ele>871</ele>
        <time>2019-06-23T09:58:59.000Z</time>
      </trkpt>
      <trkpt lat="44.13457" lon="6.34277">
        <ele>871</ele>
        <time>2019-06-23T09:59:02.000Z</time>
      </trkpt>
      <trkpt lat="44.13455" lon="6.34278">
        <ele>871</ele>
        <time>2019-06-23T09:59:03.000Z</time>
      </trkpt>
      <trkpt lat="44.1345" lon="6.34285">
        <ele>871.2</ele>
        <time>2019-06-23T09:59:07.000Z</time>
      </trkpt>
      <trkpt lat="44.13449" lon="6.34287">
        <ele>871.2</ele>
        <time>2019-06-23T09:59:08.000Z</time>
      </trkpt>
      <trkpt lat="44.13449" lon="6.34288">
        <ele>871.6</ele>
        <time>2019-06-23T09:59:15.000Z</time>
      </trkpt>
      <trkpt lat="44.13449" lon="6.34288">
        <ele>871.6</ele>
        <time>2019-06-23T09:59:16.000Z</time>
      </trkpt>
      <trkpt lat="44.13449" lon="6.34289">
        <ele>871.2</ele>
        <time>2019-06-23T09:59:35.000Z</time>
      </trkpt>
      <trkpt lat="44.13448" lon="6.3429">
        <ele>871.8</ele>
        <time>2019-06-23T09:59:43.000Z</time>
      </trkpt>
      <trkpt lat="44.13447" lon="6.34291">
        <ele>872</ele>
        <time>2019-06-23T09:59:49.000Z</time>
      </trkpt>
      <trkpt lat="44.13447" lon="6.34292">
        <ele>871.6</ele>
        <time>2019-06-23T10:00:26.000Z</time>
      </trkpt>
      <trkpt lat="44.13447" lon="6.34294">
        <ele>871.6</ele>
        <time>2019-06-23T10:01:25.000Z</time>
      </trkpt>
      <trkpt lat="44.13447" lon="6.34294">
        <ele>871.6</ele>
        <time>2019-06-23T10:01:26.000Z</time>
      </trkpt>
      <trkpt lat="44.13448" lon="6.3429">
        <ele>871.6</ele>
        <time>2019-06-23T10:01:29.000Z</time>
      </trkpt>
      <trkpt lat="44.13448" lon="6.34288">
        <ele>871.6</ele>
        <time>2019-06-23T10:01:30.000Z</time>
      </trkpt>
      <trkpt lat="44.13447" lon="6.34287">
        <ele>871.6</ele>
        <time>2019-06-23T10:01:33.000Z</time>
      </trkpt>
      <trkpt lat="44.13448" lon="6.34286">
        <ele>871.2</ele>
        <time>2019-06-23T10:01:35.000Z</time>
      </trkpt>
      <trkpt lat="44.13448" lon="6.34286">
        <ele>871</ele>
        <time>2019-06-23T10:01:36.000Z</time>
      </trkpt>
      <trkpt lat="44.13448" lon="6.34286">
        <ele>870.6</ele>
        <time>2019-06-23T10:01:41.000Z</time>
      </trkpt>
      <trkpt lat="44.13449" lon="6.34285">
        <ele>870.8</ele>
        <time>2019-06-23T10:01:45.000Z</time>
      </trkpt>
      <trkpt lat="44.13449" lon="6.34284">
        <ele>870.6</ele>
        <time>2019-06-23T10:01:55.000Z</time>
      </trkpt>
      <trkpt lat="44.13449" lon="6.34284">
        <ele>870.6</ele>
        <time>2019-06-23T10:02:00.000Z</time>
      </trkpt>
      <trkpt lat="44.13449" lon="6.34284">
        <ele>870.8</ele>
        <time>2019-06-23T10:02:15.000Z</time>
      </trkpt>
      <trkpt lat="44.1345" lon="6.34283">
        <ele>870.8</ele>
        <time>2019-06-23T10:02:55.000Z</time>
      </trkpt>
      <trkpt lat="44.1345" lon="6.34284">
        <ele>870.2</ele>
        <time>2019-06-23T10:03:03.000Z</time>
      </trkpt>
      <trkpt lat="44.1345" lon="6.34284">
        <ele>870.2</ele>
        <time>2019-06-23T10:03:04.000Z</time>
      </trkpt>
      <trkpt lat="44.1345" lon="6.34285">
        <ele>870</ele>
        <time>2019-06-23T10:03:15.000Z</time>
      </trkpt>
      <trkpt lat="44.13449" lon="6.34286">
        <ele>870</ele>
        <time>2019-06-23T10:03:22.000Z</time>
      </trkpt>
      <trkpt lat="44.13451" lon="6.34286">
        <ele>870.2</ele>
        <time>2019-06-23T10:03:31.000Z</time>
      </trkpt>
      <trkpt lat="44.1345" lon="6.34286">
        <ele>870.4</ele>
        <time>2019-06-23T10:03:41.000Z</time>
      </trkpt>
      <trkpt lat="44.1345" lon="6.34285">
        <ele>870.6</ele>
        <time>2019-06-23T10:03:51.000Z</time>
      </trkpt>
      <trkpt lat="44.1345" lon="6.34286">
        <ele>870.2</ele>
        <time>2019-06-23T10:04:05.000Z</time>
      </trkpt>
      <trkpt lat="44.13451" lon="6.34284">
        <ele>870.4</ele>
        <time>2019-06-23T10:04:19.000Z</time>
      </trkpt>
      <trkpt lat="44.13451" lon="6.34284">
        <ele>869.8</ele>
        <time>2019-06-23T10:04:32.000Z</time>
      </trkpt>
      <trkpt lat="44.13451" lon="6.34283">
        <ele>870.2</ele>
        <time>2019-06-23T10:04:50.000Z</time>
      </trkpt>
      <trkpt lat="44.13451" lon="6.34282">
        <ele>869.8</ele>
        <time>2019-06-23T10:05:03.000Z</time>
      </trkpt>
      <trkpt lat="44.1345" lon="6.34284">
        <ele>870</ele>
        <time>2019-06-23T10:05:12.000Z</time>
      </trkpt>
      <trkpt lat="44.13449" lon="6.34287">
        <ele>870.2</ele>
        <time>2019-06-23T10:05:25.000Z</time>
      </trkpt>
      <trkpt lat="44.13448" lon="6.34287">
        <ele>870.2</ele>
        <time>2019-06-23T10:05:50.000Z</time>
      </trkpt>
      <trkpt lat="44.13447" lon="6.34287">
        <ele>870.2</ele>
        <time>2019-06-23T10:06:39.000Z</time>
      </trkpt>
      <trkpt lat="44.13447" lon="6.34287">
        <ele>870.2</ele>
        <time>2019-06-23T10:06:40.000Z</time>
      </trkpt>
      <trkpt lat="44.13447" lon="6.34286">
        <ele>870.2</ele>
        <time>2019-06-23T10:06:41.000Z</time>
      </trkpt>
      <trkpt lat="44.13447" lon="6.34285">
        <ele>870.2</ele>
        <time>2019-06-23T10:06:45.000Z</time>
      </trkpt>
      <trkpt lat="44.13449" lon="6.34284">
        <ele>870.2</ele>
        <time>2019-06-23T10:06:47.000Z</time>
      </trkpt>
      <trkpt lat="44.1345" lon="6.34283">
        <ele>870.2</ele>
        <time>2019-06-23T10:06:48.000Z</time>
      </trkpt>
      <trkpt lat="44.13455" lon="6.34276">
        <ele>870.2</ele>
        <time>2019-06-23T10:06:53.000Z</time>
      </trkpt>
      <trkpt lat="44.13457" lon="6.34273">
        <ele>869.8</ele>
        <time>2019-06-23T10:06:58.000Z</time>
      </trkpt>
      <trkpt lat="44.13456" lon="6.34267">
        <ele>869.4</ele>
        <time>2019-06-23T10:07:10.000Z</time>
      </trkpt>
      <trkpt lat="44.13448" lon="6.34258">
        <ele>868.6</ele>
        <time>2019-06-23T10:07:15.000Z</time>
      </trkpt>
      <trkpt lat="44.13446" lon="6.34257">
        <ele>868.4</ele>
        <time>2019-06-23T10:07:17.000Z</time>
      </trkpt>
      <trkpt lat="44.13446" lon="6.34256">
        <ele>868.4</ele>
        <time>2019-06-23T10:07:19.000Z</time>
      </trkpt>
      <trkpt lat="44.13446" lon="6.34255">
        <ele>868.2</ele>
        <time>2019-06-23T10:07:33.000Z</time>
      </trkpt>
      <trkpt lat="44.13443" lon="6.34253">
        <ele>868</ele>
        <time>2019-06-23T10:07:42.000Z</time>
      </trkpt>
      <trkpt lat="44.13432" lon="6.34244">
        <ele>867.2</ele>
        <time>2019-06-23T10:07:46.000Z</time>
      </trkpt>
      <trkpt lat="44.13428" lon="6.3424">
        <ele>867</ele>
        <time>2019-06-23T10:07:47.000Z</time>
      </trkpt>
      <trkpt lat="44.13415" lon="6.3423">
        <ele>866.2</ele>
        <time>2019-06-23T10:07:50.000Z</time>
      </trkpt>
      <trkpt lat="44.13404" lon="6.34223">
        <ele>865.4</ele>
        <time>2019-06-23T10:07:52.000Z</time>
      </trkpt>
      <trkpt lat="44.13398" lon="6.3422">
        <ele>865</ele>
        <time>2019-06-23T10:07:53.000Z</time>
      </trkpt>
      <trkpt lat="44.13386" lon="6.34215">
        <ele>864</ele>
        <time>2019-06-23T10:07:55.000Z</time>
      </trkpt>
      <trkpt lat="44.13372" lon="6.34208">
        <ele>863</ele>
        <time>2019-06-23T10:07:57.000Z</time>
      </trkpt>
      <trkpt lat="44.13365" lon="6.34204">
        <ele>862.6</ele>
        <time>2019-06-23T10:07:58.000Z</time>
      </trkpt>
      <trkpt lat="44.13358" lon="6.34198">
        <ele>862.2</ele>
        <time>2019-06-23T10:07:59.000Z</time>
      </trkpt>
      <trkpt lat="44.13352" lon="6.3419">
        <ele>861.8</ele>
        <time>2019-06-23T10:08:00.000Z</time>
      </trkpt>
      <trkpt lat="44.13349" lon="6.34179">
        <ele>861.4</ele>
        <time>2019-06-23T10:08:01.000Z</time>
      </trkpt>
      <trkpt lat="44.13344" lon="6.34161">
        <ele>860.2</ele>
        <time>2019-06-23T10:08:03.000Z</time>
      </trkpt>
      <trkpt lat="44.13335" lon="6.34155">
        <ele>859.8</ele>
        <time>2019-06-23T10:08:05.000Z</time>
      </trkpt>
      <trkpt lat="44.13321" lon="6.34157">
        <ele>860.6</ele>
        <time>2019-06-23T10:08:10.000Z</time>
      </trkpt>
      <trkpt lat="44.13317" lon="6.34157">
        <ele>861.4</ele>
        <time>2019-06-23T10:08:12.000Z</time>
      </trkpt>
      <trkpt lat="44.13315" lon="6.34157">
        <ele>861.8</ele>
        <time>2019-06-23T10:08:13.000Z</time>
      </trkpt>
      <trkpt lat="44.13311" lon="6.34156">
        <ele>862.4</ele>
        <time>2019-06-23T10:08:15.000Z</time>
      </trkpt>
      <trkpt lat="44.13307" lon="6.34154">
        <ele>863</ele>
        <time>2019-06-23T10:08:17.000Z</time>
      </trkpt>
      <trkpt lat="44.13304" lon="6.34152">
        <ele>863.4</ele>
        <time>2019-06-23T10:08:19.000Z</time>
      </trkpt>
      <trkpt lat="44.13303" lon="6.34149">
        <ele>864</ele>
        <time>2019-06-23T10:08:21.000Z</time>
      </trkpt>
      <trkpt lat="44.13303" lon="6.34148">
        <ele>864.2</ele>
        <time>2019-06-23T10:08:22.000Z</time>
      </trkpt>
      <trkpt lat="44.13303" lon="6.34148">
        <ele>864.6</ele>
        <time>2019-06-23T10:08:23.000Z</time>
      </trkpt>
      <trkpt lat="44.13303" lon="6.34148">
        <ele>865</ele>
        <time>2019-06-23T10:08:25.000Z</time>
      </trkpt>
      <trkpt lat="44.133" lon="6.34148">
        <ele>865</ele>
        <time>2019-06-23T10:08:35.000Z</time>
      </trkpt>
      <trkpt lat="44.13291" lon="6.34149">
        <ele>865.6</ele>
        <time>2019-06-23T10:08:40.000Z</time>
      </trkpt>
      <trkpt lat="44.13287" lon="6.3415">
        <ele>866.2</ele>
        <time>2019-06-23T10:08:42.000Z</time>
      </trkpt>
      <trkpt lat="44.13281" lon="6.34153">
        <ele>867</ele>
        <time>2019-06-23T10:08:45.000Z</time>
      </trkpt>
      <trkpt lat="44.13274" lon="6.34154">
        <ele>868.2</ele>
        <time>2019-06-23T10:08:49.000Z</time>
      </trkpt>
      <trkpt lat="44.13273" lon="6.34154">
        <ele>868.4</ele>
        <time>2019-06-23T10:08:50.000Z</time>
      </trkpt>
      <trkpt lat="44.13265" lon="6.34156">
        <ele>869.2</ele>
        <time>2019-06-23T10:08:55.000Z</time>
      </trkpt>
      <trkpt lat="44.13263" lon="6.34157">
        <ele>869.6</ele>
        <time>2019-06-23T10:08:56.000Z</time>
      </trkpt>
      <trkpt lat="44.13261" lon="6.34157">
        <ele>870</ele>
        <time>2019-06-23T10:08:57.000Z</time>
      </trkpt>
      <trkpt lat="44.1326" lon="6.34158">
        <ele>870.2</ele>
        <time>2019-06-23T10:08:58.000Z</time>
      </trkpt>
      <trkpt lat="44.13255" lon="6.34161">
        <ele>871.4</ele>
        <time>2019-06-23T10:09:01.000Z</time>
      </trkpt>
      <trkpt lat="44.13254" lon="6.34161">
        <ele>871.6</ele>
        <time>2019-06-23T10:09:02.000Z</time>
      </trkpt>
      <trkpt lat="44.13251" lon="6.34161">
        <ele>872</ele>
        <time>2019-06-23T10:09:04.000Z</time>
      </trkpt>
      <trkpt lat="44.1325" lon="6.34161">
        <ele>872.2</ele>
        <time>2019-06-23T10:09:05.000Z</time>
      </trkpt>
      <trkpt lat="44.13249" lon="6.34157">
        <ele>872.6</ele>
        <time>2019-06-23T10:09:07.000Z</time>
      </trkpt>
      <trkpt lat="44.1325" lon="6.34151">
        <ele>873.6</ele>
        <time>2019-06-23T10:09:10.000Z</time>
      </trkpt>
      <trkpt lat="44.13251" lon="6.34149">
        <ele>874</ele>
        <time>2019-06-23T10:09:11.000Z</time>
      </trkpt>
      <trkpt lat="44.13252" lon="6.34147">
        <ele>874.4</ele>
        <time>2019-06-23T10:09:12.000Z</time>
      </trkpt>
      <trkpt lat="44.13253" lon="6.34143">
        <ele>875</ele>
        <time>2019-06-23T10:09:14.000Z</time>
      </trkpt>
      <trkpt lat="44.13253" lon="6.34141">
        <ele>875.2</ele>
        <time>2019-06-23T10:09:15.000Z</time>
      </trkpt>
      <trkpt lat="44.13254" lon="6.34137">
        <ele>876</ele>
        <time>2019-06-23T10:09:17.000Z</time>
      </trkpt>
      <trkpt lat="44.13255" lon="6.34135">
        <ele>876.4</ele>
        <time>2019-06-23T10:09:18.000Z</time>
      </trkpt>
      <trkpt lat="44.13255" lon="6.34133">
        <ele>876.6</ele>
        <time>2019-06-23T10:09:19.000Z</time>
      </trkpt>
      <trkpt lat="44.13255" lon="6.34131">
        <ele>877.2</ele>
        <time>2019-06-23T10:09:20.000Z</time>
      </trkpt>
      <trkpt lat="44.13256" lon="6.3413">
        <ele>877.4</ele>
        <time>2019-06-23T10:09:21.000Z</time>
      </trkpt>
      <trkpt lat="44.13257" lon="6.34128">
        <ele>877.8</ele>
        <time>2019-06-23T10:09:22.000Z</time>
      </trkpt>
      <trkpt lat="44.13259" lon="6.34123">
        <ele>878.6</ele>
        <time>2019-06-23T10:09:25.000Z</time>
      </trkpt>
      <trkpt lat="44.1326" lon="6.34121">
        <ele>878.8</ele>
        <time>2019-06-23T10:09:26.000Z</time>
      </trkpt>
      <trkpt lat="44.13262" lon="6.34114">
        <ele>879.6</ele>
        <time>2019-06-23T10:09:29.000Z</time>
      </trkpt>
      <trkpt lat="44.13265" lon="6.34103">
        <ele>880.6</ele>
        <time>2019-06-23T10:09:34.000Z</time>
      </trkpt>
      <trkpt lat="44.13265" lon="6.341">
        <ele>880.6</ele>
        <time>2019-06-23T10:09:35.000Z</time>
      </trkpt>
      <trkpt lat="44.13265" lon="6.34098">
        <ele>880.8</ele>
        <time>2019-06-23T10:09:36.000Z</time>
      </trkpt>
      <trkpt lat="44.13266" lon="6.34088">
        <ele>881.6</ele>
        <time>2019-06-23T10:09:40.000Z</time>
      </trkpt>
      <trkpt lat="44.13266" lon="6.34082">
        <ele>882</ele>
        <time>2019-06-23T10:09:42.000Z</time>
      </trkpt>
      <trkpt lat="44.13266" lon="6.34077">
        <ele>882.6</ele>
        <time>2019-06-23T10:09:44.000Z</time>
      </trkpt>
      <trkpt lat="44.13266" lon="6.34068">
        <ele>883.8</ele>
        <time>2019-06-23T10:09:48.000Z</time>
      </trkpt>
      <trkpt lat="44.13267" lon="6.34064">
        <ele>884.2</ele>
        <time>2019-06-23T10:09:50.000Z</time>
      </trkpt>
      <trkpt lat="44.13269" lon="6.34059">
        <ele>885</ele>
        <time>2019-06-23T10:09:53.000Z</time>
      </trkpt>
      <trkpt lat="44.13269" lon="6.34053">
        <ele>886</ele>
        <time>2019-06-23T10:09:56.000Z</time>
      </trkpt>
      <trkpt lat="44.1327" lon="6.34046">
        <ele>887.2</ele>
        <time>2019-06-23T10:09:59.000Z</time>
      </trkpt>
      <trkpt lat="44.13271" lon="6.34036">
        <ele>888.6</ele>
        <time>2019-06-23T10:10:03.000Z</time>
      </trkpt>
      <trkpt lat="44.13272" lon="6.3403">
        <ele>889.8</ele>
        <time>2019-06-23T10:10:06.000Z</time>
      </trkpt>
      <trkpt lat="44.13275" lon="6.34019">
        <ele>890.8</ele>
        <time>2019-06-23T10:10:11.000Z</time>
      </trkpt>
      <trkpt lat="44.13278" lon="6.34013">
        <ele>891.6</ele>
        <time>2019-06-23T10:10:14.000Z</time>
      </trkpt>
      <trkpt lat="44.13279" lon="6.34009">
        <ele>892</ele>
        <time>2019-06-23T10:10:16.000Z</time>
      </trkpt>
      <trkpt lat="44.13285" lon="6.33997">
        <ele>892.8</ele>
        <time>2019-06-23T10:10:22.000Z</time>
      </trkpt>
      <trkpt lat="44.13286" lon="6.33995">
        <ele>893.2</ele>
        <time>2019-06-23T10:10:23.000Z</time>
      </trkpt>
      <trkpt lat="44.13288" lon="6.33988">
        <ele>894.2</ele>
        <time>2019-06-23T10:10:26.000Z</time>
      </trkpt>
      <trkpt lat="44.13292" lon="6.33983">
        <ele>895.6</ele>
        <time>2019-06-23T10:10:29.000Z</time>
      </trkpt>
      <trkpt lat="44.13296" lon="6.33979">
        <ele>896.8</ele>
        <time>2019-06-23T10:10:32.000Z</time>
      </trkpt>
      <trkpt lat="44.133" lon="6.33972">
        <ele>897.8</ele>
        <time>2019-06-23T10:10:36.000Z</time>
      </trkpt>
      <trkpt lat="44.13305" lon="6.33965">
        <ele>899.2</ele>
        <time>2019-06-23T10:10:40.000Z</time>
      </trkpt>
      <trkpt lat="44.13309" lon="6.3396">
        <ele>900.4</ele>
        <time>2019-06-23T10:10:43.000Z</time>
      </trkpt>
      <trkpt lat="44.13312" lon="6.33952">
        <ele>901.8</ele>
        <time>2019-06-23T10:10:47.000Z</time>
      </trkpt>
      <trkpt lat="44.13315" lon="6.33947">
        <ele>902.8</ele>
        <time>2019-06-23T10:10:50.000Z</time>
      </trkpt>
      <trkpt lat="44.13316" lon="6.33945">
        <ele>903</ele>
        <time>2019-06-23T10:10:51.000Z</time>
      </trkpt>
      <trkpt lat="44.13317" lon="6.33944">
        <ele>903.6</ele>
        <time>2019-06-23T10:10:52.000Z</time>
      </trkpt>
      <trkpt lat="44.13318" lon="6.33942">
        <ele>904.2</ele>
        <time>2019-06-23T10:10:53.000Z</time>
      </trkpt>
      <trkpt lat="44.1332" lon="6.3394">
        <ele>904.8</ele>
        <time>2019-06-23T10:10:55.000Z</time>
      </trkpt>
      <trkpt lat="44.13323" lon="6.33937">
        <ele>905.4</ele>
        <time>2019-06-23T10:10:57.000Z</time>
      </trkpt>
      <trkpt lat="44.13325" lon="6.33933">
        <ele>905.8</ele>
        <time>2019-06-23T10:10:59.000Z</time>
      </trkpt>
      <trkpt lat="44.13327" lon="6.33929">
        <ele>906.6</ele>
        <time>2019-06-23T10:11:01.000Z</time>
      </trkpt>
      <trkpt lat="44.13328" lon="6.33928">
        <ele>906.8</ele>
        <time>2019-06-23T10:11:02.000Z</time>
      </trkpt>
      <trkpt lat="44.13332" lon="6.33924">
        <ele>907.6</ele>
        <time>2019-06-23T10:11:05.000Z</time>
      </trkpt>
      <trkpt lat="44.13336" lon="6.33922">
        <ele>908.2</ele>
        <time>2019-06-23T10:11:07.000Z</time>
      </trkpt>
      <trkpt lat="44.1334" lon="6.33917">
        <ele>908.8</ele>
        <time>2019-06-23T10:11:10.000Z</time>
      </trkpt>
      <trkpt lat="44.13349" lon="6.3391">
        <ele>909.4</ele>
        <time>2019-06-23T10:11:15.000Z</time>
      </trkpt>
      <trkpt lat="44.13357" lon="6.33905">
        <ele>909.6</ele>
        <time>2019-06-23T10:11:19.000Z</time>
      </trkpt>
      <trkpt lat="44.1336" lon="6.33901">
        <ele>909.8</ele>
        <time>2019-06-23T10:11:21.000Z</time>
      </trkpt>
      <trkpt lat="44.1336" lon="6.33899">
        <ele>910</ele>
        <time>2019-06-23T10:11:22.000Z</time>
      </trkpt>
      <trkpt lat="44.13362" lon="6.33885">
        <ele>911</ele>
        <time>2019-06-23T10:11:27.000Z</time>
      </trkpt>
      <trkpt lat="44.13362" lon="6.33879">
        <ele>911.4</ele>
        <time>2019-06-23T10:11:29.000Z</time>
      </trkpt>
      <trkpt lat="44.13364" lon="6.33873">
        <ele>912.4</ele>
        <time>2019-06-23T10:11:32.000Z</time>
      </trkpt>
      <trkpt lat="44.13367" lon="6.33868">
        <ele>913.4</ele>
        <time>2019-06-23T10:11:35.000Z</time>
      </trkpt>
      <trkpt lat="44.13368" lon="6.33866">
        <ele>913.6</ele>
        <time>2019-06-23T10:11:36.000Z</time>
      </trkpt>
      <trkpt lat="44.13373" lon="6.33862">
        <ele>915</ele>
        <time>2019-06-23T10:11:39.000Z</time>
      </trkpt>
      <trkpt lat="44.13374" lon="6.33859">
        <ele>915.6</ele>
        <time>2019-06-23T10:11:41.000Z</time>
      </trkpt>
      <trkpt lat="44.13375" lon="6.33856">
        <ele>916</ele>
        <time>2019-06-23T10:11:43.000Z</time>
      </trkpt>
      <trkpt lat="44.13375" lon="6.33856">
        <ele>916.4</ele>
        <time>2019-06-23T10:11:44.000Z</time>
      </trkpt>
      <trkpt lat="44.13375" lon="6.33857">
        <ele>916.8</ele>
        <time>2019-06-23T10:11:46.000Z</time>
      </trkpt>
      <trkpt lat="44.13375" lon="6.33857">
        <ele>917</ele>
        <time>2019-06-23T10:11:48.000Z</time>
      </trkpt>
      <trkpt lat="44.13376" lon="6.33858">
        <ele>917.4</ele>
        <time>2019-06-23T10:11:53.000Z</time>
      </trkpt>
      <trkpt lat="44.13376" lon="6.33858">
        <ele>917.4</ele>
        <time>2019-06-23T10:11:58.000Z</time>
      </trkpt>
      <trkpt lat="44.13375" lon="6.33858">
        <ele>917.4</ele>
        <time>2019-06-23T10:12:05.000Z</time>
      </trkpt>
      <trkpt lat="44.13375" lon="6.33857">
        <ele>917.6</ele>
        <time>2019-06-23T10:12:13.000Z</time>
      </trkpt>
      <trkpt lat="44.13375" lon="6.33857">
        <ele>917.4</ele>
        <time>2019-06-23T10:12:15.000Z</time>
      </trkpt>
      <trkpt lat="44.13375" lon="6.33856">
        <ele>917.2</ele>
        <time>2019-06-23T10:12:22.000Z</time>
      </trkpt>
      <trkpt lat="44.13375" lon="6.33856">
        <ele>917.2</ele>
        <time>2019-06-23T10:12:24.000Z</time>
      </trkpt>
      <trkpt lat="44.13376" lon="6.33856">
        <ele>917.4</ele>
        <time>2019-06-23T10:12:27.000Z</time>
      </trkpt>
      <trkpt lat="44.13375" lon="6.33856">
        <ele>917.2</ele>
        <time>2019-06-23T10:12:28.000Z</time>
      </trkpt>
      <trkpt lat="44.13375" lon="6.33857">
        <ele>917.2</ele>
        <time>2019-06-23T10:12:41.000Z</time>
      </trkpt>
      <trkpt lat="44.13375" lon="6.33855">
        <ele>917.2</ele>
        <time>2019-06-23T10:12:47.000Z</time>
      </trkpt>
      <trkpt lat="44.13376" lon="6.33854">
        <ele>917.4</ele>
        <time>2019-06-23T10:12:48.000Z</time>
      </trkpt>
      <trkpt lat="44.13377" lon="6.33851">
        <ele>917.8</ele>
        <time>2019-06-23T10:12:50.000Z</time>
      </trkpt>
      <trkpt lat="44.13378" lon="6.33849">
        <ele>918.4</ele>
        <time>2019-06-23T10:12:52.000Z</time>
      </trkpt>
      <trkpt lat="44.1338" lon="6.33845">
        <ele>919.6</ele>
        <time>2019-06-23T10:12:56.000Z</time>
      </trkpt>
      <trkpt lat="44.13382" lon="6.33841">
        <ele>920</ele>
        <time>2019-06-23T10:12:59.000Z</time>
      </trkpt>
      <trkpt lat="44.13384" lon="6.33839">
        <ele>920.6</ele>
        <time>2019-06-23T10:13:01.000Z</time>
      </trkpt>
      <trkpt lat="44.13386" lon="6.33837">
        <ele>921.4</ele>
        <time>2019-06-23T10:13:04.000Z</time>
      </trkpt>
      <trkpt lat="44.13387" lon="6.33836">
        <ele>921.8</ele>
        <time>2019-06-23T10:13:05.000Z</time>
      </trkpt>
      <trkpt lat="44.13388" lon="6.33836">
        <ele>922.2</ele>
        <time>2019-06-23T10:13:06.000Z</time>
      </trkpt>
      <trkpt lat="44.1339" lon="6.33834">
        <ele>922.4</ele>
        <time>2019-06-23T10:13:08.000Z</time>
      </trkpt>
      <trkpt lat="44.13394" lon="6.33832">
        <ele>922.8</ele>
        <time>2019-06-23T10:13:13.000Z</time>
      </trkpt>
      <trkpt lat="44.13395" lon="6.33831">
        <ele>923.4</ele>
        <time>2019-06-23T10:13:15.000Z</time>
      </trkpt>
      <trkpt lat="44.13396" lon="6.3383">
        <ele>923.6</ele>
        <time>2019-06-23T10:13:16.000Z</time>
      </trkpt>
      <trkpt lat="44.13397" lon="6.3383">
        <ele>924</ele>
        <time>2019-06-23T10:13:17.000Z</time>
      </trkpt>
      <trkpt lat="44.13398" lon="6.3383">
        <ele>925</ele>
        <time>2019-06-23T10:13:22.000Z</time>
      </trkpt>
      <trkpt lat="44.13398" lon="6.33831">
        <ele>925.2</ele>
        <time>2019-06-23T10:13:25.000Z</time>
      </trkpt>
      <trkpt lat="44.13398" lon="6.3383">
        <ele>925.4</ele>
        <time>2019-06-23T10:13:27.000Z</time>
      </trkpt>
      <trkpt lat="44.13399" lon="6.33827">
        <ele>925.6</ele>
        <time>2019-06-23T10:13:30.000Z</time>
      </trkpt>
      <trkpt lat="44.13401" lon="6.33825">
        <ele>926</ele>
        <time>2019-06-23T10:13:33.000Z</time>
      </trkpt>
      <trkpt lat="44.13403" lon="6.33821">
        <ele>927</ele>
        <time>2019-06-23T10:13:39.000Z</time>
      </trkpt>
      <trkpt lat="44.13405" lon="6.33818">
        <ele>927.2</ele>
        <time>2019-06-23T10:13:41.000Z</time>
      </trkpt>
      <trkpt lat="44.13409" lon="6.33812">
        <ele>927.8</ele>
        <time>2019-06-23T10:13:48.000Z</time>
      </trkpt>
      <trkpt lat="44.1341" lon="6.3381">
        <ele>928.2</ele>
        <time>2019-06-23T10:13:50.000Z</time>
      </trkpt>
      <trkpt lat="44.13412" lon="6.33807">
        <ele>928.8</ele>
        <time>2019-06-23T10:13:53.000Z</time>
      </trkpt>
      <trkpt lat="44.13412" lon="6.33806">
        <ele>929</ele>
        <time>2019-06-23T10:13:54.000Z</time>
      </trkpt>
      <trkpt lat="44.13413" lon="6.33804">
        <ele>929.4</ele>
        <time>2019-06-23T10:13:56.000Z</time>
      </trkpt>
      <trkpt lat="44.13414" lon="6.33803">
        <ele>929.8</ele>
        <time>2019-06-23T10:13:58.000Z</time>
      </trkpt>
      <trkpt lat="44.13416" lon="6.33799">
        <ele>930.4</ele>
        <time>2019-06-23T10:14:02.000Z</time>
      </trkpt>
      <trkpt lat="44.13418" lon="6.33797">
        <ele>931</ele>
        <time>2019-06-23T10:14:06.000Z</time>
      </trkpt>
      <trkpt lat="44.1342" lon="6.33794">
        <ele>931.4</ele>
        <time>2019-06-23T10:14:09.000Z</time>
      </trkpt>
      <trkpt lat="44.1342" lon="6.33794">
        <ele>931.4</ele>
        <time>2019-06-23T10:14:10.000Z</time>
      </trkpt>
      <trkpt lat="44.13422" lon="6.33793">
        <ele>932.4</ele>
        <time>2019-06-23T10:14:14.000Z</time>
      </trkpt>
      <trkpt lat="44.13422" lon="6.33792">
        <ele>932.6</ele>
        <time>2019-06-23T10:14:15.000Z</time>
      </trkpt>
      <trkpt lat="44.13424" lon="6.33789">
        <ele>932.8</ele>
        <time>2019-06-23T10:14:21.000Z</time>
      </trkpt>
      <trkpt lat="44.13425" lon="6.33787">
        <ele>933</ele>
        <time>2019-06-23T10:14:23.000Z</time>
      </trkpt>
      <trkpt lat="44.13425" lon="6.33786">
        <ele>933</ele>
        <time>2019-06-23T10:14:24.000Z</time>
      </trkpt>
      <trkpt lat="44.13426" lon="6.33785">
        <ele>933</ele>
        <time>2019-06-23T10:14:25.000Z</time>
      </trkpt>
      <trkpt lat="44.13426" lon="6.33784">
        <ele>933.2</ele>
        <time>2019-06-23T10:14:26.000Z</time>
      </trkpt>
      <trkpt lat="44.13426" lon="6.33783">
        <ele>933.2</ele>
        <time>2019-06-23T10:14:27.000Z</time>
      </trkpt>
      <trkpt lat="44.13427" lon="6.33782">
        <ele>933.4</ele>
        <time>2019-06-23T10:14:28.000Z</time>
      </trkpt>
      <trkpt lat="44.13427" lon="6.3378">
        <ele>933.4</ele>
        <time>2019-06-23T10:14:29.000Z</time>
      </trkpt>
      <trkpt lat="44.13428" lon="6.33779">
        <ele>933.6</ele>
        <time>2019-06-23T10:14:30.000Z</time>
      </trkpt>
      <trkpt lat="44.13428" lon="6.33776">
        <ele>934.2</ele>
        <time>2019-06-23T10:14:32.000Z</time>
      </trkpt>
      <trkpt lat="44.13429" lon="6.33772">
        <ele>934.6</ele>
        <time>2019-06-23T10:14:35.000Z</time>
      </trkpt>
      <trkpt lat="44.13431" lon="6.33762">
        <ele>935.8</ele>
        <time>2019-06-23T10:14:42.000Z</time>
      </trkpt>
      <trkpt lat="44.13431" lon="6.33761">
        <ele>936</ele>
        <time>2019-06-23T10:14:43.000Z</time>
      </trkpt>
      <trkpt lat="44.1343" lon="6.33752">
        <ele>936.8</ele>
        <time>2019-06-23T10:14:49.000Z</time>
      </trkpt>
      <trkpt lat="44.1343" lon="6.33749">
        <ele>937</ele>
        <time>2019-06-23T10:14:51.000Z</time>
      </trkpt>
      <trkpt lat="44.13429" lon="6.33748">
        <ele>937</ele>
        <time>2019-06-23T10:14:52.000Z</time>
      </trkpt>
      <trkpt lat="44.13427" lon="6.33739">
        <ele>937.8</ele>
        <time>2019-06-23T10:14:56.000Z</time>
      </trkpt>
      <trkpt lat="44.13427" lon="6.33736">
        <ele>938</ele>
        <time>2019-06-23T10:14:57.000Z</time>
      </trkpt>
      <trkpt lat="44.13426" lon="6.33728">
        <ele>938.2</ele>
        <time>2019-06-23T10:15:00.000Z</time>
      </trkpt>
      <trkpt lat="44.13425" lon="6.33716">
        <ele>938.6</ele>
        <time>2019-06-23T10:15:04.000Z</time>
      </trkpt>
      <trkpt lat="44.13424" lon="6.33709">
        <ele>939</ele>
        <time>2019-06-23T10:15:06.000Z</time>
      </trkpt>
      <trkpt lat="44.13422" lon="6.33691">
        <ele>939.2</ele>
        <time>2019-06-23T10:15:11.000Z</time>
      </trkpt>
      <trkpt lat="44.1342" lon="6.33688">
        <ele>939.2</ele>
        <time>2019-06-23T10:15:12.000Z</time>
      </trkpt>
      <trkpt lat="44.13413" lon="6.33683">
        <ele>939.4</ele>
        <time>2019-06-23T10:15:16.000Z</time>
      </trkpt>
      <trkpt lat="44.13411" lon="6.33685">
        <ele>939.6</ele>
        <time>2019-06-23T10:15:17.000Z</time>
      </trkpt>
      <trkpt lat="44.13407" lon="6.33687">
        <ele>939.8</ele>
        <time>2019-06-23T10:15:19.000Z</time>
      </trkpt>
      <trkpt lat="44.13406" lon="6.33687">
        <ele>940</ele>
        <time>2019-06-23T10:15:20.000Z</time>
      </trkpt>
      <trkpt lat="44.13403" lon="6.33687">
        <ele>940.4</ele>
        <time>2019-06-23T10:15:22.000Z</time>
      </trkpt>
      <trkpt lat="44.13396" lon="6.33687">
        <ele>941.2</ele>
        <time>2019-06-23T10:15:26.000Z</time>
      </trkpt>
      <trkpt lat="44.13389" lon="6.33687">
        <ele>941.6</ele>
        <time>2019-06-23T10:15:30.000Z</time>
      </trkpt>
      <trkpt lat="44.13377" lon="6.33687">
        <ele>942</ele>
        <time>2019-06-23T10:15:36.000Z</time>
      </trkpt>
      <trkpt lat="44.13374" lon="6.33687">
        <ele>942.2</ele>
        <time>2019-06-23T10:15:38.000Z</time>
      </trkpt>
      <trkpt lat="44.13368" lon="6.33687">
        <ele>942.6</ele>
        <time>2019-06-23T10:15:41.000Z</time>
      </trkpt>
      <trkpt lat="44.13364" lon="6.33687">
        <ele>943</ele>
        <time>2019-06-23T10:15:43.000Z</time>
      </trkpt>
      <trkpt lat="44.13362" lon="6.33687">
        <ele>943.2</ele>
        <time>2019-06-23T10:15:44.000Z</time>
      </trkpt>
      <trkpt lat="44.13354" lon="6.33686">
        <ele>944.4</ele>
        <time>2019-06-23T10:15:48.000Z</time>
      </trkpt>
      <trkpt lat="44.13347" lon="6.33686">
        <ele>945</ele>
        <time>2019-06-23T10:15:51.000Z</time>
      </trkpt>
      <trkpt lat="44.13345" lon="6.33686">
        <ele>945.2</ele>
        <time>2019-06-23T10:15:52.000Z</time>
      </trkpt>
      <trkpt lat="44.13343" lon="6.33686">
        <ele>945.2</ele>
        <time>2019-06-23T10:15:53.000Z</time>
      </trkpt>
      <trkpt lat="44.13339" lon="6.33686">
        <ele>945.6</ele>
        <time>2019-06-23T10:15:55.000Z</time>
      </trkpt>
      <trkpt lat="44.13331" lon="6.33685">
        <ele>946</ele>
        <time>2019-06-23T10:15:58.000Z</time>
      </trkpt>
      <trkpt lat="44.13327" lon="6.33684">
        <ele>946.4</ele>
        <time>2019-06-23T10:16:00.000Z</time>
      </trkpt>
      <trkpt lat="44.13324" lon="6.33683">
        <ele>946.4</ele>
        <time>2019-06-23T10:16:01.000Z</time>
      </trkpt>
      <trkpt lat="44.13322" lon="6.33683">
        <ele>946.6</ele>
        <time>2019-06-23T10:16:02.000Z</time>
      </trkpt>
      <trkpt lat="44.13319" lon="6.33683">
        <ele>946.6</ele>
        <time>2019-06-23T10:16:03.000Z</time>
      </trkpt>
      <trkpt lat="44.13308" lon="6.3368">
        <ele>947.4</ele>
        <time>2019-06-23T10:16:09.000Z</time>
      </trkpt>
      <trkpt lat="44.13308" lon="6.3368">
        <ele>947.4</ele>
        <time>2019-06-23T10:16:10.000Z</time>
      </trkpt>
      <trkpt lat="44.13307" lon="6.3368">
        <ele>947.6</ele>
        <time>2019-06-23T10:16:11.000Z</time>
      </trkpt>
      <trkpt lat="44.13307" lon="6.3368">
        <ele>947.8</ele>
        <time>2019-06-23T10:16:12.000Z</time>
      </trkpt>
      <trkpt lat="44.13303" lon="6.33679">
        <ele>947.6</ele>
        <time>2019-06-23T10:16:15.000Z</time>
      </trkpt>
      <trkpt lat="44.13295" lon="6.33678">
        <ele>948.4</ele>
        <time>2019-06-23T10:16:21.000Z</time>
      </trkpt>
      <trkpt lat="44.13292" lon="6.33679">
        <ele>948.6</ele>
        <time>2019-06-23T10:16:23.000Z</time>
      </trkpt>
      <trkpt lat="44.13283" lon="6.3368">
        <ele>949.2</ele>
        <time>2019-06-23T10:16:28.000Z</time>
      </trkpt>
      <trkpt lat="44.13279" lon="6.3368">
        <ele>949.4</ele>
        <time>2019-06-23T10:16:30.000Z</time>
      </trkpt>
      <trkpt lat="44.13267" lon="6.33685">
        <ele>949.2</ele>
        <time>2019-06-23T10:16:36.000Z</time>
      </trkpt>
      <trkpt lat="44.13258" lon="6.33688">
        <ele>949.8</ele>
        <time>2019-06-23T10:16:40.000Z</time>
      </trkpt>
      <trkpt lat="44.13251" lon="6.33689">
        <ele>950.6</ele>
        <time>2019-06-23T10:16:43.000Z</time>
      </trkpt>
      <trkpt lat="44.13249" lon="6.3369">
        <ele>951</ele>
        <time>2019-06-23T10:16:44.000Z</time>
      </trkpt>
      <trkpt lat="44.13246" lon="6.3369">
        <ele>951.4</ele>
        <time>2019-06-23T10:16:45.000Z</time>
      </trkpt>
      <trkpt lat="44.13239" lon="6.33693">
        <ele>952.2</ele>
        <time>2019-06-23T10:16:48.000Z</time>
      </trkpt>
      <trkpt lat="44.13232" lon="6.33696">
        <ele>953</ele>
        <time>2019-06-23T10:16:51.000Z</time>
      </trkpt>
      <trkpt lat="44.13229" lon="6.33697">
        <ele>953.2</ele>
        <time>2019-06-23T10:16:52.000Z</time>
      </trkpt>
      <trkpt lat="44.13224" lon="6.33698">
        <ele>953.6</ele>
        <time>2019-06-23T10:16:54.000Z</time>
      </trkpt>
      <trkpt lat="44.13215" lon="6.337">
        <ele>954.4</ele>
        <time>2019-06-23T10:16:58.000Z</time>
      </trkpt>
      <trkpt lat="44.13207" lon="6.337">
        <ele>954.8</ele>
        <time>2019-06-23T10:17:01.000Z</time>
      </trkpt>
      <trkpt lat="44.13202" lon="6.33699">
        <ele>955.2</ele>
        <time>2019-06-23T10:17:03.000Z</time>
      </trkpt>
      <trkpt lat="44.13197" lon="6.33697">
        <ele>955.4</ele>
        <time>2019-06-23T10:17:05.000Z</time>
      </trkpt>
      <trkpt lat="44.13188" lon="6.33691">
        <ele>956</ele>
        <time>2019-06-23T10:17:09.000Z</time>
      </trkpt>
      <trkpt lat="44.13185" lon="6.3369">
        <ele>956</ele>
        <time>2019-06-23T10:17:10.000Z</time>
      </trkpt>
      <trkpt lat="44.13183" lon="6.33688">
        <ele>956.2</ele>
        <time>2019-06-23T10:17:11.000Z</time>
      </trkpt>
      <trkpt lat="44.13181" lon="6.33688">
        <ele>956.2</ele>
        <time>2019-06-23T10:17:12.000Z</time>
      </trkpt>
      <trkpt lat="44.13178" lon="6.33686">
        <ele>956.4</ele>
        <time>2019-06-23T10:17:13.000Z</time>
      </trkpt>
      <trkpt lat="44.13169" lon="6.3368">
        <ele>957</ele>
        <time>2019-06-23T10:17:17.000Z</time>
      </trkpt>
      <trkpt lat="44.13165" lon="6.33677">
        <ele>957.4</ele>
        <time>2019-06-23T10:17:19.000Z</time>
      </trkpt>
      <trkpt lat="44.13163" lon="6.33675">
        <ele>957.4</ele>
        <time>2019-06-23T10:17:20.000Z</time>
      </trkpt>
      <trkpt lat="44.13152" lon="6.33665">
        <ele>958.4</ele>
        <time>2019-06-23T10:17:25.000Z</time>
      </trkpt>
      <trkpt lat="44.13148" lon="6.33661">
        <ele>958.6</ele>
        <time>2019-06-23T10:17:27.000Z</time>
      </trkpt>
      <trkpt lat="44.13146" lon="6.3366">
        <ele>959</ele>
        <time>2019-06-23T10:17:28.000Z</time>
      </trkpt>
      <trkpt lat="44.13144" lon="6.33658">
        <ele>959.4</ele>
        <time>2019-06-23T10:17:29.000Z</time>
      </trkpt>
      <trkpt lat="44.13142" lon="6.33656">
        <ele>959.8</ele>
        <time>2019-06-23T10:17:30.000Z</time>
      </trkpt>
      <trkpt lat="44.1314" lon="6.33654">
        <ele>960</ele>
        <time>2019-06-23T10:17:31.000Z</time>
      </trkpt>
      <trkpt lat="44.13132" lon="6.33646">
        <ele>960.6</ele>
        <time>2019-06-23T10:17:35.000Z</time>
      </trkpt>
      <trkpt lat="44.1313" lon="6.33645">
        <ele>961</ele>
        <time>2019-06-23T10:17:36.000Z</time>
      </trkpt>
      <trkpt lat="44.13126" lon="6.33642">
        <ele>961.4</ele>
        <time>2019-06-23T10:17:38.000Z</time>
      </trkpt>
      <trkpt lat="44.13121" lon="6.3364">
        <ele>961.6</ele>
        <time>2019-06-23T10:17:40.000Z</time>
      </trkpt>
      <trkpt lat="44.13114" lon="6.33639">
        <ele>962</ele>
        <time>2019-06-23T10:17:43.000Z</time>
      </trkpt>
      <trkpt lat="44.13109" lon="6.33639">
        <ele>962.2</ele>
        <time>2019-06-23T10:17:45.000Z</time>
      </trkpt>
      <trkpt lat="44.13092" lon="6.33647">
        <ele>962.4</ele>
        <time>2019-06-23T10:17:50.000Z</time>
      </trkpt>
      <trkpt lat="44.13088" lon="6.33649">
        <ele>962.4</ele>
        <time>2019-06-23T10:17:51.000Z</time>
      </trkpt>
      <trkpt lat="44.13074" lon="6.33646">
        <ele>962.2</ele>
        <time>2019-06-23T10:17:55.000Z</time>
      </trkpt>
      <trkpt lat="44.13071" lon="6.33644">
        <ele>962.2</ele>
        <time>2019-06-23T10:17:56.000Z</time>
      </trkpt>
      <trkpt lat="44.13063" lon="6.33637">
        <ele>962.6</ele>
        <time>2019-06-23T10:17:59.000Z</time>
      </trkpt>
      <trkpt lat="44.13056" lon="6.33628">
        <ele>963</ele>
        <time>2019-06-23T10:18:02.000Z</time>
      </trkpt>
      <trkpt lat="44.13054" lon="6.33625">
        <ele>963.4</ele>
        <time>2019-06-23T10:18:03.000Z</time>
      </trkpt>
      <trkpt lat="44.13049" lon="6.33619">
        <ele>964.4</ele>
        <time>2019-06-23T10:18:06.000Z</time>
      </trkpt>
      <trkpt lat="44.13042" lon="6.33613">
        <ele>965.2</ele>
        <time>2019-06-23T10:18:09.000Z</time>
      </trkpt>
      <trkpt lat="44.1304" lon="6.33611">
        <ele>965.4</ele>
        <time>2019-06-23T10:18:10.000Z</time>
      </trkpt>
      <trkpt lat="44.13034" lon="6.33606">
        <ele>966.4</ele>
        <time>2019-06-23T10:18:13.000Z</time>
      </trkpt>
      <trkpt lat="44.13027" lon="6.33604">
        <ele>967.2</ele>
        <time>2019-06-23T10:18:16.000Z</time>
      </trkpt>
      <trkpt lat="44.13025" lon="6.33604">
        <ele>967.4</ele>
        <time>2019-06-23T10:18:17.000Z</time>
      </trkpt>
      <trkpt lat="44.13022" lon="6.33605">
        <ele>967.8</ele>
        <time>2019-06-23T10:18:18.000Z</time>
      </trkpt>
      <trkpt lat="44.1302" lon="6.33605">
        <ele>968</ele>
        <time>2019-06-23T10:18:19.000Z</time>
      </trkpt>
      <trkpt lat="44.13016" lon="6.33606">
        <ele>968.4</ele>
        <time>2019-06-23T10:18:21.000Z</time>
      </trkpt>
      <trkpt lat="44.13014" lon="6.33605">
        <ele>968.6</ele>
        <time>2019-06-23T10:18:22.000Z</time>
      </trkpt>
      <trkpt lat="44.13004" lon="6.33605">
        <ele>968.8</ele>
        <time>2019-06-23T10:18:26.000Z</time>
      </trkpt>
      <trkpt lat="44.12995" lon="6.33604">
        <ele>968.4</ele>
        <time>2019-06-23T10:18:29.000Z</time>
      </trkpt>
      <trkpt lat="44.12975" lon="6.33605">
        <ele>967.6</ele>
        <time>2019-06-23T10:18:35.000Z</time>
      </trkpt>
      <trkpt lat="44.12966" lon="6.33608">
        <ele>967.6</ele>
        <time>2019-06-23T10:18:38.000Z</time>
      </trkpt>
      <trkpt lat="44.1296" lon="6.33615">
        <ele>968</ele>
        <time>2019-06-23T10:18:41.000Z</time>
      </trkpt>
      <trkpt lat="44.12952" lon="6.33629">
        <ele>968.2</ele>
        <time>2019-06-23T10:18:46.000Z</time>
      </trkpt>
      <trkpt lat="44.12949" lon="6.33632">
        <ele>968.2</ele>
        <time>2019-06-23T10:18:47.000Z</time>
      </trkpt>
      <trkpt lat="44.12934" lon="6.33651">
        <ele>968.2</ele>
        <time>2019-06-23T10:18:54.000Z</time>
      </trkpt>
      <trkpt lat="44.12929" lon="6.33657">
        <ele>968.2</ele>
        <time>2019-06-23T10:18:56.000Z</time>
      </trkpt>
      <trkpt lat="44.12925" lon="6.33657">
        <ele>968.2</ele>
        <time>2019-06-23T10:18:57.000Z</time>
      </trkpt>
      <trkpt lat="44.12916" lon="6.33646">
        <ele>968.4</ele>
        <time>2019-06-23T10:19:01.000Z</time>
      </trkpt>
      <trkpt lat="44.12914" lon="6.33643">
        <ele>968.6</ele>
        <time>2019-06-23T10:19:02.000Z</time>
      </trkpt>
      <trkpt lat="44.12906" lon="6.33634">
        <ele>969</ele>
        <time>2019-06-23T10:19:05.000Z</time>
      </trkpt>
      <trkpt lat="44.12899" lon="6.33628">
        <ele>969.2</ele>
        <time>2019-06-23T10:19:07.000Z</time>
      </trkpt>
      <trkpt lat="44.12885" lon="6.33626">
        <ele>968.8</ele>
        <time>2019-06-23T10:19:10.000Z</time>
      </trkpt>
      <trkpt lat="44.1288" lon="6.33629">
        <ele>968.8</ele>
        <time>2019-06-23T10:19:11.000Z</time>
      </trkpt>
      <trkpt lat="44.12874" lon="6.33632">
        <ele>968.6</ele>
        <time>2019-06-23T10:19:12.000Z</time>
      </trkpt>
      <trkpt lat="44.12856" lon="6.3365">
        <ele>967.4</ele>
        <time>2019-06-23T10:19:15.000Z</time>
      </trkpt>
      <trkpt lat="44.12843" lon="6.33664">
        <ele>965.6</ele>
        <time>2019-06-23T10:19:17.000Z</time>
      </trkpt>
      <trkpt lat="44.12827" lon="6.33677">
        <ele>963.8</ele>
        <time>2019-06-23T10:19:19.000Z</time>
      </trkpt>
      <trkpt lat="44.12818" lon="6.33684">
        <ele>962.6</ele>
        <time>2019-06-23T10:19:20.000Z</time>
      </trkpt>
      <trkpt lat="44.12809" lon="6.33691">
        <ele>961.4</ele>
        <time>2019-06-23T10:19:21.000Z</time>
      </trkpt>
      <trkpt lat="44.12799" lon="6.33698">
        <ele>960.2</ele>
        <time>2019-06-23T10:19:22.000Z</time>
      </trkpt>
      <trkpt lat="44.12789" lon="6.33704">
        <ele>959.2</ele>
        <time>2019-06-23T10:19:23.000Z</time>
      </trkpt>
      <trkpt lat="44.12779" lon="6.3371">
        <ele>958.2</ele>
        <time>2019-06-23T10:19:24.000Z</time>
      </trkpt>
      <trkpt lat="44.12769" lon="6.33714">
        <ele>957.4</ele>
        <time>2019-06-23T10:19:25.000Z</time>
      </trkpt>
      <trkpt lat="44.12758" lon="6.33717">
        <ele>956.2</ele>
        <time>2019-06-23T10:19:26.000Z</time>
      </trkpt>
      <trkpt lat="44.12747" lon="6.33719">
        <ele>954.6</ele>
        <time>2019-06-23T10:19:27.000Z</time>
      </trkpt>
      <trkpt lat="44.12738" lon="6.33721">
        <ele>952.8</ele>
        <time>2019-06-23T10:19:28.000Z</time>
      </trkpt>
      <trkpt lat="44.1273" lon="6.33724">
        <ele>950.8</ele>
        <time>2019-06-23T10:19:29.000Z</time>
      </trkpt>
      <trkpt lat="44.12723" lon="6.33727">
        <ele>949</ele>
        <time>2019-06-23T10:19:30.000Z</time>
      </trkpt>
      <trkpt lat="44.12718" lon="6.33731">
        <ele>947.6</ele>
        <time>2019-06-23T10:19:31.000Z</time>
      </trkpt>
      <trkpt lat="44.12713" lon="6.33735">
        <ele>946.2</ele>
        <time>2019-06-23T10:19:32.000Z</time>
      </trkpt>
      <trkpt lat="44.12709" lon="6.33739">
        <ele>944.8</ele>
        <time>2019-06-23T10:19:33.000Z</time>
      </trkpt>
      <trkpt lat="44.12705" lon="6.33741">
        <ele>943.8</ele>
        <time>2019-06-23T10:19:34.000Z</time>
      </trkpt>
      <trkpt lat="44.12699" lon="6.33741">
        <ele>942.2</ele>
        <time>2019-06-23T10:19:36.000Z</time>
      </trkpt>
      <trkpt lat="44.12697" lon="6.33739">
        <ele>941.8</ele>
        <time>2019-06-23T10:19:37.000Z</time>
      </trkpt>
      <trkpt lat="44.12696" lon="6.33737">
        <ele>941.6</ele>
        <time>2019-06-23T10:19:38.000Z</time>
      </trkpt>
      <trkpt lat="44.12697" lon="6.3373">
        <ele>941.8</ele>
        <time>2019-06-23T10:19:40.000Z</time>
      </trkpt>
      <trkpt lat="44.12698" lon="6.33719">
        <ele>943.2</ele>
        <time>2019-06-23T10:19:44.000Z</time>
      </trkpt>
      <trkpt lat="44.12698" lon="6.33716">
        <ele>943.6</ele>
        <time>2019-06-23T10:19:45.000Z</time>
      </trkpt>
      <trkpt lat="44.12698" lon="6.33706">
        <ele>944.6</ele>
        <time>2019-06-23T10:19:48.000Z</time>
      </trkpt>
      <trkpt lat="44.12698" lon="6.33697">
        <ele>945.4</ele>
        <time>2019-06-23T10:19:50.000Z</time>
      </trkpt>
      <trkpt lat="44.12696" lon="6.33692">
        <ele>945.6</ele>
        <time>2019-06-23T10:19:51.000Z</time>
      </trkpt>
      <trkpt lat="44.12694" lon="6.33688">
        <ele>945.8</ele>
        <time>2019-06-23T10:19:52.000Z</time>
      </trkpt>
      <trkpt lat="44.12689" lon="6.33676">
        <ele>946</ele>
        <time>2019-06-23T10:19:55.000Z</time>
      </trkpt>
      <trkpt lat="44.1268" lon="6.33662">
        <ele>946.2</ele>
        <time>2019-06-23T10:19:59.000Z</time>
      </trkpt>
      <trkpt lat="44.12676" lon="6.3366">
        <ele>946.8</ele>
        <time>2019-06-23T10:20:01.000Z</time>
      </trkpt>
      <trkpt lat="44.12671" lon="6.33656">
        <ele>947.6</ele>
        <time>2019-06-23T10:20:04.000Z</time>
      </trkpt>
      <trkpt lat="44.12669" lon="6.33655">
        <ele>947.8</ele>
        <time>2019-06-23T10:20:05.000Z</time>
      </trkpt>
      <trkpt lat="44.12661" lon="6.33648">
        <ele>948.8</ele>
        <time>2019-06-23T10:20:09.000Z</time>
      </trkpt>
      <trkpt lat="44.12659" lon="6.33647">
        <ele>949</ele>
        <time>2019-06-23T10:20:10.000Z</time>
      </trkpt>
      <trkpt lat="44.12653" lon="6.33643">
        <ele>949.8</ele>
        <time>2019-06-23T10:20:14.000Z</time>
      </trkpt>
      <trkpt lat="44.12652" lon="6.33641">
        <ele>950</ele>
        <time>2019-06-23T10:20:15.000Z</time>
      </trkpt>
      <trkpt lat="44.12651" lon="6.33639">
        <ele>950.2</ele>
        <time>2019-06-23T10:20:16.000Z</time>
      </trkpt>
      <trkpt lat="44.12648" lon="6.33634">
        <ele>951.2</ele>
        <time>2019-06-23T10:20:19.000Z</time>
      </trkpt>
      <trkpt lat="44.12645" lon="6.3363">
        <ele>951.8</ele>
        <time>2019-06-23T10:20:21.000Z</time>
      </trkpt>
      <trkpt lat="44.12642" lon="6.33626">
        <ele>952.2</ele>
        <time>2019-06-23T10:20:23.000Z</time>
      </trkpt>
      <trkpt lat="44.12635" lon="6.33618">
        <ele>952.6</ele>
        <time>2019-06-23T10:20:27.000Z</time>
      </trkpt>
      <trkpt lat="44.12633" lon="6.33615">
        <ele>952.6</ele>
        <time>2019-06-23T10:20:28.000Z</time>
      </trkpt>
      <trkpt lat="44.12631" lon="6.33614">
        <ele>952.8</ele>
        <time>2019-06-23T10:20:29.000Z</time>
      </trkpt>
      <trkpt lat="44.12627" lon="6.3361">
        <ele>953.4</ele>
        <time>2019-06-23T10:20:31.000Z</time>
      </trkpt>
      <trkpt lat="44.12622" lon="6.33605">
        <ele>953.6</ele>
        <time>2019-06-23T10:20:33.000Z</time>
      </trkpt>
      <trkpt lat="44.12615" lon="6.33599">
        <ele>953.6</ele>
        <time>2019-06-23T10:20:35.000Z</time>
      </trkpt>
      <trkpt lat="44.126" lon="6.33589">
        <ele>953.4</ele>
        <time>2019-06-23T10:20:39.000Z</time>
      </trkpt>
      <trkpt lat="44.12589" lon="6.33584">
        <ele>953</ele>
        <time>2019-06-23T10:20:42.000Z</time>
      </trkpt>
      <trkpt lat="44.12566" lon="6.33575">
        <ele>952.6</ele>
        <time>2019-06-23T10:20:47.000Z</time>
      </trkpt>
      <trkpt lat="44.12556" lon="6.33572">
        <ele>952.2</ele>
        <time>2019-06-23T10:20:49.000Z</time>
      </trkpt>
      <trkpt lat="44.12542" lon="6.33569">
        <ele>951.8</ele>
        <time>2019-06-23T10:20:52.000Z</time>
      </trkpt>
      <trkpt lat="44.12535" lon="6.33568">
        <ele>951.6</ele>
        <time>2019-06-23T10:20:54.000Z</time>
      </trkpt>
      <trkpt lat="44.12531" lon="6.3357">
        <ele>951.6</ele>
        <time>2019-06-23T10:20:55.000Z</time>
      </trkpt>
      <trkpt lat="44.12527" lon="6.33572">
        <ele>951.2</ele>
        <time>2019-06-23T10:20:56.000Z</time>
      </trkpt>
      <trkpt lat="44.12524" lon="6.33572">
        <ele>951</ele>
        <time>2019-06-23T10:20:57.000Z</time>
      </trkpt>
      <trkpt lat="44.1252" lon="6.33569">
        <ele>950.8</ele>
        <time>2019-06-23T10:20:59.000Z</time>
      </trkpt>
      <trkpt lat="44.12509" lon="6.33555">
        <ele>951.6</ele>
        <time>2019-06-23T10:21:04.000Z</time>
      </trkpt>
      <trkpt lat="44.12503" lon="6.33548">
        <ele>951.8</ele>
        <time>2019-06-23T10:21:07.000Z</time>
      </trkpt>
      <trkpt lat="44.12498" lon="6.33539">
        <ele>952</ele>
        <time>2019-06-23T10:21:10.000Z</time>
      </trkpt>
      <trkpt lat="44.12495" lon="6.33536">
        <ele>952.2</ele>
        <time>2019-06-23T10:21:11.000Z</time>
      </trkpt>
      <trkpt lat="44.12493" lon="6.33533">
        <ele>952.4</ele>
        <time>2019-06-23T10:21:12.000Z</time>
      </trkpt>
      <trkpt lat="44.12486" lon="6.33524">
        <ele>952.8</ele>
        <time>2019-06-23T10:21:15.000Z</time>
      </trkpt>
      <trkpt lat="44.12484" lon="6.33521">
        <ele>952.8</ele>
        <time>2019-06-23T10:21:16.000Z</time>
      </trkpt>
      <trkpt lat="44.12481" lon="6.33519">
        <ele>953</ele>
        <time>2019-06-23T10:21:17.000Z</time>
      </trkpt>
      <trkpt lat="44.12479" lon="6.33515">
        <ele>953.2</ele>
        <time>2019-06-23T10:21:18.000Z</time>
      </trkpt>
      <trkpt lat="44.12469" lon="6.335">
        <ele>953.8</ele>
        <time>2019-06-23T10:21:22.000Z</time>
      </trkpt>
      <trkpt lat="44.12465" lon="6.33491">
        <ele>954.4</ele>
        <time>2019-06-23T10:21:24.000Z</time>
      </trkpt>
      <trkpt lat="44.12464" lon="6.33487">
        <ele>954.6</ele>
        <time>2019-06-23T10:21:25.000Z</time>
      </trkpt>
      <trkpt lat="44.12462" lon="6.33484">
        <ele>954.8</ele>
        <time>2019-06-23T10:21:26.000Z</time>
      </trkpt>
      <trkpt lat="44.12459" lon="6.33475">
        <ele>955.6</ele>
        <time>2019-06-23T10:21:28.000Z</time>
      </trkpt>
      <trkpt lat="44.12458" lon="6.3347">
        <ele>955.8</ele>
        <time>2019-06-23T10:21:29.000Z</time>
      </trkpt>
      <trkpt lat="44.12453" lon="6.33458">
        <ele>956.8</ele>
        <time>2019-06-23T10:21:32.000Z</time>
      </trkpt>
      <trkpt lat="44.1245" lon="6.33451">
        <ele>957.6</ele>
        <time>2019-06-23T10:21:34.000Z</time>
      </trkpt>
      <trkpt lat="44.12449" lon="6.33448">
        <ele>958</ele>
        <time>2019-06-23T10:21:35.000Z</time>
      </trkpt>
      <trkpt lat="44.12444" lon="6.33439">
        <ele>959.2</ele>
        <time>2019-06-23T10:21:38.000Z</time>
      </trkpt>
      <trkpt lat="44.12439" lon="6.33435">
        <ele>959.6</ele>
        <time>2019-06-23T10:21:40.000Z</time>
      </trkpt>
      <trkpt lat="44.12437" lon="6.33435">
        <ele>959.8</ele>
        <time>2019-06-23T10:21:41.000Z</time>
      </trkpt>
      <trkpt lat="44.12424" lon="6.33427">
        <ele>959.6</ele>
        <time>2019-06-23T10:21:46.000Z</time>
      </trkpt>
      <trkpt lat="44.12402" lon="6.33418">
        <ele>958</ele>
        <time>2019-06-23T10:21:51.000Z</time>
      </trkpt>
      <trkpt lat="44.12375" lon="6.33403">
        <ele>957.4</ele>
        <time>2019-06-23T10:21:57.000Z</time>
      </trkpt>
      <trkpt lat="44.12367" lon="6.33399">
        <ele>957.4</ele>
        <time>2019-06-23T10:22:01.000Z</time>
        <extensions>
          <visugpx:TrkExtension xmlns:visugpx="https://www.visugpx.com/editgpx/">
            <visugpx:node>5</visugpx:node>
            </visugpx:TrkExtension>
        </extensions>
      </trkpt>
      <trkpt lat="44.12366" lon="6.33401">
        <ele>954.2</ele>
      </trkpt>
      <trkpt lat="44.12348" lon="6.33406">
        <ele>955.6</ele>
      </trkpt>
      <trkpt lat="44.12318" lon="6.3342">
        <ele>963.2</ele>
      </trkpt>
      <trkpt lat="44.12288" lon="6.33427">
        <ele>964.9</ele>
      </trkpt>
      <trkpt lat="44.1226" lon="6.33432">
        <ele>963.6</ele>
        <extensions>
          <visugpx:TrkExtension xmlns:visugpx="https://www.visugpx.com/editgpx/">
            <visugpx:node>6</visugpx:node>
            </visugpx:TrkExtension>
        </extensions>
      </trkpt>
      <trkpt lat="44.12253" lon="6.33434">
        <ele>963.6</ele>
      </trkpt>
      <trkpt lat="44.12266" lon="6.33439">
        <ele>965</ele>
      </trkpt>
      <trkpt lat="44.12274" lon="6.3344">
        <ele>965.5</ele>
        <extensions>
          <visugpx:TrkExtension xmlns:visugpx="https://www.visugpx.com/editgpx/">
            <visugpx:node>7</visugpx:node>
            </visugpx:TrkExtension>
        </extensions>
      </trkpt>
      <trkpt lat="44.12276" lon="6.33434">
        <ele>959.6</ele>
        <time>2019-06-23T10:24:39.000Z</time>
      </trkpt>
      <trkpt lat="44.1228" lon="6.33435">
        <ele>960.2</ele>
        <time>2019-06-23T10:24:41.000Z</time>
      </trkpt>
      <trkpt lat="44.12282" lon="6.33436">
        <ele>960.4</ele>
        <time>2019-06-23T10:24:42.000Z</time>
      </trkpt>
      <trkpt lat="44.12284" lon="6.33437">
        <ele>960.8</ele>
        <time>2019-06-23T10:24:43.000Z</time>
      </trkpt>
      <trkpt lat="44.12286" lon="6.33438">
        <ele>961.2</ele>
        <time>2019-06-23T10:24:44.000Z</time>
      </trkpt>
      <trkpt lat="44.12289" lon="6.33441">
        <ele>962</ele>
        <time>2019-06-23T10:24:46.000Z</time>
      </trkpt>
      <trkpt lat="44.12293" lon="6.33444">
        <ele>962.4</ele>
        <time>2019-06-23T10:24:48.000Z</time>
      </trkpt>
      <trkpt lat="44.12295" lon="6.33448">
        <ele>962.8</ele>
        <time>2019-06-23T10:24:50.000Z</time>
      </trkpt>
      <trkpt lat="44.12298" lon="6.33452">
        <ele>963.2</ele>
        <time>2019-06-23T10:24:52.000Z</time>
      </trkpt>
      <trkpt lat="44.12299" lon="6.33455">
        <ele>963.6</ele>
        <time>2019-06-23T10:24:53.000Z</time>
      </trkpt>
      <trkpt lat="44.12302" lon="6.33466">
        <ele>964.6</ele>
        <time>2019-06-23T10:24:58.000Z</time>
      </trkpt>
      <trkpt lat="44.12302" lon="6.33468">
        <ele>964.8</ele>
        <time>2019-06-23T10:24:59.000Z</time>
      </trkpt>
      <trkpt lat="44.12303" lon="6.33472">
        <ele>965.4</ele>
        <time>2019-06-23T10:25:01.000Z</time>
      </trkpt>
      <trkpt lat="44.12302" lon="6.33474">
        <ele>965.8</ele>
        <time>2019-06-23T10:25:02.000Z</time>
      </trkpt>
      <trkpt lat="44.12302" lon="6.3348">
        <ele>966.4</ele>
        <time>2019-06-23T10:25:05.000Z</time>
      </trkpt>
      <trkpt lat="44.12302" lon="6.33482">
        <ele>966.8</ele>
        <time>2019-06-23T10:25:06.000Z</time>
      </trkpt>
      <trkpt lat="44.12303" lon="6.33484">
        <ele>967</ele>
        <time>2019-06-23T10:25:07.000Z</time>
      </trkpt>
      <trkpt lat="44.12304" lon="6.33489">
        <ele>967.2</ele>
        <time>2019-06-23T10:25:09.000Z</time>
      </trkpt>
      <trkpt lat="44.12305" lon="6.33493">
        <ele>967.8</ele>
        <time>2019-06-23T10:25:11.000Z</time>
      </trkpt>
      <trkpt lat="44.12306" lon="6.33495">
        <ele>968</ele>
        <time>2019-06-23T10:25:12.000Z</time>
      </trkpt>
      <trkpt lat="44.12307" lon="6.33496">
        <ele>968.2</ele>
        <time>2019-06-23T10:25:13.000Z</time>
      </trkpt>
      <trkpt lat="44.12319" lon="6.33509">
        <ele>969.2</ele>
        <time>2019-06-23T10:25:19.000Z</time>
      </trkpt>
      <trkpt lat="44.12331" lon="6.33519">
        <ele>969.2</ele>
        <time>2019-06-23T10:25:24.000Z</time>
      </trkpt>
      <trkpt lat="44.12336" lon="6.33524">
        <ele>969.4</ele>
        <time>2019-06-23T10:25:26.000Z</time>
      </trkpt>
      <trkpt lat="44.12339" lon="6.33526">
        <ele>969.6</ele>
        <time>2019-06-23T10:25:27.000Z</time>
      </trkpt>
      <trkpt lat="44.12341" lon="6.33528">
        <ele>970</ele>
        <time>2019-06-23T10:25:28.000Z</time>
      </trkpt>
      <trkpt lat="44.12347" lon="6.33538">
        <ele>970.4</ele>
        <time>2019-06-23T10:25:31.000Z</time>
      </trkpt>
      <trkpt lat="44.12351" lon="6.33544">
        <ele>970.8</ele>
        <time>2019-06-23T10:25:33.000Z</time>
      </trkpt>
      <trkpt lat="44.12356" lon="6.33552">
        <ele>971.6</ele>
        <time>2019-06-23T10:25:36.000Z</time>
      </trkpt>
      <trkpt lat="44.12363" lon="6.33559">
        <ele>972.6</ele>
        <time>2019-06-23T10:25:40.000Z</time>
      </trkpt>
      <trkpt lat="44.12368" lon="6.33565">
        <ele>973.2</ele>
        <time>2019-06-23T10:25:43.000Z</time>
      </trkpt>
      <trkpt lat="44.12372" lon="6.33568">
        <ele>973.8</ele>
        <time>2019-06-23T10:25:45.000Z</time>
      </trkpt>
      <trkpt lat="44.12376" lon="6.33572">
        <ele>974.4</ele>
        <time>2019-06-23T10:25:47.000Z</time>
      </trkpt>
      <trkpt lat="44.12379" lon="6.33576">
        <ele>975</ele>
        <time>2019-06-23T10:25:49.000Z</time>
      </trkpt>
      <trkpt lat="44.12384" lon="6.33582">
        <ele>975.6</ele>
        <time>2019-06-23T10:25:52.000Z</time>
      </trkpt>
      <trkpt lat="44.12387" lon="6.33586">
        <ele>975.8</ele>
        <time>2019-06-23T10:25:54.000Z</time>
      </trkpt>
      <trkpt lat="44.12388" lon="6.33588">
        <ele>976.2</ele>
        <time>2019-06-23T10:25:55.000Z</time>
      </trkpt>
      <trkpt lat="44.12396" lon="6.33598">
        <ele>976.8</ele>
        <time>2019-06-23T10:26:00.000Z</time>
      </trkpt>
      <trkpt lat="44.12397" lon="6.336">
        <ele>977</ele>
        <time>2019-06-23T10:26:01.000Z</time>
      </trkpt>
      <trkpt lat="44.12399" lon="6.33602">
        <ele>977.2</ele>
        <time>2019-06-23T10:26:02.000Z</time>
      </trkpt>
      <trkpt lat="44.12401" lon="6.33604">
        <ele>977.4</ele>
        <time>2019-06-23T10:26:03.000Z</time>
      </trkpt>
      <trkpt lat="44.12407" lon="6.33611">
        <ele>978.2</ele>
        <time>2019-06-23T10:26:07.000Z</time>
      </trkpt>
      <trkpt lat="44.12412" lon="6.33617">
        <ele>979.2</ele>
        <time>2019-06-23T10:26:10.000Z</time>
      </trkpt>
      <trkpt lat="44.12413" lon="6.3362">
        <ele>979.2</ele>
        <time>2019-06-23T10:26:11.000Z</time>
      </trkpt>
      <trkpt lat="44.12416" lon="6.33623">
        <ele>979.6</ele>
        <time>2019-06-23T10:26:13.000Z</time>
      </trkpt>
      <trkpt lat="44.1242" lon="6.33626">
        <ele>980</ele>
        <time>2019-06-23T10:26:15.000Z</time>
      </trkpt>
      <trkpt lat="44.12423" lon="6.3363">
        <ele>980.6</ele>
        <time>2019-06-23T10:26:17.000Z</time>
      </trkpt>
      <trkpt lat="44.12429" lon="6.33637">
        <ele>981.6</ele>
        <time>2019-06-23T10:26:21.000Z</time>
      </trkpt>
      <trkpt lat="44.12433" lon="6.33643">
        <ele>982.6</ele>
        <time>2019-06-23T10:26:24.000Z</time>
      </trkpt>
      <trkpt lat="44.12436" lon="6.33646">
        <ele>983.2</ele>
        <time>2019-06-23T10:26:26.000Z</time>
      </trkpt>
      <trkpt lat="44.12439" lon="6.3365">
        <ele>983.8</ele>
        <time>2019-06-23T10:26:28.000Z</time>
      </trkpt>
      <trkpt lat="44.12445" lon="6.33659">
        <ele>984.8</ele>
        <time>2019-06-23T10:26:32.000Z</time>
      </trkpt>
      <trkpt lat="44.12448" lon="6.33663">
        <ele>985.2</ele>
        <time>2019-06-23T10:26:34.000Z</time>
      </trkpt>
      <trkpt lat="44.1245" lon="6.33665">
        <ele>985.4</ele>
        <time>2019-06-23T10:26:35.000Z</time>
      </trkpt>
      <trkpt lat="44.12456" lon="6.33672">
        <ele>985.8</ele>
        <time>2019-06-23T10:26:38.000Z</time>
      </trkpt>
      <trkpt lat="44.12463" lon="6.3368">
        <ele>987</ele>
        <time>2019-06-23T10:26:42.000Z</time>
      </trkpt>
      <trkpt lat="44.12467" lon="6.33684">
        <ele>987.8</ele>
        <time>2019-06-23T10:26:44.000Z</time>
      </trkpt>
      <trkpt lat="44.12469" lon="6.33686">
        <ele>988</ele>
        <time>2019-06-23T10:26:45.000Z</time>
      </trkpt>
      <trkpt lat="44.12474" lon="6.33697">
        <ele>989.2</ele>
        <time>2019-06-23T10:26:49.000Z</time>
      </trkpt>
      <trkpt lat="44.12476" lon="6.33703">
        <ele>989.8</ele>
        <time>2019-06-23T10:26:51.000Z</time>
      </trkpt>
      <trkpt lat="44.12476" lon="6.33709">
        <ele>990.4</ele>
        <time>2019-06-23T10:26:53.000Z</time>
      </trkpt>
      <trkpt lat="44.12474" lon="6.33721">
        <ele>991.6</ele>
        <time>2019-06-23T10:26:57.000Z</time>
      </trkpt>
      <trkpt lat="44.12473" lon="6.33723">
        <ele>991.6</ele>
        <time>2019-06-23T10:26:58.000Z</time>
      </trkpt>
      <trkpt lat="44.12471" lon="6.33725">
        <ele>991.8</ele>
        <time>2019-06-23T10:26:59.000Z</time>
      </trkpt>
      <trkpt lat="44.12465" lon="6.33729">
        <ele>992.6</ele>
        <time>2019-06-23T10:27:02.000Z</time>
      </trkpt>
      <trkpt lat="44.12458" lon="6.33733">
        <ele>993.2</ele>
        <time>2019-06-23T10:27:05.000Z</time>
      </trkpt>
      <trkpt lat="44.12454" lon="6.33735">
        <ele>993.6</ele>
        <time>2019-06-23T10:27:07.000Z</time>
      </trkpt>
      <trkpt lat="44.12449" lon="6.33736">
        <ele>994.4</ele>
        <time>2019-06-23T10:27:09.000Z</time>
      </trkpt>
      <trkpt lat="44.12447" lon="6.33735">
        <ele>994.6</ele>
        <time>2019-06-23T10:27:10.000Z</time>
      </trkpt>
      <trkpt lat="44.12445" lon="6.33735">
        <ele>995</ele>
        <time>2019-06-23T10:27:11.000Z</time>
      </trkpt>
      <trkpt lat="44.12436" lon="6.33728">
        <ele>995.8</ele>
        <time>2019-06-23T10:27:15.000Z</time>
      </trkpt>
      <trkpt lat="44.12432" lon="6.33725">
        <ele>996.2</ele>
        <time>2019-06-23T10:27:17.000Z</time>
      </trkpt>
      <trkpt lat="44.12417" lon="6.33713">
        <ele>996.8</ele>
        <time>2019-06-23T10:27:24.000Z</time>
      </trkpt>
      <trkpt lat="44.12407" lon="6.337">
        <ele>998</ele>
        <time>2019-06-23T10:27:29.000Z</time>
      </trkpt>
      <trkpt lat="44.12404" lon="6.33695">
        <ele>998.2</ele>
        <time>2019-06-23T10:27:31.000Z</time>
      </trkpt>
      <trkpt lat="44.12399" lon="6.33688">
        <ele>998.8</ele>
        <time>2019-06-23T10:27:34.000Z</time>
      </trkpt>
      <trkpt lat="44.12397" lon="6.33686">
        <ele>999</ele>
        <time>2019-06-23T10:27:35.000Z</time>
      </trkpt>
      <trkpt lat="44.12388" lon="6.3368">
        <ele>1000.2</ele>
        <time>2019-06-23T10:27:39.000Z</time>
      </trkpt>
      <trkpt lat="44.12378" lon="6.33678">
        <ele>1001.4</ele>
        <time>2019-06-23T10:27:43.000Z</time>
      </trkpt>
      <trkpt lat="44.12373" lon="6.33679">
        <ele>1001.8</ele>
        <time>2019-06-23T10:27:45.000Z</time>
      </trkpt>
      <trkpt lat="44.1237" lon="6.33679">
        <ele>1002</ele>
        <time>2019-06-23T10:27:46.000Z</time>
      </trkpt>
      <trkpt lat="44.12368" lon="6.3368">
        <ele>1002.4</ele>
        <time>2019-06-23T10:27:47.000Z</time>
      </trkpt>
      <trkpt lat="44.12366" lon="6.33681">
        <ele>1002.8</ele>
        <time>2019-06-23T10:27:48.000Z</time>
      </trkpt>
      <trkpt lat="44.12357" lon="6.33686">
        <ele>1004</ele>
        <time>2019-06-23T10:27:52.000Z</time>
      </trkpt>
      <trkpt lat="44.12351" lon="6.33689">
        <ele>1005.2</ele>
        <time>2019-06-23T10:27:55.000Z</time>
      </trkpt>
      <trkpt lat="44.12344" lon="6.33693">
        <ele>1006.6</ele>
        <time>2019-06-23T10:27:58.000Z</time>
      </trkpt>
      <trkpt lat="44.1234" lon="6.33695">
        <ele>1007.8</ele>
        <time>2019-06-23T10:28:00.000Z</time>
      </trkpt>
      <trkpt lat="44.12338" lon="6.33695">
        <ele>1008.2</ele>
        <time>2019-06-23T10:28:01.000Z</time>
      </trkpt>
      <trkpt lat="44.12335" lon="6.33696">
        <ele>1008.6</ele>
        <time>2019-06-23T10:28:02.000Z</time>
      </trkpt>
      <trkpt lat="44.12333" lon="6.33696">
        <ele>1009</ele>
        <time>2019-06-23T10:28:03.000Z</time>
      </trkpt>
      <trkpt lat="44.12318" lon="6.33697">
        <ele>1010.2</ele>
        <time>2019-06-23T10:28:09.000Z</time>
      </trkpt>
      <trkpt lat="44.12316" lon="6.33698">
        <ele>1010.4</ele>
        <time>2019-06-23T10:28:10.000Z</time>
      </trkpt>
      <trkpt lat="44.12299" lon="6.33704">
        <ele>1010.6</ele>
        <time>2019-06-23T10:28:16.000Z</time>
      </trkpt>
      <trkpt lat="44.12297" lon="6.33705">
        <ele>1010.8</ele>
        <time>2019-06-23T10:28:17.000Z</time>
      </trkpt>
      <trkpt lat="44.12292" lon="6.33706">
        <ele>1011.2</ele>
        <time>2019-06-23T10:28:19.000Z</time>
      </trkpt>
      <trkpt lat="44.12285" lon="6.33708">
        <ele>1011.4</ele>
        <time>2019-06-23T10:28:22.000Z</time>
      </trkpt>
      <trkpt lat="44.12278" lon="6.3371">
        <ele>1012.2</ele>
        <time>2019-06-23T10:28:25.000Z</time>
      </trkpt>
      <trkpt lat="44.12271" lon="6.33713">
        <ele>1013.4</ele>
        <time>2019-06-23T10:28:28.000Z</time>
      </trkpt>
      <trkpt lat="44.12266" lon="6.33714">
        <ele>1013.8</ele>
        <time>2019-06-23T10:28:30.000Z</time>
      </trkpt>
      <trkpt lat="44.12259" lon="6.33715">
        <ele>1014.4</ele>
        <time>2019-06-23T10:28:33.000Z</time>
      </trkpt>
      <trkpt lat="44.12256" lon="6.33715">
        <ele>1014.6</ele>
        <time>2019-06-23T10:28:34.000Z</time>
      </trkpt>
      <trkpt lat="44.12249" lon="6.33716">
        <ele>1015.8</ele>
        <time>2019-06-23T10:28:37.000Z</time>
      </trkpt>
      <trkpt lat="44.12239" lon="6.33719">
        <ele>1017</ele>
        <time>2019-06-23T10:28:41.000Z</time>
      </trkpt>
      <trkpt lat="44.12234" lon="6.3372">
        <ele>1017.2</ele>
        <time>2019-06-23T10:28:43.000Z</time>
      </trkpt>
      <trkpt lat="44.12221" lon="6.33723">
        <ele>1018.2</ele>
        <time>2019-06-23T10:28:48.000Z</time>
      </trkpt>
      <trkpt lat="44.12214" lon="6.33724">
        <ele>1018.6</ele>
        <time>2019-06-23T10:28:51.000Z</time>
      </trkpt>
      <trkpt lat="44.12211" lon="6.33725">
        <ele>1018.8</ele>
        <time>2019-06-23T10:28:52.000Z</time>
      </trkpt>
      <trkpt lat="44.12207" lon="6.33727">
        <ele>1019.2</ele>
        <time>2019-06-23T10:28:54.000Z</time>
      </trkpt>
      <trkpt lat="44.12198" lon="6.33732">
        <ele>1020.6</ele>
        <time>2019-06-23T10:28:58.000Z</time>
      </trkpt>
      <trkpt lat="44.12196" lon="6.33734">
        <ele>1021</ele>
        <time>2019-06-23T10:28:59.000Z</time>
      </trkpt>
      <trkpt lat="44.12194" lon="6.33736">
        <ele>1021.4</ele>
        <time>2019-06-23T10:29:00.000Z</time>
      </trkpt>
      <trkpt lat="44.12193" lon="6.33739">
        <ele>1021.6</ele>
        <time>2019-06-23T10:29:01.000Z</time>
      </trkpt>
      <trkpt lat="44.12188" lon="6.33746">
        <ele>1022.4</ele>
        <time>2019-06-23T10:29:04.000Z</time>
      </trkpt>
      <trkpt lat="44.12186" lon="6.33748">
        <ele>1022.8</ele>
        <time>2019-06-23T10:29:05.000Z</time>
      </trkpt>
      <trkpt lat="44.12181" lon="6.33755">
        <ele>1024</ele>
        <time>2019-06-23T10:29:08.000Z</time>
      </trkpt>
      <trkpt lat="44.12173" lon="6.33769">
        <ele>1025.4</ele>
        <time>2019-06-23T10:29:13.000Z</time>
      </trkpt>
      <trkpt lat="44.12171" lon="6.33771">
        <ele>1025.6</ele>
        <time>2019-06-23T10:29:14.000Z</time>
      </trkpt>
      <trkpt lat="44.1217" lon="6.33774">
        <ele>1026</ele>
        <time>2019-06-23T10:29:15.000Z</time>
      </trkpt>
      <trkpt lat="44.12168" lon="6.33777">
        <ele>1026.2</ele>
        <time>2019-06-23T10:29:16.000Z</time>
      </trkpt>
      <trkpt lat="44.12166" lon="6.33779">
        <ele>1026.6</ele>
        <time>2019-06-23T10:29:17.000Z</time>
      </trkpt>
      <trkpt lat="44.12165" lon="6.33782">
        <ele>1026.6</ele>
        <time>2019-06-23T10:29:18.000Z</time>
      </trkpt>
      <trkpt lat="44.1216" lon="6.33789">
        <ele>1027</ele>
        <time>2019-06-23T10:29:21.000Z</time>
      </trkpt>
      <trkpt lat="44.12159" lon="6.33792">
        <ele>1027</ele>
        <time>2019-06-23T10:29:22.000Z</time>
      </trkpt>
      <trkpt lat="44.12154" lon="6.33798">
        <ele>1027.8</ele>
        <time>2019-06-23T10:29:25.000Z</time>
      </trkpt>
      <trkpt lat="44.12151" lon="6.33802">
        <ele>1028.6</ele>
        <time>2019-06-23T10:29:27.000Z</time>
      </trkpt>
      <trkpt lat="44.12147" lon="6.33806">
        <ele>1028.8</ele>
        <time>2019-06-23T10:29:29.000Z</time>
      </trkpt>
      <trkpt lat="44.1214" lon="6.33814">
        <ele>1030</ele>
        <time>2019-06-23T10:29:33.000Z</time>
      </trkpt>
      <trkpt lat="44.12137" lon="6.33817">
        <ele>1031.2</ele>
        <time>2019-06-23T10:29:35.000Z</time>
      </trkpt>
      <trkpt lat="44.12127" lon="6.33824">
        <ele>1032.4</ele>
        <time>2019-06-23T10:29:40.000Z</time>
      </trkpt>
      <trkpt lat="44.1212" lon="6.33826">
        <ele>1033.6</ele>
        <time>2019-06-23T10:29:43.000Z</time>
      </trkpt>
      <trkpt lat="44.12109" lon="6.33825">
        <ele>1034.8</ele>
        <time>2019-06-23T10:29:49.000Z</time>
      </trkpt>
      <trkpt lat="44.12107" lon="6.33825">
        <ele>1034.8</ele>
        <time>2019-06-23T10:29:50.000Z</time>
      </trkpt>
      <trkpt lat="44.12101" lon="6.33826">
        <ele>1035.8</ele>
        <time>2019-06-23T10:29:53.000Z</time>
      </trkpt>
      <trkpt lat="44.12092" lon="6.33829">
        <ele>1037.2</ele>
        <time>2019-06-23T10:29:59.000Z</time>
      </trkpt>
      <trkpt lat="44.12088" lon="6.3383">
        <ele>1038.4</ele>
        <time>2019-06-23T10:30:02.000Z</time>
      </trkpt>
      <trkpt lat="44.12082" lon="6.33834">
        <ele>1039.6</ele>
        <time>2019-06-23T10:30:06.000Z</time>
      </trkpt>
      <trkpt lat="44.1208" lon="6.33834">
        <ele>1040.2</ele>
        <time>2019-06-23T10:30:07.000Z</time>
      </trkpt>
      <trkpt lat="44.12079" lon="6.33835">
        <ele>1040.4</ele>
        <time>2019-06-23T10:30:08.000Z</time>
      </trkpt>
      <trkpt lat="44.12077" lon="6.33835">
        <ele>1040.6</ele>
        <time>2019-06-23T10:30:09.000Z</time>
      </trkpt>
      <trkpt lat="44.12076" lon="6.33836">
        <ele>1040.8</ele>
        <time>2019-06-23T10:30:10.000Z</time>
      </trkpt>
      <trkpt lat="44.12071" lon="6.33842">
        <ele>1042</ele>
        <time>2019-06-23T10:30:14.000Z</time>
      </trkpt>
      <trkpt lat="44.12064" lon="6.33851">
        <ele>1043.2</ele>
        <time>2019-06-23T10:30:20.000Z</time>
      </trkpt>
      <trkpt lat="44.12061" lon="6.33855">
        <ele>1043.8</ele>
        <time>2019-06-23T10:30:23.000Z</time>
      </trkpt>
      <trkpt lat="44.12058" lon="6.33857">
        <ele>1044.4</ele>
        <time>2019-06-23T10:30:25.000Z</time>
      </trkpt>
      <trkpt lat="44.12054" lon="6.33862">
        <ele>1045</ele>
        <time>2019-06-23T10:30:28.000Z</time>
      </trkpt>
      <trkpt lat="44.12052" lon="6.33865">
        <ele>1045.4</ele>
        <time>2019-06-23T10:30:30.000Z</time>
      </trkpt>
      <trkpt lat="44.12051" lon="6.33867">
        <ele>1045.6</ele>
        <time>2019-06-23T10:30:31.000Z</time>
      </trkpt>
      <trkpt lat="44.12046" lon="6.33871">
        <ele>1046.6</ele>
        <time>2019-06-23T10:30:35.000Z</time>
      </trkpt>
      <trkpt lat="44.12044" lon="6.33875">
        <ele>1047.2</ele>
        <time>2019-06-23T10:30:37.000Z</time>
      </trkpt>
      <trkpt lat="44.12041" lon="6.33878">
        <ele>1047.6</ele>
        <time>2019-06-23T10:30:39.000Z</time>
      </trkpt>
      <trkpt lat="44.12034" lon="6.33889">
        <ele>1048.2</ele>
        <time>2019-06-23T10:30:45.000Z</time>
      </trkpt>
      <trkpt lat="44.1203" lon="6.33897">
        <ele>1048.8</ele>
        <time>2019-06-23T10:30:49.000Z</time>
      </trkpt>
      <trkpt lat="44.12025" lon="6.33909">
        <ele>1050</ele>
        <time>2019-06-23T10:30:55.000Z</time>
      </trkpt>
      <trkpt lat="44.12023" lon="6.33915">
        <ele>1050.6</ele>
        <time>2019-06-23T10:30:58.000Z</time>
      </trkpt>
      <trkpt lat="44.12021" lon="6.33922">
        <ele>1051.2</ele>
        <time>2019-06-23T10:31:01.000Z</time>
      </trkpt>
      <trkpt lat="44.12019" lon="6.3393">
        <ele>1052.4</ele>
        <time>2019-06-23T10:31:05.000Z</time>
      </trkpt>
      <trkpt lat="44.12018" lon="6.33937">
        <ele>1053.4</ele>
        <time>2019-06-23T10:31:08.000Z</time>
      </trkpt>
      <trkpt lat="44.12017" lon="6.33939">
        <ele>1053.6</ele>
        <time>2019-06-23T10:31:09.000Z</time>
      </trkpt>
      <trkpt lat="44.12016" lon="6.33948">
        <ele>1054.6</ele>
        <time>2019-06-23T10:31:13.000Z</time>
      </trkpt>
      <trkpt lat="44.12014" lon="6.33956">
        <ele>1055.4</ele>
        <time>2019-06-23T10:31:17.000Z</time>
      </trkpt>
      <trkpt lat="44.12013" lon="6.3396">
        <ele>1055.8</ele>
        <time>2019-06-23T10:31:19.000Z</time>
      </trkpt>
      <trkpt lat="44.12012" lon="6.33969">
        <ele>1057</ele>
        <time>2019-06-23T10:31:23.000Z</time>
      </trkpt>
      <trkpt lat="44.12012" lon="6.33973">
        <ele>1057.4</ele>
        <time>2019-06-23T10:31:25.000Z</time>
      </trkpt>
      <trkpt lat="44.12011" lon="6.33978">
        <ele>1058</ele>
        <time>2019-06-23T10:31:27.000Z</time>
      </trkpt>
      <trkpt lat="44.12011" lon="6.3398">
        <ele>1058.2</ele>
        <time>2019-06-23T10:31:28.000Z</time>
      </trkpt>
      <trkpt lat="44.12012" lon="6.33983">
        <ele>1058.2</ele>
        <time>2019-06-23T10:31:29.000Z</time>
      </trkpt>
      <trkpt lat="44.12012" lon="6.33989">
        <ele>1059</ele>
        <time>2019-06-23T10:31:32.000Z</time>
      </trkpt>
      <trkpt lat="44.12011" lon="6.33999">
        <ele>1060.2</ele>
        <time>2019-06-23T10:31:36.000Z</time>
      </trkpt>
      <trkpt lat="44.1201" lon="6.34008">
        <ele>1060.8</ele>
        <time>2019-06-23T10:31:40.000Z</time>
      </trkpt>
      <trkpt lat="44.12008" lon="6.34013">
        <ele>1061.2</ele>
        <time>2019-06-23T10:31:42.000Z</time>
      </trkpt>
      <trkpt lat="44.12006" lon="6.34021">
        <ele>1061.6</ele>
        <time>2019-06-23T10:31:45.000Z</time>
      </trkpt>
      <trkpt lat="44.12004" lon="6.34027">
        <ele>1062</ele>
        <time>2019-06-23T10:31:47.000Z</time>
      </trkpt>
      <trkpt lat="44.12002" lon="6.34028">
        <ele>1062.4</ele>
        <time>2019-06-23T10:31:48.000Z</time>
      </trkpt>
      <trkpt lat="44.11997" lon="6.34033">
        <ele>1063.2</ele>
        <time>2019-06-23T10:31:51.000Z</time>
      </trkpt>
      <trkpt lat="44.11995" lon="6.34034">
        <ele>1063.6</ele>
        <time>2019-06-23T10:31:52.000Z</time>
      </trkpt>
      <trkpt lat="44.11989" lon="6.34038">
        <ele>1064.6</ele>
        <time>2019-06-23T10:31:55.000Z</time>
      </trkpt>
      <trkpt lat="44.11987" lon="6.34039">
        <ele>1064.8</ele>
        <time>2019-06-23T10:31:56.000Z</time>
      </trkpt>
      <trkpt lat="44.11976" lon="6.34046">
        <ele>1066</ele>
        <time>2019-06-23T10:32:02.000Z</time>
      </trkpt>
      <trkpt lat="44.11974" lon="6.34046">
        <ele>1066.2</ele>
        <time>2019-06-23T10:32:03.000Z</time>
      </trkpt>
      <trkpt lat="44.11965" lon="6.34049">
        <ele>1067.2</ele>
        <time>2019-06-23T10:32:07.000Z</time>
      </trkpt>
      <trkpt lat="44.11961" lon="6.34051">
        <ele>1067.8</ele>
        <time>2019-06-23T10:32:09.000Z</time>
      </trkpt>
      <trkpt lat="44.11954" lon="6.34054">
        <ele>1068.2</ele>
        <time>2019-06-23T10:32:12.000Z</time>
      </trkpt>
      <trkpt lat="44.11952" lon="6.34055">
        <ele>1068.2</ele>
        <time>2019-06-23T10:32:13.000Z</time>
      </trkpt>
      <trkpt lat="44.11941" lon="6.34063">
        <ele>1068.6</ele>
        <time>2019-06-23T10:32:19.000Z</time>
      </trkpt>
      <trkpt lat="44.11937" lon="6.34066">
        <ele>1069.4</ele>
        <time>2019-06-23T10:32:21.000Z</time>
      </trkpt>
      <trkpt lat="44.11936" lon="6.34067">
        <ele>1069.8</ele>
        <time>2019-06-23T10:32:22.000Z</time>
      </trkpt>
      <trkpt lat="44.11931" lon="6.34074">
        <ele>1070.6</ele>
        <time>2019-06-23T10:32:26.000Z</time>
      </trkpt>
      <trkpt lat="44.11927" lon="6.34082">
        <ele>1071.8</ele>
        <time>2019-06-23T10:32:30.000Z</time>
      </trkpt>
      <trkpt lat="44.11926" lon="6.34084">
        <ele>1072.2</ele>
        <time>2019-06-23T10:32:31.000Z</time>
      </trkpt>
      <trkpt lat="44.11924" lon="6.34089">
        <ele>1072.8</ele>
        <time>2019-06-23T10:32:33.000Z</time>
      </trkpt>
      <trkpt lat="44.11922" lon="6.34098">
        <ele>1073.8</ele>
        <time>2019-06-23T10:32:37.000Z</time>
      </trkpt>
      <trkpt lat="44.1192" lon="6.34102">
        <ele>1074.4</ele>
        <time>2019-06-23T10:32:39.000Z</time>
      </trkpt>
      <trkpt lat="44.11919" lon="6.34105">
        <ele>1074.6</ele>
        <time>2019-06-23T10:32:40.000Z</time>
      </trkpt>
      <trkpt lat="44.11917" lon="6.3411">
        <ele>1075</ele>
        <time>2019-06-23T10:32:42.000Z</time>
      </trkpt>
      <trkpt lat="44.11912" lon="6.34115">
        <ele>1075.4</ele>
        <time>2019-06-23T10:32:45.000Z</time>
      </trkpt>
      <trkpt lat="44.11902" lon="6.34122">
        <ele>1076</ele>
        <time>2019-06-23T10:32:50.000Z</time>
      </trkpt>
      <trkpt lat="44.11896" lon="6.34125">
        <ele>1076.6</ele>
        <time>2019-06-23T10:32:53.000Z</time>
      </trkpt>
      <trkpt lat="44.11889" lon="6.3413">
        <ele>1077.2</ele>
        <time>2019-06-23T10:32:57.000Z</time>
      </trkpt>
      <trkpt lat="44.11887" lon="6.34131">
        <ele>1077.2</ele>
        <time>2019-06-23T10:32:58.000Z</time>
      </trkpt>
      <trkpt lat="44.11882" lon="6.34135">
        <ele>1077.6</ele>
        <time>2019-06-23T10:33:00.000Z</time>
      </trkpt>
      <trkpt lat="44.1187" lon="6.34144">
        <ele>1077.8</ele>
        <time>2019-06-23T10:33:05.000Z</time>
      </trkpt>
      <trkpt lat="44.11861" lon="6.34152">
        <ele>1078.2</ele>
        <time>2019-06-23T10:33:09.000Z</time>
      </trkpt>
      <trkpt lat="44.11856" lon="6.34157">
        <ele>1078.6</ele>
        <time>2019-06-23T10:33:11.000Z</time>
      </trkpt>
      <trkpt lat="44.11846" lon="6.34169">
        <ele>1079.2</ele>
        <time>2019-06-23T10:33:16.000Z</time>
      </trkpt>
      <trkpt lat="44.11837" lon="6.34183">
        <ele>1080.2</ele>
        <time>2019-06-23T10:33:21.000Z</time>
      </trkpt>
      <trkpt lat="44.11833" lon="6.3419">
        <ele>1080.4</ele>
        <time>2019-06-23T10:33:23.000Z</time>
      </trkpt>
      <trkpt lat="44.11831" lon="6.34197">
        <ele>1080.8</ele>
        <time>2019-06-23T10:33:25.000Z</time>
      </trkpt>
      <trkpt lat="44.11828" lon="6.34206">
        <ele>1080.6</ele>
        <time>2019-06-23T10:33:27.000Z</time>
      </trkpt>
      <trkpt lat="44.11818" lon="6.34225">
        <ele>1080.2</ele>
        <time>2019-06-23T10:33:31.000Z</time>
      </trkpt>
      <trkpt lat="44.11817" lon="6.34228">
        <ele>1080</ele>
        <time>2019-06-23T10:33:32.000Z</time>
      </trkpt>
      <trkpt lat="44.11811" lon="6.34237">
        <ele>1080</ele>
        <time>2019-06-23T10:33:36.000Z</time>
      </trkpt>
      <trkpt lat="44.11802" lon="6.34244">
        <ele>1080</ele>
        <time>2019-06-23T10:33:40.000Z</time>
      </trkpt>
      <trkpt lat="44.11798" lon="6.34252">
        <ele>1079.4</ele>
        <time>2019-06-23T10:33:45.000Z</time>
      </trkpt>
      <trkpt lat="44.11798" lon="6.34252">
        <ele>1079.2</ele>
        <time>2019-06-23T10:33:48.000Z</time>
      </trkpt>
      <trkpt lat="44.11798" lon="6.34252">
        <ele>1079</ele>
        <time>2019-06-23T10:33:50.000Z</time>
      </trkpt>
      <trkpt lat="44.11797" lon="6.34253">
        <ele>1078.6</ele>
        <time>2019-06-23T10:34:24.000Z</time>
      </trkpt>
      <trkpt lat="44.11796" lon="6.34254">
        <ele>1078.6</ele>
        <time>2019-06-23T10:34:25.000Z</time>
      </trkpt>
      <trkpt lat="44.11789" lon="6.34257">
        <ele>1078.8</ele>
        <time>2019-06-23T10:34:29.000Z</time>
      </trkpt>
      <trkpt lat="44.1178" lon="6.34262">
        <ele>1079.4</ele>
        <time>2019-06-23T10:34:35.000Z</time>
      </trkpt>
      <trkpt lat="44.1177" lon="6.34267">
        <ele>1080</ele>
        <time>2019-06-23T10:34:42.000Z</time>
      </trkpt>
      <trkpt lat="44.11768" lon="6.34269">
        <ele>1080.2</ele>
        <time>2019-06-23T10:34:44.000Z</time>
      </trkpt>
      <trkpt lat="44.11763" lon="6.34271">
        <ele>1104.2</ele>
      </trkpt>
      <trkpt lat="44.11756" lon="6.34278">
        <ele>1104.6</ele>
      </trkpt>
      <trkpt lat="44.11736" lon="6.34277">
        <ele>1110.9</ele>
      </trkpt>
      <trkpt lat="44.11735" lon="6.34271">
        <ele>1110.3</ele>
        <extensions>
          <visugpx:TrkExtension xmlns:visugpx="https://www.visugpx.com/editgpx/">
            <visugpx:node>9</visugpx:node>
            </visugpx:TrkExtension>
        </extensions>
      </trkpt>
      <trkpt lat="44.11736" lon="6.34265">
        <ele>1086.6</ele>
        <time>2019-06-23T11:02:38.000Z</time>
        <extensions>
          <visugpx:TrkExtension xmlns:visugpx="https://www.visugpx.com/editgpx/">
            <visugpx:node>1</visugpx:node>
            </visugpx:TrkExtension>
        </extensions>
      </trkpt>
      <trkpt lat="44.11735" lon="6.34263">
        <ele>1087.8</ele>
        <time>2019-06-23T11:02:41.000Z</time>
      </trkpt>
      <trkpt lat="44.11732" lon="6.34261">
        <ele>1088.8</ele>
        <time>2019-06-23T11:02:44.000Z</time>
      </trkpt>
      <trkpt lat="44.11732" lon="6.34259">
        <ele>1089.2</ele>
        <time>2019-06-23T11:02:46.000Z</time>
      </trkpt>
      <trkpt lat="44.11732" lon="6.34258">
        <ele>1089.2</ele>
        <time>2019-06-23T11:02:47.000Z</time>
      </trkpt>
      <trkpt lat="44.1173" lon="6.34256">
        <ele>1089.8</ele>
        <time>2019-06-23T11:02:49.000Z</time>
      </trkpt>
      <trkpt lat="44.1173" lon="6.34255">
        <ele>1089.8</ele>
        <time>2019-06-23T11:02:50.000Z</time>
      </trkpt>
      <trkpt lat="44.11728" lon="6.34252">
        <ele>1090</ele>
        <time>2019-06-23T11:02:52.000Z</time>
      </trkpt>
      <trkpt lat="44.11726" lon="6.34249">
        <ele>1090.4</ele>
        <time>2019-06-23T11:02:56.000Z</time>
      </trkpt>
      <trkpt lat="44.11724" lon="6.34246">
        <ele>1090.8</ele>
        <time>2019-06-23T11:02:59.000Z</time>
      </trkpt>
      <trkpt lat="44.11723" lon="6.34242">
        <ele>1091.6</ele>
        <time>2019-06-23T11:03:04.000Z</time>
      </trkpt>
      <trkpt lat="44.11723" lon="6.3424">
        <ele>1092</ele>
        <time>2019-06-23T11:03:06.000Z</time>
      </trkpt>
      <trkpt lat="44.11721" lon="6.34235">
        <ele>1092.2</ele>
        <time>2019-06-23T11:03:11.000Z</time>
      </trkpt>
      <trkpt lat="44.11719" lon="6.34232">
        <ele>1092.8</ele>
        <time>2019-06-23T11:03:18.000Z</time>
      </trkpt>
      <trkpt lat="44.11719" lon="6.34232">
        <ele>1093</ele>
        <time>2019-06-23T11:03:20.000Z</time>
      </trkpt>
      <trkpt lat="44.1172" lon="6.34231">
        <ele>1092.6</ele>
        <time>2019-06-23T11:03:53.000Z</time>
      </trkpt>
      <trkpt lat="44.1172" lon="6.34228">
        <ele>1092.8</ele>
        <time>2019-06-23T11:04:06.000Z</time>
      </trkpt>
      <trkpt lat="44.1172" lon="6.34228">
        <ele>1092.8</ele>
        <time>2019-06-23T11:04:07.000Z</time>
      </trkpt>
      <trkpt lat="44.11721" lon="6.34227">
        <ele>1093</ele>
        <time>2019-06-23T11:04:12.000Z</time>
      </trkpt>
      <trkpt lat="44.11721" lon="6.34226">
        <ele>1093</ele>
        <time>2019-06-23T11:04:14.000Z</time>
      </trkpt>
      <trkpt lat="44.11721" lon="6.34226">
        <ele>1093.2</ele>
        <time>2019-06-23T11:04:17.000Z</time>
      </trkpt>
      <trkpt lat="44.11721" lon="6.34225">
        <ele>1093</ele>
        <time>2019-06-23T11:04:21.000Z</time>
      </trkpt>
      <trkpt lat="44.11719" lon="6.34221">
        <ele>1093.2</ele>
        <time>2019-06-23T11:04:41.000Z</time>
      </trkpt>
      <trkpt lat="44.11718" lon="6.3422">
        <ele>1093.4</ele>
        <time>2019-06-23T11:04:42.000Z</time>
      </trkpt>
      <trkpt lat="44.11708" lon="6.34217">
        <ele>1094</ele>
        <time>2019-06-23T11:04:47.000Z</time>
      </trkpt>
      <trkpt lat="44.11706" lon="6.34217">
        <ele>1094.2</ele>
        <time>2019-06-23T11:04:48.000Z</time>
      </trkpt>
      <trkpt lat="44.11699" lon="6.34224">
        <ele>1094.8</ele>
        <time>2019-06-23T11:04:54.000Z</time>
      </trkpt>
      <trkpt lat="44.11695" lon="6.3423">
        <ele>1095.2</ele>
        <time>2019-06-23T11:04:57.000Z</time>
      </trkpt>
      <trkpt lat="44.11691" lon="6.34233">
        <ele>1096.2</ele>
        <time>2019-06-23T11:04:59.000Z</time>
      </trkpt>
      <trkpt lat="44.11688" lon="6.34235">
        <ele>1097.2</ele>
        <time>2019-06-23T11:05:01.000Z</time>
      </trkpt>
      <trkpt lat="44.11686" lon="6.34236">
        <ele>1097.6</ele>
        <time>2019-06-23T11:05:02.000Z</time>
      </trkpt>
      <trkpt lat="44.11683" lon="6.34237">
        <ele>1098</ele>
        <time>2019-06-23T11:05:04.000Z</time>
      </trkpt>
      <trkpt lat="44.11676" lon="6.34237">
        <ele>1098.6</ele>
        <time>2019-06-23T11:05:08.000Z</time>
      </trkpt>
      <trkpt lat="44.11674" lon="6.34238">
        <ele>1098.6</ele>
        <time>2019-06-23T11:05:09.000Z</time>
      </trkpt>
      <trkpt lat="44.11671" lon="6.34237">
        <ele>1099</ele>
        <time>2019-06-23T11:05:11.000Z</time>
      </trkpt>
      <trkpt lat="44.1167" lon="6.34237">
        <ele>1099.6</ele>
        <time>2019-06-23T11:05:12.000Z</time>
      </trkpt>
      <trkpt lat="44.11669" lon="6.34237">
        <ele>1100</ele>
        <time>2019-06-23T11:05:13.000Z</time>
      </trkpt>
      <trkpt lat="44.11666" lon="6.3424">
        <ele>1100.8</ele>
        <time>2019-06-23T11:05:16.000Z</time>
      </trkpt>
      <trkpt lat="44.11665" lon="6.34242">
        <ele>1100.8</ele>
        <time>2019-06-23T11:05:17.000Z</time>
      </trkpt>
      <trkpt lat="44.11664" lon="6.34245">
        <ele>1101.4</ele>
        <time>2019-06-23T11:05:18.000Z</time>
      </trkpt>
      <trkpt lat="44.11662" lon="6.3425">
        <ele>1102.2</ele>
        <time>2019-06-23T11:05:21.000Z</time>
      </trkpt>
      <trkpt lat="44.11661" lon="6.34252">
        <ele>1102.2</ele>
        <time>2019-06-23T11:05:22.000Z</time>
      </trkpt>
      <trkpt lat="44.11661" lon="6.34254">
        <ele>1102.6</ele>
        <time>2019-06-23T11:05:23.000Z</time>
      </trkpt>
      <trkpt lat="44.11659" lon="6.3426">
        <ele>1103.2</ele>
        <time>2019-06-23T11:05:27.000Z</time>
      </trkpt>
      <trkpt lat="44.11657" lon="6.34264">
        <ele>1103.6</ele>
        <time>2019-06-23T11:05:29.000Z</time>
      </trkpt>
      <trkpt lat="44.11655" lon="6.34268">
        <ele>1104</ele>
        <time>2019-06-23T11:05:32.000Z</time>
      </trkpt>
      <trkpt lat="44.11654" lon="6.3427">
        <ele>1104.2</ele>
        <time>2019-06-23T11:05:33.000Z</time>
      </trkpt>
      <trkpt lat="44.11653" lon="6.34271">
        <ele>1104.4</ele>
        <time>2019-06-23T11:05:34.000Z</time>
      </trkpt>
      <trkpt lat="44.1165" lon="6.34276">
        <ele>1105.4</ele>
        <time>2019-06-23T11:05:37.000Z</time>
      </trkpt>
      <trkpt lat="44.1165" lon="6.34278">
        <ele>1105.6</ele>
        <time>2019-06-23T11:05:38.000Z</time>
      </trkpt>
      <trkpt lat="44.11649" lon="6.34279">
        <ele>1105.8</ele>
        <time>2019-06-23T11:05:39.000Z</time>
      </trkpt>
      <trkpt lat="44.11645" lon="6.34285">
        <ele>1106.6</ele>
        <time>2019-06-23T11:05:43.000Z</time>
      </trkpt>
      <trkpt lat="44.11644" lon="6.34286">
        <ele>1106.8</ele>
        <time>2019-06-23T11:05:44.000Z</time>
      </trkpt>
      <trkpt lat="44.11639" lon="6.34291">
        <ele>1107.8</ele>
        <time>2019-06-23T11:05:49.000Z</time>
      </trkpt>
      <trkpt lat="44.11636" lon="6.34294">
        <ele>1108.6</ele>
        <time>2019-06-23T11:05:52.000Z</time>
      </trkpt>
      <trkpt lat="44.11635" lon="6.34295">
        <ele>1108.8</ele>
        <time>2019-06-23T11:05:53.000Z</time>
      </trkpt>
      <trkpt lat="44.11628" lon="6.34302">
        <ele>1110</ele>
        <time>2019-06-23T11:05:59.000Z</time>
      </trkpt>
      <trkpt lat="44.11622" lon="6.34307">
        <ele>1111.2</ele>
        <time>2019-06-23T11:06:03.000Z</time>
      </trkpt>
      <trkpt lat="44.11616" lon="6.34313">
        <ele>1112.4</ele>
        <time>2019-06-23T11:06:08.000Z</time>
      </trkpt>
      <trkpt lat="44.11613" lon="6.34314">
        <ele>1113.4</ele>
        <time>2019-06-23T11:06:10.000Z</time>
      </trkpt>
      <trkpt lat="44.11612" lon="6.34316">
        <ele>1113.6</ele>
        <time>2019-06-23T11:06:11.000Z</time>
      </trkpt>
      <trkpt lat="44.11607" lon="6.34319">
        <ele>1114.6</ele>
        <time>2019-06-23T11:06:15.000Z</time>
      </trkpt>
      <trkpt lat="44.11604" lon="6.34321">
        <ele>1115.4</ele>
        <time>2019-06-23T11:06:17.000Z</time>
      </trkpt>
      <trkpt lat="44.11598" lon="6.34324">
        <ele>1115.6</ele>
        <time>2019-06-23T11:06:21.000Z</time>
      </trkpt>
      <trkpt lat="44.1159" lon="6.34327">
        <ele>1116.8</ele>
        <time>2019-06-23T11:06:26.000Z</time>
      </trkpt>
      <trkpt lat="44.11585" lon="6.34328">
        <ele>1118</ele>
        <time>2019-06-23T11:06:32.000Z</time>
      </trkpt>
      <trkpt lat="44.11581" lon="6.3433">
        <ele>1118.8</ele>
        <time>2019-06-23T11:06:34.000Z</time>
      </trkpt>
      <trkpt lat="44.11579" lon="6.34333">
        <ele>1119</ele>
        <time>2019-06-23T11:06:36.000Z</time>
      </trkpt>
      <trkpt lat="44.11578" lon="6.34334">
        <ele>1119.4</ele>
        <time>2019-06-23T11:06:37.000Z</time>
      </trkpt>
      <trkpt lat="44.11577" lon="6.34337">
        <ele>1119.6</ele>
        <time>2019-06-23T11:06:39.000Z</time>
      </trkpt>
      <trkpt lat="44.11574" lon="6.34351">
        <ele>1120.6</ele>
        <time>2019-06-23T11:06:45.000Z</time>
      </trkpt>
      <trkpt lat="44.11573" lon="6.34353">
        <ele>1121</ele>
        <time>2019-06-23T11:06:46.000Z</time>
      </trkpt>
      <trkpt lat="44.11571" lon="6.34359">
        <ele>1121.6</ele>
        <time>2019-06-23T11:06:49.000Z</time>
      </trkpt>
      <trkpt lat="44.1157" lon="6.34361">
        <ele>1121.8</ele>
        <time>2019-06-23T11:06:50.000Z</time>
      </trkpt>
      <trkpt lat="44.11567" lon="6.3437">
        <ele>1121.8</ele>
        <time>2019-06-23T11:06:55.000Z</time>
      </trkpt>
      <trkpt lat="44.11565" lon="6.34373">
        <ele>1122.2</ele>
        <time>2019-06-23T11:06:57.000Z</time>
      </trkpt>
      <trkpt lat="44.11563" lon="6.34376">
        <ele>1123</ele>
        <time>2019-06-23T11:06:59.000Z</time>
      </trkpt>
      <trkpt lat="44.11561" lon="6.34382">
        <ele>1123.2</ele>
        <time>2019-06-23T11:07:02.000Z</time>
      </trkpt>
      <trkpt lat="44.11558" lon="6.34387">
        <ele>1124</ele>
        <time>2019-06-23T11:07:05.000Z</time>
      </trkpt>
      <trkpt lat="44.11556" lon="6.34391">
        <ele>1124.4</ele>
        <time>2019-06-23T11:07:07.000Z</time>
      </trkpt>
      <trkpt lat="44.11556" lon="6.34396">
        <ele>1124.4</ele>
        <time>2019-06-23T11:07:09.000Z</time>
      </trkpt>
      <trkpt lat="44.11555" lon="6.34404">
        <ele>1125.4</ele>
        <time>2019-06-23T11:07:13.000Z</time>
      </trkpt>
      <trkpt lat="44.11554" lon="6.34412">
        <ele>1126</ele>
        <time>2019-06-23T11:07:17.000Z</time>
      </trkpt>
      <trkpt lat="44.11553" lon="6.34417">
        <ele>1126.6</ele>
        <time>2019-06-23T11:07:20.000Z</time>
      </trkpt>
      <trkpt lat="44.11552" lon="6.34419">
        <ele>1127</ele>
        <time>2019-06-23T11:07:21.000Z</time>
      </trkpt>
      <trkpt lat="44.11551" lon="6.34424">
        <ele>1128</ele>
        <time>2019-06-23T11:07:24.000Z</time>
      </trkpt>
      <trkpt lat="44.11549" lon="6.34427">
        <ele>1128.4</ele>
        <time>2019-06-23T11:07:26.000Z</time>
      </trkpt>
      <trkpt lat="44.11549" lon="6.34429">
        <ele>1129.2</ele>
        <time>2019-06-23T11:07:27.000Z</time>
      </trkpt>
      <trkpt lat="44.11547" lon="6.34433">
        <ele>1129.6</ele>
        <time>2019-06-23T11:07:29.000Z</time>
      </trkpt>
      <trkpt lat="44.11542" lon="6.34442">
        <ele>1130.4</ele>
        <time>2019-06-23T11:07:34.000Z</time>
      </trkpt>
      <trkpt lat="44.11538" lon="6.3445">
        <ele>1131.4</ele>
        <time>2019-06-23T11:07:39.000Z</time>
      </trkpt>
      <trkpt lat="44.11535" lon="6.34456">
        <ele>1132.4</ele>
        <time>2019-06-23T11:07:42.000Z</time>
      </trkpt>
      <trkpt lat="44.11532" lon="6.3446">
        <ele>1133.4</ele>
        <time>2019-06-23T11:07:45.000Z</time>
      </trkpt>
      <trkpt lat="44.11529" lon="6.34465">
        <ele>1134.2</ele>
        <time>2019-06-23T11:07:48.000Z</time>
      </trkpt>
      <trkpt lat="44.11528" lon="6.34467">
        <ele>1134.4</ele>
        <time>2019-06-23T11:07:49.000Z</time>
      </trkpt>
      <trkpt lat="44.11528" lon="6.34469">
        <ele>1134.6</ele>
        <time>2019-06-23T11:07:50.000Z</time>
      </trkpt>
      <trkpt lat="44.11525" lon="6.34475">
        <ele>1135.8</ele>
        <time>2019-06-23T11:07:54.000Z</time>
      </trkpt>
      <trkpt lat="44.11522" lon="6.34482">
        <ele>1136.8</ele>
        <time>2019-06-23T11:07:58.000Z</time>
      </trkpt>
      <trkpt lat="44.1152" lon="6.34485">
        <ele>1137.6</ele>
        <time>2019-06-23T11:08:00.000Z</time>
      </trkpt>
      <trkpt lat="44.11519" lon="6.34488">
        <ele>1138</ele>
        <time>2019-06-23T11:08:02.000Z</time>
      </trkpt>
      <trkpt lat="44.11517" lon="6.34493">
        <ele>1138.8</ele>
        <time>2019-06-23T11:08:05.000Z</time>
      </trkpt>
      <trkpt lat="44.11515" lon="6.34496">
        <ele>1139.4</ele>
        <time>2019-06-23T11:08:07.000Z</time>
      </trkpt>
      <trkpt lat="44.11513" lon="6.34498">
        <ele>1139.8</ele>
        <time>2019-06-23T11:08:08.000Z</time>
      </trkpt>
      <trkpt lat="44.11511" lon="6.34501">
        <ele>1140.6</ele>
        <time>2019-06-23T11:08:10.000Z</time>
      </trkpt>
      <trkpt lat="44.1151" lon="6.34503">
        <ele>1141.2</ele>
        <time>2019-06-23T11:08:12.000Z</time>
      </trkpt>
      <trkpt lat="44.11508" lon="6.34506">
        <ele>1141.8</ele>
        <time>2019-06-23T11:08:14.000Z</time>
      </trkpt>
      <trkpt lat="44.11502" lon="6.34512">
        <ele>1142.8</ele>
        <time>2019-06-23T11:08:19.000Z</time>
      </trkpt>
      <trkpt lat="44.11498" lon="6.34517">
        <ele>1144</ele>
        <time>2019-06-23T11:08:23.000Z</time>
      </trkpt>
      <trkpt lat="44.11494" lon="6.34524">
        <ele>1145.2</ele>
        <time>2019-06-23T11:08:28.000Z</time>
      </trkpt>
      <trkpt lat="44.11493" lon="6.34525">
        <ele>1145.4</ele>
        <time>2019-06-23T11:08:29.000Z</time>
      </trkpt>
      <trkpt lat="44.11492" lon="6.3453">
        <ele>1146.4</ele>
        <time>2019-06-23T11:08:32.000Z</time>
      </trkpt>
      <trkpt lat="44.11491" lon="6.34536">
        <ele>1147.2</ele>
        <time>2019-06-23T11:08:35.000Z</time>
      </trkpt>
      <trkpt lat="44.11491" lon="6.34538">
        <ele>1147.6</ele>
        <time>2019-06-23T11:08:36.000Z</time>
      </trkpt>
      <trkpt lat="44.11491" lon="6.34542">
        <ele>1148</ele>
        <time>2019-06-23T11:08:38.000Z</time>
      </trkpt>
      <trkpt lat="44.1149" lon="6.34546">
        <ele>1148.6</ele>
        <time>2019-06-23T11:08:40.000Z</time>
      </trkpt>
      <trkpt lat="44.11487" lon="6.3455">
        <ele>1149.2</ele>
        <time>2019-06-23T11:08:43.000Z</time>
      </trkpt>
      <trkpt lat="44.11486" lon="6.34552">
        <ele>1149.4</ele>
        <time>2019-06-23T11:08:44.000Z</time>
      </trkpt>
      <trkpt lat="44.11483" lon="6.34556">
        <ele>1149.4</ele>
        <time>2019-06-23T11:08:47.000Z</time>
      </trkpt>
      <trkpt lat="44.1148" lon="6.3456">
        <ele>1149.4</ele>
        <time>2019-06-23T11:08:50.000Z</time>
      </trkpt>
      <trkpt lat="44.1148" lon="6.34562">
        <ele>1149.6</ele>
        <time>2019-06-23T11:08:51.000Z</time>
      </trkpt>
      <trkpt lat="44.11476" lon="6.34565">
        <ele>1151</ele>
        <time>2019-06-23T11:08:54.000Z</time>
      </trkpt>
      <trkpt lat="44.11474" lon="6.34567">
        <ele>1151.4</ele>
        <time>2019-06-23T11:08:55.000Z</time>
      </trkpt>
      <trkpt lat="44.11471" lon="6.3457">
        <ele>1151.8</ele>
        <time>2019-06-23T11:08:57.000Z</time>
      </trkpt>
      <trkpt lat="44.1147" lon="6.34571">
        <ele>1152.2</ele>
        <time>2019-06-23T11:08:58.000Z</time>
      </trkpt>
      <trkpt lat="44.11469" lon="6.34573">
        <ele>1152.4</ele>
        <time>2019-06-23T11:08:59.000Z</time>
      </trkpt>
      <trkpt lat="44.11466" lon="6.34577">
        <ele>1153.2</ele>
        <time>2019-06-23T11:09:01.000Z</time>
      </trkpt>
      <trkpt lat="44.11464" lon="6.3458">
        <ele>1154.6</ele>
        <time>2019-06-23T11:09:03.000Z</time>
      </trkpt>
      <trkpt lat="44.1146" lon="6.34584">
        <ele>1156</ele>
        <time>2019-06-23T11:09:06.000Z</time>
      </trkpt>
      <trkpt lat="44.11458" lon="6.34589">
        <ele>1157.4</ele>
        <time>2019-06-23T11:09:09.000Z</time>
      </trkpt>
      <trkpt lat="44.11457" lon="6.34593">
        <ele>1158.4</ele>
        <time>2019-06-23T11:09:11.000Z</time>
      </trkpt>
      <trkpt lat="44.11454" lon="6.34599">
        <ele>1159.4</ele>
        <time>2019-06-23T11:09:14.000Z</time>
      </trkpt>
      <trkpt lat="44.11453" lon="6.34604">
        <ele>1160.6</ele>
        <time>2019-06-23T11:09:17.000Z</time>
      </trkpt>
      <trkpt lat="44.11452" lon="6.34607">
        <ele>1161.2</ele>
        <time>2019-06-23T11:09:19.000Z</time>
      </trkpt>
      <trkpt lat="44.11451" lon="6.34608">
        <ele>1161.6</ele>
        <time>2019-06-23T11:09:20.000Z</time>
      </trkpt>
      <trkpt lat="44.1145" lon="6.3461">
        <ele>1161.8</ele>
        <time>2019-06-23T11:09:21.000Z</time>
      </trkpt>
      <trkpt lat="44.11447" lon="6.34614">
        <ele>1162.8</ele>
        <time>2019-06-23T11:09:24.000Z</time>
      </trkpt>
      <trkpt lat="44.11445" lon="6.34617">
        <ele>1163.6</ele>
        <time>2019-06-23T11:09:26.000Z</time>
      </trkpt>
      <trkpt lat="44.11445" lon="6.34618">
        <ele>1164</ele>
        <time>2019-06-23T11:09:27.000Z</time>
      </trkpt>
      <trkpt lat="44.11444" lon="6.34619">
        <ele>1164.4</ele>
        <time>2019-06-23T11:09:28.000Z</time>
      </trkpt>
      <trkpt lat="44.11442" lon="6.34621">
        <ele>1165</ele>
        <time>2019-06-23T11:09:30.000Z</time>
      </trkpt>
      <trkpt lat="44.11439" lon="6.34625">
        <ele>1166</ele>
        <time>2019-06-23T11:09:33.000Z</time>
      </trkpt>
      <trkpt lat="44.11437" lon="6.34626">
        <ele>1166.4</ele>
        <time>2019-06-23T11:09:34.000Z</time>
      </trkpt>
      <trkpt lat="44.11432" lon="6.34632">
        <ele>1167.4</ele>
        <time>2019-06-23T11:09:39.000Z</time>
      </trkpt>
      <trkpt lat="44.1143" lon="6.34634">
        <ele>1168</ele>
        <time>2019-06-23T11:09:41.000Z</time>
      </trkpt>
      <trkpt lat="44.11429" lon="6.34636">
        <ele>1168.4</ele>
        <time>2019-06-23T11:09:42.000Z</time>
      </trkpt>
      <trkpt lat="44.11428" lon="6.34637">
        <ele>1168.8</ele>
        <time>2019-06-23T11:09:43.000Z</time>
      </trkpt>
      <trkpt lat="44.11424" lon="6.34644">
        <ele>1169.8</ele>
        <time>2019-06-23T11:09:47.000Z</time>
      </trkpt>
      <trkpt lat="44.11422" lon="6.34646">
        <ele>1170.4</ele>
        <time>2019-06-23T11:09:49.000Z</time>
      </trkpt>
      <trkpt lat="44.11421" lon="6.34649">
        <ele>1171</ele>
        <time>2019-06-23T11:09:51.000Z</time>
      </trkpt>
      <trkpt lat="44.1142" lon="6.3465">
        <ele>1171.2</ele>
        <time>2019-06-23T11:09:52.000Z</time>
      </trkpt>
      <trkpt lat="44.11419" lon="6.34651">
        <ele>1171.4</ele>
        <time>2019-06-23T11:09:53.000Z</time>
      </trkpt>
      <trkpt lat="44.11417" lon="6.34653">
        <ele>1172.4</ele>
        <time>2019-06-23T11:09:55.000Z</time>
      </trkpt>
      <trkpt lat="44.11415" lon="6.34654">
        <ele>1173.2</ele>
        <time>2019-06-23T11:09:57.000Z</time>
      </trkpt>
      <trkpt lat="44.11413" lon="6.34656">
        <ele>1173.4</ele>
        <time>2019-06-23T11:09:59.000Z</time>
      </trkpt>
      <trkpt lat="44.11408" lon="6.34661">
        <ele>1174.8</ele>
        <time>2019-06-23T11:10:03.000Z</time>
      </trkpt>
      <trkpt lat="44.11406" lon="6.34663">
        <ele>1175</ele>
        <time>2019-06-23T11:10:05.000Z</time>
      </trkpt>
      <trkpt lat="44.11403" lon="6.34666">
        <ele>1176.2</ele>
        <time>2019-06-23T11:10:08.000Z</time>
      </trkpt>
      <trkpt lat="44.11399" lon="6.34669">
        <ele>1177.4</ele>
        <time>2019-06-23T11:10:11.000Z</time>
      </trkpt>
      <trkpt lat="44.11397" lon="6.34671">
        <ele>1177.8</ele>
        <time>2019-06-23T11:10:13.000Z</time>
      </trkpt>
      <trkpt lat="44.11395" lon="6.34671">
        <ele>1178.4</ele>
        <time>2019-06-23T11:10:14.000Z</time>
      </trkpt>
      <trkpt lat="44.11389" lon="6.34676">
        <ele>1179.6</ele>
        <time>2019-06-23T11:10:19.000Z</time>
      </trkpt>
      <trkpt lat="44.11385" lon="6.3468">
        <ele>1180.6</ele>
        <time>2019-06-23T11:10:22.000Z</time>
      </trkpt>
      <trkpt lat="44.11384" lon="6.34681">
        <ele>1180.8</ele>
        <time>2019-06-23T11:10:23.000Z</time>
      </trkpt>
      <trkpt lat="44.11381" lon="6.34685">
        <ele>1181.8</ele>
        <time>2019-06-23T11:10:26.000Z</time>
      </trkpt>
      <trkpt lat="44.11376" lon="6.3469">
        <ele>1182.8</ele>
        <time>2019-06-23T11:10:30.000Z</time>
      </trkpt>
      <trkpt lat="44.11374" lon="6.34693">
        <ele>1183.6</ele>
        <time>2019-06-23T11:10:32.000Z</time>
      </trkpt>
      <trkpt lat="44.11373" lon="6.34694">
        <ele>1184</ele>
        <time>2019-06-23T11:10:33.000Z</time>
      </trkpt>
      <trkpt lat="44.11369" lon="6.34697">
        <ele>1185.2</ele>
        <time>2019-06-23T11:10:36.000Z</time>
      </trkpt>
      <trkpt lat="44.11365" lon="6.34699">
        <ele>1186.4</ele>
        <time>2019-06-23T11:10:39.000Z</time>
      </trkpt>
      <trkpt lat="44.11362" lon="6.347">
        <ele>1187.8</ele>
        <time>2019-06-23T11:10:42.000Z</time>
      </trkpt>
      <trkpt lat="44.1136" lon="6.34703">
        <ele>1189</ele>
        <time>2019-06-23T11:10:45.000Z</time>
      </trkpt>
      <trkpt lat="44.11359" lon="6.34704">
        <ele>1189.4</ele>
        <time>2019-06-23T11:10:46.000Z</time>
      </trkpt>
      <trkpt lat="44.11358" lon="6.34705">
        <ele>1189.6</ele>
        <time>2019-06-23T11:10:47.000Z</time>
      </trkpt>
      <trkpt lat="44.11356" lon="6.34707">
        <ele>1190.2</ele>
        <time>2019-06-23T11:10:49.000Z</time>
      </trkpt>
      <trkpt lat="44.11352" lon="6.34709">
        <ele>1190.6</ele>
        <time>2019-06-23T11:10:51.000Z</time>
      </trkpt>
      <trkpt lat="44.11351" lon="6.3471">
        <ele>1191.4</ele>
        <time>2019-06-23T11:10:53.000Z</time>
      </trkpt>
      <trkpt lat="44.11349" lon="6.34711">
        <ele>1192</ele>
        <time>2019-06-23T11:10:54.000Z</time>
      </trkpt>
      <trkpt lat="44.11348" lon="6.34712">
        <ele>1192.6</ele>
        <time>2019-06-23T11:10:55.000Z</time>
      </trkpt>
      <trkpt lat="44.11344" lon="6.34713">
        <ele>1193.8</ele>
        <time>2019-06-23T11:10:58.000Z</time>
      </trkpt>
      <trkpt lat="44.11342" lon="6.34714">
        <ele>1194</ele>
        <time>2019-06-23T11:11:00.000Z</time>
      </trkpt>
      <trkpt lat="44.11339" lon="6.34716">
        <ele>1194.8</ele>
        <time>2019-06-23T11:11:02.000Z</time>
      </trkpt>
      <trkpt lat="44.11338" lon="6.34716">
        <ele>1195.2</ele>
        <time>2019-06-23T11:11:03.000Z</time>
      </trkpt>
      <trkpt lat="44.11335" lon="6.34717">
        <ele>1196</ele>
        <time>2019-06-23T11:11:05.000Z</time>
      </trkpt>
      <trkpt lat="44.11334" lon="6.34717">
        <ele>1196.4</ele>
        <time>2019-06-23T11:11:06.000Z</time>
      </trkpt>
      <trkpt lat="44.11332" lon="6.34719">
        <ele>1197.4</ele>
        <time>2019-06-23T11:11:08.000Z</time>
      </trkpt>
      <trkpt lat="44.1133" lon="6.3472">
        <ele>1198.6</ele>
        <time>2019-06-23T11:11:10.000Z</time>
      </trkpt>
      <trkpt lat="44.11328" lon="6.34721">
        <ele>1199.8</ele>
        <time>2019-06-23T11:11:13.000Z</time>
      </trkpt>
      <trkpt lat="44.11325" lon="6.34723">
        <ele>1201</ele>
        <time>2019-06-23T11:11:16.000Z</time>
      </trkpt>
      <trkpt lat="44.11323" lon="6.34724">
        <ele>1202</ele>
        <time>2019-06-23T11:11:19.000Z</time>
      </trkpt>
      <trkpt lat="44.11321" lon="6.34724">
        <ele>1202.4</ele>
        <time>2019-06-23T11:11:20.000Z</time>
      </trkpt>
      <trkpt lat="44.11317" lon="6.34728">
        <ele>1203.4</ele>
        <time>2019-06-23T11:11:23.000Z</time>
      </trkpt>
      <trkpt lat="44.11316" lon="6.34731">
        <ele>1204.4</ele>
        <time>2019-06-23T11:11:25.000Z</time>
      </trkpt>
      <trkpt lat="44.11315" lon="6.34732">
        <ele>1204.8</ele>
        <time>2019-06-23T11:11:26.000Z</time>
      </trkpt>
      <trkpt lat="44.11314" lon="6.34734">
        <ele>1205.2</ele>
        <time>2019-06-23T11:11:27.000Z</time>
      </trkpt>
      <trkpt lat="44.11312" lon="6.34735">
        <ele>1206</ele>
        <time>2019-06-23T11:11:29.000Z</time>
      </trkpt>
      <trkpt lat="44.11311" lon="6.34735">
        <ele>1206.4</ele>
        <time>2019-06-23T11:11:30.000Z</time>
      </trkpt>
      <trkpt lat="44.11308" lon="6.34731">
        <ele>1207.4</ele>
        <time>2019-06-23T11:11:33.000Z</time>
      </trkpt>
      <trkpt lat="44.11302" lon="6.34725">
        <ele>1207.8</ele>
        <time>2019-06-23T11:11:38.000Z</time>
      </trkpt>
      <trkpt lat="44.11295" lon="6.34719">
        <ele>1208.4</ele>
        <time>2019-06-23T11:11:44.000Z</time>
      </trkpt>
      <trkpt lat="44.11293" lon="6.34717">
        <ele>1208.8</ele>
        <time>2019-06-23T11:11:46.000Z</time>
      </trkpt>
      <trkpt lat="44.11293" lon="6.34716">
        <ele>1209</ele>
        <time>2019-06-23T11:11:47.000Z</time>
      </trkpt>
      <trkpt lat="44.11288" lon="6.34715">
        <ele>1209.2</ele>
        <time>2019-06-23T11:11:51.000Z</time>
      </trkpt>
      <trkpt lat="44.11284" lon="6.34712">
        <ele>1209.4</ele>
        <time>2019-06-23T11:11:55.000Z</time>
      </trkpt>
      <trkpt lat="44.11279" lon="6.34709">
        <ele>1210</ele>
        <time>2019-06-23T11:11:59.000Z</time>
      </trkpt>
      <trkpt lat="44.11273" lon="6.34706">
        <ele>1210.6</ele>
        <time>2019-06-23T11:12:04.000Z</time>
      </trkpt>
      <trkpt lat="44.11268" lon="6.34705">
        <ele>1211</ele>
        <time>2019-06-23T11:12:08.000Z</time>
      </trkpt>
      <trkpt lat="44.11263" lon="6.34699">
        <ele>1211.8</ele>
        <time>2019-06-23T11:12:13.000Z</time>
      </trkpt>
      <trkpt lat="44.11257" lon="6.34698">
        <ele>1212</ele>
        <time>2019-06-23T11:12:17.000Z</time>
      </trkpt>
      <trkpt lat="44.11254" lon="6.34697">
        <ele>1212.4</ele>
        <time>2019-06-23T11:12:19.000Z</time>
      </trkpt>
      <trkpt lat="44.11252" lon="6.34695">
        <ele>1213</ele>
        <time>2019-06-23T11:12:21.000Z</time>
      </trkpt>
      <trkpt lat="44.1125" lon="6.34695">
        <ele>1213.2</ele>
        <time>2019-06-23T11:12:22.000Z</time>
      </trkpt>
      <trkpt lat="44.11244" lon="6.34696">
        <ele>1213.6</ele>
        <time>2019-06-23T11:12:27.000Z</time>
      </trkpt>
      <trkpt lat="44.11242" lon="6.34697">
        <ele>1214.2</ele>
        <time>2019-06-23T11:12:29.000Z</time>
      </trkpt>
      <trkpt lat="44.1124" lon="6.34698">
        <ele>1214.4</ele>
        <time>2019-06-23T11:12:31.000Z</time>
      </trkpt>
      <trkpt lat="44.11237" lon="6.347">
        <ele>1214.6</ele>
        <time>2019-06-23T11:12:34.000Z</time>
      </trkpt>
      <trkpt lat="44.1123" lon="6.34709">
        <ele>1215.2</ele>
        <time>2019-06-23T11:12:41.000Z</time>
      </trkpt>
      <trkpt lat="44.11229" lon="6.3471">
        <ele>1215.4</ele>
        <time>2019-06-23T11:12:42.000Z</time>
      </trkpt>
      <trkpt lat="44.11228" lon="6.34714">
        <ele>1215.8</ele>
        <time>2019-06-23T11:12:44.000Z</time>
      </trkpt>
      <trkpt lat="44.11225" lon="6.34717">
        <ele>1216.4</ele>
        <time>2019-06-23T11:12:46.000Z</time>
      </trkpt>
      <trkpt lat="44.11224" lon="6.34717">
        <ele>1216.6</ele>
        <time>2019-06-23T11:12:47.000Z</time>
      </trkpt>
      <trkpt lat="44.11221" lon="6.34717">
        <ele>1217</ele>
        <time>2019-06-23T11:12:50.000Z</time>
      </trkpt>
      <trkpt lat="44.11217" lon="6.34717">
        <ele>1217.2</ele>
        <time>2019-06-23T11:12:56.000Z</time>
      </trkpt>
      <trkpt lat="44.11216" lon="6.34717">
        <ele>1217.2</ele>
        <time>2019-06-23T11:12:58.000Z</time>
      </trkpt>
      <trkpt lat="44.11215" lon="6.34719">
        <ele>1217.2</ele>
        <time>2019-06-23T11:13:00.000Z</time>
      </trkpt>
      <trkpt lat="44.11215" lon="6.34721">
        <ele>1217.2</ele>
        <time>2019-06-23T11:13:01.000Z</time>
      </trkpt>
      <trkpt lat="44.11214" lon="6.34722">
        <ele>1217.2</ele>
        <time>2019-06-23T11:13:02.000Z</time>
      </trkpt>
      <trkpt lat="44.11214" lon="6.34722">
        <ele>1217.4</ele>
        <time>2019-06-23T11:13:03.000Z</time>
      </trkpt>
      <trkpt lat="44.11212" lon="6.34722">
        <ele>1217.6</ele>
        <time>2019-06-23T11:13:05.000Z</time>
      </trkpt>
      <trkpt lat="44.11209" lon="6.3472">
        <ele>1218.2</ele>
        <time>2019-06-23T11:13:07.000Z</time>
      </trkpt>
      <trkpt lat="44.11207" lon="6.34722">
        <ele>1218.4</ele>
        <time>2019-06-23T11:13:09.000Z</time>
      </trkpt>
      <trkpt lat="44.11207" lon="6.34723">
        <ele>1218.4</ele>
        <time>2019-06-23T11:13:10.000Z</time>
      </trkpt>
      <trkpt lat="44.11206" lon="6.34724">
        <ele>1218.6</ele>
        <time>2019-06-23T11:13:11.000Z</time>
      </trkpt>
      <trkpt lat="44.11204" lon="6.34724">
        <ele>1218.6</ele>
        <time>2019-06-23T11:13:12.000Z</time>
      </trkpt>
      <trkpt lat="44.11203" lon="6.34724">
        <ele>1218.8</ele>
        <time>2019-06-23T11:13:13.000Z</time>
      </trkpt>
      <trkpt lat="44.11201" lon="6.34723">
        <ele>1218.8</ele>
        <time>2019-06-23T11:13:15.000Z</time>
      </trkpt>
      <trkpt lat="44.11199" lon="6.34725">
        <ele>1218.8</ele>
        <time>2019-06-23T11:13:17.000Z</time>
      </trkpt>
      <trkpt lat="44.11192" lon="6.34733">
        <ele>1219.4</ele>
        <time>2019-06-23T11:13:24.000Z</time>
      </trkpt>
      <trkpt lat="44.11191" lon="6.34734">
        <ele>1219.6</ele>
        <time>2019-06-23T11:13:25.000Z</time>
      </trkpt>
      <trkpt lat="44.11186" lon="6.34739">
        <ele>1220.4</ele>
        <time>2019-06-23T11:13:30.000Z</time>
      </trkpt>
      <trkpt lat="44.11185" lon="6.3474">
        <ele>1220.6</ele>
        <time>2019-06-23T11:13:31.000Z</time>
      </trkpt>
      <trkpt lat="44.11184" lon="6.34741">
        <ele>1220.8</ele>
        <time>2019-06-23T11:13:32.000Z</time>
      </trkpt>
      <trkpt lat="44.11175" lon="6.34743">
        <ele>1221.6</ele>
        <time>2019-06-23T11:13:39.000Z</time>
      </trkpt>
      <trkpt lat="44.11173" lon="6.34745">
        <ele>1221.8</ele>
        <time>2019-06-23T11:13:41.000Z</time>
      </trkpt>
      <trkpt lat="44.11172" lon="6.34746">
        <ele>1221.8</ele>
        <time>2019-06-23T11:13:42.000Z</time>
      </trkpt>
      <trkpt lat="44.1117" lon="6.34746">
        <ele>1222</ele>
        <time>2019-06-23T11:13:44.000Z</time>
      </trkpt>
      <trkpt lat="44.11168" lon="6.34745">
        <ele>1222.2</ele>
        <time>2019-06-23T11:13:46.000Z</time>
      </trkpt>
      <trkpt lat="44.11165" lon="6.34744">
        <ele>1222.2</ele>
        <time>2019-06-23T11:13:48.000Z</time>
      </trkpt>
      <trkpt lat="44.11163" lon="6.34743">
        <ele>1222.6</ele>
        <time>2019-06-23T11:13:50.000Z</time>
      </trkpt>
      <trkpt lat="44.11158" lon="6.34744">
        <ele>1223.2</ele>
        <time>2019-06-23T11:13:54.000Z</time>
      </trkpt>
      <trkpt lat="44.11155" lon="6.34743">
        <ele>1223.4</ele>
        <time>2019-06-23T11:13:57.000Z</time>
      </trkpt>
      <trkpt lat="44.11155" lon="6.34742">
        <ele>1223.6</ele>
        <time>2019-06-23T11:13:58.000Z</time>
      </trkpt>
      <trkpt lat="44.11148" lon="6.34744">
        <ele>1224.6</ele>
        <time>2019-06-23T11:14:03.000Z</time>
      </trkpt>
      <trkpt lat="44.11146" lon="6.34744">
        <ele>1224.8</ele>
        <time>2019-06-23T11:14:04.000Z</time>
      </trkpt>
      <trkpt lat="44.11139" lon="6.34741">
        <ele>1225.6</ele>
        <time>2019-06-23T11:14:10.000Z</time>
      </trkpt>
      <trkpt lat="44.11136" lon="6.3474">
        <ele>1225.8</ele>
        <time>2019-06-23T11:14:12.000Z</time>
      </trkpt>
      <trkpt lat="44.11128" lon="6.34737">
        <ele>1226.8</ele>
        <time>2019-06-23T11:14:18.000Z</time>
      </trkpt>
      <trkpt lat="44.11126" lon="6.34736">
        <ele>1226.8</ele>
        <time>2019-06-23T11:14:20.000Z</time>
      </trkpt>
      <trkpt lat="44.11121" lon="6.34734">
        <ele>1228</ele>
        <time>2019-06-23T11:14:24.000Z</time>
      </trkpt>
      <trkpt lat="44.11119" lon="6.34732">
        <ele>1228.2</ele>
        <time>2019-06-23T11:14:26.000Z</time>
      </trkpt>
      <trkpt lat="44.1111" lon="6.34726">
        <ele>1228.6</ele>
        <time>2019-06-23T11:14:33.000Z</time>
      </trkpt>
      <trkpt lat="44.11107" lon="6.34722">
        <ele>1229.2</ele>
        <time>2019-06-23T11:14:36.000Z</time>
      </trkpt>
      <trkpt lat="44.11103" lon="6.34714">
        <ele>1229.8</ele>
        <time>2019-06-23T11:14:41.000Z</time>
      </trkpt>
      <trkpt lat="44.11101" lon="6.34706">
        <ele>1230.2</ele>
        <time>2019-06-23T11:14:45.000Z</time>
      </trkpt>
      <trkpt lat="44.11101" lon="6.34701">
        <ele>1230.6</ele>
        <time>2019-06-23T11:14:48.000Z</time>
      </trkpt>
      <trkpt lat="44.111" lon="6.34689">
        <ele>1231.4</ele>
        <time>2019-06-23T11:14:55.000Z</time>
      </trkpt>
      <trkpt lat="44.11099" lon="6.34683">
        <ele>1232.2</ele>
        <time>2019-06-23T11:14:59.000Z</time>
      </trkpt>
      <trkpt lat="44.11098" lon="6.34681">
        <ele>1232.4</ele>
        <time>2019-06-23T11:15:00.000Z</time>
      </trkpt>
      <trkpt lat="44.11095" lon="6.34676">
        <ele>1232.8</ele>
        <time>2019-06-23T11:15:03.000Z</time>
      </trkpt>
      <trkpt lat="44.11091" lon="6.34667">
        <ele>1233.4</ele>
        <time>2019-06-23T11:15:09.000Z</time>
      </trkpt>
      <trkpt lat="44.11085" lon="6.34658">
        <ele>1234.4</ele>
        <time>2019-06-23T11:15:15.000Z</time>
      </trkpt>
      <trkpt lat="44.11085" lon="6.34657">
        <ele>1234.4</ele>
        <time>2019-06-23T11:15:16.000Z</time>
      </trkpt>
      <trkpt lat="44.11084" lon="6.34655">
        <ele>1234.6</ele>
        <time>2019-06-23T11:15:17.000Z</time>
      </trkpt>
      <trkpt lat="44.1108" lon="6.34649">
        <ele>1234.8</ele>
        <time>2019-06-23T11:15:21.000Z</time>
      </trkpt>
      <trkpt lat="44.11078" lon="6.34647">
        <ele>1235</ele>
        <time>2019-06-23T11:15:23.000Z</time>
      </trkpt>
      <trkpt lat="44.11075" lon="6.34643">
        <ele>1235.4</ele>
        <time>2019-06-23T11:15:26.000Z</time>
      </trkpt>
      <trkpt lat="44.11074" lon="6.34642">
        <ele>1235.6</ele>
        <time>2019-06-23T11:15:27.000Z</time>
      </trkpt>
      <trkpt lat="44.11066" lon="6.34634">
        <ele>1236.6</ele>
        <time>2019-06-23T11:15:34.000Z</time>
      </trkpt>
      <trkpt lat="44.11064" lon="6.34632">
        <ele>1237.2</ele>
        <time>2019-06-23T11:15:36.000Z</time>
      </trkpt>
      <trkpt lat="44.11062" lon="6.3463">
        <ele>1237.6</ele>
        <time>2019-06-23T11:15:38.000Z</time>
      </trkpt>
      <trkpt lat="44.11054" lon="6.34625">
        <ele>1238.4</ele>
        <time>2019-06-23T11:15:45.000Z</time>
      </trkpt>
      <trkpt lat="44.11053" lon="6.34623">
        <ele>1238.6</ele>
        <time>2019-06-23T11:15:47.000Z</time>
      </trkpt>
      <trkpt lat="44.1105" lon="6.34619">
        <ele>1238.8</ele>
        <time>2019-06-23T11:15:50.000Z</time>
      </trkpt>
      <trkpt lat="44.11048" lon="6.34617">
        <ele>1238.8</ele>
        <time>2019-06-23T11:15:52.000Z</time>
      </trkpt>
      <trkpt lat="44.11046" lon="6.34615">
        <ele>1239.2</ele>
        <time>2019-06-23T11:15:54.000Z</time>
      </trkpt>
      <trkpt lat="44.11042" lon="6.34613">
        <ele>1239.6</ele>
        <time>2019-06-23T11:15:57.000Z</time>
      </trkpt>
      <trkpt lat="44.11041" lon="6.34612">
        <ele>1239.8</ele>
        <time>2019-06-23T11:15:58.000Z</time>
      </trkpt>
      <trkpt lat="44.11041" lon="6.34611">
        <ele>1240</ele>
        <time>2019-06-23T11:15:59.000Z</time>
      </trkpt>
      <trkpt lat="44.11041" lon="6.3461">
        <ele>1240.6</ele>
        <time>2019-06-23T11:16:01.000Z</time>
      </trkpt>
      <trkpt lat="44.1104" lon="6.3461">
        <ele>1240.6</ele>
        <time>2019-06-23T11:16:02.000Z</time>
      </trkpt>
      <trkpt lat="44.1104" lon="6.34609">
        <ele>1240.6</ele>
        <time>2019-06-23T11:16:07.000Z</time>
      </trkpt>
      <trkpt lat="44.1104" lon="6.34609">
        <ele>1240.4</ele>
        <time>2019-06-23T11:16:11.000Z</time>
      </trkpt>
      <trkpt lat="44.11039" lon="6.34609">
        <ele>1240.4</ele>
        <time>2019-06-23T11:16:12.000Z</time>
      </trkpt>
      <trkpt lat="44.1104" lon="6.34609">
        <ele>1240.6</ele>
        <time>2019-06-23T11:16:28.000Z</time>
      </trkpt>
      <trkpt lat="44.11039" lon="6.34609">
        <ele>1241</ele>
        <time>2019-06-23T11:16:51.000Z</time>
      </trkpt>
      <trkpt lat="44.11039" lon="6.3461">
        <ele>1240.8</ele>
        <time>2019-06-23T11:17:18.000Z</time>
      </trkpt>
      <trkpt lat="44.11039" lon="6.3461">
        <ele>1240.8</ele>
        <time>2019-06-23T11:17:45.000Z</time>
      </trkpt>
      <trkpt lat="44.1104" lon="6.34609">
        <ele>1240.8</ele>
        <time>2019-06-23T11:18:05.000Z</time>
      </trkpt>
      <trkpt lat="44.1104" lon="6.34609">
        <ele>1240.8</ele>
        <time>2019-06-23T11:18:06.000Z</time>
      </trkpt>
      <trkpt lat="44.1104" lon="6.34609">
        <ele>1240.8</ele>
        <time>2019-06-23T11:18:07.000Z</time>
      </trkpt>
      <trkpt lat="44.11042" lon="6.34612">
        <ele>1240.8</ele>
        <time>2019-06-23T11:18:11.000Z</time>
      </trkpt>
      <trkpt lat="44.11046" lon="6.34615">
        <ele>1240.8</ele>
        <time>2019-06-23T11:18:13.000Z</time>
      </trkpt>
      <trkpt lat="44.11052" lon="6.34621">
        <ele>1240.8</ele>
        <time>2019-06-23T11:18:15.000Z</time>
      </trkpt>
      <trkpt lat="44.11059" lon="6.34627">
        <ele>1240.6</ele>
        <time>2019-06-23T11:18:17.000Z</time>
      </trkpt>
      <trkpt lat="44.11066" lon="6.34633">
        <ele>1239.8</ele>
        <time>2019-06-23T11:18:19.000Z</time>
      </trkpt>
      <trkpt lat="44.11069" lon="6.34635">
        <ele>1239.6</ele>
        <time>2019-06-23T11:18:20.000Z</time>
      </trkpt>
      <trkpt lat="44.11077" lon="6.34645">
        <ele>1238.4</ele>
        <time>2019-06-23T11:18:23.000Z</time>
      </trkpt>
      <trkpt lat="44.11081" lon="6.34651">
        <ele>1237.4</ele>
        <time>2019-06-23T11:18:25.000Z</time>
      </trkpt>
      <trkpt lat="44.11082" lon="6.34653">
        <ele>1237</ele>
        <time>2019-06-23T11:18:26.000Z</time>
      </trkpt>
      <trkpt lat="44.11085" lon="6.34658">
        <ele>1236.2</ele>
        <time>2019-06-23T11:18:28.000Z</time>
      </trkpt>
      <trkpt lat="44.11088" lon="6.34663">
        <ele>1235.4</ele>
        <time>2019-06-23T11:18:31.000Z</time>
      </trkpt>
      <trkpt lat="44.11088" lon="6.34665">
        <ele>1235</ele>
        <time>2019-06-23T11:18:32.000Z</time>
      </trkpt>
      <trkpt lat="44.11088" lon="6.34666">
        <ele>1234.6</ele>
        <time>2019-06-23T11:18:39.000Z</time>
      </trkpt>
      <trkpt lat="44.11088" lon="6.34667">
        <ele>1234.4</ele>
        <time>2019-06-23T11:18:59.000Z</time>
      </trkpt>
      <trkpt lat="44.11088" lon="6.34666">
        <ele>1234</ele>
        <time>2019-06-23T11:19:07.000Z</time>
      </trkpt>
      <trkpt lat="44.11088" lon="6.34666">
        <ele>1234</ele>
        <time>2019-06-23T11:19:31.000Z</time>
      </trkpt>
      <trkpt lat="44.11087" lon="6.34666">
        <ele>1234</ele>
        <time>2019-06-23T11:19:32.000Z</time>
      </trkpt>
      <trkpt lat="44.11087" lon="6.34666">
        <ele>1234</ele>
        <time>2019-06-23T11:19:33.000Z</time>
      </trkpt>
      <trkpt lat="44.11086" lon="6.34665">
        <ele>1234.2</ele>
        <time>2019-06-23T11:19:35.000Z</time>
      </trkpt>
      <trkpt lat="44.11083" lon="6.3466">
        <ele>1234.2</ele>
        <time>2019-06-23T11:19:41.000Z</time>
      </trkpt>
      <trkpt lat="44.11081" lon="6.34656">
        <ele>1234.4</ele>
        <time>2019-06-23T11:19:43.000Z</time>
      </trkpt>
      <trkpt lat="44.1108" lon="6.34651">
        <ele>1234.4</ele>
        <time>2019-06-23T11:19:45.000Z</time>
      </trkpt>
      <trkpt lat="44.11077" lon="6.34646">
        <ele>1235.2</ele>
        <time>2019-06-23T11:19:48.000Z</time>
      </trkpt>
      <trkpt lat="44.11076" lon="6.34645">
        <ele>1235.4</ele>
        <time>2019-06-23T11:19:49.000Z</time>
      </trkpt>
      <trkpt lat="44.11074" lon="6.34642">
        <ele>1235.8</ele>
        <time>2019-06-23T11:19:51.000Z</time>
      </trkpt>
      <trkpt lat="44.11072" lon="6.34639">
        <ele>1236.2</ele>
        <time>2019-06-23T11:19:53.000Z</time>
      </trkpt>
      <trkpt lat="44.11068" lon="6.34635">
        <ele>1236.8</ele>
        <time>2019-06-23T11:19:56.000Z</time>
      </trkpt>
      <trkpt lat="44.11062" lon="6.3463">
        <ele>1237.2</ele>
        <time>2019-06-23T11:20:01.000Z</time>
      </trkpt>
      <trkpt lat="44.11059" lon="6.34628">
        <ele>1237.6</ele>
        <time>2019-06-23T11:20:03.000Z</time>
      </trkpt>
      <trkpt lat="44.11053" lon="6.34623">
        <ele>1238.4</ele>
        <time>2019-06-23T11:20:08.000Z</time>
      </trkpt>
      <trkpt lat="44.11052" lon="6.34622">
        <ele>1238.6</ele>
        <time>2019-06-23T11:20:09.000Z</time>
      </trkpt>
      <trkpt lat="44.11047" lon="6.34617">
        <ele>1239.6</ele>
        <time>2019-06-23T11:20:13.000Z</time>
      </trkpt>
      <trkpt lat="44.11046" lon="6.34615">
        <ele>1240</ele>
        <time>2019-06-23T11:20:15.000Z</time>
      </trkpt>
      <trkpt lat="44.11045" lon="6.34614">
        <ele>1240.2</ele>
        <time>2019-06-23T11:20:16.000Z</time>
      </trkpt>
      <trkpt lat="44.11042" lon="6.34612">
        <ele>1240.6</ele>
        <time>2019-06-23T11:20:19.000Z</time>
      </trkpt>
      <trkpt lat="44.11041" lon="6.34611">
        <ele>1240.6</ele>
        <time>2019-06-23T11:20:20.000Z</time>
      </trkpt>
      <trkpt lat="44.11035" lon="6.34603">
        <ele>1241.2</ele>
        <time>2019-06-23T11:20:27.000Z</time>
      </trkpt>
      <trkpt lat="44.11032" lon="6.34598">
        <ele>1241.6</ele>
        <time>2019-06-23T11:20:30.000Z</time>
      </trkpt>
      <trkpt lat="44.11027" lon="6.34592">
        <ele>1242</ele>
        <time>2019-06-23T11:20:34.000Z</time>
      </trkpt>
      <trkpt lat="44.11023" lon="6.34585">
        <ele>1242.6</ele>
        <time>2019-06-23T11:20:38.000Z</time>
      </trkpt>
      <trkpt lat="44.1102" lon="6.3458">
        <ele>1243.2</ele>
        <time>2019-06-23T11:20:41.000Z</time>
      </trkpt>
      <trkpt lat="44.11018" lon="6.34577">
        <ele>1243.6</ele>
        <time>2019-06-23T11:20:43.000Z</time>
      </trkpt>
      <trkpt lat="44.11017" lon="6.34575">
        <ele>1243.8</ele>
        <time>2019-06-23T11:20:44.000Z</time>
      </trkpt>
      <trkpt lat="44.11013" lon="6.34569">
        <ele>1244.8</ele>
        <time>2019-06-23T11:20:48.000Z</time>
      </trkpt>
      <trkpt lat="44.11011" lon="6.34563">
        <ele>1245</ele>
        <time>2019-06-23T11:20:51.000Z</time>
      </trkpt>
      <trkpt lat="44.1101" lon="6.34561">
        <ele>1245.2</ele>
        <time>2019-06-23T11:20:52.000Z</time>
      </trkpt>
      <trkpt lat="44.11009" lon="6.34558">
        <ele>1245.4</ele>
        <time>2019-06-23T11:20:53.000Z</time>
      </trkpt>
      <trkpt lat="44.11007" lon="6.3455">
        <ele>1245.8</ele>
        <time>2019-06-23T11:20:57.000Z</time>
      </trkpt>
      <trkpt lat="44.11005" lon="6.34544">
        <ele>1246.4</ele>
        <time>2019-06-23T11:21:00.000Z</time>
      </trkpt>
      <trkpt lat="44.11001" lon="6.3453">
        <ele>1247</ele>
        <time>2019-06-23T11:21:06.000Z</time>
      </trkpt>
      <trkpt lat="44.10998" lon="6.34524">
        <ele>1247.4</ele>
        <time>2019-06-23T11:21:09.000Z</time>
      </trkpt>
      <trkpt lat="44.10995" lon="6.34516">
        <ele>1248</ele>
        <time>2019-06-23T11:21:13.000Z</time>
      </trkpt>
      <trkpt lat="44.10993" lon="6.34509">
        <ele>1248.6</ele>
        <time>2019-06-23T11:21:16.000Z</time>
      </trkpt>
      <trkpt lat="44.10991" lon="6.34506">
        <ele>1249</ele>
        <time>2019-06-23T11:21:18.000Z</time>
      </trkpt>
      <trkpt lat="44.10987" lon="6.345">
        <ele>1249.4</ele>
        <time>2019-06-23T11:21:22.000Z</time>
      </trkpt>
      <trkpt lat="44.10984" lon="6.34497">
        <ele>1250</ele>
        <time>2019-06-23T11:21:24.000Z</time>
      </trkpt>
      <trkpt lat="44.10983" lon="6.34496">
        <ele>1250.2</ele>
        <time>2019-06-23T11:21:25.000Z</time>
      </trkpt>
      <trkpt lat="44.10977" lon="6.34487">
        <ele>1251.2</ele>
        <time>2019-06-23T11:21:31.000Z</time>
      </trkpt>
      <trkpt lat="44.10976" lon="6.34485">
        <ele>1251.4</ele>
        <time>2019-06-23T11:21:32.000Z</time>
      </trkpt>
      <trkpt lat="44.10969" lon="6.34476">
        <ele>1252.6</ele>
        <time>2019-06-23T11:21:38.000Z</time>
      </trkpt>
      <trkpt lat="44.10968" lon="6.34474">
        <ele>1252.8</ele>
        <time>2019-06-23T11:21:39.000Z</time>
      </trkpt>
      <trkpt lat="44.10964" lon="6.34469">
        <ele>1253.4</ele>
        <time>2019-06-23T11:21:42.000Z</time>
      </trkpt>
      <trkpt lat="44.10963" lon="6.34468">
        <ele>1253.8</ele>
        <time>2019-06-23T11:21:43.000Z</time>
      </trkpt>
      <trkpt lat="44.10959" lon="6.34462">
        <ele>1254.4</ele>
        <time>2019-06-23T11:21:47.000Z</time>
      </trkpt>
      <trkpt lat="44.10955" lon="6.34457">
        <ele>1254.8</ele>
        <time>2019-06-23T11:21:50.000Z</time>
      </trkpt>
      <trkpt lat="44.10953" lon="6.34453">
        <ele>1255.2</ele>
        <time>2019-06-23T11:21:52.000Z</time>
      </trkpt>
      <trkpt lat="44.10949" lon="6.34448">
        <ele>1255.8</ele>
        <time>2019-06-23T11:21:55.000Z</time>
      </trkpt>
      <trkpt lat="44.10944" lon="6.34441">
        <ele>1256.8</ele>
        <time>2019-06-23T11:21:59.000Z</time>
      </trkpt>
      <trkpt lat="44.10943" lon="6.34439">
        <ele>1257</ele>
        <time>2019-06-23T11:22:00.000Z</time>
      </trkpt>
      <trkpt lat="44.10941" lon="6.34438">
        <ele>1257</ele>
        <time>2019-06-23T11:22:01.000Z</time>
      </trkpt>
      <trkpt lat="44.10937" lon="6.34431">
        <ele>1258</ele>
        <time>2019-06-23T11:22:05.000Z</time>
      </trkpt>
      <trkpt lat="44.10933" lon="6.34427">
        <ele>1258.6</ele>
        <time>2019-06-23T11:22:08.000Z</time>
      </trkpt>
      <trkpt lat="44.10932" lon="6.34426">
        <ele>1258.6</ele>
        <time>2019-06-23T11:22:09.000Z</time>
      </trkpt>
      <trkpt lat="44.10928" lon="6.34421">
        <ele>1259</ele>
        <time>2019-06-23T11:22:12.000Z</time>
      </trkpt>
      <trkpt lat="44.10927" lon="6.3442">
        <ele>1259.2</ele>
        <time>2019-06-23T11:22:13.000Z</time>
      </trkpt>
      <trkpt lat="44.1092" lon="6.34411">
        <ele>1260</ele>
        <time>2019-06-23T11:22:18.000Z</time>
      </trkpt>
      <trkpt lat="44.10917" lon="6.34408">
        <ele>1260.4</ele>
        <time>2019-06-23T11:22:20.000Z</time>
      </trkpt>
      <trkpt lat="44.10913" lon="6.34402">
        <ele>1261.2</ele>
        <time>2019-06-23T11:22:23.000Z</time>
      </trkpt>
      <trkpt lat="44.10907" lon="6.34394">
        <ele>1262</ele>
        <time>2019-06-23T11:22:28.000Z</time>
      </trkpt>
      <trkpt lat="44.10905" lon="6.34393">
        <ele>1262.2</ele>
        <time>2019-06-23T11:22:29.000Z</time>
      </trkpt>
      <trkpt lat="44.10896" lon="6.34382">
        <ele>1263.4</ele>
        <time>2019-06-23T11:22:36.000Z</time>
      </trkpt>
      <trkpt lat="44.10893" lon="6.34379">
        <ele>1263.6</ele>
        <time>2019-06-23T11:22:38.000Z</time>
      </trkpt>
      <trkpt lat="44.10892" lon="6.34378">
        <ele>1263.6</ele>
        <time>2019-06-23T11:22:39.000Z</time>
      </trkpt>
      <trkpt lat="44.10889" lon="6.34375">
        <ele>1264.2</ele>
        <time>2019-06-23T11:22:41.000Z</time>
      </trkpt>
      <trkpt lat="44.10888" lon="6.34373">
        <ele>1264.4</ele>
        <time>2019-06-23T11:22:42.000Z</time>
      </trkpt>
      <trkpt lat="44.10885" lon="6.3437">
        <ele>1265.2</ele>
        <time>2019-06-23T11:22:44.000Z</time>
      </trkpt>
      <trkpt lat="44.10884" lon="6.34369">
        <ele>1265.2</ele>
        <time>2019-06-23T11:22:45.000Z</time>
      </trkpt>
      <trkpt lat="44.10881" lon="6.34366">
        <ele>1265.6</ele>
        <time>2019-06-23T11:22:47.000Z</time>
      </trkpt>
      <trkpt lat="44.1088" lon="6.34365">
        <ele>1265.6</ele>
        <time>2019-06-23T11:22:48.000Z</time>
      </trkpt>
      <trkpt lat="44.10875" lon="6.34362">
        <ele>1266.6</ele>
        <time>2019-06-23T11:22:51.000Z</time>
      </trkpt>
      <trkpt lat="44.10873" lon="6.34361">
        <ele>1266.8</ele>
        <time>2019-06-23T11:22:52.000Z</time>
      </trkpt>
      <trkpt lat="44.10867" lon="6.34357">
        <ele>1267.8</ele>
        <time>2019-06-23T11:22:56.000Z</time>
      </trkpt>
      <trkpt lat="44.10863" lon="6.34354">
        <ele>1268.6</ele>
        <time>2019-06-23T11:22:59.000Z</time>
      </trkpt>
      <trkpt lat="44.10861" lon="6.34353">
        <ele>1268.8</ele>
        <time>2019-06-23T11:23:00.000Z</time>
      </trkpt>
      <trkpt lat="44.10859" lon="6.34352">
        <ele>1269</ele>
        <time>2019-06-23T11:23:01.000Z</time>
      </trkpt>
      <trkpt lat="44.10856" lon="6.3435">
        <ele>1269.4</ele>
        <time>2019-06-23T11:23:03.000Z</time>
      </trkpt>
      <trkpt lat="44.10855" lon="6.34348">
        <ele>1269.6</ele>
        <time>2019-06-23T11:23:04.000Z</time>
      </trkpt>
      <trkpt lat="44.10852" lon="6.34346">
        <ele>1270</ele>
        <time>2019-06-23T11:23:06.000Z</time>
      </trkpt>
      <trkpt lat="44.10849" lon="6.34343">
        <ele>1270.2</ele>
        <time>2019-06-23T11:23:08.000Z</time>
      </trkpt>
      <trkpt lat="44.10843" lon="6.34338">
        <ele>1271.2</ele>
        <time>2019-06-23T11:23:12.000Z</time>
      </trkpt>
      <trkpt lat="44.10832" lon="6.34329">
        <ele>1272.2</ele>
        <time>2019-06-23T11:23:19.000Z</time>
      </trkpt>
      <trkpt lat="44.10828" lon="6.34327">
        <ele>1272.6</ele>
        <time>2019-06-23T11:23:22.000Z</time>
      </trkpt>
      <trkpt lat="44.10823" lon="6.34325">
        <ele>1273.2</ele>
        <time>2019-06-23T11:23:25.000Z</time>
      </trkpt>
      <trkpt lat="44.10822" lon="6.34325">
        <ele>1273.4</ele>
        <time>2019-06-23T11:23:26.000Z</time>
      </trkpt>
      <trkpt lat="44.10818" lon="6.34321">
        <ele>1274</ele>
        <time>2019-06-23T11:23:30.000Z</time>
      </trkpt>
      <trkpt lat="44.10818" lon="6.34321">
        <ele>1274</ele>
        <time>2019-06-23T11:23:32.000Z</time>
      </trkpt>
      <trkpt lat="44.10818" lon="6.34321">
        <ele>1274</ele>
        <time>2019-06-23T11:23:33.000Z</time>
      </trkpt>
      <trkpt lat="44.10817" lon="6.34322">
        <ele>1274</ele>
        <time>2019-06-23T11:23:36.000Z</time>
      </trkpt>
      <trkpt lat="44.10818" lon="6.34322">
        <ele>1274</ele>
        <time>2019-06-23T11:23:40.000Z</time>
      </trkpt>
      <trkpt lat="44.10818" lon="6.34322">
        <ele>1274</ele>
        <time>2019-06-23T11:23:43.000Z</time>
      </trkpt>
      <trkpt lat="44.10818" lon="6.34322">
        <ele>1274</ele>
        <time>2019-06-23T11:23:45.000Z</time>
      </trkpt>
      <trkpt lat="44.10818" lon="6.34323">
        <ele>1273.8</ele>
        <time>2019-06-23T11:23:51.000Z</time>
      </trkpt>
      <trkpt lat="44.10818" lon="6.34323">
        <ele>1273.6</ele>
        <time>2019-06-23T11:23:52.000Z</time>
      </trkpt>
      <trkpt lat="44.10818" lon="6.34323">
        <ele>1273.6</ele>
        <time>2019-06-23T11:23:53.000Z</time>
      </trkpt>
      <trkpt lat="44.10818" lon="6.34323">
        <ele>1273.6</ele>
        <time>2019-06-23T11:23:54.000Z</time>
      </trkpt>
      <trkpt lat="44.10818" lon="6.34323">
        <ele>1273.6</ele>
        <time>2019-06-23T11:23:56.000Z</time>
      </trkpt>
      <trkpt lat="44.10818" lon="6.34319">
        <ele>1273.8</ele>
        <time>2019-06-23T11:24:00.000Z</time>
      </trkpt>
      <trkpt lat="44.10818" lon="6.34319">
        <ele>1273.6</ele>
        <time>2019-06-23T11:24:03.000Z</time>
      </trkpt>
      <trkpt lat="44.10818" lon="6.34319">
        <ele>1273.4</ele>
        <time>2019-06-23T11:24:15.000Z</time>
      </trkpt>
      <trkpt lat="44.10818" lon="6.34318">
        <ele>1272.8</ele>
        <time>2019-06-23T11:24:48.000Z</time>
      </trkpt>
      <trkpt lat="44.10818" lon="6.34318">
        <ele>1272.8</ele>
        <time>2019-06-23T11:24:51.000Z</time>
      </trkpt>
      <trkpt lat="44.10818" lon="6.34317">
        <ele>1272.8</ele>
        <time>2019-06-23T11:25:08.000Z</time>
      </trkpt>
      <trkpt lat="44.10818" lon="6.34316">
        <ele>1272.6</ele>
        <time>2019-06-23T11:25:44.000Z</time>
      </trkpt>
      <trkpt lat="44.10818" lon="6.34316">
        <ele>1272.6</ele>
        <time>2019-06-23T11:26:27.000Z</time>
      </trkpt>
      <trkpt lat="44.10819" lon="6.34315">
        <ele>1272.6</ele>
        <time>2019-06-23T11:26:38.000Z</time>
      </trkpt>
      <trkpt lat="44.10819" lon="6.34315">
        <ele>1272.6</ele>
        <time>2019-06-23T11:26:39.000Z</time>
      </trkpt>
      <trkpt lat="44.10819" lon="6.34316">
        <ele>1272.6</ele>
        <time>2019-06-23T11:26:49.000Z</time>
      </trkpt>
      <trkpt lat="44.10819" lon="6.34316">
        <ele>1272.6</ele>
        <time>2019-06-23T11:26:52.000Z</time>
      </trkpt>
      <trkpt lat="44.10819" lon="6.34316">
        <ele>1272.6</ele>
        <time>2019-06-23T11:27:00.000Z</time>
      </trkpt>
      <trkpt lat="44.10818" lon="6.34316">
        <ele>1272.6</ele>
        <time>2019-06-23T11:27:20.000Z</time>
      </trkpt>
      <trkpt lat="44.10818" lon="6.34315">
        <ele>1272.6</ele>
        <time>2019-06-23T11:27:28.000Z</time>
      </trkpt>
      <trkpt lat="44.10816" lon="6.3431">
        <ele>1272.6</ele>
        <time>2019-06-23T11:27:30.000Z</time>
      </trkpt>
      <trkpt lat="44.10812" lon="6.34293">
        <ele>1272.6</ele>
        <time>2019-06-23T11:27:33.000Z</time>
      </trkpt>
      <trkpt lat="44.10809" lon="6.34285">
        <ele>1272.6</ele>
        <time>2019-06-23T11:27:34.000Z</time>
      </trkpt>
      <trkpt lat="44.10807" lon="6.34279">
        <ele>1272.2</ele>
        <time>2019-06-23T11:27:35.000Z</time>
      </trkpt>
      <trkpt lat="44.10808" lon="6.34275">
        <ele>1271.4</ele>
        <time>2019-06-23T11:27:36.000Z</time>
      </trkpt>
      <trkpt lat="44.10811" lon="6.34273">
        <ele>1270.2</ele>
        <time>2019-06-23T11:27:37.000Z</time>
      </trkpt>
      <trkpt lat="44.10815" lon="6.34274">
        <ele>1269</ele>
        <time>2019-06-23T11:27:38.000Z</time>
      </trkpt>
      <trkpt lat="44.1082" lon="6.34275">
        <ele>1267.8</ele>
        <time>2019-06-23T11:27:39.000Z</time>
      </trkpt>
      <trkpt lat="44.10825" lon="6.34277">
        <ele>1266.8</ele>
        <time>2019-06-23T11:27:40.000Z</time>
      </trkpt>
      <trkpt lat="44.10841" lon="6.34283">
        <ele>1265.4</ele>
        <time>2019-06-23T11:27:42.000Z</time>
      </trkpt>
      <trkpt lat="44.1085" lon="6.34286">
        <ele>1264.6</ele>
        <time>2019-06-23T11:27:43.000Z</time>
      </trkpt>
      <trkpt lat="44.10859" lon="6.34289">
        <ele>1263.8</ele>
        <time>2019-06-23T11:27:44.000Z</time>
      </trkpt>
      <trkpt lat="44.10865" lon="6.3429">
        <ele>1262.8</ele>
        <time>2019-06-23T11:27:45.000Z</time>
      </trkpt>
      <trkpt lat="44.10869" lon="6.34289">
        <ele>1261.6</ele>
        <time>2019-06-23T11:27:46.000Z</time>
      </trkpt>
      <trkpt lat="44.1087" lon="6.34286">
        <ele>1260.2</ele>
        <time>2019-06-23T11:27:47.000Z</time>
      </trkpt>
      <trkpt lat="44.10868" lon="6.34282">
        <ele>1259</ele>
        <time>2019-06-23T11:27:48.000Z</time>
      </trkpt>
      <trkpt lat="44.10865" lon="6.34278">
        <ele>1257.8</ele>
        <time>2019-06-23T11:27:49.000Z</time>
      </trkpt>
      <trkpt lat="44.10862" lon="6.34275">
        <ele>1256.6</ele>
        <time>2019-06-23T11:27:50.000Z</time>
      </trkpt>
      <trkpt lat="44.10858" lon="6.34271">
        <ele>1255.6</ele>
        <time>2019-06-23T11:27:51.000Z</time>
      </trkpt>
      <trkpt lat="44.10849" lon="6.34266">
        <ele>1254.6</ele>
        <time>2019-06-23T11:27:53.000Z</time>
      </trkpt>
      <trkpt lat="44.10845" lon="6.34263">
        <ele>1254.4</ele>
        <time>2019-06-23T11:27:54.000Z</time>
      </trkpt>
      <trkpt lat="44.10842" lon="6.34261">
        <ele>1254.4</ele>
        <time>2019-06-23T11:27:55.000Z</time>
      </trkpt>
      <trkpt lat="44.10826" lon="6.34254">
        <ele>1254.6</ele>
        <time>2019-06-23T11:27:59.000Z</time>
      </trkpt>
      <trkpt lat="44.10821" lon="6.34253">
        <ele>1254.6</ele>
        <time>2019-06-23T11:28:00.000Z</time>
      </trkpt>
      <trkpt lat="44.10812" lon="6.34253">
        <ele>1255</ele>
        <time>2019-06-23T11:28:02.000Z</time>
      </trkpt>
      <trkpt lat="44.108" lon="6.34245">
        <ele>1254.8</ele>
        <time>2019-06-23T11:28:04.000Z</time>
      </trkpt>
      <trkpt lat="44.1077" lon="6.34229">
        <ele>1253.2</ele>
        <time>2019-06-23T11:28:09.000Z</time>
      </trkpt>
      <trkpt lat="44.10752" lon="6.34219">
        <ele>1251.8</ele>
        <time>2019-06-23T11:28:12.000Z</time>
      </trkpt>
      <trkpt lat="44.10739" lon="6.3421">
        <ele>1250.6</ele>
        <time>2019-06-23T11:28:14.000Z</time>
      </trkpt>
      <trkpt lat="44.10733" lon="6.34206">
        <ele>1250.2</ele>
        <time>2019-06-23T11:28:15.000Z</time>
      </trkpt>
      <trkpt lat="44.10721" lon="6.34198">
        <ele>1249.6</ele>
        <time>2019-06-23T11:28:17.000Z</time>
      </trkpt>
      <trkpt lat="44.10715" lon="6.34194">
        <ele>1249.4</ele>
        <time>2019-06-23T11:28:18.000Z</time>
      </trkpt>
      <trkpt lat="44.10704" lon="6.34185">
        <ele>1248.8</ele>
        <time>2019-06-23T11:28:20.000Z</time>
      </trkpt>
      <trkpt lat="44.10699" lon="6.3418">
        <ele>1248.6</ele>
        <time>2019-06-23T11:28:21.000Z</time>
      </trkpt>
      <trkpt lat="44.10687" lon="6.3417">
        <ele>1247.4</ele>
        <time>2019-06-23T11:28:23.000Z</time>
      </trkpt>
      <trkpt lat="44.10676" lon="6.34158">
        <ele>1246.4</ele>
        <time>2019-06-23T11:28:25.000Z</time>
      </trkpt>
      <trkpt lat="44.1067" lon="6.34153">
        <ele>1245.8</ele>
        <time>2019-06-23T11:28:26.000Z</time>
      </trkpt>
      <trkpt lat="44.10666" lon="6.34151">
        <ele>1245</ele>
        <time>2019-06-23T11:28:27.000Z</time>
      </trkpt>
      <trkpt lat="44.10663" lon="6.34153">
        <ele>1244.2</ele>
        <time>2019-06-23T11:28:28.000Z</time>
      </trkpt>
      <trkpt lat="44.10661" lon="6.34156">
        <ele>1243.6</ele>
        <time>2019-06-23T11:28:29.000Z</time>
      </trkpt>
      <trkpt lat="44.10659" lon="6.34167">
        <ele>1242.6</ele>
        <time>2019-06-23T11:28:31.000Z</time>
      </trkpt>
      <trkpt lat="44.10658" lon="6.34173">
        <ele>1242.4</ele>
        <time>2019-06-23T11:28:32.000Z</time>
      </trkpt>
      <trkpt lat="44.10656" lon="6.34179">
        <ele>1242</ele>
        <time>2019-06-23T11:28:33.000Z</time>
      </trkpt>
      <trkpt lat="44.10653" lon="6.34186">
        <ele>1241.8</ele>
        <time>2019-06-23T11:28:34.000Z</time>
      </trkpt>
      <trkpt lat="44.10644" lon="6.34197">
        <ele>1241.4</ele>
        <time>2019-06-23T11:28:36.000Z</time>
      </trkpt>
      <trkpt lat="44.10639" lon="6.342">
        <ele>1241.2</ele>
        <time>2019-06-23T11:28:37.000Z</time>
      </trkpt>
      <trkpt lat="44.10635" lon="6.34199">
        <ele>1241</ele>
        <time>2019-06-23T11:28:38.000Z</time>
      </trkpt>
      <trkpt lat="44.10626" lon="6.34194">
        <ele>1240.2</ele>
        <time>2019-06-23T11:28:40.000Z</time>
      </trkpt>
      <trkpt lat="44.10621" lon="6.34194">
        <ele>1239.2</ele>
        <time>2019-06-23T11:28:41.000Z</time>
      </trkpt>
      <trkpt lat="44.10616" lon="6.34197">
        <ele>1237.8</ele>
        <time>2019-06-23T11:28:42.000Z</time>
      </trkpt>
      <trkpt lat="44.10611" lon="6.34201">
        <ele>1236.6</ele>
        <time>2019-06-23T11:28:43.000Z</time>
      </trkpt>
      <trkpt lat="44.10606" lon="6.34206">
        <ele>1235.8</ele>
        <time>2019-06-23T11:28:44.000Z</time>
      </trkpt>
      <trkpt lat="44.10601" lon="6.34208">
        <ele>1235.2</ele>
        <time>2019-06-23T11:28:45.000Z</time>
      </trkpt>
      <trkpt lat="44.10597" lon="6.34208">
        <ele>1235</ele>
        <time>2019-06-23T11:28:46.000Z</time>
      </trkpt>
      <trkpt lat="44.10593" lon="6.34207">
        <ele>1234.6</ele>
        <time>2019-06-23T11:28:47.000Z</time>
      </trkpt>
      <trkpt lat="44.10589" lon="6.34207">
        <ele>1234</ele>
        <time>2019-06-23T11:28:48.000Z</time>
      </trkpt>
      <trkpt lat="44.10576" lon="6.34213">
        <ele>1232.8</ele>
        <time>2019-06-23T11:28:51.000Z</time>
      </trkpt>
      <trkpt lat="44.10571" lon="6.34212">
        <ele>1232.4</ele>
        <time>2019-06-23T11:28:52.000Z</time>
      </trkpt>
      <trkpt lat="44.1056" lon="6.34211">
        <ele>1231.2</ele>
        <time>2019-06-23T11:28:54.000Z</time>
      </trkpt>
      <trkpt lat="44.10553" lon="6.34212">
        <ele>1229.6</ele>
        <time>2019-06-23T11:28:56.000Z</time>
      </trkpt>
      <trkpt lat="44.10554" lon="6.34211">
        <ele>1229</ele>
        <time>2019-06-23T11:28:57.000Z</time>
      </trkpt>
      <trkpt lat="44.10557" lon="6.34209">
        <ele>1228.4</ele>
        <time>2019-06-23T11:28:58.000Z</time>
      </trkpt>
      <trkpt lat="44.10566" lon="6.34206">
        <ele>1227</ele>
        <time>2019-06-23T11:29:00.000Z</time>
      </trkpt>
      <trkpt lat="44.10571" lon="6.34205">
        <ele>1226.4</ele>
        <time>2019-06-23T11:29:01.000Z</time>
      </trkpt>
      <trkpt lat="44.10575" lon="6.34202">
        <ele>1226</ele>
        <time>2019-06-23T11:29:02.000Z</time>
      </trkpt>
      <trkpt lat="44.10579" lon="6.34199">
        <ele>1225.2</ele>
        <time>2019-06-23T11:29:03.000Z</time>
      </trkpt>
      <trkpt lat="44.10584" lon="6.34196">
        <ele>1224.6</ele>
        <time>2019-06-23T11:29:04.000Z</time>
      </trkpt>
      <trkpt lat="44.10594" lon="6.34191">
        <ele>1223.6</ele>
        <time>2019-06-23T11:29:06.000Z</time>
      </trkpt>
      <trkpt lat="44.10604" lon="6.34186">
        <ele>1222.4</ele>
        <time>2019-06-23T11:29:08.000Z</time>
      </trkpt>
      <trkpt lat="44.10612" lon="6.34175">
        <ele>1221.2</ele>
        <time>2019-06-23T11:29:10.000Z</time>
      </trkpt>
      <trkpt lat="44.10622" lon="6.3417">
        <ele>1219.6</ele>
        <time>2019-06-23T11:29:12.000Z</time>
      </trkpt>
      <trkpt lat="44.10627" lon="6.34167">
        <ele>1218.6</ele>
        <time>2019-06-23T11:29:14.000Z</time>
      </trkpt>
      <trkpt lat="44.10623" lon="6.34163">
        <ele>1217.4</ele>
        <time>2019-06-23T11:29:16.000Z</time>
      </trkpt>
      <trkpt lat="44.10619" lon="6.34162">
        <ele>1216.4</ele>
        <time>2019-06-23T11:29:17.000Z</time>
      </trkpt>
      <trkpt lat="44.10614" lon="6.34161">
        <ele>1215.6</ele>
        <time>2019-06-23T11:29:18.000Z</time>
      </trkpt>
      <trkpt lat="44.10603" lon="6.34166">
        <ele>1214.4</ele>
        <time>2019-06-23T11:29:20.000Z</time>
      </trkpt>
      <trkpt lat="44.10597" lon="6.34168">
        <ele>1213.8</ele>
        <time>2019-06-23T11:29:21.000Z</time>
      </trkpt>
      <trkpt lat="44.10585" lon="6.34168">
        <ele>1213.2</ele>
        <time>2019-06-23T11:29:23.000Z</time>
      </trkpt>
      <trkpt lat="44.1058" lon="6.34165">
        <ele>1212.8</ele>
        <time>2019-06-23T11:29:24.000Z</time>
      </trkpt>
      <trkpt lat="44.1057" lon="6.34158">
        <ele>1211.4</ele>
        <time>2019-06-23T11:29:26.000Z</time>
      </trkpt>
      <trkpt lat="44.10564" lon="6.34155">
        <ele>1210.2</ele>
        <time>2019-06-23T11:29:27.000Z</time>
      </trkpt>
      <trkpt lat="44.10562" lon="6.34153">
        <ele>1209.2</ele>
        <time>2019-06-23T11:29:28.000Z</time>
      </trkpt>
      <trkpt lat="44.10563" lon="6.34148">
        <ele>1208.4</ele>
        <time>2019-06-23T11:29:29.000Z</time>
      </trkpt>
      <trkpt lat="44.10566" lon="6.34145">
        <ele>1207.8</ele>
        <time>2019-06-23T11:29:30.000Z</time>
      </trkpt>
      <trkpt lat="44.10576" lon="6.34132">
        <ele>1206</ele>
        <time>2019-06-23T11:29:32.000Z</time>
      </trkpt>
      <trkpt lat="44.10583" lon="6.3413">
        <ele>1205</ele>
        <time>2019-06-23T11:29:33.000Z</time>
      </trkpt>
      <trkpt lat="44.10594" lon="6.34123">
        <ele>1203.2</ele>
        <time>2019-06-23T11:29:35.000Z</time>
      </trkpt>
      <trkpt lat="44.10597" lon="6.34122">
        <ele>1202.2</ele>
        <time>2019-06-23T11:29:36.000Z</time>
      </trkpt>
      <trkpt lat="44.10597" lon="6.34122">
        <ele>1201.4</ele>
        <time>2019-06-23T11:29:37.000Z</time>
      </trkpt>
      <trkpt lat="44.10595" lon="6.34122">
        <ele>1200.4</ele>
        <time>2019-06-23T11:29:38.000Z</time>
      </trkpt>
      <trkpt lat="44.1059" lon="6.34118">
        <ele>1199</ele>
        <time>2019-06-23T11:29:39.000Z</time>
      </trkpt>
      <trkpt lat="44.10584" lon="6.34117">
        <ele>1197.8</ele>
        <time>2019-06-23T11:29:40.000Z</time>
      </trkpt>
      <trkpt lat="44.10578" lon="6.34116">
        <ele>1197</ele>
        <time>2019-06-23T11:29:41.000Z</time>
      </trkpt>
      <trkpt lat="44.10571" lon="6.34116">
        <ele>1196.4</ele>
        <time>2019-06-23T11:29:42.000Z</time>
      </trkpt>
      <trkpt lat="44.10564" lon="6.34111">
        <ele>1195.8</ele>
        <time>2019-06-23T11:29:43.000Z</time>
      </trkpt>
      <trkpt lat="44.10561" lon="6.3411">
        <ele>1195.4</ele>
        <time>2019-06-23T11:29:44.000Z</time>
      </trkpt>
      <trkpt lat="44.1056" lon="6.3411">
        <ele>1195</ele>
        <time>2019-06-23T11:29:45.000Z</time>
      </trkpt>
      <trkpt lat="44.10559" lon="6.3411">
        <ele>1194.6</ele>
        <time>2019-06-23T11:29:46.000Z</time>
      </trkpt>
      <trkpt lat="44.10558" lon="6.34111">
        <ele>1194.2</ele>
        <time>2019-06-23T11:29:47.000Z</time>
      </trkpt>
      <trkpt lat="44.10555" lon="6.34114">
        <ele>1194</ele>
        <time>2019-06-23T11:29:50.000Z</time>
      </trkpt>
      <trkpt lat="44.10555" lon="6.34113">
        <ele>1193.8</ele>
        <time>2019-06-23T11:29:51.000Z</time>
      </trkpt>
      <trkpt lat="44.10554" lon="6.34113">
        <ele>1193.8</ele>
        <time>2019-06-23T11:29:52.000Z</time>
      </trkpt>
      <trkpt lat="44.10554" lon="6.34113">
        <ele>1193.8</ele>
        <time>2019-06-23T11:29:53.000Z</time>
      </trkpt>
      <trkpt lat="44.10552" lon="6.34115">
        <ele>1193.6</ele>
        <time>2019-06-23T11:29:55.000Z</time>
      </trkpt>
      <trkpt lat="44.10552" lon="6.34115">
        <ele>1193.4</ele>
        <time>2019-06-23T11:29:56.000Z</time>
      </trkpt>
      <trkpt lat="44.10552" lon="6.34115">
        <ele>1193.4</ele>
        <time>2019-06-23T11:29:57.000Z</time>
      </trkpt>
      <trkpt lat="44.10553" lon="6.34114">
        <ele>1193.4</ele>
        <time>2019-06-23T11:29:58.000Z</time>
      </trkpt>
      <trkpt lat="44.1055" lon="6.34097">
        <ele>1193.6</ele>
        <time>2019-06-23T11:30:03.000Z</time>
      </trkpt>
      <trkpt lat="44.10546" lon="6.3409">
        <ele>1193.8</ele>
        <time>2019-06-23T11:30:06.000Z</time>
      </trkpt>
      <trkpt lat="44.10546" lon="6.34089">
        <ele>1193.8</ele>
        <time>2019-06-23T11:30:07.000Z</time>
      </trkpt>
      <trkpt lat="44.10545" lon="6.34088">
        <ele>1194</ele>
        <time>2019-06-23T11:30:08.000Z</time>
      </trkpt>
      <trkpt lat="44.10545" lon="6.34086">
        <ele>1194.2</ele>
        <time>2019-06-23T11:30:09.000Z</time>
      </trkpt>
      <trkpt lat="44.10546" lon="6.34079">
        <ele>1194.4</ele>
        <time>2019-06-23T11:30:11.000Z</time>
      </trkpt>
      <trkpt lat="44.1055" lon="6.34071">
        <ele>1193.6</ele>
        <time>2019-06-23T11:30:13.000Z</time>
      </trkpt>
      <trkpt lat="44.1055" lon="6.34068">
        <ele>1192.6</ele>
        <time>2019-06-23T11:30:14.000Z</time>
      </trkpt>
      <trkpt lat="44.10545" lon="6.34065">
        <ele>1191</ele>
        <time>2019-06-23T11:30:16.000Z</time>
      </trkpt>
      <trkpt lat="44.10542" lon="6.34066">
        <ele>1190.4</ele>
        <time>2019-06-23T11:30:17.000Z</time>
      </trkpt>
      <trkpt lat="44.10541" lon="6.34065">
        <ele>1190.2</ele>
        <time>2019-06-23T11:30:18.000Z</time>
      </trkpt>
      <trkpt lat="44.10538" lon="6.34065">
        <ele>1189.8</ele>
        <time>2019-06-23T11:30:19.000Z</time>
      </trkpt>
      <trkpt lat="44.10531" lon="6.34066">
        <ele>1189.4</ele>
        <time>2019-06-23T11:30:21.000Z</time>
      </trkpt>
      <trkpt lat="44.10528" lon="6.34066">
        <ele>1189</ele>
        <time>2019-06-23T11:30:22.000Z</time>
      </trkpt>
      <trkpt lat="44.10527" lon="6.34062">
        <ele>1188.8</ele>
        <time>2019-06-23T11:30:23.000Z</time>
      </trkpt>
      <trkpt lat="44.10527" lon="6.34056">
        <ele>1188.6</ele>
        <time>2019-06-23T11:30:24.000Z</time>
      </trkpt>
      <trkpt lat="44.10525" lon="6.34051">
        <ele>1188.2</ele>
        <time>2019-06-23T11:30:25.000Z</time>
      </trkpt>
      <trkpt lat="44.10521" lon="6.34046">
        <ele>1187.4</ele>
        <time>2019-06-23T11:30:27.000Z</time>
      </trkpt>
      <trkpt lat="44.10519" lon="6.34041">
        <ele>1187</ele>
        <time>2019-06-23T11:30:28.000Z</time>
      </trkpt>
      <trkpt lat="44.10518" lon="6.34036">
        <ele>1186.4</ele>
        <time>2019-06-23T11:30:29.000Z</time>
      </trkpt>
      <trkpt lat="44.10517" lon="6.34033">
        <ele>1185.8</ele>
        <time>2019-06-23T11:30:30.000Z</time>
      </trkpt>
      <trkpt lat="44.10518" lon="6.34032">
        <ele>1185.2</ele>
        <time>2019-06-23T11:30:31.000Z</time>
      </trkpt>
      <trkpt lat="44.10517" lon="6.34028">
        <ele>1184.6</ele>
        <time>2019-06-23T11:30:34.000Z</time>
      </trkpt>
      <trkpt lat="44.10517" lon="6.34027">
        <ele>1184.8</ele>
        <time>2019-06-23T11:30:35.000Z</time>
      </trkpt>
      <trkpt lat="44.10517" lon="6.34026">
        <ele>1185</ele>
        <time>2019-06-23T11:30:36.000Z</time>
      </trkpt>
      <trkpt lat="44.10522" lon="6.34015">
        <ele>1186</ele>
        <time>2019-06-23T11:30:40.000Z</time>
      </trkpt>
      <trkpt lat="44.10523" lon="6.34012">
        <ele>1186.2</ele>
        <time>2019-06-23T11:30:41.000Z</time>
      </trkpt>
      <trkpt lat="44.10526" lon="6.34009">
        <ele>1186.2</ele>
        <time>2019-06-23T11:30:42.000Z</time>
      </trkpt>
      <trkpt lat="44.10531" lon="6.34007">
        <ele>1185.6</ele>
        <time>2019-06-23T11:30:44.000Z</time>
      </trkpt>
      <trkpt lat="44.10534" lon="6.34005">
        <ele>1185.4</ele>
        <time>2019-06-23T11:30:45.000Z</time>
      </trkpt>
      <trkpt lat="44.10537" lon="6.33994">
        <ele>1184.2</ele>
        <time>2019-06-23T11:30:47.000Z</time>
      </trkpt>
      <trkpt lat="44.10537" lon="6.33989">
        <ele>1183.4</ele>
        <time>2019-06-23T11:30:48.000Z</time>
      </trkpt>
      <trkpt lat="44.10536" lon="6.33977">
        <ele>1181.6</ele>
        <time>2019-06-23T11:30:50.000Z</time>
      </trkpt>
      <trkpt lat="44.10534" lon="6.33969">
        <ele>1181.2</ele>
        <time>2019-06-23T11:30:51.000Z</time>
      </trkpt>
      <trkpt lat="44.10531" lon="6.33963">
        <ele>1180.4</ele>
        <time>2019-06-23T11:30:52.000Z</time>
      </trkpt>
      <trkpt lat="44.10529" lon="6.33954">
        <ele>1179.6</ele>
        <time>2019-06-23T11:30:53.000Z</time>
      </trkpt>
      <trkpt lat="44.10527" lon="6.33946">
        <ele>1178.8</ele>
        <time>2019-06-23T11:30:54.000Z</time>
      </trkpt>
      <trkpt lat="44.10524" lon="6.33935">
        <ele>1178</ele>
        <time>2019-06-23T11:30:55.000Z</time>
      </trkpt>
      <trkpt lat="44.10522" lon="6.33931">
        <ele>1177.2</ele>
        <time>2019-06-23T11:30:56.000Z</time>
      </trkpt>
      <trkpt lat="44.10519" lon="6.33926">
        <ele>1176.6</ele>
        <time>2019-06-23T11:30:57.000Z</time>
      </trkpt>
      <trkpt lat="44.10516" lon="6.33923">
        <ele>1176.2</ele>
        <time>2019-06-23T11:30:58.000Z</time>
      </trkpt>
      <trkpt lat="44.10511" lon="6.33917">
        <ele>1176</ele>
        <time>2019-06-23T11:31:01.000Z</time>
      </trkpt>
      <trkpt lat="44.10505" lon="6.33903">
        <ele>1177.6</ele>
        <time>2019-06-23T11:31:06.000Z</time>
      </trkpt>
      <trkpt lat="44.10507" lon="6.33894">
        <ele>1178.8</ele>
        <time>2019-06-23T11:31:09.000Z</time>
      </trkpt>
      <trkpt lat="44.10507" lon="6.33888">
        <ele>1179.2</ele>
        <time>2019-06-23T11:35:03.000Z</time>
        <extensions>
          <visugpx:TrkExtension xmlns:visugpx="https://www.visugpx.com/editgpx/">
            <visugpx:node>1</visugpx:node>
            </visugpx:TrkExtension>
        </extensions>
      </trkpt>
      <trkpt lat="44.10504" lon="6.3389">
        <ele>1179.8</ele>
        <time>2019-06-23T11:35:06.000Z</time>
      </trkpt>
      <trkpt lat="44.10503" lon="6.3389">
        <ele>1180</ele>
        <time>2019-06-23T11:35:07.000Z</time>
      </trkpt>
      <trkpt lat="44.10501" lon="6.33887">
        <ele>1180.6</ele>
        <time>2019-06-23T11:35:10.000Z</time>
      </trkpt>
      <trkpt lat="44.105" lon="6.33886">
        <ele>1181</ele>
        <time>2019-06-23T11:35:11.000Z</time>
      </trkpt>
      <trkpt lat="44.10498" lon="6.33884">
        <ele>1181.6</ele>
        <time>2019-06-23T11:35:13.000Z</time>
      </trkpt>
      <trkpt lat="44.10497" lon="6.33882">
        <ele>1182.2</ele>
        <time>2019-06-23T11:35:15.000Z</time>
      </trkpt>
      <trkpt lat="44.10496" lon="6.33882">
        <ele>1182.4</ele>
        <time>2019-06-23T11:35:16.000Z</time>
      </trkpt>
      <trkpt lat="44.10494" lon="6.33881">
        <ele>1182.8</ele>
        <time>2019-06-23T11:35:17.000Z</time>
      </trkpt>
      <trkpt lat="44.10493" lon="6.33881">
        <ele>1183</ele>
        <time>2019-06-23T11:35:18.000Z</time>
      </trkpt>
      <trkpt lat="44.10492" lon="6.33881">
        <ele>1183.4</ele>
        <time>2019-06-23T11:35:19.000Z</time>
      </trkpt>
      <trkpt lat="44.10491" lon="6.33881">
        <ele>1183.8</ele>
        <time>2019-06-23T11:35:20.000Z</time>
      </trkpt>
      <trkpt lat="44.10489" lon="6.33882">
        <ele>1184.6</ele>
        <time>2019-06-23T11:35:22.000Z</time>
      </trkpt>
      <trkpt lat="44.10485" lon="6.33881">
        <ele>1185.2</ele>
        <time>2019-06-23T11:35:25.000Z</time>
      </trkpt>
      <trkpt lat="44.10481" lon="6.33879">
        <ele>1185.8</ele>
        <time>2019-06-23T11:35:28.000Z</time>
      </trkpt>
      <trkpt lat="44.1048" lon="6.33878">
        <ele>1186</ele>
        <time>2019-06-23T11:35:29.000Z</time>
      </trkpt>
      <trkpt lat="44.10479" lon="6.33876">
        <ele>1186.2</ele>
        <time>2019-06-23T11:35:31.000Z</time>
      </trkpt>
      <trkpt lat="44.1048" lon="6.33875">
        <ele>1186.2</ele>
        <time>2019-06-23T11:35:32.000Z</time>
      </trkpt>
      <trkpt lat="44.1048" lon="6.3387">
        <ele>1186.8</ele>
        <time>2019-06-23T11:35:34.000Z</time>
      </trkpt>
      <trkpt lat="44.10483" lon="6.33863">
        <ele>1187.6</ele>
        <time>2019-06-23T11:35:37.000Z</time>
      </trkpt>
      <trkpt lat="44.10484" lon="6.33859">
        <ele>1188</ele>
        <time>2019-06-23T11:35:39.000Z</time>
      </trkpt>
      <trkpt lat="44.10486" lon="6.33851">
        <ele>1189</ele>
        <time>2019-06-23T11:35:43.000Z</time>
      </trkpt>
      <trkpt lat="44.10487" lon="6.33848">
        <ele>1189.8</ele>
        <time>2019-06-23T11:35:45.000Z</time>
      </trkpt>
      <trkpt lat="44.10487" lon="6.33846">
        <ele>1190.2</ele>
        <time>2019-06-23T11:35:46.000Z</time>
      </trkpt>
      <trkpt lat="44.10485" lon="6.33843">
        <ele>1190.4</ele>
        <time>2019-06-23T11:35:48.000Z</time>
      </trkpt>
      <trkpt lat="44.10484" lon="6.33842">
        <ele>1190.4</ele>
        <time>2019-06-23T11:35:49.000Z</time>
      </trkpt>
      <trkpt lat="44.10482" lon="6.33843">
        <ele>1190.6</ele>
        <time>2019-06-23T11:35:50.000Z</time>
      </trkpt>
      <trkpt lat="44.10481" lon="6.33845">
        <ele>1190.8</ele>
        <time>2019-06-23T11:35:51.000Z</time>
      </trkpt>
      <trkpt lat="44.10479" lon="6.33848">
        <ele>1191.2</ele>
        <time>2019-06-23T11:35:53.000Z</time>
      </trkpt>
      <trkpt lat="44.10476" lon="6.3385">
        <ele>1191.6</ele>
        <time>2019-06-23T11:35:55.000Z</time>
      </trkpt>
      <trkpt lat="44.10472" lon="6.33852">
        <ele>1192.4</ele>
        <time>2019-06-23T11:35:58.000Z</time>
      </trkpt>
      <trkpt lat="44.10469" lon="6.33855">
        <ele>1192.6</ele>
        <time>2019-06-23T11:36:00.000Z</time>
      </trkpt>
      <trkpt lat="44.10463" lon="6.33862">
        <ele>1193.4</ele>
        <time>2019-06-23T11:36:05.000Z</time>
      </trkpt>
      <trkpt lat="44.10459" lon="6.33867">
        <ele>1194.4</ele>
        <time>2019-06-23T11:36:09.000Z</time>
      </trkpt>
      <trkpt lat="44.10458" lon="6.33869">
        <ele>1194.6</ele>
        <time>2019-06-23T11:36:10.000Z</time>
      </trkpt>
      <trkpt lat="44.10455" lon="6.33878">
        <ele>1196</ele>
        <time>2019-06-23T11:36:15.000Z</time>
      </trkpt>
      <trkpt lat="44.10454" lon="6.3388">
        <ele>1196.2</ele>
        <time>2019-06-23T11:36:16.000Z</time>
      </trkpt>
      <trkpt lat="44.10452" lon="6.33888">
        <ele>1197.2</ele>
        <time>2019-06-23T11:36:20.000Z</time>
      </trkpt>
      <trkpt lat="44.10451" lon="6.3389">
        <ele>1197.4</ele>
        <time>2019-06-23T11:36:21.000Z</time>
      </trkpt>
      <trkpt lat="44.10449" lon="6.33896">
        <ele>1198.4</ele>
        <time>2019-06-23T11:36:24.000Z</time>
      </trkpt>
      <trkpt lat="44.10448" lon="6.33896">
        <ele>1198.8</ele>
        <time>2019-06-23T11:36:25.000Z</time>
      </trkpt>
      <trkpt lat="44.10447" lon="6.33896">
        <ele>1199</ele>
        <time>2019-06-23T11:36:26.000Z</time>
      </trkpt>
      <trkpt lat="44.10446" lon="6.33894">
        <ele>1199.4</ele>
        <time>2019-06-23T11:36:27.000Z</time>
      </trkpt>
      <trkpt lat="44.10446" lon="6.33889">
        <ele>1200.2</ele>
        <time>2019-06-23T11:36:30.000Z</time>
      </trkpt>
      <trkpt lat="44.10447" lon="6.33886">
        <ele>1200.4</ele>
        <time>2019-06-23T11:36:32.000Z</time>
      </trkpt>
      <trkpt lat="44.10447" lon="6.33878">
        <ele>1201.4</ele>
        <time>2019-06-23T11:36:36.000Z</time>
      </trkpt>
      <trkpt lat="44.10447" lon="6.33877">
        <ele>1201.8</ele>
        <time>2019-06-23T11:36:37.000Z</time>
      </trkpt>
      <trkpt lat="44.10447" lon="6.33871">
        <ele>1202.6</ele>
        <time>2019-06-23T11:36:40.000Z</time>
      </trkpt>
      <trkpt lat="44.10447" lon="6.33869">
        <ele>1202.8</ele>
        <time>2019-06-23T11:36:41.000Z</time>
      </trkpt>
      <trkpt lat="44.10447" lon="6.33868">
        <ele>1203</ele>
        <time>2019-06-23T11:36:42.000Z</time>
      </trkpt>
      <trkpt lat="44.10446" lon="6.33865">
        <ele>1203.2</ele>
        <time>2019-06-23T11:36:43.000Z</time>
      </trkpt>
      <trkpt lat="44.10445" lon="6.33857">
        <ele>1204</ele>
        <time>2019-06-23T11:36:46.000Z</time>
      </trkpt>
      <trkpt lat="44.10444" lon="6.3385">
        <ele>1204.6</ele>
        <time>2019-06-23T11:36:49.000Z</time>
      </trkpt>
      <trkpt lat="44.10441" lon="6.33843">
        <ele>1205</ele>
        <time>2019-06-23T11:36:52.000Z</time>
      </trkpt>
      <trkpt lat="44.10441" lon="6.33841">
        <ele>1205.2</ele>
        <time>2019-06-23T11:36:53.000Z</time>
      </trkpt>
      <trkpt lat="44.10438" lon="6.33834">
        <ele>1206.2</ele>
        <time>2019-06-23T11:36:57.000Z</time>
      </trkpt>
      <trkpt lat="44.10437" lon="6.33832">
        <ele>1206.6</ele>
        <time>2019-06-23T11:36:58.000Z</time>
      </trkpt>
      <trkpt lat="44.10435" lon="6.33831">
        <ele>1207.2</ele>
        <time>2019-06-23T11:36:59.000Z</time>
      </trkpt>
      <trkpt lat="44.10429" lon="6.33825">
        <ele>1208</ele>
        <time>2019-06-23T11:37:04.000Z</time>
      </trkpt>
      <trkpt lat="44.10425" lon="6.33823">
        <ele>1208.4</ele>
        <time>2019-06-23T11:37:06.000Z</time>
      </trkpt>
      <trkpt lat="44.10417" lon="6.33817">
        <ele>1209.2</ele>
        <time>2019-06-23T11:37:11.000Z</time>
      </trkpt>
      <trkpt lat="44.10416" lon="6.33816">
        <ele>1209.4</ele>
        <time>2019-06-23T11:37:12.000Z</time>
      </trkpt>
      <trkpt lat="44.10415" lon="6.33815">
        <ele>1209.4</ele>
        <time>2019-06-23T11:37:13.000Z</time>
      </trkpt>
      <trkpt lat="44.10413" lon="6.3381">
        <ele>1209.6</ele>
        <time>2019-06-23T11:37:15.000Z</time>
      </trkpt>
      <trkpt lat="44.10411" lon="6.33808">
        <ele>1209.6</ele>
        <time>2019-06-23T11:37:16.000Z</time>
      </trkpt>
      <trkpt lat="44.10408" lon="6.33804">
        <ele>1210.6</ele>
        <time>2019-06-23T11:37:19.000Z</time>
      </trkpt>
      <trkpt lat="44.10406" lon="6.33802">
        <ele>1211.2</ele>
        <time>2019-06-23T11:37:21.000Z</time>
      </trkpt>
      <trkpt lat="44.10405" lon="6.33801">
        <ele>1211.8</ele>
        <time>2019-06-23T11:37:22.000Z</time>
      </trkpt>
      <trkpt lat="44.10402" lon="6.338">
        <ele>1212.4</ele>
        <time>2019-06-23T11:37:25.000Z</time>
      </trkpt>
      <trkpt lat="44.10401" lon="6.33801">
        <ele>1212.8</ele>
        <time>2019-06-23T11:37:28.000Z</time>
      </trkpt>
      <trkpt lat="44.104" lon="6.338">
        <ele>1212.8</ele>
        <time>2019-06-23T11:37:29.000Z</time>
      </trkpt>
      <trkpt lat="44.104" lon="6.33798">
        <ele>1213</ele>
        <time>2019-06-23T11:37:34.000Z</time>
      </trkpt>
      <trkpt lat="44.104" lon="6.33798">
        <ele>1213</ele>
        <time>2019-06-23T11:37:37.000Z</time>
      </trkpt>
      <trkpt lat="44.104" lon="6.33799">
        <ele>1213.2</ele>
        <time>2019-06-23T11:37:45.000Z</time>
      </trkpt>
      <trkpt lat="44.104" lon="6.33799">
        <ele>1213</ele>
        <time>2019-06-23T11:37:58.000Z</time>
      </trkpt>
      <trkpt lat="44.104" lon="6.33799">
        <ele>1213</ele>
        <time>2019-06-23T11:38:02.000Z</time>
      </trkpt>
      <trkpt lat="44.104" lon="6.33799">
        <ele>1213</ele>
        <time>2019-06-23T11:38:05.000Z</time>
      </trkpt>
      <trkpt lat="44.10399" lon="6.33798">
        <ele>1213</ele>
        <time>2019-06-23T11:38:07.000Z</time>
      </trkpt>
      <trkpt lat="44.10399" lon="6.33798">
        <ele>1213.2</ele>
        <time>2019-06-23T11:38:12.000Z</time>
      </trkpt>
      <trkpt lat="44.10398" lon="6.33798">
        <ele>1213.6</ele>
        <time>2019-06-23T11:38:34.000Z</time>
      </trkpt>
      <trkpt lat="44.10399" lon="6.33799">
        <ele>1213.6</ele>
        <time>2019-06-23T11:38:38.000Z</time>
      </trkpt>
      <trkpt lat="44.104" lon="6.338">
        <ele>1213.6</ele>
        <time>2019-06-23T11:38:43.000Z</time>
      </trkpt>
      <trkpt lat="44.104" lon="6.338">
        <ele>1213.6</ele>
        <time>2019-06-23T11:38:44.000Z</time>
      </trkpt>
      <trkpt lat="44.104" lon="6.33799">
        <ele>1213.6</ele>
        <time>2019-06-23T11:38:58.000Z</time>
      </trkpt>
      <trkpt lat="44.10397" lon="6.3379">
        <ele>1213.6</ele>
        <time>2019-06-23T11:39:01.000Z</time>
      </trkpt>
      <trkpt lat="44.10396" lon="6.33783">
        <ele>1213.6</ele>
        <time>2019-06-23T11:39:03.000Z</time>
      </trkpt>
      <trkpt lat="44.10394" lon="6.3378">
        <ele>1213.6</ele>
        <time>2019-06-23T11:39:05.000Z</time>
      </trkpt>
      <trkpt lat="44.10393" lon="6.33777">
        <ele>1213</ele>
        <time>2019-06-23T11:39:07.000Z</time>
      </trkpt>
      <trkpt lat="44.10389" lon="6.33769">
        <ele>1212.6</ele>
        <time>2019-06-23T11:39:10.000Z</time>
      </trkpt>
      <trkpt lat="44.10384" lon="6.33765">
        <ele>1213.6</ele>
        <time>2019-06-23T11:39:13.000Z</time>
      </trkpt>
      <trkpt lat="44.10382" lon="6.33763">
        <ele>1213.8</ele>
        <time>2019-06-23T11:39:14.000Z</time>
      </trkpt>
      <trkpt lat="44.1038" lon="6.33762">
        <ele>1214.2</ele>
        <time>2019-06-23T11:39:15.000Z</time>
      </trkpt>
      <trkpt lat="44.10379" lon="6.33761">
        <ele>1214.8</ele>
        <time>2019-06-23T11:39:16.000Z</time>
      </trkpt>
      <trkpt lat="44.10377" lon="6.33758">
        <ele>1215.4</ele>
        <time>2019-06-23T11:39:17.000Z</time>
      </trkpt>
      <trkpt lat="44.10374" lon="6.33755">
        <ele>1216.8</ele>
        <time>2019-06-23T11:39:19.000Z</time>
      </trkpt>
      <trkpt lat="44.10373" lon="6.33755">
        <ele>1217.2</ele>
        <time>2019-06-23T11:39:20.000Z</time>
      </trkpt>
      <trkpt lat="44.10371" lon="6.33754">
        <ele>1217.4</ele>
        <time>2019-06-23T11:39:21.000Z</time>
      </trkpt>
      <trkpt lat="44.10367" lon="6.33751">
        <ele>1218.2</ele>
        <time>2019-06-23T11:39:23.000Z</time>
      </trkpt>
      <trkpt lat="44.10364" lon="6.33749">
        <ele>1219.4</ele>
        <time>2019-06-23T11:39:26.000Z</time>
      </trkpt>
      <trkpt lat="44.10362" lon="6.33748">
        <ele>1220</ele>
        <time>2019-06-23T11:39:27.000Z</time>
      </trkpt>
      <trkpt lat="44.10361" lon="6.33744">
        <ele>1220.4</ele>
        <time>2019-06-23T11:39:28.000Z</time>
      </trkpt>
      <trkpt lat="44.10359" lon="6.33735">
        <ele>1221.6</ele>
        <time>2019-06-23T11:39:32.000Z</time>
      </trkpt>
      <trkpt lat="44.10359" lon="6.33731">
        <ele>1221.8</ele>
        <time>2019-06-23T11:39:33.000Z</time>
      </trkpt>
      <trkpt lat="44.10358" lon="6.33723">
        <ele>1222.4</ele>
        <time>2019-06-23T11:39:36.000Z</time>
      </trkpt>
      <trkpt lat="44.10357" lon="6.3372">
        <ele>1222.6</ele>
        <time>2019-06-23T11:39:37.000Z</time>
      </trkpt>
      <trkpt lat="44.10356" lon="6.33716">
        <ele>1223.2</ele>
        <time>2019-06-23T11:39:39.000Z</time>
      </trkpt>
      <trkpt lat="44.10353" lon="6.33712">
        <ele>1223.6</ele>
        <time>2019-06-23T11:39:41.000Z</time>
      </trkpt>
      <trkpt lat="44.10352" lon="6.33712">
        <ele>1224</ele>
        <time>2019-06-23T11:39:42.000Z</time>
      </trkpt>
      <trkpt lat="44.10348" lon="6.33711">
        <ele>1225</ele>
        <time>2019-06-23T11:39:45.000Z</time>
      </trkpt>
      <trkpt lat="44.10346" lon="6.3371">
        <ele>1225.2</ele>
        <time>2019-06-23T11:39:46.000Z</time>
      </trkpt>
      <trkpt lat="44.10344" lon="6.33708">
        <ele>1225.6</ele>
        <time>2019-06-23T11:39:48.000Z</time>
      </trkpt>
      <trkpt lat="44.1034" lon="6.33706">
        <ele>1225.8</ele>
        <time>2019-06-23T11:39:50.000Z</time>
      </trkpt>
      <trkpt lat="44.10339" lon="6.33705">
        <ele>1226</ele>
        <time>2019-06-23T11:39:51.000Z</time>
      </trkpt>
      <trkpt lat="44.10338" lon="6.33704">
        <ele>1226.2</ele>
        <time>2019-06-23T11:39:52.000Z</time>
      </trkpt>
      <trkpt lat="44.10334" lon="6.33696">
        <ele>1227.4</ele>
        <time>2019-06-23T11:39:56.000Z</time>
      </trkpt>
      <trkpt lat="44.10334" lon="6.33694">
        <ele>1227.6</ele>
        <time>2019-06-23T11:39:57.000Z</time>
      </trkpt>
      <trkpt lat="44.10334" lon="6.33689">
        <ele>1228.6</ele>
        <time>2019-06-23T11:40:00.000Z</time>
      </trkpt>
      <trkpt lat="44.10331" lon="6.33681">
        <ele>1229.6</ele>
        <time>2019-06-23T11:40:04.000Z</time>
      </trkpt>
      <trkpt lat="44.10328" lon="6.33675">
        <ele>1230</ele>
        <time>2019-06-23T11:40:07.000Z</time>
      </trkpt>
      <trkpt lat="44.10326" lon="6.33674">
        <ele>1229.8</ele>
        <time>2019-06-23T11:40:09.000Z</time>
      </trkpt>
      <trkpt lat="44.10325" lon="6.33672">
        <ele>1230</ele>
        <time>2019-06-23T11:40:10.000Z</time>
      </trkpt>
      <trkpt lat="44.10321" lon="6.33665">
        <ele>1230.6</ele>
        <time>2019-06-23T11:40:15.000Z</time>
      </trkpt>
      <trkpt lat="44.10318" lon="6.3366">
        <ele>1231.2</ele>
        <time>2019-06-23T11:40:18.000Z</time>
      </trkpt>
      <trkpt lat="44.10315" lon="6.33657">
        <ele>1231.6</ele>
        <time>2019-06-23T11:40:20.000Z</time>
      </trkpt>
      <trkpt lat="44.10315" lon="6.33656">
        <ele>1231.8</ele>
        <time>2019-06-23T11:40:21.000Z</time>
      </trkpt>
      <trkpt lat="44.10314" lon="6.33649">
        <ele>1232</ele>
        <time>2019-06-23T11:40:24.000Z</time>
      </trkpt>
      <trkpt lat="44.10315" lon="6.33644">
        <ele>1232</ele>
        <time>2019-06-23T11:40:26.000Z</time>
      </trkpt>
      <trkpt lat="44.10315" lon="6.33638">
        <ele>1232.2</ele>
        <time>2019-06-23T11:40:28.000Z</time>
      </trkpt>
      <trkpt lat="44.10315" lon="6.33637">
        <ele>1232.4</ele>
        <time>2019-06-23T11:40:29.000Z</time>
      </trkpt>
      <trkpt lat="44.10314" lon="6.33634">
        <ele>1232.8</ele>
        <time>2019-06-23T11:40:31.000Z</time>
      </trkpt>
      <trkpt lat="44.10314" lon="6.33632">
        <ele>1233</ele>
        <time>2019-06-23T11:40:32.000Z</time>
      </trkpt>
      <trkpt lat="44.10314" lon="6.33631">
        <ele>1233.4</ele>
        <time>2019-06-23T11:40:33.000Z</time>
      </trkpt>
      <trkpt lat="44.10314" lon="6.3363">
        <ele>1233.6</ele>
        <time>2019-06-23T11:40:34.000Z</time>
      </trkpt>
      <trkpt lat="44.10314" lon="6.33628">
        <ele>1234</ele>
        <time>2019-06-23T11:40:35.000Z</time>
      </trkpt>
      <trkpt lat="44.10315" lon="6.33626">
        <ele>1234.8</ele>
        <time>2019-06-23T11:40:37.000Z</time>
      </trkpt>
      <trkpt lat="44.10314" lon="6.33624">
        <ele>1235.2</ele>
        <time>2019-06-23T11:40:38.000Z</time>
      </trkpt>
      <trkpt lat="44.10313" lon="6.3362">
        <ele>1236.2</ele>
        <time>2019-06-23T11:40:41.000Z</time>
      </trkpt>
      <trkpt lat="44.10312" lon="6.3362">
        <ele>1236.4</ele>
        <time>2019-06-23T11:40:42.000Z</time>
      </trkpt>
      <trkpt lat="44.10308" lon="6.33615">
        <ele>1237.6</ele>
        <time>2019-06-23T11:40:47.000Z</time>
      </trkpt>
      <trkpt lat="44.10307" lon="6.33612">
        <ele>1237.6</ele>
        <time>2019-06-23T11:40:48.000Z</time>
      </trkpt>
      <trkpt lat="44.10307" lon="6.33602">
        <ele>1238.2</ele>
        <time>2019-06-23T11:40:53.000Z</time>
      </trkpt>
      <trkpt lat="44.10307" lon="6.336">
        <ele>1238.2</ele>
        <time>2019-06-23T11:40:54.000Z</time>
      </trkpt>
      <trkpt lat="44.10306" lon="6.33597">
        <ele>1238.6</ele>
        <time>2019-06-23T11:40:56.000Z</time>
      </trkpt>
      <trkpt lat="44.10306" lon="6.33596">
        <ele>1238.8</ele>
        <time>2019-06-23T11:40:57.000Z</time>
      </trkpt>
      <trkpt lat="44.10306" lon="6.33597">
        <ele>1239</ele>
        <time>2019-06-23T11:40:58.000Z</time>
      </trkpt>
      <trkpt lat="44.10307" lon="6.33598">
        <ele>1239.6</ele>
        <time>2019-06-23T11:41:00.000Z</time>
      </trkpt>
      <trkpt lat="44.10308" lon="6.33599">
        <ele>1240.2</ele>
        <time>2019-06-23T11:41:03.000Z</time>
      </trkpt>
      <trkpt lat="44.1031" lon="6.33598">
        <ele>1240.8</ele>
        <time>2019-06-23T11:41:07.000Z</time>
      </trkpt>
      <trkpt lat="44.10311" lon="6.33596">
        <ele>1241.2</ele>
        <time>2019-06-23T11:41:10.000Z</time>
      </trkpt>
      <trkpt lat="44.1031" lon="6.33593">
        <ele>1242</ele>
        <time>2019-06-23T11:41:13.000Z</time>
      </trkpt>
      <trkpt lat="44.1031" lon="6.33589">
        <ele>1242.6</ele>
        <time>2019-06-23T11:41:17.000Z</time>
      </trkpt>
      <trkpt lat="44.10311" lon="6.33587">
        <ele>1243.2</ele>
        <time>2019-06-23T11:41:19.000Z</time>
      </trkpt>
      <trkpt lat="44.10316" lon="6.33584">
        <ele>1244.2</ele>
        <time>2019-06-23T11:41:23.000Z</time>
      </trkpt>
      <trkpt lat="44.10315" lon="6.33582">
        <ele>1244.4</ele>
        <time>2019-06-23T11:41:24.000Z</time>
      </trkpt>
      <trkpt lat="44.10314" lon="6.3358">
        <ele>1244.8</ele>
        <time>2019-06-23T11:41:29.000Z</time>
      </trkpt>
      <trkpt lat="44.10313" lon="6.33578">
        <ele>1245.6</ele>
        <time>2019-06-23T11:41:31.000Z</time>
      </trkpt>
      <trkpt lat="44.10317" lon="6.33577">
        <ele>1246.2</ele>
        <time>2019-06-23T11:41:33.000Z</time>
      </trkpt>
      <trkpt lat="44.10319" lon="6.33576">
        <ele>1246.4</ele>
        <time>2019-06-23T11:41:34.000Z</time>
      </trkpt>
      <trkpt lat="44.10322" lon="6.33571">
        <ele>1246.6</ele>
        <time>2019-06-23T11:41:38.000Z</time>
      </trkpt>
      <trkpt lat="44.10325" lon="6.33567">
        <ele>1247</ele>
        <time>2019-06-23T11:41:42.000Z</time>
      </trkpt>
      <trkpt lat="44.10329" lon="6.33564">
        <ele>1247.8</ele>
        <time>2019-06-23T11:41:48.000Z</time>
      </trkpt>
      <trkpt lat="44.10333" lon="6.33564">
        <ele>1247.8</ele>
        <time>2019-06-23T11:41:51.000Z</time>
      </trkpt>
      <trkpt lat="44.10335" lon="6.33564">
        <ele>1248</ele>
        <time>2019-06-23T11:41:53.000Z</time>
      </trkpt>
      <trkpt lat="44.10336" lon="6.33563">
        <ele>1248</ele>
        <time>2019-06-23T11:41:55.000Z</time>
      </trkpt>
      <trkpt lat="44.1034" lon="6.33562">
        <ele>1248.2</ele>
        <time>2019-06-23T11:41:59.000Z</time>
      </trkpt>
      <trkpt lat="44.10341" lon="6.33561">
        <ele>1249</ele>
        <time>2019-06-23T11:42:03.000Z</time>
      </trkpt>
      <trkpt lat="44.10343" lon="6.3356">
        <ele>1249.4</ele>
        <time>2019-06-23T11:42:05.000Z</time>
      </trkpt>
      <trkpt lat="44.10344" lon="6.3356">
        <ele>1249.8</ele>
        <time>2019-06-23T11:42:09.000Z</time>
      </trkpt>
      <trkpt lat="44.10346" lon="6.3356">
        <ele>1250</ele>
        <time>2019-06-23T11:42:11.000Z</time>
      </trkpt>
      <trkpt lat="44.1035" lon="6.33558">
        <ele>1251</ele>
        <time>2019-06-23T11:42:18.000Z</time>
      </trkpt>
      <trkpt lat="44.10353" lon="6.33553">
        <ele>1251.4</ele>
        <time>2019-06-23T11:42:24.000Z</time>
      </trkpt>
      <trkpt lat="44.10352" lon="6.33552">
        <ele>1251.4</ele>
        <time>2019-06-23T11:42:25.000Z</time>
      </trkpt>
      <trkpt lat="44.10348" lon="6.33548">
        <ele>1252</ele>
        <time>2019-06-23T11:42:31.000Z</time>
      </trkpt>
      <trkpt lat="44.10343" lon="6.33547">
        <ele>1253.2</ele>
        <time>2019-06-23T11:42:36.000Z</time>
      </trkpt>
      <trkpt lat="44.1034" lon="6.33545">
        <ele>1253.8</ele>
        <time>2019-06-23T11:42:39.000Z</time>
      </trkpt>
      <trkpt lat="44.1034" lon="6.33544">
        <ele>1253.8</ele>
        <time>2019-06-23T11:42:40.000Z</time>
      </trkpt>
      <trkpt lat="44.10339" lon="6.33543">
        <ele>1254</ele>
        <time>2019-06-23T11:42:41.000Z</time>
      </trkpt>
      <trkpt lat="44.10335" lon="6.33542">
        <ele>1254.2</ele>
        <time>2019-06-23T11:42:44.000Z</time>
      </trkpt>
      <trkpt lat="44.10331" lon="6.33541">
        <ele>1254.6</ele>
        <time>2019-06-23T11:42:47.000Z</time>
      </trkpt>
      <trkpt lat="44.10329" lon="6.3354">
        <ele>1254.8</ele>
        <time>2019-06-23T11:42:49.000Z</time>
      </trkpt>
      <trkpt lat="44.10323" lon="6.33539">
        <ele>1255.4</ele>
        <time>2019-06-23T11:42:54.000Z</time>
      </trkpt>
      <trkpt lat="44.10321" lon="6.33539">
        <ele>1255.6</ele>
        <time>2019-06-23T11:42:56.000Z</time>
      </trkpt>
      <trkpt lat="44.10319" lon="6.33539">
        <ele>1255.8</ele>
        <time>2019-06-23T11:42:58.000Z</time>
      </trkpt>
      <trkpt lat="44.10316" lon="6.33539">
        <ele>1256.4</ele>
        <time>2019-06-23T11:43:01.000Z</time>
      </trkpt>
      <trkpt lat="44.10309" lon="6.33538">
        <ele>1257.4</ele>
        <time>2019-06-23T11:43:07.000Z</time>
      </trkpt>
      <trkpt lat="44.10308" lon="6.33538">
        <ele>1257.4</ele>
        <time>2019-06-23T11:43:08.000Z</time>
      </trkpt>
      <trkpt lat="44.10303" lon="6.33536">
        <ele>1258.4</ele>
        <time>2019-06-23T11:43:14.000Z</time>
      </trkpt>
      <trkpt lat="44.10302" lon="6.33535">
        <ele>1258.6</ele>
        <time>2019-06-23T11:43:15.000Z</time>
      </trkpt>
      <trkpt lat="44.10299" lon="6.33532">
        <ele>1259.6</ele>
        <time>2019-06-23T11:43:19.000Z</time>
      </trkpt>
      <trkpt lat="44.10298" lon="6.3353">
        <ele>1259.8</ele>
        <time>2019-06-23T11:43:22.000Z</time>
      </trkpt>
      <trkpt lat="44.10293" lon="6.33522">
        <ele>1260.8</ele>
        <time>2019-06-23T11:43:29.000Z</time>
      </trkpt>
      <trkpt lat="44.10291" lon="6.33518">
        <ele>1261.4</ele>
        <time>2019-06-23T11:43:32.000Z</time>
      </trkpt>
      <trkpt lat="44.10289" lon="6.33515">
        <ele>1261.6</ele>
        <time>2019-06-23T11:43:35.000Z</time>
      </trkpt>
      <trkpt lat="44.10288" lon="6.33513">
        <ele>1262</ele>
        <time>2019-06-23T11:43:37.000Z</time>
      </trkpt>
      <trkpt lat="44.10286" lon="6.3351">
        <ele>1262.4</ele>
        <time>2019-06-23T11:43:41.000Z</time>
      </trkpt>
      <trkpt lat="44.10286" lon="6.33508">
        <ele>1262.4</ele>
        <time>2019-06-23T11:43:45.000Z</time>
      </trkpt>
      <trkpt lat="44.10286" lon="6.33507">
        <ele>1262.4</ele>
        <time>2019-06-23T11:43:47.000Z</time>
      </trkpt>
      <trkpt lat="44.10287" lon="6.33505">
        <ele>1262.2</ele>
        <time>2019-06-23T11:43:50.000Z</time>
      </trkpt>
      <trkpt lat="44.10288" lon="6.33503">
        <ele>1262.2</ele>
        <time>2019-06-23T11:43:52.000Z</time>
      </trkpt>
      <trkpt lat="44.10289" lon="6.33501">
        <ele>1262</ele>
        <time>2019-06-23T11:43:55.000Z</time>
      </trkpt>
      <trkpt lat="44.10289" lon="6.33494">
        <ele>1261.4</ele>
        <time>2019-06-23T11:44:02.000Z</time>
      </trkpt>
      <trkpt lat="44.1029" lon="6.33487">
        <ele>1261</ele>
        <time>2019-06-23T11:44:10.000Z</time>
      </trkpt>
      <trkpt lat="44.1029" lon="6.33486">
        <ele>1260.8</ele>
        <time>2019-06-23T11:44:11.000Z</time>
      </trkpt>
      <trkpt lat="44.10291" lon="6.33483">
        <ele>1260</ele>
        <time>2019-06-23T11:44:16.000Z</time>
      </trkpt>
      <trkpt lat="44.10292" lon="6.33482">
        <ele>1259.8</ele>
        <time>2019-06-23T11:44:19.000Z</time>
      </trkpt>
      <trkpt lat="44.10292" lon="6.33482">
        <ele>1259.8</ele>
        <time>2019-06-23T11:44:24.000Z</time>
      </trkpt>
      <trkpt lat="44.10295" lon="6.33483">
        <ele>1259.8</ele>
        <time>2019-06-23T11:44:38.000Z</time>
      </trkpt>
      <trkpt lat="44.10295" lon="6.33483">
        <ele>1259.4</ele>
        <time>2019-06-23T11:44:48.000Z</time>
      </trkpt>
      <trkpt lat="44.10296" lon="6.33483">
        <ele>1259.8</ele>
        <time>2019-06-23T11:45:03.000Z</time>
      </trkpt>
      <trkpt lat="44.10296" lon="6.33483">
        <ele>1259.8</ele>
        <time>2019-06-23T11:45:34.000Z</time>
      </trkpt>
      <trkpt lat="44.10294" lon="6.33482">
        <ele>1259.8</ele>
        <time>2019-06-23T11:45:48.000Z</time>
      </trkpt>
      <trkpt lat="44.10293" lon="6.33483">
        <ele>1259.8</ele>
        <time>2019-06-23T11:46:05.000Z</time>
      </trkpt>
      <trkpt lat="44.10293" lon="6.33483">
        <ele>1259.8</ele>
        <time>2019-06-23T11:46:15.000Z</time>
      </trkpt>
      <trkpt lat="44.10294" lon="6.33482">
        <ele>1259.8</ele>
        <time>2019-06-23T11:46:31.000Z</time>
      </trkpt>
      <trkpt lat="44.10295" lon="6.33482">
        <ele>1259.8</ele>
        <time>2019-06-23T11:46:54.000Z</time>
      </trkpt>
      <trkpt lat="44.10295" lon="6.33482">
        <ele>1259.8</ele>
        <time>2019-06-23T11:47:18.000Z</time>
      </trkpt>
      <trkpt lat="44.10296" lon="6.33478">
        <ele>1259.8</ele>
        <time>2019-06-23T11:47:31.000Z</time>
      </trkpt>
      <trkpt lat="44.10297" lon="6.33474">
        <ele>1259.8</ele>
        <time>2019-06-23T11:47:32.000Z</time>
      </trkpt>
      <trkpt lat="44.10298" lon="6.33468">
        <ele>1259.8</ele>
        <time>2019-06-23T11:47:34.000Z</time>
      </trkpt>
      <trkpt lat="44.10301" lon="6.3346">
        <ele>1259.6</ele>
        <time>2019-06-23T11:47:37.000Z</time>
      </trkpt>
      <trkpt lat="44.10302" lon="6.33456">
        <ele>1258.4</ele>
        <time>2019-06-23T11:47:39.000Z</time>
      </trkpt>
      <trkpt lat="44.10302" lon="6.33456">
        <ele>1257.8</ele>
        <time>2019-06-23T11:47:40.000Z</time>
      </trkpt>
      <trkpt lat="44.10302" lon="6.33456">
        <ele>1257.2</ele>
        <time>2019-06-23T11:47:42.000Z</time>
      </trkpt>
      <trkpt lat="44.10302" lon="6.33455">
        <ele>1257</ele>
        <time>2019-06-23T11:47:45.000Z</time>
      </trkpt>
      <trkpt lat="44.10302" lon="6.33456">
        <ele>1257</ele>
        <time>2019-06-23T11:47:59.000Z</time>
      </trkpt>
      <trkpt lat="44.10302" lon="6.33456">
        <ele>1257</ele>
        <time>2019-06-23T11:48:00.000Z</time>
      </trkpt>
      <trkpt lat="44.10305" lon="6.33453">
        <ele>1256.8</ele>
        <time>2019-06-23T11:48:05.000Z</time>
      </trkpt>
      <trkpt lat="44.10307" lon="6.33453">
        <ele>1257.4</ele>
        <time>2019-06-23T11:48:11.000Z</time>
      </trkpt>
      <trkpt lat="44.10308" lon="6.33453">
        <ele>1257.4</ele>
        <time>2019-06-23T11:48:12.000Z</time>
      </trkpt>
      <trkpt lat="44.10308" lon="6.33453">
        <ele>1257.4</ele>
        <time>2019-06-23T11:48:13.000Z</time>
      </trkpt>
      <trkpt lat="44.10308" lon="6.33453">
        <ele>1257.6</ele>
        <time>2019-06-23T11:48:15.000Z</time>
      </trkpt>
      <trkpt lat="44.10308" lon="6.33452">
        <ele>1257.6</ele>
        <time>2019-06-23T11:48:30.000Z</time>
      </trkpt>
      <trkpt lat="44.10314" lon="6.33454">
        <ele>1257.6</ele>
        <time>2019-06-23T11:48:35.000Z</time>
      </trkpt>
      <trkpt lat="44.10322" lon="6.33455">
        <ele>1257.4</ele>
        <time>2019-06-23T11:48:38.000Z</time>
      </trkpt>
      <trkpt lat="44.10335" lon="6.33458">
        <ele>1256.6</ele>
        <time>2019-06-23T11:48:41.000Z</time>
      </trkpt>
      <trkpt lat="44.1034" lon="6.33456">
        <ele>1256.2</ele>
        <time>2019-06-23T11:48:42.000Z</time>
      </trkpt>
      <trkpt lat="44.10346" lon="6.33454">
        <ele>1255.8</ele>
        <time>2019-06-23T11:48:43.000Z</time>
      </trkpt>
      <trkpt lat="44.10359" lon="6.33449">
        <ele>1254.4</ele>
        <time>2019-06-23T11:48:45.000Z</time>
      </trkpt>
      <trkpt lat="44.10365" lon="6.33446">
        <ele>1253.6</ele>
        <time>2019-06-23T11:48:46.000Z</time>
      </trkpt>
      <trkpt lat="44.1037" lon="6.33442">
        <ele>1253</ele>
        <time>2019-06-23T11:48:47.000Z</time>
      </trkpt>
      <trkpt lat="44.10377" lon="6.33429">
        <ele>1251.2</ele>
        <time>2019-06-23T11:48:49.000Z</time>
      </trkpt>
      <trkpt lat="44.10383" lon="6.33414">
        <ele>1249.6</ele>
        <time>2019-06-23T11:48:51.000Z</time>
      </trkpt>
      <trkpt lat="44.10387" lon="6.33408">
        <ele>1248.6</ele>
        <time>2019-06-23T11:48:52.000Z</time>
      </trkpt>
      <trkpt lat="44.10392" lon="6.33404">
        <ele>1247.4</ele>
        <time>2019-06-23T11:48:53.000Z</time>
      </trkpt>
      <trkpt lat="44.10396" lon="6.33399">
        <ele>1246.4</ele>
        <time>2019-06-23T11:48:54.000Z</time>
      </trkpt>
      <trkpt lat="44.104" lon="6.33395">
        <ele>1245.2</ele>
        <time>2019-06-23T11:48:55.000Z</time>
      </trkpt>
      <trkpt lat="44.10404" lon="6.33391">
        <ele>1244.2</ele>
        <time>2019-06-23T11:48:56.000Z</time>
      </trkpt>
      <trkpt lat="44.10409" lon="6.3338">
        <ele>1242.4</ele>
        <time>2019-06-23T11:48:58.000Z</time>
      </trkpt>
      <trkpt lat="44.10411" lon="6.33374">
        <ele>1241.6</ele>
        <time>2019-06-23T11:48:59.000Z</time>
      </trkpt>
      <trkpt lat="44.10415" lon="6.33366">
        <ele>1240.8</ele>
        <time>2019-06-23T11:49:00.000Z</time>
      </trkpt>
      <trkpt lat="44.1042" lon="6.33361">
        <ele>1239.4</ele>
        <time>2019-06-23T11:49:01.000Z</time>
      </trkpt>
      <trkpt lat="44.10425" lon="6.33358">
        <ele>1238</ele>
        <time>2019-06-23T11:49:02.000Z</time>
      </trkpt>
      <trkpt lat="44.10429" lon="6.33356">
        <ele>1236.6</ele>
        <time>2019-06-23T11:49:03.000Z</time>
      </trkpt>
      <trkpt lat="44.10433" lon="6.33353">
        <ele>1236</ele>
        <time>2019-06-23T11:49:04.000Z</time>
      </trkpt>
      <trkpt lat="44.10436" lon="6.33349">
        <ele>1235.6</ele>
        <time>2019-06-23T11:49:05.000Z</time>
      </trkpt>
      <trkpt lat="44.10441" lon="6.33347">
        <ele>1235</ele>
        <time>2019-06-23T11:49:06.000Z</time>
      </trkpt>
      <trkpt lat="44.10444" lon="6.33343">
        <ele>1234.4</ele>
        <time>2019-06-23T11:49:07.000Z</time>
      </trkpt>
      <trkpt lat="44.10447" lon="6.33333">
        <ele>1232.6</ele>
        <time>2019-06-23T11:49:09.000Z</time>
      </trkpt>
      <trkpt lat="44.1045" lon="6.33328">
        <ele>1231.4</ele>
        <time>2019-06-23T11:49:10.000Z</time>
      </trkpt>
      <trkpt lat="44.10453" lon="6.33322">
        <ele>1230.4</ele>
        <time>2019-06-23T11:49:11.000Z</time>
      </trkpt>
      <trkpt lat="44.10456" lon="6.33314">
        <ele>1229.6</ele>
        <time>2019-06-23T11:49:12.000Z</time>
      </trkpt>
      <trkpt lat="44.10456" lon="6.33307">
        <ele>1228.8</ele>
        <time>2019-06-23T11:49:13.000Z</time>
      </trkpt>
      <trkpt lat="44.10457" lon="6.33292">
        <ele>1227.8</ele>
        <time>2019-06-23T11:49:15.000Z</time>
      </trkpt>
      <trkpt lat="44.10458" lon="6.33285">
        <ele>1227.2</ele>
        <time>2019-06-23T11:49:16.000Z</time>
      </trkpt>
      <trkpt lat="44.1046" lon="6.33278">
        <ele>1226.2</ele>
        <time>2019-06-23T11:49:17.000Z</time>
      </trkpt>
      <trkpt lat="44.10463" lon="6.33274">
        <ele>1224.8</ele>
        <time>2019-06-23T11:49:18.000Z</time>
      </trkpt>
      <trkpt lat="44.10467" lon="6.3327">
        <ele>1223.6</ele>
        <time>2019-06-23T11:49:19.000Z</time>
      </trkpt>
      <trkpt lat="44.10472" lon="6.33267">
        <ele>1222.6</ele>
        <time>2019-06-23T11:49:20.000Z</time>
      </trkpt>
      <trkpt lat="44.10476" lon="6.33262">
        <ele>1221.8</ele>
        <time>2019-06-23T11:49:21.000Z</time>
      </trkpt>
      <trkpt lat="44.10479" lon="6.33257">
        <ele>1221</ele>
        <time>2019-06-23T11:49:22.000Z</time>
      </trkpt>
      <trkpt lat="44.10484" lon="6.3325">
        <ele>1220.6</ele>
        <time>2019-06-23T11:49:23.000Z</time>
      </trkpt>
      <trkpt lat="44.10492" lon="6.33236">
        <ele>1220</ele>
        <time>2019-06-23T11:49:25.000Z</time>
      </trkpt>
      <trkpt lat="44.10501" lon="6.3322">
        <ele>1219.4</ele>
        <time>2019-06-23T11:49:27.000Z</time>
      </trkpt>
      <trkpt lat="44.10505" lon="6.33213">
        <ele>1219.2</ele>
        <time>2019-06-23T11:49:28.000Z</time>
      </trkpt>
      <trkpt lat="44.10507" lon="6.33206">
        <ele>1218.8</ele>
        <time>2019-06-23T11:49:29.000Z</time>
      </trkpt>
      <trkpt lat="44.10508" lon="6.33192">
        <ele>1218.2</ele>
        <time>2019-06-23T11:49:31.000Z</time>
      </trkpt>
      <trkpt lat="44.10509" lon="6.33187">
        <ele>1218</ele>
        <time>2019-06-23T11:49:32.000Z</time>
      </trkpt>
      <trkpt lat="44.10511" lon="6.33182">
        <ele>1217.8</ele>
        <time>2019-06-23T11:49:33.000Z</time>
      </trkpt>
      <trkpt lat="44.10514" lon="6.33179">
        <ele>1217.8</ele>
        <time>2019-06-23T11:49:34.000Z</time>
      </trkpt>
      <trkpt lat="44.10531" lon="6.33166">
        <ele>1218.2</ele>
        <time>2019-06-23T11:49:39.000Z</time>
      </trkpt>
      <trkpt lat="44.10535" lon="6.33162">
        <ele>1218</ele>
        <time>2019-06-23T11:49:40.000Z</time>
      </trkpt>
      <trkpt lat="44.10548" lon="6.33144">
        <ele>1217</ele>
        <time>2019-06-23T11:49:43.000Z</time>
      </trkpt>
      <trkpt lat="44.10553" lon="6.33138">
        <ele>1216.8</ele>
        <time>2019-06-23T11:49:44.000Z</time>
      </trkpt>
      <trkpt lat="44.10557" lon="6.33125">
        <ele>1216.4</ele>
        <time>2019-06-23T11:49:46.000Z</time>
      </trkpt>
      <trkpt lat="44.10556" lon="6.33113">
        <ele>1216</ele>
        <time>2019-06-23T11:49:48.000Z</time>
      </trkpt>
      <trkpt lat="44.10556" lon="6.33107">
        <ele>1215.8</ele>
        <time>2019-06-23T11:49:49.000Z</time>
      </trkpt>
      <trkpt lat="44.10561" lon="6.33092">
        <ele>1215.2</ele>
        <time>2019-06-23T11:49:52.000Z</time>
      </trkpt>
      <trkpt lat="44.10567" lon="6.33067">
        <ele>1215</ele>
        <time>2019-06-23T11:49:56.000Z</time>
      </trkpt>
      <trkpt lat="44.10566" lon="6.33052">
        <ele>1214.8</ele>
        <time>2019-06-23T11:49:58.000Z</time>
      </trkpt>
      <trkpt lat="44.10565" lon="6.33045">
        <ele>1214.4</ele>
        <time>2019-06-23T11:49:59.000Z</time>
      </trkpt>
      <trkpt lat="44.10563" lon="6.33037">
        <ele>1214.2</ele>
        <time>2019-06-23T11:50:00.000Z</time>
      </trkpt>
      <trkpt lat="44.1056" lon="6.33031">
        <ele>1214</ele>
        <time>2019-06-23T11:50:01.000Z</time>
      </trkpt>
      <trkpt lat="44.10558" lon="6.33024">
        <ele>1213.8</ele>
        <time>2019-06-23T11:50:02.000Z</time>
      </trkpt>
      <trkpt lat="44.10556" lon="6.3301">
        <ele>1213.2</ele>
        <time>2019-06-23T11:50:04.000Z</time>
      </trkpt>
      <trkpt lat="44.10554" lon="6.32994">
        <ele>1212.8</ele>
        <time>2019-06-23T11:50:06.000Z</time>
      </trkpt>
      <trkpt lat="44.10552" lon="6.32988">
        <ele>1212.6</ele>
        <time>2019-06-23T11:50:07.000Z</time>
      </trkpt>
      <trkpt lat="44.10549" lon="6.32981">
        <ele>1212.2</ele>
        <time>2019-06-23T11:50:08.000Z</time>
      </trkpt>
      <trkpt lat="44.10545" lon="6.32973">
        <ele>1211.4</ele>
        <time>2019-06-23T11:50:09.000Z</time>
      </trkpt>
      <trkpt lat="44.10542" lon="6.32965">
        <ele>1210.6</ele>
        <time>2019-06-23T11:50:10.000Z</time>
      </trkpt>
      <trkpt lat="44.10539" lon="6.32959">
        <ele>1209.4</ele>
        <time>2019-06-23T11:50:11.000Z</time>
      </trkpt>
      <trkpt lat="44.10536" lon="6.32954">
        <ele>1208.4</ele>
        <time>2019-06-23T11:50:12.000Z</time>
      </trkpt>
      <trkpt lat="44.10532" lon="6.3295">
        <ele>1207.2</ele>
        <time>2019-06-23T11:50:13.000Z</time>
      </trkpt>
      <trkpt lat="44.10523" lon="6.3295">
        <ele>1206</ele>
        <time>2019-06-23T11:50:15.000Z</time>
      </trkpt>
      <trkpt lat="44.10519" lon="6.32948">
        <ele>1205.6</ele>
        <time>2019-06-23T11:50:16.000Z</time>
      </trkpt>
      <trkpt lat="44.10515" lon="6.32942">
        <ele>1205.2</ele>
        <time>2019-06-23T11:50:17.000Z</time>
      </trkpt>
      <trkpt lat="44.10513" lon="6.32934">
        <ele>1204.6</ele>
        <time>2019-06-23T11:50:18.000Z</time>
      </trkpt>
      <trkpt lat="44.10512" lon="6.32919">
        <ele>1202.8</ele>
        <time>2019-06-23T11:50:20.000Z</time>
      </trkpt>
      <trkpt lat="44.10511" lon="6.32911">
        <ele>1201.8</ele>
        <time>2019-06-23T11:50:21.000Z</time>
      </trkpt>
      <trkpt lat="44.10509" lon="6.32902">
        <ele>1200.6</ele>
        <time>2019-06-23T11:50:22.000Z</time>
      </trkpt>
      <trkpt lat="44.10507" lon="6.32892">
        <ele>1199.2</ele>
        <time>2019-06-23T11:50:23.000Z</time>
      </trkpt>
      <trkpt lat="44.10505" lon="6.32882">
        <ele>1197.8</ele>
        <time>2019-06-23T11:50:24.000Z</time>
      </trkpt>
      <trkpt lat="44.10504" lon="6.32871">
        <ele>1196.4</ele>
        <time>2019-06-23T11:50:25.000Z</time>
      </trkpt>
      <trkpt lat="44.10504" lon="6.32861">
        <ele>1195.2</ele>
        <time>2019-06-23T11:50:26.000Z</time>
      </trkpt>
      <trkpt lat="44.10502" lon="6.32854">
        <ele>1194.2</ele>
        <time>2019-06-23T11:50:27.000Z</time>
      </trkpt>
      <trkpt lat="44.105" lon="6.32847">
        <ele>1193.6</ele>
        <time>2019-06-23T11:50:28.000Z</time>
      </trkpt>
      <trkpt lat="44.10501" lon="6.32838">
        <ele>1193</ele>
        <time>2019-06-23T11:50:29.000Z</time>
      </trkpt>
      <trkpt lat="44.10503" lon="6.32828">
        <ele>1192.6</ele>
        <time>2019-06-23T11:50:30.000Z</time>
      </trkpt>
      <trkpt lat="44.10503" lon="6.32818">
        <ele>1191.6</ele>
        <time>2019-06-23T11:50:31.000Z</time>
      </trkpt>
      <trkpt lat="44.10503" lon="6.32809">
        <ele>1189.8</ele>
        <time>2019-06-23T11:50:32.000Z</time>
      </trkpt>
      <trkpt lat="44.10504" lon="6.32798">
        <ele>1187.8</ele>
        <time>2019-06-23T11:50:33.000Z</time>
      </trkpt>
      <trkpt lat="44.10505" lon="6.32787">
        <ele>1185.6</ele>
        <time>2019-06-23T11:50:34.000Z</time>
      </trkpt>
      <trkpt lat="44.10508" lon="6.32775">
        <ele>1184</ele>
        <time>2019-06-23T11:50:35.000Z</time>
      </trkpt>
      <trkpt lat="44.10512" lon="6.32764">
        <ele>1182.6</ele>
        <time>2019-06-23T11:50:36.000Z</time>
      </trkpt>
      <trkpt lat="44.10517" lon="6.32754">
        <ele>1181</ele>
        <time>2019-06-23T11:50:37.000Z</time>
      </trkpt>
      <trkpt lat="44.10521" lon="6.32745">
        <ele>1179.4</ele>
        <time>2019-06-23T11:50:38.000Z</time>
      </trkpt>
      <trkpt lat="44.10523" lon="6.32737">
        <ele>1178.2</ele>
        <time>2019-06-23T11:50:39.000Z</time>
      </trkpt>
      <trkpt lat="44.10525" lon="6.32731">
        <ele>1177.4</ele>
        <time>2019-06-23T11:50:40.000Z</time>
      </trkpt>
      <trkpt lat="44.10526" lon="6.32725">
        <ele>1176.4</ele>
        <time>2019-06-23T11:50:41.000Z</time>
      </trkpt>
      <trkpt lat="44.10528" lon="6.32718">
        <ele>1175</ele>
        <time>2019-06-23T11:50:42.000Z</time>
      </trkpt>
      <trkpt lat="44.10532" lon="6.32712">
        <ele>1173.8</ele>
        <time>2019-06-23T11:50:43.000Z</time>
      </trkpt>
      <trkpt lat="44.10537" lon="6.32706">
        <ele>1173</ele>
        <time>2019-06-23T11:50:44.000Z</time>
      </trkpt>
      <trkpt lat="44.10541" lon="6.32702">
        <ele>1172.4</ele>
        <time>2019-06-23T11:50:45.000Z</time>
      </trkpt>
      <trkpt lat="44.10545" lon="6.32696">
        <ele>1172</ele>
        <time>2019-06-23T11:50:46.000Z</time>
      </trkpt>
      <trkpt lat="44.10552" lon="6.32682">
        <ele>1171.6</ele>
        <time>2019-06-23T11:50:48.000Z</time>
      </trkpt>
      <trkpt lat="44.10554" lon="6.32675">
        <ele>1171.6</ele>
        <time>2019-06-23T11:50:49.000Z</time>
      </trkpt>
      <trkpt lat="44.10556" lon="6.32667">
        <ele>1171.2</ele>
        <time>2019-06-23T11:50:50.000Z</time>
      </trkpt>
      <trkpt lat="44.10558" lon="6.3265">
        <ele>1170</ele>
        <time>2019-06-23T11:50:52.000Z</time>
      </trkpt>
      <trkpt lat="44.10553" lon="6.32635">
        <ele>1168.6</ele>
        <time>2019-06-23T11:50:54.000Z</time>
      </trkpt>
      <trkpt lat="44.1055" lon="6.32627">
        <ele>1168.2</ele>
        <time>2019-06-23T11:50:55.000Z</time>
      </trkpt>
      <trkpt lat="44.1055" lon="6.32618">
        <ele>1167.6</ele>
        <time>2019-06-23T11:50:56.000Z</time>
      </trkpt>
      <trkpt lat="44.10552" lon="6.32608">
        <ele>1166.8</ele>
        <time>2019-06-23T11:50:57.000Z</time>
      </trkpt>
      <trkpt lat="44.10552" lon="6.326">
        <ele>1166</ele>
        <time>2019-06-23T11:50:58.000Z</time>
      </trkpt>
      <trkpt lat="44.1055" lon="6.32594">
        <ele>1165.2</ele>
        <time>2019-06-23T11:50:59.000Z</time>
      </trkpt>
      <trkpt lat="44.10547" lon="6.32589">
        <ele>1164.8</ele>
        <time>2019-06-23T11:51:00.000Z</time>
      </trkpt>
      <trkpt lat="44.10545" lon="6.32582">
        <ele>1164.4</ele>
        <time>2019-06-23T11:51:01.000Z</time>
      </trkpt>
      <trkpt lat="44.10542" lon="6.32565">
        <ele>1163.2</ele>
        <time>2019-06-23T11:51:03.000Z</time>
      </trkpt>
      <trkpt lat="44.10539" lon="6.32548">
        <ele>1161.8</ele>
        <time>2019-06-23T11:51:05.000Z</time>
      </trkpt>
      <trkpt lat="44.10536" lon="6.32544">
        <ele>1160.6</ele>
        <time>2019-06-23T11:51:06.000Z</time>
      </trkpt>
      <trkpt lat="44.10534" lon="6.32541">
        <ele>1159.6</ele>
        <time>2019-06-23T11:51:07.000Z</time>
      </trkpt>
      <trkpt lat="44.10534" lon="6.32536">
        <ele>1159</ele>
        <time>2019-06-23T11:51:08.000Z</time>
      </trkpt>
      <trkpt lat="44.10534" lon="6.32524">
        <ele>1158.4</ele>
        <time>2019-06-23T11:51:10.000Z</time>
      </trkpt>
      <trkpt lat="44.10537" lon="6.3251">
        <ele>1157.4</ele>
        <time>2019-06-23T11:51:12.000Z</time>
      </trkpt>
      <trkpt lat="44.10539" lon="6.32503">
        <ele>1156.6</ele>
        <time>2019-06-23T11:51:13.000Z</time>
      </trkpt>
      <trkpt lat="44.1054" lon="6.32496">
        <ele>1156</ele>
        <time>2019-06-23T11:51:14.000Z</time>
      </trkpt>
      <trkpt lat="44.1054" lon="6.32491">
        <ele>1155.4</ele>
        <time>2019-06-23T11:51:15.000Z</time>
      </trkpt>
      <trkpt lat="44.10538" lon="6.32489">
        <ele>1155</ele>
        <time>2019-06-23T11:51:16.000Z</time>
      </trkpt>
      <trkpt lat="44.10538" lon="6.32484">
        <ele>1154.6</ele>
        <time>2019-06-23T11:51:17.000Z</time>
      </trkpt>
      <trkpt lat="44.10539" lon="6.32478">
        <ele>1154.2</ele>
        <time>2019-06-23T11:51:18.000Z</time>
      </trkpt>
      <trkpt lat="44.10538" lon="6.32463">
        <ele>1153.8</ele>
        <time>2019-06-23T11:51:20.000Z</time>
      </trkpt>
      <trkpt lat="44.10534" lon="6.32457">
        <ele>1153.6</ele>
        <time>2019-06-23T11:51:21.000Z</time>
      </trkpt>
      <trkpt lat="44.10532" lon="6.32452">
        <ele>1153.6</ele>
        <time>2019-06-23T11:51:22.000Z</time>
      </trkpt>
      <trkpt lat="44.10524" lon="6.32446">
        <ele>1152.8</ele>
        <time>2019-06-23T11:51:24.000Z</time>
      </trkpt>
      <trkpt lat="44.10513" lon="6.32432">
        <ele>1152</ele>
        <time>2019-06-23T11:51:26.000Z</time>
      </trkpt>
      <trkpt lat="44.10509" lon="6.32427">
        <ele>1151.6</ele>
        <time>2019-06-23T11:51:27.000Z</time>
      </trkpt>
      <trkpt lat="44.10507" lon="6.32421">
        <ele>1150.8</ele>
        <time>2019-06-23T11:51:28.000Z</time>
      </trkpt>
      <trkpt lat="44.10508" lon="6.32415">
        <ele>1150</ele>
        <time>2019-06-23T11:51:29.000Z</time>
      </trkpt>
      <trkpt lat="44.10508" lon="6.3241">
        <ele>1149</ele>
        <time>2019-06-23T11:51:30.000Z</time>
      </trkpt>
      <trkpt lat="44.1051" lon="6.32403">
        <ele>1147.6</ele>
        <time>2019-06-23T11:51:31.000Z</time>
      </trkpt>
      <trkpt lat="44.10511" lon="6.32395">
        <ele>1146.2</ele>
        <time>2019-06-23T11:51:32.000Z</time>
      </trkpt>
      <trkpt lat="44.10511" lon="6.32389">
        <ele>1145</ele>
        <time>2019-06-23T11:51:33.000Z</time>
      </trkpt>
      <trkpt lat="44.1051" lon="6.32385">
        <ele>1143.6</ele>
        <time>2019-06-23T11:51:34.000Z</time>
      </trkpt>
      <trkpt lat="44.10506" lon="6.32384">
        <ele>1142.6</ele>
        <time>2019-06-23T11:51:35.000Z</time>
      </trkpt>
      <trkpt lat="44.10501" lon="6.32386">
        <ele>1141.6</ele>
        <time>2019-06-23T11:51:36.000Z</time>
      </trkpt>
      <trkpt lat="44.10496" lon="6.32391">
        <ele>1140.6</ele>
        <time>2019-06-23T11:51:37.000Z</time>
      </trkpt>
      <trkpt lat="44.10493" lon="6.32394">
        <ele>1139.6</ele>
        <time>2019-06-23T11:51:38.000Z</time>
      </trkpt>
      <trkpt lat="44.1049" lon="6.32395">
        <ele>1138.6</ele>
        <time>2019-06-23T11:51:39.000Z</time>
      </trkpt>
      <trkpt lat="44.10487" lon="6.32394">
        <ele>1137.8</ele>
        <time>2019-06-23T11:51:40.000Z</time>
      </trkpt>
      <trkpt lat="44.10483" lon="6.3239">
        <ele>1136.6</ele>
        <time>2019-06-23T11:51:41.000Z</time>
      </trkpt>
      <trkpt lat="44.10481" lon="6.32385">
        <ele>1135</ele>
        <time>2019-06-23T11:51:42.000Z</time>
      </trkpt>
      <trkpt lat="44.10478" lon="6.32378">
        <ele>1133.6</ele>
        <time>2019-06-23T11:51:43.000Z</time>
      </trkpt>
      <trkpt lat="44.10476" lon="6.32368">
        <ele>1132.6</ele>
        <time>2019-06-23T11:51:44.000Z</time>
      </trkpt>
      <trkpt lat="44.10473" lon="6.3236">
        <ele>1131.6</ele>
        <time>2019-06-23T11:51:45.000Z</time>
      </trkpt>
      <trkpt lat="44.1047" lon="6.32351">
        <ele>1130.4</ele>
        <time>2019-06-23T11:51:46.000Z</time>
      </trkpt>
      <trkpt lat="44.10463" lon="6.32336">
        <ele>1128.8</ele>
        <time>2019-06-23T11:51:48.000Z</time>
      </trkpt>
      <trkpt lat="44.1046" lon="6.32327">
        <ele>1128</ele>
        <time>2019-06-23T11:51:49.000Z</time>
      </trkpt>
      <trkpt lat="44.10457" lon="6.32319">
        <ele>1127</ele>
        <time>2019-06-23T11:51:50.000Z</time>
      </trkpt>
      <trkpt lat="44.10454" lon="6.32307">
        <ele>1125.4</ele>
        <time>2019-06-23T11:51:52.000Z</time>
      </trkpt>
      <trkpt lat="44.10453" lon="6.32299">
        <ele>1124.2</ele>
        <time>2019-06-23T11:51:54.000Z</time>
      </trkpt>
      <trkpt lat="44.1045" lon="6.32296">
        <ele>1123.6</ele>
        <time>2019-06-23T11:51:55.000Z</time>
      </trkpt>
      <trkpt lat="44.10447" lon="6.32291">
        <ele>1123.2</ele>
        <time>2019-06-23T11:51:56.000Z</time>
      </trkpt>
      <trkpt lat="44.10443" lon="6.32285">
        <ele>1123</ele>
        <time>2019-06-23T11:51:57.000Z</time>
      </trkpt>
      <trkpt lat="44.10437" lon="6.32272">
        <ele>1122.2</ele>
        <time>2019-06-23T11:51:59.000Z</time>
      </trkpt>
      <trkpt lat="44.10434" lon="6.32268">
        <ele>1121.8</ele>
        <time>2019-06-23T11:52:00.000Z</time>
      </trkpt>
      <trkpt lat="44.10427" lon="6.32264">
        <ele>1120.6</ele>
        <time>2019-06-23T11:52:02.000Z</time>
      </trkpt>
      <trkpt lat="44.10416" lon="6.32259">
        <ele>1119.2</ele>
        <time>2019-06-23T11:52:04.000Z</time>
      </trkpt>
      <trkpt lat="44.10407" lon="6.32256">
        <ele>1117.2</ele>
        <time>2019-06-23T11:52:06.000Z</time>
      </trkpt>
      <trkpt lat="44.10402" lon="6.3226">
        <ele>1115</ele>
        <time>2019-06-23T11:52:07.000Z</time>
      </trkpt>
      <trkpt lat="44.10397" lon="6.32263">
        <ele>1112.8</ele>
        <time>2019-06-23T11:52:08.000Z</time>
      </trkpt>
      <trkpt lat="44.10391" lon="6.32265">
        <ele>1110.8</ele>
        <time>2019-06-23T11:52:09.000Z</time>
      </trkpt>
      <trkpt lat="44.10385" lon="6.32266">
        <ele>1109.4</ele>
        <time>2019-06-23T11:52:10.000Z</time>
      </trkpt>
      <trkpt lat="44.10377" lon="6.32266">
        <ele>1108.6</ele>
        <time>2019-06-23T11:52:11.000Z</time>
      </trkpt>
      <trkpt lat="44.10371" lon="6.32264">
        <ele>1108.2</ele>
        <time>2019-06-23T11:52:12.000Z</time>
      </trkpt>
      <trkpt lat="44.10366" lon="6.3226">
        <ele>1107.8</ele>
        <time>2019-06-23T11:52:13.000Z</time>
      </trkpt>
      <trkpt lat="44.10362" lon="6.32254">
        <ele>1107</ele>
        <time>2019-06-23T11:52:14.000Z</time>
      </trkpt>
      <trkpt lat="44.10358" lon="6.32247">
        <ele>1106.2</ele>
        <time>2019-06-23T11:52:15.000Z</time>
      </trkpt>
      <trkpt lat="44.10354" lon="6.32239">
        <ele>1105</ele>
        <time>2019-06-23T11:52:16.000Z</time>
      </trkpt>
      <trkpt lat="44.10348" lon="6.32233">
        <ele>1103.6</ele>
        <time>2019-06-23T11:52:17.000Z</time>
      </trkpt>
      <trkpt lat="44.10343" lon="6.32229">
        <ele>1102</ele>
        <time>2019-06-23T11:52:18.000Z</time>
      </trkpt>
      <trkpt lat="44.10338" lon="6.32229">
        <ele>1100.4</ele>
        <time>2019-06-23T11:52:19.000Z</time>
      </trkpt>
      <trkpt lat="44.10335" lon="6.32231">
        <ele>1099.4</ele>
        <time>2019-06-23T11:52:20.000Z</time>
      </trkpt>
      <trkpt lat="44.10332" lon="6.32236">
        <ele>1098.8</ele>
        <time>2019-06-23T11:52:21.000Z</time>
      </trkpt>
      <trkpt lat="44.10324" lon="6.32244">
        <ele>1098.4</ele>
        <time>2019-06-23T11:52:23.000Z</time>
      </trkpt>
      <trkpt lat="44.10314" lon="6.32242">
        <ele>1098.2</ele>
        <time>2019-06-23T11:52:26.000Z</time>
      </trkpt>
      <trkpt lat="44.10302" lon="6.32243">
        <ele>1097.2</ele>
        <time>2019-06-23T11:52:28.000Z</time>
      </trkpt>
      <trkpt lat="44.10296" lon="6.32244">
        <ele>1096.6</ele>
        <time>2019-06-23T11:52:29.000Z</time>
      </trkpt>
      <trkpt lat="44.10291" lon="6.32244">
        <ele>1096</ele>
        <time>2019-06-23T11:52:30.000Z</time>
      </trkpt>
      <trkpt lat="44.10288" lon="6.3224">
        <ele>1095.2</ele>
        <time>2019-06-23T11:52:31.000Z</time>
      </trkpt>
      <trkpt lat="44.10286" lon="6.32236">
        <ele>1094.6</ele>
        <time>2019-06-23T11:52:32.000Z</time>
      </trkpt>
      <trkpt lat="44.10285" lon="6.32231">
        <ele>1094</ele>
        <time>2019-06-23T11:52:33.000Z</time>
      </trkpt>
      <trkpt lat="44.10285" lon="6.32226">
        <ele>1093.4</ele>
        <time>2019-06-23T11:52:34.000Z</time>
      </trkpt>
      <trkpt lat="44.10285" lon="6.3222">
        <ele>1093</ele>
        <time>2019-06-23T11:52:35.000Z</time>
      </trkpt>
      <trkpt lat="44.10282" lon="6.32217">
        <ele>1092.4</ele>
        <time>2019-06-23T11:52:36.000Z</time>
      </trkpt>
      <trkpt lat="44.10277" lon="6.32216">
        <ele>1091.4</ele>
        <time>2019-06-23T11:52:37.000Z</time>
      </trkpt>
      <trkpt lat="44.1027" lon="6.32216">
        <ele>1089.8</ele>
        <time>2019-06-23T11:52:38.000Z</time>
      </trkpt>
      <trkpt lat="44.10265" lon="6.32216">
        <ele>1088.6</ele>
        <time>2019-06-23T11:52:39.000Z</time>
      </trkpt>
      <trkpt lat="44.10262" lon="6.32215">
        <ele>1087.4</ele>
        <time>2019-06-23T11:52:40.000Z</time>
      </trkpt>
      <trkpt lat="44.1026" lon="6.32212">
        <ele>1086.4</ele>
        <time>2019-06-23T11:52:41.000Z</time>
      </trkpt>
      <trkpt lat="44.10254" lon="6.32204">
        <ele>1084.8</ele>
        <time>2019-06-23T11:52:43.000Z</time>
      </trkpt>
      <trkpt lat="44.10251" lon="6.322">
        <ele>1084.4</ele>
        <time>2019-06-23T11:52:44.000Z</time>
      </trkpt>
      <trkpt lat="44.1025" lon="6.32196">
        <ele>1083.8</ele>
        <time>2019-06-23T11:52:45.000Z</time>
      </trkpt>
      <trkpt lat="44.1025" lon="6.3219">
        <ele>1083.2</ele>
        <time>2019-06-23T11:52:46.000Z</time>
      </trkpt>
      <trkpt lat="44.10249" lon="6.32183">
        <ele>1082.4</ele>
        <time>2019-06-23T11:52:47.000Z</time>
      </trkpt>
      <trkpt lat="44.10246" lon="6.32169">
        <ele>1081.4</ele>
        <time>2019-06-23T11:52:49.000Z</time>
      </trkpt>
      <trkpt lat="44.10245" lon="6.32165">
        <ele>1081.2</ele>
        <time>2019-06-23T11:52:50.000Z</time>
      </trkpt>
      <trkpt lat="44.10241" lon="6.32154">
        <ele>1080.6</ele>
        <time>2019-06-23T11:52:53.000Z</time>
      </trkpt>
      <trkpt lat="44.10242" lon="6.32154">
        <ele>1081</ele>
        <time>2019-06-23T11:52:57.000Z</time>
      </trkpt>
      <trkpt lat="44.10242" lon="6.32154">
        <ele>1080.8</ele>
        <time>2019-06-23T11:52:58.000Z</time>
      </trkpt>
      <trkpt lat="44.10243" lon="6.32154">
        <ele>1081</ele>
        <time>2019-06-23T11:53:10.000Z</time>
      </trkpt>
      <trkpt lat="44.10242" lon="6.32154">
        <ele>1080.8</ele>
        <time>2019-06-23T11:55:56.000Z</time>
        <extensions>
          <visugpx:TrkExtension xmlns:visugpx="https://www.visugpx.com/editgpx/">
            <visugpx:node>1</visugpx:node>
            </visugpx:TrkExtension>
        </extensions>
      </trkpt>
      <trkpt lat="44.10238" lon="6.32154">
        <ele>1080.8</ele>
        <time>2019-06-23T11:56:01.000Z</time>
      </trkpt>
      <trkpt lat="44.10233" lon="6.32155">
        <ele>1080.8</ele>
        <time>2019-06-23T11:56:03.000Z</time>
      </trkpt>
      <trkpt lat="44.10223" lon="6.32149">
        <ele>1080.8</ele>
        <time>2019-06-23T11:56:07.000Z</time>
      </trkpt>
      <trkpt lat="44.10217" lon="6.3214">
        <ele>1082</ele>
        <time>2019-06-23T11:56:11.000Z</time>
      </trkpt>
      <trkpt lat="44.10217" lon="6.32134">
        <ele>1082</ele>
        <time>2019-06-23T11:56:12.000Z</time>
      </trkpt>
      <trkpt lat="44.10215" lon="6.32117">
        <ele>1081.6</ele>
        <time>2019-06-23T11:56:14.000Z</time>
      </trkpt>
      <trkpt lat="44.10209" lon="6.32109">
        <ele>1080.6</ele>
        <time>2019-06-23T11:56:15.000Z</time>
      </trkpt>
      <trkpt lat="44.10202" lon="6.321">
        <ele>1079.2</ele>
        <time>2019-06-23T11:56:16.000Z</time>
      </trkpt>
      <trkpt lat="44.10196" lon="6.32093">
        <ele>1077.6</ele>
        <time>2019-06-23T11:56:17.000Z</time>
      </trkpt>
      <trkpt lat="44.10192" lon="6.3209">
        <ele>1076.6</ele>
        <time>2019-06-23T11:56:18.000Z</time>
      </trkpt>
      <trkpt lat="44.10191" lon="6.32087">
        <ele>1076.2</ele>
        <time>2019-06-23T11:56:19.000Z</time>
      </trkpt>
      <trkpt lat="44.10191" lon="6.32085">
        <ele>1076</ele>
        <time>2019-06-23T11:56:21.000Z</time>
      </trkpt>
      <trkpt lat="44.10192" lon="6.32084">
        <ele>1076</ele>
        <time>2019-06-23T11:56:22.000Z</time>
      </trkpt>
      <trkpt lat="44.10191" lon="6.3208">
        <ele>1076.2</ele>
        <time>2019-06-23T11:56:24.000Z</time>
      </trkpt>
      <trkpt lat="44.1019" lon="6.32074">
        <ele>1076</ele>
        <time>2019-06-23T11:56:26.000Z</time>
      </trkpt>
      <trkpt lat="44.10188" lon="6.32072">
        <ele>1075.8</ele>
        <time>2019-06-23T11:56:27.000Z</time>
      </trkpt>
      <trkpt lat="44.10186" lon="6.32071">
        <ele>1075</ele>
        <time>2019-06-23T11:56:28.000Z</time>
      </trkpt>
      <trkpt lat="44.10183" lon="6.3207">
        <ele>1074.2</ele>
        <time>2019-06-23T11:56:29.000Z</time>
      </trkpt>
      <trkpt lat="44.10179" lon="6.3207">
        <ele>1073.4</ele>
        <time>2019-06-23T11:56:30.000Z</time>
      </trkpt>
      <trkpt lat="44.10176" lon="6.32068">
        <ele>1072</ele>
        <time>2019-06-23T11:56:31.000Z</time>
      </trkpt>
      <trkpt lat="44.10172" lon="6.32066">
        <ele>1070.2</ele>
        <time>2019-06-23T11:56:32.000Z</time>
      </trkpt>
      <trkpt lat="44.10168" lon="6.32066">
        <ele>1069</ele>
        <time>2019-06-23T11:56:33.000Z</time>
      </trkpt>
      <trkpt lat="44.10164" lon="6.32066">
        <ele>1068.2</ele>
        <time>2019-06-23T11:56:34.000Z</time>
      </trkpt>
      <trkpt lat="44.10161" lon="6.32065">
        <ele>1067.8</ele>
        <time>2019-06-23T11:56:35.000Z</time>
      </trkpt>
      <trkpt lat="44.10159" lon="6.32064">
        <ele>1067.4</ele>
        <time>2019-06-23T11:56:37.000Z</time>
      </trkpt>
      <trkpt lat="44.1016" lon="6.32064">
        <ele>1067.4</ele>
        <time>2019-06-23T11:56:38.000Z</time>
      </trkpt>
      <trkpt lat="44.1016" lon="6.32063">
        <ele>1067.4</ele>
        <time>2019-06-23T11:56:47.000Z</time>
      </trkpt>
      <trkpt lat="44.1016" lon="6.32063">
        <ele>1067.2</ele>
        <time>2019-06-23T11:56:50.000Z</time>
      </trkpt>
      <trkpt lat="44.1016" lon="6.32063">
        <ele>1067.4</ele>
        <time>2019-06-23T11:56:57.000Z</time>
      </trkpt>
      <trkpt lat="44.1016" lon="6.32063">
        <ele>1067.4</ele>
        <time>2019-06-23T11:57:30.000Z</time>
      </trkpt>
      <trkpt lat="44.10158" lon="6.32063">
        <ele>1067</ele>
        <time>2019-06-23T11:58:05.000Z</time>
      </trkpt>
      <trkpt lat="44.10158" lon="6.32063">
        <ele>1066.8</ele>
        <time>2019-06-23T11:58:09.000Z</time>
      </trkpt>
      <trkpt lat="44.10158" lon="6.32062">
        <ele>1067.4</ele>
        <time>2019-06-23T11:58:28.000Z</time>
      </trkpt>
      <trkpt lat="44.10156" lon="6.32061">
        <ele>1067.4</ele>
        <time>2019-06-23T11:58:29.000Z</time>
      </trkpt>
      <trkpt lat="44.10147" lon="6.32056">
        <ele>1067.4</ele>
        <time>2019-06-23T11:58:33.000Z</time>
      </trkpt>
      <trkpt lat="44.10143" lon="6.32051">
        <ele>1067.6</ele>
        <time>2019-06-23T11:58:35.000Z</time>
      </trkpt>
      <trkpt lat="44.10142" lon="6.32047">
        <ele>1067.6</ele>
        <time>2019-06-23T11:58:36.000Z</time>
      </trkpt>
      <trkpt lat="44.10141" lon="6.32043">
        <ele>1067.4</ele>
        <time>2019-06-23T11:58:37.000Z</time>
      </trkpt>
      <trkpt lat="44.10135" lon="6.32035">
        <ele>1066.4</ele>
        <time>2019-06-23T11:58:39.000Z</time>
      </trkpt>
      <trkpt lat="44.10138" lon="6.32024">
        <ele>1065.2</ele>
        <time>2019-06-23T11:58:41.000Z</time>
      </trkpt>
      <trkpt lat="44.1014" lon="6.32018">
        <ele>1063.8</ele>
        <time>2019-06-23T11:58:42.000Z</time>
      </trkpt>
      <trkpt lat="44.10142" lon="6.32011">
        <ele>1062.2</ele>
        <time>2019-06-23T11:58:43.000Z</time>
      </trkpt>
      <trkpt lat="44.10142" lon="6.32004">
        <ele>1060.6</ele>
        <time>2019-06-23T11:58:44.000Z</time>
      </trkpt>
      <trkpt lat="44.10142" lon="6.31997">
        <ele>1059.4</ele>
        <time>2019-06-23T11:58:45.000Z</time>
      </trkpt>
      <trkpt lat="44.1014" lon="6.31991">
        <ele>1058.4</ele>
        <time>2019-06-23T11:58:46.000Z</time>
      </trkpt>
      <trkpt lat="44.10139" lon="6.31988">
        <ele>1057.4</ele>
        <time>2019-06-23T11:58:47.000Z</time>
      </trkpt>
      <trkpt lat="44.10139" lon="6.31984">
        <ele>1056.4</ele>
        <time>2019-06-23T11:58:48.000Z</time>
      </trkpt>
      <trkpt lat="44.10139" lon="6.3198">
        <ele>1055.6</ele>
        <time>2019-06-23T11:58:49.000Z</time>
      </trkpt>
      <trkpt lat="44.10138" lon="6.31976">
        <ele>1055</ele>
        <time>2019-06-23T11:58:50.000Z</time>
      </trkpt>
      <trkpt lat="44.1014" lon="6.31964">
        <ele>1053.2</ele>
        <time>2019-06-23T11:58:52.000Z</time>
      </trkpt>
      <trkpt lat="44.10142" lon="6.31958">
        <ele>1052.4</ele>
        <time>2019-06-23T11:58:53.000Z</time>
      </trkpt>
      <trkpt lat="44.10145" lon="6.31954">
        <ele>1051.4</ele>
        <time>2019-06-23T11:58:54.000Z</time>
      </trkpt>
      <trkpt lat="44.10149" lon="6.31952">
        <ele>1050.2</ele>
        <time>2019-06-23T11:58:55.000Z</time>
      </trkpt>
      <trkpt lat="44.10153" lon="6.31951">
        <ele>1048.8</ele>
        <time>2019-06-23T11:58:56.000Z</time>
      </trkpt>
      <trkpt lat="44.10156" lon="6.31949">
        <ele>1047.6</ele>
        <time>2019-06-23T11:58:57.000Z</time>
      </trkpt>
      <trkpt lat="44.10157" lon="6.31946">
        <ele>1046.4</ele>
        <time>2019-06-23T11:58:58.000Z</time>
      </trkpt>
      <trkpt lat="44.10158" lon="6.31942">
        <ele>1045</ele>
        <time>2019-06-23T11:58:59.000Z</time>
      </trkpt>
      <trkpt lat="44.10159" lon="6.31939">
        <ele>1043.6</ele>
        <time>2019-06-23T11:59:00.000Z</time>
      </trkpt>
      <trkpt lat="44.1016" lon="6.31935">
        <ele>1042.4</ele>
        <time>2019-06-23T11:59:01.000Z</time>
      </trkpt>
      <trkpt lat="44.10161" lon="6.31933">
        <ele>1041.2</ele>
        <time>2019-06-23T11:59:02.000Z</time>
      </trkpt>
      <trkpt lat="44.10163" lon="6.3193">
        <ele>1040</ele>
        <time>2019-06-23T11:59:03.000Z</time>
      </trkpt>
      <trkpt lat="44.10163" lon="6.31926">
        <ele>1038.8</ele>
        <time>2019-06-23T11:59:04.000Z</time>
      </trkpt>
      <trkpt lat="44.10164" lon="6.31923">
        <ele>1037.4</ele>
        <time>2019-06-23T11:59:05.000Z</time>
      </trkpt>
      <trkpt lat="44.10164" lon="6.3192">
        <ele>1036.2</ele>
        <time>2019-06-23T11:59:06.000Z</time>
      </trkpt>
      <trkpt lat="44.10165" lon="6.31919">
        <ele>1035.2</ele>
        <time>2019-06-23T11:59:07.000Z</time>
      </trkpt>
      <trkpt lat="44.10167" lon="6.31919">
        <ele>1034.2</ele>
        <time>2019-06-23T11:59:08.000Z</time>
      </trkpt>
      <trkpt lat="44.10169" lon="6.3192">
        <ele>1033.4</ele>
        <time>2019-06-23T11:59:09.000Z</time>
      </trkpt>
      <trkpt lat="44.1017" lon="6.31921">
        <ele>1032.6</ele>
        <time>2019-06-23T11:59:10.000Z</time>
      </trkpt>
      <trkpt lat="44.1017" lon="6.31923">
        <ele>1031.8</ele>
        <time>2019-06-23T11:59:11.000Z</time>
      </trkpt>
      <trkpt lat="44.10171" lon="6.31927">
        <ele>1030.4</ele>
        <time>2019-06-23T11:59:13.000Z</time>
      </trkpt>
      <trkpt lat="44.10172" lon="6.31933">
        <ele>1029.2</ele>
        <time>2019-06-23T11:59:15.000Z</time>
      </trkpt>
      <trkpt lat="44.10175" lon="6.31937">
        <ele>1028.2</ele>
        <time>2019-06-23T11:59:17.000Z</time>
      </trkpt>
      <trkpt lat="44.10178" lon="6.31939">
        <ele>1027.6</ele>
        <time>2019-06-23T11:59:18.000Z</time>
      </trkpt>
      <trkpt lat="44.1018" lon="6.3194">
        <ele>1026.8</ele>
        <time>2019-06-23T11:59:19.000Z</time>
      </trkpt>
      <trkpt lat="44.10184" lon="6.31942">
        <ele>1025.8</ele>
        <time>2019-06-23T11:59:20.000Z</time>
      </trkpt>
      <trkpt lat="44.10186" lon="6.31944">
        <ele>1024.8</ele>
        <time>2019-06-23T11:59:21.000Z</time>
      </trkpt>
      <trkpt lat="44.10188" lon="6.31943">
        <ele>1023.6</ele>
        <time>2019-06-23T11:59:22.000Z</time>
      </trkpt>
      <trkpt lat="44.10189" lon="6.31942">
        <ele>1022.6</ele>
        <time>2019-06-23T11:59:23.000Z</time>
      </trkpt>
      <trkpt lat="44.1019" lon="6.3194">
        <ele>1021.4</ele>
        <time>2019-06-23T11:59:25.000Z</time>
      </trkpt>
      <trkpt lat="44.10192" lon="6.31939">
        <ele>1021</ele>
        <time>2019-06-23T11:59:26.000Z</time>
      </trkpt>
      <trkpt lat="44.10195" lon="6.31935">
        <ele>1020.4</ele>
        <time>2019-06-23T11:59:28.000Z</time>
      </trkpt>
      <trkpt lat="44.10203" lon="6.31924">
        <ele>1019.4</ele>
        <time>2019-06-23T11:59:31.000Z</time>
      </trkpt>
      <trkpt lat="44.1021" lon="6.3191">
        <ele>1017.8</ele>
        <time>2019-06-23T11:59:34.000Z</time>
      </trkpt>
      <trkpt lat="44.10211" lon="6.319">
        <ele>1017.2</ele>
        <time>2019-06-23T11:59:36.000Z</time>
      </trkpt>
      <trkpt lat="44.10217" lon="6.31896">
        <ele>1017</ele>
        <time>2019-06-23T11:59:39.000Z</time>
      </trkpt>
      <trkpt lat="44.1022" lon="6.31894">
        <ele>1016.8</ele>
        <time>2019-06-23T11:59:40.000Z</time>
      </trkpt>
      <trkpt lat="44.10222" lon="6.31892">
        <ele>1017</ele>
        <time>2019-06-23T11:59:41.000Z</time>
      </trkpt>
      <trkpt lat="44.10222" lon="6.3189">
        <ele>1017</ele>
        <time>2019-06-23T11:59:43.000Z</time>
      </trkpt>
      <trkpt lat="44.10221" lon="6.31888">
        <ele>1017</ele>
        <time>2019-06-23T11:59:45.000Z</time>
      </trkpt>
      <trkpt lat="44.10219" lon="6.31885">
        <ele>1016.6</ele>
        <time>2019-06-23T11:59:47.000Z</time>
      </trkpt>
      <trkpt lat="44.10217" lon="6.31884">
        <ele>1016.4</ele>
        <time>2019-06-23T11:59:48.000Z</time>
      </trkpt>
      <trkpt lat="44.10216" lon="6.31882">
        <ele>1016.4</ele>
        <time>2019-06-23T11:59:49.000Z</time>
      </trkpt>
      <trkpt lat="44.10218" lon="6.31876">
        <ele>1016</ele>
        <time>2019-06-23T11:59:52.000Z</time>
      </trkpt>
      <trkpt lat="44.10221" lon="6.31869">
        <ele>1015.6</ele>
        <time>2019-06-23T11:59:55.000Z</time>
      </trkpt>
      <trkpt lat="44.1022" lon="6.31866">
        <ele>1015.2</ele>
        <time>2019-06-23T11:59:56.000Z</time>
      </trkpt>
      <trkpt lat="44.10219" lon="6.31861">
        <ele>1014</ele>
        <time>2019-06-23T11:59:58.000Z</time>
      </trkpt>
      <trkpt lat="44.10217" lon="6.31851">
        <ele>1012</ele>
        <time>2019-06-23T12:00:00.000Z</time>
      </trkpt>
      <trkpt lat="44.10218" lon="6.31846">
        <ele>1011.2</ele>
        <time>2019-06-23T12:00:01.000Z</time>
      </trkpt>
      <trkpt lat="44.10219" lon="6.31842">
        <ele>1010.2</ele>
        <time>2019-06-23T12:00:02.000Z</time>
      </trkpt>
      <trkpt lat="44.1022" lon="6.31841">
        <ele>1009</ele>
        <time>2019-06-23T12:00:03.000Z</time>
      </trkpt>
      <trkpt lat="44.10222" lon="6.3184">
        <ele>1007.8</ele>
        <time>2019-06-23T12:00:04.000Z</time>
      </trkpt>
      <trkpt lat="44.10222" lon="6.31841">
        <ele>1007</ele>
        <time>2019-06-23T12:00:05.000Z</time>
      </trkpt>
      <trkpt lat="44.10221" lon="6.31841">
        <ele>1006.4</ele>
        <time>2019-06-23T12:00:06.000Z</time>
      </trkpt>
      <trkpt lat="44.10221" lon="6.31842">
        <ele>1006</ele>
        <time>2019-06-23T12:00:07.000Z</time>
      </trkpt>
      <trkpt lat="44.10217" lon="6.31838">
        <ele>1005.8</ele>
        <time>2019-06-23T12:00:12.000Z</time>
      </trkpt>
      <trkpt lat="44.10217" lon="6.31838">
        <ele>1005.8</ele>
        <time>2019-06-23T12:00:14.000Z</time>
      </trkpt>
      <trkpt lat="44.10218" lon="6.31838">
        <ele>1005.8</ele>
        <time>2019-06-23T12:00:20.000Z</time>
      </trkpt>
      <trkpt lat="44.10218" lon="6.31838">
        <ele>1005.8</ele>
        <time>2019-06-23T12:00:22.000Z</time>
      </trkpt>
      <trkpt lat="44.10217" lon="6.31837">
        <ele>1005.4</ele>
        <time>2019-06-23T12:00:32.000Z</time>
      </trkpt>
      <trkpt lat="44.1022" lon="6.31831">
        <ele>1005.4</ele>
        <time>2019-06-23T12:00:36.000Z</time>
      </trkpt>
      <trkpt lat="44.1022" lon="6.31826">
        <ele>1005.4</ele>
        <time>2019-06-23T12:00:37.000Z</time>
      </trkpt>
      <trkpt lat="44.1022" lon="6.31812">
        <ele>1005.6</ele>
        <time>2019-06-23T12:00:41.000Z</time>
      </trkpt>
      <trkpt lat="44.10219" lon="6.31805">
        <ele>1006.6</ele>
        <time>2019-06-23T12:00:43.000Z</time>
      </trkpt>
      <trkpt lat="44.1022" lon="6.31801">
        <ele>1007</ele>
        <time>2019-06-23T12:00:44.000Z</time>
      </trkpt>
      <trkpt lat="44.10222" lon="6.31792">
        <ele>1007.8</ele>
        <time>2019-06-23T12:00:46.000Z</time>
      </trkpt>
      <trkpt lat="44.10223" lon="6.31787">
        <ele>1008.4</ele>
        <time>2019-06-23T12:00:47.000Z</time>
      </trkpt>
      <trkpt lat="44.10224" lon="6.31783">
        <ele>1009</ele>
        <time>2019-06-23T12:00:48.000Z</time>
      </trkpt>
      <trkpt lat="44.10223" lon="6.31779">
        <ele>1009.4</ele>
        <time>2019-06-23T12:00:49.000Z</time>
      </trkpt>
      <trkpt lat="44.10222" lon="6.31771">
        <ele>1009.8</ele>
        <time>2019-06-23T12:00:51.000Z</time>
      </trkpt>
      <trkpt lat="44.1022" lon="6.31768">
        <ele>1010</ele>
        <time>2019-06-23T12:00:52.000Z</time>
      </trkpt>
      <trkpt lat="44.10219" lon="6.31762">
        <ele>1011.2</ele>
        <time>2019-06-23T12:00:54.000Z</time>
      </trkpt>
      <trkpt lat="44.10218" lon="6.31754">
        <ele>1012</ele>
        <time>2019-06-23T12:00:57.000Z</time>
      </trkpt>
      <trkpt lat="44.10219" lon="6.31753">
        <ele>1012.2</ele>
        <time>2019-06-23T12:00:59.000Z</time>
      </trkpt>
      <trkpt lat="44.10218" lon="6.31753">
        <ele>1012.4</ele>
        <time>2019-06-23T12:01:02.000Z</time>
      </trkpt>
      <trkpt lat="44.10216" lon="6.31745">
        <ele>1012.4</ele>
        <time>2019-06-23T12:01:05.000Z</time>
      </trkpt>
      <trkpt lat="44.10216" lon="6.31739">
        <ele>1012.4</ele>
        <time>2019-06-23T12:01:06.000Z</time>
      </trkpt>
      <trkpt lat="44.10217" lon="6.31725">
        <ele>1011.8</ele>
        <time>2019-06-23T12:01:08.000Z</time>
      </trkpt>
      <trkpt lat="44.10218" lon="6.31722">
        <ele>1011.4</ele>
        <time>2019-06-23T12:01:09.000Z</time>
      </trkpt>
      <trkpt lat="44.10219" lon="6.31719">
        <ele>1011</ele>
        <time>2019-06-23T12:01:10.000Z</time>
      </trkpt>
      <trkpt lat="44.10221" lon="6.31715">
        <ele>1010.8</ele>
        <time>2019-06-23T12:01:11.000Z</time>
      </trkpt>
      <trkpt lat="44.10225" lon="6.31704">
        <ele>1010.2</ele>
        <time>2019-06-23T12:01:13.000Z</time>
      </trkpt>
      <trkpt lat="44.10228" lon="6.31699">
        <ele>1010</ele>
        <time>2019-06-23T12:01:14.000Z</time>
      </trkpt>
      <trkpt lat="44.10235" lon="6.31688">
        <ele>1009.6</ele>
        <time>2019-06-23T12:01:16.000Z</time>
      </trkpt>
      <trkpt lat="44.10237" lon="6.31682">
        <ele>1009.4</ele>
        <time>2019-06-23T12:01:17.000Z</time>
      </trkpt>
      <trkpt lat="44.10238" lon="6.31676">
        <ele>1009</ele>
        <time>2019-06-23T12:01:18.000Z</time>
      </trkpt>
      <trkpt lat="44.1024" lon="6.3167">
        <ele>1008.6</ele>
        <time>2019-06-23T12:01:19.000Z</time>
      </trkpt>
      <trkpt lat="44.10243" lon="6.31665">
        <ele>1008.2</ele>
        <time>2019-06-23T12:01:20.000Z</time>
      </trkpt>
      <trkpt lat="44.10247" lon="6.31661">
        <ele>1007.8</ele>
        <time>2019-06-23T12:01:21.000Z</time>
      </trkpt>
      <trkpt lat="44.10251" lon="6.31655">
        <ele>1007</ele>
        <time>2019-06-23T12:01:22.000Z</time>
      </trkpt>
      <trkpt lat="44.10256" lon="6.31651">
        <ele>1006.2</ele>
        <time>2019-06-23T12:01:23.000Z</time>
      </trkpt>
      <trkpt lat="44.10263" lon="6.31646">
        <ele>1005.4</ele>
        <time>2019-06-23T12:01:24.000Z</time>
      </trkpt>
      <trkpt lat="44.10279" lon="6.31638">
        <ele>1004.4</ele>
        <time>2019-06-23T12:01:26.000Z</time>
      </trkpt>
      <trkpt lat="44.10286" lon="6.31634">
        <ele>1004</ele>
        <time>2019-06-23T12:01:27.000Z</time>
      </trkpt>
      <trkpt lat="44.10291" lon="6.31631">
        <ele>1003.2</ele>
        <time>2019-06-23T12:01:28.000Z</time>
      </trkpt>
      <trkpt lat="44.10296" lon="6.31626">
        <ele>1002.2</ele>
        <time>2019-06-23T12:01:29.000Z</time>
      </trkpt>
      <trkpt lat="44.10311" lon="6.31619">
        <ele>1001.4</ele>
        <time>2019-06-23T12:01:32.000Z</time>
      </trkpt>
      <trkpt lat="44.10312" lon="6.31607">
        <ele>1001.6</ele>
        <time>2019-06-23T12:01:35.000Z</time>
      </trkpt>
      <trkpt lat="44.10311" lon="6.31603">
        <ele>1001.6</ele>
        <time>2019-06-23T12:01:36.000Z</time>
      </trkpt>
      <trkpt lat="44.10304" lon="6.31597">
        <ele>1001.6</ele>
        <time>2019-06-23T12:01:38.000Z</time>
      </trkpt>
      <trkpt lat="44.10291" lon="6.31595">
        <ele>1001</ele>
        <time>2019-06-23T12:01:40.000Z</time>
      </trkpt>
      <trkpt lat="44.10277" lon="6.31592">
        <ele>999.8</ele>
        <time>2019-06-23T12:01:42.000Z</time>
      </trkpt>
      <trkpt lat="44.10272" lon="6.3159">
        <ele>999.2</ele>
        <time>2019-06-23T12:01:43.000Z</time>
      </trkpt>
      <trkpt lat="44.10271" lon="6.31587">
        <ele>998.4</ele>
        <time>2019-06-23T12:01:44.000Z</time>
      </trkpt>
      <trkpt lat="44.10271" lon="6.31582">
        <ele>997</ele>
        <time>2019-06-23T12:01:45.000Z</time>
      </trkpt>
      <trkpt lat="44.1027" lon="6.31577">
        <ele>996</ele>
        <time>2019-06-23T12:01:46.000Z</time>
      </trkpt>
      <trkpt lat="44.10268" lon="6.31573">
        <ele>994.8</ele>
        <time>2019-06-23T12:01:47.000Z</time>
      </trkpt>
      <trkpt lat="44.10265" lon="6.31572">
        <ele>993.8</ele>
        <time>2019-06-23T12:01:48.000Z</time>
      </trkpt>
      <trkpt lat="44.10259" lon="6.31569">
        <ele>992.2</ele>
        <time>2019-06-23T12:01:50.000Z</time>
      </trkpt>
      <trkpt lat="44.10251" lon="6.31563">
        <ele>991.8</ele>
        <time>2019-06-23T12:01:53.000Z</time>
      </trkpt>
      <trkpt lat="44.10244" lon="6.31554">
        <ele>991.8</ele>
        <time>2019-06-23T12:01:55.000Z</time>
      </trkpt>
      <trkpt lat="44.10237" lon="6.31543">
        <ele>991.6</ele>
        <time>2019-06-23T12:01:57.000Z</time>
      </trkpt>
      <trkpt lat="44.10233" lon="6.31531">
        <ele>990.6</ele>
        <time>2019-06-23T12:01:59.000Z</time>
      </trkpt>
      <trkpt lat="44.10238" lon="6.31523">
        <ele>989.4</ele>
        <time>2019-06-23T12:02:01.000Z</time>
      </trkpt>
      <trkpt lat="44.10242" lon="6.31518">
        <ele>988.8</ele>
        <time>2019-06-23T12:02:02.000Z</time>
      </trkpt>
      <trkpt lat="44.10246" lon="6.31514">
        <ele>988.4</ele>
        <time>2019-06-23T12:02:03.000Z</time>
      </trkpt>
      <trkpt lat="44.1025" lon="6.3151">
        <ele>988.2</ele>
        <time>2019-06-23T12:02:04.000Z</time>
      </trkpt>
      <trkpt lat="44.10259" lon="6.31506">
        <ele>988</ele>
        <time>2019-06-23T12:02:06.000Z</time>
      </trkpt>
      <trkpt lat="44.10262" lon="6.31502">
        <ele>987.8</ele>
        <time>2019-06-23T12:02:07.000Z</time>
      </trkpt>
      <trkpt lat="44.10261" lon="6.31494">
        <ele>987.2</ele>
        <time>2019-06-23T12:02:09.000Z</time>
      </trkpt>
      <trkpt lat="44.10257" lon="6.31483">
        <ele>985.8</ele>
        <time>2019-06-23T12:02:11.000Z</time>
      </trkpt>
      <trkpt lat="44.10254" lon="6.31477">
        <ele>985.4</ele>
        <time>2019-06-23T12:02:12.000Z</time>
      </trkpt>
      <trkpt lat="44.10252" lon="6.31472">
        <ele>985.2</ele>
        <time>2019-06-23T12:02:13.000Z</time>
      </trkpt>
      <trkpt lat="44.10249" lon="6.31456">
        <ele>985</ele>
        <time>2019-06-23T12:02:15.000Z</time>
      </trkpt>
      <trkpt lat="44.10248" lon="6.31449">
        <ele>984.8</ele>
        <time>2019-06-23T12:02:16.000Z</time>
      </trkpt>
      <trkpt lat="44.10249" lon="6.31441">
        <ele>984.4</ele>
        <time>2019-06-23T12:02:17.000Z</time>
      </trkpt>
      <trkpt lat="44.10252" lon="6.31434">
        <ele>984</ele>
        <time>2019-06-23T12:02:18.000Z</time>
      </trkpt>
      <trkpt lat="44.10254" lon="6.31426">
        <ele>983.6</ele>
        <time>2019-06-23T12:02:19.000Z</time>
      </trkpt>
      <trkpt lat="44.10252" lon="6.31411">
        <ele>982.4</ele>
        <time>2019-06-23T12:02:21.000Z</time>
      </trkpt>
      <trkpt lat="44.10246" lon="6.31398">
        <ele>981.8</ele>
        <time>2019-06-23T12:02:23.000Z</time>
      </trkpt>
      <trkpt lat="44.10245" lon="6.31391">
        <ele>981.8</ele>
        <time>2019-06-23T12:02:24.000Z</time>
      </trkpt>
      <trkpt lat="44.10245" lon="6.31383">
        <ele>981.6</ele>
        <time>2019-06-23T12:02:25.000Z</time>
      </trkpt>
      <trkpt lat="44.10244" lon="6.31377">
        <ele>981.4</ele>
        <time>2019-06-23T12:02:26.000Z</time>
      </trkpt>
      <trkpt lat="44.1024" lon="6.31372">
        <ele>981.2</ele>
        <time>2019-06-23T12:02:27.000Z</time>
      </trkpt>
      <trkpt lat="44.10229" lon="6.31358">
        <ele>980.4</ele>
        <time>2019-06-23T12:02:30.000Z</time>
      </trkpt>
      <trkpt lat="44.10226" lon="6.31351">
        <ele>980</ele>
        <time>2019-06-23T12:02:31.000Z</time>
      </trkpt>
      <trkpt lat="44.10226" lon="6.31343">
        <ele>980</ele>
        <time>2019-06-23T12:02:32.000Z</time>
      </trkpt>
      <trkpt lat="44.10223" lon="6.31326">
        <ele>979.8</ele>
        <time>2019-06-23T12:02:34.000Z</time>
      </trkpt>
      <trkpt lat="44.10219" lon="6.31321">
        <ele>979.6</ele>
        <time>2019-06-23T12:02:35.000Z</time>
      </trkpt>
      <trkpt lat="44.10215" lon="6.3132">
        <ele>979.4</ele>
        <time>2019-06-23T12:02:36.000Z</time>
      </trkpt>
      <trkpt lat="44.10209" lon="6.31319">
        <ele>978.8</ele>
        <time>2019-06-23T12:02:37.000Z</time>
      </trkpt>
      <trkpt lat="44.10198" lon="6.31323">
        <ele>978.2</ele>
        <time>2019-06-23T12:02:39.000Z</time>
      </trkpt>
      <trkpt lat="44.10194" lon="6.31326">
        <ele>977.8</ele>
        <time>2019-06-23T12:02:40.000Z</time>
      </trkpt>
      <trkpt lat="44.10192" lon="6.31328">
        <ele>977.4</ele>
        <time>2019-06-23T12:02:41.000Z</time>
      </trkpt>
      <trkpt lat="44.1019" lon="6.31326">
        <ele>977</ele>
        <time>2019-06-23T12:02:42.000Z</time>
      </trkpt>
      <trkpt lat="44.10188" lon="6.31321">
        <ele>976.2</ele>
        <time>2019-06-23T12:02:43.000Z</time>
      </trkpt>
      <trkpt lat="44.10187" lon="6.31313">
        <ele>975.4</ele>
        <time>2019-06-23T12:02:44.000Z</time>
      </trkpt>
      <trkpt lat="44.10187" lon="6.31306">
        <ele>974.8</ele>
        <time>2019-06-23T12:02:45.000Z</time>
      </trkpt>
      <trkpt lat="44.10186" lon="6.313">
        <ele>974.2</ele>
        <time>2019-06-23T12:02:46.000Z</time>
      </trkpt>
      <trkpt lat="44.10184" lon="6.31295">
        <ele>973.4</ele>
        <time>2019-06-23T12:02:47.000Z</time>
      </trkpt>
      <trkpt lat="44.10178" lon="6.31285">
        <ele>972.2</ele>
        <time>2019-06-23T12:02:49.000Z</time>
      </trkpt>
      <trkpt lat="44.10176" lon="6.31281">
        <ele>972</ele>
        <time>2019-06-23T12:02:50.000Z</time>
      </trkpt>
      <trkpt lat="44.10169" lon="6.31279">
        <ele>971.2</ele>
        <time>2019-06-23T12:02:52.000Z</time>
      </trkpt>
      <trkpt lat="44.10168" lon="6.31277">
        <ele>970.6</ele>
        <time>2019-06-23T12:02:53.000Z</time>
      </trkpt>
      <trkpt lat="44.10165" lon="6.3127">
        <ele>970</ele>
        <time>2019-06-23T12:02:54.000Z</time>
      </trkpt>
      <trkpt lat="44.10161" lon="6.31263">
        <ele>968.8</ele>
        <time>2019-06-23T12:02:56.000Z</time>
      </trkpt>
      <trkpt lat="44.1016" lon="6.31259">
        <ele>968.2</ele>
        <time>2019-06-23T12:02:57.000Z</time>
      </trkpt>
      <trkpt lat="44.10157" lon="6.31247">
        <ele>967.4</ele>
        <time>2019-06-23T12:02:59.000Z</time>
      </trkpt>
      <trkpt lat="44.10153" lon="6.31241">
        <ele>966.8</ele>
        <time>2019-06-23T12:03:00.000Z</time>
      </trkpt>
      <trkpt lat="44.10151" lon="6.31236">
        <ele>966.2</ele>
        <time>2019-06-23T12:03:01.000Z</time>
      </trkpt>
      <trkpt lat="44.10155" lon="6.31225">
        <ele>965</ele>
        <time>2019-06-23T12:03:03.000Z</time>
      </trkpt>
      <trkpt lat="44.10159" lon="6.31219">
        <ele>964.4</ele>
        <time>2019-06-23T12:03:04.000Z</time>
      </trkpt>
      <trkpt lat="44.10164" lon="6.31214">
        <ele>963.8</ele>
        <time>2019-06-23T12:03:05.000Z</time>
      </trkpt>
      <trkpt lat="44.10166" lon="6.3121">
        <ele>963.2</ele>
        <time>2019-06-23T12:03:06.000Z</time>
      </trkpt>
      <trkpt lat="44.10165" lon="6.31203">
        <ele>962.2</ele>
        <time>2019-06-23T12:03:07.000Z</time>
      </trkpt>
      <trkpt lat="44.10162" lon="6.312">
        <ele>961</ele>
        <time>2019-06-23T12:03:08.000Z</time>
      </trkpt>
      <trkpt lat="44.10159" lon="6.31198">
        <ele>960</ele>
        <time>2019-06-23T12:03:09.000Z</time>
      </trkpt>
      <trkpt lat="44.10149" lon="6.3119">
        <ele>958.4</ele>
        <time>2019-06-23T12:03:11.000Z</time>
      </trkpt>
      <trkpt lat="44.10149" lon="6.31185">
        <ele>957.8</ele>
        <time>2019-06-23T12:03:12.000Z</time>
      </trkpt>
      <trkpt lat="44.10149" lon="6.31181">
        <ele>957</ele>
        <time>2019-06-23T12:03:13.000Z</time>
      </trkpt>
      <trkpt lat="44.10147" lon="6.31177">
        <ele>955.8</ele>
        <time>2019-06-23T12:03:14.000Z</time>
      </trkpt>
      <trkpt lat="44.10143" lon="6.31174">
        <ele>954.8</ele>
        <time>2019-06-23T12:03:15.000Z</time>
      </trkpt>
      <trkpt lat="44.1013" lon="6.31172">
        <ele>953.6</ele>
        <time>2019-06-23T12:03:17.000Z</time>
      </trkpt>
      <trkpt lat="44.10114" lon="6.31168">
        <ele>952.6</ele>
        <time>2019-06-23T12:03:19.000Z</time>
      </trkpt>
      <trkpt lat="44.10106" lon="6.31165">
        <ele>952</ele>
        <time>2019-06-23T12:03:20.000Z</time>
      </trkpt>
      <trkpt lat="44.10098" lon="6.31162">
        <ele>951.2</ele>
        <time>2019-06-23T12:03:21.000Z</time>
      </trkpt>
      <trkpt lat="44.10088" lon="6.31157">
        <ele>949.6</ele>
        <time>2019-06-23T12:03:23.000Z</time>
      </trkpt>
      <trkpt lat="44.10089" lon="6.31153">
        <ele>948</ele>
        <time>2019-06-23T12:03:25.000Z</time>
      </trkpt>
      <trkpt lat="44.1009" lon="6.31149">
        <ele>947</ele>
        <time>2019-06-23T12:03:26.000Z</time>
      </trkpt>
      <trkpt lat="44.10089" lon="6.31143">
        <ele>946</ele>
        <time>2019-06-23T12:03:27.000Z</time>
      </trkpt>
      <trkpt lat="44.1009" lon="6.31127">
        <ele>944.6</ele>
        <time>2019-06-23T12:03:29.000Z</time>
      </trkpt>
      <trkpt lat="44.10095" lon="6.31114">
        <ele>943.4</ele>
        <time>2019-06-23T12:03:31.000Z</time>
      </trkpt>
      <trkpt lat="44.10099" lon="6.31109">
        <ele>942.4</ele>
        <time>2019-06-23T12:03:32.000Z</time>
      </trkpt>
      <trkpt lat="44.10102" lon="6.31104">
        <ele>941.4</ele>
        <time>2019-06-23T12:03:33.000Z</time>
      </trkpt>
      <trkpt lat="44.10107" lon="6.31099">
        <ele>940.6</ele>
        <time>2019-06-23T12:03:35.000Z</time>
      </trkpt>
      <trkpt lat="44.10107" lon="6.31088">
        <ele>940.4</ele>
        <time>2019-06-23T12:03:37.000Z</time>
      </trkpt>
      <trkpt lat="44.10106" lon="6.31083">
        <ele>940.2</ele>
        <time>2019-06-23T12:03:38.000Z</time>
      </trkpt>
      <trkpt lat="44.10105" lon="6.31076">
        <ele>940.2</ele>
        <time>2019-06-23T12:03:39.000Z</time>
      </trkpt>
      <trkpt lat="44.10108" lon="6.3106">
        <ele>939.2</ele>
        <time>2019-06-23T12:03:41.000Z</time>
      </trkpt>
      <trkpt lat="44.10107" lon="6.31051">
        <ele>937.8</ele>
        <time>2019-06-23T12:03:42.000Z</time>
      </trkpt>
      <trkpt lat="44.10107" lon="6.31045">
        <ele>936.2</ele>
        <time>2019-06-23T12:03:43.000Z</time>
      </trkpt>
      <trkpt lat="44.10107" lon="6.3104">
        <ele>935.2</ele>
        <time>2019-06-23T12:03:44.000Z</time>
      </trkpt>
      <trkpt lat="44.10109" lon="6.31031">
        <ele>933.8</ele>
        <time>2019-06-23T12:03:46.000Z</time>
      </trkpt>
      <trkpt lat="44.10111" lon="6.3102">
        <ele>932.8</ele>
        <time>2019-06-23T12:03:48.000Z</time>
      </trkpt>
      <trkpt lat="44.10112" lon="6.31014">
        <ele>932</ele>
        <time>2019-06-23T12:03:49.000Z</time>
      </trkpt>
      <trkpt lat="44.10114" lon="6.31011">
        <ele>930.6</ele>
        <time>2019-06-23T12:03:50.000Z</time>
      </trkpt>
      <trkpt lat="44.10116" lon="6.3101">
        <ele>929.4</ele>
        <time>2019-06-23T12:03:51.000Z</time>
      </trkpt>
      <trkpt lat="44.10118" lon="6.31007">
        <ele>928</ele>
        <time>2019-06-23T12:03:52.000Z</time>
      </trkpt>
      <trkpt lat="44.10119" lon="6.31003">
        <ele>927</ele>
        <time>2019-06-23T12:03:53.000Z</time>
      </trkpt>
      <trkpt lat="44.1012" lon="6.31">
        <ele>926.2</ele>
        <time>2019-06-23T12:03:54.000Z</time>
      </trkpt>
      <trkpt lat="44.10121" lon="6.30992">
        <ele>921.8</ele>
        <time>2019-06-23T12:04:56.000Z</time>
        <extensions>
          <visugpx:TrkExtension xmlns:visugpx="https://www.visugpx.com/editgpx/">
            <visugpx:node>1</visugpx:node>
            </visugpx:TrkExtension>
        </extensions>
      </trkpt>
      <trkpt lat="44.10121" lon="6.30991">
        <ele>922.2</ele>
        <time>2019-06-23T12:04:57.000Z</time>
      </trkpt>
      <trkpt lat="44.10123" lon="6.3099">
        <ele>922.8</ele>
        <time>2019-06-23T12:04:59.000Z</time>
      </trkpt>
      <trkpt lat="44.10124" lon="6.30989">
        <ele>923.2</ele>
        <time>2019-06-23T12:05:00.000Z</time>
      </trkpt>
      <trkpt lat="44.10125" lon="6.30987">
        <ele>923.6</ele>
        <time>2019-06-23T12:05:02.000Z</time>
      </trkpt>
      <trkpt lat="44.10131" lon="6.30976">
        <ele>923.2</ele>
        <time>2019-06-23T12:05:05.000Z</time>
      </trkpt>
      <trkpt lat="44.10135" lon="6.3097">
        <ele>923.2</ele>
        <time>2019-06-23T12:05:07.000Z</time>
      </trkpt>
      <trkpt lat="44.10137" lon="6.30967">
        <ele>923.2</ele>
        <time>2019-06-23T12:05:08.000Z</time>
      </trkpt>
      <trkpt lat="44.10138" lon="6.30962">
        <ele>923</ele>
        <time>2019-06-23T12:05:09.000Z</time>
      </trkpt>
      <trkpt lat="44.10139" lon="6.30957">
        <ele>922.8</ele>
        <time>2019-06-23T12:05:10.000Z</time>
      </trkpt>
      <trkpt lat="44.10139" lon="6.30952">
        <ele>922.8</ele>
        <time>2019-06-23T12:05:11.000Z</time>
      </trkpt>
      <trkpt lat="44.10134" lon="6.30944">
        <ele>922.2</ele>
        <time>2019-06-23T12:05:13.000Z</time>
      </trkpt>
      <trkpt lat="44.10126" lon="6.30934">
        <ele>921.2</ele>
        <time>2019-06-23T12:05:15.000Z</time>
      </trkpt>
      <trkpt lat="44.10122" lon="6.3093">
        <ele>920.6</ele>
        <time>2019-06-23T12:05:16.000Z</time>
      </trkpt>
      <trkpt lat="44.10119" lon="6.30924">
        <ele>920</ele>
        <time>2019-06-23T12:05:17.000Z</time>
      </trkpt>
      <trkpt lat="44.10112" lon="6.30912">
        <ele>919.4</ele>
        <time>2019-06-23T12:05:19.000Z</time>
      </trkpt>
      <trkpt lat="44.1011" lon="6.30906">
        <ele>919.2</ele>
        <time>2019-06-23T12:05:20.000Z</time>
      </trkpt>
      <trkpt lat="44.10111" lon="6.30895">
        <ele>918.6</ele>
        <time>2019-06-23T12:05:22.000Z</time>
      </trkpt>
      <trkpt lat="44.10113" lon="6.30891">
        <ele>918.2</ele>
        <time>2019-06-23T12:05:23.000Z</time>
      </trkpt>
      <trkpt lat="44.10121" lon="6.30871">
        <ele>918.4</ele>
        <time>2019-06-23T12:05:28.000Z</time>
      </trkpt>
      <trkpt lat="44.10122" lon="6.30867">
        <ele>918.8</ele>
        <time>2019-06-23T12:05:29.000Z</time>
      </trkpt>
      <trkpt lat="44.10124" lon="6.3086">
        <ele>919.6</ele>
        <time>2019-06-23T12:05:31.000Z</time>
      </trkpt>
      <trkpt lat="44.10124" lon="6.30856">
        <ele>920.2</ele>
        <time>2019-06-23T12:05:32.000Z</time>
      </trkpt>
      <trkpt lat="44.10126" lon="6.3085">
        <ele>921</ele>
        <time>2019-06-23T12:05:34.000Z</time>
      </trkpt>
      <trkpt lat="44.10128" lon="6.30847">
        <ele>921.8</ele>
        <time>2019-06-23T12:05:36.000Z</time>
      </trkpt>
      <trkpt lat="44.1013" lon="6.30848">
        <ele>922.2</ele>
        <time>2019-06-23T12:05:37.000Z</time>
      </trkpt>
      <trkpt lat="44.10134" lon="6.30849">
        <ele>923</ele>
        <time>2019-06-23T12:05:39.000Z</time>
      </trkpt>
      <trkpt lat="44.10138" lon="6.30848">
        <ele>923.2</ele>
        <time>2019-06-23T12:05:40.000Z</time>
      </trkpt>
      <trkpt lat="44.10142" lon="6.30846">
        <ele>923.2</ele>
        <time>2019-06-23T12:05:41.000Z</time>
      </trkpt>
      <trkpt lat="44.10147" lon="6.30843">
        <ele>923.2</ele>
        <time>2019-06-23T12:05:42.000Z</time>
      </trkpt>
      <trkpt lat="44.1015" lon="6.3084">
        <ele>922.8</ele>
        <time>2019-06-23T12:05:43.000Z</time>
      </trkpt>
      <trkpt lat="44.10155" lon="6.30834">
        <ele>922.4</ele>
        <time>2019-06-23T12:05:47.000Z</time>
      </trkpt>
      <trkpt lat="44.10155" lon="6.30835">
        <ele>923</ele>
        <time>2019-06-23T12:05:54.000Z</time>
      </trkpt>
      <trkpt lat="44.10155" lon="6.30835">
        <ele>923</ele>
        <time>2019-06-23T12:05:58.000Z</time>
      </trkpt>
      <trkpt lat="44.10155" lon="6.30835">
        <ele>923.2</ele>
        <time>2019-06-23T12:06:02.000Z</time>
      </trkpt>
      <trkpt lat="44.10155" lon="6.30835">
        <ele>923.2</ele>
        <time>2019-06-23T12:06:04.000Z</time>
      </trkpt>
      <trkpt lat="44.10155" lon="6.30835">
        <ele>923</ele>
        <time>2019-06-23T12:06:05.000Z</time>
      </trkpt>
      <trkpt lat="44.10155" lon="6.30835">
        <ele>923</ele>
        <time>2019-06-23T12:06:07.000Z</time>
      </trkpt>
      <trkpt lat="44.10155" lon="6.30836">
        <ele>923</ele>
        <time>2019-06-23T12:06:08.000Z</time>
      </trkpt>
      <trkpt lat="44.10158" lon="6.30832">
        <ele>923.2</ele>
        <time>2019-06-23T12:06:16.000Z</time>
      </trkpt>
      <trkpt lat="44.10159" lon="6.30831">
        <ele>923.6</ele>
        <time>2019-06-23T12:06:22.000Z</time>
      </trkpt>
      <trkpt lat="44.10162" lon="6.30827">
        <ele>923.8</ele>
        <time>2019-06-23T12:06:31.000Z</time>
      </trkpt>
      <trkpt lat="44.10164" lon="6.30817">
        <ele>924</ele>
        <time>2019-06-23T12:06:34.000Z</time>
      </trkpt>
      <trkpt lat="44.10166" lon="6.3081">
        <ele>924</ele>
        <time>2019-06-23T12:06:36.000Z</time>
      </trkpt>
      <trkpt lat="44.10167" lon="6.30807">
        <ele>924.2</ele>
        <time>2019-06-23T12:06:37.000Z</time>
      </trkpt>
      <trkpt lat="44.10169" lon="6.30805">
        <ele>924.6</ele>
        <time>2019-06-23T12:06:38.000Z</time>
      </trkpt>
      <trkpt lat="44.10172" lon="6.30799">
        <ele>925.8</ele>
        <time>2019-06-23T12:06:40.000Z</time>
      </trkpt>
      <trkpt lat="44.10174" lon="6.30792">
        <ele>926.2</ele>
        <time>2019-06-23T12:06:42.000Z</time>
      </trkpt>
      <trkpt lat="44.10176" lon="6.30782">
        <ele>926.8</ele>
        <time>2019-06-23T12:06:45.000Z</time>
      </trkpt>
      <trkpt lat="44.10176" lon="6.30775">
        <ele>927.8</ele>
        <time>2019-06-23T12:06:47.000Z</time>
      </trkpt>
      <trkpt lat="44.10175" lon="6.30772">
        <ele>928.2</ele>
        <time>2019-06-23T12:06:48.000Z</time>
      </trkpt>
      <trkpt lat="44.10176" lon="6.30761">
        <ele>929.4</ele>
        <time>2019-06-23T12:06:51.000Z</time>
      </trkpt>
      <trkpt lat="44.10176" lon="6.30758">
        <ele>929.8</ele>
        <time>2019-06-23T12:06:52.000Z</time>
      </trkpt>
      <trkpt lat="44.10175" lon="6.30752">
        <ele>930.4</ele>
        <time>2019-06-23T12:06:54.000Z</time>
      </trkpt>
      <trkpt lat="44.10174" lon="6.30742">
        <ele>931.6</ele>
        <time>2019-06-23T12:06:57.000Z</time>
      </trkpt>
      <trkpt lat="44.10174" lon="6.30736">
        <ele>932</ele>
        <time>2019-06-23T12:06:59.000Z</time>
      </trkpt>
      <trkpt lat="44.10172" lon="6.3071">
        <ele>932</ele>
        <time>2019-06-23T12:07:04.000Z</time>
      </trkpt>
      <trkpt lat="44.10173" lon="6.30688">
        <ele>931</ele>
        <time>2019-06-23T12:07:08.000Z</time>
      </trkpt>
      <trkpt lat="44.10177" lon="6.30675">
        <ele>930.2</ele>
        <time>2019-06-23T12:07:10.000Z</time>
      </trkpt>
      <trkpt lat="44.1018" lon="6.30661">
        <ele>928.4</ele>
        <time>2019-06-23T12:07:12.000Z</time>
      </trkpt>
      <trkpt lat="44.10181" lon="6.30655">
        <ele>927.4</ele>
        <time>2019-06-23T12:07:13.000Z</time>
      </trkpt>
      <trkpt lat="44.10181" lon="6.30651">
        <ele>925.8</ele>
        <time>2019-06-23T12:07:14.000Z</time>
      </trkpt>
      <trkpt lat="44.1018" lon="6.30649">
        <ele>924.2</ele>
        <time>2019-06-23T12:07:15.000Z</time>
      </trkpt>
      <trkpt lat="44.1018" lon="6.30648">
        <ele>923.2</ele>
        <time>2019-06-23T12:07:16.000Z</time>
      </trkpt>
      <trkpt lat="44.10179" lon="6.30648">
        <ele>922.6</ele>
        <time>2019-06-23T12:07:17.000Z</time>
      </trkpt>
      <trkpt lat="44.10179" lon="6.30647">
        <ele>921.6</ele>
        <time>2019-06-23T12:07:20.000Z</time>
      </trkpt>
      <trkpt lat="44.10178" lon="6.30647">
        <ele>921.4</ele>
        <time>2019-06-23T12:07:21.000Z</time>
      </trkpt>
      <trkpt lat="44.10178" lon="6.30647">
        <ele>920.6</ele>
        <time>2019-06-23T12:07:26.000Z</time>
      </trkpt>
      <trkpt lat="44.10177" lon="6.30646">
        <ele>920.6</ele>
        <time>2019-06-23T12:07:30.000Z</time>
      </trkpt>
      <trkpt lat="44.10174" lon="6.30646">
        <ele>920.6</ele>
        <time>2019-06-23T12:07:32.000Z</time>
      </trkpt>
      <trkpt lat="44.10169" lon="6.30643">
        <ele>920.6</ele>
        <time>2019-06-23T12:07:34.000Z</time>
      </trkpt>
      <trkpt lat="44.10163" lon="6.30637">
        <ele>920.2</ele>
        <time>2019-06-23T12:07:36.000Z</time>
      </trkpt>
      <trkpt lat="44.1016" lon="6.30636">
        <ele>920</ele>
        <time>2019-06-23T12:07:37.000Z</time>
      </trkpt>
      <trkpt lat="44.10155" lon="6.30637">
        <ele>919</ele>
        <time>2019-06-23T12:07:39.000Z</time>
      </trkpt>
      <trkpt lat="44.1015" lon="6.30632">
        <ele>918</ele>
        <time>2019-06-23T12:07:41.000Z</time>
      </trkpt>
      <trkpt lat="44.10147" lon="6.30631">
        <ele>917.4</ele>
        <time>2019-06-23T12:07:42.000Z</time>
      </trkpt>
      <trkpt lat="44.10143" lon="6.3063">
        <ele>916.8</ele>
        <time>2019-06-23T12:07:43.000Z</time>
      </trkpt>
      <trkpt lat="44.10133" lon="6.30632">
        <ele>915.4</ele>
        <time>2019-06-23T12:07:45.000Z</time>
      </trkpt>
      <trkpt lat="44.10129" lon="6.30631">
        <ele>914.6</ele>
        <time>2019-06-23T12:07:46.000Z</time>
      </trkpt>
      <trkpt lat="44.10125" lon="6.30629">
        <ele>913.8</ele>
        <time>2019-06-23T12:07:47.000Z</time>
      </trkpt>
      <trkpt lat="44.10122" lon="6.30628">
        <ele>913.2</ele>
        <time>2019-06-23T12:07:48.000Z</time>
      </trkpt>
      <trkpt lat="44.10119" lon="6.30626">
        <ele>912.6</ele>
        <time>2019-06-23T12:07:49.000Z</time>
      </trkpt>
      <trkpt lat="44.10116" lon="6.30624">
        <ele>911.4</ele>
        <time>2019-06-23T12:07:52.000Z</time>
      </trkpt>
      <trkpt lat="44.10116" lon="6.30624">
        <ele>911</ele>
        <time>2019-06-23T12:07:53.000Z</time>
      </trkpt>
      <trkpt lat="44.10116" lon="6.30624">
        <ele>910.8</ele>
        <time>2019-06-23T12:07:54.000Z</time>
      </trkpt>
      <trkpt lat="44.10112" lon="6.30624">
        <ele>910.4</ele>
        <time>2019-06-23T12:07:58.000Z</time>
      </trkpt>
      <trkpt lat="44.10108" lon="6.30626">
        <ele>910.2</ele>
        <time>2019-06-23T12:07:59.000Z</time>
      </trkpt>
      <trkpt lat="44.10104" lon="6.30628">
        <ele>910.2</ele>
        <time>2019-06-23T12:08:00.000Z</time>
      </trkpt>
      <trkpt lat="44.10099" lon="6.3063">
        <ele>910.2</ele>
        <time>2019-06-23T12:08:01.000Z</time>
      </trkpt>
      <trkpt lat="44.10094" lon="6.30631">
        <ele>910</ele>
        <time>2019-06-23T12:08:02.000Z</time>
      </trkpt>
      <trkpt lat="44.10085" lon="6.30632">
        <ele>908.4</ele>
        <time>2019-06-23T12:08:04.000Z</time>
      </trkpt>
      <trkpt lat="44.1008" lon="6.30633">
        <ele>907.6</ele>
        <time>2019-06-23T12:08:05.000Z</time>
      </trkpt>
      <trkpt lat="44.10075" lon="6.30632">
        <ele>907</ele>
        <time>2019-06-23T12:08:06.000Z</time>
      </trkpt>
      <trkpt lat="44.10073" lon="6.30631">
        <ele>906.2</ele>
        <time>2019-06-23T12:08:07.000Z</time>
      </trkpt>
      <trkpt lat="44.10071" lon="6.30629">
        <ele>905.4</ele>
        <time>2019-06-23T12:08:08.000Z</time>
      </trkpt>
      <trkpt lat="44.1007" lon="6.30627">
        <ele>904.4</ele>
        <time>2019-06-23T12:08:09.000Z</time>
      </trkpt>
      <trkpt lat="44.10069" lon="6.30626">
        <ele>903.6</ele>
        <time>2019-06-23T12:08:10.000Z</time>
      </trkpt>
      <trkpt lat="44.10069" lon="6.30626">
        <ele>903</ele>
        <time>2019-06-23T12:08:12.000Z</time>
      </trkpt>
      <trkpt lat="44.10068" lon="6.30626">
        <ele>902.6</ele>
        <time>2019-06-23T12:08:15.000Z</time>
      </trkpt>
      <trkpt lat="44.10068" lon="6.30626">
        <ele>902.8</ele>
        <time>2019-06-23T12:08:18.000Z</time>
      </trkpt>
      <trkpt lat="44.10066" lon="6.30624">
        <ele>902.8</ele>
        <time>2019-06-23T12:08:22.000Z</time>
      </trkpt>
      <trkpt lat="44.10067" lon="6.30622">
        <ele>902.6</ele>
        <time>2019-06-23T12:08:23.000Z</time>
      </trkpt>
      <trkpt lat="44.1007" lon="6.30611">
        <ele>902.2</ele>
        <time>2019-06-23T12:08:26.000Z</time>
      </trkpt>
      <trkpt lat="44.10069" lon="6.30607">
        <ele>901.6</ele>
        <time>2019-06-23T12:08:27.000Z</time>
      </trkpt>
      <trkpt lat="44.10067" lon="6.30605">
        <ele>900.2</ele>
        <time>2019-06-23T12:08:29.000Z</time>
      </trkpt>
      <trkpt lat="44.10067" lon="6.30604">
        <ele>900</ele>
        <time>2019-06-23T12:08:30.000Z</time>
      </trkpt>
      <trkpt lat="44.10066" lon="6.306">
        <ele>899.4</ele>
        <time>2019-06-23T12:08:32.000Z</time>
      </trkpt>
      <trkpt lat="44.10065" lon="6.30599">
        <ele>899</ele>
        <time>2019-06-23T12:08:33.000Z</time>
      </trkpt>
      <trkpt lat="44.10066" lon="6.30599">
        <ele>898.6</ele>
        <time>2019-06-23T12:08:34.000Z</time>
      </trkpt>
      <trkpt lat="44.10066" lon="6.30599">
        <ele>898</ele>
        <time>2019-06-23T12:08:36.000Z</time>
      </trkpt>
      <trkpt lat="44.10058" lon="6.30602">
        <ele>897.6</ele>
        <time>2019-06-23T12:08:39.000Z</time>
      </trkpt>
      <trkpt lat="44.1005" lon="6.30608">
        <ele>897.2</ele>
        <time>2019-06-23T12:08:41.000Z</time>
      </trkpt>
      <trkpt lat="44.10046" lon="6.30608">
        <ele>897</ele>
        <time>2019-06-23T12:08:42.000Z</time>
      </trkpt>
      <trkpt lat="44.10041" lon="6.30608">
        <ele>896.4</ele>
        <time>2019-06-23T12:08:43.000Z</time>
      </trkpt>
      <trkpt lat="44.10029" lon="6.30613">
        <ele>895</ele>
        <time>2019-06-23T12:08:45.000Z</time>
      </trkpt>
      <trkpt lat="44.10018" lon="6.30619">
        <ele>893.4</ele>
        <time>2019-06-23T12:08:47.000Z</time>
      </trkpt>
      <trkpt lat="44.10014" lon="6.30621">
        <ele>892.2</ele>
        <time>2019-06-23T12:08:48.000Z</time>
      </trkpt>
      <trkpt lat="44.10012" lon="6.30624">
        <ele>890.2</ele>
        <time>2019-06-23T12:08:49.000Z</time>
      </trkpt>
      <trkpt lat="44.1001" lon="6.30627">
        <ele>888.2</ele>
        <time>2019-06-23T12:08:50.000Z</time>
      </trkpt>
      <trkpt lat="44.10008" lon="6.30629">
        <ele>886.8</ele>
        <time>2019-06-23T12:08:51.000Z</time>
      </trkpt>
      <trkpt lat="44.10007" lon="6.3063">
        <ele>886</ele>
        <time>2019-06-23T12:08:52.000Z</time>
      </trkpt>
      <trkpt lat="44.10006" lon="6.3063">
        <ele>885.2</ele>
        <time>2019-06-23T12:08:53.000Z</time>
      </trkpt>
      <trkpt lat="44.10005" lon="6.30631">
        <ele>884.6</ele>
        <time>2019-06-23T12:08:55.000Z</time>
      </trkpt>
      <trkpt lat="44.10004" lon="6.30632">
        <ele>884.4</ele>
        <time>2019-06-23T12:08:57.000Z</time>
      </trkpt>
      <trkpt lat="44.10001" lon="6.30639">
        <ele>885.2</ele>
        <time>2019-06-23T12:09:04.000Z</time>
      </trkpt>
      <trkpt lat="44.10002" lon="6.3064">
        <ele>885.2</ele>
        <time>2019-06-23T12:09:10.000Z</time>
      </trkpt>
      <trkpt lat="44.10002" lon="6.3064">
        <ele>885.2</ele>
        <time>2019-06-23T12:09:13.000Z</time>
      </trkpt>
      <trkpt lat="44.10002" lon="6.30641">
        <ele>885.2</ele>
        <time>2019-06-23T12:09:20.000Z</time>
      </trkpt>
      <trkpt lat="44.10001" lon="6.30641">
        <ele>885.2</ele>
        <time>2019-06-23T12:09:21.000Z</time>
      </trkpt>
      <trkpt lat="44.10001" lon="6.30642">
        <ele>885.2</ele>
        <time>2019-06-23T12:09:29.000Z</time>
      </trkpt>
      <trkpt lat="44.1" lon="6.30643">
        <ele>884.8</ele>
        <time>2019-06-23T12:09:41.000Z</time>
      </trkpt>
      <trkpt lat="44.1" lon="6.30647">
        <ele>885</ele>
        <time>2019-06-23T12:09:43.000Z</time>
      </trkpt>
      <trkpt lat="44.1" lon="6.30652">
        <ele>886.2</ele>
        <time>2019-06-23T12:09:47.000Z</time>
      </trkpt>
      <trkpt lat="44.1" lon="6.30653">
        <ele>886.4</ele>
        <time>2019-06-23T12:09:48.000Z</time>
      </trkpt>
      <trkpt lat="44.09999" lon="6.30655">
        <ele>886.8</ele>
        <time>2019-06-23T12:09:49.000Z</time>
      </trkpt>
      <trkpt lat="44.09998" lon="6.30657">
        <ele>887</ele>
        <time>2019-06-23T12:09:51.000Z</time>
      </trkpt>
      <trkpt lat="44.09997" lon="6.3066">
        <ele>887</ele>
        <time>2019-06-23T12:09:53.000Z</time>
      </trkpt>
      <trkpt lat="44.09996" lon="6.30661">
        <ele>887.2</ele>
        <time>2019-06-23T12:09:57.000Z</time>
      </trkpt>
      <trkpt lat="44.09996" lon="6.30661">
        <ele>887.2</ele>
        <time>2019-06-23T12:09:58.000Z</time>
      </trkpt>
      <trkpt lat="44.09994" lon="6.30664">
        <ele>887.2</ele>
        <time>2019-06-23T12:10:05.000Z</time>
      </trkpt>
      <trkpt lat="44.09992" lon="6.30666">
        <ele>887.2</ele>
        <time>2019-06-23T12:10:06.000Z</time>
      </trkpt>
      <trkpt lat="44.09987" lon="6.30673">
        <ele>887.6</ele>
        <time>2019-06-23T12:10:09.000Z</time>
      </trkpt>
      <trkpt lat="44.09983" lon="6.30678">
        <ele>887.8</ele>
        <time>2019-06-23T12:10:11.000Z</time>
      </trkpt>
      <trkpt lat="44.0998" lon="6.30679">
        <ele>887.8</ele>
        <time>2019-06-23T12:10:12.000Z</time>
      </trkpt>
      <trkpt lat="44.09971" lon="6.30681">
        <ele>887.8</ele>
        <time>2019-06-23T12:10:14.000Z</time>
      </trkpt>
      <trkpt lat="44.09961" lon="6.30687">
        <ele>887</ele>
        <time>2019-06-23T12:10:16.000Z</time>
      </trkpt>
      <trkpt lat="44.09957" lon="6.30693">
        <ele>886</ele>
        <time>2019-06-23T12:10:17.000Z</time>
      </trkpt>
      <trkpt lat="44.09954" lon="6.30698">
        <ele>885.2</ele>
        <time>2019-06-23T12:10:18.000Z</time>
      </trkpt>
      <trkpt lat="44.09951" lon="6.30699">
        <ele>884.6</ele>
        <time>2019-06-23T12:10:19.000Z</time>
      </trkpt>
      <trkpt lat="44.09948" lon="6.30699">
        <ele>884.4</ele>
        <time>2019-06-23T12:10:20.000Z</time>
      </trkpt>
      <trkpt lat="44.09945" lon="6.30698">
        <ele>884</ele>
        <time>2019-06-23T12:10:21.000Z</time>
      </trkpt>
      <trkpt lat="44.09941" lon="6.30697">
        <ele>883.6</ele>
        <time>2019-06-23T12:10:22.000Z</time>
      </trkpt>
      <trkpt lat="44.09931" lon="6.30695">
        <ele>882.6</ele>
        <time>2019-06-23T12:10:25.000Z</time>
      </trkpt>
      <trkpt lat="44.09929" lon="6.30691">
        <ele>882.2</ele>
        <time>2019-06-23T12:10:26.000Z</time>
      </trkpt>
      <trkpt lat="44.09924" lon="6.30685">
        <ele>880.8</ele>
        <time>2019-06-23T12:10:28.000Z</time>
      </trkpt>
      <trkpt lat="44.0992" lon="6.30687">
        <ele>880</ele>
        <time>2019-06-23T12:10:29.000Z</time>
      </trkpt>
      <trkpt lat="44.09916" lon="6.3069">
        <ele>879.2</ele>
        <time>2019-06-23T12:10:30.000Z</time>
      </trkpt>
      <trkpt lat="44.0991" lon="6.30697">
        <ele>878</ele>
        <time>2019-06-23T12:10:32.000Z</time>
      </trkpt>
      <trkpt lat="44.09907" lon="6.307">
        <ele>877.8</ele>
        <time>2019-06-23T12:10:33.000Z</time>
      </trkpt>
      <trkpt lat="44.09905" lon="6.30699">
        <ele>877.6</ele>
        <time>2019-06-23T12:10:34.000Z</time>
      </trkpt>
      <trkpt lat="44.09904" lon="6.30696">
        <ele>877.4</ele>
        <time>2019-06-23T12:10:35.000Z</time>
      </trkpt>
      <trkpt lat="44.09903" lon="6.30687">
        <ele>876.6</ele>
        <time>2019-06-23T12:10:37.000Z</time>
      </trkpt>
      <trkpt lat="44.09898" lon="6.30673">
        <ele>875.4</ele>
        <time>2019-06-23T12:10:40.000Z</time>
      </trkpt>
      <trkpt lat="44.09897" lon="6.30667">
        <ele>875.2</ele>
        <time>2019-06-23T12:10:41.000Z</time>
      </trkpt>
      <trkpt lat="44.099" lon="6.30659">
        <ele>875</ele>
        <time>2019-06-23T12:10:43.000Z</time>
      </trkpt>
      <trkpt lat="44.09901" lon="6.30655">
        <ele>875</ele>
        <time>2019-06-23T12:10:44.000Z</time>
      </trkpt>
      <trkpt lat="44.09902" lon="6.30649">
        <ele>875</ele>
        <time>2019-06-23T12:10:45.000Z</time>
      </trkpt>
      <trkpt lat="44.09903" lon="6.30644">
        <ele>875</ele>
        <time>2019-06-23T12:10:46.000Z</time>
      </trkpt>
      <trkpt lat="44.09905" lon="6.30626">
        <ele>875</ele>
        <time>2019-06-23T12:10:49.000Z</time>
      </trkpt>
      <trkpt lat="44.09907" lon="6.3062">
        <ele>875</ele>
        <time>2019-06-23T12:10:50.000Z</time>
      </trkpt>
      <trkpt lat="44.09908" lon="6.30614">
        <ele>875</ele>
        <time>2019-06-23T12:10:51.000Z</time>
      </trkpt>
      <trkpt lat="44.09911" lon="6.30608">
        <ele>875</ele>
        <time>2019-06-23T12:10:52.000Z</time>
      </trkpt>
      <trkpt lat="44.09912" lon="6.30601">
        <ele>875</ele>
        <time>2019-06-23T12:10:53.000Z</time>
      </trkpt>
      <trkpt lat="44.09912" lon="6.30596">
        <ele>875</ele>
        <time>2019-06-23T12:10:54.000Z</time>
      </trkpt>
      <trkpt lat="44.09909" lon="6.30593">
        <ele>875.4</ele>
        <time>2019-06-23T12:12:24.000Z</time>
        <extensions>
          <visugpx:TrkExtension xmlns:visugpx="https://www.visugpx.com/editgpx/">
            <visugpx:node>1</visugpx:node>
            </visugpx:TrkExtension>
        </extensions>
      </trkpt>
      <trkpt lat="44.09908" lon="6.30594">
        <ele>875</ele>
        <time>2019-06-23T12:12:26.000Z</time>
      </trkpt>
      <trkpt lat="44.09907" lon="6.30595">
        <ele>874.4</ele>
        <time>2019-06-23T12:12:32.000Z</time>
      </trkpt>
      <trkpt lat="44.09907" lon="6.30595">
        <ele>874.2</ele>
        <time>2019-06-23T12:12:33.000Z</time>
      </trkpt>
      <trkpt lat="44.09907" lon="6.30595">
        <ele>874</ele>
        <time>2019-06-23T12:12:34.000Z</time>
      </trkpt>
      <trkpt lat="44.09907" lon="6.30594">
        <ele>874</ele>
        <time>2019-06-23T12:12:36.000Z</time>
      </trkpt>
      <trkpt lat="44.09904" lon="6.30593">
        <ele>874.4</ele>
        <time>2019-06-23T12:12:39.000Z</time>
      </trkpt>
      <trkpt lat="44.09902" lon="6.30591">
        <ele>874.4</ele>
        <time>2019-06-23T12:12:40.000Z</time>
      </trkpt>
      <trkpt lat="44.09898" lon="6.30584">
        <ele>874.6</ele>
        <time>2019-06-23T12:12:43.000Z</time>
      </trkpt>
      <trkpt lat="44.09892" lon="6.30573">
        <ele>875.6</ele>
        <time>2019-06-23T12:12:47.000Z</time>
      </trkpt>
      <trkpt lat="44.09883" lon="6.3056">
        <ele>876.6</ele>
        <time>2019-06-23T12:12:52.000Z</time>
      </trkpt>
      <trkpt lat="44.09879" lon="6.30555">
        <ele>877.6</ele>
        <time>2019-06-23T12:12:54.000Z</time>
      </trkpt>
      <trkpt lat="44.09877" lon="6.30552">
        <ele>878</ele>
        <time>2019-06-23T12:12:55.000Z</time>
      </trkpt>
      <trkpt lat="44.09865" lon="6.30536">
        <ele>879</ele>
        <time>2019-06-23T12:13:01.000Z</time>
      </trkpt>
      <trkpt lat="44.09861" lon="6.30524">
        <ele>880.2</ele>
        <time>2019-06-23T12:13:05.000Z</time>
      </trkpt>
      <trkpt lat="44.09859" lon="6.30517">
        <ele>880.6</ele>
        <time>2019-06-23T12:13:07.000Z</time>
      </trkpt>
      <trkpt lat="44.09859" lon="6.30509">
        <ele>881.4</ele>
        <time>2019-06-23T12:13:10.000Z</time>
      </trkpt>
      <trkpt lat="44.0986" lon="6.30505">
        <ele>882</ele>
        <time>2019-06-23T12:13:12.000Z</time>
      </trkpt>
      <trkpt lat="44.09861" lon="6.30501">
        <ele>882.8</ele>
        <time>2019-06-23T12:13:14.000Z</time>
      </trkpt>
      <trkpt lat="44.09862" lon="6.30497">
        <ele>883.8</ele>
        <time>2019-06-23T12:13:16.000Z</time>
      </trkpt>
      <trkpt lat="44.09863" lon="6.30493">
        <ele>884.6</ele>
        <time>2019-06-23T12:13:18.000Z</time>
      </trkpt>
      <trkpt lat="44.09863" lon="6.30491">
        <ele>885</ele>
        <time>2019-06-23T12:13:19.000Z</time>
      </trkpt>
      <trkpt lat="44.09863" lon="6.3049">
        <ele>885.4</ele>
        <time>2019-06-23T12:13:20.000Z</time>
      </trkpt>
      <trkpt lat="44.09864" lon="6.30488">
        <ele>886</ele>
        <time>2019-06-23T12:13:21.000Z</time>
      </trkpt>
      <trkpt lat="44.09864" lon="6.30484">
        <ele>887</ele>
        <time>2019-06-23T12:13:23.000Z</time>
      </trkpt>
      <trkpt lat="44.09864" lon="6.30483">
        <ele>887.4</ele>
        <time>2019-06-23T12:13:24.000Z</time>
      </trkpt>
      <trkpt lat="44.09864" lon="6.30481">
        <ele>887.6</ele>
        <time>2019-06-23T12:13:25.000Z</time>
      </trkpt>
      <trkpt lat="44.09864" lon="6.30479">
        <ele>888.2</ele>
        <time>2019-06-23T12:13:27.000Z</time>
      </trkpt>
      <trkpt lat="44.09864" lon="6.30479">
        <ele>888.6</ele>
        <time>2019-06-23T12:13:28.000Z</time>
      </trkpt>
      <trkpt lat="44.09864" lon="6.30479">
        <ele>889.4</ele>
        <time>2019-06-23T12:13:30.000Z</time>
      </trkpt>
      <trkpt lat="44.09864" lon="6.30479">
        <ele>889.6</ele>
        <time>2019-06-23T12:13:32.000Z</time>
      </trkpt>
      <trkpt lat="44.09864" lon="6.30479">
        <ele>889.6</ele>
        <time>2019-06-23T12:13:34.000Z</time>
      </trkpt>
      <trkpt lat="44.09864" lon="6.3048">
        <ele>889.8</ele>
        <time>2019-06-23T12:13:41.000Z</time>
      </trkpt>
      <trkpt lat="44.09863" lon="6.3048">
        <ele>890</ele>
        <time>2019-06-23T12:13:46.000Z</time>
      </trkpt>
      <trkpt lat="44.09863" lon="6.3048">
        <ele>889.8</ele>
        <time>2019-06-23T12:13:47.000Z</time>
      </trkpt>
      <trkpt lat="44.09863" lon="6.3048">
        <ele>889.4</ele>
        <time>2019-06-23T12:13:57.000Z</time>
      </trkpt>
      <trkpt lat="44.09863" lon="6.30473">
        <ele>890.2</ele>
        <time>2019-06-23T12:14:04.000Z</time>
      </trkpt>
      <trkpt lat="44.09863" lon="6.30468">
        <ele>891</ele>
        <time>2019-06-23T12:14:08.000Z</time>
      </trkpt>
      <trkpt lat="44.09864" lon="6.30462">
        <ele>892</ele>
        <time>2019-06-23T12:14:13.000Z</time>
      </trkpt>
      <trkpt lat="44.09864" lon="6.30461">
        <ele>892.4</ele>
        <time>2019-06-23T12:14:14.000Z</time>
      </trkpt>
      <trkpt lat="44.09865" lon="6.3046">
        <ele>892.6</ele>
        <time>2019-06-23T12:14:15.000Z</time>
      </trkpt>
      <trkpt lat="44.09865" lon="6.30459">
        <ele>893</ele>
        <time>2019-06-23T12:14:16.000Z</time>
      </trkpt>
      <trkpt lat="44.09865" lon="6.30457">
        <ele>893.4</ele>
        <time>2019-06-23T12:14:17.000Z</time>
      </trkpt>
      <trkpt lat="44.09866" lon="6.30453">
        <ele>894.6</ele>
        <time>2019-06-23T12:14:20.000Z</time>
      </trkpt>
      <trkpt lat="44.09866" lon="6.30444">
        <ele>895.6</ele>
        <time>2019-06-23T12:14:26.000Z</time>
      </trkpt>
      <trkpt lat="44.09867" lon="6.3044">
        <ele>896.2</ele>
        <time>2019-06-23T12:14:29.000Z</time>
      </trkpt>
      <trkpt lat="44.09867" lon="6.30439">
        <ele>896.6</ele>
        <time>2019-06-23T12:14:30.000Z</time>
      </trkpt>
      <trkpt lat="44.09867" lon="6.30439">
        <ele>897</ele>
        <time>2019-06-23T12:14:31.000Z</time>
      </trkpt>
      <trkpt lat="44.09867" lon="6.30436">
        <ele>897.8</ele>
        <time>2019-06-23T12:14:33.000Z</time>
      </trkpt>
      <trkpt lat="44.09867" lon="6.30434">
        <ele>898.2</ele>
        <time>2019-06-23T12:14:35.000Z</time>
      </trkpt>
      <trkpt lat="44.09866" lon="6.30429">
        <ele>898.8</ele>
        <time>2019-06-23T12:14:39.000Z</time>
      </trkpt>
      <trkpt lat="44.09866" lon="6.30426">
        <ele>899.8</ele>
        <time>2019-06-23T12:14:42.000Z</time>
      </trkpt>
      <trkpt lat="44.09866" lon="6.30423">
        <ele>900.2</ele>
        <time>2019-06-23T12:14:44.000Z</time>
      </trkpt>
      <trkpt lat="44.09865" lon="6.3042">
        <ele>901</ele>
        <time>2019-06-23T12:14:47.000Z</time>
      </trkpt>
      <trkpt lat="44.09863" lon="6.30416">
        <ele>902</ele>
        <time>2019-06-23T12:14:50.000Z</time>
      </trkpt>
      <trkpt lat="44.09863" lon="6.30413">
        <ele>902.2</ele>
        <time>2019-06-23T12:14:53.000Z</time>
      </trkpt>
      <trkpt lat="44.09862" lon="6.30412">
        <ele>902.2</ele>
        <time>2019-06-23T12:14:55.000Z</time>
      </trkpt>
      <trkpt lat="44.09861" lon="6.30412">
        <ele>902</ele>
        <time>2019-06-23T12:15:00.000Z</time>
      </trkpt>
      <trkpt lat="44.09861" lon="6.30412">
        <ele>902</ele>
        <time>2019-06-23T12:15:01.000Z</time>
      </trkpt>
      <trkpt lat="44.09861" lon="6.30412">
        <ele>901.6</ele>
        <time>2019-06-23T12:15:03.000Z</time>
      </trkpt>
      <trkpt lat="44.09862" lon="6.30412">
        <ele>901.4</ele>
        <time>2019-06-23T12:15:06.000Z</time>
      </trkpt>
      <trkpt lat="44.09862" lon="6.30412">
        <ele>901.4</ele>
        <time>2019-06-23T12:15:07.000Z</time>
      </trkpt>
      <trkpt lat="44.09862" lon="6.30412">
        <ele>901.4</ele>
        <time>2019-06-23T12:15:09.000Z</time>
      </trkpt>
      <trkpt lat="44.09862" lon="6.30413">
        <ele>901.8</ele>
        <time>2019-06-23T12:15:17.000Z</time>
      </trkpt>
      <trkpt lat="44.09861" lon="6.30413">
        <ele>901.2</ele>
        <time>2019-06-23T12:15:49.000Z</time>
      </trkpt>
      <trkpt lat="44.09861" lon="6.30413">
        <ele>901.2</ele>
        <time>2019-06-23T12:15:53.000Z</time>
      </trkpt>
      <trkpt lat="44.09861" lon="6.30413">
        <ele>901.8</ele>
        <time>2019-06-23T12:16:13.000Z</time>
      </trkpt>
      <trkpt lat="44.09862" lon="6.30412">
        <ele>901.8</ele>
        <time>2019-06-23T12:16:38.000Z</time>
      </trkpt>
      <trkpt lat="44.09863" lon="6.30412">
        <ele>901.8</ele>
        <time>2019-06-23T12:16:40.000Z</time>
      </trkpt>
      <trkpt lat="44.09867" lon="6.30412">
        <ele>901.8</ele>
        <time>2019-06-23T12:16:44.000Z</time>
      </trkpt>
      <trkpt lat="44.09872" lon="6.30415">
        <ele>901.8</ele>
        <time>2019-06-23T12:16:52.000Z</time>
      </trkpt>
      <trkpt lat="44.09875" lon="6.30416">
        <ele>901.8</ele>
        <time>2019-06-23T12:16:58.000Z</time>
      </trkpt>
      <trkpt lat="44.09877" lon="6.30416">
        <ele>902</ele>
        <time>2019-06-23T12:17:15.000Z</time>
      </trkpt>
      <trkpt lat="44.09887" lon="6.30413">
        <ele>901.2</ele>
        <time>2019-06-23T12:17:19.000Z</time>
      </trkpt>
      <trkpt lat="44.09889" lon="6.30412">
        <ele>900.4</ele>
        <time>2019-06-23T12:17:20.000Z</time>
      </trkpt>
      <trkpt lat="44.0989" lon="6.30412">
        <ele>899.8</ele>
        <time>2019-06-23T12:17:21.000Z</time>
      </trkpt>
      <trkpt lat="44.09891" lon="6.30412">
        <ele>899.2</ele>
        <time>2019-06-23T12:17:22.000Z</time>
      </trkpt>
      <trkpt lat="44.09892" lon="6.30412">
        <ele>898.6</ele>
        <time>2019-06-23T12:17:23.000Z</time>
      </trkpt>
      <trkpt lat="44.09893" lon="6.30411">
        <ele>898.2</ele>
        <time>2019-06-23T12:17:24.000Z</time>
      </trkpt>
      <trkpt lat="44.09894" lon="6.3041">
        <ele>898</ele>
        <time>2019-06-23T12:17:25.000Z</time>
      </trkpt>
      <trkpt lat="44.09894" lon="6.30409">
        <ele>897.6</ele>
        <time>2019-06-23T12:17:27.000Z</time>
      </trkpt>
      <trkpt lat="44.09894" lon="6.30408">
        <ele>897</ele>
        <time>2019-06-23T12:17:31.000Z</time>
      </trkpt>
      <trkpt lat="44.09894" lon="6.30408">
        <ele>897</ele>
        <time>2019-06-23T12:17:32.000Z</time>
      </trkpt>
      <trkpt lat="44.09894" lon="6.30408">
        <ele>897</ele>
        <time>2019-06-23T12:17:33.000Z</time>
      </trkpt>
      <trkpt lat="44.09896" lon="6.30405">
        <ele>896.6</ele>
        <time>2019-06-23T12:17:37.000Z</time>
      </trkpt>
      <trkpt lat="44.09896" lon="6.30404">
        <ele>896.2</ele>
        <time>2019-06-23T12:17:39.000Z</time>
      </trkpt>
      <trkpt lat="44.09896" lon="6.30403">
        <ele>895.8</ele>
        <time>2019-06-23T12:17:41.000Z</time>
      </trkpt>
      <trkpt lat="44.09897" lon="6.30402">
        <ele>895.4</ele>
        <time>2019-06-23T12:17:42.000Z</time>
      </trkpt>
      <trkpt lat="44.09898" lon="6.304">
        <ele>894.6</ele>
        <time>2019-06-23T12:17:44.000Z</time>
      </trkpt>
      <trkpt lat="44.09899" lon="6.30398">
        <ele>894</ele>
        <time>2019-06-23T12:17:46.000Z</time>
      </trkpt>
      <trkpt lat="44.09899" lon="6.30395">
        <ele>893.4</ele>
        <time>2019-06-23T12:17:49.000Z</time>
      </trkpt>
      <trkpt lat="44.09899" lon="6.30394">
        <ele>893.2</ele>
        <time>2019-06-23T12:17:50.000Z</time>
      </trkpt>
      <trkpt lat="44.09904" lon="6.30389">
        <ele>892.6</ele>
        <time>2019-06-23T12:17:54.000Z</time>
      </trkpt>
      <trkpt lat="44.09906" lon="6.30385">
        <ele>892.2</ele>
        <time>2019-06-23T12:17:55.000Z</time>
      </trkpt>
      <trkpt lat="44.09906" lon="6.3038">
        <ele>891.2</ele>
        <time>2019-06-23T12:17:57.000Z</time>
      </trkpt>
      <trkpt lat="44.09905" lon="6.30379">
        <ele>890.6</ele>
        <time>2019-06-23T12:17:58.000Z</time>
      </trkpt>
      <trkpt lat="44.09904" lon="6.3038">
        <ele>890</ele>
        <time>2019-06-23T12:17:59.000Z</time>
      </trkpt>
      <trkpt lat="44.09899" lon="6.30382">
        <ele>889</ele>
        <time>2019-06-23T12:18:02.000Z</time>
      </trkpt>
      <trkpt lat="44.09897" lon="6.30382">
        <ele>889</ele>
        <time>2019-06-23T12:18:03.000Z</time>
      </trkpt>
      <trkpt lat="44.09888" lon="6.30382">
        <ele>888.4</ele>
        <time>2019-06-23T12:18:06.000Z</time>
      </trkpt>
      <trkpt lat="44.09875" lon="6.30377">
        <ele>887.8</ele>
        <time>2019-06-23T12:18:08.000Z</time>
      </trkpt>
      <trkpt lat="44.0987" lon="6.30374">
        <ele>886.8</ele>
        <time>2019-06-23T12:18:09.000Z</time>
      </trkpt>
      <trkpt lat="44.09864" lon="6.30372">
        <ele>886</ele>
        <time>2019-06-23T12:18:10.000Z</time>
      </trkpt>
      <trkpt lat="44.09852" lon="6.30371">
        <ele>885</ele>
        <time>2019-06-23T12:18:12.000Z</time>
      </trkpt>
      <trkpt lat="44.09847" lon="6.30369">
        <ele>884.6</ele>
        <time>2019-06-23T12:18:13.000Z</time>
      </trkpt>
      <trkpt lat="44.09841" lon="6.30367">
        <ele>884.4</ele>
        <time>2019-06-23T12:18:14.000Z</time>
      </trkpt>
      <trkpt lat="44.0983" lon="6.30363">
        <ele>883.6</ele>
        <time>2019-06-23T12:18:16.000Z</time>
      </trkpt>
      <trkpt lat="44.09824" lon="6.30361">
        <ele>883.2</ele>
        <time>2019-06-23T12:18:17.000Z</time>
      </trkpt>
      <trkpt lat="44.09814" lon="6.30356">
        <ele>882.8</ele>
        <time>2019-06-23T12:18:19.000Z</time>
      </trkpt>
      <trkpt lat="44.09806" lon="6.30352">
        <ele>882.4</ele>
        <time>2019-06-23T12:18:21.000Z</time>
      </trkpt>
      <trkpt lat="44.098" lon="6.30349">
        <ele>881.4</ele>
        <time>2019-06-23T12:18:25.000Z</time>
      </trkpt>
      <trkpt lat="44.09799" lon="6.30348">
        <ele>880.8</ele>
        <time>2019-06-23T12:18:27.000Z</time>
      </trkpt>
      <trkpt lat="44.09798" lon="6.30345">
        <ele>880.4</ele>
        <time>2019-06-23T12:18:29.000Z</time>
      </trkpt>
      <trkpt lat="44.09798" lon="6.30346">
        <ele>880.2</ele>
        <time>2019-06-23T12:18:30.000Z</time>
      </trkpt>
      <trkpt lat="44.098" lon="6.30346">
        <ele>879.6</ele>
        <time>2019-06-23T12:18:34.000Z</time>
      </trkpt>
      <trkpt lat="44.098" lon="6.30346">
        <ele>879.4</ele>
        <time>2019-06-23T12:18:43.000Z</time>
      </trkpt>
      <trkpt lat="44.098" lon="6.30347">
        <ele>879.4</ele>
        <time>2019-06-23T12:18:45.000Z</time>
      </trkpt>
      <trkpt lat="44.09803" lon="6.30347">
        <ele>879.4</ele>
        <time>2019-06-23T12:18:48.000Z</time>
      </trkpt>
      <trkpt lat="44.09805" lon="6.30347">
        <ele>879.2</ele>
        <time>2019-06-23T12:18:49.000Z</time>
      </trkpt>
      <trkpt lat="44.09809" lon="6.30345">
        <ele>879.2</ele>
        <time>2019-06-23T12:18:51.000Z</time>
      </trkpt>
      <trkpt lat="44.0981" lon="6.30345">
        <ele>879.2</ele>
        <time>2019-06-23T12:18:52.000Z</time>
      </trkpt>
      <trkpt lat="44.09812" lon="6.30346">
        <ele>879.4</ele>
        <time>2019-06-23T12:18:53.000Z</time>
      </trkpt>
      <trkpt lat="44.09813" lon="6.30343">
        <ele>880.2</ele>
        <time>2019-06-23T12:18:55.000Z</time>
      </trkpt>
      <trkpt lat="44.09814" lon="6.30335">
        <ele>880.6</ele>
        <time>2019-06-23T12:18:58.000Z</time>
      </trkpt>
      <trkpt lat="44.09813" lon="6.30332">
        <ele>880.6</ele>
        <time>2019-06-23T12:18:59.000Z</time>
      </trkpt>
      <trkpt lat="44.09812" lon="6.30331">
        <ele>880.6</ele>
        <time>2019-06-23T12:19:00.000Z</time>
      </trkpt>
      <trkpt lat="44.0981" lon="6.30331">
        <ele>880.4</ele>
        <time>2019-06-23T12:19:02.000Z</time>
      </trkpt>
      <trkpt lat="44.09809" lon="6.3033">
        <ele>880.2</ele>
        <time>2019-06-23T12:19:03.000Z</time>
      </trkpt>
      <trkpt lat="44.09806" lon="6.30326">
        <ele>879.8</ele>
        <time>2019-06-23T12:19:05.000Z</time>
      </trkpt>
      <trkpt lat="44.09806" lon="6.30322">
        <ele>879.4</ele>
        <time>2019-06-23T12:19:06.000Z</time>
      </trkpt>
      <trkpt lat="44.09807" lon="6.30319">
        <ele>879</ele>
        <time>2019-06-23T12:19:07.000Z</time>
      </trkpt>
      <trkpt lat="44.09808" lon="6.30316">
        <ele>878.6</ele>
        <time>2019-06-23T12:19:08.000Z</time>
      </trkpt>
      <trkpt lat="44.09808" lon="6.30313">
        <ele>878.2</ele>
        <time>2019-06-23T12:19:09.000Z</time>
      </trkpt>
      <trkpt lat="44.09807" lon="6.30309">
        <ele>878</ele>
        <time>2019-06-23T12:19:10.000Z</time>
      </trkpt>
      <trkpt lat="44.09802" lon="6.30305">
        <ele>877.2</ele>
        <time>2019-06-23T12:19:12.000Z</time>
      </trkpt>
      <trkpt lat="44.09799" lon="6.30303">
        <ele>876.4</ele>
        <time>2019-06-23T12:19:13.000Z</time>
      </trkpt>
      <trkpt lat="44.09794" lon="6.30299">
        <ele>875.4</ele>
        <time>2019-06-23T12:19:15.000Z</time>
      </trkpt>
      <trkpt lat="44.09792" lon="6.30296">
        <ele>875</ele>
        <time>2019-06-23T12:19:16.000Z</time>
      </trkpt>
      <trkpt lat="44.09789" lon="6.30288">
        <ele>874</ele>
        <time>2019-06-23T12:19:18.000Z</time>
      </trkpt>
      <trkpt lat="44.09785" lon="6.30281">
        <ele>872.8</ele>
        <time>2019-06-23T12:19:20.000Z</time>
      </trkpt>
      <trkpt lat="44.09784" lon="6.30277">
        <ele>872</ele>
        <time>2019-06-23T12:19:21.000Z</time>
      </trkpt>
      <trkpt lat="44.09782" lon="6.30272">
        <ele>871.2</ele>
        <time>2019-06-23T12:19:22.000Z</time>
      </trkpt>
      <trkpt lat="44.0978" lon="6.30262">
        <ele>870.4</ele>
        <time>2019-06-23T12:19:24.000Z</time>
      </trkpt>
      <trkpt lat="44.0978" lon="6.30257">
        <ele>870.2</ele>
        <time>2019-06-23T12:19:25.000Z</time>
      </trkpt>
      <trkpt lat="44.09776" lon="6.30244">
        <ele>869.4</ele>
        <time>2019-06-23T12:19:27.000Z</time>
      </trkpt>
      <trkpt lat="44.09774" lon="6.3024">
        <ele>868.8</ele>
        <time>2019-06-23T12:19:28.000Z</time>
      </trkpt>
      <trkpt lat="44.0977" lon="6.30234">
        <ele>868.2</ele>
        <time>2019-06-23T12:19:30.000Z</time>
      </trkpt>
      <trkpt lat="44.09769" lon="6.30234">
        <ele>868</ele>
        <time>2019-06-23T12:19:31.000Z</time>
      </trkpt>
      <trkpt lat="44.09769" lon="6.30234">
        <ele>867.8</ele>
        <time>2019-06-23T12:19:33.000Z</time>
      </trkpt>
      <trkpt lat="44.09769" lon="6.30235">
        <ele>867.6</ele>
        <time>2019-06-23T12:19:35.000Z</time>
      </trkpt>
      <trkpt lat="44.09769" lon="6.30236">
        <ele>867.4</ele>
        <time>2019-06-23T12:19:36.000Z</time>
      </trkpt>
      <trkpt lat="44.09769" lon="6.30237">
        <ele>867.4</ele>
        <time>2019-06-23T12:19:37.000Z</time>
      </trkpt>
      <trkpt lat="44.09769" lon="6.30237">
        <ele>867.6</ele>
        <time>2019-06-23T12:19:39.000Z</time>
      </trkpt>
      <trkpt lat="44.09769" lon="6.30237">
        <ele>867.6</ele>
        <time>2019-06-23T12:19:48.000Z</time>
      </trkpt>
      <trkpt lat="44.09769" lon="6.30237">
        <ele>867.6</ele>
        <time>2019-06-23T12:19:49.000Z</time>
      </trkpt>
      <trkpt lat="44.09769" lon="6.30238">
        <ele>867.8</ele>
        <time>2019-06-23T12:20:01.000Z</time>
      </trkpt>
      <trkpt lat="44.09768" lon="6.30238">
        <ele>868.2</ele>
        <time>2019-06-23T12:20:09.000Z</time>
      </trkpt>
      <trkpt lat="44.09768" lon="6.30238">
        <ele>868.2</ele>
        <time>2019-06-23T12:20:16.000Z</time>
      </trkpt>
      <trkpt lat="44.09768" lon="6.30238">
        <ele>868</ele>
        <time>2019-06-23T12:20:18.000Z</time>
      </trkpt>
      <trkpt lat="44.09768" lon="6.30238">
        <ele>867.8</ele>
        <time>2019-06-23T12:20:20.000Z</time>
      </trkpt>
      <trkpt lat="44.09768" lon="6.30238">
        <ele>868</ele>
        <time>2019-06-23T12:20:23.000Z</time>
      </trkpt>
      <trkpt lat="44.09768" lon="6.30238">
        <ele>868</ele>
        <time>2019-06-23T12:20:24.000Z</time>
      </trkpt>
      <trkpt lat="44.09768" lon="6.30238">
        <ele>868</ele>
        <time>2019-06-23T12:20:26.000Z</time>
      </trkpt>
      <trkpt lat="44.09768" lon="6.30238">
        <ele>868</ele>
        <time>2019-06-23T12:20:31.000Z</time>
      </trkpt>
      <trkpt lat="44.09768" lon="6.30238">
        <ele>868.4</ele>
        <time>2019-06-23T12:20:47.000Z</time>
      </trkpt>
      <trkpt lat="44.09768" lon="6.30239">
        <ele>868.4</ele>
        <time>2019-06-23T12:21:22.000Z</time>
      </trkpt>
      <trkpt lat="44.09768" lon="6.30238">
        <ele>868.4</ele>
        <time>2019-06-23T12:21:43.000Z</time>
      </trkpt>
      <trkpt lat="44.09766" lon="6.30232">
        <ele>868.4</ele>
        <time>2019-06-23T12:21:54.000Z</time>
      </trkpt>
      <trkpt lat="44.09757" lon="6.30213">
        <ele>868.4</ele>
        <time>2019-06-23T12:21:58.000Z</time>
      </trkpt>
      <trkpt lat="44.09756" lon="6.30209">
        <ele>868.4</ele>
        <time>2019-06-23T12:21:59.000Z</time>
      </trkpt>
      <trkpt lat="44.09754" lon="6.30205">
        <ele>868.2</ele>
        <time>2019-06-23T12:22:00.000Z</time>
      </trkpt>
      <trkpt lat="44.09753" lon="6.30203">
        <ele>867.6</ele>
        <time>2019-06-23T12:22:01.000Z</time>
      </trkpt>
      <trkpt lat="44.09751" lon="6.30202">
        <ele>867.2</ele>
        <time>2019-06-23T12:22:02.000Z</time>
      </trkpt>
      <trkpt lat="44.09748" lon="6.30204">
        <ele>866.6</ele>
        <time>2019-06-23T12:22:04.000Z</time>
      </trkpt>
      <trkpt lat="44.09745" lon="6.30209">
        <ele>866.2</ele>
        <time>2019-06-23T12:22:06.000Z</time>
      </trkpt>
      <trkpt lat="44.09743" lon="6.30217">
        <ele>865.6</ele>
        <time>2019-06-23T12:22:09.000Z</time>
      </trkpt>
      <trkpt lat="44.09742" lon="6.30218">
        <ele>865.4</ele>
        <time>2019-06-23T12:22:10.000Z</time>
      </trkpt>
      <trkpt lat="44.0974" lon="6.30218">
        <ele>865.2</ele>
        <time>2019-06-23T12:22:11.000Z</time>
      </trkpt>
      <trkpt lat="44.09732" lon="6.30219">
        <ele>864</ele>
        <time>2019-06-23T12:22:15.000Z</time>
      </trkpt>
      <trkpt lat="44.09726" lon="6.3022">
        <ele>863.4</ele>
        <time>2019-06-23T12:22:17.000Z</time>
      </trkpt>
      <trkpt lat="44.09724" lon="6.30222">
        <ele>863</ele>
        <time>2019-06-23T12:22:18.000Z</time>
      </trkpt>
      <trkpt lat="44.09721" lon="6.30223">
        <ele>862.6</ele>
        <time>2019-06-23T12:22:19.000Z</time>
      </trkpt>
      <trkpt lat="44.09717" lon="6.30223">
        <ele>861.8</ele>
        <time>2019-06-23T12:22:21.000Z</time>
      </trkpt>
      <trkpt lat="44.09711" lon="6.30223">
        <ele>861</ele>
        <time>2019-06-23T12:22:24.000Z</time>
      </trkpt>
      <trkpt lat="44.09708" lon="6.3022">
        <ele>860.6</ele>
        <time>2019-06-23T12:22:26.000Z</time>
      </trkpt>
      <trkpt lat="44.09707" lon="6.3022">
        <ele>860.2</ele>
        <time>2019-06-23T12:22:27.000Z</time>
      </trkpt>
      <trkpt lat="44.09707" lon="6.3022">
        <ele>860</ele>
        <time>2019-06-23T12:22:29.000Z</time>
      </trkpt>
      <trkpt lat="44.09707" lon="6.3022">
        <ele>860</ele>
        <time>2019-06-23T12:22:30.000Z</time>
      </trkpt>
      <trkpt lat="44.09704" lon="6.30215">
        <ele>859.6</ele>
        <time>2019-06-23T12:22:33.000Z</time>
      </trkpt>
      <trkpt lat="44.09698" lon="6.30205">
        <ele>858.4</ele>
        <time>2019-06-23T12:22:36.000Z</time>
      </trkpt>
      <trkpt lat="44.09695" lon="6.30201">
        <ele>858.2</ele>
        <time>2019-06-23T12:22:37.000Z</time>
      </trkpt>
      <trkpt lat="44.09687" lon="6.30194">
        <ele>857.8</ele>
        <time>2019-06-23T12:22:39.000Z</time>
      </trkpt>
      <trkpt lat="44.09683" lon="6.30191">
        <ele>857.2</ele>
        <time>2019-06-23T12:22:40.000Z</time>
      </trkpt>
      <trkpt lat="44.09679" lon="6.30187">
        <ele>856.8</ele>
        <time>2019-06-23T12:22:41.000Z</time>
      </trkpt>
      <trkpt lat="44.09674" lon="6.30183">
        <ele>856.6</ele>
        <time>2019-06-23T12:22:42.000Z</time>
      </trkpt>
      <trkpt lat="44.09664" lon="6.30179">
        <ele>856</ele>
        <time>2019-06-23T12:22:44.000Z</time>
      </trkpt>
      <trkpt lat="44.09655" lon="6.30179">
        <ele>854.8</ele>
        <time>2019-06-23T12:22:46.000Z</time>
      </trkpt>
      <trkpt lat="44.09652" lon="6.30178">
        <ele>854</ele>
        <time>2019-06-23T12:22:47.000Z</time>
      </trkpt>
      <trkpt lat="44.09648" lon="6.30177">
        <ele>853.2</ele>
        <time>2019-06-23T12:22:48.000Z</time>
      </trkpt>
      <trkpt lat="44.09641" lon="6.30171">
        <ele>851.4</ele>
        <time>2019-06-23T12:22:50.000Z</time>
      </trkpt>
      <trkpt lat="44.09632" lon="6.30165">
        <ele>850</ele>
        <time>2019-06-23T12:22:52.000Z</time>
      </trkpt>
      <trkpt lat="44.0962" lon="6.30157">
        <ele>848.4</ele>
        <time>2019-06-23T12:22:54.000Z</time>
      </trkpt>
      <trkpt lat="44.09614" lon="6.30154">
        <ele>847.2</ele>
        <time>2019-06-23T12:22:55.000Z</time>
      </trkpt>
      <trkpt lat="44.09608" lon="6.30152">
        <ele>846.4</ele>
        <time>2019-06-23T12:22:56.000Z</time>
      </trkpt>
      <trkpt lat="44.09602" lon="6.30152">
        <ele>845.6</ele>
        <time>2019-06-23T12:22:57.000Z</time>
      </trkpt>
      <trkpt lat="44.09595" lon="6.30151">
        <ele>844.8</ele>
        <time>2019-06-23T12:22:58.000Z</time>
      </trkpt>
      <trkpt lat="44.09589" lon="6.3015">
        <ele>844</ele>
        <time>2019-06-23T12:22:59.000Z</time>
      </trkpt>
      <trkpt lat="44.09584" lon="6.3015">
        <ele>843.2</ele>
        <time>2019-06-23T12:23:00.000Z</time>
      </trkpt>
      <trkpt lat="44.09579" lon="6.3015">
        <ele>841.8</ele>
        <time>2019-06-23T12:23:01.000Z</time>
      </trkpt>
      <trkpt lat="44.09575" lon="6.3015">
        <ele>840.6</ele>
        <time>2019-06-23T12:23:02.000Z</time>
      </trkpt>
      <trkpt lat="44.09565" lon="6.30145">
        <ele>838.6</ele>
        <time>2019-06-23T12:23:04.000Z</time>
      </trkpt>
      <trkpt lat="44.09559" lon="6.30143">
        <ele>837.6</ele>
        <time>2019-06-23T12:23:05.000Z</time>
      </trkpt>
      <trkpt lat="44.09554" lon="6.30144">
        <ele>836.4</ele>
        <time>2019-06-23T12:23:06.000Z</time>
      </trkpt>
      <trkpt lat="44.09548" lon="6.30145">
        <ele>835.4</ele>
        <time>2019-06-23T12:23:07.000Z</time>
      </trkpt>
      <trkpt lat="44.09544" lon="6.30145">
        <ele>834.2</ele>
        <time>2019-06-23T12:23:08.000Z</time>
      </trkpt>
      <trkpt lat="44.0954" lon="6.30144">
        <ele>832.8</ele>
        <time>2019-06-23T12:23:09.000Z</time>
      </trkpt>
      <trkpt lat="44.09535" lon="6.30143">
        <ele>831.8</ele>
        <time>2019-06-23T12:23:10.000Z</time>
      </trkpt>
      <trkpt lat="44.09525" lon="6.30142">
        <ele>829.8</ele>
        <time>2019-06-23T12:23:12.000Z</time>
      </trkpt>
      <trkpt lat="44.0952" lon="6.30141">
        <ele>829.2</ele>
        <time>2019-06-23T12:23:13.000Z</time>
      </trkpt>
      <trkpt lat="44.09515" lon="6.30139">
        <ele>828.6</ele>
        <time>2019-06-23T12:23:14.000Z</time>
      </trkpt>
      <trkpt lat="44.09506" lon="6.30134">
        <ele>827.6</ele>
        <time>2019-06-23T12:23:16.000Z</time>
      </trkpt>
      <trkpt lat="44.09503" lon="6.30131">
        <ele>826.8</ele>
        <time>2019-06-23T12:23:17.000Z</time>
      </trkpt>
      <trkpt lat="44.09503" lon="6.30127">
        <ele>826</ele>
        <time>2019-06-23T12:23:18.000Z</time>
      </trkpt>
      <trkpt lat="44.09505" lon="6.30124">
        <ele>825.4</ele>
        <time>2019-06-23T12:23:19.000Z</time>
      </trkpt>
      <trkpt lat="44.09515" lon="6.30121">
        <ele>823.6</ele>
        <time>2019-06-23T12:23:21.000Z</time>
      </trkpt>
      <trkpt lat="44.0952" lon="6.30119">
        <ele>822.6</ele>
        <time>2019-06-23T12:23:22.000Z</time>
      </trkpt>
      <trkpt lat="44.09524" lon="6.30117">
        <ele>822</ele>
        <time>2019-06-23T12:23:23.000Z</time>
      </trkpt>
      <trkpt lat="44.09528" lon="6.30112">
        <ele>820.6</ele>
        <time>2019-06-23T12:23:25.000Z</time>
      </trkpt>
      <trkpt lat="44.09521" lon="6.30109">
        <ele>818.6</ele>
        <time>2019-06-23T12:23:27.000Z</time>
      </trkpt>
      <trkpt lat="44.09515" lon="6.30106">
        <ele>817.4</ele>
        <time>2019-06-23T12:23:28.000Z</time>
      </trkpt>
      <trkpt lat="44.09508" lon="6.30102">
        <ele>816.4</ele>
        <time>2019-06-23T12:23:29.000Z</time>
      </trkpt>
      <trkpt lat="44.09502" lon="6.30098">
        <ele>815.2</ele>
        <time>2019-06-23T12:23:30.000Z</time>
      </trkpt>
      <trkpt lat="44.09499" lon="6.30095">
        <ele>813.8</ele>
        <time>2019-06-23T12:23:31.000Z</time>
      </trkpt>
      <trkpt lat="44.09498" lon="6.30091">
        <ele>812.2</ele>
        <time>2019-06-23T12:23:32.000Z</time>
      </trkpt>
      <trkpt lat="44.09495" lon="6.30087">
        <ele>810.6</ele>
        <time>2019-06-23T12:23:33.000Z</time>
      </trkpt>
      <trkpt lat="44.09494" lon="6.30084">
        <ele>809.4</ele>
        <time>2019-06-23T12:23:34.000Z</time>
      </trkpt>
      <trkpt lat="44.09487" lon="6.30079">
        <ele>808.2</ele>
        <time>2019-06-23T12:23:36.000Z</time>
      </trkpt>
      <trkpt lat="44.09484" lon="6.30076">
        <ele>807.8</ele>
        <time>2019-06-23T12:23:37.000Z</time>
      </trkpt>
      <trkpt lat="44.09486" lon="6.30074">
        <ele>807.2</ele>
        <time>2019-06-23T12:23:39.000Z</time>
      </trkpt>
      <trkpt lat="44.09494" lon="6.30073">
        <ele>805.6</ele>
        <time>2019-06-23T12:23:41.000Z</time>
      </trkpt>
      <trkpt lat="44.09504" lon="6.30073">
        <ele>804</ele>
        <time>2019-06-23T12:23:43.000Z</time>
      </trkpt>
      <trkpt lat="44.09507" lon="6.30072">
        <ele>803.2</ele>
        <time>2019-06-23T12:23:44.000Z</time>
      </trkpt>
      <trkpt lat="44.09509" lon="6.3007">
        <ele>802.4</ele>
        <time>2019-06-23T12:23:45.000Z</time>
      </trkpt>
      <trkpt lat="44.09507" lon="6.30067">
        <ele>801.8</ele>
        <time>2019-06-23T12:23:46.000Z</time>
      </trkpt>
      <trkpt lat="44.09503" lon="6.30064">
        <ele>801.2</ele>
        <time>2019-06-23T12:23:47.000Z</time>
      </trkpt>
      <trkpt lat="44.09493" lon="6.30057">
        <ele>800.4</ele>
        <time>2019-06-23T12:23:49.000Z</time>
      </trkpt>
      <trkpt lat="44.09487" lon="6.30054">
        <ele>800.2</ele>
        <time>2019-06-23T12:23:50.000Z</time>
      </trkpt>
      <trkpt lat="44.09472" lon="6.30052">
        <ele>798.2</ele>
        <time>2019-06-23T12:23:52.000Z</time>
      </trkpt>
      <trkpt lat="44.09465" lon="6.30055">
        <ele>796.4</ele>
        <time>2019-06-23T12:23:53.000Z</time>
      </trkpt>
      <trkpt lat="44.09458" lon="6.30058">
        <ele>795.2</ele>
        <time>2019-06-23T12:23:54.000Z</time>
      </trkpt>
      <trkpt lat="44.09443" lon="6.30061">
        <ele>793.8</ele>
        <time>2019-06-23T12:23:56.000Z</time>
      </trkpt>
      <trkpt lat="44.0943" lon="6.30063">
        <ele>791.8</ele>
        <time>2019-06-23T12:23:58.000Z</time>
      </trkpt>
      <trkpt lat="44.09423" lon="6.30065">
        <ele>790.4</ele>
        <time>2019-06-23T12:23:59.000Z</time>
      </trkpt>
      <trkpt lat="44.09416" lon="6.30067">
        <ele>789</ele>
        <time>2019-06-23T12:24:00.000Z</time>
      </trkpt>
      <trkpt lat="44.09411" lon="6.30068">
        <ele>788</ele>
        <time>2019-06-23T12:24:01.000Z</time>
      </trkpt>
      <trkpt lat="44.09407" lon="6.30069">
        <ele>787.2</ele>
        <time>2019-06-23T12:24:02.000Z</time>
      </trkpt>
      <trkpt lat="44.09405" lon="6.30072">
        <ele>786.2</ele>
        <time>2019-06-23T12:24:03.000Z</time>
      </trkpt>
      <trkpt lat="44.09401" lon="6.30072">
        <ele>785</ele>
        <time>2019-06-23T12:24:04.000Z</time>
      </trkpt>
      <trkpt lat="44.09397" lon="6.3007">
        <ele>783.8</ele>
        <time>2019-06-23T12:24:05.000Z</time>
      </trkpt>
      <trkpt lat="44.09388" lon="6.30066">
        <ele>782.2</ele>
        <time>2019-06-23T12:24:07.000Z</time>
      </trkpt>
      <trkpt lat="44.09379" lon="6.30058">
        <ele>781</ele>
        <time>2019-06-23T12:24:09.000Z</time>
      </trkpt>
      <trkpt lat="44.09374" lon="6.30055">
        <ele>780</ele>
        <time>2019-06-23T12:24:10.000Z</time>
      </trkpt>
      <trkpt lat="44.09369" lon="6.30053">
        <ele>779</ele>
        <time>2019-06-23T12:24:11.000Z</time>
      </trkpt>
      <trkpt lat="44.09365" lon="6.30051">
        <ele>778</ele>
        <time>2019-06-23T12:24:12.000Z</time>
      </trkpt>
      <trkpt lat="44.09361" lon="6.30049">
        <ele>776.6</ele>
        <time>2019-06-23T12:24:13.000Z</time>
      </trkpt>
      <trkpt lat="44.09357" lon="6.30046">
        <ele>775.4</ele>
        <time>2019-06-23T12:24:14.000Z</time>
      </trkpt>
      <trkpt lat="44.09354" lon="6.30043">
        <ele>773.8</ele>
        <time>2019-06-23T12:24:15.000Z</time>
      </trkpt>
      <trkpt lat="44.09352" lon="6.3004">
        <ele>772.4</ele>
        <time>2019-06-23T12:24:16.000Z</time>
      </trkpt>
      <trkpt lat="44.09352" lon="6.30037">
        <ele>771.4</ele>
        <time>2019-06-23T12:24:17.000Z</time>
      </trkpt>
      <trkpt lat="44.09351" lon="6.30032">
        <ele>769.2</ele>
        <time>2019-06-23T12:24:19.000Z</time>
      </trkpt>
      <trkpt lat="44.0935" lon="6.3003">
        <ele>768</ele>
        <time>2019-06-23T12:24:20.000Z</time>
      </trkpt>
      <trkpt lat="44.09348" lon="6.30023">
        <ele>766.2</ele>
        <time>2019-06-23T12:24:22.000Z</time>
      </trkpt>
      <trkpt lat="44.09345" lon="6.30019">
        <ele>765</ele>
        <time>2019-06-23T12:24:23.000Z</time>
      </trkpt>
      <trkpt lat="44.09343" lon="6.30014">
        <ele>763.4</ele>
        <time>2019-06-23T12:24:25.000Z</time>
      </trkpt>
      <trkpt lat="44.09345" lon="6.30013">
        <ele>762.8</ele>
        <time>2019-06-23T12:24:26.000Z</time>
      </trkpt>
      <trkpt lat="44.09348" lon="6.30013">
        <ele>761.8</ele>
        <time>2019-06-23T12:24:27.000Z</time>
      </trkpt>
      <trkpt lat="44.09356" lon="6.30017">
        <ele>760.6</ele>
        <time>2019-06-23T12:24:29.000Z</time>
      </trkpt>
      <trkpt lat="44.09358" lon="6.30018">
        <ele>759.4</ele>
        <time>2019-06-23T12:24:31.000Z</time>
      </trkpt>
      <trkpt lat="44.09359" lon="6.30018">
        <ele>759</ele>
        <time>2019-06-23T12:24:32.000Z</time>
      </trkpt>
      <trkpt lat="44.09359" lon="6.30017">
        <ele>758.2</ele>
        <time>2019-06-23T12:24:34.000Z</time>
      </trkpt>
      <trkpt lat="44.09359" lon="6.30014">
        <ele>757.8</ele>
        <time>2019-06-23T12:24:38.000Z</time>
      </trkpt>
      <trkpt lat="44.09359" lon="6.30013">
        <ele>757.6</ele>
        <time>2019-06-23T12:24:40.000Z</time>
      </trkpt>
      <trkpt lat="44.09359" lon="6.30012">
        <ele>757.6</ele>
        <time>2019-06-23T12:24:41.000Z</time>
      </trkpt>
      <trkpt lat="44.09358" lon="6.30011">
        <ele>757.6</ele>
        <time>2019-06-23T12:24:43.000Z</time>
      </trkpt>
      <trkpt lat="44.09357" lon="6.3001">
        <ele>757.6</ele>
        <time>2019-06-23T12:24:44.000Z</time>
      </trkpt>
      <trkpt lat="44.09355" lon="6.30007">
        <ele>757.8</ele>
        <time>2019-06-23T12:24:46.000Z</time>
      </trkpt>
      <trkpt lat="44.09354" lon="6.30003">
        <ele>758.2</ele>
        <time>2019-06-23T12:24:48.000Z</time>
      </trkpt>
      <trkpt lat="44.09354" lon="6.30002">
        <ele>758.2</ele>
        <time>2019-06-23T12:24:49.000Z</time>
      </trkpt>
      <trkpt lat="44.09355" lon="6.29997">
        <ele>758.6</ele>
        <time>2019-06-23T12:24:53.000Z</time>
      </trkpt>
      <trkpt lat="44.09356" lon="6.29995">
        <ele>759.2</ele>
        <time>2019-06-23T12:24:55.000Z</time>
      </trkpt>
      <trkpt lat="44.09356" lon="6.29992">
        <ele>760.2</ele>
        <time>2019-06-23T12:24:59.000Z</time>
      </trkpt>
      <trkpt lat="44.09356" lon="6.29992">
        <ele>760.2</ele>
        <time>2019-06-23T12:25:00.000Z</time>
      </trkpt>
      <trkpt lat="44.09356" lon="6.29993">
        <ele>760.4</ele>
        <time>2019-06-23T12:25:01.000Z</time>
      </trkpt>
      <trkpt lat="44.09356" lon="6.29993">
        <ele>760.6</ele>
        <time>2019-06-23T12:25:08.000Z</time>
      </trkpt>
      <trkpt lat="44.09356" lon="6.29993">
        <ele>760.8</ele>
        <time>2019-06-23T12:25:09.000Z</time>
      </trkpt>
      <trkpt lat="44.09356" lon="6.29992">
        <ele>760.8</ele>
        <time>2019-06-23T12:25:13.000Z</time>
      </trkpt>
      <trkpt lat="44.09357" lon="6.29991">
        <ele>760.8</ele>
        <time>2019-06-23T12:25:15.000Z</time>
      </trkpt>
      <trkpt lat="44.09358" lon="6.2999">
        <ele>761</ele>
        <time>2019-06-23T12:25:18.000Z</time>
      </trkpt>
      <trkpt lat="44.09358" lon="6.2999">
        <ele>761.4</ele>
        <time>2019-06-23T12:25:20.000Z</time>
      </trkpt>
      <trkpt lat="44.09358" lon="6.2999">
        <ele>761.6</ele>
        <time>2019-06-23T12:25:22.000Z</time>
      </trkpt>
      <trkpt lat="44.0936" lon="6.29984">
        <ele>762.2</ele>
        <time>2019-06-23T12:25:29.000Z</time>
      </trkpt>
      <trkpt lat="44.0936" lon="6.29983">
        <ele>762.4</ele>
        <time>2019-06-23T12:25:30.000Z</time>
      </trkpt>
      <trkpt lat="44.0936" lon="6.29975">
        <ele>763</ele>
        <time>2019-06-23T12:25:36.000Z</time>
      </trkpt>
      <trkpt lat="44.0936" lon="6.29963">
        <ele>763.4</ele>
        <time>2019-06-23T12:25:42.000Z</time>
      </trkpt>
      <trkpt lat="44.09359" lon="6.2996">
        <ele>763.6</ele>
        <time>2019-06-23T12:25:43.000Z</time>
      </trkpt>
      <trkpt lat="44.09359" lon="6.29958">
        <ele>763.6</ele>
        <time>2019-06-23T12:25:44.000Z</time>
      </trkpt>
      <trkpt lat="44.09356" lon="6.29946">
        <ele>764.8</ele>
        <time>2019-06-23T12:25:49.000Z</time>
      </trkpt>
      <trkpt lat="44.09355" lon="6.29941">
        <ele>765.4</ele>
        <time>2019-06-23T12:25:51.000Z</time>
      </trkpt>
      <trkpt lat="44.09354" lon="6.29939">
        <ele>765.8</ele>
        <time>2019-06-23T12:25:52.000Z</time>
      </trkpt>
      <trkpt lat="44.09353" lon="6.29936">
        <ele>765.8</ele>
        <time>2019-06-23T12:25:53.000Z</time>
      </trkpt>
      <trkpt lat="44.09351" lon="6.29926">
        <ele>767</ele>
        <time>2019-06-23T12:25:57.000Z</time>
      </trkpt>
      <trkpt lat="44.0935" lon="6.29921">
        <ele>767.6</ele>
        <time>2019-06-23T12:25:59.000Z</time>
      </trkpt>
      <trkpt lat="44.09349" lon="6.29916">
        <ele>768</ele>
        <time>2019-06-23T12:26:01.000Z</time>
      </trkpt>
      <trkpt lat="44.09349" lon="6.29911">
        <ele>768.6</ele>
        <time>2019-06-23T12:26:03.000Z</time>
      </trkpt>
      <trkpt lat="44.09348" lon="6.29906">
        <ele>769.4</ele>
        <time>2019-06-23T12:26:05.000Z</time>
      </trkpt>
      <trkpt lat="44.09347" lon="6.29894">
        <ele>770.4</ele>
        <time>2019-06-23T12:26:10.000Z</time>
      </trkpt>
      <trkpt lat="44.09346" lon="6.29889">
        <ele>770.8</ele>
        <time>2019-06-23T12:26:12.000Z</time>
      </trkpt>
      <trkpt lat="44.09342" lon="6.29881">
        <ele>771.4</ele>
        <time>2019-06-23T12:26:15.000Z</time>
      </trkpt>
      <trkpt lat="44.09341" lon="6.29879">
        <ele>771.6</ele>
        <time>2019-06-23T12:26:16.000Z</time>
      </trkpt>
      <trkpt lat="44.09339" lon="6.29876">
        <ele>772</ele>
        <time>2019-06-23T12:26:18.000Z</time>
      </trkpt>
      <trkpt lat="44.09339" lon="6.29876">
        <ele>772</ele>
        <time>2019-06-23T12:26:24.000Z</time>
      </trkpt>
      <trkpt lat="44.09339" lon="6.29876">
        <ele>772</ele>
        <time>2019-06-23T12:27:03.000Z</time>
      </trkpt>
      <trkpt lat="44.09339" lon="6.29875">
        <ele>771.8</ele>
        <time>2019-06-23T12:27:34.000Z</time>
      </trkpt>
      <trkpt lat="44.09339" lon="6.29875">
        <ele>771.8</ele>
        <time>2019-06-23T12:27:59.000Z</time>
      </trkpt>
      <trkpt lat="44.0934" lon="6.29874">
        <ele>771.8</ele>
        <time>2019-06-23T12:28:18.000Z</time>
      </trkpt>
      <trkpt lat="44.0934" lon="6.29874">
        <ele>771.8</ele>
        <time>2019-06-23T12:28:22.000Z</time>
      </trkpt>
      <trkpt lat="44.0934" lon="6.29874">
        <ele>771.8</ele>
        <time>2019-06-23T12:28:27.000Z</time>
      </trkpt>
      <trkpt lat="44.0934" lon="6.29874">
        <ele>771.8</ele>
        <time>2019-06-23T12:28:30.000Z</time>
      </trkpt>
      <trkpt lat="44.0934" lon="6.29874">
        <ele>771.8</ele>
        <time>2019-06-23T12:28:33.000Z</time>
      </trkpt>
      <trkpt lat="44.0934" lon="6.29874">
        <ele>771.8</ele>
        <time>2019-06-23T12:28:37.000Z</time>
      </trkpt>
      <trkpt lat="44.0934" lon="6.29874">
        <ele>771.8</ele>
        <time>2019-06-23T12:28:39.000Z</time>
      </trkpt>
      <trkpt lat="44.0934" lon="6.29875">
        <ele>771.8</ele>
        <time>2019-06-23T12:29:00.000Z</time>
      </trkpt>
      <trkpt lat="44.0934" lon="6.29876">
        <ele>771.8</ele>
        <time>2019-06-23T12:29:22.000Z</time>
      </trkpt>
      <trkpt lat="44.09341" lon="6.29877">
        <ele>771.8</ele>
        <time>2019-06-23T12:29:25.000Z</time>
      </trkpt>
      <trkpt lat="44.09341" lon="6.29876">
        <ele>771.8</ele>
        <time>2019-06-23T12:29:27.000Z</time>
      </trkpt>
      <trkpt lat="44.09341" lon="6.29876">
        <ele>771.8</ele>
        <time>2019-06-23T12:29:30.000Z</time>
      </trkpt>
      <trkpt lat="44.0934" lon="6.29876">
        <ele>771.8</ele>
        <time>2019-06-23T12:29:34.000Z</time>
      </trkpt>
      <trkpt lat="44.09341" lon="6.29876">
        <ele>771.8</ele>
        <time>2019-06-23T12:29:35.000Z</time>
      </trkpt>
      <trkpt lat="44.09342" lon="6.29877">
        <ele>771.8</ele>
        <time>2019-06-23T12:29:40.000Z</time>
      </trkpt>
      <trkpt lat="44.09342" lon="6.29877">
        <ele>771.8</ele>
        <time>2019-06-23T12:29:43.000Z</time>
      </trkpt>
      <trkpt lat="44.09342" lon="6.29878">
        <ele>771.8</ele>
        <time>2019-06-23T12:29:48.000Z</time>
      </trkpt>
      <trkpt lat="44.09342" lon="6.29877">
        <ele>771.8</ele>
        <time>2019-06-23T12:29:51.000Z</time>
      </trkpt>
      <trkpt lat="44.09342" lon="6.29877">
        <ele>771.8</ele>
        <time>2019-06-23T12:30:01.000Z</time>
      </trkpt>
      <trkpt lat="44.09342" lon="6.29877">
        <ele>771.8</ele>
        <time>2019-06-23T12:30:08.000Z</time>
      </trkpt>
      <trkpt lat="44.09342" lon="6.29877">
        <ele>771.8</ele>
        <time>2019-06-23T12:30:10.000Z</time>
      </trkpt>
      <trkpt lat="44.09342" lon="6.29876">
        <ele>771.8</ele>
        <time>2019-06-23T12:30:24.000Z</time>
      </trkpt>
      <trkpt lat="44.09342" lon="6.29875">
        <ele>771.8</ele>
        <time>2019-06-23T12:30:34.000Z</time>
      </trkpt>
      <trkpt lat="44.09345" lon="6.29875">
        <ele>771.8</ele>
        <time>2019-06-23T12:30:44.000Z</time>
      </trkpt>
      <trkpt lat="44.09345" lon="6.29877">
        <ele>771.8</ele>
        <time>2019-06-23T12:30:48.000Z</time>
      </trkpt>
      <trkpt lat="44.09346" lon="6.2988">
        <ele>771.8</ele>
        <time>2019-06-23T12:30:50.000Z</time>
      </trkpt>
      <trkpt lat="44.09353" lon="6.29896">
        <ele>771.8</ele>
        <time>2019-06-23T12:30:56.000Z</time>
      </trkpt>
      <trkpt lat="44.09362" lon="6.29908">
        <ele>772.4</ele>
        <time>2019-06-23T12:31:02.000Z</time>
      </trkpt>
      <trkpt lat="44.09363" lon="6.2991">
        <ele>772.8</ele>
        <time>2019-06-23T12:31:03.000Z</time>
      </trkpt>
      <trkpt lat="44.09363" lon="6.2991">
        <ele>773</ele>
        <time>2019-06-23T12:31:04.000Z</time>
      </trkpt>
      <trkpt lat="44.09364" lon="6.2991">
        <ele>773.4</ele>
        <time>2019-06-23T12:31:06.000Z</time>
      </trkpt>
      <trkpt lat="44.09366" lon="6.29911">
        <ele>773.6</ele>
        <time>2019-06-23T12:31:08.000Z</time>
      </trkpt>
      <trkpt lat="44.09366" lon="6.29911">
        <ele>773.8</ele>
        <time>2019-06-23T12:31:09.000Z</time>
      </trkpt>
      <trkpt lat="44.09367" lon="6.29911">
        <ele>774.2</ele>
        <time>2019-06-23T12:31:11.000Z</time>
      </trkpt>
      <trkpt lat="44.09367" lon="6.29911">
        <ele>774.4</ele>
        <time>2019-06-23T12:31:12.000Z</time>
      </trkpt>
      <trkpt lat="44.09368" lon="6.29913">
        <ele>774.6</ele>
        <time>2019-06-23T12:31:15.000Z</time>
      </trkpt>
      <trkpt lat="44.09368" lon="6.29914">
        <ele>774.8</ele>
        <time>2019-06-23T12:31:16.000Z</time>
      </trkpt>
      <trkpt lat="44.09369" lon="6.29916">
        <ele>775.2</ele>
        <time>2019-06-23T12:31:18.000Z</time>
      </trkpt>
      <trkpt lat="44.09371" lon="6.29917">
        <ele>775.8</ele>
        <time>2019-06-23T12:31:20.000Z</time>
      </trkpt>
      <trkpt lat="44.09371" lon="6.29918">
        <ele>775.8</ele>
        <time>2019-06-23T12:31:21.000Z</time>
      </trkpt>
      <trkpt lat="44.09372" lon="6.29919">
        <ele>776</ele>
        <time>2019-06-23T12:31:22.000Z</time>
      </trkpt>
      <trkpt lat="44.09374" lon="6.29922">
        <ele>776.6</ele>
        <time>2019-06-23T12:31:25.000Z</time>
      </trkpt>
      <trkpt lat="44.09374" lon="6.29922">
        <ele>777</ele>
        <time>2019-06-23T12:31:26.000Z</time>
      </trkpt>
      <trkpt lat="44.09375" lon="6.29927">
        <ele>778</ele>
        <time>2019-06-23T12:31:30.000Z</time>
      </trkpt>
      <trkpt lat="44.09375" lon="6.29928">
        <ele>778.2</ele>
        <time>2019-06-23T12:31:31.000Z</time>
      </trkpt>
      <trkpt lat="44.09376" lon="6.2993">
        <ele>778.2</ele>
        <time>2019-06-23T12:31:33.000Z</time>
      </trkpt>
      <trkpt lat="44.09378" lon="6.29933">
        <ele>778.4</ele>
        <time>2019-06-23T12:31:36.000Z</time>
      </trkpt>
      <trkpt lat="44.09381" lon="6.29933">
        <ele>779.4</ele>
        <time>2019-06-23T12:31:39.000Z</time>
      </trkpt>
      <trkpt lat="44.09382" lon="6.29932">
        <ele>779.6</ele>
        <time>2019-06-23T12:31:40.000Z</time>
      </trkpt>
      <trkpt lat="44.09384" lon="6.29928">
        <ele>780.4</ele>
        <time>2019-06-23T12:31:44.000Z</time>
      </trkpt>
      <trkpt lat="44.09385" lon="6.29923">
        <ele>781.6</ele>
        <time>2019-06-23T12:31:48.000Z</time>
      </trkpt>
      <trkpt lat="44.09386" lon="6.2992">
        <ele>782</ele>
        <time>2019-06-23T12:31:50.000Z</time>
      </trkpt>
      <trkpt lat="44.09386" lon="6.29919">
        <ele>782.2</ele>
        <time>2019-06-23T12:31:51.000Z</time>
      </trkpt>
      <trkpt lat="44.09387" lon="6.29917">
        <ele>782.2</ele>
        <time>2019-06-23T12:31:53.000Z</time>
      </trkpt>
      <trkpt lat="44.09388" lon="6.29916">
        <ele>782.4</ele>
        <time>2019-06-23T12:31:55.000Z</time>
      </trkpt>
      <trkpt lat="44.09389" lon="6.29916">
        <ele>782.8</ele>
        <time>2019-06-23T12:31:56.000Z</time>
      </trkpt>
      <trkpt lat="44.09391" lon="6.29919">
        <ele>783.8</ele>
        <time>2019-06-23T12:32:00.000Z</time>
      </trkpt>
      <trkpt lat="44.09392" lon="6.29919">
        <ele>784</ele>
        <time>2019-06-23T12:32:01.000Z</time>
      </trkpt>
      <trkpt lat="44.09394" lon="6.29924">
        <ele>784.4</ele>
        <time>2019-06-23T12:32:06.000Z</time>
      </trkpt>
      <trkpt lat="44.09395" lon="6.29925">
        <ele>784.4</ele>
        <time>2019-06-23T12:32:07.000Z</time>
      </trkpt>
      <trkpt lat="44.09396" lon="6.29926">
        <ele>785</ele>
        <time>2019-06-23T12:32:09.000Z</time>
      </trkpt>
      <trkpt lat="44.094" lon="6.29926">
        <ele>786</ele>
        <time>2019-06-23T12:32:14.000Z</time>
      </trkpt>
      <trkpt lat="44.09402" lon="6.29925">
        <ele>786.6</ele>
        <time>2019-06-23T12:32:17.000Z</time>
      </trkpt>
      <trkpt lat="44.09404" lon="6.29925">
        <ele>787.2</ele>
        <time>2019-06-23T12:32:20.000Z</time>
      </trkpt>
      <trkpt lat="44.09404" lon="6.29924">
        <ele>787.6</ele>
        <time>2019-06-23T12:32:22.000Z</time>
      </trkpt>
      <trkpt lat="44.09404" lon="6.29924">
        <ele>787.8</ele>
        <time>2019-06-23T12:32:23.000Z</time>
      </trkpt>
      <trkpt lat="44.09407" lon="6.29923">
        <ele>788.2</ele>
        <time>2019-06-23T12:32:28.000Z</time>
      </trkpt>
      <trkpt lat="44.09408" lon="6.29922">
        <ele>788.2</ele>
        <time>2019-06-23T12:32:29.000Z</time>
      </trkpt>
      <trkpt lat="44.0941" lon="6.29922">
        <ele>788.6</ele>
        <time>2019-06-23T12:32:31.000Z</time>
      </trkpt>
      <trkpt lat="44.09412" lon="6.29922">
        <ele>789.4</ele>
        <time>2019-06-23T12:32:34.000Z</time>
      </trkpt>
      <trkpt lat="44.09416" lon="6.2992">
        <ele>790.8</ele>
        <time>2019-06-23T12:32:40.000Z</time>
      </trkpt>
      <trkpt lat="44.09417" lon="6.29918">
        <ele>791.2</ele>
        <time>2019-06-23T12:32:42.000Z</time>
      </trkpt>
      <trkpt lat="44.09421" lon="6.29914">
        <ele>792</ele>
        <time>2019-06-23T12:32:47.000Z</time>
      </trkpt>
      <trkpt lat="44.09422" lon="6.29913">
        <ele>792.6</ele>
        <time>2019-06-23T12:32:49.000Z</time>
      </trkpt>
      <trkpt lat="44.09422" lon="6.29913">
        <ele>793</ele>
        <time>2019-06-23T12:32:50.000Z</time>
      </trkpt>
      <trkpt lat="44.09426" lon="6.2991">
        <ele>794.2</ele>
        <time>2019-06-23T12:32:54.000Z</time>
      </trkpt>
      <trkpt lat="44.09427" lon="6.2991">
        <ele>794.6</ele>
        <time>2019-06-23T12:32:56.000Z</time>
      </trkpt>
      <trkpt lat="44.0943" lon="6.29907">
        <ele>795.4</ele>
        <time>2019-06-23T12:33:00.000Z</time>
      </trkpt>
      <trkpt lat="44.09432" lon="6.29904">
        <ele>795.8</ele>
        <time>2019-06-23T12:33:04.000Z</time>
      </trkpt>
      <trkpt lat="44.09433" lon="6.29902">
        <ele>796.4</ele>
        <time>2019-06-23T12:33:07.000Z</time>
      </trkpt>
      <trkpt lat="44.09433" lon="6.29902">
        <ele>796.6</ele>
        <time>2019-06-23T12:33:08.000Z</time>
      </trkpt>
      <trkpt lat="44.09433" lon="6.299">
        <ele>797</ele>
        <time>2019-06-23T12:33:13.000Z</time>
      </trkpt>
      <trkpt lat="44.09435" lon="6.29899">
        <ele>797.2</ele>
        <time>2019-06-23T12:33:14.000Z</time>
      </trkpt>
      <trkpt lat="44.09435" lon="6.29897">
        <ele>797.4</ele>
        <time>2019-06-23T12:33:16.000Z</time>
      </trkpt>
      <trkpt lat="44.09436" lon="6.29896">
        <ele>797.6</ele>
        <time>2019-06-23T12:33:17.000Z</time>
      </trkpt>
      <trkpt lat="44.09438" lon="6.29893">
        <ele>798</ele>
        <time>2019-06-23T12:33:19.000Z</time>
      </trkpt>
      <trkpt lat="44.09441" lon="6.29891">
        <ele>798.4</ele>
        <time>2019-06-23T12:33:21.000Z</time>
      </trkpt>
      <trkpt lat="44.09446" lon="6.29883">
        <ele>799.8</ele>
        <time>2019-06-23T12:33:25.000Z</time>
      </trkpt>
      <trkpt lat="44.09449" lon="6.29878">
        <ele>800.8</ele>
        <time>2019-06-23T12:33:28.000Z</time>
      </trkpt>
      <trkpt lat="44.09451" lon="6.29873">
        <ele>801.6</ele>
        <time>2019-06-23T12:33:30.000Z</time>
      </trkpt>
      <trkpt lat="44.09453" lon="6.29868">
        <ele>802</ele>
        <time>2019-06-23T12:33:32.000Z</time>
      </trkpt>
      <trkpt lat="44.09453" lon="6.29863">
        <ele>803.2</ele>
        <time>2019-06-23T12:33:34.000Z</time>
      </trkpt>
      <trkpt lat="44.09454" lon="6.29858">
        <ele>804.2</ele>
        <time>2019-06-23T12:33:36.000Z</time>
      </trkpt>
      <trkpt lat="44.09454" lon="6.29855">
        <ele>804.6</ele>
        <time>2019-06-23T12:33:37.000Z</time>
      </trkpt>
      <trkpt lat="44.09455" lon="6.2985">
        <ele>805.4</ele>
        <time>2019-06-23T12:33:39.000Z</time>
      </trkpt>
      <trkpt lat="44.09456" lon="6.29846">
        <ele>806.4</ele>
        <time>2019-06-23T12:33:41.000Z</time>
      </trkpt>
      <trkpt lat="44.09457" lon="6.29844">
        <ele>806.8</ele>
        <time>2019-06-23T12:33:42.000Z</time>
      </trkpt>
      <trkpt lat="44.09458" lon="6.29842">
        <ele>807.4</ele>
        <time>2019-06-23T12:33:43.000Z</time>
      </trkpt>
      <trkpt lat="44.09458" lon="6.29839">
        <ele>807.6</ele>
        <time>2019-06-23T12:33:44.000Z</time>
      </trkpt>
      <trkpt lat="44.09459" lon="6.29837">
        <ele>808</ele>
        <time>2019-06-23T12:33:45.000Z</time>
      </trkpt>
      <trkpt lat="44.09459" lon="6.29835">
        <ele>808.4</ele>
        <time>2019-06-23T12:33:46.000Z</time>
      </trkpt>
      <trkpt lat="44.09461" lon="6.29831">
        <ele>809.2</ele>
        <time>2019-06-23T12:33:48.000Z</time>
      </trkpt>
      <trkpt lat="44.09462" lon="6.29829">
        <ele>809.4</ele>
        <time>2019-06-23T12:33:49.000Z</time>
      </trkpt>
      <trkpt lat="44.09463" lon="6.29826">
        <ele>810.2</ele>
        <time>2019-06-23T12:33:51.000Z</time>
      </trkpt>
      <trkpt lat="44.09465" lon="6.2982">
        <ele>811</ele>
        <time>2019-06-23T12:33:54.000Z</time>
      </trkpt>
      <trkpt lat="44.09465" lon="6.29818">
        <ele>811.2</ele>
        <time>2019-06-23T12:33:55.000Z</time>
      </trkpt>
      <trkpt lat="44.09466" lon="6.29816">
        <ele>811.6</ele>
        <time>2019-06-23T12:33:56.000Z</time>
      </trkpt>
      <trkpt lat="44.09467" lon="6.29814">
        <ele>811.8</ele>
        <time>2019-06-23T12:33:57.000Z</time>
      </trkpt>
      <trkpt lat="44.09468" lon="6.29811">
        <ele>812.4</ele>
        <time>2019-06-23T12:33:59.000Z</time>
      </trkpt>
      <trkpt lat="44.09468" lon="6.29807">
        <ele>813</ele>
        <time>2019-06-23T12:34:01.000Z</time>
      </trkpt>
      <trkpt lat="44.09468" lon="6.29805">
        <ele>813.4</ele>
        <time>2019-06-23T12:34:02.000Z</time>
      </trkpt>
      <trkpt lat="44.09468" lon="6.29803">
        <ele>813.6</ele>
        <time>2019-06-23T12:34:03.000Z</time>
      </trkpt>
      <trkpt lat="44.09465" lon="6.29794">
        <ele>814.8</ele>
        <time>2019-06-23T12:34:07.000Z</time>
      </trkpt>
      <trkpt lat="44.09464" lon="6.29787">
        <ele>815.8</ele>
        <time>2019-06-23T12:34:10.000Z</time>
      </trkpt>
      <trkpt lat="44.09464" lon="6.29784">
        <ele>816.2</ele>
        <time>2019-06-23T12:34:11.000Z</time>
      </trkpt>
      <trkpt lat="44.09465" lon="6.2978">
        <ele>817.2</ele>
        <time>2019-06-23T12:34:13.000Z</time>
      </trkpt>
      <trkpt lat="44.09466" lon="6.29778">
        <ele>817.8</ele>
        <time>2019-06-23T12:34:14.000Z</time>
      </trkpt>
      <trkpt lat="44.09467" lon="6.29776">
        <ele>818.4</ele>
        <time>2019-06-23T12:34:15.000Z</time>
      </trkpt>
      <trkpt lat="44.09471" lon="6.2977">
        <ele>819.6</ele>
        <time>2019-06-23T12:34:19.000Z</time>
      </trkpt>
      <trkpt lat="44.09473" lon="6.29766">
        <ele>821</ele>
        <time>2019-06-23T12:34:21.000Z</time>
      </trkpt>
      <trkpt lat="44.09476" lon="6.29761">
        <ele>822</ele>
        <time>2019-06-23T12:34:24.000Z</time>
      </trkpt>
      <trkpt lat="44.09479" lon="6.29756">
        <ele>823.4</ele>
        <time>2019-06-23T12:34:27.000Z</time>
      </trkpt>
      <trkpt lat="44.0948" lon="6.29754">
        <ele>823.6</ele>
        <time>2019-06-23T12:34:28.000Z</time>
      </trkpt>
      <trkpt lat="44.09482" lon="6.29751">
        <ele>824.4</ele>
        <time>2019-06-23T12:34:30.000Z</time>
      </trkpt>
      <trkpt lat="44.09483" lon="6.29749">
        <ele>824.6</ele>
        <time>2019-06-23T12:34:31.000Z</time>
      </trkpt>
      <trkpt lat="44.09484" lon="6.29746">
        <ele>825</ele>
        <time>2019-06-23T12:34:33.000Z</time>
      </trkpt>
      <trkpt lat="44.09486" lon="6.29741">
        <ele>825.8</ele>
        <time>2019-06-23T12:34:35.000Z</time>
      </trkpt>
      <trkpt lat="44.09489" lon="6.29734">
        <ele>826.8</ele>
        <time>2019-06-23T12:34:38.000Z</time>
      </trkpt>
      <trkpt lat="44.0949" lon="6.29732">
        <ele>827.4</ele>
        <time>2019-06-23T12:34:39.000Z</time>
      </trkpt>
      <trkpt lat="44.09492" lon="6.29727">
        <ele>828</ele>
        <time>2019-06-23T12:34:41.000Z</time>
      </trkpt>
      <trkpt lat="44.09493" lon="6.2972">
        <ele>828.6</ele>
        <time>2019-06-23T12:34:44.000Z</time>
      </trkpt>
      <trkpt lat="44.09493" lon="6.29715">
        <ele>829.4</ele>
        <time>2019-06-23T12:34:46.000Z</time>
      </trkpt>
      <trkpt lat="44.09494" lon="6.29711">
        <ele>830.4</ele>
        <time>2019-06-23T12:34:48.000Z</time>
      </trkpt>
      <trkpt lat="44.09495" lon="6.29707">
        <ele>831.4</ele>
        <time>2019-06-23T12:34:50.000Z</time>
      </trkpt>
      <trkpt lat="44.09496" lon="6.29705">
        <ele>831.6</ele>
        <time>2019-06-23T12:34:51.000Z</time>
      </trkpt>
      <trkpt lat="44.09501" lon="6.29699">
        <ele>832.4</ele>
        <time>2019-06-23T12:34:55.000Z</time>
      </trkpt>
      <trkpt lat="44.09503" lon="6.29697">
        <ele>833</ele>
        <time>2019-06-23T12:34:56.000Z</time>
      </trkpt>
      <trkpt lat="44.09506" lon="6.29692">
        <ele>833.8</ele>
        <time>2019-06-23T12:34:59.000Z</time>
      </trkpt>
      <trkpt lat="44.09507" lon="6.29689">
        <ele>834.2</ele>
        <time>2019-06-23T12:35:00.000Z</time>
      </trkpt>
      <trkpt lat="44.09507" lon="6.29687">
        <ele>834.6</ele>
        <time>2019-06-23T12:35:01.000Z</time>
      </trkpt>
      <trkpt lat="44.09508" lon="6.29684">
        <ele>835</ele>
        <time>2019-06-23T12:35:02.000Z</time>
      </trkpt>
      <trkpt lat="44.09508" lon="6.29682">
        <ele>835.2</ele>
        <time>2019-06-23T12:35:03.000Z</time>
      </trkpt>
      <trkpt lat="44.09508" lon="6.2968">
        <ele>835.4</ele>
        <time>2019-06-23T12:35:04.000Z</time>
      </trkpt>
      <trkpt lat="44.09508" lon="6.29675">
        <ele>836.2</ele>
        <time>2019-06-23T12:35:06.000Z</time>
      </trkpt>
      <trkpt lat="44.09508" lon="6.29673">
        <ele>836.8</ele>
        <time>2019-06-23T12:35:07.000Z</time>
      </trkpt>
      <trkpt lat="44.09508" lon="6.29671">
        <ele>837.2</ele>
        <time>2019-06-23T12:35:08.000Z</time>
      </trkpt>
      <trkpt lat="44.09509" lon="6.29667">
        <ele>837.8</ele>
        <time>2019-06-23T12:35:10.000Z</time>
      </trkpt>
      <trkpt lat="44.09509" lon="6.29665">
        <ele>838</ele>
        <time>2019-06-23T12:35:11.000Z</time>
      </trkpt>
      <trkpt lat="44.09509" lon="6.29659">
        <ele>838.6</ele>
        <time>2019-06-23T12:35:14.000Z</time>
      </trkpt>
      <trkpt lat="44.0951" lon="6.29657">
        <ele>839</ele>
        <time>2019-06-23T12:35:15.000Z</time>
      </trkpt>
      <trkpt lat="44.09509" lon="6.29651">
        <ele>839.8</ele>
        <time>2019-06-23T12:35:17.000Z</time>
      </trkpt>
      <trkpt lat="44.09508" lon="6.29649">
        <ele>840</ele>
        <time>2019-06-23T12:35:18.000Z</time>
      </trkpt>
      <trkpt lat="44.09508" lon="6.29645">
        <ele>840.6</ele>
        <time>2019-06-23T12:35:20.000Z</time>
      </trkpt>
      <trkpt lat="44.09508" lon="6.29642">
        <ele>841.6</ele>
        <time>2019-06-23T12:35:22.000Z</time>
      </trkpt>
      <trkpt lat="44.09508" lon="6.29635">
        <ele>842.8</ele>
        <time>2019-06-23T12:35:25.000Z</time>
      </trkpt>
      <trkpt lat="44.09508" lon="6.29633">
        <ele>843.2</ele>
        <time>2019-06-23T12:35:26.000Z</time>
      </trkpt>
      <trkpt lat="44.09508" lon="6.29628">
        <ele>844.2</ele>
        <time>2019-06-23T12:35:28.000Z</time>
      </trkpt>
      <trkpt lat="44.09508" lon="6.29625">
        <ele>845.4</ele>
        <time>2019-06-23T12:35:30.000Z</time>
      </trkpt>
      <trkpt lat="44.09509" lon="6.29623">
        <ele>845.6</ele>
        <time>2019-06-23T12:35:31.000Z</time>
      </trkpt>
      <trkpt lat="44.09509" lon="6.29619">
        <ele>846.6</ele>
        <time>2019-06-23T12:35:33.000Z</time>
      </trkpt>
      <trkpt lat="44.09512" lon="6.29613">
        <ele>847.4</ele>
        <time>2019-06-23T12:35:36.000Z</time>
      </trkpt>
      <trkpt lat="44.09512" lon="6.29611">
        <ele>847.6</ele>
        <time>2019-06-23T12:35:37.000Z</time>
      </trkpt>
      <trkpt lat="44.09513" lon="6.29609">
        <ele>848</ele>
        <time>2019-06-23T12:35:38.000Z</time>
      </trkpt>
      <trkpt lat="44.09513" lon="6.29607">
        <ele>848.2</ele>
        <time>2019-06-23T12:35:39.000Z</time>
      </trkpt>
      <trkpt lat="44.09513" lon="6.29604">
        <ele>848.4</ele>
        <time>2019-06-23T12:35:40.000Z</time>
      </trkpt>
      <trkpt lat="44.09513" lon="6.29602">
        <ele>848.8</ele>
        <time>2019-06-23T12:35:41.000Z</time>
      </trkpt>
      <trkpt lat="44.09513" lon="6.296">
        <ele>849.4</ele>
        <time>2019-06-23T12:35:42.000Z</time>
      </trkpt>
      <trkpt lat="44.09515" lon="6.29595">
        <ele>850</ele>
        <time>2019-06-23T12:35:44.000Z</time>
      </trkpt>
      <trkpt lat="44.0952" lon="6.29589">
        <ele>851</ele>
        <time>2019-06-23T12:35:48.000Z</time>
      </trkpt>
      <trkpt lat="44.09522" lon="6.29588">
        <ele>851.2</ele>
        <time>2019-06-23T12:35:49.000Z</time>
      </trkpt>
      <trkpt lat="44.09525" lon="6.29585">
        <ele>851.6</ele>
        <time>2019-06-23T12:35:51.000Z</time>
      </trkpt>
      <trkpt lat="44.0953" lon="6.29584">
        <ele>852</ele>
        <time>2019-06-23T12:35:53.000Z</time>
      </trkpt>
      <trkpt lat="44.09532" lon="6.29584">
        <ele>852.2</ele>
        <time>2019-06-23T12:35:54.000Z</time>
      </trkpt>
      <trkpt lat="44.09533" lon="6.29584">
        <ele>852.2</ele>
        <time>2019-06-23T12:35:55.000Z</time>
      </trkpt>
      <trkpt lat="44.09542" lon="6.29579">
        <ele>853</ele>
        <time>2019-06-23T12:36:00.000Z</time>
      </trkpt>
      <trkpt lat="44.09547" lon="6.29574">
        <ele>853.4</ele>
        <time>2019-06-23T12:36:03.000Z</time>
      </trkpt>
      <trkpt lat="44.09551" lon="6.29569">
        <ele>854.4</ele>
        <time>2019-06-23T12:36:06.000Z</time>
      </trkpt>
      <trkpt lat="44.09553" lon="6.29567">
        <ele>854.6</ele>
        <time>2019-06-23T12:36:07.000Z</time>
      </trkpt>
      <trkpt lat="44.09556" lon="6.29564">
        <ele>855</ele>
        <time>2019-06-23T12:36:09.000Z</time>
      </trkpt>
      <trkpt lat="44.09559" lon="6.29561">
        <ele>855.6</ele>
        <time>2019-06-23T12:36:11.000Z</time>
      </trkpt>
      <trkpt lat="44.09561" lon="6.29557">
        <ele>856.4</ele>
        <time>2019-06-23T12:36:13.000Z</time>
      </trkpt>
      <trkpt lat="44.09562" lon="6.29555">
        <ele>856.8</ele>
        <time>2019-06-23T12:36:14.000Z</time>
      </trkpt>
      <trkpt lat="44.0957" lon="6.29547">
        <ele>857.6</ele>
        <time>2019-06-23T12:36:19.000Z</time>
      </trkpt>
      <trkpt lat="44.09571" lon="6.29545">
        <ele>857.8</ele>
        <time>2019-06-23T12:36:20.000Z</time>
      </trkpt>
      <trkpt lat="44.09576" lon="6.29539">
        <ele>859</ele>
        <time>2019-06-23T12:36:24.000Z</time>
      </trkpt>
      <trkpt lat="44.0958" lon="6.29534">
        <ele>860</ele>
        <time>2019-06-23T12:36:27.000Z</time>
      </trkpt>
      <trkpt lat="44.09582" lon="6.2953">
        <ele>860.6</ele>
        <time>2019-06-23T12:36:29.000Z</time>
      </trkpt>
      <trkpt lat="44.09583" lon="6.29526">
        <ele>861.2</ele>
        <time>2019-06-23T12:36:31.000Z</time>
      </trkpt>
      <trkpt lat="44.09586" lon="6.29518">
        <ele>862.6</ele>
        <time>2019-06-23T12:36:35.000Z</time>
      </trkpt>
      <trkpt lat="44.09587" lon="6.29514">
        <ele>863.4</ele>
        <time>2019-06-23T12:36:37.000Z</time>
      </trkpt>
      <trkpt lat="44.09588" lon="6.29512">
        <ele>863.6</ele>
        <time>2019-06-23T12:36:38.000Z</time>
      </trkpt>
      <trkpt lat="44.09592" lon="6.29507">
        <ele>865</ele>
        <time>2019-06-23T12:36:42.000Z</time>
      </trkpt>
      <trkpt lat="44.09596" lon="6.29504">
        <ele>865.6</ele>
        <time>2019-06-23T12:36:44.000Z</time>
      </trkpt>
      <trkpt lat="44.09605" lon="6.29496">
        <ele>866.2</ele>
        <time>2019-06-23T12:36:48.000Z</time>
      </trkpt>
      <trkpt lat="44.09607" lon="6.29495">
        <ele>866.4</ele>
        <time>2019-06-23T12:36:49.000Z</time>
      </trkpt>
      <trkpt lat="44.09613" lon="6.29492">
        <ele>866.6</ele>
        <time>2019-06-23T12:36:52.000Z</time>
      </trkpt>
      <trkpt lat="44.09617" lon="6.29493">
        <ele>866.8</ele>
        <time>2019-06-23T12:36:54.000Z</time>
      </trkpt>
      <trkpt lat="44.09619" lon="6.29493">
        <ele>867</ele>
        <time>2019-06-23T12:36:55.000Z</time>
      </trkpt>
      <trkpt lat="44.0962" lon="6.29493">
        <ele>867.2</ele>
        <time>2019-06-23T12:36:56.000Z</time>
      </trkpt>
      <trkpt lat="44.09626" lon="6.29493">
        <ele>868</ele>
        <time>2019-06-23T12:36:59.000Z</time>
      </trkpt>
      <trkpt lat="44.09629" lon="6.29493">
        <ele>868.6</ele>
        <time>2019-06-23T12:37:01.000Z</time>
      </trkpt>
      <trkpt lat="44.09635" lon="6.2949">
        <ele>869.2</ele>
        <time>2019-06-23T12:37:04.000Z</time>
      </trkpt>
      <trkpt lat="44.09638" lon="6.29488">
        <ele>869.8</ele>
        <time>2019-06-23T12:37:06.000Z</time>
      </trkpt>
      <trkpt lat="44.09645" lon="6.29485">
        <ele>871</ele>
        <time>2019-06-23T12:37:10.000Z</time>
      </trkpt>
      <trkpt lat="44.09647" lon="6.29484">
        <ele>871.2</ele>
        <time>2019-06-23T12:37:11.000Z</time>
      </trkpt>
      <trkpt lat="44.0965" lon="6.29482">
        <ele>871.6</ele>
        <time>2019-06-23T12:37:13.000Z</time>
      </trkpt>
      <trkpt lat="44.09654" lon="6.2948">
        <ele>872</ele>
        <time>2019-06-23T12:37:15.000Z</time>
      </trkpt>
      <trkpt lat="44.09658" lon="6.29477">
        <ele>872.2</ele>
        <time>2019-06-23T12:37:18.000Z</time>
      </trkpt>
      <trkpt lat="44.09663" lon="6.29474">
        <ele>873.4</ele>
        <time>2019-06-23T12:37:21.000Z</time>
      </trkpt>
      <trkpt lat="44.09664" lon="6.29473">
        <ele>873.6</ele>
        <time>2019-06-23T12:37:22.000Z</time>
      </trkpt>
      <trkpt lat="44.09667" lon="6.2947">
        <ele>874.4</ele>
        <time>2019-06-23T12:37:24.000Z</time>
      </trkpt>
      <trkpt lat="44.09673" lon="6.29463">
        <ele>875.4</ele>
        <time>2019-06-23T12:37:28.000Z</time>
      </trkpt>
      <trkpt lat="44.09679" lon="6.29457">
        <ele>876.2</ele>
        <time>2019-06-23T12:37:32.000Z</time>
      </trkpt>
      <trkpt lat="44.09681" lon="6.29455">
        <ele>876.6</ele>
        <time>2019-06-23T12:37:33.000Z</time>
      </trkpt>
      <trkpt lat="44.09687" lon="6.2945">
        <ele>877.8</ele>
        <time>2019-06-23T12:37:37.000Z</time>
      </trkpt>
      <trkpt lat="44.09692" lon="6.29445">
        <ele>878.6</ele>
        <time>2019-06-23T12:37:40.000Z</time>
      </trkpt>
      <trkpt lat="44.09693" lon="6.29444">
        <ele>879</ele>
        <time>2019-06-23T12:37:41.000Z</time>
      </trkpt>
      <trkpt lat="44.09702" lon="6.29439">
        <ele>880</ele>
        <time>2019-06-23T12:37:45.000Z</time>
      </trkpt>
      <trkpt lat="44.09707" lon="6.29437">
        <ele>880.2</ele>
        <time>2019-06-23T12:37:47.000Z</time>
      </trkpt>
      <trkpt lat="44.09709" lon="6.29437">
        <ele>880.4</ele>
        <time>2019-06-23T12:37:48.000Z</time>
      </trkpt>
      <trkpt lat="44.09711" lon="6.29438">
        <ele>880.4</ele>
        <time>2019-06-23T12:37:49.000Z</time>
      </trkpt>
      <trkpt lat="44.09713" lon="6.2944">
        <ele>880.4</ele>
        <time>2019-06-23T12:37:50.000Z</time>
      </trkpt>
      <trkpt lat="44.09719" lon="6.29447">
        <ele>881.2</ele>
        <time>2019-06-23T12:37:54.000Z</time>
      </trkpt>
      <trkpt lat="44.09721" lon="6.29452">
        <ele>882.2</ele>
        <time>2019-06-23T12:37:56.000Z</time>
      </trkpt>
      <trkpt lat="44.09723" lon="6.29454">
        <ele>882.4</ele>
        <time>2019-06-23T12:37:57.000Z</time>
      </trkpt>
      <trkpt lat="44.09725" lon="6.29456">
        <ele>882.6</ele>
        <time>2019-06-23T12:37:58.000Z</time>
      </trkpt>
      <trkpt lat="44.09731" lon="6.29465">
        <ele>883</ele>
        <time>2019-06-23T12:38:01.000Z</time>
      </trkpt>
      <trkpt lat="44.09734" lon="6.2947">
        <ele>883.4</ele>
        <time>2019-06-23T12:38:03.000Z</time>
      </trkpt>
      <trkpt lat="44.09738" lon="6.29477">
        <ele>884</ele>
        <time>2019-06-23T12:38:06.000Z</time>
      </trkpt>
      <trkpt lat="44.0974" lon="6.29478">
        <ele>884</ele>
        <time>2019-06-23T12:38:07.000Z</time>
      </trkpt>
      <trkpt lat="44.09745" lon="6.29479">
        <ele>884.6</ele>
        <time>2019-06-23T12:38:09.000Z</time>
      </trkpt>
      <trkpt lat="44.09752" lon="6.29478">
        <ele>885.8</ele>
        <time>2019-06-23T12:38:12.000Z</time>
      </trkpt>
      <trkpt lat="44.09759" lon="6.29477">
        <ele>886.6</ele>
        <time>2019-06-23T12:38:15.000Z</time>
      </trkpt>
      <trkpt lat="44.09765" lon="6.29475">
        <ele>886.8</ele>
        <time>2019-06-23T12:38:17.000Z</time>
      </trkpt>
      <trkpt lat="44.0977" lon="6.29473">
        <ele>886.6</ele>
        <time>2019-06-23T12:38:19.000Z</time>
      </trkpt>
      <trkpt lat="44.0978" lon="6.2947">
        <ele>887.4</ele>
        <time>2019-06-23T12:40:33.000Z</time>
        <extensions>
          <visugpx:TrkExtension xmlns:visugpx="https://www.visugpx.com/editgpx/">
            <visugpx:node>1</visugpx:node>
            </visugpx:TrkExtension>
        </extensions>
      </trkpt>
      <trkpt lat="44.09783" lon="6.29469">
        <ele>887.2</ele>
        <time>2019-06-23T12:40:34.000Z</time>
      </trkpt>
      <trkpt lat="44.09793" lon="6.29462">
        <ele>886.4</ele>
        <time>2019-06-23T12:40:37.000Z</time>
      </trkpt>
      <trkpt lat="44.098" lon="6.29457">
        <ele>886.2</ele>
        <time>2019-06-23T12:40:39.000Z</time>
      </trkpt>
      <trkpt lat="44.09813" lon="6.29448">
        <ele>886.2</ele>
        <time>2019-06-23T12:40:44.000Z</time>
      </trkpt>
      <trkpt lat="44.09824" lon="6.29445">
        <ele>886.6</ele>
        <time>2019-06-23T12:40:47.000Z</time>
      </trkpt>
      <trkpt lat="44.09831" lon="6.29443">
        <ele>886.8</ele>
        <time>2019-06-23T12:40:49.000Z</time>
      </trkpt>
      <trkpt lat="44.09848" lon="6.29442">
        <ele>886.6</ele>
        <time>2019-06-23T12:40:53.000Z</time>
      </trkpt>
      <trkpt lat="44.09852" lon="6.29442">
        <ele>886.6</ele>
        <time>2019-06-23T12:40:54.000Z</time>
      </trkpt>
      <trkpt lat="44.09862" lon="6.2944">
        <ele>886.8</ele>
        <time>2019-06-23T12:40:56.000Z</time>
      </trkpt>
      <trkpt lat="44.09871" lon="6.29437">
        <ele>886.6</ele>
        <time>2019-06-23T12:40:58.000Z</time>
      </trkpt>
      <trkpt lat="44.09878" lon="6.29434">
        <ele>886.8</ele>
        <time>2019-06-23T12:41:00.000Z</time>
      </trkpt>
      <trkpt lat="44.09898" lon="6.29433">
        <ele>887.2</ele>
        <time>2019-06-23T12:41:05.000Z</time>
      </trkpt>
      <trkpt lat="44.09905" lon="6.2943">
        <ele>887.4</ele>
        <time>2019-06-23T12:41:07.000Z</time>
      </trkpt>
      <trkpt lat="44.09909" lon="6.2943">
        <ele>887.4</ele>
        <time>2019-06-23T12:41:08.000Z</time>
      </trkpt>
      <trkpt lat="44.09911" lon="6.29433">
        <ele>887.4</ele>
        <time>2019-06-23T12:41:09.000Z</time>
      </trkpt>
      <trkpt lat="44.09911" lon="6.29441">
        <ele>887.4</ele>
        <time>2019-06-23T12:41:11.000Z</time>
      </trkpt>
      <trkpt lat="44.09911" lon="6.29442">
        <ele>887.2</ele>
        <time>2019-06-23T12:41:14.000Z</time>
      </trkpt>
      <trkpt lat="44.09912" lon="6.29439">
        <ele>887.2</ele>
        <time>2019-06-23T12:41:20.000Z</time>
      </trkpt>
      <trkpt lat="44.09912" lon="6.29439">
        <ele>887.4</ele>
        <time>2019-06-23T12:41:22.000Z</time>
      </trkpt>
      <trkpt lat="44.09912" lon="6.29439">
        <ele>887.8</ele>
        <time>2019-06-23T12:41:25.000Z</time>
      </trkpt>
      <trkpt lat="44.09912" lon="6.29443">
        <ele>887.8</ele>
        <time>2019-06-23T12:41:27.000Z</time>
      </trkpt>
      <trkpt lat="44.0991" lon="6.29448">
        <ele>887.8</ele>
        <time>2019-06-23T12:41:29.000Z</time>
      </trkpt>
      <trkpt lat="44.09908" lon="6.29455">
        <ele>887.6</ele>
        <time>2019-06-23T12:41:31.000Z</time>
      </trkpt>
      <trkpt lat="44.09906" lon="6.29462">
        <ele>887.6</ele>
        <time>2019-06-23T12:41:33.000Z</time>
      </trkpt>
      <trkpt lat="44.09903" lon="6.29483">
        <ele>888</ele>
        <time>2019-06-23T12:41:40.000Z</time>
      </trkpt>
      <trkpt lat="44.09897" lon="6.29499">
        <ele>888.8</ele>
        <time>2019-06-23T12:41:46.000Z</time>
      </trkpt>
      <trkpt lat="44.09895" lon="6.29503">
        <ele>889</ele>
        <time>2019-06-23T12:41:47.000Z</time>
      </trkpt>
      <trkpt lat="44.09889" lon="6.29516">
        <ele>889.8</ele>
        <time>2019-06-23T12:41:53.000Z</time>
      </trkpt>
      <trkpt lat="44.09888" lon="6.29517">
        <ele>889.8</ele>
        <time>2019-06-23T12:41:58.000Z</time>
      </trkpt>
      <trkpt lat="44.09888" lon="6.29517">
        <ele>890</ele>
        <time>2019-06-23T12:42:05.000Z</time>
      </trkpt>
      <trkpt lat="44.09888" lon="6.29516">
        <ele>890</ele>
        <time>2019-06-23T12:42:08.000Z</time>
      </trkpt>
      <trkpt lat="44.09887" lon="6.2952">
        <ele>890</ele>
        <time>2019-06-23T12:42:12.000Z</time>
      </trkpt>
      <trkpt lat="44.09885" lon="6.29536">
        <ele>890.4</ele>
        <time>2019-06-23T12:42:18.000Z</time>
      </trkpt>
      <trkpt lat="44.09886" lon="6.29548">
        <ele>891.2</ele>
        <time>2019-06-23T12:42:21.000Z</time>
      </trkpt>
      <trkpt lat="44.09887" lon="6.29554">
        <ele>892</ele>
        <time>2019-06-23T12:42:23.000Z</time>
      </trkpt>
      <trkpt lat="44.09887" lon="6.29557">
        <ele>892.4</ele>
        <time>2019-06-23T12:42:24.000Z</time>
      </trkpt>
      <trkpt lat="44.09886" lon="6.29574">
        <ele>893.2</ele>
        <time>2019-06-23T12:42:28.000Z</time>
      </trkpt>
      <trkpt lat="44.09887" lon="6.29587">
        <ele>893.2</ele>
        <time>2019-06-23T12:42:30.000Z</time>
      </trkpt>
      <trkpt lat="44.09888" lon="6.29592">
        <ele>893.2</ele>
        <time>2019-06-23T12:42:31.000Z</time>
      </trkpt>
      <trkpt lat="44.09897" lon="6.29616">
        <ele>892.8</ele>
        <time>2019-06-23T12:42:36.000Z</time>
      </trkpt>
      <trkpt lat="44.09902" lon="6.29625">
        <ele>892.4</ele>
        <time>2019-06-23T12:42:38.000Z</time>
      </trkpt>
      <trkpt lat="44.09908" lon="6.29632">
        <ele>892</ele>
        <time>2019-06-23T12:42:40.000Z</time>
      </trkpt>
      <trkpt lat="44.09912" lon="6.29634">
        <ele>892</ele>
        <time>2019-06-23T12:42:41.000Z</time>
      </trkpt>
      <trkpt lat="44.09914" lon="6.29637">
        <ele>892.2</ele>
        <time>2019-06-23T12:42:42.000Z</time>
      </trkpt>
      <trkpt lat="44.09922" lon="6.29646">
        <ele>893.2</ele>
        <time>2019-06-23T12:42:45.000Z</time>
      </trkpt>
      <trkpt lat="44.09925" lon="6.2965">
        <ele>893.6</ele>
        <time>2019-06-23T12:42:46.000Z</time>
      </trkpt>
      <trkpt lat="44.09933" lon="6.29656">
        <ele>894.6</ele>
        <time>2019-06-23T12:42:49.000Z</time>
      </trkpt>
      <trkpt lat="44.09935" lon="6.29659">
        <ele>894.8</ele>
        <time>2019-06-23T12:42:50.000Z</time>
      </trkpt>
      <trkpt lat="44.09938" lon="6.29662">
        <ele>895</ele>
        <time>2019-06-23T12:42:51.000Z</time>
      </trkpt>
      <trkpt lat="44.09943" lon="6.2967">
        <ele>895.8</ele>
        <time>2019-06-23T12:42:53.000Z</time>
      </trkpt>
      <trkpt lat="44.09951" lon="6.2968">
        <ele>896.8</ele>
        <time>2019-06-23T12:42:56.000Z</time>
      </trkpt>
      <trkpt lat="44.09952" lon="6.29684">
        <ele>897</ele>
        <time>2019-06-23T12:42:57.000Z</time>
      </trkpt>
      <trkpt lat="44.09957" lon="6.29691">
        <ele>897.2</ele>
        <time>2019-06-23T12:42:59.000Z</time>
      </trkpt>
      <trkpt lat="44.09961" lon="6.29693">
        <ele>897.4</ele>
        <time>2019-06-23T12:43:00.000Z</time>
      </trkpt>
      <trkpt lat="44.0997" lon="6.29694">
        <ele>897.6</ele>
        <time>2019-06-23T12:43:02.000Z</time>
      </trkpt>
      <trkpt lat="44.09978" lon="6.29692">
        <ele>897.6</ele>
        <time>2019-06-23T12:43:04.000Z</time>
      </trkpt>
      <trkpt lat="44.09994" lon="6.29692">
        <ele>898</ele>
        <time>2019-06-23T12:43:08.000Z</time>
      </trkpt>
      <trkpt lat="44.09998" lon="6.29693">
        <ele>898</ele>
        <time>2019-06-23T12:43:09.000Z</time>
      </trkpt>
      <trkpt lat="44.10021" lon="6.29701">
        <ele>897.4</ele>
        <time>2019-06-23T12:43:14.000Z</time>
      </trkpt>
      <trkpt lat="44.10025" lon="6.29701">
        <ele>897.4</ele>
        <time>2019-06-23T12:43:15.000Z</time>
      </trkpt>
      <trkpt lat="44.10036" lon="6.29698">
        <ele>897.6</ele>
        <time>2019-06-23T12:43:19.000Z</time>
      </trkpt>
      <trkpt lat="44.10045" lon="6.29695">
        <ele>897.8</ele>
        <time>2019-06-23T12:43:22.000Z</time>
      </trkpt>
      <trkpt lat="44.10051" lon="6.29694">
        <ele>897.8</ele>
        <time>2019-06-23T12:43:24.000Z</time>
      </trkpt>
      <trkpt lat="44.10058" lon="6.29693">
        <ele>897.6</ele>
        <time>2019-06-23T12:43:26.000Z</time>
      </trkpt>
      <trkpt lat="44.10061" lon="6.29689">
        <ele>897.2</ele>
        <time>2019-06-23T12:43:27.000Z</time>
      </trkpt>
      <trkpt lat="44.10065" lon="6.29686">
        <ele>896.8</ele>
        <time>2019-06-23T12:43:28.000Z</time>
      </trkpt>
      <trkpt lat="44.1007" lon="6.29684">
        <ele>896.2</ele>
        <time>2019-06-23T12:43:29.000Z</time>
      </trkpt>
      <trkpt lat="44.10074" lon="6.29683">
        <ele>895.8</ele>
        <time>2019-06-23T12:43:30.000Z</time>
      </trkpt>
      <trkpt lat="44.1008" lon="6.29683">
        <ele>895.4</ele>
        <time>2019-06-23T12:43:31.000Z</time>
      </trkpt>
      <trkpt lat="44.10086" lon="6.29682">
        <ele>895</ele>
        <time>2019-06-23T12:43:32.000Z</time>
      </trkpt>
      <trkpt lat="44.1009" lon="6.29683">
        <ele>894.6</ele>
        <time>2019-06-23T12:43:33.000Z</time>
      </trkpt>
      <trkpt lat="44.10092" lon="6.29684">
        <ele>894</ele>
        <time>2019-06-23T12:43:34.000Z</time>
      </trkpt>
      <trkpt lat="44.10092" lon="6.29698">
        <ele>893.2</ele>
        <time>2019-06-23T12:43:38.000Z</time>
      </trkpt>
      <trkpt lat="44.10092" lon="6.29706">
        <ele>893.2</ele>
        <time>2019-06-23T12:43:40.000Z</time>
      </trkpt>
      <trkpt lat="44.10094" lon="6.29708">
        <ele>893.4</ele>
        <time>2019-06-23T12:43:41.000Z</time>
      </trkpt>
      <trkpt lat="44.10099" lon="6.29716">
        <ele>895</ele>
        <time>2019-06-23T12:43:45.000Z</time>
      </trkpt>
      <trkpt lat="44.101" lon="6.2972">
        <ele>895.4</ele>
        <time>2019-06-23T12:43:46.000Z</time>
      </trkpt>
      <trkpt lat="44.10102" lon="6.29732">
        <ele>896.2</ele>
        <time>2019-06-23T12:43:49.000Z</time>
      </trkpt>
      <trkpt lat="44.10105" lon="6.29737">
        <ele>896.4</ele>
        <time>2019-06-23T12:43:51.000Z</time>
      </trkpt>
      <trkpt lat="44.10108" lon="6.29742">
        <ele>897.4</ele>
        <time>2019-06-23T12:43:53.000Z</time>
      </trkpt>
      <trkpt lat="44.1011" lon="6.29748">
        <ele>898.4</ele>
        <time>2019-06-23T12:43:55.000Z</time>
      </trkpt>
      <trkpt lat="44.10111" lon="6.2975">
        <ele>898.8</ele>
        <time>2019-06-23T12:43:56.000Z</time>
      </trkpt>
      <trkpt lat="44.10115" lon="6.29755">
        <ele>899.4</ele>
        <time>2019-06-23T12:43:58.000Z</time>
      </trkpt>
      <trkpt lat="44.10122" lon="6.29763">
        <ele>900.6</ele>
        <time>2019-06-23T12:44:02.000Z</time>
      </trkpt>
      <trkpt lat="44.10128" lon="6.29769">
        <ele>901.2</ele>
        <time>2019-06-23T12:44:05.000Z</time>
      </trkpt>
      <trkpt lat="44.1013" lon="6.29772">
        <ele>901.2</ele>
        <time>2019-06-23T12:44:06.000Z</time>
      </trkpt>
      <trkpt lat="44.10133" lon="6.29776">
        <ele>901.4</ele>
        <time>2019-06-23T12:44:08.000Z</time>
      </trkpt>
      <trkpt lat="44.10135" lon="6.29777">
        <ele>901.6</ele>
        <time>2019-06-23T12:44:09.000Z</time>
      </trkpt>
      <trkpt lat="44.10138" lon="6.29782">
        <ele>902.2</ele>
        <time>2019-06-23T12:44:11.000Z</time>
      </trkpt>
      <trkpt lat="44.10141" lon="6.29789">
        <ele>902.8</ele>
        <time>2019-06-23T12:44:14.000Z</time>
      </trkpt>
      <trkpt lat="44.10143" lon="6.29791">
        <ele>903</ele>
        <time>2019-06-23T12:44:15.000Z</time>
      </trkpt>
      <trkpt lat="44.10145" lon="6.29793">
        <ele>903.2</ele>
        <time>2019-06-23T12:44:16.000Z</time>
      </trkpt>
      <trkpt lat="44.10148" lon="6.29796">
        <ele>903.8</ele>
        <time>2019-06-23T12:44:18.000Z</time>
      </trkpt>
      <trkpt lat="44.1015" lon="6.29797">
        <ele>904.2</ele>
        <time>2019-06-23T12:44:19.000Z</time>
      </trkpt>
      <trkpt lat="44.10153" lon="6.29797">
        <ele>905</ele>
        <time>2019-06-23T12:44:21.000Z</time>
      </trkpt>
      <trkpt lat="44.10157" lon="6.29798">
        <ele>906</ele>
        <time>2019-06-23T12:44:24.000Z</time>
      </trkpt>
      <trkpt lat="44.10162" lon="6.29801">
        <ele>907.2</ele>
        <time>2019-06-23T12:44:27.000Z</time>
      </trkpt>
      <trkpt lat="44.10164" lon="6.29802">
        <ele>907.4</ele>
        <time>2019-06-23T12:44:28.000Z</time>
      </trkpt>
      <trkpt lat="44.10167" lon="6.29802">
        <ele>907.4</ele>
        <time>2019-06-23T12:44:29.000Z</time>
      </trkpt>
      <trkpt lat="44.10175" lon="6.29799">
        <ele>908.6</ele>
        <time>2019-06-23T12:44:33.000Z</time>
      </trkpt>
      <trkpt lat="44.10181" lon="6.29801">
        <ele>909</ele>
        <time>2019-06-23T12:44:35.000Z</time>
      </trkpt>
      <trkpt lat="44.10186" lon="6.29801">
        <ele>909</ele>
        <time>2019-06-23T12:44:37.000Z</time>
      </trkpt>
      <trkpt lat="44.10192" lon="6.29806">
        <ele>909.6</ele>
        <time>2019-06-23T12:44:41.000Z</time>
      </trkpt>
      <trkpt lat="44.10196" lon="6.29807">
        <ele>910</ele>
        <time>2019-06-23T12:44:43.000Z</time>
      </trkpt>
      <trkpt lat="44.10201" lon="6.29813">
        <ele>910.8</ele>
        <time>2019-06-23T12:44:46.000Z</time>
      </trkpt>
      <trkpt lat="44.10205" lon="6.29818">
        <ele>911.2</ele>
        <time>2019-06-23T12:44:48.000Z</time>
      </trkpt>
      <trkpt lat="44.10212" lon="6.2983">
        <ele>911.4</ele>
        <time>2019-06-23T12:44:52.000Z</time>
      </trkpt>
      <trkpt lat="44.10214" lon="6.29833">
        <ele>911.4</ele>
        <time>2019-06-23T12:44:53.000Z</time>
      </trkpt>
      <trkpt lat="44.10222" lon="6.2985">
        <ele>911.2</ele>
        <time>2019-06-23T12:44:58.000Z</time>
      </trkpt>
      <trkpt lat="44.10223" lon="6.29855">
        <ele>911.8</ele>
        <time>2019-06-23T12:45:00.000Z</time>
      </trkpt>
      <trkpt lat="44.10224" lon="6.29857">
        <ele>912</ele>
        <time>2019-06-23T12:45:01.000Z</time>
      </trkpt>
      <trkpt lat="44.10227" lon="6.29863">
        <ele>912.6</ele>
        <time>2019-06-23T12:45:03.000Z</time>
      </trkpt>
      <trkpt lat="44.1023" lon="6.29867">
        <ele>913.2</ele>
        <time>2019-06-23T12:45:05.000Z</time>
      </trkpt>
      <trkpt lat="44.10235" lon="6.29874">
        <ele>914.2</ele>
        <time>2019-06-23T12:45:08.000Z</time>
      </trkpt>
      <trkpt lat="44.10236" lon="6.29876">
        <ele>914.6</ele>
        <time>2019-06-23T12:45:09.000Z</time>
      </trkpt>
      <trkpt lat="44.10241" lon="6.29885">
        <ele>915.6</ele>
        <time>2019-06-23T12:45:12.000Z</time>
      </trkpt>
      <trkpt lat="44.10245" lon="6.2989">
        <ele>916.2</ele>
        <time>2019-06-23T12:45:14.000Z</time>
      </trkpt>
      <trkpt lat="44.10248" lon="6.29895">
        <ele>916.8</ele>
        <time>2019-06-23T12:45:16.000Z</time>
      </trkpt>
      <trkpt lat="44.10253" lon="6.29899">
        <ele>917.2</ele>
        <time>2019-06-23T12:45:18.000Z</time>
      </trkpt>
      <trkpt lat="44.10256" lon="6.299">
        <ele>917.4</ele>
        <time>2019-06-23T12:45:19.000Z</time>
      </trkpt>
      <trkpt lat="44.10258" lon="6.29903">
        <ele>917.4</ele>
        <time>2019-06-23T12:45:20.000Z</time>
      </trkpt>
      <trkpt lat="44.10261" lon="6.29906">
        <ele>917.4</ele>
        <time>2019-06-23T12:45:21.000Z</time>
      </trkpt>
      <trkpt lat="44.10275" lon="6.29916">
        <ele>918</ele>
        <time>2019-06-23T12:45:26.000Z</time>
      </trkpt>
      <trkpt lat="44.10288" lon="6.29928">
        <ele>918.6</ele>
        <time>2019-06-23T12:45:31.000Z</time>
      </trkpt>
      <trkpt lat="44.10302" lon="6.29934">
        <ele>918.4</ele>
        <time>2019-06-23T12:45:35.000Z</time>
      </trkpt>
      <trkpt lat="44.10309" lon="6.29938">
        <ele>918.2</ele>
        <time>2019-06-23T12:45:37.000Z</time>
      </trkpt>
      <trkpt lat="44.10316" lon="6.29941">
        <ele>918.2</ele>
        <time>2019-06-23T12:45:39.000Z</time>
      </trkpt>
      <trkpt lat="44.10326" lon="6.29956">
        <ele>917.6</ele>
        <time>2019-06-23T12:45:43.000Z</time>
      </trkpt>
      <trkpt lat="44.10333" lon="6.29982">
        <ele>916.6</ele>
        <time>2019-06-23T12:45:47.000Z</time>
      </trkpt>
      <trkpt lat="44.10337" lon="6.30003">
        <ele>915.2</ele>
        <time>2019-06-23T12:45:50.000Z</time>
      </trkpt>
      <trkpt lat="44.10339" lon="6.30009">
        <ele>914.6</ele>
        <time>2019-06-23T12:45:51.000Z</time>
      </trkpt>
      <trkpt lat="44.10342" lon="6.30013">
        <ele>914.2</ele>
        <time>2019-06-23T12:45:52.000Z</time>
      </trkpt>
      <trkpt lat="44.10352" lon="6.30028">
        <ele>913.4</ele>
        <time>2019-06-23T12:45:56.000Z</time>
      </trkpt>
      <trkpt lat="44.10361" lon="6.30036">
        <ele>913.4</ele>
        <time>2019-06-23T12:46:00.000Z</time>
      </trkpt>
      <trkpt lat="44.10363" lon="6.30037">
        <ele>914.2</ele>
        <time>2019-06-23T12:46:02.000Z</time>
      </trkpt>
      <trkpt lat="44.10366" lon="6.30039">
        <ele>915.2</ele>
        <time>2019-06-23T12:46:05.000Z</time>
      </trkpt>
      <trkpt lat="44.10368" lon="6.30041">
        <ele>915.6</ele>
        <time>2019-06-23T12:46:06.000Z</time>
      </trkpt>
      <trkpt lat="44.10369" lon="6.30045">
        <ele>916.8</ele>
        <time>2019-06-23T12:46:08.000Z</time>
      </trkpt>
      <trkpt lat="44.10372" lon="6.30048">
        <ele>918</ele>
        <time>2019-06-23T12:46:11.000Z</time>
      </trkpt>
      <trkpt lat="44.10373" lon="6.30048">
        <ele>918.6</ele>
        <time>2019-06-23T12:46:12.000Z</time>
      </trkpt>
      <trkpt lat="44.10374" lon="6.30048">
        <ele>919.4</ele>
        <time>2019-06-23T12:46:13.000Z</time>
      </trkpt>
      <trkpt lat="44.10378" lon="6.3005">
        <ele>920.4</ele>
        <time>2019-06-23T12:46:15.000Z</time>
      </trkpt>
      <trkpt lat="44.10379" lon="6.30052">
        <ele>921</ele>
        <time>2019-06-23T12:46:16.000Z</time>
      </trkpt>
      <trkpt lat="44.1038" lon="6.30055">
        <ele>921.4</ele>
        <time>2019-06-23T12:46:17.000Z</time>
      </trkpt>
      <trkpt lat="44.10383" lon="6.30063">
        <ele>922.2</ele>
        <time>2019-06-23T12:46:20.000Z</time>
      </trkpt>
      <trkpt lat="44.10388" lon="6.30075">
        <ele>922.4</ele>
        <time>2019-06-23T12:46:25.000Z</time>
      </trkpt>
      <trkpt lat="44.10399" lon="6.30087">
        <ele>922.2</ele>
        <time>2019-06-23T12:46:29.000Z</time>
      </trkpt>
      <trkpt lat="44.10402" lon="6.30091">
        <ele>922.2</ele>
        <time>2019-06-23T12:46:30.000Z</time>
      </trkpt>
      <trkpt lat="44.10414" lon="6.30096">
        <ele>921.8</ele>
        <time>2019-06-23T12:46:33.000Z</time>
      </trkpt>
      <trkpt lat="44.10417" lon="6.30097">
        <ele>921.8</ele>
        <time>2019-06-23T12:46:34.000Z</time>
      </trkpt>
      <trkpt lat="44.10424" lon="6.30099">
        <ele>922.8</ele>
        <time>2019-06-23T12:46:37.000Z</time>
      </trkpt>
      <trkpt lat="44.10431" lon="6.30104">
        <ele>924</ele>
        <time>2019-06-23T12:46:40.000Z</time>
      </trkpt>
      <trkpt lat="44.10436" lon="6.30107">
        <ele>924.2</ele>
        <time>2019-06-23T12:46:42.000Z</time>
      </trkpt>
      <trkpt lat="44.10444" lon="6.30109">
        <ele>924.6</ele>
        <time>2019-06-23T12:46:45.000Z</time>
      </trkpt>
      <trkpt lat="44.10446" lon="6.30109">
        <ele>924.6</ele>
        <time>2019-06-23T12:46:46.000Z</time>
      </trkpt>
      <trkpt lat="44.10449" lon="6.30109">
        <ele>924.8</ele>
        <time>2019-06-23T12:46:48.000Z</time>
      </trkpt>
      <trkpt lat="44.10452" lon="6.30109">
        <ele>925</ele>
        <time>2019-06-23T12:46:49.000Z</time>
      </trkpt>
      <trkpt lat="44.10455" lon="6.3011">
        <ele>925.4</ele>
        <time>2019-06-23T12:46:50.000Z</time>
      </trkpt>
      <trkpt lat="44.10463" lon="6.30114">
        <ele>926.2</ele>
        <time>2019-06-23T12:46:53.000Z</time>
      </trkpt>
      <trkpt lat="44.10466" lon="6.30116">
        <ele>926.2</ele>
        <time>2019-06-23T12:46:54.000Z</time>
      </trkpt>
      <trkpt lat="44.10469" lon="6.30117">
        <ele>926.2</ele>
        <time>2019-06-23T12:46:55.000Z</time>
      </trkpt>
      <trkpt lat="44.10471" lon="6.30117">
        <ele>926.2</ele>
        <time>2019-06-23T12:46:56.000Z</time>
      </trkpt>
      <trkpt lat="44.10476" lon="6.30117">
        <ele>926.4</ele>
        <time>2019-06-23T12:46:58.000Z</time>
      </trkpt>
      <trkpt lat="44.10488" lon="6.3012">
        <ele>927</ele>
        <time>2019-06-23T12:47:02.000Z</time>
      </trkpt>
      <trkpt lat="44.10492" lon="6.30121">
        <ele>927.2</ele>
        <time>2019-06-23T12:47:03.000Z</time>
      </trkpt>
      <trkpt lat="44.10502" lon="6.30122">
        <ele>927.6</ele>
        <time>2019-06-23T12:47:07.000Z</time>
      </trkpt>
      <trkpt lat="44.1051" lon="6.30121">
        <ele>928.2</ele>
        <time>2019-06-23T12:47:10.000Z</time>
      </trkpt>
      <trkpt lat="44.10515" lon="6.30121">
        <ele>928.8</ele>
        <time>2019-06-23T12:47:12.000Z</time>
      </trkpt>
      <trkpt lat="44.10521" lon="6.30122">
        <ele>929.4</ele>
        <time>2019-06-23T12:47:14.000Z</time>
      </trkpt>
      <trkpt lat="44.10531" lon="6.30123">
        <ele>930.4</ele>
        <time>2019-06-23T12:47:18.000Z</time>
      </trkpt>
      <trkpt lat="44.10533" lon="6.30124">
        <ele>930.8</ele>
        <time>2019-06-23T12:47:19.000Z</time>
      </trkpt>
      <trkpt lat="44.1054" lon="6.30128">
        <ele>931.4</ele>
        <time>2019-06-23T12:47:22.000Z</time>
      </trkpt>
      <trkpt lat="44.10546" lon="6.30128">
        <ele>931.6</ele>
        <time>2019-06-23T12:47:24.000Z</time>
      </trkpt>
      <trkpt lat="44.10549" lon="6.30127">
        <ele>931.8</ele>
        <time>2019-06-23T12:47:25.000Z</time>
      </trkpt>
      <trkpt lat="44.10552" lon="6.30127">
        <ele>932</ele>
        <time>2019-06-23T12:47:26.000Z</time>
      </trkpt>
      <trkpt lat="44.10554" lon="6.30127">
        <ele>932</ele>
        <time>2019-06-23T12:47:27.000Z</time>
      </trkpt>
      <trkpt lat="44.10557" lon="6.30129">
        <ele>932.2</ele>
        <time>2019-06-23T12:47:28.000Z</time>
      </trkpt>
      <trkpt lat="44.10563" lon="6.3013">
        <ele>932.6</ele>
        <time>2019-06-23T12:47:30.000Z</time>
      </trkpt>
      <trkpt lat="44.10565" lon="6.3013">
        <ele>932.8</ele>
        <time>2019-06-23T12:47:31.000Z</time>
      </trkpt>
      <trkpt lat="44.10575" lon="6.30129">
        <ele>933.4</ele>
        <time>2019-06-23T12:47:35.000Z</time>
      </trkpt>
      <trkpt lat="44.10581" lon="6.30141">
        <ele>933.6</ele>
        <time>2019-06-23T12:47:39.000Z</time>
      </trkpt>
      <trkpt lat="44.10587" lon="6.30151">
        <ele>933.8</ele>
        <time>2019-06-23T12:47:43.000Z</time>
      </trkpt>
      <trkpt lat="44.10588" lon="6.30153">
        <ele>934</ele>
        <time>2019-06-23T12:47:44.000Z</time>
      </trkpt>
      <trkpt lat="44.10591" lon="6.3016">
        <ele>935</ele>
        <time>2019-06-23T12:47:47.000Z</time>
      </trkpt>
      <trkpt lat="44.10595" lon="6.30167">
        <ele>936.2</ele>
        <time>2019-06-23T12:47:50.000Z</time>
      </trkpt>
      <trkpt lat="44.10596" lon="6.30168">
        <ele>936.6</ele>
        <time>2019-06-23T12:47:51.000Z</time>
      </trkpt>
      <trkpt lat="44.10599" lon="6.30172">
        <ele>937</ele>
        <time>2019-06-23T12:47:53.000Z</time>
      </trkpt>
      <trkpt lat="44.106" lon="6.30175">
        <ele>937.2</ele>
        <time>2019-06-23T12:47:54.000Z</time>
      </trkpt>
      <trkpt lat="44.10602" lon="6.3018">
        <ele>938</ele>
        <time>2019-06-23T12:47:56.000Z</time>
      </trkpt>
      <trkpt lat="44.10607" lon="6.30186">
        <ele>938.2</ele>
        <time>2019-06-23T12:47:59.000Z</time>
      </trkpt>
      <trkpt lat="44.10609" lon="6.30187">
        <ele>938.4</ele>
        <time>2019-06-23T12:48:00.000Z</time>
      </trkpt>
      <trkpt lat="44.10611" lon="6.30187">
        <ele>938.6</ele>
        <time>2019-06-23T12:48:01.000Z</time>
      </trkpt>
      <trkpt lat="44.10614" lon="6.30187">
        <ele>938.8</ele>
        <time>2019-06-23T12:48:03.000Z</time>
      </trkpt>
      <trkpt lat="44.10617" lon="6.30184">
        <ele>939</ele>
        <time>2019-06-23T12:48:05.000Z</time>
      </trkpt>
      <trkpt lat="44.10619" lon="6.30182">
        <ele>939.8</ele>
        <time>2019-06-23T12:48:07.000Z</time>
      </trkpt>
      <trkpt lat="44.10623" lon="6.30178">
        <ele>941</ele>
        <time>2019-06-23T12:48:10.000Z</time>
      </trkpt>
      <trkpt lat="44.10627" lon="6.30175">
        <ele>942</ele>
        <time>2019-06-23T12:48:13.000Z</time>
      </trkpt>
      <trkpt lat="44.10628" lon="6.30174">
        <ele>942.2</ele>
        <time>2019-06-23T12:48:14.000Z</time>
      </trkpt>
      <trkpt lat="44.10632" lon="6.30172">
        <ele>943.2</ele>
        <time>2019-06-23T12:48:17.000Z</time>
      </trkpt>
      <trkpt lat="44.10636" lon="6.3017">
        <ele>944.2</ele>
        <time>2019-06-23T12:48:20.000Z</time>
      </trkpt>
      <trkpt lat="44.10639" lon="6.30169">
        <ele>944.6</ele>
        <time>2019-06-23T12:48:22.000Z</time>
      </trkpt>
      <trkpt lat="44.10644" lon="6.30168">
        <ele>945.4</ele>
        <time>2019-06-23T12:48:26.000Z</time>
      </trkpt>
      <trkpt lat="44.10647" lon="6.30166">
        <ele>946</ele>
        <time>2019-06-23T12:48:28.000Z</time>
      </trkpt>
      <trkpt lat="44.10648" lon="6.30164">
        <ele>946.4</ele>
        <time>2019-06-23T12:48:29.000Z</time>
      </trkpt>
      <trkpt lat="44.10649" lon="6.30162">
        <ele>946.8</ele>
        <time>2019-06-23T12:48:30.000Z</time>
      </trkpt>
      <trkpt lat="44.10649" lon="6.30158">
        <ele>947.2</ele>
        <time>2019-06-23T12:48:32.000Z</time>
      </trkpt>
      <trkpt lat="44.10648" lon="6.30152">
        <ele>947.8</ele>
        <time>2019-06-23T12:48:35.000Z</time>
      </trkpt>
      <trkpt lat="44.10649" lon="6.30147">
        <ele>948.6</ele>
        <time>2019-06-23T12:48:38.000Z</time>
      </trkpt>
      <trkpt lat="44.10648" lon="6.30145">
        <ele>949</ele>
        <time>2019-06-23T12:48:40.000Z</time>
      </trkpt>
      <trkpt lat="44.10648" lon="6.30143">
        <ele>949.2</ele>
        <time>2019-06-23T12:48:44.000Z</time>
      </trkpt>
      <trkpt lat="44.10647" lon="6.30143">
        <ele>949</ele>
        <time>2019-06-23T12:48:50.000Z</time>
      </trkpt>
      <trkpt lat="44.10647" lon="6.30142">
        <ele>949</ele>
        <time>2019-06-23T12:48:53.000Z</time>
      </trkpt>
      <trkpt lat="44.10647" lon="6.30143">
        <ele>948.8</ele>
        <time>2019-06-23T12:48:56.000Z</time>
      </trkpt>
      <trkpt lat="44.10647" lon="6.30143">
        <ele>948.4</ele>
        <time>2019-06-23T12:49:03.000Z</time>
      </trkpt>
      <trkpt lat="44.10647" lon="6.30143">
        <ele>948.8</ele>
        <time>2019-06-23T12:49:07.000Z</time>
      </trkpt>
      <trkpt lat="44.10646" lon="6.30142">
        <ele>948.8</ele>
        <time>2019-06-23T12:49:11.000Z</time>
      </trkpt>
      <trkpt lat="44.10646" lon="6.30142">
        <ele>949</ele>
        <time>2019-06-23T12:49:12.000Z</time>
      </trkpt>
      <trkpt lat="44.10646" lon="6.30142">
        <ele>948.8</ele>
        <time>2019-06-23T12:49:13.000Z</time>
      </trkpt>
      <trkpt lat="44.10646" lon="6.30142">
        <ele>948.6</ele>
        <time>2019-06-23T12:49:17.000Z</time>
      </trkpt>
      <trkpt lat="44.10646" lon="6.30142">
        <ele>948.6</ele>
        <time>2019-06-23T12:49:23.000Z</time>
      </trkpt>
      <trkpt lat="44.10646" lon="6.30142">
        <ele>948.6</ele>
        <time>2019-06-23T12:49:24.000Z</time>
      </trkpt>
      <trkpt lat="44.10646" lon="6.30141">
        <ele>948.6</ele>
        <time>2019-06-23T12:49:35.000Z</time>
      </trkpt>
      <trkpt lat="44.10643" lon="6.30135">
        <ele>949</ele>
        <time>2019-06-23T12:49:39.000Z</time>
      </trkpt>
      <trkpt lat="44.10642" lon="6.30133">
        <ele>949</ele>
        <time>2019-06-23T12:49:40.000Z</time>
      </trkpt>
      <trkpt lat="44.10637" lon="6.30122">
        <ele>948.6</ele>
        <time>2019-06-23T12:49:43.000Z</time>
      </trkpt>
      <trkpt lat="44.10633" lon="6.30107">
        <ele>948</ele>
        <time>2019-06-23T12:49:47.000Z</time>
      </trkpt>
      <trkpt lat="44.10632" lon="6.30104">
        <ele>947.8</ele>
        <time>2019-06-23T12:49:48.000Z</time>
      </trkpt>
      <trkpt lat="44.1063" lon="6.30096">
        <ele>947.8</ele>
        <time>2019-06-23T12:49:51.000Z</time>
      </trkpt>
      <trkpt lat="44.10624" lon="6.30074">
        <ele>948.2</ele>
        <time>2019-06-23T12:49:57.000Z</time>
      </trkpt>
      <trkpt lat="44.10622" lon="6.30068">
        <ele>948.8</ele>
        <time>2019-06-23T12:49:59.000Z</time>
      </trkpt>
      <trkpt lat="44.10621" lon="6.30065">
        <ele>949</ele>
        <time>2019-06-23T12:50:00.000Z</time>
      </trkpt>
      <trkpt lat="44.1062" lon="6.30063">
        <ele>949.4</ele>
        <time>2019-06-23T12:50:01.000Z</time>
      </trkpt>
      <trkpt lat="44.10618" lon="6.30057">
        <ele>950.4</ele>
        <time>2019-06-23T12:50:03.000Z</time>
      </trkpt>
      <trkpt lat="44.10617" lon="6.30051">
        <ele>950.8</ele>
        <time>2019-06-23T12:50:05.000Z</time>
      </trkpt>
      <trkpt lat="44.10618" lon="6.30045">
        <ele>951.4</ele>
        <time>2019-06-23T12:50:07.000Z</time>
      </trkpt>
      <trkpt lat="44.10616" lon="6.30033">
        <ele>952.8</ele>
        <time>2019-06-23T12:50:11.000Z</time>
      </trkpt>
      <trkpt lat="44.10617" lon="6.30031">
        <ele>953</ele>
        <time>2019-06-23T12:50:12.000Z</time>
      </trkpt>
      <trkpt lat="44.10619" lon="6.30027">
        <ele>953.4</ele>
        <time>2019-06-23T12:50:14.000Z</time>
      </trkpt>
      <trkpt lat="44.10618" lon="6.30024">
        <ele>953.6</ele>
        <time>2019-06-23T12:50:15.000Z</time>
      </trkpt>
      <trkpt lat="44.10618" lon="6.30022">
        <ele>953.8</ele>
        <time>2019-06-23T12:50:16.000Z</time>
      </trkpt>
      <trkpt lat="44.10615" lon="6.30015">
        <ele>955</ele>
        <time>2019-06-23T12:50:19.000Z</time>
      </trkpt>
      <trkpt lat="44.10614" lon="6.3001">
        <ele>955.8</ele>
        <time>2019-06-23T12:50:21.000Z</time>
      </trkpt>
      <trkpt lat="44.10614" lon="6.30007">
        <ele>956.2</ele>
        <time>2019-06-23T12:50:22.000Z</time>
      </trkpt>
      <trkpt lat="44.10614" lon="6.30002">
        <ele>957.2</ele>
        <time>2019-06-23T12:50:24.000Z</time>
      </trkpt>
      <trkpt lat="44.10612" lon="6.29997">
        <ele>957.6</ele>
        <time>2019-06-23T12:50:27.000Z</time>
      </trkpt>
      <trkpt lat="44.1061" lon="6.29995">
        <ele>958.4</ele>
        <time>2019-06-23T12:50:30.000Z</time>
      </trkpt>
      <trkpt lat="44.1061" lon="6.29995">
        <ele>958.8</ele>
        <time>2019-06-23T12:50:32.000Z</time>
      </trkpt>
      <trkpt lat="44.1061" lon="6.29994">
        <ele>959.2</ele>
        <time>2019-06-23T12:50:44.000Z</time>
      </trkpt>
      <trkpt lat="44.1061" lon="6.29994">
        <ele>959.6</ele>
        <time>2019-06-23T12:50:48.000Z</time>
      </trkpt>
      <trkpt lat="44.1061" lon="6.29995">
        <ele>959.4</ele>
        <time>2019-06-23T12:51:10.000Z</time>
      </trkpt>
      <trkpt lat="44.10605" lon="6.29997">
        <ele>959.2</ele>
        <time>2019-06-23T12:51:23.000Z</time>
      </trkpt>
      <trkpt lat="44.10603" lon="6.29998">
        <ele>959.2</ele>
        <time>2019-06-23T12:51:24.000Z</time>
      </trkpt>
      <trkpt lat="44.106" lon="6.29999">
        <ele>958.8</ele>
        <time>2019-06-23T12:51:26.000Z</time>
      </trkpt>
      <trkpt lat="44.10599" lon="6.3">
        <ele>958.4</ele>
        <time>2019-06-23T12:51:28.000Z</time>
      </trkpt>
      <trkpt lat="44.10599" lon="6.3">
        <ele>957.6</ele>
        <time>2019-06-23T12:51:32.000Z</time>
      </trkpt>
      <trkpt lat="44.10599" lon="6.3">
        <ele>957.4</ele>
        <time>2019-06-23T12:51:34.000Z</time>
      </trkpt>
      <trkpt lat="44.10599" lon="6.3">
        <ele>957.2</ele>
        <time>2019-06-23T12:51:36.000Z</time>
      </trkpt>
      <trkpt lat="44.10599" lon="6.3">
        <ele>957</ele>
        <time>2019-06-23T12:51:38.000Z</time>
      </trkpt>
      <trkpt lat="44.10598" lon="6.3">
        <ele>957</ele>
        <time>2019-06-23T12:51:43.000Z</time>
      </trkpt>
      <trkpt lat="44.10598" lon="6.3">
        <ele>957</ele>
        <time>2019-06-23T12:51:48.000Z</time>
      </trkpt>
      <trkpt lat="44.10598" lon="6.3">
        <ele>957</ele>
        <time>2019-06-23T12:51:53.000Z</time>
      </trkpt>
      <trkpt lat="44.10598" lon="6.3">
        <ele>957</ele>
        <time>2019-06-23T12:51:57.000Z</time>
      </trkpt>
      <trkpt lat="44.10598" lon="6.29999">
        <ele>957</ele>
        <time>2019-06-23T12:52:05.000Z</time>
      </trkpt>
      <trkpt lat="44.10598" lon="6.29999">
        <ele>957.2</ele>
        <time>2019-06-23T12:52:08.000Z</time>
      </trkpt>
      <trkpt lat="44.10598" lon="6.29999">
        <ele>957.2</ele>
        <time>2019-06-23T12:52:17.000Z</time>
      </trkpt>
      <trkpt lat="44.10598" lon="6.29999">
        <ele>957.2</ele>
        <time>2019-06-23T12:52:19.000Z</time>
      </trkpt>
      <trkpt lat="44.10599" lon="6.3">
        <ele>957.6</ele>
        <time>2019-06-23T12:52:27.000Z</time>
      </trkpt>
      <trkpt lat="44.10599" lon="6.3">
        <ele>957.6</ele>
        <time>2019-06-23T12:52:30.000Z</time>
      </trkpt>
      <trkpt lat="44.10599" lon="6.3">
        <ele>957.6</ele>
        <time>2019-06-23T12:52:35.000Z</time>
      </trkpt>
      <trkpt lat="44.10599" lon="6.3">
        <ele>957.6</ele>
        <time>2019-06-23T12:52:36.000Z</time>
      </trkpt>
      <trkpt lat="44.10599" lon="6.3">
        <ele>957.2</ele>
        <time>2019-06-23T12:52:37.000Z</time>
      </trkpt>
      <trkpt lat="44.10599" lon="6.3">
        <ele>957.2</ele>
        <time>2019-06-23T12:52:39.000Z</time>
      </trkpt>
      <trkpt lat="44.10599" lon="6.3">
        <ele>957.2</ele>
        <time>2019-06-23T12:52:42.000Z</time>
      </trkpt>
      <trkpt lat="44.10598" lon="6.3">
        <ele>957.2</ele>
        <time>2019-06-23T12:52:46.000Z</time>
      </trkpt>
      <trkpt lat="44.10598" lon="6.3">
        <ele>957.2</ele>
        <time>2019-06-23T12:52:51.000Z</time>
      </trkpt>
      <trkpt lat="44.10598" lon="6.3">
        <ele>957.2</ele>
        <time>2019-06-23T12:52:57.000Z</time>
      </trkpt>
      <trkpt lat="44.10599" lon="6.3">
        <ele>957.2</ele>
        <time>2019-06-23T12:53:11.000Z</time>
      </trkpt>
      <trkpt lat="44.10598" lon="6.30001">
        <ele>957.2</ele>
        <time>2019-06-23T12:53:29.000Z</time>
      </trkpt>
      <trkpt lat="44.10598" lon="6.30001">
        <ele>957.2</ele>
        <time>2019-06-23T12:53:48.000Z</time>
      </trkpt>
      <trkpt lat="44.10597" lon="6.30002">
        <ele>957.2</ele>
        <time>2019-06-23T12:54:03.000Z</time>
      </trkpt>
      <trkpt lat="44.1059" lon="6.30001">
        <ele>957.2</ele>
        <time>2019-06-23T12:54:06.000Z</time>
      </trkpt>
      <trkpt lat="44.10587" lon="6.30001">
        <ele>957.2</ele>
        <time>2019-06-23T12:54:07.000Z</time>
      </trkpt>
      <trkpt lat="44.10573" lon="6.30003">
        <ele>956.4</ele>
        <time>2019-06-23T12:54:10.000Z</time>
      </trkpt>
      <trkpt lat="44.10567" lon="6.30003">
        <ele>955.6</ele>
        <time>2019-06-23T12:54:11.000Z</time>
      </trkpt>
      <trkpt lat="44.10562" lon="6.30001">
        <ele>955</ele>
        <time>2019-06-23T12:54:12.000Z</time>
      </trkpt>
      <trkpt lat="44.10558" lon="6.29998">
        <ele>954.2</ele>
        <time>2019-06-23T12:54:13.000Z</time>
      </trkpt>
      <trkpt lat="44.10556" lon="6.29994">
        <ele>953.8</ele>
        <time>2019-06-23T12:54:14.000Z</time>
      </trkpt>
      <trkpt lat="44.10553" lon="6.29991">
        <ele>953.2</ele>
        <time>2019-06-23T12:54:15.000Z</time>
      </trkpt>
      <trkpt lat="44.10543" lon="6.2999">
        <ele>951.6</ele>
        <time>2019-06-23T12:54:17.000Z</time>
      </trkpt>
      <trkpt lat="44.10531" lon="6.2999">
        <ele>950.6</ele>
        <time>2019-06-23T12:54:19.000Z</time>
      </trkpt>
      <trkpt lat="44.10516" lon="6.29991">
        <ele>950</ele>
        <time>2019-06-23T12:54:21.000Z</time>
      </trkpt>
      <trkpt lat="44.10508" lon="6.29992">
        <ele>949</ele>
        <time>2019-06-23T12:54:22.000Z</time>
      </trkpt>
      <trkpt lat="44.105" lon="6.29993">
        <ele>948.2</ele>
        <time>2019-06-23T12:54:23.000Z</time>
      </trkpt>
      <trkpt lat="44.10492" lon="6.29993">
        <ele>947.6</ele>
        <time>2019-06-23T12:54:24.000Z</time>
      </trkpt>
      <trkpt lat="44.10484" lon="6.29993">
        <ele>947</ele>
        <time>2019-06-23T12:54:25.000Z</time>
      </trkpt>
      <trkpt lat="44.10476" lon="6.29992">
        <ele>946.2</ele>
        <time>2019-06-23T12:54:26.000Z</time>
      </trkpt>
      <trkpt lat="44.10469" lon="6.29991">
        <ele>945.2</ele>
        <time>2019-06-23T12:54:27.000Z</time>
      </trkpt>
      <trkpt lat="44.10464" lon="6.29988">
        <ele>944.4</ele>
        <time>2019-06-23T12:54:28.000Z</time>
      </trkpt>
      <trkpt lat="44.10461" lon="6.29985">
        <ele>944</ele>
        <time>2019-06-23T12:54:29.000Z</time>
      </trkpt>
      <trkpt lat="44.1046" lon="6.29981">
        <ele>943.6</ele>
        <time>2019-06-23T12:54:30.000Z</time>
      </trkpt>
      <trkpt lat="44.10458" lon="6.29978">
        <ele>943.4</ele>
        <time>2019-06-23T12:54:31.000Z</time>
      </trkpt>
      <trkpt lat="44.10455" lon="6.29975">
        <ele>943.2</ele>
        <time>2019-06-23T12:54:32.000Z</time>
      </trkpt>
      <trkpt lat="44.10453" lon="6.29973">
        <ele>943.2</ele>
        <time>2019-06-23T12:54:33.000Z</time>
      </trkpt>
      <trkpt lat="44.10451" lon="6.29973">
        <ele>943.2</ele>
        <time>2019-06-23T12:54:34.000Z</time>
      </trkpt>
      <trkpt lat="44.10449" lon="6.29972">
        <ele>943.2</ele>
        <time>2019-06-23T12:54:35.000Z</time>
      </trkpt>
      <trkpt lat="44.10448" lon="6.29971">
        <ele>943.4</ele>
        <time>2019-06-23T12:54:36.000Z</time>
      </trkpt>
      <trkpt lat="44.10447" lon="6.2997">
        <ele>943.4</ele>
        <time>2019-06-23T12:54:37.000Z</time>
      </trkpt>
      <trkpt lat="44.10447" lon="6.29969">
        <ele>943.8</ele>
        <time>2019-06-23T12:54:38.000Z</time>
      </trkpt>
      <trkpt lat="44.10443" lon="6.29963">
        <ele>944.6</ele>
        <time>2019-06-23T12:54:42.000Z</time>
      </trkpt>
      <trkpt lat="44.10441" lon="6.29952">
        <ele>944.4</ele>
        <time>2019-06-23T12:54:47.000Z</time>
      </trkpt>
      <trkpt lat="44.10441" lon="6.29951">
        <ele>944.2</ele>
        <time>2019-06-23T12:54:48.000Z</time>
      </trkpt>
      <trkpt lat="44.1044" lon="6.29949">
        <ele>943.8</ele>
        <time>2019-06-23T12:54:57.000Z</time>
      </trkpt>
      <trkpt lat="44.1044" lon="6.29949">
        <ele>944</ele>
        <time>2019-06-23T12:55:00.000Z</time>
      </trkpt>
      <trkpt lat="44.1044" lon="6.29948">
        <ele>944</ele>
        <time>2019-06-23T12:55:14.000Z</time>
      </trkpt>
      <trkpt lat="44.1044" lon="6.29947">
        <ele>944</ele>
        <time>2019-06-23T12:55:15.000Z</time>
      </trkpt>
      <trkpt lat="44.10433" lon="6.29933">
        <ele>944.4</ele>
        <time>2019-06-23T12:55:19.000Z</time>
      </trkpt>
      <trkpt lat="44.10415" lon="6.2991">
        <ele>944.8</ele>
        <time>2019-06-23T12:55:25.000Z</time>
      </trkpt>
      <trkpt lat="44.10395" lon="6.29892">
        <ele>944.8</ele>
        <time>2019-06-23T12:55:30.000Z</time>
      </trkpt>
      <trkpt lat="44.10385" lon="6.29884">
        <ele>944.6</ele>
        <time>2019-06-23T12:55:32.000Z</time>
      </trkpt>
      <trkpt lat="44.10376" lon="6.29879">
        <ele>944.6</ele>
        <time>2019-06-23T12:55:34.000Z</time>
      </trkpt>
      <trkpt lat="44.10371" lon="6.29877">
        <ele>944.6</ele>
        <time>2019-06-23T12:55:35.000Z</time>
      </trkpt>
      <trkpt lat="44.10361" lon="6.29872">
        <ele>944.4</ele>
        <time>2019-06-23T12:55:37.000Z</time>
      </trkpt>
      <trkpt lat="44.10356" lon="6.29868">
        <ele>944.4</ele>
        <time>2019-06-23T12:55:38.000Z</time>
      </trkpt>
      <trkpt lat="44.10351" lon="6.29864">
        <ele>944.4</ele>
        <time>2019-06-23T12:55:39.000Z</time>
      </trkpt>
      <trkpt lat="44.10342" lon="6.29855">
        <ele>944.4</ele>
        <time>2019-06-23T12:55:41.000Z</time>
      </trkpt>
      <trkpt lat="44.10333" lon="6.29844">
        <ele>944.4</ele>
        <time>2019-06-23T12:55:43.000Z</time>
      </trkpt>
      <trkpt lat="44.10318" lon="6.29825">
        <ele>944</ele>
        <time>2019-06-23T12:55:47.000Z</time>
      </trkpt>
      <trkpt lat="44.10312" lon="6.29816">
        <ele>944.4</ele>
        <time>2019-06-23T12:55:49.000Z</time>
      </trkpt>
      <trkpt lat="44.10304" lon="6.298">
        <ele>944.8</ele>
        <time>2019-06-23T12:55:53.000Z</time>
      </trkpt>
      <trkpt lat="44.10295" lon="6.29789">
        <ele>945.2</ele>
        <time>2019-06-23T12:55:57.000Z</time>
      </trkpt>
      <trkpt lat="44.10293" lon="6.29788">
        <ele>945.2</ele>
        <time>2019-06-23T12:55:58.000Z</time>
      </trkpt>
      <trkpt lat="44.10288" lon="6.29786">
        <ele>945.6</ele>
        <time>2019-06-23T12:56:00.000Z</time>
      </trkpt>
      <trkpt lat="44.10286" lon="6.29779">
        <ele>946</ele>
        <time>2019-06-23T12:56:02.000Z</time>
      </trkpt>
      <trkpt lat="44.10284" lon="6.29776">
        <ele>946</ele>
        <time>2019-06-23T12:56:03.000Z</time>
      </trkpt>
      <trkpt lat="44.1028" lon="6.29768">
        <ele>946.2</ele>
        <time>2019-06-23T12:56:05.000Z</time>
      </trkpt>
      <trkpt lat="44.10278" lon="6.29765">
        <ele>946.2</ele>
        <time>2019-06-23T12:56:06.000Z</time>
      </trkpt>
      <trkpt lat="44.10275" lon="6.29762">
        <ele>946.2</ele>
        <time>2019-06-23T12:56:07.000Z</time>
      </trkpt>
      <trkpt lat="44.10269" lon="6.29753">
        <ele>946.2</ele>
        <time>2019-06-23T12:56:10.000Z</time>
      </trkpt>
      <trkpt lat="44.10265" lon="6.29746">
        <ele>946.4</ele>
        <time>2019-06-23T12:56:12.000Z</time>
      </trkpt>
      <trkpt lat="44.10262" lon="6.29744">
        <ele>946.4</ele>
        <time>2019-06-23T12:56:13.000Z</time>
      </trkpt>
      <trkpt lat="44.10259" lon="6.2974">
        <ele>946.8</ele>
        <time>2019-06-23T12:56:15.000Z</time>
      </trkpt>
      <trkpt lat="44.10256" lon="6.29737">
        <ele>947</ele>
        <time>2019-06-23T12:56:17.000Z</time>
      </trkpt>
      <trkpt lat="44.10254" lon="6.2973">
        <ele>947.4</ele>
        <time>2019-06-23T12:56:19.000Z</time>
      </trkpt>
      <trkpt lat="44.10253" lon="6.29722">
        <ele>948</ele>
        <time>2019-06-23T12:56:21.000Z</time>
      </trkpt>
      <trkpt lat="44.10249" lon="6.29701">
        <ele>949.2</ele>
        <time>2019-06-23T12:56:26.000Z</time>
      </trkpt>
      <trkpt lat="44.10249" lon="6.29697">
        <ele>949.6</ele>
        <time>2019-06-23T12:56:27.000Z</time>
      </trkpt>
      <trkpt lat="44.10246" lon="6.29684">
        <ele>950.2</ele>
        <time>2019-06-23T12:56:30.000Z</time>
      </trkpt>
      <trkpt lat="44.10244" lon="6.29682">
        <ele>950.6</ele>
        <time>2019-06-23T12:56:31.000Z</time>
      </trkpt>
      <trkpt lat="44.10242" lon="6.29679">
        <ele>950.8</ele>
        <time>2019-06-23T12:56:32.000Z</time>
      </trkpt>
      <trkpt lat="44.10239" lon="6.29673">
        <ele>951.8</ele>
        <time>2019-06-23T12:56:34.000Z</time>
      </trkpt>
      <trkpt lat="44.10238" lon="6.29667">
        <ele>952.8</ele>
        <time>2019-06-23T12:56:36.000Z</time>
      </trkpt>
      <trkpt lat="44.10238" lon="6.29663">
        <ele>953.2</ele>
        <time>2019-06-23T12:56:37.000Z</time>
      </trkpt>
      <trkpt lat="44.10237" lon="6.29654">
        <ele>953.8</ele>
        <time>2019-06-23T12:56:39.000Z</time>
      </trkpt>
      <trkpt lat="44.10233" lon="6.29639">
        <ele>954.6</ele>
        <time>2019-06-23T12:56:43.000Z</time>
      </trkpt>
      <trkpt lat="44.10233" lon="6.29635">
        <ele>955</ele>
        <time>2019-06-23T12:56:44.000Z</time>
      </trkpt>
      <trkpt lat="44.10229" lon="6.29625">
        <ele>956.2</ele>
        <time>2019-06-23T12:56:47.000Z</time>
      </trkpt>
      <trkpt lat="44.10227" lon="6.29624">
        <ele>956.4</ele>
        <time>2019-06-23T12:56:48.000Z</time>
      </trkpt>
      <trkpt lat="44.10222" lon="6.29616">
        <ele>957.4</ele>
        <time>2019-06-23T12:56:51.000Z</time>
      </trkpt>
      <trkpt lat="44.10221" lon="6.29612">
        <ele>957.6</ele>
        <time>2019-06-23T12:56:52.000Z</time>
      </trkpt>
      <trkpt lat="44.10213" lon="6.29596">
        <ele>958.4</ele>
        <time>2019-06-23T12:56:56.000Z</time>
      </trkpt>
      <trkpt lat="44.1021" lon="6.29593">
        <ele>958.6</ele>
        <time>2019-06-23T12:56:57.000Z</time>
      </trkpt>
      <trkpt lat="44.10204" lon="6.29579">
        <ele>959.6</ele>
        <time>2019-06-23T12:57:01.000Z</time>
      </trkpt>
      <trkpt lat="44.10202" lon="6.29576">
        <ele>959.8</ele>
        <time>2019-06-23T12:57:02.000Z</time>
      </trkpt>
      <trkpt lat="44.10199" lon="6.29566">
        <ele>960.2</ele>
        <time>2019-06-23T12:57:05.000Z</time>
      </trkpt>
      <trkpt lat="44.10196" lon="6.2956">
        <ele>960.6</ele>
        <time>2019-06-23T12:57:07.000Z</time>
      </trkpt>
      <trkpt lat="44.10194" lon="6.29556">
        <ele>960.6</ele>
        <time>2019-06-23T12:57:08.000Z</time>
      </trkpt>
      <trkpt lat="44.1019" lon="6.29549">
        <ele>960.8</ele>
        <time>2019-06-23T12:57:10.000Z</time>
      </trkpt>
      <trkpt lat="44.10186" lon="6.29542">
        <ele>961.2</ele>
        <time>2019-06-23T12:57:12.000Z</time>
      </trkpt>
      <trkpt lat="44.10186" lon="6.29538">
        <ele>961.6</ele>
        <time>2019-06-23T12:57:13.000Z</time>
      </trkpt>
      <trkpt lat="44.10186" lon="6.29534">
        <ele>962</ele>
        <time>2019-06-23T12:57:14.000Z</time>
      </trkpt>
      <trkpt lat="44.10186" lon="6.2953">
        <ele>962</ele>
        <time>2019-06-23T12:57:15.000Z</time>
      </trkpt>
      <trkpt lat="44.10182" lon="6.2952">
        <ele>963</ele>
        <time>2019-06-23T12:57:18.000Z</time>
      </trkpt>
      <trkpt lat="44.1018" lon="6.29516">
        <ele>963.4</ele>
        <time>2019-06-23T12:57:19.000Z</time>
      </trkpt>
      <trkpt lat="44.10178" lon="6.29512">
        <ele>963.6</ele>
        <time>2019-06-23T12:57:20.000Z</time>
      </trkpt>
      <trkpt lat="44.10175" lon="6.29504">
        <ele>964</ele>
        <time>2019-06-23T12:57:22.000Z</time>
      </trkpt>
      <trkpt lat="44.10173" lon="6.29501">
        <ele>964.2</ele>
        <time>2019-06-23T12:57:23.000Z</time>
      </trkpt>
      <trkpt lat="44.10169" lon="6.29494">
        <ele>964.4</ele>
        <time>2019-06-23T12:57:25.000Z</time>
      </trkpt>
      <trkpt lat="44.10163" lon="6.29487">
        <ele>964.6</ele>
        <time>2019-06-23T12:57:28.000Z</time>
      </trkpt>
      <trkpt lat="44.10153" lon="6.29483">
        <ele>965</ele>
        <time>2019-06-23T12:57:31.000Z</time>
      </trkpt>
      <trkpt lat="44.10151" lon="6.2948">
        <ele>965</ele>
        <time>2019-06-23T12:57:32.000Z</time>
      </trkpt>
      <trkpt lat="44.10152" lon="6.29476">
        <ele>965.2</ele>
        <time>2019-06-23T12:57:33.000Z</time>
      </trkpt>
      <trkpt lat="44.10153" lon="6.29464">
        <ele>965.8</ele>
        <time>2019-06-23T12:57:36.000Z</time>
      </trkpt>
      <trkpt lat="44.10148" lon="6.29455">
        <ele>966.4</ele>
        <time>2019-06-23T12:57:39.000Z</time>
      </trkpt>
      <trkpt lat="44.10145" lon="6.29452">
        <ele>966.6</ele>
        <time>2019-06-23T12:57:40.000Z</time>
      </trkpt>
      <trkpt lat="44.10131" lon="6.29437">
        <ele>967.4</ele>
        <time>2019-06-23T12:57:45.000Z</time>
      </trkpt>
      <trkpt lat="44.10128" lon="6.29427">
        <ele>967.4</ele>
        <time>2019-06-23T12:57:47.000Z</time>
      </trkpt>
      <trkpt lat="44.10128" lon="6.29414">
        <ele>967.6</ele>
        <time>2019-06-23T12:57:49.000Z</time>
      </trkpt>
      <trkpt lat="44.10127" lon="6.29408">
        <ele>967.8</ele>
        <time>2019-06-23T12:57:50.000Z</time>
      </trkpt>
      <trkpt lat="44.10122" lon="6.29397">
        <ele>968.2</ele>
        <time>2019-06-23T12:57:52.000Z</time>
      </trkpt>
      <trkpt lat="44.10119" lon="6.29393">
        <ele>968.4</ele>
        <time>2019-06-23T12:57:53.000Z</time>
      </trkpt>
      <trkpt lat="44.10113" lon="6.29384">
        <ele>968.6</ele>
        <time>2019-06-23T12:57:55.000Z</time>
      </trkpt>
      <trkpt lat="44.10105" lon="6.2937">
        <ele>969</ele>
        <time>2019-06-23T12:57:58.000Z</time>
      </trkpt>
      <trkpt lat="44.10102" lon="6.2936">
        <ele>969.6</ele>
        <time>2019-06-23T12:58:00.000Z</time>
      </trkpt>
      <trkpt lat="44.10098" lon="6.29343">
        <ele>970.2</ele>
        <time>2019-06-23T12:58:03.000Z</time>
      </trkpt>
      <trkpt lat="44.10095" lon="6.29333">
        <ele>970.6</ele>
        <time>2019-06-23T12:58:05.000Z</time>
      </trkpt>
      <trkpt lat="44.1009" lon="6.29325">
        <ele>970.8</ele>
        <time>2019-06-23T12:58:07.000Z</time>
      </trkpt>
      <trkpt lat="44.10083" lon="6.29317">
        <ele>970.8</ele>
        <time>2019-06-23T12:58:09.000Z</time>
      </trkpt>
      <trkpt lat="44.10076" lon="6.29308">
        <ele>970.8</ele>
        <time>2019-06-23T12:58:11.000Z</time>
      </trkpt>
      <trkpt lat="44.10072" lon="6.29305">
        <ele>970.6</ele>
        <time>2019-06-23T12:58:12.000Z</time>
      </trkpt>
      <trkpt lat="44.10069" lon="6.29301">
        <ele>970.4</ele>
        <time>2019-06-23T12:58:13.000Z</time>
      </trkpt>
      <trkpt lat="44.10065" lon="6.29291">
        <ele>970.4</ele>
        <time>2019-06-23T12:58:15.000Z</time>
      </trkpt>
      <trkpt lat="44.10053" lon="6.29276">
        <ele>970.4</ele>
        <time>2019-06-23T12:58:19.000Z</time>
      </trkpt>
      <trkpt lat="44.1005" lon="6.29273">
        <ele>970.8</ele>
        <time>2019-06-23T12:58:21.000Z</time>
      </trkpt>
      <trkpt lat="44.10047" lon="6.29265">
        <ele>971</ele>
        <time>2019-06-23T12:58:23.000Z</time>
      </trkpt>
      <trkpt lat="44.10036" lon="6.2925">
        <ele>971.2</ele>
        <time>2019-06-23T12:58:27.000Z</time>
      </trkpt>
      <trkpt lat="44.10033" lon="6.29247">
        <ele>971.2</ele>
        <time>2019-06-23T12:58:28.000Z</time>
      </trkpt>
      <trkpt lat="44.1003" lon="6.29238">
        <ele>971.2</ele>
        <time>2019-06-23T12:58:30.000Z</time>
      </trkpt>
      <trkpt lat="44.10028" lon="6.29229">
        <ele>971.2</ele>
        <time>2019-06-23T12:58:32.000Z</time>
      </trkpt>
      <trkpt lat="44.10029" lon="6.29226">
        <ele>971.2</ele>
        <time>2019-06-23T12:58:33.000Z</time>
      </trkpt>
      <trkpt lat="44.1003" lon="6.29224">
        <ele>971.8</ele>
        <time>2019-06-23T12:58:35.000Z</time>
      </trkpt>
      <trkpt lat="44.10031" lon="6.29223">
        <ele>972.4</ele>
        <time>2019-06-23T12:58:37.000Z</time>
      </trkpt>
      <trkpt lat="44.1003" lon="6.2922">
        <ele>972.8</ele>
        <time>2019-06-23T12:58:40.000Z</time>
      </trkpt>
      <trkpt lat="44.10029" lon="6.29219">
        <ele>973.2</ele>
        <time>2019-06-23T12:58:42.000Z</time>
      </trkpt>
      <trkpt lat="44.10028" lon="6.29218">
        <ele>973.4</ele>
        <time>2019-06-23T12:58:43.000Z</time>
      </trkpt>
      <trkpt lat="44.10027" lon="6.29217">
        <ele>973.4</ele>
        <time>2019-06-23T12:58:49.000Z</time>
      </trkpt>
      <trkpt lat="44.10027" lon="6.29217">
        <ele>973.8</ele>
        <time>2019-06-23T12:59:12.000Z</time>
      </trkpt>
      <trkpt lat="44.10027" lon="6.29217">
        <ele>973.4</ele>
        <time>2019-06-23T12:59:20.000Z</time>
      </trkpt>
      <trkpt lat="44.10027" lon="6.29217">
        <ele>973.6</ele>
        <time>2019-06-23T12:59:23.000Z</time>
      </trkpt>
      <trkpt lat="44.10027" lon="6.29217">
        <ele>973.8</ele>
        <time>2019-06-23T12:59:24.000Z</time>
      </trkpt>
      <trkpt lat="44.10025" lon="6.29214">
        <ele>974</ele>
        <time>2019-06-23T12:59:29.000Z</time>
      </trkpt>
      <trkpt lat="44.10021" lon="6.29208">
        <ele>974.2</ele>
        <time>2019-06-23T12:59:33.000Z</time>
      </trkpt>
      <trkpt lat="44.10021" lon="6.29206">
        <ele>974.2</ele>
        <time>2019-06-23T12:59:34.000Z</time>
      </trkpt>
      <trkpt lat="44.10021" lon="6.29205">
        <ele>974.2</ele>
        <time>2019-06-23T12:59:35.000Z</time>
      </trkpt>
      <trkpt lat="44.10022" lon="6.29199">
        <ele>974.8</ele>
        <time>2019-06-23T12:59:40.000Z</time>
      </trkpt>
      <trkpt lat="44.10023" lon="6.29198">
        <ele>975</ele>
        <time>2019-06-23T12:59:41.000Z</time>
      </trkpt>
      <trkpt lat="44.10024" lon="6.29196">
        <ele>975.4</ele>
        <time>2019-06-23T12:59:43.000Z</time>
      </trkpt>
      <trkpt lat="44.10023" lon="6.29193">
        <ele>975.8</ele>
        <time>2019-06-23T12:59:49.000Z</time>
      </trkpt>
      <trkpt lat="44.10023" lon="6.29193">
        <ele>976</ele>
        <time>2019-06-23T12:59:50.000Z</time>
      </trkpt>
      <trkpt lat="44.10023" lon="6.29191">
        <ele>976.2</ele>
        <time>2019-06-23T12:59:57.000Z</time>
      </trkpt>
      <trkpt lat="44.10022" lon="6.2919">
        <ele>976.2</ele>
        <time>2019-06-23T12:59:58.000Z</time>
      </trkpt>
      <trkpt lat="44.10021" lon="6.29189">
        <ele>976.2</ele>
        <time>2019-06-23T12:59:59.000Z</time>
      </trkpt>
      <trkpt lat="44.1002" lon="6.29187">
        <ele>976.6</ele>
        <time>2019-06-23T13:00:01.000Z</time>
      </trkpt>
      <trkpt lat="44.10019" lon="6.29184">
        <ele>977</ele>
        <time>2019-06-23T13:00:04.000Z</time>
      </trkpt>
      <trkpt lat="44.10018" lon="6.29182">
        <ele>977.2</ele>
        <time>2019-06-23T13:00:06.000Z</time>
      </trkpt>
      <trkpt lat="44.10018" lon="6.29181">
        <ele>977.6</ele>
        <time>2019-06-23T13:00:07.000Z</time>
      </trkpt>
      <trkpt lat="44.10018" lon="6.29179">
        <ele>978</ele>
        <time>2019-06-23T13:00:09.000Z</time>
      </trkpt>
      <trkpt lat="44.10018" lon="6.29178">
        <ele>978.4</ele>
        <time>2019-06-23T13:00:10.000Z</time>
      </trkpt>
      <trkpt lat="44.10018" lon="6.29174">
        <ele>978.8</ele>
        <time>2019-06-23T13:00:13.000Z</time>
      </trkpt>
      <trkpt lat="44.10017" lon="6.29172">
        <ele>979.2</ele>
        <time>2019-06-23T13:00:15.000Z</time>
      </trkpt>
      <trkpt lat="44.10015" lon="6.2917">
        <ele>980</ele>
        <time>2019-06-23T13:00:20.000Z</time>
      </trkpt>
      <trkpt lat="44.10014" lon="6.29169">
        <ele>980.2</ele>
        <time>2019-06-23T13:00:21.000Z</time>
      </trkpt>
      <trkpt lat="44.10012" lon="6.29166">
        <ele>981</ele>
        <time>2019-06-23T13:00:25.000Z</time>
      </trkpt>
      <trkpt lat="44.1001" lon="6.29165">
        <ele>981.2</ele>
        <time>2019-06-23T13:00:27.000Z</time>
      </trkpt>
      <trkpt lat="44.10009" lon="6.29165">
        <ele>981.4</ele>
        <time>2019-06-23T13:00:28.000Z</time>
      </trkpt>
      <trkpt lat="44.10004" lon="6.29161">
        <ele>982.4</ele>
        <time>2019-06-23T13:00:35.000Z</time>
      </trkpt>
      <trkpt lat="44.10001" lon="6.29156">
        <ele>983</ele>
        <time>2019-06-23T13:00:42.000Z</time>
      </trkpt>
      <trkpt lat="44.09998" lon="6.29151">
        <ele>983.4</ele>
        <time>2019-06-23T13:00:46.000Z</time>
      </trkpt>
      <trkpt lat="44.09997" lon="6.29151">
        <ele>983.4</ele>
        <time>2019-06-23T13:00:47.000Z</time>
      </trkpt>
      <trkpt lat="44.09994" lon="6.29149">
        <ele>983.8</ele>
        <time>2019-06-23T13:00:52.000Z</time>
      </trkpt>
      <trkpt lat="44.09994" lon="6.2915">
        <ele>983.8</ele>
        <time>2019-06-23T13:01:18.000Z</time>
      </trkpt>
      <trkpt lat="44.0999" lon="6.29151">
        <ele>983.4</ele>
        <time>2019-06-23T13:01:23.000Z</time>
      </trkpt>
      <trkpt lat="44.09988" lon="6.29152">
        <ele>983.4</ele>
        <time>2019-06-23T13:01:24.000Z</time>
      </trkpt>
      <trkpt lat="44.09985" lon="6.29153">
        <ele>983.4</ele>
        <time>2019-06-23T13:01:25.000Z</time>
      </trkpt>
      <trkpt lat="44.09982" lon="6.29155">
        <ele>983.4</ele>
        <time>2019-06-23T13:01:26.000Z</time>
      </trkpt>
      <trkpt lat="44.0998" lon="6.29159">
        <ele>983.2</ele>
        <time>2019-06-23T13:01:27.000Z</time>
      </trkpt>
      <trkpt lat="44.09976" lon="6.29168">
        <ele>982.2</ele>
        <time>2019-06-23T13:01:29.000Z</time>
      </trkpt>
      <trkpt lat="44.09973" lon="6.29171">
        <ele>981.8</ele>
        <time>2019-06-23T13:01:30.000Z</time>
      </trkpt>
      <trkpt lat="44.09968" lon="6.29173">
        <ele>981.4</ele>
        <time>2019-06-23T13:01:31.000Z</time>
      </trkpt>
      <trkpt lat="44.09962" lon="6.29175">
        <ele>981.2</ele>
        <time>2019-06-23T13:01:32.000Z</time>
      </trkpt>
      <trkpt lat="44.09958" lon="6.29179">
        <ele>980.6</ele>
        <time>2019-06-23T13:01:33.000Z</time>
      </trkpt>
      <trkpt lat="44.09954" lon="6.29184">
        <ele>979.6</ele>
        <time>2019-06-23T13:01:34.000Z</time>
      </trkpt>
      <trkpt lat="44.0995" lon="6.29189">
        <ele>978.6</ele>
        <time>2019-06-23T13:01:35.000Z</time>
      </trkpt>
      <trkpt lat="44.09947" lon="6.29195">
        <ele>977.2</ele>
        <time>2019-06-23T13:01:36.000Z</time>
      </trkpt>
      <trkpt lat="44.09946" lon="6.292">
        <ele>975.8</ele>
        <time>2019-06-23T13:01:37.000Z</time>
      </trkpt>
      <trkpt lat="44.09945" lon="6.29203">
        <ele>974.8</ele>
        <time>2019-06-23T13:01:38.000Z</time>
      </trkpt>
      <trkpt lat="44.09942" lon="6.29203">
        <ele>974</ele>
        <time>2019-06-23T13:01:39.000Z</time>
      </trkpt>
      <trkpt lat="44.09938" lon="6.29203">
        <ele>973</ele>
        <time>2019-06-23T13:01:40.000Z</time>
      </trkpt>
      <trkpt lat="44.09934" lon="6.29201">
        <ele>972.4</ele>
        <time>2019-06-23T13:01:41.000Z</time>
      </trkpt>
      <trkpt lat="44.09928" lon="6.29199">
        <ele>972</ele>
        <time>2019-06-23T13:01:42.000Z</time>
      </trkpt>
      <trkpt lat="44.09922" lon="6.29197">
        <ele>971.8</ele>
        <time>2019-06-23T13:01:43.000Z</time>
      </trkpt>
      <trkpt lat="44.09916" lon="6.29195">
        <ele>971.6</ele>
        <time>2019-06-23T13:01:44.000Z</time>
      </trkpt>
      <trkpt lat="44.09909" lon="6.29196">
        <ele>971.2</ele>
        <time>2019-06-23T13:01:45.000Z</time>
      </trkpt>
      <trkpt lat="44.09905" lon="6.29199">
        <ele>970.8</ele>
        <time>2019-06-23T13:01:46.000Z</time>
      </trkpt>
      <trkpt lat="44.09902" lon="6.29208">
        <ele>969</ele>
        <time>2019-06-23T13:01:48.000Z</time>
      </trkpt>
      <trkpt lat="44.099" lon="6.29209">
        <ele>968</ele>
        <time>2019-06-23T13:01:49.000Z</time>
      </trkpt>
      <trkpt lat="44.09896" lon="6.29215">
        <ele>966.6</ele>
        <time>2019-06-23T13:01:51.000Z</time>
      </trkpt>
      <trkpt lat="44.09891" lon="6.29221">
        <ele>965.6</ele>
        <time>2019-06-23T13:01:53.000Z</time>
      </trkpt>
      <trkpt lat="44.09886" lon="6.29222">
        <ele>965</ele>
        <time>2019-06-23T13:01:54.000Z</time>
      </trkpt>
      <trkpt lat="44.09881" lon="6.29219">
        <ele>964.4</ele>
        <time>2019-06-23T13:01:55.000Z</time>
      </trkpt>
      <trkpt lat="44.09875" lon="6.29215">
        <ele>963.8</ele>
        <time>2019-06-23T13:01:56.000Z</time>
      </trkpt>
      <trkpt lat="44.09869" lon="6.29212">
        <ele>963.4</ele>
        <time>2019-06-23T13:01:57.000Z</time>
      </trkpt>
      <trkpt lat="44.09862" lon="6.29199">
        <ele>962.4</ele>
        <time>2019-06-23T13:01:59.000Z</time>
      </trkpt>
      <trkpt lat="44.09859" lon="6.29193">
        <ele>961.8</ele>
        <time>2019-06-23T13:02:00.000Z</time>
      </trkpt>
      <trkpt lat="44.09856" lon="6.29192">
        <ele>960.8</ele>
        <time>2019-06-23T13:02:01.000Z</time>
      </trkpt>
      <trkpt lat="44.0985" lon="6.29192">
        <ele>959.6</ele>
        <time>2019-06-23T13:02:03.000Z</time>
      </trkpt>
      <trkpt lat="44.0984" lon="6.29189">
        <ele>958.2</ele>
        <time>2019-06-23T13:02:05.000Z</time>
      </trkpt>
      <trkpt lat="44.09833" lon="6.29188">
        <ele>957.6</ele>
        <time>2019-06-23T13:02:06.000Z</time>
      </trkpt>
      <trkpt lat="44.09825" lon="6.29188">
        <ele>956.8</ele>
        <time>2019-06-23T13:02:07.000Z</time>
      </trkpt>
      <trkpt lat="44.09819" lon="6.29187">
        <ele>955.8</ele>
        <time>2019-06-23T13:02:08.000Z</time>
      </trkpt>
      <trkpt lat="44.09812" lon="6.29182">
        <ele>954.6</ele>
        <time>2019-06-23T13:02:09.000Z</time>
      </trkpt>
      <trkpt lat="44.09806" lon="6.29178">
        <ele>954</ele>
        <time>2019-06-23T13:02:10.000Z</time>
      </trkpt>
      <trkpt lat="44.098" lon="6.29176">
        <ele>953.4</ele>
        <time>2019-06-23T13:02:11.000Z</time>
      </trkpt>
      <trkpt lat="44.09794" lon="6.29178">
        <ele>953.2</ele>
        <time>2019-06-23T13:02:12.000Z</time>
      </trkpt>
      <trkpt lat="44.0979" lon="6.29183">
        <ele>952.6</ele>
        <time>2019-06-23T13:02:13.000Z</time>
      </trkpt>
      <trkpt lat="44.09785" lon="6.29186">
        <ele>951.8</ele>
        <time>2019-06-23T13:02:14.000Z</time>
      </trkpt>
      <trkpt lat="44.09781" lon="6.29186">
        <ele>950.8</ele>
        <time>2019-06-23T13:02:15.000Z</time>
      </trkpt>
      <trkpt lat="44.09778" lon="6.29182">
        <ele>949.8</ele>
        <time>2019-06-23T13:02:16.000Z</time>
      </trkpt>
      <trkpt lat="44.09774" lon="6.29178">
        <ele>949.2</ele>
        <time>2019-06-23T13:02:17.000Z</time>
      </trkpt>
      <trkpt lat="44.09769" lon="6.29176">
        <ele>948.6</ele>
        <time>2019-06-23T13:02:18.000Z</time>
      </trkpt>
      <trkpt lat="44.09764" lon="6.29172">
        <ele>948.2</ele>
        <time>2019-06-23T13:02:19.000Z</time>
      </trkpt>
      <trkpt lat="44.09753" lon="6.29163">
        <ele>947.2</ele>
        <time>2019-06-23T13:02:21.000Z</time>
      </trkpt>
      <trkpt lat="44.09742" lon="6.29156">
        <ele>946.8</ele>
        <time>2019-06-23T13:02:23.000Z</time>
      </trkpt>
      <trkpt lat="44.09737" lon="6.29155">
        <ele>946.6</ele>
        <time>2019-06-23T13:02:24.000Z</time>
      </trkpt>
      <trkpt lat="44.0973" lon="6.29156">
        <ele>946.6</ele>
        <time>2019-06-23T13:02:25.000Z</time>
      </trkpt>
      <trkpt lat="44.09718" lon="6.29153">
        <ele>946.4</ele>
        <time>2019-06-23T13:02:27.000Z</time>
      </trkpt>
      <trkpt lat="44.09707" lon="6.29145">
        <ele>946.2</ele>
        <time>2019-06-23T13:02:29.000Z</time>
      </trkpt>
      <trkpt lat="44.097" lon="6.29141">
        <ele>945.8</ele>
        <time>2019-06-23T13:02:30.000Z</time>
      </trkpt>
      <trkpt lat="44.09693" lon="6.29138">
        <ele>945.4</ele>
        <time>2019-06-23T13:02:31.000Z</time>
      </trkpt>
      <trkpt lat="44.09686" lon="6.29136">
        <ele>945</ele>
        <time>2019-06-23T13:02:32.000Z</time>
      </trkpt>
      <trkpt lat="44.09673" lon="6.29133">
        <ele>944.4</ele>
        <time>2019-06-23T13:02:34.000Z</time>
      </trkpt>
      <trkpt lat="44.09666" lon="6.29129">
        <ele>943.8</ele>
        <time>2019-06-23T13:02:35.000Z</time>
      </trkpt>
      <trkpt lat="44.0966" lon="6.29126">
        <ele>943.4</ele>
        <time>2019-06-23T13:02:36.000Z</time>
      </trkpt>
      <trkpt lat="44.09655" lon="6.29121">
        <ele>943</ele>
        <time>2019-06-23T13:02:37.000Z</time>
      </trkpt>
      <trkpt lat="44.0965" lon="6.29115">
        <ele>943</ele>
        <time>2019-06-23T13:02:38.000Z</time>
      </trkpt>
      <trkpt lat="44.09647" lon="6.2911">
        <ele>942.8</ele>
        <time>2019-06-23T13:02:39.000Z</time>
      </trkpt>
      <trkpt lat="44.09643" lon="6.29106">
        <ele>942.8</ele>
        <time>2019-06-23T13:02:40.000Z</time>
      </trkpt>
      <trkpt lat="44.0964" lon="6.29102">
        <ele>943</ele>
        <time>2019-06-23T13:02:41.000Z</time>
      </trkpt>
      <trkpt lat="44.09637" lon="6.29097">
        <ele>943</ele>
        <time>2019-06-23T13:02:42.000Z</time>
      </trkpt>
      <trkpt lat="44.09635" lon="6.29086">
        <ele>943.2</ele>
        <time>2019-06-23T13:02:44.000Z</time>
      </trkpt>
      <trkpt lat="44.0963" lon="6.29077">
        <ele>943.6</ele>
        <time>2019-06-23T13:02:46.000Z</time>
      </trkpt>
      <trkpt lat="44.09623" lon="6.29073">
        <ele>944</ele>
        <time>2019-06-23T13:02:48.000Z</time>
      </trkpt>
      <trkpt lat="44.0962" lon="6.29075">
        <ele>944.4</ele>
        <time>2019-06-23T13:02:49.000Z</time>
      </trkpt>
      <trkpt lat="44.09616" lon="6.29075">
        <ele>944.8</ele>
        <time>2019-06-23T13:02:50.000Z</time>
      </trkpt>
      <trkpt lat="44.09611" lon="6.29069">
        <ele>946</ele>
        <time>2019-06-23T13:02:52.000Z</time>
      </trkpt>
      <trkpt lat="44.09608" lon="6.29057">
        <ele>946.8</ele>
        <time>2019-06-23T13:02:55.000Z</time>
      </trkpt>
      <trkpt lat="44.09609" lon="6.29052">
        <ele>946.8</ele>
        <time>2019-06-23T13:02:56.000Z</time>
      </trkpt>
      <trkpt lat="44.09612" lon="6.29037">
        <ele>946</ele>
        <time>2019-06-23T13:02:59.000Z</time>
      </trkpt>
      <trkpt lat="44.09611" lon="6.29033">
        <ele>945.6</ele>
        <time>2019-06-23T13:03:00.000Z</time>
      </trkpt>
      <trkpt lat="44.09611" lon="6.29028">
        <ele>945</ele>
        <time>2019-06-23T13:03:01.000Z</time>
      </trkpt>
      <trkpt lat="44.09613" lon="6.29024">
        <ele>943.8</ele>
        <time>2019-06-23T13:03:02.000Z</time>
      </trkpt>
      <trkpt lat="44.09613" lon="6.29019">
        <ele>942.4</ele>
        <time>2019-06-23T13:03:03.000Z</time>
      </trkpt>
      <trkpt lat="44.09613" lon="6.29012">
        <ele>941.4</ele>
        <time>2019-06-23T13:03:04.000Z</time>
      </trkpt>
      <trkpt lat="44.0961" lon="6.28996">
        <ele>939.6</ele>
        <time>2019-06-23T13:03:06.000Z</time>
      </trkpt>
      <trkpt lat="44.09607" lon="6.28989">
        <ele>938.4</ele>
        <time>2019-06-23T13:03:07.000Z</time>
      </trkpt>
      <trkpt lat="44.09603" lon="6.28983">
        <ele>937.2</ele>
        <time>2019-06-23T13:03:08.000Z</time>
      </trkpt>
      <trkpt lat="44.09601" lon="6.28977">
        <ele>935.8</ele>
        <time>2019-06-23T13:03:09.000Z</time>
      </trkpt>
      <trkpt lat="44.096" lon="6.28971">
        <ele>934.6</ele>
        <time>2019-06-23T13:03:10.000Z</time>
      </trkpt>
      <trkpt lat="44.09598" lon="6.28965">
        <ele>933.2</ele>
        <time>2019-06-23T13:03:11.000Z</time>
      </trkpt>
      <trkpt lat="44.09594" lon="6.28961">
        <ele>931.8</ele>
        <time>2019-06-23T13:03:12.000Z</time>
      </trkpt>
      <trkpt lat="44.0959" lon="6.28957">
        <ele>930.8</ele>
        <time>2019-06-23T13:03:13.000Z</time>
      </trkpt>
      <trkpt lat="44.09587" lon="6.28954">
        <ele>930</ele>
        <time>2019-06-23T13:03:14.000Z</time>
      </trkpt>
      <trkpt lat="44.09584" lon="6.28949">
        <ele>929.4</ele>
        <time>2019-06-23T13:03:15.000Z</time>
      </trkpt>
      <trkpt lat="44.09582" lon="6.28942">
        <ele>928.4</ele>
        <time>2019-06-23T13:03:16.000Z</time>
      </trkpt>
      <trkpt lat="44.09581" lon="6.28935">
        <ele>927.2</ele>
        <time>2019-06-23T13:03:17.000Z</time>
      </trkpt>
      <trkpt lat="44.09579" lon="6.28927">
        <ele>926.2</ele>
        <time>2019-06-23T13:03:18.000Z</time>
      </trkpt>
      <trkpt lat="44.09576" lon="6.28919">
        <ele>925.4</ele>
        <time>2019-06-23T13:03:19.000Z</time>
      </trkpt>
      <trkpt lat="44.09574" lon="6.28912">
        <ele>924.8</ele>
        <time>2019-06-23T13:03:20.000Z</time>
      </trkpt>
      <trkpt lat="44.09572" lon="6.28905">
        <ele>924</ele>
        <time>2019-06-23T13:03:21.000Z</time>
      </trkpt>
      <trkpt lat="44.09571" lon="6.28898">
        <ele>922.8</ele>
        <time>2019-06-23T13:03:22.000Z</time>
      </trkpt>
      <trkpt lat="44.09568" lon="6.28885">
        <ele>921</ele>
        <time>2019-06-23T13:03:24.000Z</time>
      </trkpt>
      <trkpt lat="44.09565" lon="6.2888">
        <ele>920</ele>
        <time>2019-06-23T13:03:25.000Z</time>
      </trkpt>
      <trkpt lat="44.09558" lon="6.28872">
        <ele>918.6</ele>
        <time>2019-06-23T13:03:27.000Z</time>
      </trkpt>
      <trkpt lat="44.09556" lon="6.28857">
        <ele>917.4</ele>
        <time>2019-06-23T13:03:30.000Z</time>
      </trkpt>
      <trkpt lat="44.0955" lon="6.28846">
        <ele>916.2</ele>
        <time>2019-06-23T13:03:32.000Z</time>
      </trkpt>
      <trkpt lat="44.09548" lon="6.28839">
        <ele>915.8</ele>
        <time>2019-06-23T13:03:33.000Z</time>
      </trkpt>
      <trkpt lat="44.09545" lon="6.28832">
        <ele>915</ele>
        <time>2019-06-23T13:03:34.000Z</time>
      </trkpt>
      <trkpt lat="44.09543" lon="6.28821">
        <ele>913</ele>
        <time>2019-06-23T13:03:36.000Z</time>
      </trkpt>
      <trkpt lat="44.09542" lon="6.28815">
        <ele>911.8</ele>
        <time>2019-06-23T13:03:37.000Z</time>
      </trkpt>
      <trkpt lat="44.09539" lon="6.28809">
        <ele>910.6</ele>
        <time>2019-06-23T13:03:38.000Z</time>
      </trkpt>
      <trkpt lat="44.09535" lon="6.28796">
        <ele>908.8</ele>
        <time>2019-06-23T13:03:40.000Z</time>
      </trkpt>
      <trkpt lat="44.09532" lon="6.28789">
        <ele>908</ele>
        <time>2019-06-23T13:03:41.000Z</time>
      </trkpt>
      <trkpt lat="44.09532" lon="6.28782">
        <ele>907</ele>
        <time>2019-06-23T13:03:42.000Z</time>
      </trkpt>
      <trkpt lat="44.09531" lon="6.28774">
        <ele>905.6</ele>
        <time>2019-06-23T13:03:43.000Z</time>
      </trkpt>
      <trkpt lat="44.09529" lon="6.28768">
        <ele>904.4</ele>
        <time>2019-06-23T13:03:44.000Z</time>
      </trkpt>
      <trkpt lat="44.09525" lon="6.28764">
        <ele>903.2</ele>
        <time>2019-06-23T13:03:45.000Z</time>
      </trkpt>
      <trkpt lat="44.09521" lon="6.2876">
        <ele>902.2</ele>
        <time>2019-06-23T13:03:46.000Z</time>
      </trkpt>
      <trkpt lat="44.09518" lon="6.28755">
        <ele>901.2</ele>
        <time>2019-06-23T13:03:47.000Z</time>
      </trkpt>
      <trkpt lat="44.09516" lon="6.2875">
        <ele>900.4</ele>
        <time>2019-06-23T13:03:48.000Z</time>
      </trkpt>
      <trkpt lat="44.09516" lon="6.28746">
        <ele>900</ele>
        <time>2019-06-23T13:03:49.000Z</time>
      </trkpt>
      <trkpt lat="44.09517" lon="6.28743">
        <ele>899.2</ele>
        <time>2019-06-23T13:03:50.000Z</time>
      </trkpt>
      <trkpt lat="44.09518" lon="6.28735">
        <ele>898</ele>
        <time>2019-06-23T13:03:52.000Z</time>
      </trkpt>
      <trkpt lat="44.09517" lon="6.28732">
        <ele>897</ele>
        <time>2019-06-23T13:03:53.000Z</time>
      </trkpt>
      <trkpt lat="44.09514" lon="6.28728">
        <ele>896</ele>
        <time>2019-06-23T13:03:54.000Z</time>
      </trkpt>
      <trkpt lat="44.09511" lon="6.28726">
        <ele>894.8</ele>
        <time>2019-06-23T13:03:55.000Z</time>
      </trkpt>
      <trkpt lat="44.09506" lon="6.28727">
        <ele>893.4</ele>
        <time>2019-06-23T13:03:56.000Z</time>
      </trkpt>
      <trkpt lat="44.09503" lon="6.28728">
        <ele>892</ele>
        <time>2019-06-23T13:03:57.000Z</time>
      </trkpt>
      <trkpt lat="44.09501" lon="6.28729">
        <ele>890.6</ele>
        <time>2019-06-23T13:03:58.000Z</time>
      </trkpt>
      <trkpt lat="44.09499" lon="6.28727">
        <ele>889.6</ele>
        <time>2019-06-23T13:03:59.000Z</time>
      </trkpt>
      <trkpt lat="44.095" lon="6.28719">
        <ele>888.2</ele>
        <time>2019-06-23T13:04:01.000Z</time>
      </trkpt>
      <trkpt lat="44.09503" lon="6.28714">
        <ele>887.4</ele>
        <time>2019-06-23T13:04:02.000Z</time>
      </trkpt>
      <trkpt lat="44.09507" lon="6.2871">
        <ele>886.8</ele>
        <time>2019-06-23T13:04:03.000Z</time>
      </trkpt>
      <trkpt lat="44.0951" lon="6.28706">
        <ele>886.2</ele>
        <time>2019-06-23T13:04:04.000Z</time>
      </trkpt>
      <trkpt lat="44.09513" lon="6.28702">
        <ele>885.6</ele>
        <time>2019-06-23T13:04:05.000Z</time>
      </trkpt>
      <trkpt lat="44.09515" lon="6.28698">
        <ele>885.2</ele>
        <time>2019-06-23T13:04:06.000Z</time>
      </trkpt>
      <trkpt lat="44.09516" lon="6.28692">
        <ele>883.6</ele>
        <time>2019-06-23T13:04:08.000Z</time>
      </trkpt>
      <trkpt lat="44.09517" lon="6.28689">
        <ele>882</ele>
        <time>2019-06-23T13:04:09.000Z</time>
      </trkpt>
      <trkpt lat="44.09519" lon="6.28687">
        <ele>880.4</ele>
        <time>2019-06-23T13:04:10.000Z</time>
      </trkpt>
      <trkpt lat="44.09523" lon="6.28687">
        <ele>879</ele>
        <time>2019-06-23T13:04:11.000Z</time>
      </trkpt>
      <trkpt lat="44.09525" lon="6.28685">
        <ele>878</ele>
        <time>2019-06-23T13:04:12.000Z</time>
      </trkpt>
      <trkpt lat="44.09526" lon="6.28682">
        <ele>877.2</ele>
        <time>2019-06-23T13:04:13.000Z</time>
      </trkpt>
      <trkpt lat="44.09523" lon="6.28674">
        <ele>875.8</ele>
        <time>2019-06-23T13:04:15.000Z</time>
      </trkpt>
      <trkpt lat="44.09522" lon="6.2867">
        <ele>875.2</ele>
        <time>2019-06-23T13:04:16.000Z</time>
      </trkpt>
      <trkpt lat="44.09522" lon="6.28665">
        <ele>874</ele>
        <time>2019-06-23T13:04:17.000Z</time>
      </trkpt>
      <trkpt lat="44.09523" lon="6.28661">
        <ele>872.8</ele>
        <time>2019-06-23T13:04:18.000Z</time>
      </trkpt>
      <trkpt lat="44.09525" lon="6.28657">
        <ele>871.6</ele>
        <time>2019-06-23T13:04:19.000Z</time>
      </trkpt>
      <trkpt lat="44.09525" lon="6.28651">
        <ele>870.6</ele>
        <time>2019-06-23T13:04:20.000Z</time>
      </trkpt>
      <trkpt lat="44.09525" lon="6.28646">
        <ele>869.8</ele>
        <time>2019-06-23T13:04:21.000Z</time>
      </trkpt>
      <trkpt lat="44.09525" lon="6.28642">
        <ele>868.8</ele>
        <time>2019-06-23T13:04:22.000Z</time>
      </trkpt>
      <trkpt lat="44.09527" lon="6.2864">
        <ele>867.6</ele>
        <time>2019-06-23T13:04:23.000Z</time>
      </trkpt>
      <trkpt lat="44.09528" lon="6.28637">
        <ele>865.8</ele>
        <time>2019-06-23T13:04:24.000Z</time>
      </trkpt>
      <trkpt lat="44.09528" lon="6.28634">
        <ele>864</ele>
        <time>2019-06-23T13:04:25.000Z</time>
      </trkpt>
      <trkpt lat="44.09526" lon="6.28628">
        <ele>862.4</ele>
        <time>2019-06-23T13:04:26.000Z</time>
      </trkpt>
      <trkpt lat="44.09523" lon="6.28623">
        <ele>861.2</ele>
        <time>2019-06-23T13:04:27.000Z</time>
      </trkpt>
      <trkpt lat="44.09521" lon="6.2862">
        <ele>860.2</ele>
        <time>2019-06-23T13:04:28.000Z</time>
      </trkpt>
      <trkpt lat="44.09522" lon="6.28616">
        <ele>858.6</ele>
        <time>2019-06-23T13:04:30.000Z</time>
      </trkpt>
      <trkpt lat="44.09523" lon="6.28616">
        <ele>857.4</ele>
        <time>2019-06-23T13:04:31.000Z</time>
      </trkpt>
      <trkpt lat="44.09526" lon="6.28616">
        <ele>856.2</ele>
        <time>2019-06-23T13:04:32.000Z</time>
      </trkpt>
      <trkpt lat="44.09528" lon="6.28614">
        <ele>855.4</ele>
        <time>2019-06-23T13:04:33.000Z</time>
      </trkpt>
      <trkpt lat="44.09529" lon="6.28611">
        <ele>854.8</ele>
        <time>2019-06-23T13:04:34.000Z</time>
      </trkpt>
      <trkpt lat="44.09528" lon="6.28605">
        <ele>853.4</ele>
        <time>2019-06-23T13:04:36.000Z</time>
      </trkpt>
      <trkpt lat="44.09529" lon="6.28603">
        <ele>852.4</ele>
        <time>2019-06-23T13:04:37.000Z</time>
      </trkpt>
      <trkpt lat="44.09531" lon="6.28602">
        <ele>851.2</ele>
        <time>2019-06-23T13:04:38.000Z</time>
      </trkpt>
      <trkpt lat="44.09534" lon="6.286">
        <ele>850.2</ele>
        <time>2019-06-23T13:04:39.000Z</time>
      </trkpt>
      <trkpt lat="44.09538" lon="6.28597">
        <ele>848.6</ele>
        <time>2019-06-23T13:04:41.000Z</time>
      </trkpt>
      <trkpt lat="44.09541" lon="6.28599">
        <ele>847.8</ele>
        <time>2019-06-23T13:04:42.000Z</time>
      </trkpt>
      <trkpt lat="44.09546" lon="6.28602">
        <ele>846.8</ele>
        <time>2019-06-23T13:04:43.000Z</time>
      </trkpt>
      <trkpt lat="44.09549" lon="6.28604">
        <ele>846</ele>
        <time>2019-06-23T13:04:44.000Z</time>
      </trkpt>
      <trkpt lat="44.09552" lon="6.28604">
        <ele>845.4</ele>
        <time>2019-06-23T13:04:45.000Z</time>
      </trkpt>
      <trkpt lat="44.09552" lon="6.28601">
        <ele>844.6</ele>
        <time>2019-06-23T13:04:46.000Z</time>
      </trkpt>
      <trkpt lat="44.09551" lon="6.28596">
        <ele>843.4</ele>
        <time>2019-06-23T13:04:47.000Z</time>
      </trkpt>
      <trkpt lat="44.09551" lon="6.28591">
        <ele>842.4</ele>
        <time>2019-06-23T13:04:48.000Z</time>
      </trkpt>
      <trkpt lat="44.09551" lon="6.28588">
        <ele>841.4</ele>
        <time>2019-06-23T13:04:49.000Z</time>
      </trkpt>
      <trkpt lat="44.09553" lon="6.28588">
        <ele>840.6</ele>
        <time>2019-06-23T13:04:50.000Z</time>
      </trkpt>
      <trkpt lat="44.09556" lon="6.28589">
        <ele>839.4</ele>
        <time>2019-06-23T13:04:51.000Z</time>
      </trkpt>
      <trkpt lat="44.09559" lon="6.28589">
        <ele>838.4</ele>
        <time>2019-06-23T13:04:52.000Z</time>
      </trkpt>
      <trkpt lat="44.09561" lon="6.28587">
        <ele>837.2</ele>
        <time>2019-06-23T13:04:53.000Z</time>
      </trkpt>
      <trkpt lat="44.09562" lon="6.28582">
        <ele>836</ele>
        <time>2019-06-23T13:04:54.000Z</time>
      </trkpt>
      <trkpt lat="44.0956" lon="6.28578">
        <ele>835.2</ele>
        <time>2019-06-23T13:04:55.000Z</time>
      </trkpt>
      <trkpt lat="44.09558" lon="6.28573">
        <ele>834.2</ele>
        <time>2019-06-23T13:04:56.000Z</time>
      </trkpt>
      <trkpt lat="44.09555" lon="6.28568">
        <ele>832.8</ele>
        <time>2019-06-23T13:04:57.000Z</time>
      </trkpt>
      <trkpt lat="44.09551" lon="6.28563">
        <ele>832</ele>
        <time>2019-06-23T13:04:58.000Z</time>
      </trkpt>
      <trkpt lat="44.09548" lon="6.28559">
        <ele>831.4</ele>
        <time>2019-06-23T13:04:59.000Z</time>
      </trkpt>
      <trkpt lat="44.09548" lon="6.28555">
        <ele>831</ele>
        <time>2019-06-23T13:05:00.000Z</time>
      </trkpt>
      <trkpt lat="44.09551" lon="6.28556">
        <ele>830</ele>
        <time>2019-06-23T13:05:02.000Z</time>
      </trkpt>
      <trkpt lat="44.09553" lon="6.28558">
        <ele>829.2</ele>
        <time>2019-06-23T13:05:03.000Z</time>
      </trkpt>
      <trkpt lat="44.09557" lon="6.28562">
        <ele>828.4</ele>
        <time>2019-06-23T13:05:04.000Z</time>
      </trkpt>
      <trkpt lat="44.09566" lon="6.28567">
        <ele>827</ele>
        <time>2019-06-23T13:05:07.000Z</time>
      </trkpt>
      <trkpt lat="44.09563" lon="6.2856">
        <ele>825.4</ele>
        <time>2019-06-23T13:05:09.000Z</time>
      </trkpt>
      <trkpt lat="44.09557" lon="6.28547">
        <ele>824</ele>
        <time>2019-06-23T13:05:11.000Z</time>
      </trkpt>
      <trkpt lat="44.09553" lon="6.28541">
        <ele>823.4</ele>
        <time>2019-06-23T13:05:12.000Z</time>
      </trkpt>
      <trkpt lat="44.09549" lon="6.28536">
        <ele>823</ele>
        <time>2019-06-23T13:05:13.000Z</time>
      </trkpt>
      <trkpt lat="44.09547" lon="6.28532">
        <ele>822.4</ele>
        <time>2019-06-23T13:05:14.000Z</time>
      </trkpt>
      <trkpt lat="44.09545" lon="6.28528">
        <ele>821.6</ele>
        <time>2019-06-23T13:05:15.000Z</time>
      </trkpt>
      <trkpt lat="44.09546" lon="6.28524">
        <ele>820.8</ele>
        <time>2019-06-23T13:05:16.000Z</time>
      </trkpt>
      <trkpt lat="44.09549" lon="6.28521">
        <ele>820</ele>
        <time>2019-06-23T13:05:17.000Z</time>
      </trkpt>
      <trkpt lat="44.09557" lon="6.28523">
        <ele>818.2</ele>
        <time>2019-06-23T13:05:19.000Z</time>
      </trkpt>
      <trkpt lat="44.09562" lon="6.28527">
        <ele>816.8</ele>
        <time>2019-06-23T13:05:20.000Z</time>
      </trkpt>
      <trkpt lat="44.09567" lon="6.28532">
        <ele>815.8</ele>
        <time>2019-06-23T13:05:21.000Z</time>
      </trkpt>
      <trkpt lat="44.09576" lon="6.28544">
        <ele>814.6</ele>
        <time>2019-06-23T13:05:23.000Z</time>
      </trkpt>
      <trkpt lat="44.09579" lon="6.28545">
        <ele>813.8</ele>
        <time>2019-06-23T13:05:25.000Z</time>
      </trkpt>
      <trkpt lat="44.09577" lon="6.28535">
        <ele>813.4</ele>
        <time>2019-06-23T13:05:27.000Z</time>
      </trkpt>
      <trkpt lat="44.09574" lon="6.28527">
        <ele>812.8</ele>
        <time>2019-06-23T13:05:28.000Z</time>
      </trkpt>
      <trkpt lat="44.0957" lon="6.28521">
        <ele>812.2</ele>
        <time>2019-06-23T13:05:29.000Z</time>
      </trkpt>
      <trkpt lat="44.09565" lon="6.28512">
        <ele>810.6</ele>
        <time>2019-06-23T13:05:31.000Z</time>
      </trkpt>
      <trkpt lat="44.09569" lon="6.28512">
        <ele>808.6</ele>
        <time>2019-06-23T13:05:33.000Z</time>
      </trkpt>
      <trkpt lat="44.09578" lon="6.28519">
        <ele>807.2</ele>
        <time>2019-06-23T13:05:35.000Z</time>
      </trkpt>
      <trkpt lat="44.09583" lon="6.28523">
        <ele>806.4</ele>
        <time>2019-06-23T13:05:36.000Z</time>
      </trkpt>
      <trkpt lat="44.09587" lon="6.28526">
        <ele>806</ele>
        <time>2019-06-23T13:05:37.000Z</time>
      </trkpt>
      <trkpt lat="44.09591" lon="6.2853">
        <ele>805.6</ele>
        <time>2019-06-23T13:05:38.000Z</time>
      </trkpt>
      <trkpt lat="44.09598" lon="6.28538">
        <ele>804.4</ele>
        <time>2019-06-23T13:05:40.000Z</time>
      </trkpt>
      <trkpt lat="44.09599" lon="6.28533">
        <ele>802.8</ele>
        <time>2019-06-23T13:05:42.000Z</time>
      </trkpt>
      <trkpt lat="44.09598" lon="6.28527">
        <ele>802.2</ele>
        <time>2019-06-23T13:05:43.000Z</time>
      </trkpt>
      <trkpt lat="44.09597" lon="6.2852">
        <ele>801.6</ele>
        <time>2019-06-23T13:05:44.000Z</time>
      </trkpt>
      <trkpt lat="44.09597" lon="6.28513">
        <ele>801</ele>
        <time>2019-06-23T13:05:45.000Z</time>
      </trkpt>
      <trkpt lat="44.09598" lon="6.28507">
        <ele>800.2</ele>
        <time>2019-06-23T13:05:46.000Z</time>
      </trkpt>
      <trkpt lat="44.09599" lon="6.28503">
        <ele>799.4</ele>
        <time>2019-06-23T13:05:47.000Z</time>
      </trkpt>
      <trkpt lat="44.09599" lon="6.28499">
        <ele>798.4</ele>
        <time>2019-06-23T13:05:48.000Z</time>
      </trkpt>
      <trkpt lat="44.09601" lon="6.28497">
        <ele>797.6</ele>
        <time>2019-06-23T13:05:49.000Z</time>
      </trkpt>
      <trkpt lat="44.09602" lon="6.28496">
        <ele>796.4</ele>
        <time>2019-06-23T13:05:50.000Z</time>
      </trkpt>
      <trkpt lat="44.09603" lon="6.28496">
        <ele>795.2</ele>
        <time>2019-06-23T13:05:51.000Z</time>
      </trkpt>
      <trkpt lat="44.09605" lon="6.28498">
        <ele>794</ele>
        <time>2019-06-23T13:05:52.000Z</time>
      </trkpt>
      <trkpt lat="44.09607" lon="6.28501">
        <ele>792.8</ele>
        <time>2019-06-23T13:05:53.000Z</time>
      </trkpt>
      <trkpt lat="44.09613" lon="6.28507">
        <ele>791.6</ele>
        <time>2019-06-23T13:05:55.000Z</time>
      </trkpt>
      <trkpt lat="44.09617" lon="6.28507">
        <ele>791.2</ele>
        <time>2019-06-23T13:05:56.000Z</time>
      </trkpt>
      <trkpt lat="44.09624" lon="6.28498">
        <ele>790.6</ele>
        <time>2019-06-23T13:05:58.000Z</time>
      </trkpt>
      <trkpt lat="44.09626" lon="6.28491">
        <ele>790</ele>
        <time>2019-06-23T13:05:59.000Z</time>
      </trkpt>
      <trkpt lat="44.09628" lon="6.28485">
        <ele>789.4</ele>
        <time>2019-06-23T13:06:00.000Z</time>
      </trkpt>
      <trkpt lat="44.0963" lon="6.28474">
        <ele>787.8</ele>
        <time>2019-06-23T13:06:02.000Z</time>
      </trkpt>
      <trkpt lat="44.0963" lon="6.2847">
        <ele>786.8</ele>
        <time>2019-06-23T13:06:03.000Z</time>
      </trkpt>
      <trkpt lat="44.09632" lon="6.2847">
        <ele>785.6</ele>
        <time>2019-06-23T13:06:04.000Z</time>
      </trkpt>
      <trkpt lat="44.09634" lon="6.28472">
        <ele>784.4</ele>
        <time>2019-06-23T13:06:05.000Z</time>
      </trkpt>
      <trkpt lat="44.09637" lon="6.28476">
        <ele>783.6</ele>
        <time>2019-06-23T13:06:06.000Z</time>
      </trkpt>
      <trkpt lat="44.09639" lon="6.28481">
        <ele>782.8</ele>
        <time>2019-06-23T13:06:07.000Z</time>
      </trkpt>
      <trkpt lat="44.09642" lon="6.28486">
        <ele>782</ele>
        <time>2019-06-23T13:06:08.000Z</time>
      </trkpt>
      <trkpt lat="44.09645" lon="6.28492">
        <ele>781</ele>
        <time>2019-06-23T13:06:09.000Z</time>
      </trkpt>
      <trkpt lat="44.09648" lon="6.28493">
        <ele>780</ele>
        <time>2019-06-23T13:06:10.000Z</time>
      </trkpt>
      <trkpt lat="44.09649" lon="6.2849">
        <ele>778.8</ele>
        <time>2019-06-23T13:06:11.000Z</time>
      </trkpt>
      <trkpt lat="44.0965" lon="6.28486">
        <ele>777</ele>
        <time>2019-06-23T13:06:12.000Z</time>
      </trkpt>
      <trkpt lat="44.09652" lon="6.28482">
        <ele>775.2</ele>
        <time>2019-06-23T13:06:13.000Z</time>
      </trkpt>
      <trkpt lat="44.09653" lon="6.28478">
        <ele>773.8</ele>
        <time>2019-06-23T13:06:14.000Z</time>
      </trkpt>
      <trkpt lat="44.09654" lon="6.28472">
        <ele>772.6</ele>
        <time>2019-06-23T13:06:15.000Z</time>
      </trkpt>
      <trkpt lat="44.09655" lon="6.28468">
        <ele>771.2</ele>
        <time>2019-06-23T13:06:16.000Z</time>
      </trkpt>
      <trkpt lat="44.09657" lon="6.28464">
        <ele>769.6</ele>
        <time>2019-06-23T13:06:17.000Z</time>
      </trkpt>
      <trkpt lat="44.0966" lon="6.28459">
        <ele>768.4</ele>
        <time>2019-06-23T13:06:18.000Z</time>
      </trkpt>
      <trkpt lat="44.0966" lon="6.28453">
        <ele>767.2</ele>
        <time>2019-06-23T13:06:19.000Z</time>
      </trkpt>
      <trkpt lat="44.09658" lon="6.28446">
        <ele>766.4</ele>
        <time>2019-06-23T13:06:20.000Z</time>
      </trkpt>
      <trkpt lat="44.09655" lon="6.2844">
        <ele>765.6</ele>
        <time>2019-06-23T13:06:21.000Z</time>
      </trkpt>
      <trkpt lat="44.09652" lon="6.28436">
        <ele>764.8</ele>
        <time>2019-06-23T13:06:22.000Z</time>
      </trkpt>
      <trkpt lat="44.09649" lon="6.28433">
        <ele>763.8</ele>
        <time>2019-06-23T13:06:23.000Z</time>
      </trkpt>
      <trkpt lat="44.09644" lon="6.2843">
        <ele>762.8</ele>
        <time>2019-06-23T13:06:24.000Z</time>
      </trkpt>
      <trkpt lat="44.0964" lon="6.28426">
        <ele>762</ele>
        <time>2019-06-23T13:06:25.000Z</time>
      </trkpt>
      <trkpt lat="44.09636" lon="6.28421">
        <ele>761.6</ele>
        <time>2019-06-23T13:06:26.000Z</time>
      </trkpt>
      <trkpt lat="44.09635" lon="6.28415">
        <ele>761.2</ele>
        <time>2019-06-23T13:06:27.000Z</time>
      </trkpt>
      <trkpt lat="44.09634" lon="6.2841">
        <ele>760.8</ele>
        <time>2019-06-23T13:06:28.000Z</time>
      </trkpt>
      <trkpt lat="44.09633" lon="6.28405">
        <ele>760.4</ele>
        <time>2019-06-23T13:06:29.000Z</time>
      </trkpt>
      <trkpt lat="44.09631" lon="6.28392">
        <ele>759.4</ele>
        <time>2019-06-23T13:06:31.000Z</time>
      </trkpt>
      <trkpt lat="44.09631" lon="6.28385">
        <ele>758.8</ele>
        <time>2019-06-23T13:06:32.000Z</time>
      </trkpt>
      <trkpt lat="44.09629" lon="6.28378">
        <ele>758.2</ele>
        <time>2019-06-23T13:06:33.000Z</time>
      </trkpt>
      <trkpt lat="44.09626" lon="6.28366">
        <ele>757</ele>
        <time>2019-06-23T13:06:35.000Z</time>
      </trkpt>
      <trkpt lat="44.09625" lon="6.28361">
        <ele>756.4</ele>
        <time>2019-06-23T13:06:36.000Z</time>
      </trkpt>
      <trkpt lat="44.09624" lon="6.28357">
        <ele>755.8</ele>
        <time>2019-06-23T13:06:37.000Z</time>
      </trkpt>
      <trkpt lat="44.09624" lon="6.28353">
        <ele>755.4</ele>
        <time>2019-06-23T13:06:38.000Z</time>
      </trkpt>
      <trkpt lat="44.09624" lon="6.28342">
        <ele>754.8</ele>
        <time>2019-06-23T13:06:40.000Z</time>
      </trkpt>
      <trkpt lat="44.09622" lon="6.28334">
        <ele>754.4</ele>
        <time>2019-06-23T13:06:41.000Z</time>
      </trkpt>
      <trkpt lat="44.09617" lon="6.28315">
        <ele>753.8</ele>
        <time>2019-06-23T13:06:44.000Z</time>
      </trkpt>
      <trkpt lat="44.09618" lon="6.28309">
        <ele>753.6</ele>
        <time>2019-06-23T13:06:45.000Z</time>
      </trkpt>
      <trkpt lat="44.09617" lon="6.28303">
        <ele>753.4</ele>
        <time>2019-06-23T13:06:46.000Z</time>
      </trkpt>
      <trkpt lat="44.09616" lon="6.28299">
        <ele>753</ele>
        <time>2019-06-23T13:06:47.000Z</time>
      </trkpt>
      <trkpt lat="44.09613" lon="6.28286">
        <ele>752.6</ele>
        <time>2019-06-23T13:06:51.000Z</time>
      </trkpt>
      <trkpt lat="44.09606" lon="6.28275">
        <ele>752.6</ele>
        <time>2019-06-23T13:06:54.000Z</time>
      </trkpt>
      <trkpt lat="44.09596" lon="6.28265">
        <ele>752.4</ele>
        <time>2019-06-23T13:06:57.000Z</time>
      </trkpt>
      <trkpt lat="44.09594" lon="6.2826">
        <ele>752.2</ele>
        <time>2019-06-23T13:06:58.000Z</time>
      </trkpt>
      <trkpt lat="44.09593" lon="6.28256">
        <ele>751.6</ele>
        <time>2019-06-23T13:06:59.000Z</time>
      </trkpt>
      <trkpt lat="44.09593" lon="6.28252">
        <ele>750.8</ele>
        <time>2019-06-23T13:07:00.000Z</time>
      </trkpt>
      <trkpt lat="44.09594" lon="6.28248">
        <ele>750.2</ele>
        <time>2019-06-23T13:07:01.000Z</time>
      </trkpt>
      <trkpt lat="44.09593" lon="6.28241">
        <ele>749.6</ele>
        <time>2019-06-23T13:07:03.000Z</time>
      </trkpt>
      <trkpt lat="44.09591" lon="6.28233">
        <ele>749.8</ele>
        <time>2019-06-23T13:07:05.000Z</time>
      </trkpt>
      <trkpt lat="44.09592" lon="6.28213">
        <ele>751.4</ele>
        <time>2019-06-23T13:07:10.000Z</time>
      </trkpt>
      <trkpt lat="44.09597" lon="6.28198">
        <ele>752.6</ele>
        <time>2019-06-23T13:07:15.000Z</time>
      </trkpt>
      <trkpt lat="44.09605" lon="6.28183">
        <ele>753.2</ele>
        <time>2019-06-23T13:07:22.000Z</time>
      </trkpt>
      <trkpt lat="44.09606" lon="6.28178">
        <ele>753.4</ele>
        <time>2019-06-23T13:07:24.000Z</time>
      </trkpt>
      <trkpt lat="44.09608" lon="6.28173">
        <ele>753.6</ele>
        <time>2019-06-23T13:07:26.000Z</time>
      </trkpt>
      <trkpt lat="44.0961" lon="6.28166">
        <ele>754.6</ele>
        <time>2019-06-23T13:07:29.000Z</time>
      </trkpt>
      <trkpt lat="44.09611" lon="6.28163">
        <ele>754.8</ele>
        <time>2019-06-23T13:07:30.000Z</time>
      </trkpt>
      <trkpt lat="44.09616" lon="6.28149">
        <ele>755.2</ele>
        <time>2019-06-23T13:07:36.000Z</time>
      </trkpt>
      <trkpt lat="44.09622" lon="6.2814">
        <ele>755.8</ele>
        <time>2019-06-23T13:07:40.000Z</time>
      </trkpt>
      <trkpt lat="44.09623" lon="6.28138">
        <ele>756</ele>
        <time>2019-06-23T13:07:41.000Z</time>
      </trkpt>
      <trkpt lat="44.09626" lon="6.28134">
        <ele>756</ele>
        <time>2019-06-23T13:07:43.000Z</time>
      </trkpt>
      <trkpt lat="44.09628" lon="6.2813">
        <ele>756.2</ele>
        <time>2019-06-23T13:07:45.000Z</time>
      </trkpt>
      <trkpt lat="44.09632" lon="6.2812">
        <ele>757</ele>
        <time>2019-06-23T13:07:49.000Z</time>
      </trkpt>
      <trkpt lat="44.0963" lon="6.28105">
        <ele>758.2</ele>
        <time>2019-06-23T13:07:55.000Z</time>
      </trkpt>
      <trkpt lat="44.09634" lon="6.28092">
        <ele>759.4</ele>
        <time>2019-06-23T13:08:02.000Z</time>
      </trkpt>
      <trkpt lat="44.09636" lon="6.28092">
        <ele>759.6</ele>
        <time>2019-06-23T13:08:03.000Z</time>
      </trkpt>
      <trkpt lat="44.09639" lon="6.28092">
        <ele>760.6</ele>
        <time>2019-06-23T13:08:05.000Z</time>
      </trkpt>
      <trkpt lat="44.0964" lon="6.28093">
        <ele>761</ele>
        <time>2019-06-23T13:08:06.000Z</time>
      </trkpt>
      <trkpt lat="44.09645" lon="6.28095">
        <ele>761.8</ele>
        <time>2019-06-23T13:08:09.000Z</time>
      </trkpt>
      <trkpt lat="44.09648" lon="6.28097">
        <ele>762.2</ele>
        <time>2019-06-23T13:08:11.000Z</time>
      </trkpt>
      <trkpt lat="44.09649" lon="6.28099">
        <ele>762.2</ele>
        <time>2019-06-23T13:08:12.000Z</time>
      </trkpt>
      <trkpt lat="44.09649" lon="6.28102">
        <ele>762.4</ele>
        <time>2019-06-23T13:08:13.000Z</time>
      </trkpt>
      <trkpt lat="44.0965" lon="6.28106">
        <ele>762.6</ele>
        <time>2019-06-23T13:08:15.000Z</time>
      </trkpt>
      <trkpt lat="44.09652" lon="6.28111">
        <ele>763</ele>
        <time>2019-06-23T13:08:18.000Z</time>
      </trkpt>
      <trkpt lat="44.09653" lon="6.28113">
        <ele>763</ele>
        <time>2019-06-23T13:08:19.000Z</time>
      </trkpt>
      <trkpt lat="44.09658" lon="6.28117">
        <ele>763.4</ele>
        <time>2019-06-23T13:08:23.000Z</time>
      </trkpt>
      <trkpt lat="44.09659" lon="6.28119">
        <ele>763.6</ele>
        <time>2019-06-23T13:08:24.000Z</time>
      </trkpt>
      <trkpt lat="44.0966" lon="6.28121">
        <ele>763.6</ele>
        <time>2019-06-23T13:08:25.000Z</time>
      </trkpt>
      <trkpt lat="44.0966" lon="6.28124">
        <ele>764.2</ele>
        <time>2019-06-23T13:08:27.000Z</time>
      </trkpt>
      <trkpt lat="44.09661" lon="6.28132">
        <ele>765.4</ele>
        <time>2019-06-23T13:08:31.000Z</time>
      </trkpt>
      <trkpt lat="44.09662" lon="6.28135">
        <ele>765.8</ele>
        <time>2019-06-23T13:08:33.000Z</time>
      </trkpt>
      <trkpt lat="44.09662" lon="6.28137">
        <ele>765.8</ele>
        <time>2019-06-23T13:08:34.000Z</time>
      </trkpt>
      <trkpt lat="44.09663" lon="6.28144">
        <ele>766.4</ele>
        <time>2019-06-23T13:08:37.000Z</time>
      </trkpt>
      <trkpt lat="44.09659" lon="6.28156">
        <ele>767</ele>
        <time>2019-06-23T13:08:42.000Z</time>
      </trkpt>
      <trkpt lat="44.09657" lon="6.28159">
        <ele>767</ele>
        <time>2019-06-23T13:08:44.000Z</time>
      </trkpt>
      <trkpt lat="44.09653" lon="6.28162">
        <ele>767.4</ele>
        <time>2019-06-23T13:08:47.000Z</time>
      </trkpt>
      <trkpt lat="44.09651" lon="6.28164">
        <ele>768</ele>
        <time>2019-06-23T13:08:49.000Z</time>
      </trkpt>
      <trkpt lat="44.09649" lon="6.28168">
        <ele>768.4</ele>
        <time>2019-06-23T13:08:52.000Z</time>
      </trkpt>
      <trkpt lat="44.09645" lon="6.28174">
        <ele>769</ele>
        <time>2019-06-23T13:08:56.000Z</time>
      </trkpt>
      <trkpt lat="44.09644" lon="6.28175">
        <ele>769.2</ele>
        <time>2019-06-23T13:08:57.000Z</time>
      </trkpt>
      <trkpt lat="44.09642" lon="6.28177">
        <ele>769.6</ele>
        <time>2019-06-23T13:08:59.000Z</time>
      </trkpt>
      <trkpt lat="44.09641" lon="6.28179">
        <ele>769.6</ele>
        <time>2019-06-23T13:09:00.000Z</time>
      </trkpt>
      <trkpt lat="44.09641" lon="6.28185">
        <ele>769.8</ele>
        <time>2019-06-23T13:09:03.000Z</time>
      </trkpt>
      <trkpt lat="44.09644" lon="6.28188">
        <ele>769.8</ele>
        <time>2019-06-23T13:09:05.000Z</time>
      </trkpt>
      <trkpt lat="44.09648" lon="6.28188">
        <ele>770.4</ele>
        <time>2019-06-23T13:09:08.000Z</time>
      </trkpt>
      <trkpt lat="44.09649" lon="6.28188">
        <ele>770.6</ele>
        <time>2019-06-23T13:09:09.000Z</time>
      </trkpt>
      <trkpt lat="44.09651" lon="6.28181">
        <ele>771</ele>
        <time>2019-06-23T13:09:12.000Z</time>
      </trkpt>
      <trkpt lat="44.09654" lon="6.28179">
        <ele>771.2</ele>
        <time>2019-06-23T13:09:14.000Z</time>
      </trkpt>
      <trkpt lat="44.09657" lon="6.28182">
        <ele>771.4</ele>
        <time>2019-06-23T13:09:16.000Z</time>
      </trkpt>
      <trkpt lat="44.09662" lon="6.28187">
        <ele>771.6</ele>
        <time>2019-06-23T13:09:19.000Z</time>
      </trkpt>
      <trkpt lat="44.09666" lon="6.28191">
        <ele>772</ele>
        <time>2019-06-23T13:09:21.000Z</time>
      </trkpt>
      <trkpt lat="44.09685" lon="6.28204">
        <ele>771.6</ele>
        <time>2019-06-23T13:09:26.000Z</time>
      </trkpt>
      <trkpt lat="44.09699" lon="6.28209">
        <ele>770.6</ele>
        <time>2019-06-23T13:09:29.000Z</time>
      </trkpt>
      <trkpt lat="44.09709" lon="6.28212">
        <ele>770.4</ele>
        <time>2019-06-23T13:09:31.000Z</time>
      </trkpt>
      <trkpt lat="44.09725" lon="6.28218">
        <ele>770.2</ele>
        <time>2019-06-23T13:09:34.000Z</time>
      </trkpt>
      <trkpt lat="44.09731" lon="6.28219">
        <ele>769.8</ele>
        <time>2019-06-23T13:09:35.000Z</time>
      </trkpt>
      <trkpt lat="44.09736" lon="6.28221">
        <ele>769.4</ele>
        <time>2019-06-23T13:09:36.000Z</time>
      </trkpt>
      <trkpt lat="44.09742" lon="6.28223">
        <ele>769.2</ele>
        <time>2019-06-23T13:09:37.000Z</time>
      </trkpt>
      <trkpt lat="44.09747" lon="6.28226">
        <ele>768.8</ele>
        <time>2019-06-23T13:09:38.000Z</time>
      </trkpt>
      <trkpt lat="44.09749" lon="6.28229">
        <ele>768.4</ele>
        <time>2019-06-23T13:09:39.000Z</time>
      </trkpt>
      <trkpt lat="44.09751" lon="6.28232">
        <ele>768</ele>
        <time>2019-06-23T13:09:40.000Z</time>
      </trkpt>
      <trkpt lat="44.09758" lon="6.28234">
        <ele>767.4</ele>
        <time>2019-06-23T13:09:42.000Z</time>
      </trkpt>
      <trkpt lat="44.09765" lon="6.28235">
        <ele>767.2</ele>
        <time>2019-06-23T13:09:44.000Z</time>
      </trkpt>
      <trkpt lat="44.09783" lon="6.28242">
        <ele>766.8</ele>
        <time>2019-06-23T13:09:49.000Z</time>
      </trkpt>
      <trkpt lat="44.09791" lon="6.28244">
        <ele>766.8</ele>
        <time>2019-06-23T13:09:51.000Z</time>
      </trkpt>
      <trkpt lat="44.09798" lon="6.28247">
        <ele>766.4</ele>
        <time>2019-06-23T13:09:53.000Z</time>
      </trkpt>
      <trkpt lat="44.09807" lon="6.2825">
        <ele>766.2</ele>
        <time>2019-06-23T13:09:55.000Z</time>
      </trkpt>
      <trkpt lat="44.09811" lon="6.2825">
        <ele>766.2</ele>
        <time>2019-06-23T13:09:56.000Z</time>
      </trkpt>
      <trkpt lat="44.09815" lon="6.28251">
        <ele>766</ele>
        <time>2019-06-23T13:09:57.000Z</time>
      </trkpt>
      <trkpt lat="44.09828" lon="6.28256">
        <ele>765.6</ele>
        <time>2019-06-23T13:10:00.000Z</time>
      </trkpt>
      <trkpt lat="44.09831" lon="6.28259">
        <ele>765.4</ele>
        <time>2019-06-23T13:10:01.000Z</time>
      </trkpt>
      <trkpt lat="44.09835" lon="6.28263">
        <ele>765.4</ele>
        <time>2019-06-23T13:10:02.000Z</time>
      </trkpt>
      <trkpt lat="44.09843" lon="6.28265">
        <ele>765.2</ele>
        <time>2019-06-23T13:10:04.000Z</time>
      </trkpt>
      <trkpt lat="44.09846" lon="6.28266">
        <ele>765.2</ele>
        <time>2019-06-23T13:10:05.000Z</time>
      </trkpt>
      <trkpt lat="44.09849" lon="6.28272">
        <ele>765.2</ele>
        <time>2019-06-23T13:10:07.000Z</time>
      </trkpt>
      <trkpt lat="44.09849" lon="6.28275">
        <ele>765.2</ele>
        <time>2019-06-23T13:10:08.000Z</time>
      </trkpt>
      <trkpt lat="44.09852" lon="6.28279">
        <ele>765.6</ele>
        <time>2019-06-23T13:10:11.000Z</time>
      </trkpt>
      <trkpt lat="44.09854" lon="6.28277">
        <ele>765.6</ele>
        <time>2019-06-23T13:10:12.000Z</time>
      </trkpt>
      <trkpt lat="44.09856" lon="6.28272">
        <ele>765.8</ele>
        <time>2019-06-23T13:10:14.000Z</time>
      </trkpt>
      <trkpt lat="44.09861" lon="6.28266">
        <ele>766</ele>
        <time>2019-06-23T13:10:17.000Z</time>
      </trkpt>
      <trkpt lat="44.09863" lon="6.28264">
        <ele>766.2</ele>
        <time>2019-06-23T13:10:18.000Z</time>
      </trkpt>
      <trkpt lat="44.0987" lon="6.28257">
        <ele>767.6</ele>
        <time>2019-06-23T13:10:22.000Z</time>
      </trkpt>
      <trkpt lat="44.09872" lon="6.28257">
        <ele>768</ele>
        <time>2019-06-23T13:10:23.000Z</time>
      </trkpt>
      <trkpt lat="44.09873" lon="6.28258">
        <ele>768.4</ele>
        <time>2019-06-23T13:10:24.000Z</time>
      </trkpt>
      <trkpt lat="44.09874" lon="6.28259">
        <ele>768.6</ele>
        <time>2019-06-23T13:10:25.000Z</time>
      </trkpt>
      <trkpt lat="44.09874" lon="6.2826">
        <ele>769</ele>
        <time>2019-06-23T13:10:26.000Z</time>
      </trkpt>
      <trkpt lat="44.09874" lon="6.28261">
        <ele>769.4</ele>
        <time>2019-06-23T13:10:27.000Z</time>
      </trkpt>
      <trkpt lat="44.09873" lon="6.28261">
        <ele>769.8</ele>
        <time>2019-06-23T13:10:29.000Z</time>
      </trkpt>
      <trkpt lat="44.09873" lon="6.28262">
        <ele>770</ele>
        <time>2019-06-23T13:10:32.000Z</time>
      </trkpt>
      <trkpt lat="44.09873" lon="6.28262">
        <ele>769.8</ele>
        <time>2019-06-23T13:10:42.000Z</time>
      </trkpt>
      <trkpt lat="44.09872" lon="6.28265">
        <ele>770.2</ele>
        <time>2019-06-23T13:10:58.000Z</time>
      </trkpt>
      <trkpt lat="44.09872" lon="6.28272">
        <ele>770.8</ele>
        <time>2019-06-23T13:11:05.000Z</time>
      </trkpt>
      <trkpt lat="44.09873" lon="6.28273">
        <ele>771.4</ele>
        <time>2019-06-23T13:11:07.000Z</time>
      </trkpt>
      <trkpt lat="44.09875" lon="6.28274">
        <ele>772</ele>
        <time>2019-06-23T13:11:10.000Z</time>
      </trkpt>
      <trkpt lat="44.09878" lon="6.28273">
        <ele>773</ele>
        <time>2019-06-23T13:11:15.000Z</time>
      </trkpt>
      <trkpt lat="44.09881" lon="6.28274">
        <ele>773.8</ele>
        <time>2019-06-23T13:11:19.000Z</time>
      </trkpt>
      <trkpt lat="44.09884" lon="6.28275">
        <ele>774</ele>
        <time>2019-06-23T13:11:23.000Z</time>
      </trkpt>
      <trkpt lat="44.09885" lon="6.28275">
        <ele>774.2</ele>
        <time>2019-06-23T13:11:24.000Z</time>
      </trkpt>
      <trkpt lat="44.0989" lon="6.28275">
        <ele>774.2</ele>
        <time>2019-06-23T13:11:30.000Z</time>
      </trkpt>
      <trkpt lat="44.09891" lon="6.28275">
        <ele>774.2</ele>
        <time>2019-06-23T13:11:32.000Z</time>
      </trkpt>
      <trkpt lat="44.09893" lon="6.28274">
        <ele>775.2</ele>
        <time>2019-06-23T13:11:36.000Z</time>
      </trkpt>
      <trkpt lat="44.09895" lon="6.28275">
        <ele>775.6</ele>
        <time>2019-06-23T13:11:41.000Z</time>
      </trkpt>
      <trkpt lat="44.09896" lon="6.28275">
        <ele>776.2</ele>
        <time>2019-06-23T13:11:43.000Z</time>
      </trkpt>
      <trkpt lat="44.09899" lon="6.28276">
        <ele>777.4</ele>
        <time>2019-06-23T13:11:47.000Z</time>
      </trkpt>
      <trkpt lat="44.09901" lon="6.28277">
        <ele>777.6</ele>
        <time>2019-06-23T13:11:49.000Z</time>
      </trkpt>
      <trkpt lat="44.09904" lon="6.28277">
        <ele>778.4</ele>
        <time>2019-06-23T13:11:55.000Z</time>
      </trkpt>
      <trkpt lat="44.09906" lon="6.28278">
        <ele>778.4</ele>
        <time>2019-06-23T13:11:56.000Z</time>
      </trkpt>
      <trkpt lat="44.0991" lon="6.28277">
        <ele>778.4</ele>
        <time>2019-06-23T13:11:58.000Z</time>
      </trkpt>
      <trkpt lat="44.09911" lon="6.28276">
        <ele>777.6</ele>
        <time>2019-06-23T13:12:00.000Z</time>
      </trkpt>
      <trkpt lat="44.09911" lon="6.28276">
        <ele>777.4</ele>
        <time>2019-06-23T13:12:01.000Z</time>
      </trkpt>
      <trkpt lat="44.09911" lon="6.28274">
        <ele>777</ele>
        <time>2019-06-23T13:12:03.000Z</time>
      </trkpt>
      <trkpt lat="44.09909" lon="6.28266">
        <ele>776.8</ele>
        <time>2019-06-23T13:12:09.000Z</time>
      </trkpt>
      <trkpt lat="44.09909" lon="6.28262">
        <ele>776.8</ele>
        <time>2019-06-23T13:12:11.000Z</time>
      </trkpt>
      <trkpt lat="44.09911" lon="6.28259">
        <ele>776.6</ele>
        <time>2019-06-23T13:12:13.000Z</time>
      </trkpt>
      <trkpt lat="44.09918" lon="6.28257">
        <ele>776.6</ele>
        <time>2019-06-23T13:12:17.000Z</time>
      </trkpt>
      <trkpt lat="44.09919" lon="6.28257">
        <ele>776.6</ele>
        <time>2019-06-23T13:12:18.000Z</time>
      </trkpt>
      <trkpt lat="44.09921" lon="6.28258">
        <ele>776.8</ele>
        <time>2019-06-23T13:12:19.000Z</time>
      </trkpt>
      <trkpt lat="44.09925" lon="6.2826">
        <ele>777.4</ele>
        <time>2019-06-23T13:12:22.000Z</time>
      </trkpt>
      <trkpt lat="44.09928" lon="6.28261">
        <ele>777.8</ele>
        <time>2019-06-23T13:12:24.000Z</time>
      </trkpt>
      <trkpt lat="44.09933" lon="6.28265">
        <ele>777.8</ele>
        <time>2019-06-23T13:12:27.000Z</time>
      </trkpt>
      <trkpt lat="44.09934" lon="6.28269">
        <ele>777.8</ele>
        <time>2019-06-23T13:12:28.000Z</time>
      </trkpt>
      <trkpt lat="44.09944" lon="6.2828">
        <ele>777.8</ele>
        <time>2019-06-23T13:12:32.000Z</time>
      </trkpt>
      <trkpt lat="44.09946" lon="6.28281">
        <ele>777.8</ele>
        <time>2019-06-23T13:12:33.000Z</time>
      </trkpt>
      <trkpt lat="44.09948" lon="6.28288">
        <ele>777.6</ele>
        <time>2019-06-23T13:12:36.000Z</time>
      </trkpt>
      <trkpt lat="44.09949" lon="6.28292">
        <ele>777.4</ele>
        <time>2019-06-23T13:12:38.000Z</time>
      </trkpt>
      <trkpt lat="44.0995" lon="6.28293">
        <ele>777</ele>
        <time>2019-06-23T13:12:40.000Z</time>
      </trkpt>
      <trkpt lat="44.09951" lon="6.2829">
        <ele>776.2</ele>
        <time>2019-06-23T13:12:43.000Z</time>
      </trkpt>
      <trkpt lat="44.09953" lon="6.28288">
        <ele>776</ele>
        <time>2019-06-23T13:12:45.000Z</time>
      </trkpt>
      <trkpt lat="44.09955" lon="6.28288">
        <ele>776.4</ele>
        <time>2019-06-23T13:12:47.000Z</time>
      </trkpt>
      <trkpt lat="44.09957" lon="6.28288">
        <ele>776.6</ele>
        <time>2019-06-23T13:12:49.000Z</time>
      </trkpt>
      <trkpt lat="44.09957" lon="6.28286">
        <ele>776.8</ele>
        <time>2019-06-23T13:12:51.000Z</time>
      </trkpt>
      <trkpt lat="44.09957" lon="6.28285">
        <ele>776.8</ele>
        <time>2019-06-23T13:12:52.000Z</time>
      </trkpt>
      <trkpt lat="44.09957" lon="6.2828">
        <ele>777.2</ele>
        <time>2019-06-23T13:12:55.000Z</time>
      </trkpt>
      <trkpt lat="44.09958" lon="6.28278">
        <ele>777.6</ele>
        <time>2019-06-23T13:12:57.000Z</time>
      </trkpt>
      <trkpt lat="44.09958" lon="6.28278">
        <ele>777.8</ele>
        <time>2019-06-23T13:12:58.000Z</time>
      </trkpt>
      <trkpt lat="44.09964" lon="6.28277">
        <ele>777.8</ele>
        <time>2019-06-23T13:13:02.000Z</time>
      </trkpt>
      <trkpt lat="44.09971" lon="6.28277">
        <ele>777.4</ele>
        <time>2019-06-23T13:13:05.000Z</time>
      </trkpt>
      <trkpt lat="44.09972" lon="6.28274">
        <ele>777</ele>
        <time>2019-06-23T13:13:07.000Z</time>
      </trkpt>
      <trkpt lat="44.09972" lon="6.28271">
        <ele>777</ele>
        <time>2019-06-23T13:13:08.000Z</time>
      </trkpt>
      <trkpt lat="44.0997" lon="6.2826">
        <ele>777</ele>
        <time>2019-06-23T13:13:12.000Z</time>
      </trkpt>
      <trkpt lat="44.0997" lon="6.28239">
        <ele>777</ele>
        <time>2019-06-23T13:13:15.000Z</time>
      </trkpt>
      <trkpt lat="44.0997" lon="6.28232">
        <ele>776.8</ele>
        <time>2019-06-23T13:13:16.000Z</time>
      </trkpt>
      <trkpt lat="44.09967" lon="6.2822">
        <ele>776.6</ele>
        <time>2019-06-23T13:13:18.000Z</time>
      </trkpt>
      <trkpt lat="44.09965" lon="6.28213">
        <ele>776</ele>
        <time>2019-06-23T13:13:20.000Z</time>
      </trkpt>
      <trkpt lat="44.09963" lon="6.2821">
        <ele>776</ele>
        <time>2019-06-23T13:13:21.000Z</time>
      </trkpt>
      <trkpt lat="44.09961" lon="6.28203">
        <ele>775.8</ele>
        <time>2019-06-23T13:13:23.000Z</time>
      </trkpt>
      <trkpt lat="44.0996" lon="6.28199">
        <ele>775.4</ele>
        <time>2019-06-23T13:13:24.000Z</time>
      </trkpt>
      <trkpt lat="44.09957" lon="6.28192">
        <ele>775.2</ele>
        <time>2019-06-23T13:13:25.000Z</time>
      </trkpt>
      <trkpt lat="44.09953" lon="6.28184">
        <ele>774.4</ele>
        <time>2019-06-23T13:13:26.000Z</time>
      </trkpt>
      <trkpt lat="44.09949" lon="6.28177">
        <ele>773</ele>
        <time>2019-06-23T13:13:27.000Z</time>
      </trkpt>
      <trkpt lat="44.09946" lon="6.28171">
        <ele>771.2</ele>
        <time>2019-06-23T13:13:28.000Z</time>
      </trkpt>
      <trkpt lat="44.09944" lon="6.28167">
        <ele>769.6</ele>
        <time>2019-06-23T13:13:29.000Z</time>
      </trkpt>
      <trkpt lat="44.09944" lon="6.28165">
        <ele>768.4</ele>
        <time>2019-06-23T13:13:30.000Z</time>
      </trkpt>
      <trkpt lat="44.09945" lon="6.28164">
        <ele>767</ele>
        <time>2019-06-23T13:13:31.000Z</time>
      </trkpt>
      <trkpt lat="44.09948" lon="6.28164">
        <ele>765.4</ele>
        <time>2019-06-23T13:13:33.000Z</time>
      </trkpt>
      <trkpt lat="44.09951" lon="6.28164">
        <ele>764.2</ele>
        <time>2019-06-23T13:13:35.000Z</time>
      </trkpt>
      <trkpt lat="44.09952" lon="6.28165">
        <ele>763.6</ele>
        <time>2019-06-23T13:13:36.000Z</time>
      </trkpt>
      <trkpt lat="44.09955" lon="6.28166">
        <ele>763</ele>
        <time>2019-06-23T13:13:37.000Z</time>
      </trkpt>
      <trkpt lat="44.09966" lon="6.28171">
        <ele>761.8</ele>
        <time>2019-06-23T13:13:40.000Z</time>
      </trkpt>
      <trkpt lat="44.09974" lon="6.28173">
        <ele>760.8</ele>
        <time>2019-06-23T13:13:42.000Z</time>
      </trkpt>
      <trkpt lat="44.09978" lon="6.28173">
        <ele>760.4</ele>
        <time>2019-06-23T13:13:43.000Z</time>
      </trkpt>
      <trkpt lat="44.0998" lon="6.28172">
        <ele>760</ele>
        <time>2019-06-23T13:13:44.000Z</time>
      </trkpt>
      <trkpt lat="44.09983" lon="6.28166">
        <ele>759.2</ele>
        <time>2019-06-23T13:13:46.000Z</time>
      </trkpt>
      <trkpt lat="44.09985" lon="6.28161">
        <ele>759</ele>
        <time>2019-06-23T13:13:48.000Z</time>
      </trkpt>
      <trkpt lat="44.09985" lon="6.2815">
        <ele>758.8</ele>
        <time>2019-06-23T13:13:50.000Z</time>
      </trkpt>
      <trkpt lat="44.09983" lon="6.28145">
        <ele>759</ele>
        <time>2019-06-23T13:13:51.000Z</time>
      </trkpt>
      <trkpt lat="44.09971" lon="6.28123">
        <ele>758.6</ele>
        <time>2019-06-23T13:13:57.000Z</time>
      </trkpt>
      <trkpt lat="44.09963" lon="6.28106">
        <ele>758.6</ele>
        <time>2019-06-23T13:14:01.000Z</time>
      </trkpt>
      <trkpt lat="44.09964" lon="6.28102">
        <ele>758.8</ele>
        <time>2019-06-23T13:14:02.000Z</time>
      </trkpt>
      <trkpt lat="44.09967" lon="6.28094">
        <ele>759</ele>
        <time>2019-06-23T13:14:04.000Z</time>
      </trkpt>
      <trkpt lat="44.09973" lon="6.2809">
        <ele>759</ele>
        <time>2019-06-23T13:14:06.000Z</time>
      </trkpt>
      <trkpt lat="44.09977" lon="6.2809">
        <ele>759.2</ele>
        <time>2019-06-23T13:14:07.000Z</time>
      </trkpt>
      <trkpt lat="44.09984" lon="6.28095">
        <ele>759.2</ele>
        <time>2019-06-23T13:14:09.000Z</time>
      </trkpt>
      <trkpt lat="44.09995" lon="6.28113">
        <ele>759</ele>
        <time>2019-06-23T13:14:13.000Z</time>
      </trkpt>
      <trkpt lat="44.09996" lon="6.28133">
        <ele>758.4</ele>
        <time>2019-06-23T13:14:17.000Z</time>
      </trkpt>
      <trkpt lat="44.1" lon="6.28146">
        <ele>758.4</ele>
        <time>2019-06-23T13:14:20.000Z</time>
      </trkpt>
      <trkpt lat="44.10003" lon="6.28147">
        <ele>758.4</ele>
        <time>2019-06-23T13:14:21.000Z</time>
      </trkpt>
      <trkpt lat="44.10014" lon="6.28147">
        <ele>758.2</ele>
        <time>2019-06-23T13:14:25.000Z</time>
      </trkpt>
      <trkpt lat="44.10037" lon="6.28152">
        <ele>757.8</ele>
        <time>2019-06-23T13:14:31.000Z</time>
      </trkpt>
      <trkpt lat="44.10039" lon="6.28153">
        <ele>757.8</ele>
        <time>2019-06-23T13:14:32.000Z</time>
      </trkpt>
      <trkpt lat="44.10042" lon="6.28155">
        <ele>757.8</ele>
        <time>2019-06-23T13:14:34.000Z</time>
      </trkpt>
      <trkpt lat="44.10046" lon="6.28153">
        <ele>757.8</ele>
        <time>2019-06-23T13:14:38.000Z</time>
      </trkpt>
      <trkpt lat="44.10046" lon="6.28153">
        <ele>757.6</ele>
        <time>2019-06-23T13:14:39.000Z</time>
      </trkpt>
      <trkpt lat="44.10049" lon="6.28152">
        <ele>757.8</ele>
        <time>2019-06-23T13:14:42.000Z</time>
      </trkpt>
      <trkpt lat="44.10049" lon="6.28151">
        <ele>757.8</ele>
        <time>2019-06-23T13:14:43.000Z</time>
      </trkpt>
      <trkpt lat="44.10049" lon="6.28149">
        <ele>757.8</ele>
        <time>2019-06-23T13:14:45.000Z</time>
      </trkpt>
      <trkpt lat="44.10048" lon="6.28146">
        <ele>757.8</ele>
        <time>2019-06-23T13:14:47.000Z</time>
      </trkpt>
      <trkpt lat="44.10048" lon="6.28142">
        <ele>758</ele>
        <time>2019-06-23T13:14:49.000Z</time>
      </trkpt>
      <trkpt lat="44.10052" lon="6.28123">
        <ele>757.8</ele>
        <time>2019-06-23T13:14:54.000Z</time>
      </trkpt>
      <trkpt lat="44.10053" lon="6.28103">
        <ele>758</ele>
        <time>2019-06-23T13:14:58.000Z</time>
      </trkpt>
      <trkpt lat="44.10053" lon="6.28087">
        <ele>758.4</ele>
        <time>2019-06-23T13:15:02.000Z</time>
      </trkpt>
      <trkpt lat="44.10053" lon="6.28083">
        <ele>758.4</ele>
        <time>2019-06-23T13:15:03.000Z</time>
      </trkpt>
      <trkpt lat="44.10049" lon="6.28058">
        <ele>758.4</ele>
        <time>2019-06-23T13:15:08.000Z</time>
      </trkpt>
      <trkpt lat="44.10047" lon="6.28051">
        <ele>758.2</ele>
        <time>2019-06-23T13:15:10.000Z</time>
      </trkpt>
      <trkpt lat="44.1005" lon="6.28046">
        <ele>758</ele>
        <time>2019-06-23T13:15:12.000Z</time>
      </trkpt>
      <trkpt lat="44.10054" lon="6.28039">
        <ele>757.2</ele>
        <time>2019-06-23T13:15:14.000Z</time>
      </trkpt>
      <trkpt lat="44.10054" lon="6.28033">
        <ele>756.4</ele>
        <time>2019-06-23T13:15:15.000Z</time>
      </trkpt>
      <trkpt lat="44.10054" lon="6.28026">
        <ele>756</ele>
        <time>2019-06-23T13:15:16.000Z</time>
      </trkpt>
      <trkpt lat="44.10053" lon="6.28018">
        <ele>755.4</ele>
        <time>2019-06-23T13:15:17.000Z</time>
      </trkpt>
      <trkpt lat="44.10053" lon="6.2801">
        <ele>754.8</ele>
        <time>2019-06-23T13:15:18.000Z</time>
      </trkpt>
      <trkpt lat="44.10052" lon="6.28004">
        <ele>753.8</ele>
        <time>2019-06-23T13:15:19.000Z</time>
      </trkpt>
      <trkpt lat="44.10052" lon="6.27997">
        <ele>752.6</ele>
        <time>2019-06-23T13:15:20.000Z</time>
      </trkpt>
      <trkpt lat="44.10051" lon="6.2799">
        <ele>751.2</ele>
        <time>2019-06-23T13:15:21.000Z</time>
      </trkpt>
      <trkpt lat="44.10051" lon="6.27983">
        <ele>750</ele>
        <time>2019-06-23T13:15:22.000Z</time>
      </trkpt>
      <trkpt lat="44.10051" lon="6.27977">
        <ele>748.8</ele>
        <time>2019-06-23T13:15:23.000Z</time>
      </trkpt>
      <trkpt lat="44.10051" lon="6.27973">
        <ele>747.8</ele>
        <time>2019-06-23T13:15:24.000Z</time>
      </trkpt>
      <trkpt lat="44.10053" lon="6.27969">
        <ele>746.8</ele>
        <time>2019-06-23T13:15:25.000Z</time>
      </trkpt>
      <trkpt lat="44.10056" lon="6.27967">
        <ele>745.8</ele>
        <time>2019-06-23T13:15:26.000Z</time>
      </trkpt>
      <trkpt lat="44.10058" lon="6.27965">
        <ele>744.8</ele>
        <time>2019-06-23T13:15:27.000Z</time>
      </trkpt>
      <trkpt lat="44.10059" lon="6.27962">
        <ele>743.8</ele>
        <time>2019-06-23T13:15:28.000Z</time>
      </trkpt>
      <trkpt lat="44.10058" lon="6.2796">
        <ele>743</ele>
        <time>2019-06-23T13:15:29.000Z</time>
      </trkpt>
      <trkpt lat="44.10056" lon="6.27957">
        <ele>742.2</ele>
        <time>2019-06-23T13:15:30.000Z</time>
      </trkpt>
      <trkpt lat="44.10055" lon="6.27954">
        <ele>741.2</ele>
        <time>2019-06-23T13:15:31.000Z</time>
      </trkpt>
      <trkpt lat="44.10054" lon="6.27951">
        <ele>740.2</ele>
        <time>2019-06-23T13:15:32.000Z</time>
      </trkpt>
      <trkpt lat="44.10055" lon="6.27948">
        <ele>739.4</ele>
        <time>2019-06-23T13:15:33.000Z</time>
      </trkpt>
      <trkpt lat="44.10056" lon="6.27944">
        <ele>738.8</ele>
        <time>2019-06-23T13:15:34.000Z</time>
      </trkpt>
      <trkpt lat="44.10056" lon="6.27941">
        <ele>738</ele>
        <time>2019-06-23T13:15:35.000Z</time>
      </trkpt>
      <trkpt lat="44.10056" lon="6.27936">
        <ele>736</ele>
        <time>2019-06-23T13:15:37.000Z</time>
      </trkpt>
      <trkpt lat="44.10057" lon="6.27934">
        <ele>734.8</ele>
        <time>2019-06-23T13:15:38.000Z</time>
      </trkpt>
      <trkpt lat="44.1006" lon="6.27931">
        <ele>732.8</ele>
        <time>2019-06-23T13:15:40.000Z</time>
      </trkpt>
      <trkpt lat="44.10062" lon="6.27931">
        <ele>731.4</ele>
        <time>2019-06-23T13:15:41.000Z</time>
      </trkpt>
      <trkpt lat="44.10064" lon="6.2793">
        <ele>730</ele>
        <time>2019-06-23T13:15:42.000Z</time>
      </trkpt>
      <trkpt lat="44.10065" lon="6.27929">
        <ele>729</ele>
        <time>2019-06-23T13:15:43.000Z</time>
      </trkpt>
      <trkpt lat="44.10065" lon="6.27927">
        <ele>728.2</ele>
        <time>2019-06-23T13:15:44.000Z</time>
      </trkpt>
      <trkpt lat="44.10062" lon="6.27922">
        <ele>727.2</ele>
        <time>2019-06-23T13:15:46.000Z</time>
      </trkpt>
      <trkpt lat="44.10061" lon="6.27919">
        <ele>726.6</ele>
        <time>2019-06-23T13:15:47.000Z</time>
      </trkpt>
      <trkpt lat="44.10062" lon="6.27916">
        <ele>726.2</ele>
        <time>2019-06-23T13:15:48.000Z</time>
      </trkpt>
      <trkpt lat="44.10063" lon="6.27912">
        <ele>725.6</ele>
        <time>2019-06-23T13:15:49.000Z</time>
      </trkpt>
      <trkpt lat="44.10064" lon="6.27908">
        <ele>724.6</ele>
        <time>2019-06-23T13:15:50.000Z</time>
      </trkpt>
      <trkpt lat="44.10064" lon="6.27904">
        <ele>723.6</ele>
        <time>2019-06-23T13:15:51.000Z</time>
      </trkpt>
      <trkpt lat="44.10065" lon="6.27901">
        <ele>722.4</ele>
        <time>2019-06-23T13:15:52.000Z</time>
      </trkpt>
      <trkpt lat="44.10068" lon="6.279">
        <ele>721.2</ele>
        <time>2019-06-23T13:15:53.000Z</time>
      </trkpt>
      <trkpt lat="44.1007" lon="6.279">
        <ele>719.8</ele>
        <time>2019-06-23T13:15:54.000Z</time>
      </trkpt>
      <trkpt lat="44.10072" lon="6.27899">
        <ele>718.6</ele>
        <time>2019-06-23T13:15:55.000Z</time>
      </trkpt>
      <trkpt lat="44.10071" lon="6.27891">
        <ele>717</ele>
        <time>2019-06-23T13:15:57.000Z</time>
      </trkpt>
      <trkpt lat="44.1007" lon="6.27887">
        <ele>716.4</ele>
        <time>2019-06-23T13:15:58.000Z</time>
      </trkpt>
      <trkpt lat="44.1007" lon="6.27883">
        <ele>715.6</ele>
        <time>2019-06-23T13:15:59.000Z</time>
      </trkpt>
      <trkpt lat="44.10072" lon="6.27876">
        <ele>713.8</ele>
        <time>2019-06-23T13:16:01.000Z</time>
      </trkpt>
      <trkpt lat="44.10074" lon="6.27872">
        <ele>712.6</ele>
        <time>2019-06-23T13:16:02.000Z</time>
      </trkpt>
      <trkpt lat="44.10076" lon="6.27868">
        <ele>711.6</ele>
        <time>2019-06-23T13:16:03.000Z</time>
      </trkpt>
      <trkpt lat="44.10077" lon="6.27865">
        <ele>710.4</ele>
        <time>2019-06-23T13:16:04.000Z</time>
      </trkpt>
      <trkpt lat="44.10076" lon="6.27863">
        <ele>708.8</ele>
        <time>2019-06-23T13:16:05.000Z</time>
      </trkpt>
      <trkpt lat="44.10074" lon="6.27861">
        <ele>707.6</ele>
        <time>2019-06-23T13:16:06.000Z</time>
      </trkpt>
      <trkpt lat="44.10073" lon="6.27859">
        <ele>706.4</ele>
        <time>2019-06-23T13:16:07.000Z</time>
      </trkpt>
      <trkpt lat="44.10074" lon="6.27858">
        <ele>705.2</ele>
        <time>2019-06-23T13:16:08.000Z</time>
      </trkpt>
      <trkpt lat="44.10076" lon="6.27856">
        <ele>704.4</ele>
        <time>2019-06-23T13:16:09.000Z</time>
      </trkpt>
      <trkpt lat="44.10079" lon="6.27854">
        <ele>703.8</ele>
        <time>2019-06-23T13:16:10.000Z</time>
      </trkpt>
      <trkpt lat="44.10079" lon="6.27852">
        <ele>703.2</ele>
        <time>2019-06-23T13:16:11.000Z</time>
      </trkpt>
      <trkpt lat="44.10078" lon="6.27848">
        <ele>702.8</ele>
        <time>2019-06-23T13:16:12.000Z</time>
      </trkpt>
      <trkpt lat="44.10077" lon="6.27846">
        <ele>702.2</ele>
        <time>2019-06-23T13:16:13.000Z</time>
      </trkpt>
      <trkpt lat="44.10077" lon="6.27843">
        <ele>701.2</ele>
        <time>2019-06-23T13:16:14.000Z</time>
      </trkpt>
      <trkpt lat="44.10079" lon="6.2784">
        <ele>700</ele>
        <time>2019-06-23T13:16:15.000Z</time>
      </trkpt>
      <trkpt lat="44.10083" lon="6.27836">
        <ele>698.8</ele>
        <time>2019-06-23T13:16:17.000Z</time>
      </trkpt>
      <trkpt lat="44.10083" lon="6.27834">
        <ele>698</ele>
        <time>2019-06-23T13:16:18.000Z</time>
      </trkpt>
      <trkpt lat="44.10082" lon="6.27831">
        <ele>697</ele>
        <time>2019-06-23T13:16:19.000Z</time>
      </trkpt>
      <trkpt lat="44.10082" lon="6.27827">
        <ele>696</ele>
        <time>2019-06-23T13:16:20.000Z</time>
      </trkpt>
      <trkpt lat="44.10082" lon="6.27822">
        <ele>695</ele>
        <time>2019-06-23T13:16:21.000Z</time>
      </trkpt>
      <trkpt lat="44.1008" lon="6.27817">
        <ele>693.8</ele>
        <time>2019-06-23T13:16:22.000Z</time>
      </trkpt>
      <trkpt lat="44.10079" lon="6.27814">
        <ele>692.6</ele>
        <time>2019-06-23T13:16:23.000Z</time>
      </trkpt>
      <trkpt lat="44.10078" lon="6.27812">
        <ele>691.6</ele>
        <time>2019-06-23T13:16:24.000Z</time>
      </trkpt>
      <trkpt lat="44.10079" lon="6.27809">
        <ele>690.4</ele>
        <time>2019-06-23T13:16:25.000Z</time>
      </trkpt>
      <trkpt lat="44.10078" lon="6.27807">
        <ele>689.8</ele>
        <time>2019-06-23T13:16:26.000Z</time>
      </trkpt>
      <trkpt lat="44.10077" lon="6.27805">
        <ele>689.2</ele>
        <time>2019-06-23T13:16:27.000Z</time>
      </trkpt>
      <trkpt lat="44.10074" lon="6.27801">
        <ele>689</ele>
        <time>2019-06-23T13:16:29.000Z</time>
      </trkpt>
      <trkpt lat="44.10063" lon="6.2779">
        <ele>689.4</ele>
        <time>2019-06-23T13:16:33.000Z</time>
      </trkpt>
      <trkpt lat="44.10047" lon="6.27783">
        <ele>689.6</ele>
        <time>2019-06-23T13:16:37.000Z</time>
      </trkpt>
      <trkpt lat="44.10043" lon="6.2778">
        <ele>689.4</ele>
        <time>2019-06-23T13:16:38.000Z</time>
      </trkpt>
      <trkpt lat="44.10036" lon="6.27776">
        <ele>689</ele>
        <time>2019-06-23T13:16:39.000Z</time>
      </trkpt>
      <trkpt lat="44.10021" lon="6.27771">
        <ele>687.8</ele>
        <time>2019-06-23T13:16:41.000Z</time>
      </trkpt>
      <trkpt lat="44.10007" lon="6.27765">
        <ele>687</ele>
        <time>2019-06-23T13:16:43.000Z</time>
      </trkpt>
      <trkpt lat="44.10005" lon="6.27761">
        <ele>686.4</ele>
        <time>2019-06-23T13:16:44.000Z</time>
      </trkpt>
      <trkpt lat="44.10004" lon="6.27756">
        <ele>685.4</ele>
        <time>2019-06-23T13:16:45.000Z</time>
      </trkpt>
      <trkpt lat="44.10002" lon="6.27752">
        <ele>684.2</ele>
        <time>2019-06-23T13:16:46.000Z</time>
      </trkpt>
      <trkpt lat="44.1" lon="6.2775">
        <ele>683.4</ele>
        <time>2019-06-23T13:16:47.000Z</time>
      </trkpt>
      <trkpt lat="44.09998" lon="6.27748">
        <ele>683</ele>
        <time>2019-06-23T13:16:48.000Z</time>
      </trkpt>
      <trkpt lat="44.09997" lon="6.27746">
        <ele>682.8</ele>
        <time>2019-06-23T13:16:49.000Z</time>
      </trkpt>
      <trkpt lat="44.09993" lon="6.27737">
        <ele>682.6</ele>
        <time>2019-06-23T13:16:52.000Z</time>
      </trkpt>
      <trkpt lat="44.09989" lon="6.27723">
        <ele>683.6</ele>
        <time>2019-06-23T13:16:56.000Z</time>
      </trkpt>
      <trkpt lat="44.09988" lon="6.27715">
        <ele>684</ele>
        <time>2019-06-23T13:16:58.000Z</time>
      </trkpt>
      <trkpt lat="44.09984" lon="6.27702">
        <ele>684.4</ele>
        <time>2019-06-23T13:17:01.000Z</time>
      </trkpt>
      <trkpt lat="44.09977" lon="6.27678">
        <ele>683.8</ele>
        <time>2019-06-23T13:17:05.000Z</time>
      </trkpt>
      <trkpt lat="44.09975" lon="6.27672">
        <ele>683.4</ele>
        <time>2019-06-23T13:17:06.000Z</time>
      </trkpt>
      <trkpt lat="44.09971" lon="6.27669">
        <ele>683</ele>
        <time>2019-06-23T13:17:07.000Z</time>
      </trkpt>
      <trkpt lat="44.09968" lon="6.27668">
        <ele>682.6</ele>
        <time>2019-06-23T13:17:08.000Z</time>
      </trkpt>
      <trkpt lat="44.0996" lon="6.27661">
        <ele>681.6</ele>
        <time>2019-06-23T13:17:11.000Z</time>
      </trkpt>
      <trkpt lat="44.09957" lon="6.27659">
        <ele>681.6</ele>
        <time>2019-06-23T13:17:12.000Z</time>
      </trkpt>
      <trkpt lat="44.09946" lon="6.27654">
        <ele>681.6</ele>
        <time>2019-06-23T13:17:16.000Z</time>
      </trkpt>
      <trkpt lat="44.09939" lon="6.27649">
        <ele>682.4</ele>
        <time>2019-06-23T13:17:20.000Z</time>
      </trkpt>
      <trkpt lat="44.09938" lon="6.27649">
        <ele>682.6</ele>
        <time>2019-06-23T13:17:21.000Z</time>
      </trkpt>
      <trkpt lat="44.09931" lon="6.27648">
        <ele>683.8</ele>
        <time>2019-06-23T13:17:24.000Z</time>
      </trkpt>
      <trkpt lat="44.09928" lon="6.27646">
        <ele>684.4</ele>
        <time>2019-06-23T13:17:26.000Z</time>
      </trkpt>
      <trkpt lat="44.09922" lon="6.27641">
        <ele>685</ele>
        <time>2019-06-23T13:17:29.000Z</time>
      </trkpt>
      <trkpt lat="44.09919" lon="6.27637">
        <ele>685.2</ele>
        <time>2019-06-23T13:17:31.000Z</time>
      </trkpt>
      <trkpt lat="44.09907" lon="6.27631">
        <ele>684.8</ele>
        <time>2019-06-23T13:17:35.000Z</time>
      </trkpt>
      <trkpt lat="44.09898" lon="6.27624">
        <ele>683.8</ele>
        <time>2019-06-23T13:17:37.000Z</time>
      </trkpt>
      <trkpt lat="44.09892" lon="6.27622">
        <ele>683.4</ele>
        <time>2019-06-23T13:17:38.000Z</time>
      </trkpt>
      <trkpt lat="44.09882" lon="6.27618">
        <ele>683.2</ele>
        <time>2019-06-23T13:17:40.000Z</time>
      </trkpt>
      <trkpt lat="44.09872" lon="6.27617">
        <ele>682.6</ele>
        <time>2019-06-23T13:17:42.000Z</time>
      </trkpt>
      <trkpt lat="44.09861" lon="6.27614">
        <ele>681.2</ele>
        <time>2019-06-23T13:17:44.000Z</time>
      </trkpt>
      <trkpt lat="44.09855" lon="6.27613">
        <ele>680.8</ele>
        <time>2019-06-23T13:17:45.000Z</time>
      </trkpt>
      <trkpt lat="44.09848" lon="6.27612">
        <ele>680</ele>
        <time>2019-06-23T13:17:46.000Z</time>
      </trkpt>
      <trkpt lat="44.09844" lon="6.27612">
        <ele>678.6</ele>
        <time>2019-06-23T13:17:47.000Z</time>
      </trkpt>
      <trkpt lat="44.09843" lon="6.27614">
        <ele>677.2</ele>
        <time>2019-06-23T13:17:48.000Z</time>
      </trkpt>
      <trkpt lat="44.09841" lon="6.27616">
        <ele>675.8</ele>
        <time>2019-06-23T13:17:50.000Z</time>
      </trkpt>
      <trkpt lat="44.09836" lon="6.27619">
        <ele>675</ele>
        <time>2019-06-23T13:17:53.000Z</time>
      </trkpt>
      <trkpt lat="44.09834" lon="6.2762">
        <ele>675</ele>
        <time>2019-06-23T13:17:54.000Z</time>
      </trkpt>
      <trkpt lat="44.09829" lon="6.27615">
        <ele>675</ele>
        <time>2019-06-23T13:17:57.000Z</time>
      </trkpt>
      <trkpt lat="44.09816" lon="6.27607">
        <ele>675.2</ele>
        <time>2019-06-23T13:18:01.000Z</time>
      </trkpt>
      <trkpt lat="44.09804" lon="6.27599">
        <ele>674.8</ele>
        <time>2019-06-23T13:18:05.000Z</time>
      </trkpt>
      <trkpt lat="44.098" lon="6.27596">
        <ele>674.6</ele>
        <time>2019-06-23T13:18:06.000Z</time>
      </trkpt>
      <trkpt lat="44.09793" lon="6.27592">
        <ele>674.2</ele>
        <time>2019-06-23T13:18:08.000Z</time>
      </trkpt>
      <trkpt lat="44.0979" lon="6.27588">
        <ele>674.2</ele>
        <time>2019-06-23T13:18:09.000Z</time>
      </trkpt>
      <trkpt lat="44.09787" lon="6.27585">
        <ele>674.2</ele>
        <time>2019-06-23T13:18:10.000Z</time>
      </trkpt>
      <trkpt lat="44.09783" lon="6.27582">
        <ele>674</ele>
        <time>2019-06-23T13:18:11.000Z</time>
      </trkpt>
      <trkpt lat="44.09778" lon="6.27577">
        <ele>673.8</ele>
        <time>2019-06-23T13:18:13.000Z</time>
      </trkpt>
      <trkpt lat="44.09772" lon="6.27568">
        <ele>673.4</ele>
        <time>2019-06-23T13:18:15.000Z</time>
      </trkpt>
      <trkpt lat="44.09753" lon="6.27552">
        <ele>672.8</ele>
        <time>2019-06-23T13:18:20.000Z</time>
      </trkpt>
      <trkpt lat="44.0975" lon="6.27549">
        <ele>672.8</ele>
        <time>2019-06-23T13:18:21.000Z</time>
      </trkpt>
      <trkpt lat="44.09743" lon="6.27544">
        <ele>672.6</ele>
        <time>2019-06-23T13:18:23.000Z</time>
      </trkpt>
      <trkpt lat="44.09737" lon="6.27538">
        <ele>672.6</ele>
        <time>2019-06-23T13:18:25.000Z</time>
      </trkpt>
      <trkpt lat="44.09726" lon="6.27522">
        <ele>672.8</ele>
        <time>2019-06-23T13:18:30.000Z</time>
      </trkpt>
      <trkpt lat="44.09725" lon="6.27519">
        <ele>673</ele>
        <time>2019-06-23T13:18:31.000Z</time>
      </trkpt>
      <trkpt lat="44.09718" lon="6.27512">
        <ele>674</ele>
        <time>2019-06-23T13:18:34.000Z</time>
      </trkpt>
      <trkpt lat="44.09711" lon="6.27501">
        <ele>674.4</ele>
        <time>2019-06-23T13:18:37.000Z</time>
      </trkpt>
      <trkpt lat="44.097" lon="6.27486">
        <ele>674.2</ele>
        <time>2019-06-23T13:18:40.000Z</time>
      </trkpt>
      <trkpt lat="44.09695" lon="6.27481">
        <ele>673.6</ele>
        <time>2019-06-23T13:18:41.000Z</time>
      </trkpt>
      <trkpt lat="44.09689" lon="6.27479">
        <ele>673</ele>
        <time>2019-06-23T13:18:42.000Z</time>
      </trkpt>
      <trkpt lat="44.09683" lon="6.2748">
        <ele>672.4</ele>
        <time>2019-06-23T13:18:43.000Z</time>
      </trkpt>
      <trkpt lat="44.09677" lon="6.27483">
        <ele>672.2</ele>
        <time>2019-06-23T13:18:44.000Z</time>
      </trkpt>
      <trkpt lat="44.09668" lon="6.27489">
        <ele>671.6</ele>
        <time>2019-06-23T13:18:46.000Z</time>
      </trkpt>
      <trkpt lat="44.09663" lon="6.27492">
        <ele>671.4</ele>
        <time>2019-06-23T13:18:47.000Z</time>
      </trkpt>
      <trkpt lat="44.09646" lon="6.27501">
        <ele>670.6</ele>
        <time>2019-06-23T13:18:51.000Z</time>
      </trkpt>
      <trkpt lat="44.09642" lon="6.27502">
        <ele>670.6</ele>
        <time>2019-06-23T13:18:52.000Z</time>
      </trkpt>
      <trkpt lat="44.09639" lon="6.27501">
        <ele>670.4</ele>
        <time>2019-06-23T13:18:53.000Z</time>
      </trkpt>
      <trkpt lat="44.09635" lon="6.27499">
        <ele>670.2</ele>
        <time>2019-06-23T13:18:54.000Z</time>
      </trkpt>
      <trkpt lat="44.0963" lon="6.27495">
        <ele>670</ele>
        <time>2019-06-23T13:18:56.000Z</time>
      </trkpt>
      <trkpt lat="44.09616" lon="6.27486">
        <ele>669.6</ele>
        <time>2019-06-23T13:19:00.000Z</time>
      </trkpt>
      <trkpt lat="44.09607" lon="6.27482">
        <ele>669.2</ele>
        <time>2019-06-23T13:19:02.000Z</time>
      </trkpt>
      <trkpt lat="44.09602" lon="6.27481">
        <ele>668.8</ele>
        <time>2019-06-23T13:19:03.000Z</time>
      </trkpt>
      <trkpt lat="44.09597" lon="6.27481">
        <ele>668.4</ele>
        <time>2019-06-23T13:19:04.000Z</time>
      </trkpt>
      <trkpt lat="44.09593" lon="6.2748">
        <ele>668.2</ele>
        <time>2019-06-23T13:19:05.000Z</time>
      </trkpt>
      <trkpt lat="44.09586" lon="6.27475">
        <ele>668.2</ele>
        <time>2019-06-23T13:19:07.000Z</time>
      </trkpt>
      <trkpt lat="44.09583" lon="6.27472">
        <ele>668</ele>
        <time>2019-06-23T13:19:08.000Z</time>
      </trkpt>
      <trkpt lat="44.09563" lon="6.27461">
        <ele>667</ele>
        <time>2019-06-23T13:19:14.000Z</time>
      </trkpt>
      <trkpt lat="44.0955" lon="6.27455">
        <ele>666.6</ele>
        <time>2019-06-23T13:19:17.000Z</time>
      </trkpt>
      <trkpt lat="44.09541" lon="6.27451">
        <ele>666.4</ele>
        <time>2019-06-23T13:19:19.000Z</time>
      </trkpt>
      <trkpt lat="44.09536" lon="6.27449">
        <ele>666.4</ele>
        <time>2019-06-23T13:19:20.000Z</time>
      </trkpt>
      <trkpt lat="44.09527" lon="6.27446">
        <ele>666.2</ele>
        <time>2019-06-23T13:19:22.000Z</time>
      </trkpt>
      <trkpt lat="44.09517" lon="6.27444">
        <ele>666</ele>
        <time>2019-06-23T13:19:24.000Z</time>
      </trkpt>
      <trkpt lat="44.09512" lon="6.27442">
        <ele>665.8</ele>
        <time>2019-06-23T13:19:25.000Z</time>
      </trkpt>
      <trkpt lat="44.09507" lon="6.27442">
        <ele>665.6</ele>
        <time>2019-06-23T13:19:26.000Z</time>
      </trkpt>
      <trkpt lat="44.0949" lon="6.27444">
        <ele>665.2</ele>
        <time>2019-06-23T13:19:30.000Z</time>
      </trkpt>
      <trkpt lat="44.09485" lon="6.27445">
        <ele>665.2</ele>
        <time>2019-06-23T13:19:31.000Z</time>
      </trkpt>
      <trkpt lat="44.09476" lon="6.27446">
        <ele>665.2</ele>
        <time>2019-06-23T13:19:33.000Z</time>
      </trkpt>
      <trkpt lat="44.09464" lon="6.27441">
        <ele>665.4</ele>
        <time>2019-06-23T13:19:36.000Z</time>
      </trkpt>
      <trkpt lat="44.09455" lon="6.2743">
        <ele>665.8</ele>
        <time>2019-06-23T13:19:40.000Z</time>
      </trkpt>
      <trkpt lat="44.09454" lon="6.27426">
        <ele>666</ele>
        <time>2019-06-23T13:19:41.000Z</time>
      </trkpt>
      <trkpt lat="44.09453" lon="6.27403">
        <ele>665.6</ele>
        <time>2019-06-23T13:19:45.000Z</time>
      </trkpt>
      <trkpt lat="44.09455" lon="6.27386">
        <ele>665</ele>
        <time>2019-06-23T13:19:47.000Z</time>
      </trkpt>
      <trkpt lat="44.09455" lon="6.27377">
        <ele>664.6</ele>
        <time>2019-06-23T13:19:48.000Z</time>
      </trkpt>
      <trkpt lat="44.09453" lon="6.27369">
        <ele>664.2</ele>
        <time>2019-06-23T13:19:49.000Z</time>
      </trkpt>
      <trkpt lat="44.09444" lon="6.27358">
        <ele>663.6</ele>
        <time>2019-06-23T13:19:51.000Z</time>
      </trkpt>
      <trkpt lat="44.09438" lon="6.27356">
        <ele>663.4</ele>
        <time>2019-06-23T13:19:52.000Z</time>
      </trkpt>
      <trkpt lat="44.09433" lon="6.27355">
        <ele>663.2</ele>
        <time>2019-06-23T13:19:53.000Z</time>
      </trkpt>
      <trkpt lat="44.09423" lon="6.2735">
        <ele>663</ele>
        <time>2019-06-23T13:19:55.000Z</time>
      </trkpt>
      <trkpt lat="44.09415" lon="6.27342">
        <ele>663</ele>
        <time>2019-06-23T13:19:57.000Z</time>
      </trkpt>
      <trkpt lat="44.09407" lon="6.27334">
        <ele>662.8</ele>
        <time>2019-06-23T13:19:59.000Z</time>
      </trkpt>
      <trkpt lat="44.09403" lon="6.27331">
        <ele>662.8</ele>
        <time>2019-06-23T13:20:00.000Z</time>
      </trkpt>
      <trkpt lat="44.09389" lon="6.27322">
        <ele>662.4</ele>
        <time>2019-06-23T13:20:03.000Z</time>
      </trkpt>
      <trkpt lat="44.0938" lon="6.27319">
        <ele>661.8</ele>
        <time>2019-06-23T13:20:05.000Z</time>
      </trkpt>
      <trkpt lat="44.09374" lon="6.27318">
        <ele>661.4</ele>
        <time>2019-06-23T13:20:06.000Z</time>
      </trkpt>
      <trkpt lat="44.09369" lon="6.27317">
        <ele>661.4</ele>
        <time>2019-06-23T13:20:07.000Z</time>
      </trkpt>
      <trkpt lat="44.0936" lon="6.27314">
        <ele>661.2</ele>
        <time>2019-06-23T13:20:09.000Z</time>
      </trkpt>
      <trkpt lat="44.09352" lon="6.27308">
        <ele>661</ele>
        <time>2019-06-23T13:20:11.000Z</time>
      </trkpt>
      <trkpt lat="44.09339" lon="6.273">
        <ele>660.6</ele>
        <time>2019-06-23T13:20:14.000Z</time>
      </trkpt>
      <trkpt lat="44.0933" lon="6.27296">
        <ele>660.2</ele>
        <time>2019-06-23T13:20:16.000Z</time>
      </trkpt>
      <trkpt lat="44.09322" lon="6.27293">
        <ele>659.8</ele>
        <time>2019-06-23T13:20:18.000Z</time>
      </trkpt>
      <trkpt lat="44.09314" lon="6.27293">
        <ele>659.6</ele>
        <time>2019-06-23T13:20:20.000Z</time>
      </trkpt>
      <trkpt lat="44.0931" lon="6.27294">
        <ele>659.6</ele>
        <time>2019-06-23T13:20:21.000Z</time>
      </trkpt>
      <trkpt lat="44.09292" lon="6.27296">
        <ele>660</ele>
        <time>2019-06-23T13:20:26.000Z</time>
      </trkpt>
      <trkpt lat="44.09283" lon="6.27296">
        <ele>660</ele>
        <time>2019-06-23T13:20:28.000Z</time>
      </trkpt>
      <trkpt lat="44.09255" lon="6.27296">
        <ele>659</ele>
        <time>2019-06-23T13:20:35.000Z</time>
      </trkpt>
      <trkpt lat="44.09251" lon="6.27295">
        <ele>658.8</ele>
        <time>2019-06-23T13:20:36.000Z</time>
      </trkpt>
      <trkpt lat="44.09233" lon="6.27296">
        <ele>658.6</ele>
        <time>2019-06-23T13:20:41.000Z</time>
      </trkpt>
      <trkpt lat="44.0921" lon="6.27304">
        <ele>658</ele>
        <time>2019-06-23T13:20:46.000Z</time>
      </trkpt>
      <trkpt lat="44.09206" lon="6.27306">
        <ele>657.8</ele>
        <time>2019-06-23T13:20:47.000Z</time>
      </trkpt>
      <trkpt lat="44.09201" lon="6.27307">
        <ele>657.8</ele>
        <time>2019-06-23T13:20:48.000Z</time>
      </trkpt>
      <trkpt lat="44.09192" lon="6.2731">
        <ele>657.8</ele>
        <time>2019-06-23T13:20:50.000Z</time>
      </trkpt>
      <trkpt lat="44.09184" lon="6.27312">
        <ele>657.8</ele>
        <time>2019-06-23T13:20:52.000Z</time>
      </trkpt>
      <trkpt lat="44.09173" lon="6.27316">
        <ele>657.8</ele>
        <time>2019-06-23T13:20:55.000Z</time>
      </trkpt>
      <trkpt lat="44.09169" lon="6.27316">
        <ele>657.8</ele>
        <time>2019-06-23T13:20:56.000Z</time>
      </trkpt>
      <trkpt lat="44.09156" lon="6.27315">
        <ele>657.4</ele>
        <time>2019-06-23T13:20:59.000Z</time>
      </trkpt>
      <trkpt lat="44.09154" lon="6.27314">
        <ele>657</ele>
        <time>2019-06-23T13:21:00.000Z</time>
      </trkpt>
      <trkpt lat="44.0915" lon="6.27311">
        <ele>655.8</ele>
        <time>2019-06-23T13:21:03.000Z</time>
      </trkpt>
      <trkpt lat="44.0915" lon="6.2731">
        <ele>655.6</ele>
        <time>2019-06-23T13:21:04.000Z</time>
      </trkpt>
      <trkpt lat="44.09145" lon="6.27296">
        <ele>654.8</ele>
        <time>2019-06-23T13:21:09.000Z</time>
      </trkpt>
      <trkpt lat="44.09143" lon="6.27294">
        <ele>654.6</ele>
        <time>2019-06-23T13:21:10.000Z</time>
      </trkpt>
      <trkpt lat="44.09142" lon="6.27292">
        <ele>654.6</ele>
        <time>2019-06-23T13:21:11.000Z</time>
      </trkpt>
      <trkpt lat="44.0914" lon="6.27289">
        <ele>654.4</ele>
        <time>2019-06-23T13:21:14.000Z</time>
      </trkpt>
      <trkpt lat="44.09136" lon="6.27282">
        <ele>655.4</ele>
        <time>2019-06-23T13:21:21.000Z</time>
      </trkpt>
      <trkpt lat="44.09136" lon="6.27281">
        <ele>655.4</ele>
        <time>2019-06-23T13:21:22.000Z</time>
      </trkpt>
      <trkpt lat="44.09135" lon="6.2728">
        <ele>655.4</ele>
        <time>2019-06-23T13:21:23.000Z</time>
      </trkpt>
      <trkpt lat="44.09129" lon="6.27271">
        <ele>655.4</ele>
        <time>2019-06-23T13:21:31.000Z</time>
      </trkpt>
      <trkpt lat="44.09119" lon="6.2726">
        <ele>655.6</ele>
        <time>2019-06-23T13:21:42.000Z</time>
      </trkpt>
      <trkpt lat="44.09117" lon="6.27256">
        <ele>655.8</ele>
        <time>2019-06-23T13:21:47.000Z</time>
      </trkpt>
      <trkpt lat="44.09116" lon="6.27255">
        <ele>655.8</ele>
        <time>2019-06-23T13:21:48.000Z</time>
      </trkpt>
      <trkpt lat="44.09114" lon="6.27252">
        <ele>655.8</ele>
        <time>2019-06-23T13:21:53.000Z</time>
      </trkpt>
      <trkpt lat="44.09114" lon="6.27252">
        <ele>655.8</ele>
        <time>2019-06-23T13:21:54.000Z</time>
      </trkpt>
      <trkpt lat="44.09114" lon="6.27252">
        <ele>655.8</ele>
        <time>2019-06-23T13:21:55.000Z</time>
      </trkpt>
      <trkpt lat="44.09114" lon="6.27252">
        <ele>655.8</ele>
        <time>2019-06-23T13:21:56.000Z</time>
      </trkpt>
      <trkpt lat="44.09114" lon="6.27252">
        <ele>655.6</ele>
        <time>2019-06-23T13:22:02.000Z</time>
      </trkpt>
      <trkpt lat="44.09114" lon="6.27252">
        <ele>655.8</ele>
        <time>2019-06-23T13:22:06.000Z</time>
      </trkpt>
      <trkpt lat="44.09114" lon="6.27252">
        <ele>655.8</ele>
        <time>2019-06-23T13:22:07.000Z</time>
      </trkpt>
      <trkpt lat="44.09114" lon="6.27252">
        <ele>655.8</ele>
        <time>2019-06-23T13:22:10.000Z</time>
      </trkpt>
      <trkpt lat="44.09114" lon="6.27252">
        <ele>655.6</ele>
        <time>2019-06-23T13:22:12.000Z</time>
      </trkpt>
      <trkpt lat="44.09113" lon="6.27252">
        <ele>655.4</ele>
        <time>2019-06-23T13:22:14.000Z</time>
      </trkpt>
      <trkpt lat="44.09106" lon="6.27247">
        <ele>655.2</ele>
        <time>2019-06-23T13:22:20.000Z</time>
      </trkpt>
      <trkpt lat="44.09094" lon="6.27235">
        <ele>655</ele>
        <time>2019-06-23T13:22:25.000Z</time>
      </trkpt>
      <trkpt lat="44.09088" lon="6.27224">
        <ele>654.8</ele>
        <time>2019-06-23T13:22:28.000Z</time>
      </trkpt>
      <trkpt lat="44.09084" lon="6.27217">
        <ele>654.6</ele>
        <time>2019-06-23T13:22:30.000Z</time>
      </trkpt>
      <trkpt lat="44.09081" lon="6.27214">
        <ele>654.6</ele>
        <time>2019-06-23T13:22:31.000Z</time>
      </trkpt>
      <trkpt lat="44.09066" lon="6.272">
        <ele>654</ele>
        <time>2019-06-23T13:22:36.000Z</time>
      </trkpt>
      <trkpt lat="44.09061" lon="6.27194">
        <ele>653.8</ele>
        <time>2019-06-23T13:22:38.000Z</time>
      </trkpt>
      <trkpt lat="44.09054" lon="6.27181">
        <ele>653.8</ele>
        <time>2019-06-23T13:22:42.000Z</time>
      </trkpt>
      <trkpt lat="44.09051" lon="6.27175">
        <ele>654</ele>
        <time>2019-06-23T13:22:44.000Z</time>
      </trkpt>
      <trkpt lat="44.09046" lon="6.27164">
        <ele>654.4</ele>
        <time>2019-06-23T13:22:49.000Z</time>
      </trkpt>
      <trkpt lat="44.09043" lon="6.27163">
        <ele>654.6</ele>
        <time>2019-06-23T13:22:51.000Z</time>
      </trkpt>
      <trkpt lat="44.09042" lon="6.27164">
        <ele>654.8</ele>
        <time>2019-06-23T13:22:52.000Z</time>
      </trkpt>
      <trkpt lat="44.0904" lon="6.27169">
        <ele>654.8</ele>
        <time>2019-06-23T13:22:54.000Z</time>
      </trkpt>
      <trkpt lat="44.0903" lon="6.27198">
        <ele>655.2</ele>
        <time>2019-06-23T13:23:02.000Z</time>
      </trkpt>
      <trkpt lat="44.09016" lon="6.27238">
        <ele>655.4</ele>
        <time>2019-06-23T13:23:11.000Z</time>
      </trkpt>
      <trkpt lat="44.09011" lon="6.27253">
        <ele>655.8</ele>
        <time>2019-06-23T13:23:14.000Z</time>
      </trkpt>
      <trkpt lat="44.09007" lon="6.27263">
        <ele>655.8</ele>
        <time>2019-06-23T13:23:16.000Z</time>
      </trkpt>
      <trkpt lat="44.09" lon="6.27284">
        <ele>655.6</ele>
        <time>2019-06-23T13:23:20.000Z</time>
      </trkpt>
      <trkpt lat="44.08989" lon="6.27319">
        <ele>655.8</ele>
        <time>2019-06-23T13:23:27.000Z</time>
      </trkpt>
      <trkpt lat="44.08985" lon="6.27329">
        <ele>656</ele>
        <time>2019-06-23T13:23:29.000Z</time>
      </trkpt>
      <trkpt lat="44.08982" lon="6.27339">
        <ele>656.2</ele>
        <time>2019-06-23T13:23:31.000Z</time>
      </trkpt>
      <trkpt lat="44.08976" lon="6.27353">
        <ele>656.4</ele>
        <time>2019-06-23T13:23:34.000Z</time>
      </trkpt>
      <trkpt lat="44.08971" lon="6.27372">
        <ele>656.8</ele>
        <time>2019-06-23T13:23:38.000Z</time>
      </trkpt>
      <trkpt lat="44.08961" lon="6.27414">
        <ele>657.6</ele>
        <time>2019-06-23T13:23:46.000Z</time>
      </trkpt>
      <trkpt lat="44.0896" lon="6.27419">
        <ele>657.8</ele>
        <time>2019-06-23T13:23:47.000Z</time>
      </trkpt>
      <trkpt lat="44.08959" lon="6.27424">
        <ele>658</ele>
        <time>2019-06-23T13:23:48.000Z</time>
      </trkpt>
      <trkpt lat="44.08949" lon="6.27464">
        <ele>658.4</ele>
        <time>2019-06-23T13:23:56.000Z</time>
      </trkpt>
      <trkpt lat="44.08944" lon="6.27481">
        <ele>658.8</ele>
        <time>2019-06-23T13:24:02.000Z</time>
      </trkpt>
      <trkpt lat="44.08944" lon="6.27482">
        <ele>658.8</ele>
        <time>2019-06-23T13:24:03.000Z</time>
      </trkpt>
      <trkpt lat="44.08944" lon="6.27481">
        <ele>659</ele>
        <time>2019-06-23T13:24:07.000Z</time>
      </trkpt>
      <trkpt lat="44.08944" lon="6.27481">
        <ele>659</ele>
        <time>2019-06-23T13:24:10.000Z</time>
      </trkpt>
      <trkpt lat="44.08945" lon="6.27482">
        <ele>658.4</ele>
        <time>2019-06-23T13:24:13.000Z</time>
      </trkpt>
      <trkpt lat="44.08945" lon="6.27482">
        <ele>658.4</ele>
        <time>2019-06-23T13:24:16.000Z</time>
        <extensions>
          <visugpx:TrkExtension xmlns:visugpx="https://www.visugpx.com/editgpx/">
            <visugpx:node>11</visugpx:node>
            </visugpx:TrkExtension>
        </extensions>
      </trkpt>
    </trkseg>
  </trk>
</gpx>